<?xml version='1.0' encoding='UTF-8'?><gpx version="1.1" creator="JPX - https://github.com/jenetics/jpx" xmlns="http://www.topografix.com/GPX/1/1"><trk><trkseg><trkpt lat="46.1069771" lon="12.1820587"><ele>317.0</ele><time>2026-05-02T11:38:28.307Z</time></trkpt><trkpt lat="46.1069154" lon="12.1821873"><ele>317.0</ele><time>2026-05-02T11:38:30.309Z</time></trkpt><trkpt lat="46.1068628" lon="12.1823098"><ele>317.0</ele><time>2026-05-02T11:38:32.312Z</time></trkpt><trkpt lat="46.106798" lon="12.1824299"><ele>317.0</ele><time>2026-05-02T11:38:34.309Z</time></trkpt><trkpt lat="46.1067077" lon="12.1825255"><ele>317.0</ele><time>2026-05-02T11:38:36.312Z</time></trkpt><trkpt lat="46.1066173" lon="12.1825793"><ele>320.33333333333337</ele><time>2026-05-02T11:38:38.314Z</time></trkpt><trkpt lat="46.1065207" lon="12.1826073"><ele>323.6666666666667</ele><time>2026-05-02T11:38:40.321Z</time></trkpt><trkpt lat="46.1064285" lon="12.1826277"><ele>327.0</ele><time>2026-05-02T11:38:42.311Z</time></trkpt><trkpt lat="46.1063603" lon="12.1826911"><ele>330.3333333333333</ele><time>2026-05-02T11:38:44.318Z</time></trkpt><trkpt lat="46.1063483" lon="12.1828235"><ele>333.66666666666663</ele><time>2026-05-02T11:38:47.313Z</time></trkpt><trkpt lat="46.1063583" lon="12.1829244"><ele>337.0</ele><time>2026-05-02T11:38:50.318Z</time></trkpt><trkpt lat="46.1063902" lon="12.1830193"><ele>337.00000000000006</ele><time>2026-05-02T11:38:53.315Z</time></trkpt><trkpt lat="46.1064268" lon="12.1831082"><ele>337.0</ele><time>2026-05-02T11:38:57.31Z</time></trkpt><trkpt lat="46.1064392" lon="12.183228"><ele>337.0</ele><time>2026-05-02T11:39:02.318Z</time></trkpt><trkpt lat="46.1064604" lon="12.1833142"><ele>337.0</ele><time>2026-05-02T11:39:05.311Z</time></trkpt><trkpt lat="46.1064759" lon="12.183409"><ele>337.0</ele><time>2026-05-02T11:39:09.318Z</time></trkpt><trkpt lat="46.1064822" lon="12.1835177"><ele>337.00000000000006</ele><time>2026-05-02T11:39:14.312Z</time></trkpt><trkpt lat="46.106476" lon="12.1836247"><ele>337.0</ele><time>2026-05-02T11:39:18.317Z</time></trkpt><trkpt lat="46.10647" lon="12.1837344"><ele>336.7142857142857</ele><time>2026-05-02T11:39:22.312Z</time></trkpt><trkpt lat="46.1064839" lon="12.1838387"><ele>336.42857142857144</ele><time>2026-05-02T11:39:26.319Z</time></trkpt><trkpt lat="46.1064982" lon="12.1839276"><ele>336.1428571428571</ele><time>2026-05-02T11:39:30.333Z</time></trkpt><trkpt lat="46.1065368" lon="12.1840019"><ele>335.8571428571429</ele><time>2026-05-02T11:39:33.321Z</time></trkpt><trkpt lat="46.1065815" lon="12.184072"><ele>335.57142857142856</ele><time>2026-05-02T11:39:36.318Z</time></trkpt><trkpt lat="46.1065999" lon="12.1841624"><ele>335.2857142857143</ele><time>2026-05-02T11:39:40.323Z</time></trkpt><trkpt lat="46.1066055" lon="12.1842558"><ele>335.0</ele><time>2026-05-02T11:39:44.319Z</time></trkpt><trkpt lat="46.106558" lon="12.1843278"><ele>336.2857142857143</ele><time>2026-05-02T11:39:50.319Z</time></trkpt><trkpt lat="46.1064826" lon="12.1843153"><ele>337.57142857142856</ele><time>2026-05-02T11:39:56.318Z</time></trkpt><trkpt lat="46.1064193" lon="12.1842737"><ele>338.8571428571429</ele><time>2026-05-02T11:40:02.32Z</time></trkpt><trkpt lat="46.1063655" lon="12.1842074"><ele>340.1428571428571</ele><time>2026-05-02T11:40:07.32Z</time></trkpt><trkpt lat="46.1063378" lon="12.1841201"><ele>341.42857142857144</ele><time>2026-05-02T11:40:11.318Z</time></trkpt><trkpt lat="46.106309" lon="12.1840254"><ele>342.7142857142857</ele><time>2026-05-02T11:40:15.32Z</time></trkpt><trkpt lat="46.1062736" lon="12.1839422"><ele>344.0</ele><time>2026-05-02T11:40:19.322Z</time></trkpt><trkpt lat="46.1062056" lon="12.1838991"><ele>344.0</ele><time>2026-05-02T11:40:23.319Z</time></trkpt><trkpt lat="46.1061552" lon="12.1838113"><ele>344.0</ele><time>2026-05-02T11:40:28.311Z</time></trkpt><trkpt lat="46.1061207" lon="12.1837194"><ele>344.0</ele><time>2026-05-02T11:40:32.318Z</time></trkpt><trkpt lat="46.1060651" lon="12.1836576"><ele>344.0</ele><time>2026-05-02T11:40:36.311Z</time></trkpt><trkpt lat="46.1060015" lon="12.1835879"><ele>344.0</ele><time>2026-05-02T11:40:40.317Z</time></trkpt><trkpt lat="46.1059392" lon="12.183522"><ele>344.0</ele><time>2026-05-02T11:40:45.321Z</time></trkpt><trkpt lat="46.1058806" lon="12.1834582"><ele>344.0</ele><time>2026-05-02T11:40:49.309Z</time></trkpt><trkpt lat="46.1058161" lon="12.1834066"><ele>344.0</ele><time>2026-05-02T11:40:52.318Z</time></trkpt><trkpt lat="46.1057457" lon="12.1833641"><ele>344.0</ele><time>2026-05-02T11:40:55.312Z</time></trkpt><trkpt lat="46.1056753" lon="12.1833149"><ele>344.0</ele><time>2026-05-02T11:40:58.31Z</time></trkpt><trkpt lat="46.1056037" lon="12.1832814"><ele>344.0</ele><time>2026-05-02T11:41:01.317Z</time></trkpt><trkpt lat="46.1055248" lon="12.1832366"><ele>344.0</ele><time>2026-05-02T11:41:04.318Z</time></trkpt><trkpt lat="46.1054664" lon="12.1831911"><ele>344.83333333333337</ele><time>2026-05-02T11:41:06.316Z</time></trkpt><trkpt lat="46.105401" lon="12.1831561"><ele>345.6666666666667</ele><time>2026-05-02T11:41:08.318Z</time></trkpt><trkpt lat="46.1053264" lon="12.1831609"><ele>346.5</ele><time>2026-05-02T11:41:10.311Z</time></trkpt><trkpt lat="46.1052423" lon="12.1832028"><ele>347.3333333333333</ele><time>2026-05-02T11:41:12.31Z</time></trkpt><trkpt lat="46.1051647" lon="12.1832657"><ele>348.16666666666663</ele><time>2026-05-02T11:41:14.318Z</time></trkpt><trkpt lat="46.1050977" lon="12.1833416"><ele>349.0</ele><time>2026-05-02T11:41:16.308Z</time></trkpt><trkpt lat="46.1050347" lon="12.1834185"><ele>349.0</ele><time>2026-05-02T11:41:18.315Z</time></trkpt><trkpt lat="46.1049668" lon="12.1834816"><ele>349.0</ele><time>2026-05-02T11:41:20.315Z</time></trkpt><trkpt lat="46.1048901" lon="12.183505"><ele>349.0</ele><time>2026-05-02T11:41:22.313Z</time></trkpt><trkpt lat="46.1048191" lon="12.1834766"><ele>349.0</ele><time>2026-05-02T11:41:24.313Z</time></trkpt><trkpt lat="46.1047552" lon="12.1834355"><ele>349.0</ele><time>2026-05-02T11:41:26.308Z</time></trkpt><trkpt lat="46.1046832" lon="12.1834448"><ele>349.0</ele><time>2026-05-02T11:41:28.317Z</time></trkpt><trkpt lat="46.1046238" lon="12.1835138"><ele>349.0</ele><time>2026-05-02T11:41:30.317Z</time></trkpt><trkpt lat="46.1045887" lon="12.1836188"><ele>349.0</ele><time>2026-05-02T11:41:32.316Z</time></trkpt><trkpt lat="46.1045556" lon="12.1837258"><ele>349.0</ele><time>2026-05-02T11:41:34.317Z</time></trkpt><trkpt lat="46.1045161" lon="12.1838343"><ele>349.0</ele><time>2026-05-02T11:41:36.317Z</time></trkpt><trkpt lat="46.1044791" lon="12.1839423"><ele>349.0</ele><time>2026-05-02T11:41:38.31Z</time></trkpt><trkpt lat="46.1044459" lon="12.1840483"><ele>349.0</ele><time>2026-05-02T11:41:40.31Z</time></trkpt><trkpt lat="46.104417" lon="12.184155"><ele>349.0</ele><time>2026-05-02T11:41:42.311Z</time></trkpt><trkpt lat="46.1043949" lon="12.1842495"><ele>349.0</ele><time>2026-05-02T11:41:44.318Z</time></trkpt><trkpt lat="46.1043435" lon="12.1843051"><ele>349.0</ele><time>2026-05-02T11:41:46.309Z</time></trkpt><trkpt lat="46.1042854" lon="12.1842398"><ele>349.0</ele><time>2026-05-02T11:41:48.31Z</time></trkpt><trkpt lat="46.1042528" lon="12.1841089"><ele>349.0</ele><time>2026-05-02T11:41:50.31Z</time></trkpt><trkpt lat="46.1042086" lon="12.1839892"><ele>349.0</ele><time>2026-05-02T11:41:52.311Z</time></trkpt><trkpt lat="46.1041646" lon="12.1838678"><ele>349.0</ele><time>2026-05-02T11:41:54.307Z</time></trkpt><trkpt lat="46.1041187" lon="12.1837399"><ele>349.0</ele><time>2026-05-02T11:41:56.311Z</time></trkpt><trkpt lat="46.1040675" lon="12.1836164"><ele>349.0</ele><time>2026-05-02T11:41:58.314Z</time></trkpt><trkpt lat="46.1040198" lon="12.1834924"><ele>349.0</ele><time>2026-05-02T11:42:00.309Z</time></trkpt><trkpt lat="46.1039756" lon="12.183381"><ele>349.0</ele><time>2026-05-02T11:42:02.311Z</time></trkpt><trkpt lat="46.1039293" lon="12.1832712"><ele>348.4</ele><time>2026-05-02T11:42:04.31Z</time></trkpt><trkpt lat="46.1038832" lon="12.1831451"><ele>347.79999999999995</ele><time>2026-05-02T11:42:06.319Z</time></trkpt><trkpt lat="46.1038117" lon="12.1830396"><ele>347.20000000000005</ele><time>2026-05-02T11:42:08.308Z</time></trkpt><trkpt lat="46.103758" lon="12.1829145"><ele>346.6</ele><time>2026-05-02T11:42:10.308Z</time></trkpt><trkpt lat="46.1037012" lon="12.1827784"><ele>346.0</ele><time>2026-05-02T11:42:12.309Z</time></trkpt><trkpt lat="46.1036433" lon="12.182633"><ele>346.0</ele><time>2026-05-02T11:42:14.311Z</time></trkpt><trkpt lat="46.1035845" lon="12.1824834"><ele>346.0</ele><time>2026-05-02T11:42:16.31Z</time></trkpt><trkpt lat="46.1035276" lon="12.1823385"><ele>346.0</ele><time>2026-05-02T11:42:18.309Z</time></trkpt><trkpt lat="46.1034911" lon="12.1822634"><ele>346.0</ele><time>2026-05-02T11:42:19.308Z</time></trkpt><trkpt lat="46.1034302" lon="12.1821083"><ele>346.0</ele><time>2026-05-02T11:42:21.31Z</time></trkpt><trkpt lat="46.1033981" lon="12.1820287"><ele>345.85714285714283</ele><time>2026-05-02T11:42:22.31Z</time></trkpt><trkpt lat="46.1033654" lon="12.1819471"><ele>345.7142857142857</ele><time>2026-05-02T11:42:23.316Z</time></trkpt><trkpt lat="46.1033322" lon="12.181863"><ele>345.57142857142856</ele><time>2026-05-02T11:42:24.311Z</time></trkpt><trkpt lat="46.1033012" lon="12.1817817"><ele>345.42857142857144</ele><time>2026-05-02T11:42:25.311Z</time></trkpt><trkpt lat="46.1032709" lon="12.1817012"><ele>345.2857142857143</ele><time>2026-05-02T11:42:26.311Z</time></trkpt><trkpt lat="46.1032378" lon="12.181619"><ele>345.14285714285717</ele><time>2026-05-02T11:42:27.309Z</time></trkpt><trkpt lat="46.1032061" lon="12.1815359"><ele>345.0</ele><time>2026-05-02T11:42:28.314Z</time></trkpt><trkpt lat="46.1031718" lon="12.1814545"><ele>344.7142857142857</ele><time>2026-05-02T11:42:29.317Z</time></trkpt><trkpt lat="46.1031379" lon="12.1813697"><ele>344.42857142857144</ele><time>2026-05-02T11:42:30.318Z</time></trkpt><trkpt lat="46.1031064" lon="12.1812853"><ele>344.1428571428571</ele><time>2026-05-02T11:42:31.318Z</time></trkpt><trkpt lat="46.1030694" lon="12.1811992"><ele>343.8571428571429</ele><time>2026-05-02T11:42:32.316Z</time></trkpt><trkpt lat="46.1030331" lon="12.1811137"><ele>343.57142857142856</ele><time>2026-05-02T11:42:33.31Z</time></trkpt><trkpt lat="46.1029984" lon="12.1810269"><ele>343.2857142857143</ele><time>2026-05-02T11:42:34.314Z</time></trkpt><trkpt lat="46.1029623" lon="12.1809446"><ele>343.0</ele><time>2026-05-02T11:42:35.311Z</time></trkpt><trkpt lat="46.1029285" lon="12.1808541"><ele>343.0</ele><time>2026-05-02T11:42:36.311Z</time></trkpt><trkpt lat="46.1028925" lon="12.1807636"><ele>343.0</ele><time>2026-05-02T11:42:37.312Z</time></trkpt><trkpt lat="46.1028614" lon="12.1806673"><ele>343.0</ele><time>2026-05-02T11:42:38.317Z</time></trkpt><trkpt lat="46.1028218" lon="12.1805785"><ele>343.0</ele><time>2026-05-02T11:42:39.317Z</time></trkpt><trkpt lat="46.1027852" lon="12.180489"><ele>343.0</ele><time>2026-05-02T11:42:40.318Z</time></trkpt><trkpt lat="46.1027481" lon="12.1803971"><ele>343.0</ele><time>2026-05-02T11:42:41.308Z</time></trkpt><trkpt lat="46.1027116" lon="12.180304"><ele>343.0</ele><time>2026-05-02T11:42:42.311Z</time></trkpt><trkpt lat="46.102675" lon="12.1802092"><ele>343.0</ele><time>2026-05-02T11:42:43.314Z</time></trkpt><trkpt lat="46.102638" lon="12.1801164"><ele>343.0</ele><time>2026-05-02T11:42:44.311Z</time></trkpt><trkpt lat="46.102604" lon="12.1800311"><ele>343.0</ele><time>2026-05-02T11:42:45.31Z</time></trkpt><trkpt lat="46.1025702" lon="12.1799434"><ele>343.0</ele><time>2026-05-02T11:42:46.319Z</time></trkpt><trkpt lat="46.1025325" lon="12.1798545"><ele>343.0</ele><time>2026-05-02T11:42:47.315Z</time></trkpt><trkpt lat="46.1024971" lon="12.1797616"><ele>343.0</ele><time>2026-05-02T11:42:48.317Z</time></trkpt><trkpt lat="46.1024603" lon="12.179672"><ele>343.0</ele><time>2026-05-02T11:42:49.309Z</time></trkpt><trkpt lat="46.1024248" lon="12.1795778"><ele>343.0</ele><time>2026-05-02T11:42:50.31Z</time></trkpt><trkpt lat="46.1023884" lon="12.1794863"><ele>343.0</ele><time>2026-05-02T11:42:51.42Z</time></trkpt><trkpt lat="46.102318" lon="12.1793118"><ele>343.0</ele><time>2026-05-02T11:42:53.31Z</time></trkpt><trkpt lat="46.1022835" lon="12.1792258"><ele>343.0</ele><time>2026-05-02T11:42:54.31Z</time></trkpt><trkpt lat="46.102216" lon="12.1790535"><ele>343.0</ele><time>2026-05-02T11:42:56.319Z</time></trkpt><trkpt lat="46.1021801" lon="12.1789698"><ele>343.14285714285717</ele><time>2026-05-02T11:42:57.313Z</time></trkpt><trkpt lat="46.1021476" lon="12.1788849"><ele>343.2857142857143</ele><time>2026-05-02T11:42:58.317Z</time></trkpt><trkpt lat="46.1021128" lon="12.1787994"><ele>343.42857142857144</ele><time>2026-05-02T11:42:59.317Z</time></trkpt><trkpt lat="46.1020803" lon="12.1787187"><ele>343.57142857142856</ele><time>2026-05-02T11:43:00.311Z</time></trkpt><trkpt lat="46.1020454" lon="12.1786329"><ele>343.7142857142857</ele><time>2026-05-02T11:43:01.318Z</time></trkpt><trkpt lat="46.1020125" lon="12.1785518"><ele>343.8571428571429</ele><time>2026-05-02T11:43:02.31Z</time></trkpt><trkpt lat="46.1019788" lon="12.1784721"><ele>344.0</ele><time>2026-05-02T11:43:03.309Z</time></trkpt><trkpt lat="46.1019464" lon="12.1783874"><ele>344.0</ele><time>2026-05-02T11:43:04.308Z</time></trkpt><trkpt lat="46.1019143" lon="12.1783037"><ele>344.0</ele><time>2026-05-02T11:43:05.317Z</time></trkpt><trkpt lat="46.1018507" lon="12.1781487"><ele>344.0</ele><time>2026-05-02T11:43:07.307Z</time></trkpt><trkpt lat="46.1017887" lon="12.1779907"><ele>344.0</ele><time>2026-05-02T11:43:09.307Z</time></trkpt><trkpt lat="46.101756" lon="12.177912"><ele>344.0</ele><time>2026-05-02T11:43:10.318Z</time></trkpt><trkpt lat="46.1017239" lon="12.1778305"><ele>344.0</ele><time>2026-05-02T11:43:11.312Z</time></trkpt><trkpt lat="46.1016639" lon="12.1776805"><ele>344.0</ele><time>2026-05-02T11:43:13.309Z</time></trkpt><trkpt lat="46.1016025" lon="12.1775249"><ele>344.0</ele><time>2026-05-02T11:43:15.308Z</time></trkpt><trkpt lat="46.1015711" lon="12.1774448"><ele>344.0</ele><time>2026-05-02T11:43:16.319Z</time></trkpt><trkpt lat="46.1015396" lon="12.1773651"><ele>344.0</ele><time>2026-05-02T11:43:17.316Z</time></trkpt><trkpt lat="46.1015068" lon="12.1772844"><ele>344.0</ele><time>2026-05-02T11:43:18.317Z</time></trkpt><trkpt lat="46.1014463" lon="12.1771288"><ele>344.0</ele><time>2026-05-02T11:43:20.311Z</time></trkpt><trkpt lat="46.1014154" lon="12.1770453"><ele>343.79999999999995</ele><time>2026-05-02T11:43:21.308Z</time></trkpt><trkpt lat="46.1013822" lon="12.1769644"><ele>343.59999999999997</ele><time>2026-05-02T11:43:22.309Z</time></trkpt><trkpt lat="46.1013211" lon="12.1768131"><ele>343.4</ele><time>2026-05-02T11:43:24.31Z</time></trkpt><trkpt lat="46.1012903" lon="12.1767326"><ele>343.2</ele><time>2026-05-02T11:43:25.318Z</time></trkpt><trkpt lat="46.1012336" lon="12.1765753"><ele>343.0</ele><time>2026-05-02T11:43:27.308Z</time></trkpt><trkpt lat="46.1011721" lon="12.1764243"><ele>342.79999999999995</ele><time>2026-05-02T11:43:29.316Z</time></trkpt><trkpt lat="46.1011378" lon="12.1763443"><ele>342.6</ele><time>2026-05-02T11:43:30.311Z</time></trkpt><trkpt lat="46.1010783" lon="12.1761919"><ele>342.4</ele><time>2026-05-02T11:43:32.31Z</time></trkpt><trkpt lat="46.1010191" lon="12.176044"><ele>342.20000000000005</ele><time>2026-05-02T11:43:34.319Z</time></trkpt><trkpt lat="46.100954" lon="12.1758963"><ele>342.0</ele><time>2026-05-02T11:43:36.31Z</time></trkpt><trkpt lat="46.1008879" lon="12.1757498"><ele>341.75</ele><time>2026-05-02T11:43:38.307Z</time></trkpt><trkpt lat="46.1008189" lon="12.1756043"><ele>341.5</ele><time>2026-05-02T11:43:40.309Z</time></trkpt><trkpt lat="46.1007489" lon="12.1754649"><ele>341.25</ele><time>2026-05-02T11:43:42.306Z</time></trkpt><trkpt lat="46.1006726" lon="12.1753261"><ele>341.0</ele><time>2026-05-02T11:43:44.315Z</time></trkpt><trkpt lat="46.1005936" lon="12.175189"><ele>341.75</ele><time>2026-05-02T11:43:46.318Z</time></trkpt><trkpt lat="46.1005155" lon="12.1750693"><ele>342.5</ele><time>2026-05-02T11:43:48.309Z</time></trkpt><trkpt lat="46.1004314" lon="12.1749398"><ele>343.25</ele><time>2026-05-02T11:43:50.312Z</time></trkpt><trkpt lat="46.100344" lon="12.1748298"><ele>344.0</ele><time>2026-05-02T11:43:52.31Z</time></trkpt><trkpt lat="46.1002603" lon="12.1747207"><ele>344.0</ele><time>2026-05-02T11:43:54.321Z</time></trkpt><trkpt lat="46.1001682" lon="12.1746146"><ele>344.0</ele><time>2026-05-02T11:43:56.311Z</time></trkpt><trkpt lat="46.1000747" lon="12.174521"><ele>344.0</ele><time>2026-05-02T11:43:58.319Z</time></trkpt><trkpt lat="46.099979" lon="12.1744148"><ele>344.0</ele><time>2026-05-02T11:44:00.31Z</time></trkpt><trkpt lat="46.0998807" lon="12.1743234"><ele>344.5</ele><time>2026-05-02T11:44:02.319Z</time></trkpt><trkpt lat="46.0997784" lon="12.1742406"><ele>345.0</ele><time>2026-05-02T11:44:04.317Z</time></trkpt><trkpt lat="46.0996754" lon="12.174156"><ele>345.5</ele><time>2026-05-02T11:44:06.309Z</time></trkpt><trkpt lat="46.0995717" lon="12.1740856"><ele>346.0</ele><time>2026-05-02T11:44:08.309Z</time></trkpt><trkpt lat="46.099469" lon="12.1740178"><ele>346.0</ele><time>2026-05-02T11:44:10.312Z</time></trkpt><trkpt lat="46.0993605" lon="12.1739562"><ele>346.0</ele><time>2026-05-02T11:44:12.309Z</time></trkpt><trkpt lat="46.0992529" lon="12.1739011"><ele>346.0</ele><time>2026-05-02T11:44:14.319Z</time></trkpt><trkpt lat="46.0991443" lon="12.1738482"><ele>346.0</ele><time>2026-05-02T11:44:16.319Z</time></trkpt><trkpt lat="46.0990355" lon="12.1737968"><ele>346.75</ele><time>2026-05-02T11:44:18.318Z</time></trkpt><trkpt lat="46.0989287" lon="12.1737427"><ele>347.5</ele><time>2026-05-02T11:44:20.311Z</time></trkpt><trkpt lat="46.0987693" lon="12.1736669"><ele>348.25</ele><time>2026-05-02T11:44:23.317Z</time></trkpt><trkpt lat="46.0986611" lon="12.1736203"><ele>349.0</ele><time>2026-05-02T11:44:25.316Z</time></trkpt><trkpt lat="46.0985514" lon="12.1735688"><ele>349.0</ele><time>2026-05-02T11:44:27.316Z</time></trkpt><trkpt lat="46.0984456" lon="12.1735144"><ele>349.0</ele><time>2026-05-02T11:44:29.309Z</time></trkpt><trkpt lat="46.0983361" lon="12.1734638"><ele>349.0</ele><time>2026-05-02T11:44:31.307Z</time></trkpt><trkpt lat="46.0982264" lon="12.1734159"><ele>349.0</ele><time>2026-05-02T11:44:33.318Z</time></trkpt><trkpt lat="46.0981184" lon="12.1733646"><ele>349.5</ele><time>2026-05-02T11:44:35.319Z</time></trkpt><trkpt lat="46.098009" lon="12.1733113"><ele>350.0</ele><time>2026-05-02T11:44:37.313Z</time></trkpt><trkpt lat="46.0978995" lon="12.1732574"><ele>350.5</ele><time>2026-05-02T11:44:39.318Z</time></trkpt><trkpt lat="46.0977881" lon="12.1732016"><ele>351.0</ele><time>2026-05-02T11:44:41.317Z</time></trkpt><trkpt lat="46.0976798" lon="12.1731424"><ele>350.8</ele><time>2026-05-02T11:44:43.309Z</time></trkpt><trkpt lat="46.0975706" lon="12.1730814"><ele>350.6</ele><time>2026-05-02T11:44:45.309Z</time></trkpt><trkpt lat="46.0974633" lon="12.1730211"><ele>350.4</ele><time>2026-05-02T11:44:47.315Z</time></trkpt><trkpt lat="46.0973617" lon="12.1729663"><ele>350.2</ele><time>2026-05-02T11:44:49.319Z</time></trkpt><trkpt lat="46.0972614" lon="12.1729157"><ele>350.0</ele><time>2026-05-02T11:44:51.318Z</time></trkpt><trkpt lat="46.0971625" lon="12.1728617"><ele>350.0</ele><time>2026-05-02T11:44:53.312Z</time></trkpt><trkpt lat="46.0970675" lon="12.17282"><ele>350.0</ele><time>2026-05-02T11:44:55.318Z</time></trkpt><trkpt lat="46.0969965" lon="12.1727472"><ele>350.0</ele><time>2026-05-02T11:44:57.318Z</time></trkpt><trkpt lat="46.0969268" lon="12.1726897"><ele>350.0</ele><time>2026-05-02T11:44:59.315Z</time></trkpt><trkpt lat="46.0968357" lon="12.1726666"><ele>350.0</ele><time>2026-05-02T11:45:01.308Z</time></trkpt><trkpt lat="46.0967427" lon="12.1726485"><ele>350.0</ele><time>2026-05-02T11:45:03.319Z</time></trkpt><trkpt lat="46.0966606" lon="12.1726048"><ele>350.0</ele><time>2026-05-02T11:45:05.317Z</time></trkpt><trkpt lat="46.096586" lon="12.172558"><ele>350.0</ele><time>2026-05-02T11:45:07.309Z</time></trkpt><trkpt lat="46.0965279" lon="12.1724729"><ele>350.0</ele><time>2026-05-02T11:45:09.311Z</time></trkpt><trkpt lat="46.096477" lon="12.1723711"><ele>350.0</ele><time>2026-05-02T11:45:11.319Z</time></trkpt><trkpt lat="46.0964224" lon="12.1722668"><ele>350.0</ele><time>2026-05-02T11:45:13.318Z</time></trkpt><trkpt lat="46.0963426" lon="12.1721696"><ele>349.75</ele><time>2026-05-02T11:45:15.322Z</time></trkpt><trkpt lat="46.0962524" lon="12.1720673"><ele>349.5</ele><time>2026-05-02T11:45:17.316Z</time></trkpt><trkpt lat="46.0961604" lon="12.1719677"><ele>349.25</ele><time>2026-05-02T11:45:19.309Z</time></trkpt><trkpt lat="46.0960696" lon="12.1718709"><ele>349.0</ele><time>2026-05-02T11:45:21.32Z</time></trkpt><trkpt lat="46.0959781" lon="12.1717691"><ele>349.0</ele><time>2026-05-02T11:45:23.309Z</time></trkpt><trkpt lat="46.0958839" lon="12.1716702"><ele>349.0</ele><time>2026-05-02T11:45:25.308Z</time></trkpt><trkpt lat="46.095791" lon="12.1715755"><ele>349.0</ele><time>2026-05-02T11:45:27.324Z</time></trkpt><trkpt lat="46.0957006" lon="12.1714777"><ele>349.0</ele><time>2026-05-02T11:45:29.315Z</time></trkpt><trkpt lat="46.0956129" lon="12.1713779"><ele>349.5</ele><time>2026-05-02T11:45:31.308Z</time></trkpt><trkpt lat="46.0955182" lon="12.1712817"><ele>350.0</ele><time>2026-05-02T11:45:33.306Z</time></trkpt><trkpt lat="46.0954247" lon="12.1711816"><ele>350.5</ele><time>2026-05-02T11:45:35.309Z</time></trkpt><trkpt lat="46.095336" lon="12.1710856"><ele>351.0</ele><time>2026-05-02T11:45:37.314Z</time></trkpt><trkpt lat="46.095247" lon="12.1709932"><ele>351.0</ele><time>2026-05-02T11:45:39.31Z</time></trkpt><trkpt lat="46.0951572" lon="12.1708959"><ele>351.0</ele><time>2026-05-02T11:45:41.315Z</time></trkpt><trkpt lat="46.0950702" lon="12.1708004"><ele>351.0</ele><time>2026-05-02T11:45:43.318Z</time></trkpt><trkpt lat="46.0949793" lon="12.170706"><ele>351.0</ele><time>2026-05-02T11:45:45.315Z</time></trkpt><trkpt lat="46.0948899" lon="12.1706154"><ele>351.0</ele><time>2026-05-02T11:45:47.307Z</time></trkpt><trkpt lat="46.0948001" lon="12.1705232"><ele>351.20000000000005</ele><time>2026-05-02T11:45:49.309Z</time></trkpt><trkpt lat="46.0947158" lon="12.1704333"><ele>351.40000000000003</ele><time>2026-05-02T11:45:51.307Z</time></trkpt><trkpt lat="46.0946199" lon="12.1703384"><ele>351.6</ele><time>2026-05-02T11:45:53.308Z</time></trkpt><trkpt lat="46.0945377" lon="12.1702491"><ele>351.8</ele><time>2026-05-02T11:45:55.309Z</time></trkpt><trkpt lat="46.0944517" lon="12.1701623"><ele>352.0</ele><time>2026-05-02T11:45:57.313Z</time></trkpt><trkpt lat="46.0943704" lon="12.1700761"><ele>352.0</ele><time>2026-05-02T11:45:59.307Z</time></trkpt><trkpt lat="46.0942751" lon="12.1699958"><ele>352.0</ele><time>2026-05-02T11:46:01.309Z</time></trkpt><trkpt lat="46.0941809" lon="12.1699278"><ele>352.0</ele><time>2026-05-02T11:46:03.318Z</time></trkpt><trkpt lat="46.0940831" lon="12.1698711"><ele>352.0</ele><time>2026-05-02T11:46:05.31Z</time></trkpt><trkpt lat="46.0940144" lon="12.169761"><ele>352.0</ele><time>2026-05-02T11:46:07.31Z</time></trkpt><trkpt lat="46.0939371" lon="12.169644"><ele>352.0</ele><time>2026-05-02T11:46:09.307Z</time></trkpt><trkpt lat="46.0938631" lon="12.1695191"><ele>352.0</ele><time>2026-05-02T11:46:11.31Z</time></trkpt><trkpt lat="46.0938199" lon="12.16945"><ele>352.0</ele><time>2026-05-02T11:46:12.315Z</time></trkpt><trkpt lat="46.0937004" lon="12.1692543"><ele>352.0</ele><time>2026-05-02T11:46:15.31Z</time></trkpt><trkpt lat="46.0936252" lon="12.1691263"><ele>352.0</ele><time>2026-05-02T11:46:17.308Z</time></trkpt><trkpt lat="46.0935433" lon="12.1689948"><ele>352.0</ele><time>2026-05-02T11:46:19.316Z</time></trkpt><trkpt lat="46.0934618" lon="12.1688663"><ele>352.0</ele><time>2026-05-02T11:46:21.314Z</time></trkpt><trkpt lat="46.0933492" lon="12.1686819"><ele>352.0</ele><time>2026-05-02T11:46:24.312Z</time></trkpt><trkpt lat="46.0932695" lon="12.1685465"><ele>351.20000000000005</ele><time>2026-05-02T11:46:26.307Z</time></trkpt><trkpt lat="46.0931855" lon="12.1684152"><ele>350.4</ele><time>2026-05-02T11:46:28.316Z</time></trkpt><trkpt lat="46.0931019" lon="12.1682772"><ele>349.6</ele><time>2026-05-02T11:46:30.312Z</time></trkpt><trkpt lat="46.0930194" lon="12.1681524"><ele>348.79999999999995</ele><time>2026-05-02T11:46:32.315Z</time></trkpt><trkpt lat="46.0929776" lon="12.1680822"><ele>348.0</ele><time>2026-05-02T11:46:33.317Z</time></trkpt><trkpt lat="46.0928941" lon="12.1679497"><ele>348.0</ele><time>2026-05-02T11:46:35.311Z</time></trkpt><trkpt lat="46.0928121" lon="12.1678175"><ele>348.0</ele><time>2026-05-02T11:46:37.31Z</time></trkpt><trkpt lat="46.0927352" lon="12.1676909"><ele>348.0</ele><time>2026-05-02T11:46:39.316Z</time></trkpt><trkpt lat="46.0926904" lon="12.1676163"><ele>348.0</ele><time>2026-05-02T11:46:40.316Z</time></trkpt><trkpt lat="46.0926454" lon="12.1675494"><ele>348.0</ele><time>2026-05-02T11:46:41.317Z</time></trkpt><trkpt lat="46.0926023" lon="12.1674791"><ele>348.0</ele><time>2026-05-02T11:46:42.309Z</time></trkpt><trkpt lat="46.0925604" lon="12.1674079"><ele>347.79999999999995</ele><time>2026-05-02T11:46:43.317Z</time></trkpt><trkpt lat="46.0924782" lon="12.1672723"><ele>347.6</ele><time>2026-05-02T11:46:45.309Z</time></trkpt><trkpt lat="46.0923982" lon="12.1671397"><ele>347.4</ele><time>2026-05-02T11:46:47.312Z</time></trkpt><trkpt lat="46.092315" lon="12.1670075"><ele>347.20000000000005</ele><time>2026-05-02T11:46:49.309Z</time></trkpt><trkpt lat="46.0922746" lon="12.1669371"><ele>347.0</ele><time>2026-05-02T11:46:50.318Z</time></trkpt><trkpt lat="46.0922335" lon="12.1668671"><ele>347.0</ele><time>2026-05-02T11:46:51.311Z</time></trkpt><trkpt lat="46.09219" lon="12.166798"><ele>347.0</ele><time>2026-05-02T11:46:52.32Z</time></trkpt><trkpt lat="46.0921491" lon="12.1667259"><ele>347.0</ele><time>2026-05-02T11:46:53.31Z</time></trkpt><trkpt lat="46.0921046" lon="12.1666552"><ele>347.0</ele><time>2026-05-02T11:46:54.317Z</time></trkpt><trkpt lat="46.0920606" lon="12.1665837"><ele>347.0</ele><time>2026-05-02T11:46:55.318Z</time></trkpt><trkpt lat="46.0920193" lon="12.166512"><ele>347.0</ele><time>2026-05-02T11:46:56.319Z</time></trkpt><trkpt lat="46.0919367" lon="12.166377"><ele>347.5</ele><time>2026-05-02T11:46:58.313Z</time></trkpt><trkpt lat="46.0918575" lon="12.1662439"><ele>348.0</ele><time>2026-05-02T11:47:00.319Z</time></trkpt><trkpt lat="46.0917804" lon="12.1661119"><ele>348.5</ele><time>2026-05-02T11:47:02.311Z</time></trkpt><trkpt lat="46.0917029" lon="12.1659868"><ele>349.0</ele><time>2026-05-02T11:47:04.32Z</time></trkpt><trkpt lat="46.0916278" lon="12.1658638"><ele>348.2</ele><time>2026-05-02T11:47:06.321Z</time></trkpt><trkpt lat="46.0915683" lon="12.1657294"><ele>347.4</ele><time>2026-05-02T11:47:08.318Z</time></trkpt><trkpt lat="46.0915096" lon="12.1655956"><ele>346.6</ele><time>2026-05-02T11:47:10.317Z</time></trkpt><trkpt lat="46.091449" lon="12.1654584"><ele>345.8</ele><time>2026-05-02T11:47:12.319Z</time></trkpt><trkpt lat="46.0913908" lon="12.1653234"><ele>345.0</ele><time>2026-05-02T11:47:14.304Z</time></trkpt><trkpt lat="46.0913378" lon="12.1651938"><ele>345.0</ele><time>2026-05-02T11:47:16.314Z</time></trkpt><trkpt lat="46.0912812" lon="12.1650561"><ele>345.0</ele><time>2026-05-02T11:47:18.308Z</time></trkpt><trkpt lat="46.0912473" lon="12.1649017"><ele>345.0</ele><time>2026-05-02T11:47:20.309Z</time></trkpt><trkpt lat="46.0912459" lon="12.1648103"><ele>345.0</ele><time>2026-05-02T11:47:21.309Z</time></trkpt><trkpt lat="46.0912575" lon="12.1646312"><ele>345.0</ele><time>2026-05-02T11:47:23.312Z</time></trkpt><trkpt lat="46.0912123" lon="12.1644768"><ele>345.1666666666667</ele><time>2026-05-02T11:47:25.315Z</time></trkpt><trkpt lat="46.0911086" lon="12.1643834"><ele>345.3333333333333</ele><time>2026-05-02T11:47:27.317Z</time></trkpt><trkpt lat="46.0910504" lon="12.1643419"><ele>345.5</ele><time>2026-05-02T11:47:28.31Z</time></trkpt><trkpt lat="46.0909873" lon="12.1643022"><ele>345.66666666666663</ele><time>2026-05-02T11:47:29.312Z</time></trkpt><trkpt lat="46.0909289" lon="12.1642536"><ele>345.8333333333333</ele><time>2026-05-02T11:47:30.312Z</time></trkpt><trkpt lat="46.0908727" lon="12.1641931"><ele>346.0</ele><time>2026-05-02T11:47:31.317Z</time></trkpt><trkpt lat="46.090822" lon="12.1641155"><ele>345.8333333333333</ele><time>2026-05-02T11:47:32.309Z</time></trkpt><trkpt lat="46.0907835" lon="12.1640209"><ele>345.66666666666663</ele><time>2026-05-02T11:47:33.314Z</time></trkpt><trkpt lat="46.0907522" lon="12.1639227"><ele>345.5</ele><time>2026-05-02T11:47:34.316Z</time></trkpt><trkpt lat="46.0907273" lon="12.1638152"><ele>345.3333333333333</ele><time>2026-05-02T11:47:35.311Z</time></trkpt><trkpt lat="46.0907003" lon="12.163699"><ele>345.1666666666667</ele><time>2026-05-02T11:47:36.308Z</time></trkpt><trkpt lat="46.0906723" lon="12.163587"><ele>345.0</ele><time>2026-05-02T11:47:37.315Z</time></trkpt><trkpt lat="46.0906444" lon="12.1634711"><ele>344.0</ele><time>2026-05-02T11:47:38.31Z</time></trkpt><trkpt lat="46.0906155" lon="12.1633522"><ele>343.0</ele><time>2026-05-02T11:47:39.315Z</time></trkpt><trkpt lat="46.0905843" lon="12.1632327"><ele>342.0</ele><time>2026-05-02T11:47:40.31Z</time></trkpt><trkpt lat="46.0905488" lon="12.1631046"><ele>341.0</ele><time>2026-05-02T11:47:41.314Z</time></trkpt><trkpt lat="46.0905163" lon="12.1629773"><ele>340.0</ele><time>2026-05-02T11:47:42.307Z</time></trkpt><trkpt lat="46.0904778" lon="12.1628491"><ele>340.0</ele><time>2026-05-02T11:47:43.315Z</time></trkpt><trkpt lat="46.0904268" lon="12.1627282"><ele>340.0</ele><time>2026-05-02T11:47:44.317Z</time></trkpt><trkpt lat="46.0903591" lon="12.1626191"><ele>340.0</ele><time>2026-05-02T11:47:45.314Z</time></trkpt><trkpt lat="46.0902761" lon="12.1625352"><ele>340.0</ele><time>2026-05-02T11:47:46.307Z</time></trkpt><trkpt lat="46.0901887" lon="12.1624707"><ele>340.0</ele><time>2026-05-02T11:47:47.31Z</time></trkpt><trkpt lat="46.0900903" lon="12.1624301"><ele>340.0</ele><time>2026-05-02T11:47:48.319Z</time></trkpt><trkpt lat="46.0899985" lon="12.1624255"><ele>340.0</ele><time>2026-05-02T11:47:49.32Z</time></trkpt><trkpt lat="46.0898921" lon="12.1624172"><ele>340.0</ele><time>2026-05-02T11:47:50.32Z</time></trkpt><trkpt lat="46.0898007" lon="12.1624077"><ele>340.0</ele><time>2026-05-02T11:47:51.416Z</time></trkpt><trkpt lat="46.0897075" lon="12.1624008"><ele>340.0</ele><time>2026-05-02T11:47:52.321Z</time></trkpt><trkpt lat="46.0896251" lon="12.1623642"><ele>339.5</ele><time>2026-05-02T11:47:53.313Z</time></trkpt><trkpt lat="46.0895547" lon="12.1622968"><ele>339.0</ele><time>2026-05-02T11:47:54.311Z</time></trkpt><trkpt lat="46.0894947" lon="12.1622233"><ele>338.5</ele><time>2026-05-02T11:47:55.308Z</time></trkpt><trkpt lat="46.089453" lon="12.1621308"><ele>338.0</ele><time>2026-05-02T11:47:56.309Z</time></trkpt><trkpt lat="46.0894287" lon="12.1620324"><ele>337.5</ele><time>2026-05-02T11:47:57.312Z</time></trkpt><trkpt lat="46.089409" lon="12.1619352"><ele>337.0</ele><time>2026-05-02T11:47:58.319Z</time></trkpt><trkpt lat="46.0893988" lon="12.1618364"><ele>337.0</ele><time>2026-05-02T11:47:59.32Z</time></trkpt><trkpt lat="46.0893894" lon="12.1617394"><ele>337.0</ele><time>2026-05-02T11:48:00.312Z</time></trkpt><trkpt lat="46.08937" lon="12.1615599"><ele>337.0</ele><time>2026-05-02T11:48:02.315Z</time></trkpt><trkpt lat="46.0893543" lon="12.1613878"><ele>337.0</ele><time>2026-05-02T11:48:04.319Z</time></trkpt><trkpt lat="46.0893172" lon="12.1612226"><ele>337.0</ele><time>2026-05-02T11:48:06.323Z</time></trkpt><trkpt lat="46.0892936" lon="12.1611371"><ele>337.28571428571433</ele><time>2026-05-02T11:48:07.321Z</time></trkpt><trkpt lat="46.0892626" lon="12.1610541"><ele>337.57142857142856</ele><time>2026-05-02T11:48:08.319Z</time></trkpt><trkpt lat="46.0892289" lon="12.1609741"><ele>337.8571428571429</ele><time>2026-05-02T11:48:09.317Z</time></trkpt><trkpt lat="46.0891907" lon="12.1608969"><ele>338.14285714285717</ele><time>2026-05-02T11:48:10.319Z</time></trkpt><trkpt lat="46.0891468" lon="12.1608204"><ele>338.42857142857144</ele><time>2026-05-02T11:48:11.315Z</time></trkpt><trkpt lat="46.0890985" lon="12.1607466"><ele>338.7142857142857</ele><time>2026-05-02T11:48:12.317Z</time></trkpt><trkpt lat="46.0890456" lon="12.160678"><ele>339.0</ele><time>2026-05-02T11:48:13.316Z</time></trkpt><trkpt lat="46.0889872" lon="12.1606169"><ele>338.0</ele><time>2026-05-02T11:48:14.308Z</time></trkpt><trkpt lat="46.0889276" lon="12.1605709"><ele>337.0</ele><time>2026-05-02T11:48:15.311Z</time></trkpt><trkpt lat="46.0888596" lon="12.1605242"><ele>336.0</ele><time>2026-05-02T11:48:16.307Z</time></trkpt><trkpt lat="46.0887874" lon="12.1604821"><ele>335.0</ele><time>2026-05-02T11:48:17.309Z</time></trkpt><trkpt lat="46.0887133" lon="12.1604484"><ele>334.0</ele><time>2026-05-02T11:48:18.315Z</time></trkpt><trkpt lat="46.0886359" lon="12.1604169"><ele>333.0</ele><time>2026-05-02T11:48:19.314Z</time></trkpt><trkpt lat="46.0885571" lon="12.1603938"><ele>333.0</ele><time>2026-05-02T11:48:20.307Z</time></trkpt><trkpt lat="46.088476" lon="12.1603737"><ele>333.0</ele><time>2026-05-02T11:48:21.304Z</time></trkpt><trkpt lat="46.088399" lon="12.1603559"><ele>333.0</ele><time>2026-05-02T11:48:22.316Z</time></trkpt><trkpt lat="46.0883173" lon="12.1603362"><ele>333.0</ele><time>2026-05-02T11:48:23.317Z</time></trkpt><trkpt lat="46.0882382" lon="12.1603086"><ele>333.0</ele><time>2026-05-02T11:48:24.316Z</time></trkpt><trkpt lat="46.0881588" lon="12.1602876"><ele>333.0</ele><time>2026-05-02T11:48:25.314Z</time></trkpt><trkpt lat="46.0880755" lon="12.1602633"><ele>332.8333333333333</ele><time>2026-05-02T11:48:26.306Z</time></trkpt><trkpt lat="46.0879902" lon="12.1602387"><ele>332.6666666666667</ele><time>2026-05-02T11:48:27.316Z</time></trkpt><trkpt lat="46.0879078" lon="12.1602088"><ele>332.5</ele><time>2026-05-02T11:48:28.317Z</time></trkpt><trkpt lat="46.0878255" lon="12.1601674"><ele>332.33333333333337</ele><time>2026-05-02T11:48:29.312Z</time></trkpt><trkpt lat="46.0877454" lon="12.1601204"><ele>332.1666666666667</ele><time>2026-05-02T11:48:30.308Z</time></trkpt><trkpt lat="46.0876678" lon="12.1600662"><ele>332.0</ele><time>2026-05-02T11:48:31.315Z</time></trkpt><trkpt lat="46.0875927" lon="12.1600057"><ele>332.0</ele><time>2026-05-02T11:48:32.309Z</time></trkpt><trkpt lat="46.0875258" lon="12.1599342"><ele>332.0</ele><time>2026-05-02T11:48:33.307Z</time></trkpt><trkpt lat="46.0874613" lon="12.1598624"><ele>332.0</ele><time>2026-05-02T11:48:34.309Z</time></trkpt><trkpt lat="46.0873995" lon="12.1597824"><ele>332.0</ele><time>2026-05-02T11:48:35.314Z</time></trkpt><trkpt lat="46.0873407" lon="12.1597035"><ele>332.0</ele><time>2026-05-02T11:48:36.315Z</time></trkpt><trkpt lat="46.0872857" lon="12.1596167"><ele>332.0</ele><time>2026-05-02T11:48:37.307Z</time></trkpt><trkpt lat="46.087242" lon="12.1595291"><ele>332.7142857142857</ele><time>2026-05-02T11:48:38.316Z</time></trkpt><trkpt lat="46.087201" lon="12.1594351"><ele>333.42857142857144</ele><time>2026-05-02T11:48:39.315Z</time></trkpt><trkpt lat="46.087164" lon="12.159339"><ele>334.14285714285717</ele><time>2026-05-02T11:48:40.309Z</time></trkpt><trkpt lat="46.0871296" lon="12.159243"><ele>334.8571428571429</ele><time>2026-05-02T11:48:41.315Z</time></trkpt><trkpt lat="46.0871011" lon="12.1591476"><ele>335.57142857142856</ele><time>2026-05-02T11:48:42.316Z</time></trkpt><trkpt lat="46.0870714" lon="12.1590553"><ele>336.28571428571433</ele><time>2026-05-02T11:48:43.316Z</time></trkpt><trkpt lat="46.0870459" lon="12.1589646"><ele>337.0</ele><time>2026-05-02T11:48:44.309Z</time></trkpt><trkpt lat="46.0870203" lon="12.1588754"><ele>337.16666666666663</ele><time>2026-05-02T11:48:45.311Z</time></trkpt><trkpt lat="46.0869978" lon="12.1587862"><ele>337.3333333333333</ele><time>2026-05-02T11:48:46.312Z</time></trkpt><trkpt lat="46.0869734" lon="12.1586936"><ele>337.5</ele><time>2026-05-02T11:48:47.319Z</time></trkpt><trkpt lat="46.086949" lon="12.158606"><ele>337.6666666666667</ele><time>2026-05-02T11:48:48.315Z</time></trkpt><trkpt lat="46.0869013" lon="12.1584392"><ele>337.83333333333337</ele><time>2026-05-02T11:48:50.314Z</time></trkpt><trkpt lat="46.0868502" lon="12.1582818"><ele>338.0</ele><time>2026-05-02T11:48:52.317Z</time></trkpt><trkpt lat="46.0867944" lon="12.1581247"><ele>338.25</ele><time>2026-05-02T11:48:54.318Z</time></trkpt><trkpt lat="46.0867332" lon="12.1579742"><ele>338.5</ele><time>2026-05-02T11:48:56.319Z</time></trkpt><trkpt lat="46.0866658" lon="12.1578308"><ele>338.75</ele><time>2026-05-02T11:48:58.319Z</time></trkpt><trkpt lat="46.0866012" lon="12.1576904"><ele>339.0</ele><time>2026-05-02T11:49:00.316Z</time></trkpt><trkpt lat="46.0865399" lon="12.1575486"><ele>339.0</ele><time>2026-05-02T11:49:02.311Z</time></trkpt><trkpt lat="46.0864752" lon="12.1574087"><ele>339.0</ele><time>2026-05-02T11:49:04.319Z</time></trkpt><trkpt lat="46.0864135" lon="12.1572724"><ele>339.0</ele><time>2026-05-02T11:49:06.319Z</time></trkpt><trkpt lat="46.0863492" lon="12.1571393"><ele>339.0</ele><time>2026-05-02T11:49:08.315Z</time></trkpt><trkpt lat="46.0862887" lon="12.15701"><ele>339.5</ele><time>2026-05-02T11:49:10.319Z</time></trkpt><trkpt lat="46.0862303" lon="12.1568725"><ele>340.0</ele><time>2026-05-02T11:49:12.315Z</time></trkpt><trkpt lat="46.086168" lon="12.1567445"><ele>340.5</ele><time>2026-05-02T11:49:14.316Z</time></trkpt><trkpt lat="46.0861027" lon="12.1566063"><ele>341.0</ele><time>2026-05-02T11:49:16.316Z</time></trkpt><trkpt lat="46.0860382" lon="12.1564708"><ele>341.25</ele><time>2026-05-02T11:49:18.309Z</time></trkpt><trkpt lat="46.0859781" lon="12.1563372"><ele>341.5</ele><time>2026-05-02T11:49:20.315Z</time></trkpt><trkpt lat="46.0859186" lon="12.156197"><ele>341.75</ele><time>2026-05-02T11:49:22.313Z</time></trkpt><trkpt lat="46.085853" lon="12.1560556"><ele>342.0</ele><time>2026-05-02T11:49:24.315Z</time></trkpt><trkpt lat="46.0857904" lon="12.1559105"><ele>342.25</ele><time>2026-05-02T11:49:26.315Z</time></trkpt><trkpt lat="46.0857264" lon="12.1557688"><ele>342.5</ele><time>2026-05-02T11:49:28.313Z</time></trkpt><trkpt lat="46.0856627" lon="12.1556334"><ele>342.75</ele><time>2026-05-02T11:49:30.311Z</time></trkpt><trkpt lat="46.0855975" lon="12.1555019"><ele>343.0</ele><time>2026-05-02T11:49:32.315Z</time></trkpt><trkpt lat="46.0855349" lon="12.1553587"><ele>343.0</ele><time>2026-05-02T11:49:34.316Z</time></trkpt><trkpt lat="46.0854724" lon="12.1552176"><ele>343.0</ele><time>2026-05-02T11:49:36.314Z</time></trkpt><trkpt lat="46.0854097" lon="12.1550855"><ele>343.0</ele><time>2026-05-02T11:49:38.312Z</time></trkpt><trkpt lat="46.0853439" lon="12.1549455"><ele>343.0</ele><time>2026-05-02T11:49:40.307Z</time></trkpt><trkpt lat="46.085283" lon="12.1548087"><ele>342.25</ele><time>2026-05-02T11:49:42.315Z</time></trkpt><trkpt lat="46.0852219" lon="12.1546716"><ele>341.5</ele><time>2026-05-02T11:49:44.318Z</time></trkpt><trkpt lat="46.0851565" lon="12.1545276"><ele>340.75</ele><time>2026-05-02T11:49:46.316Z</time></trkpt><trkpt lat="46.0850904" lon="12.1543952"><ele>340.0</ele><time>2026-05-02T11:49:48.316Z</time></trkpt><trkpt lat="46.0850297" lon="12.1542549"><ele>340.0</ele><time>2026-05-02T11:49:50.315Z</time></trkpt><trkpt lat="46.0849403" lon="12.1540534"><ele>340.0</ele><time>2026-05-02T11:49:53.314Z</time></trkpt><trkpt lat="46.0848783" lon="12.1539134"><ele>340.0</ele><time>2026-05-02T11:49:55.31Z</time></trkpt><trkpt lat="46.0848076" lon="12.1537604"><ele>340.0</ele><time>2026-05-02T11:49:57.319Z</time></trkpt><trkpt lat="46.0847726" lon="12.1536822"><ele>339.14285714285717</ele><time>2026-05-02T11:49:58.315Z</time></trkpt><trkpt lat="46.0847374" lon="12.1535974"><ele>338.2857142857143</ele><time>2026-05-02T11:49:59.315Z</time></trkpt><trkpt lat="46.084696" lon="12.1535117"><ele>337.42857142857144</ele><time>2026-05-02T11:50:00.309Z</time></trkpt><trkpt lat="46.0846554" lon="12.1534284"><ele>336.57142857142856</ele><time>2026-05-02T11:50:01.31Z</time></trkpt><trkpt lat="46.0846152" lon="12.1533412"><ele>335.7142857142857</ele><time>2026-05-02T11:50:02.312Z</time></trkpt><trkpt lat="46.0845704" lon="12.1532561"><ele>334.85714285714283</ele><time>2026-05-02T11:50:03.314Z</time></trkpt><trkpt lat="46.0845187" lon="12.1531734"><ele>334.0</ele><time>2026-05-02T11:50:04.312Z</time></trkpt><trkpt lat="46.0844661" lon="12.1530945"><ele>333.5</ele><time>2026-05-02T11:50:05.316Z</time></trkpt><trkpt lat="46.0844118" lon="12.1530163"><ele>333.0</ele><time>2026-05-02T11:50:06.316Z</time></trkpt><trkpt lat="46.0843566" lon="12.1529373"><ele>332.5</ele><time>2026-05-02T11:50:07.314Z</time></trkpt><trkpt lat="46.0843008" lon="12.1528713"><ele>332.0</ele><time>2026-05-02T11:50:08.316Z</time></trkpt><trkpt lat="46.0842448" lon="12.1528016"><ele>331.5</ele><time>2026-05-02T11:50:09.314Z</time></trkpt><trkpt lat="46.0841873" lon="12.1527302"><ele>331.0</ele><time>2026-05-02T11:50:10.306Z</time></trkpt><trkpt lat="46.0841304" lon="12.152657"><ele>330.8571428571429</ele><time>2026-05-02T11:50:11.308Z</time></trkpt><trkpt lat="46.0840762" lon="12.1525858"><ele>330.7142857142857</ele><time>2026-05-02T11:50:12.31Z</time></trkpt><trkpt lat="46.0840229" lon="12.1525184"><ele>330.57142857142856</ele><time>2026-05-02T11:50:13.31Z</time></trkpt><trkpt lat="46.0839671" lon="12.152451"><ele>330.42857142857144</ele><time>2026-05-02T11:50:14.31Z</time></trkpt><trkpt lat="46.0839086" lon="12.1523809"><ele>330.2857142857143</ele><time>2026-05-02T11:50:15.315Z</time></trkpt><trkpt lat="46.0838533" lon="12.1523122"><ele>330.14285714285717</ele><time>2026-05-02T11:50:16.316Z</time></trkpt><trkpt lat="46.0837943" lon="12.1522411"><ele>330.0</ele><time>2026-05-02T11:50:17.316Z</time></trkpt><trkpt lat="46.0837389" lon="12.1521736"><ele>330.00000000000006</ele><time>2026-05-02T11:50:18.311Z</time></trkpt><trkpt lat="46.0836848" lon="12.1521083"><ele>330.0</ele><time>2026-05-02T11:50:19.315Z</time></trkpt><trkpt lat="46.0836295" lon="12.1520409"><ele>330.0</ele><time>2026-05-02T11:50:20.312Z</time></trkpt><trkpt lat="46.0835756" lon="12.1519727"><ele>330.0</ele><time>2026-05-02T11:50:21.314Z</time></trkpt><trkpt lat="46.083521" lon="12.1519032"><ele>330.0</ele><time>2026-05-02T11:50:22.311Z</time></trkpt><trkpt lat="46.0834659" lon="12.1518353"><ele>330.00000000000006</ele><time>2026-05-02T11:50:23.314Z</time></trkpt><trkpt lat="46.083412" lon="12.1517688"><ele>330.0</ele><time>2026-05-02T11:50:24.315Z</time></trkpt><trkpt lat="46.0833567" lon="12.1516991"><ele>330.00000000000006</ele><time>2026-05-02T11:50:25.309Z</time></trkpt><trkpt lat="46.0833017" lon="12.1516322"><ele>330.0</ele><time>2026-05-02T11:50:26.312Z</time></trkpt><trkpt lat="46.0832483" lon="12.1515604"><ele>330.0</ele><time>2026-05-02T11:50:27.318Z</time></trkpt><trkpt lat="46.083194" lon="12.1514942"><ele>330.0</ele><time>2026-05-02T11:50:28.315Z</time></trkpt><trkpt lat="46.0831358" lon="12.1514292"><ele>330.0</ele><time>2026-05-02T11:50:29.306Z</time></trkpt><trkpt lat="46.0830833" lon="12.1513627"><ele>330.00000000000006</ele><time>2026-05-02T11:50:30.31Z</time></trkpt><trkpt lat="46.0830298" lon="12.1512929"><ele>330.0</ele><time>2026-05-02T11:50:31.316Z</time></trkpt><trkpt lat="46.0829781" lon="12.1512271"><ele>331.00000000000006</ele><time>2026-05-02T11:50:32.317Z</time></trkpt><trkpt lat="46.0829261" lon="12.1511608"><ele>332.0</ele><time>2026-05-02T11:50:33.315Z</time></trkpt><trkpt lat="46.0828768" lon="12.151097"><ele>333.0</ele><time>2026-05-02T11:50:34.315Z</time></trkpt><trkpt lat="46.0828255" lon="12.1510289"><ele>334.0</ele><time>2026-05-02T11:50:35.316Z</time></trkpt><trkpt lat="46.0827741" lon="12.1509606"><ele>335.0</ele><time>2026-05-02T11:50:36.317Z</time></trkpt><trkpt lat="46.0827251" lon="12.1508918"><ele>336.00000000000006</ele><time>2026-05-02T11:50:37.301Z</time></trkpt><trkpt lat="46.0826753" lon="12.1508232"><ele>337.0</ele><time>2026-05-02T11:50:38.312Z</time></trkpt><trkpt lat="46.0826299" lon="12.1507558"><ele>336.7142857142857</ele><time>2026-05-02T11:50:39.308Z</time></trkpt><trkpt lat="46.0825848" lon="12.150683"><ele>336.42857142857144</ele><time>2026-05-02T11:50:40.307Z</time></trkpt><trkpt lat="46.0825411" lon="12.1506162"><ele>336.1428571428571</ele><time>2026-05-02T11:50:41.309Z</time></trkpt><trkpt lat="46.0825014" lon="12.1505409"><ele>335.8571428571429</ele><time>2026-05-02T11:50:42.309Z</time></trkpt><trkpt lat="46.0824655" lon="12.1504611"><ele>335.57142857142856</ele><time>2026-05-02T11:50:43.316Z</time></trkpt><trkpt lat="46.0824321" lon="12.150383"><ele>335.2857142857143</ele><time>2026-05-02T11:50:44.317Z</time></trkpt><trkpt lat="46.0823985" lon="12.1503028"><ele>335.0</ele><time>2026-05-02T11:50:45.312Z</time></trkpt><trkpt lat="46.0823661" lon="12.1502226"><ele>336.5</ele><time>2026-05-02T11:50:46.31Z</time></trkpt><trkpt lat="46.0823074" lon="12.15007"><ele>338.0</ele><time>2026-05-02T11:50:48.311Z</time></trkpt><trkpt lat="46.0822413" lon="12.1499189"><ele>339.5</ele><time>2026-05-02T11:50:50.316Z</time></trkpt><trkpt lat="46.0821799" lon="12.1497704"><ele>341.0</ele><time>2026-05-02T11:50:52.309Z</time></trkpt><trkpt lat="46.0821164" lon="12.1496221"><ele>341.0</ele><time>2026-05-02T11:50:54.311Z</time></trkpt><trkpt lat="46.082053" lon="12.1494694"><ele>341.0</ele><time>2026-05-02T11:50:56.318Z</time></trkpt><trkpt lat="46.0820207" lon="12.1493913"><ele>341.0</ele><time>2026-05-02T11:50:57.317Z</time></trkpt><trkpt lat="46.0819614" lon="12.1492425"><ele>341.0</ele><time>2026-05-02T11:50:59.308Z</time></trkpt><trkpt lat="46.0818986" lon="12.1491002"><ele>341.0</ele><time>2026-05-02T11:51:01.31Z</time></trkpt><trkpt lat="46.0818409" lon="12.1489533"><ele>340.75</ele><time>2026-05-02T11:51:03.309Z</time></trkpt><trkpt lat="46.0817877" lon="12.1488109"><ele>340.5</ele><time>2026-05-02T11:51:05.316Z</time></trkpt><trkpt lat="46.0817336" lon="12.148668"><ele>340.25</ele><time>2026-05-02T11:51:07.316Z</time></trkpt><trkpt lat="46.0816767" lon="12.1485249"><ele>340.0</ele><time>2026-05-02T11:51:09.316Z</time></trkpt><trkpt lat="46.0816193" lon="12.1483881"><ele>340.0</ele><time>2026-05-02T11:51:11.308Z</time></trkpt><trkpt lat="46.0815613" lon="12.148254"><ele>340.0</ele><time>2026-05-02T11:51:13.309Z</time></trkpt><trkpt lat="46.0815041" lon="12.1481135"><ele>340.0</ele><time>2026-05-02T11:51:15.312Z</time></trkpt><trkpt lat="46.0814578" lon="12.1479684"><ele>340.0</ele><time>2026-05-02T11:51:17.31Z</time></trkpt><trkpt lat="46.0814274" lon="12.147824"><ele>340.0</ele><time>2026-05-02T11:51:19.314Z</time></trkpt><trkpt lat="46.0814102" lon="12.1476851"><ele>340.0</ele><time>2026-05-02T11:51:21.474Z</time></trkpt><trkpt lat="46.0813684" lon="12.1475477"><ele>340.0</ele><time>2026-05-02T11:51:23.316Z</time></trkpt><trkpt lat="46.0812864" lon="12.1474387"><ele>340.0</ele><time>2026-05-02T11:51:25.308Z</time></trkpt><trkpt lat="46.0812194" lon="12.1473171"><ele>340.0</ele><time>2026-05-02T11:51:27.314Z</time></trkpt><trkpt lat="46.0811716" lon="12.1471714"><ele>340.0</ele><time>2026-05-02T11:51:29.316Z</time></trkpt><trkpt lat="46.0811263" lon="12.1470197"><ele>339.25</ele><time>2026-05-02T11:51:31.308Z</time></trkpt><trkpt lat="46.081083" lon="12.1468661"><ele>338.5</ele><time>2026-05-02T11:51:33.308Z</time></trkpt><trkpt lat="46.0810412" lon="12.1467063"><ele>337.75</ele><time>2026-05-02T11:51:35.317Z</time></trkpt><trkpt lat="46.0810011" lon="12.1465498"><ele>337.0</ele><time>2026-05-02T11:51:37.303Z</time></trkpt><trkpt lat="46.0809535" lon="12.1463868"><ele>336.8</ele><time>2026-05-02T11:51:39.316Z</time></trkpt><trkpt lat="46.0809085" lon="12.1462227"><ele>336.6</ele><time>2026-05-02T11:51:41.309Z</time></trkpt><trkpt lat="46.0808854" lon="12.146138"><ele>336.40000000000003</ele><time>2026-05-02T11:51:42.309Z</time></trkpt><trkpt lat="46.0808359" lon="12.1459756"><ele>336.20000000000005</ele><time>2026-05-02T11:51:44.315Z</time></trkpt><trkpt lat="46.0807878" lon="12.1458078"><ele>336.0</ele><time>2026-05-02T11:51:46.315Z</time></trkpt><trkpt lat="46.0807622" lon="12.1457188"><ele>336.1666666666667</ele><time>2026-05-02T11:51:47.305Z</time></trkpt><trkpt lat="46.0807394" lon="12.1456333"><ele>336.3333333333333</ele><time>2026-05-02T11:51:48.311Z</time></trkpt><trkpt lat="46.0806955" lon="12.1454675"><ele>336.5</ele><time>2026-05-02T11:51:50.304Z</time></trkpt><trkpt lat="46.0806689" lon="12.1453788"><ele>336.66666666666663</ele><time>2026-05-02T11:51:51.316Z</time></trkpt><trkpt lat="46.0806456" lon="12.1452935"><ele>336.8333333333333</ele><time>2026-05-02T11:51:52.315Z</time></trkpt><trkpt lat="46.0805994" lon="12.145133"><ele>337.0</ele><time>2026-05-02T11:51:54.316Z</time></trkpt><trkpt lat="46.0805524" lon="12.1449724"><ele>336.5</ele><time>2026-05-02T11:51:56.317Z</time></trkpt><trkpt lat="46.0805062" lon="12.1448102"><ele>336.0</ele><time>2026-05-02T11:51:58.314Z</time></trkpt><trkpt lat="46.0804804" lon="12.1447217"><ele>335.5</ele><time>2026-05-02T11:51:59.31Z</time></trkpt><trkpt lat="46.0804551" lon="12.1446332"><ele>335.0</ele><time>2026-05-02T11:52:00.315Z</time></trkpt><trkpt lat="46.0804335" lon="12.1445462"><ele>334.5</ele><time>2026-05-02T11:52:01.307Z</time></trkpt><trkpt lat="46.080411" lon="12.14446"><ele>334.0</ele><time>2026-05-02T11:52:02.308Z</time></trkpt><trkpt lat="46.0803855" lon="12.1443707"><ele>334.0</ele><time>2026-05-02T11:52:03.317Z</time></trkpt><trkpt lat="46.0803624" lon="12.14428"><ele>334.0</ele><time>2026-05-02T11:52:04.307Z</time></trkpt><trkpt lat="46.0803347" lon="12.144189"><ele>334.0</ele><time>2026-05-02T11:52:05.315Z</time></trkpt><trkpt lat="46.0803077" lon="12.1441002"><ele>334.0</ele><time>2026-05-02T11:52:06.312Z</time></trkpt><trkpt lat="46.0802836" lon="12.1440091"><ele>334.0</ele><time>2026-05-02T11:52:07.309Z</time></trkpt><trkpt lat="46.0802589" lon="12.143918"><ele>334.0</ele><time>2026-05-02T11:52:08.308Z</time></trkpt><trkpt lat="46.0802379" lon="12.1438238"><ele>334.0</ele><time>2026-05-02T11:52:09.308Z</time></trkpt><trkpt lat="46.080213" lon="12.1437297"><ele>333.85714285714283</ele><time>2026-05-02T11:52:10.307Z</time></trkpt><trkpt lat="46.0801882" lon="12.1436311"><ele>333.7142857142857</ele><time>2026-05-02T11:52:11.309Z</time></trkpt><trkpt lat="46.0801623" lon="12.1435396"><ele>333.57142857142856</ele><time>2026-05-02T11:52:12.309Z</time></trkpt><trkpt lat="46.0801381" lon="12.1434488"><ele>333.42857142857144</ele><time>2026-05-02T11:52:13.308Z</time></trkpt><trkpt lat="46.0801166" lon="12.1433592"><ele>333.2857142857143</ele><time>2026-05-02T11:52:14.311Z</time></trkpt><trkpt lat="46.0800923" lon="12.1432638"><ele>333.14285714285717</ele><time>2026-05-02T11:52:15.306Z</time></trkpt><trkpt lat="46.0800693" lon="12.1431745"><ele>333.0</ele><time>2026-05-02T11:52:16.308Z</time></trkpt><trkpt lat="46.0800431" lon="12.1430866"><ele>333.0</ele><time>2026-05-02T11:52:17.322Z</time></trkpt><trkpt lat="46.0800181" lon="12.1429925"><ele>333.0</ele><time>2026-05-02T11:52:18.305Z</time></trkpt><trkpt lat="46.0799958" lon="12.1429004"><ele>333.0</ele><time>2026-05-02T11:52:19.306Z</time></trkpt><trkpt lat="46.0799726" lon="12.1428108"><ele>333.0</ele><time>2026-05-02T11:52:20.315Z</time></trkpt><trkpt lat="46.0799492" lon="12.142724"><ele>333.0</ele><time>2026-05-02T11:52:21.315Z</time></trkpt><trkpt lat="46.0799023" lon="12.1425581"><ele>333.0</ele><time>2026-05-02T11:52:23.309Z</time></trkpt><trkpt lat="46.0798754" lon="12.1424675"><ele>333.0</ele><time>2026-05-02T11:52:24.3Z</time></trkpt><trkpt lat="46.0798481" lon="12.1423763"><ele>333.0</ele><time>2026-05-02T11:52:25.307Z</time></trkpt><trkpt lat="46.0798213" lon="12.1422854"><ele>333.0</ele><time>2026-05-02T11:52:26.308Z</time></trkpt><trkpt lat="46.079794" lon="12.1421922"><ele>333.0</ele><time>2026-05-02T11:52:27.326Z</time></trkpt><trkpt lat="46.0797706" lon="12.1421071"><ele>333.0</ele><time>2026-05-02T11:52:28.317Z</time></trkpt><trkpt lat="46.0797431" lon="12.1420189"><ele>333.0</ele><time>2026-05-02T11:52:29.309Z</time></trkpt><trkpt lat="46.0797179" lon="12.1419337"><ele>333.0</ele><time>2026-05-02T11:52:30.305Z</time></trkpt><trkpt lat="46.0796916" lon="12.1418456"><ele>333.0</ele><time>2026-05-02T11:52:31.314Z</time></trkpt><trkpt lat="46.0796663" lon="12.1417562"><ele>333.0</ele><time>2026-05-02T11:52:32.317Z</time></trkpt><trkpt lat="46.079643" lon="12.1416675"><ele>333.0</ele><time>2026-05-02T11:52:33.302Z</time></trkpt><trkpt lat="46.0796207" lon="12.141577"><ele>333.0</ele><time>2026-05-02T11:52:34.307Z</time></trkpt><trkpt lat="46.0795934" lon="12.1414863"><ele>333.0</ele><time>2026-05-02T11:52:35.307Z</time></trkpt><trkpt lat="46.0795717" lon="12.1413948"><ele>333.0</ele><time>2026-05-02T11:52:36.305Z</time></trkpt><trkpt lat="46.0795473" lon="12.1413033"><ele>333.0</ele><time>2026-05-02T11:52:37.314Z</time></trkpt><trkpt lat="46.0795198" lon="12.1412125"><ele>332.8333333333333</ele><time>2026-05-02T11:52:38.317Z</time></trkpt><trkpt lat="46.0794919" lon="12.1411236"><ele>332.6666666666667</ele><time>2026-05-02T11:52:39.306Z</time></trkpt><trkpt lat="46.0794675" lon="12.1410299"><ele>332.5</ele><time>2026-05-02T11:52:40.314Z</time></trkpt><trkpt lat="46.0794408" lon="12.140942"><ele>332.33333333333337</ele><time>2026-05-02T11:52:41.305Z</time></trkpt><trkpt lat="46.0794157" lon="12.1408564"><ele>332.1666666666667</ele><time>2026-05-02T11:52:42.318Z</time></trkpt><trkpt lat="46.079372" lon="12.1406971"><ele>332.0</ele><time>2026-05-02T11:52:44.315Z</time></trkpt><trkpt lat="46.0793473" lon="12.1406109"><ele>331.6666666666667</ele><time>2026-05-02T11:52:45.307Z</time></trkpt><trkpt lat="46.0793223" lon="12.1405266"><ele>331.33333333333337</ele><time>2026-05-02T11:52:46.308Z</time></trkpt><trkpt lat="46.0792713" lon="12.1403571"><ele>331.0</ele><time>2026-05-02T11:52:48.308Z</time></trkpt><trkpt lat="46.0792459" lon="12.1402726"><ele>330.6666666666667</ele><time>2026-05-02T11:52:49.307Z</time></trkpt><trkpt lat="46.0792185" lon="12.1401838"><ele>330.3333333333333</ele><time>2026-05-02T11:52:50.314Z</time></trkpt><trkpt lat="46.0791943" lon="12.1400978"><ele>330.0</ele><time>2026-05-02T11:52:51.315Z</time></trkpt><trkpt lat="46.0791671" lon="12.140009"><ele>330.0</ele><time>2026-05-02T11:52:52.32Z</time></trkpt><trkpt lat="46.0791422" lon="12.1399196"><ele>330.0</ele><time>2026-05-02T11:52:53.315Z</time></trkpt><trkpt lat="46.0791184" lon="12.1398308"><ele>330.0</ele><time>2026-05-02T11:52:54.315Z</time></trkpt><trkpt lat="46.0790934" lon="12.1397414"><ele>330.0</ele><time>2026-05-02T11:52:55.316Z</time></trkpt><trkpt lat="46.0790682" lon="12.1396506"><ele>330.0</ele><time>2026-05-02T11:52:56.314Z</time></trkpt><trkpt lat="46.0790433" lon="12.139559"><ele>330.0</ele><time>2026-05-02T11:52:57.307Z</time></trkpt><trkpt lat="46.0789951" lon="12.1393885"><ele>330.1666666666667</ele><time>2026-05-02T11:52:59.315Z</time></trkpt><trkpt lat="46.0789671" lon="12.1393012"><ele>330.3333333333333</ele><time>2026-05-02T11:53:00.308Z</time></trkpt><trkpt lat="46.0789425" lon="12.1392149"><ele>330.5</ele><time>2026-05-02T11:53:01.307Z</time></trkpt><trkpt lat="46.0789184" lon="12.1391307"><ele>330.66666666666663</ele><time>2026-05-02T11:53:02.317Z</time></trkpt><trkpt lat="46.0788704" lon="12.1389699"><ele>330.8333333333333</ele><time>2026-05-02T11:53:04.316Z</time></trkpt><trkpt lat="46.0788198" lon="12.138804"><ele>331.0</ele><time>2026-05-02T11:53:06.311Z</time></trkpt><trkpt lat="46.0787973" lon="12.1387151"><ele>331.0</ele><time>2026-05-02T11:53:07.413Z</time></trkpt><trkpt lat="46.0787756" lon="12.1386292"><ele>331.0</ele><time>2026-05-02T11:53:08.315Z</time></trkpt><trkpt lat="46.078734" lon="12.1384663"><ele>331.0</ele><time>2026-05-02T11:53:10.315Z</time></trkpt><trkpt lat="46.0786904" lon="12.1383035"><ele>331.0</ele><time>2026-05-02T11:53:12.309Z</time></trkpt><trkpt lat="46.0786447" lon="12.1381477"><ele>331.0</ele><time>2026-05-02T11:53:14.307Z</time></trkpt><trkpt lat="46.0785994" lon="12.1379904"><ele>331.0</ele><time>2026-05-02T11:53:16.308Z</time></trkpt><trkpt lat="46.0785526" lon="12.1378333"><ele>331.0</ele><time>2026-05-02T11:53:18.315Z</time></trkpt><trkpt lat="46.0785062" lon="12.1376772"><ele>331.0</ele><time>2026-05-02T11:53:20.315Z</time></trkpt><trkpt lat="46.0784464" lon="12.1375416"><ele>331.0</ele><time>2026-05-02T11:53:22.315Z</time></trkpt><trkpt lat="46.0783643" lon="12.137434"><ele>331.0</ele><time>2026-05-02T11:53:24.309Z</time></trkpt><trkpt lat="46.0783029" lon="12.1373196"><ele>331.0</ele><time>2026-05-02T11:53:26.31Z</time></trkpt><trkpt lat="46.0782538" lon="12.1371981"><ele>331.0</ele><time>2026-05-02T11:53:28.316Z</time></trkpt><trkpt lat="46.0782109" lon="12.1370986"><ele>331.0</ele><time>2026-05-02T11:53:30.315Z</time></trkpt><trkpt lat="46.0781527" lon="12.1370289"><ele>331.0</ele><time>2026-05-02T11:53:32.316Z</time></trkpt><trkpt lat="46.0781245" lon="12.1369366"><ele>331.0</ele><time>2026-05-02T11:53:35.318Z</time></trkpt><trkpt lat="46.078073" lon="12.1368271"><ele>331.14285714285717</ele><time>2026-05-02T12:02:30.309Z</time></trkpt><trkpt lat="46.0780218" lon="12.1367558"><ele>331.2857142857143</ele><time>2026-05-02T12:02:32.315Z</time></trkpt><trkpt lat="46.0779735" lon="12.136675"><ele>331.42857142857144</ele><time>2026-05-02T12:02:34.324Z</time></trkpt><trkpt lat="46.0779255" lon="12.1366128"><ele>331.57142857142856</ele><time>2026-05-02T12:02:36.315Z</time></trkpt><trkpt lat="46.0778836" lon="12.1365137"><ele>331.7142857142857</ele><time>2026-05-02T12:02:43.316Z</time></trkpt><trkpt lat="46.0778734" lon="12.1364139"><ele>331.85714285714283</ele><time>2026-05-02T12:02:45.314Z</time></trkpt><trkpt lat="46.077811" lon="12.1363256"><ele>332.0</ele><time>2026-05-02T12:02:47.325Z</time></trkpt><trkpt lat="46.0777424" lon="12.1362502"><ele>332.0</ele><time>2026-05-02T12:02:49.316Z</time></trkpt><trkpt lat="46.0776672" lon="12.1361745"><ele>332.0</ele><time>2026-05-02T12:02:51.313Z</time></trkpt><trkpt lat="46.0776021" lon="12.1360916"><ele>332.0</ele><time>2026-05-02T12:02:53.306Z</time></trkpt><trkpt lat="46.0775286" lon="12.1360109"><ele>332.0</ele><time>2026-05-02T12:02:55.315Z</time></trkpt><trkpt lat="46.077453" lon="12.1359324"><ele>332.0</ele><time>2026-05-02T12:02:57.431Z</time></trkpt><trkpt lat="46.0773772" lon="12.1358531"><ele>332.0</ele><time>2026-05-02T12:02:59.312Z</time></trkpt><trkpt lat="46.0773019" lon="12.1357737"><ele>332.0</ele><time>2026-05-02T12:03:01.317Z</time></trkpt><trkpt lat="46.0772265" lon="12.1356955"><ele>332.0</ele><time>2026-05-02T12:03:03.308Z</time></trkpt><trkpt lat="46.0771528" lon="12.1356234"><ele>332.0</ele><time>2026-05-02T12:03:05.315Z</time></trkpt><trkpt lat="46.077081" lon="12.1355447"><ele>332.0</ele><time>2026-05-02T12:03:07.325Z</time></trkpt><trkpt lat="46.07701" lon="12.1354672"><ele>331.8</ele><time>2026-05-02T12:03:09.314Z</time></trkpt><trkpt lat="46.0769336" lon="12.1353842"><ele>331.6</ele><time>2026-05-02T12:03:11.319Z</time></trkpt><trkpt lat="46.0768591" lon="12.1353114"><ele>331.40000000000003</ele><time>2026-05-02T12:03:13.319Z</time></trkpt><trkpt lat="46.0767808" lon="12.1352298"><ele>331.20000000000005</ele><time>2026-05-02T12:03:15.312Z</time></trkpt><trkpt lat="46.0767081" lon="12.1351515"><ele>331.0</ele><time>2026-05-02T12:03:17.32Z</time></trkpt><trkpt lat="46.0766332" lon="12.1350731"><ele>331.8</ele><time>2026-05-02T12:03:19.316Z</time></trkpt><trkpt lat="46.0765573" lon="12.1349984"><ele>332.6</ele><time>2026-05-02T12:03:21.315Z</time></trkpt><trkpt lat="46.0764811" lon="12.1349144"><ele>333.4</ele><time>2026-05-02T12:03:23.311Z</time></trkpt><trkpt lat="46.0764037" lon="12.1348325"><ele>334.2</ele><time>2026-05-02T12:03:25.316Z</time></trkpt><trkpt lat="46.0763232" lon="12.1347465"><ele>335.0</ele><time>2026-05-02T12:03:27.323Z</time></trkpt><trkpt lat="46.0762444" lon="12.1346522"><ele>335.0</ele><time>2026-05-02T12:03:29.316Z</time></trkpt><trkpt lat="46.0761683" lon="12.1345638"><ele>335.0</ele><time>2026-05-02T12:03:31.309Z</time></trkpt><trkpt lat="46.0761018" lon="12.1344866"><ele>335.0</ele><time>2026-05-02T12:03:33.307Z</time></trkpt><trkpt lat="46.0760981" lon="12.1343768"><ele>335.0</ele><time>2026-05-02T12:03:35.316Z</time></trkpt><trkpt lat="46.0761553" lon="12.1342962"><ele>335.0</ele><time>2026-05-02T12:03:37.327Z</time></trkpt><trkpt lat="46.07622" lon="12.1342263"><ele>335.0</ele><time>2026-05-02T12:03:39.333Z</time></trkpt><trkpt lat="46.0762826" lon="12.1341365"><ele>334.4</ele><time>2026-05-02T12:03:41.316Z</time></trkpt><trkpt lat="46.0763592" lon="12.1340542"><ele>333.8</ele><time>2026-05-02T12:03:43.318Z</time></trkpt><trkpt lat="46.076443" lon="12.1339772"><ele>333.20000000000005</ele><time>2026-05-02T12:03:45.316Z</time></trkpt><trkpt lat="46.0765238" lon="12.1338833"><ele>332.6</ele><time>2026-05-02T12:03:47.323Z</time></trkpt><trkpt lat="46.0766113" lon="12.1337905"><ele>332.0</ele><time>2026-05-02T12:03:49.318Z</time></trkpt><trkpt lat="46.0767068" lon="12.1337021"><ele>331.5</ele><time>2026-05-02T12:03:51.308Z</time></trkpt><trkpt lat="46.0768002" lon="12.1336077"><ele>331.0</ele><time>2026-05-02T12:03:53.322Z</time></trkpt><trkpt lat="46.0768936" lon="12.1335092"><ele>330.5</ele><time>2026-05-02T12:03:55.32Z</time></trkpt><trkpt lat="46.0769963" lon="12.1334138"><ele>330.0</ele><time>2026-05-02T12:03:57.325Z</time></trkpt><trkpt lat="46.0770528" lon="12.1332639"><ele>330.0</ele><time>2026-05-02T12:03:59.317Z</time></trkpt><trkpt lat="46.0770528" lon="12.1331022"><ele>330.0</ele><time>2026-05-02T12:04:01.318Z</time></trkpt><trkpt lat="46.0770256" lon="12.1329386"><ele>330.0</ele><time>2026-05-02T12:04:03.315Z</time></trkpt><trkpt lat="46.0769919" lon="12.1327822"><ele>330.0</ele><time>2026-05-02T12:04:05.315Z</time></trkpt><trkpt lat="46.0769805" lon="12.1326599"><ele>330.0</ele><time>2026-05-02T12:04:07.32Z</time></trkpt><trkpt lat="46.0769682" lon="12.132569"><ele>330.0</ele><time>2026-05-02T12:04:13.307Z</time></trkpt><trkpt lat="46.0769271" lon="12.1324518"><ele>330.0</ele><time>2026-05-02T12:04:29.315Z</time></trkpt><trkpt lat="46.0769014" lon="12.1323625"><ele>330.0</ele><time>2026-05-02T12:04:31.308Z</time></trkpt><trkpt lat="46.076889" lon="12.1322347"><ele>330.0</ele><time>2026-05-02T12:04:33.315Z</time></trkpt><trkpt lat="46.0768795" lon="12.1320968"><ele>330.0</ele><time>2026-05-02T12:04:35.315Z</time></trkpt><trkpt lat="46.0768808" lon="12.1319578"><ele>330.0</ele><time>2026-05-02T12:04:37.321Z</time></trkpt><trkpt lat="46.0768837" lon="12.1318073"><ele>329.75</ele><time>2026-05-02T12:04:39.309Z</time></trkpt><trkpt lat="46.0768839" lon="12.1316505"><ele>329.5</ele><time>2026-05-02T12:04:41.315Z</time></trkpt><trkpt lat="46.0768863" lon="12.1314912"><ele>329.25</ele><time>2026-05-02T12:04:43.308Z</time></trkpt><trkpt lat="46.0768923" lon="12.1313273"><ele>329.0</ele><time>2026-05-02T12:04:45.306Z</time></trkpt><trkpt lat="46.0768997" lon="12.1311534"><ele>328.5</ele><time>2026-05-02T12:04:47.323Z</time></trkpt><trkpt lat="46.0769082" lon="12.1309808"><ele>328.0</ele><time>2026-05-02T12:04:49.308Z</time></trkpt><trkpt lat="46.0769143" lon="12.1308135"><ele>327.5</ele><time>2026-05-02T12:04:51.315Z</time></trkpt><trkpt lat="46.0769111" lon="12.1306402"><ele>327.0</ele><time>2026-05-02T12:04:53.315Z</time></trkpt><trkpt lat="46.07691" lon="12.1304674"><ele>327.0</ele><time>2026-05-02T12:04:55.303Z</time></trkpt><trkpt lat="46.0769031" lon="12.1302901"><ele>327.0</ele><time>2026-05-02T12:04:57.323Z</time></trkpt><trkpt lat="46.0768954" lon="12.1301261"><ele>327.0</ele><time>2026-05-02T12:04:59.309Z</time></trkpt><trkpt lat="46.0768926" lon="12.1299688"><ele>327.0</ele><time>2026-05-02T12:05:01.315Z</time></trkpt><trkpt lat="46.0768895" lon="12.1298176"><ele>327.0</ele><time>2026-05-02T12:05:03.312Z</time></trkpt><trkpt lat="46.0768859" lon="12.1296716"><ele>327.0</ele><time>2026-05-02T12:05:05.316Z</time></trkpt><trkpt lat="46.076877" lon="12.1295194"><ele>327.0</ele><time>2026-05-02T12:05:07.316Z</time></trkpt><trkpt lat="46.0768726" lon="12.1293353"><ele>327.0</ele><time>2026-05-02T12:05:09.316Z</time></trkpt><trkpt lat="46.07687" lon="12.1292341"><ele>327.0</ele><time>2026-05-02T12:05:10.316Z</time></trkpt><trkpt lat="46.0768651" lon="12.1291225"><ele>327.1666666666667</ele><time>2026-05-02T12:05:11.315Z</time></trkpt><trkpt lat="46.0768596" lon="12.1290044"><ele>327.3333333333333</ele><time>2026-05-02T12:05:12.314Z</time></trkpt><trkpt lat="46.0768553" lon="12.1288784"><ele>327.5</ele><time>2026-05-02T12:05:13.314Z</time></trkpt><trkpt lat="46.0768508" lon="12.1287611"><ele>327.66666666666663</ele><time>2026-05-02T12:05:14.307Z</time></trkpt><trkpt lat="46.0768429" lon="12.1286552"><ele>327.8333333333333</ele><time>2026-05-02T12:05:15.309Z</time></trkpt><trkpt lat="46.0768365" lon="12.1285428"><ele>328.0</ele><time>2026-05-02T12:05:16.31Z</time></trkpt><trkpt lat="46.0768318" lon="12.1284408"><ele>328.0</ele><time>2026-05-02T12:05:17.316Z</time></trkpt><trkpt lat="46.0768285" lon="12.1283457"><ele>328.0</ele><time>2026-05-02T12:05:18.315Z</time></trkpt><trkpt lat="46.0768297" lon="12.1281743"><ele>328.0</ele><time>2026-05-02T12:05:20.31Z</time></trkpt><trkpt lat="46.0768211" lon="12.1280301"><ele>328.0</ele><time>2026-05-02T12:05:22.316Z</time></trkpt><trkpt lat="46.0768215" lon="12.1279035"><ele>328.0</ele><time>2026-05-02T12:05:24.309Z</time></trkpt><trkpt lat="46.0768139" lon="12.1277788"><ele>328.0</ele><time>2026-05-02T12:05:26.307Z</time></trkpt><trkpt lat="46.0768079" lon="12.1276536"><ele>328.0</ele><time>2026-05-02T12:05:28.318Z</time></trkpt><trkpt lat="46.0767959" lon="12.1275294"><ele>328.0</ele><time>2026-05-02T12:05:30.314Z</time></trkpt><trkpt lat="46.0767729" lon="12.127406"><ele>328.0</ele><time>2026-05-02T12:05:32.308Z</time></trkpt><trkpt lat="46.0767394" lon="12.1272902"><ele>328.0</ele><time>2026-05-02T12:05:34.315Z</time></trkpt><trkpt lat="46.076694" lon="12.1271728"><ele>328.0</ele><time>2026-05-02T12:05:36.315Z</time></trkpt><trkpt lat="46.076643" lon="12.1270638"><ele>328.0</ele><time>2026-05-02T12:05:38.314Z</time></trkpt><trkpt lat="46.0765831" lon="12.126964"><ele>328.0</ele><time>2026-05-02T12:05:40.305Z</time></trkpt><trkpt lat="46.076517" lon="12.1268649"><ele>328.0</ele><time>2026-05-02T12:05:42.317Z</time></trkpt><trkpt lat="46.0764493" lon="12.1267638"><ele>328.0</ele><time>2026-05-02T12:05:44.325Z</time></trkpt><trkpt lat="46.0763847" lon="12.1266645"><ele>328.0</ele><time>2026-05-02T12:05:46.313Z</time></trkpt><trkpt lat="46.0763131" lon="12.1265675"><ele>328.4</ele><time>2026-05-02T12:05:48.3Z</time></trkpt><trkpt lat="46.0762413" lon="12.1264629"><ele>328.79999999999995</ele><time>2026-05-02T12:05:50.314Z</time></trkpt><trkpt lat="46.0761705" lon="12.1263596"><ele>329.2</ele><time>2026-05-02T12:05:52.308Z</time></trkpt><trkpt lat="46.0760977" lon="12.1262492"><ele>329.6</ele><time>2026-05-02T12:05:54.314Z</time></trkpt><trkpt lat="46.0760424" lon="12.1261493"><ele>330.0</ele><time>2026-05-02T12:05:56.321Z</time></trkpt><trkpt lat="46.0760082" lon="12.1260197"><ele>330.0</ele><time>2026-05-02T12:05:58.315Z</time></trkpt><trkpt lat="46.0759873" lon="12.125879"><ele>330.0</ele><time>2026-05-02T12:06:00.314Z</time></trkpt><trkpt lat="46.0759596" lon="12.1257374"><ele>330.0</ele><time>2026-05-02T12:06:02.311Z</time></trkpt><trkpt lat="46.0759444" lon="12.1256054"><ele>330.0</ele><time>2026-05-02T12:06:04.315Z</time></trkpt><trkpt lat="46.0759327" lon="12.1254642"><ele>330.0</ele><time>2026-05-02T12:06:06.314Z</time></trkpt><trkpt lat="46.0759327" lon="12.1253227"><ele>330.0</ele><time>2026-05-02T12:06:08.314Z</time></trkpt><trkpt lat="46.0759351" lon="12.1251631"><ele>330.0</ele><time>2026-05-02T12:06:10.307Z</time></trkpt><trkpt lat="46.0759419" lon="12.1250105"><ele>330.0</ele><time>2026-05-02T12:06:12.312Z</time></trkpt><trkpt lat="46.0759502" lon="12.12485"><ele>330.0</ele><time>2026-05-02T12:06:14.304Z</time></trkpt><trkpt lat="46.0759629" lon="12.1246941"><ele>330.0</ele><time>2026-05-02T12:06:16.314Z</time></trkpt><trkpt lat="46.0759711" lon="12.1245492"><ele>330.2</ele><time>2026-05-02T12:06:18.315Z</time></trkpt><trkpt lat="46.0759744" lon="12.1244074"><ele>330.4</ele><time>2026-05-02T12:06:20.315Z</time></trkpt><trkpt lat="46.0759654" lon="12.1242607"><ele>330.6</ele><time>2026-05-02T12:06:22.315Z</time></trkpt><trkpt lat="46.075946" lon="12.1241172"><ele>330.8</ele><time>2026-05-02T12:06:24.313Z</time></trkpt><trkpt lat="46.075909" lon="12.1239825"><ele>331.0</ele><time>2026-05-02T12:06:26.307Z</time></trkpt><trkpt lat="46.0758615" lon="12.1238519"><ele>331.0</ele><time>2026-05-02T12:06:28.309Z</time></trkpt><trkpt lat="46.0758138" lon="12.123724"><ele>331.0</ele><time>2026-05-02T12:06:30.309Z</time></trkpt><trkpt lat="46.0757707" lon="12.1235917"><ele>331.0</ele><time>2026-05-02T12:06:32.314Z</time></trkpt><trkpt lat="46.0757576" lon="12.1234637"><ele>331.0</ele><time>2026-05-02T12:06:34.307Z</time></trkpt><trkpt lat="46.0757851" lon="12.1233572"><ele>331.0</ele><time>2026-05-02T12:06:36.311Z</time></trkpt><trkpt lat="46.075844" lon="12.1232834"><ele>331.0</ele><time>2026-05-02T12:06:38.306Z</time></trkpt><trkpt lat="46.0759142" lon="12.1232175"><ele>330.8</ele><time>2026-05-02T12:06:40.315Z</time></trkpt><trkpt lat="46.0759975" lon="12.1231472"><ele>330.6</ele><time>2026-05-02T12:06:42.323Z</time></trkpt><trkpt lat="46.0760785" lon="12.1230798"><ele>330.4</ele><time>2026-05-02T12:06:44.309Z</time></trkpt><trkpt lat="46.0761646" lon="12.1230149"><ele>330.2</ele><time>2026-05-02T12:06:46.321Z</time></trkpt><trkpt lat="46.0762501" lon="12.1229308"><ele>330.0</ele><time>2026-05-02T12:06:48.313Z</time></trkpt><trkpt lat="46.0763304" lon="12.1228433"><ele>330.0</ele><time>2026-05-02T12:06:50.314Z</time></trkpt><trkpt lat="46.0763974" lon="12.122769"><ele>330.0</ele><time>2026-05-02T12:06:52.315Z</time></trkpt><trkpt lat="46.0764195" lon="12.1226449"><ele>330.0</ele><time>2026-05-02T12:06:54.306Z</time></trkpt><trkpt lat="46.0764077" lon="12.1225166"><ele>330.0</ele><time>2026-05-02T12:06:56.306Z</time></trkpt><trkpt lat="46.0763705" lon="12.1223773"><ele>330.0</ele><time>2026-05-02T12:06:58.315Z</time></trkpt><trkpt lat="46.0763339" lon="12.1222423"><ele>329.8</ele><time>2026-05-02T12:07:00.317Z</time></trkpt><trkpt lat="46.0763211" lon="12.1221024"><ele>329.6</ele><time>2026-05-02T12:07:02.307Z</time></trkpt><trkpt lat="46.0763061" lon="12.1219496"><ele>329.4</ele><time>2026-05-02T12:07:04.305Z</time></trkpt><trkpt lat="46.0762988" lon="12.1217898"><ele>329.2</ele><time>2026-05-02T12:07:06.315Z</time></trkpt><trkpt lat="46.0762942" lon="12.1216267"><ele>329.0</ele><time>2026-05-02T12:07:08.314Z</time></trkpt><trkpt lat="46.0763033" lon="12.1214661"><ele>328.79999999999995</ele><time>2026-05-02T12:07:10.307Z</time></trkpt><trkpt lat="46.0763512" lon="12.1213406"><ele>328.59999999999997</ele><time>2026-05-02T12:07:12.314Z</time></trkpt><trkpt lat="46.0764021" lon="12.1212014"><ele>328.4</ele><time>2026-05-02T12:07:14.305Z</time></trkpt><trkpt lat="46.0764543" lon="12.1210514"><ele>328.2</ele><time>2026-05-02T12:07:16.313Z</time></trkpt><trkpt lat="46.0764918" lon="12.1208921"><ele>328.0</ele><time>2026-05-02T12:07:18.306Z</time></trkpt><trkpt lat="46.0765102" lon="12.1207194"><ele>327.25</ele><time>2026-05-02T12:07:20.314Z</time></trkpt><trkpt lat="46.0765289" lon="12.1205584"><ele>326.5</ele><time>2026-05-02T12:07:22.314Z</time></trkpt><trkpt lat="46.0765416" lon="12.1203918"><ele>325.75</ele><time>2026-05-02T12:07:24.305Z</time></trkpt><trkpt lat="46.0765561" lon="12.1202287"><ele>325.0</ele><time>2026-05-02T12:07:26.307Z</time></trkpt><trkpt lat="46.07654" lon="12.1200626"><ele>325.0</ele><time>2026-05-02T12:07:28.315Z</time></trkpt><trkpt lat="46.0764879" lon="12.1199078"><ele>325.0</ele><time>2026-05-02T12:07:30.313Z</time></trkpt><trkpt lat="46.0764155" lon="12.1197618"><ele>325.0</ele><time>2026-05-02T12:07:32.316Z</time></trkpt><trkpt lat="46.0763743" lon="12.1196869"><ele>325.0</ele><time>2026-05-02T12:07:33.314Z</time></trkpt><trkpt lat="46.0763279" lon="12.1196093"><ele>325.0</ele><time>2026-05-02T12:07:34.306Z</time></trkpt><trkpt lat="46.0762764" lon="12.1195359"><ele>324.5</ele><time>2026-05-02T12:07:35.316Z</time></trkpt><trkpt lat="46.0762198" lon="12.1194678"><ele>324.0</ele><time>2026-05-02T12:07:36.307Z</time></trkpt><trkpt lat="46.0761571" lon="12.1194018"><ele>323.5</ele><time>2026-05-02T12:07:37.32Z</time></trkpt><trkpt lat="46.076093" lon="12.1193239"><ele>323.0</ele><time>2026-05-02T12:07:38.315Z</time></trkpt><trkpt lat="46.0760353" lon="12.1192304"><ele>322.5</ele><time>2026-05-02T12:07:39.313Z</time></trkpt><trkpt lat="46.0759822" lon="12.1191297"><ele>322.0</ele><time>2026-05-02T12:07:40.315Z</time></trkpt><trkpt lat="46.07593" lon="12.1190292"><ele>321.5</ele><time>2026-05-02T12:07:41.314Z</time></trkpt><trkpt lat="46.0758784" lon="12.1189267"><ele>321.0</ele><time>2026-05-02T12:07:42.308Z</time></trkpt><trkpt lat="46.075824" lon="12.1188239"><ele>320.5</ele><time>2026-05-02T12:07:43.313Z</time></trkpt><trkpt lat="46.0757756" lon="12.1187227"><ele>320.0</ele><time>2026-05-02T12:07:44.303Z</time></trkpt><trkpt lat="46.0757294" lon="12.1186125"><ele>319.5</ele><time>2026-05-02T12:07:45.315Z</time></trkpt><trkpt lat="46.0756938" lon="12.1184979"><ele>319.0</ele><time>2026-05-02T12:07:46.314Z</time></trkpt><trkpt lat="46.0756573" lon="12.1183815"><ele>318.66666666666663</ele><time>2026-05-02T12:07:47.318Z</time></trkpt><trkpt lat="46.0756257" lon="12.1182691"><ele>318.3333333333333</ele><time>2026-05-02T12:07:48.314Z</time></trkpt><trkpt lat="46.0756013" lon="12.1181609"><ele>318.0</ele><time>2026-05-02T12:07:49.315Z</time></trkpt><trkpt lat="46.0755769" lon="12.1180534"><ele>317.6666666666667</ele><time>2026-05-02T12:07:50.306Z</time></trkpt><trkpt lat="46.0755725" lon="12.1179477"><ele>317.33333333333337</ele><time>2026-05-02T12:07:51.306Z</time></trkpt><trkpt lat="46.0755415" lon="12.1177863"><ele>317.0</ele><time>2026-05-02T12:07:53.313Z</time></trkpt><trkpt lat="46.0754516" lon="12.1176858"><ele>316.2</ele><time>2026-05-02T12:07:55.306Z</time></trkpt><trkpt lat="46.075353" lon="12.1177214"><ele>315.4</ele><time>2026-05-02T12:07:57.407Z</time></trkpt><trkpt lat="46.0752791" lon="12.1178314"><ele>314.6</ele><time>2026-05-02T12:07:59.306Z</time></trkpt><trkpt lat="46.0752345" lon="12.1179515"><ele>313.8</ele><time>2026-05-02T12:08:01.322Z</time></trkpt><trkpt lat="46.0751852" lon="12.1180876"><ele>313.0</ele><time>2026-05-02T12:08:03.314Z</time></trkpt><trkpt lat="46.0751287" lon="12.1182053"><ele>313.8</ele><time>2026-05-02T12:08:05.311Z</time></trkpt><trkpt lat="46.0750387" lon="12.1182882"><ele>314.6</ele><time>2026-05-02T12:08:07.323Z</time></trkpt><trkpt lat="46.0749332" lon="12.1183106"><ele>315.4</ele><time>2026-05-02T12:08:09.313Z</time></trkpt><trkpt lat="46.0748318" lon="12.1183043"><ele>316.2</ele><time>2026-05-02T12:08:11.313Z</time></trkpt><trkpt lat="46.0747263" lon="12.1183012"><ele>317.0</ele><time>2026-05-02T12:08:13.314Z</time></trkpt><trkpt lat="46.0746236" lon="12.1182994"><ele>317.0</ele><time>2026-05-02T12:08:15.314Z</time></trkpt><trkpt lat="46.0745204" lon="12.1182983"><ele>317.0</ele><time>2026-05-02T12:08:17.324Z</time></trkpt><trkpt lat="46.0744336" lon="12.1182363"><ele>317.0</ele><time>2026-05-02T12:08:19.306Z</time></trkpt><trkpt lat="46.0743611" lon="12.1181646"><ele>317.0</ele><time>2026-05-02T12:08:21.325Z</time></trkpt><trkpt lat="46.0742871" lon="12.1181421"><ele>317.0</ele><time>2026-05-02T12:08:23.307Z</time></trkpt><trkpt lat="46.0742231" lon="12.1181953"><ele>317.0</ele><time>2026-05-02T12:08:25.304Z</time></trkpt><trkpt lat="46.0741556" lon="12.1182515"><ele>317.33333333333337</ele><time>2026-05-02T12:08:27.316Z</time></trkpt><trkpt lat="46.0740715" lon="12.1182426"><ele>317.6666666666667</ele><time>2026-05-02T12:08:29.306Z</time></trkpt><trkpt lat="46.0739885" lon="12.1181957"><ele>318.0</ele><time>2026-05-02T12:08:31.306Z</time></trkpt><trkpt lat="46.0739062" lon="12.1181623"><ele>318.3333333333333</ele><time>2026-05-02T12:08:33.305Z</time></trkpt><trkpt lat="46.07382" lon="12.1181527"><ele>318.66666666666663</ele><time>2026-05-02T12:08:35.307Z</time></trkpt><trkpt lat="46.0737421" lon="12.1181247"><ele>319.0</ele><time>2026-05-02T12:08:37.321Z</time></trkpt><trkpt lat="46.073671" lon="12.1181089"><ele>319.0</ele><time>2026-05-02T12:08:39.307Z</time></trkpt><trkpt lat="46.073635" lon="12.1181947"><ele>319.0</ele><time>2026-05-02T12:08:41.305Z</time></trkpt><trkpt lat="46.0736582" lon="12.1183"><ele>319.0</ele><time>2026-05-02T12:08:43.31Z</time></trkpt><trkpt lat="46.0736761" lon="12.1184092"><ele>319.0</ele><time>2026-05-02T12:08:45.315Z</time></trkpt><trkpt lat="46.0736786" lon="12.1185376"><ele>319.0</ele><time>2026-05-02T12:08:47.324Z</time></trkpt><trkpt lat="46.0736698" lon="12.1186487"><ele>319.0</ele><time>2026-05-02T12:08:49.307Z</time></trkpt><trkpt lat="46.073665" lon="12.1187473"><ele>319.16666666666663</ele><time>2026-05-02T12:08:51.307Z</time></trkpt><trkpt lat="46.0736682" lon="12.1188656"><ele>319.3333333333333</ele><time>2026-05-02T12:08:54.313Z</time></trkpt><trkpt lat="46.0736554" lon="12.1187569"><ele>319.5</ele><time>2026-05-02T12:08:59.307Z</time></trkpt><trkpt lat="46.0736655" lon="12.1186573"><ele>319.6666666666667</ele><time>2026-05-02T12:09:01.306Z</time></trkpt><trkpt lat="46.0736814" lon="12.118499"><ele>319.83333333333337</ele><time>2026-05-02T12:09:03.323Z</time></trkpt><trkpt lat="46.0736874" lon="12.1183488"><ele>320.0</ele><time>2026-05-02T12:09:05.304Z</time></trkpt><trkpt lat="46.0736694" lon="12.1182562"><ele>319.83333333333337</ele><time>2026-05-02T12:09:07.315Z</time></trkpt><trkpt lat="46.073648" lon="12.1181525"><ele>319.6666666666667</ele><time>2026-05-02T12:09:09.314Z</time></trkpt><trkpt lat="46.0736151" lon="12.118071"><ele>319.5</ele><time>2026-05-02T12:09:11.314Z</time></trkpt><trkpt lat="46.0735735" lon="12.117987"><ele>319.3333333333333</ele><time>2026-05-02T12:09:13.317Z</time></trkpt><trkpt lat="46.0735305" lon="12.1178979"><ele>319.16666666666663</ele><time>2026-05-02T12:09:15.313Z</time></trkpt><trkpt lat="46.0734672" lon="12.1178308"><ele>319.0</ele><time>2026-05-02T12:09:17.314Z</time></trkpt><trkpt lat="46.0733878" lon="12.1177893"><ele>319.0</ele><time>2026-05-02T12:09:19.313Z</time></trkpt><trkpt lat="46.0733128" lon="12.1177515"><ele>319.0</ele><time>2026-05-02T12:09:21.306Z</time></trkpt><trkpt lat="46.0732512" lon="12.1177036"><ele>319.0</ele><time>2026-05-02T12:09:23.312Z</time></trkpt><trkpt lat="46.0732089" lon="12.1176234"><ele>319.0</ele><time>2026-05-02T12:09:25.312Z</time></trkpt><trkpt lat="46.073199" lon="12.1175324"><ele>319.0</ele><time>2026-05-02T12:09:27.324Z</time></trkpt><trkpt lat="46.0731906" lon="12.117442"><ele>319.0</ele><time>2026-05-02T12:09:31.314Z</time></trkpt><trkpt lat="46.0731543" lon="12.1173599"><ele>319.0</ele><time>2026-05-02T12:09:37.311Z</time></trkpt><trkpt lat="46.0731187" lon="12.1172845"><ele>319.16666666666663</ele><time>2026-05-02T12:09:41.312Z</time></trkpt><trkpt lat="46.0730943" lon="12.1171928"><ele>319.3333333333333</ele><time>2026-05-02T12:09:44.313Z</time></trkpt><trkpt lat="46.0730774" lon="12.1170982"><ele>319.5</ele><time>2026-05-02T12:09:47.321Z</time></trkpt><trkpt lat="46.0730215" lon="12.1170257"><ele>319.6666666666667</ele><time>2026-05-02T12:09:50.309Z</time></trkpt><trkpt lat="46.0729206" lon="12.1170303"><ele>319.83333333333337</ele><time>2026-05-02T12:09:54.304Z</time></trkpt><trkpt lat="46.0728408" lon="12.1170263"><ele>320.0</ele><time>2026-05-02T12:09:57.317Z</time></trkpt><trkpt lat="46.0727669" lon="12.1170332"><ele>320.0</ele><time>2026-05-02T12:10:00.306Z</time></trkpt><trkpt lat="46.0726999" lon="12.1170016"><ele>320.0</ele><time>2026-05-02T12:10:03.314Z</time></trkpt><trkpt lat="46.0726268" lon="12.1169653"><ele>320.0</ele><time>2026-05-02T12:10:06.309Z</time></trkpt><trkpt lat="46.0725702" lon="12.1168902"><ele>320.0</ele><time>2026-05-02T12:10:09.313Z</time></trkpt><trkpt lat="46.0724974" lon="12.116833"><ele>320.0</ele><time>2026-05-02T12:10:12.314Z</time></trkpt><trkpt lat="46.0724044" lon="12.1168718"><ele>320.0</ele><time>2026-05-02T12:10:15.315Z</time></trkpt><trkpt lat="46.0723406" lon="12.1168172"><ele>320.1428571428571</ele><time>2026-05-02T12:10:18.306Z</time></trkpt><trkpt lat="46.0722799" lon="12.116722"><ele>320.2857142857143</ele><time>2026-05-02T12:10:21.312Z</time></trkpt><trkpt lat="46.0722868" lon="12.1166159"><ele>320.42857142857144</ele><time>2026-05-02T12:10:29.307Z</time></trkpt><trkpt lat="46.0722436" lon="12.116548"><ele>320.57142857142856</ele><time>2026-05-02T12:10:38.306Z</time></trkpt><trkpt lat="46.0722289" lon="12.1164574"><ele>320.7142857142857</ele><time>2026-05-02T12:10:53.31Z</time></trkpt><trkpt lat="46.0722225" lon="12.1163619"><ele>320.85714285714283</ele><time>2026-05-02T12:10:57.318Z</time></trkpt><trkpt lat="46.0721986" lon="12.1162589"><ele>321.0</ele><time>2026-05-02T12:11:01.311Z</time></trkpt><trkpt lat="46.0721702" lon="12.1161562"><ele>321.0</ele><time>2026-05-02T12:11:26.309Z</time></trkpt><trkpt lat="46.0721244" lon="12.1160549"><ele>321.0</ele><time>2026-05-02T12:11:30.314Z</time></trkpt><trkpt lat="46.0720865" lon="12.1159344"><ele>321.0</ele><time>2026-05-02T12:11:33.314Z</time></trkpt><trkpt lat="46.0720373" lon="12.1158316"><ele>321.0</ele><time>2026-05-02T12:11:36.314Z</time></trkpt><trkpt lat="46.0719959" lon="12.1157572"><ele>321.0</ele><time>2026-05-02T12:11:38.307Z</time></trkpt><trkpt lat="46.0719436" lon="12.1156677"><ele>321.0</ele><time>2026-05-02T12:11:41.304Z</time></trkpt><trkpt lat="46.0720044" lon="12.1156294"><ele>321.1428571428571</ele><time>2026-05-02T12:11:48.314Z</time></trkpt><trkpt lat="46.0720744" lon="12.115616"><ele>321.2857142857143</ele><time>2026-05-02T12:11:51.314Z</time></trkpt><trkpt lat="46.0721411" lon="12.1156142"><ele>321.42857142857144</ele><time>2026-05-02T12:11:55.308Z</time></trkpt><trkpt lat="46.0722147" lon="12.1156216"><ele>321.57142857142856</ele><time>2026-05-02T12:12:04.312Z</time></trkpt><trkpt lat="46.0722806" lon="12.115613"><ele>321.7142857142857</ele><time>2026-05-02T12:12:07.317Z</time></trkpt><trkpt lat="46.0723609" lon="12.1156072"><ele>321.85714285714283</ele><time>2026-05-02T12:12:10.314Z</time></trkpt><trkpt lat="46.0724304" lon="12.1156075"><ele>322.0</ele><time>2026-05-02T12:12:12.314Z</time></trkpt><trkpt lat="46.0725042" lon="12.1156295"><ele>322.5</ele><time>2026-05-02T12:12:14.307Z</time></trkpt><trkpt lat="46.0725807" lon="12.1156636"><ele>323.0</ele><time>2026-05-02T12:12:16.303Z</time></trkpt><trkpt lat="46.0726619" lon="12.1156986"><ele>323.5</ele><time>2026-05-02T12:12:18.314Z</time></trkpt><trkpt lat="46.0727488" lon="12.1157105"><ele>324.0</ele><time>2026-05-02T12:12:20.314Z</time></trkpt><trkpt lat="46.072837" lon="12.11568"><ele>324.5</ele><time>2026-05-02T12:12:22.31Z</time></trkpt><trkpt lat="46.0729247" lon="12.1156262"><ele>325.0</ele><time>2026-05-02T12:12:24.311Z</time></trkpt><trkpt lat="46.0730117" lon="12.1155649"><ele>325.0</ele><time>2026-05-02T12:12:26.305Z</time></trkpt><trkpt lat="46.0731013" lon="12.1154953"><ele>325.0</ele><time>2026-05-02T12:12:28.314Z</time></trkpt><trkpt lat="46.0731897" lon="12.1154341"><ele>325.0</ele><time>2026-05-02T12:12:30.309Z</time></trkpt><trkpt lat="46.0732903" lon="12.1153922"><ele>325.0</ele><time>2026-05-02T12:12:32.307Z</time></trkpt><trkpt lat="46.0733901" lon="12.1153525"><ele>325.0</ele><time>2026-05-02T12:12:34.307Z</time></trkpt><trkpt lat="46.0734944" lon="12.1153091"><ele>324.4</ele><time>2026-05-02T12:12:36.314Z</time></trkpt><trkpt lat="46.0735882" lon="12.1152526"><ele>323.8</ele><time>2026-05-02T12:12:38.308Z</time></trkpt><trkpt lat="46.073688" lon="12.1151863"><ele>323.20000000000005</ele><time>2026-05-02T12:12:40.305Z</time></trkpt><trkpt lat="46.0737837" lon="12.1151157"><ele>322.6</ele><time>2026-05-02T12:12:42.314Z</time></trkpt><trkpt lat="46.0738818" lon="12.1150728"><ele>322.0</ele><time>2026-05-02T12:12:44.313Z</time></trkpt><trkpt lat="46.0739843" lon="12.1150448"><ele>322.0</ele><time>2026-05-02T12:12:46.309Z</time></trkpt><trkpt lat="46.0740743" lon="12.1149864"><ele>322.0</ele><time>2026-05-02T12:12:48.315Z</time></trkpt><trkpt lat="46.0741276" lon="12.1148645"><ele>322.0</ele><time>2026-05-02T12:12:50.306Z</time></trkpt><trkpt lat="46.0741454" lon="12.114727"><ele>322.0</ele><time>2026-05-02T12:12:52.304Z</time></trkpt><trkpt lat="46.0741501" lon="12.1145983"><ele>322.0</ele><time>2026-05-02T12:12:54.307Z</time></trkpt><trkpt lat="46.0741508" lon="12.1144637"><ele>321.8</ele><time>2026-05-02T12:12:56.316Z</time></trkpt><trkpt lat="46.0741256" lon="12.1143311"><ele>321.6</ele><time>2026-05-02T12:12:58.312Z</time></trkpt><trkpt lat="46.0740877" lon="12.1142026"><ele>321.40000000000003</ele><time>2026-05-02T12:13:00.314Z</time></trkpt><trkpt lat="46.074053" lon="12.1140806"><ele>321.20000000000005</ele><time>2026-05-02T12:13:02.306Z</time></trkpt><trkpt lat="46.0740125" lon="12.1139706"><ele>321.0</ele><time>2026-05-02T12:13:04.306Z</time></trkpt><trkpt lat="46.073969" lon="12.1138526"><ele>322.0</ele><time>2026-05-02T12:13:06.313Z</time></trkpt><trkpt lat="46.0739316" lon="12.1137491"><ele>323.0</ele><time>2026-05-02T12:13:08.312Z</time></trkpt><trkpt lat="46.0739018" lon="12.1136686"><ele>324.0</ele><time>2026-05-02T12:13:10.311Z</time></trkpt><trkpt lat="46.0738668" lon="12.1135675"><ele>325.0</ele><time>2026-05-02T12:13:13.316Z</time></trkpt><trkpt lat="46.0739176" lon="12.1136325"><ele>326.0</ele><time>2026-05-02T12:13:20.306Z</time></trkpt><trkpt lat="46.0739594" lon="12.1137414"><ele>327.0</ele><time>2026-05-02T12:13:22.305Z</time></trkpt><trkpt lat="46.0740338" lon="12.1138193"><ele>326.40000000000003</ele><time>2026-05-02T12:13:24.323Z</time></trkpt><trkpt lat="46.0741245" lon="12.1138564"><ele>325.8</ele><time>2026-05-02T12:13:26.307Z</time></trkpt><trkpt lat="46.0742203" lon="12.113869"><ele>325.2</ele><time>2026-05-02T12:13:28.314Z</time></trkpt><trkpt lat="46.0743114" lon="12.1138789"><ele>324.6</ele><time>2026-05-02T12:13:30.314Z</time></trkpt><trkpt lat="46.0743985" lon="12.1139125"><ele>324.0</ele><time>2026-05-02T12:13:32.318Z</time></trkpt><trkpt lat="46.0744891" lon="12.1139619"><ele>324.0</ele><time>2026-05-02T12:13:34.304Z</time></trkpt><trkpt lat="46.074581" lon="12.1140182"><ele>324.0</ele><time>2026-05-02T12:13:36.313Z</time></trkpt><trkpt lat="46.0746714" lon="12.1140629"><ele>324.0</ele><time>2026-05-02T12:13:38.315Z</time></trkpt><trkpt lat="46.0747602" lon="12.1141135"><ele>324.0</ele><time>2026-05-02T12:13:40.315Z</time></trkpt><trkpt lat="46.074844" lon="12.1141601"><ele>324.0</ele><time>2026-05-02T12:13:42.309Z</time></trkpt><trkpt lat="46.0749322" lon="12.1142138"><ele>323.6</ele><time>2026-05-02T12:13:44.312Z</time></trkpt><trkpt lat="46.0750119" lon="12.1142695"><ele>323.2</ele><time>2026-05-02T12:13:46.314Z</time></trkpt><trkpt lat="46.0750948" lon="12.1143287"><ele>322.8</ele><time>2026-05-02T12:13:48.314Z</time></trkpt><trkpt lat="46.0751881" lon="12.1143815"><ele>322.40000000000003</ele><time>2026-05-02T12:13:50.309Z</time></trkpt><trkpt lat="46.0752911" lon="12.1143768"><ele>322.0</ele><time>2026-05-02T12:13:52.307Z</time></trkpt><trkpt lat="46.0753893" lon="12.1143706"><ele>322.0</ele><time>2026-05-02T12:13:54.306Z</time></trkpt><trkpt lat="46.075475" lon="12.114353"><ele>322.0</ele><time>2026-05-02T12:13:56.316Z</time></trkpt><trkpt lat="46.075548" lon="12.1143391"><ele>322.0</ele><time>2026-05-02T12:13:58.31Z</time></trkpt><trkpt lat="46.0756151" lon="12.1143238"><ele>322.0</ele><time>2026-05-02T12:14:00.313Z</time></trkpt><trkpt lat="46.0757007" lon="12.1142833"><ele>322.0</ele><time>2026-05-02T12:14:03.313Z</time></trkpt><trkpt lat="46.0757725" lon="12.1142302"><ele>322.0</ele><time>2026-05-02T12:14:06.308Z</time></trkpt><trkpt lat="46.0758415" lon="12.1141764"><ele>322.66666666666663</ele><time>2026-05-02T12:14:09.314Z</time></trkpt><trkpt lat="46.0759071" lon="12.1141244"><ele>323.3333333333333</ele><time>2026-05-02T12:14:12.314Z</time></trkpt><trkpt lat="46.0759896" lon="12.1141144"><ele>324.0</ele><time>2026-05-02T12:14:15.314Z</time></trkpt><trkpt lat="46.0760799" lon="12.1141232"><ele>324.6666666666667</ele><time>2026-05-02T12:14:17.319Z</time></trkpt><trkpt lat="46.0762029" lon="12.1141804"><ele>325.33333333333337</ele><time>2026-05-02T12:14:19.313Z</time></trkpt><trkpt lat="46.0762605" lon="12.1142374"><ele>326.0</ele><time>2026-05-02T12:14:20.314Z</time></trkpt><trkpt lat="46.076321" lon="12.1142891"><ele>326.0</ele><time>2026-05-02T12:14:21.305Z</time></trkpt><trkpt lat="46.076382" lon="12.1143238"><ele>326.0</ele><time>2026-05-02T12:14:22.312Z</time></trkpt><trkpt lat="46.0764715" lon="12.1144037"><ele>326.0</ele><time>2026-05-02T12:14:24.311Z</time></trkpt><trkpt lat="46.0765243" lon="12.1144673"><ele>326.0</ele><time>2026-05-02T12:14:26.304Z</time></trkpt><trkpt lat="46.076604" lon="12.1145098"><ele>326.0</ele><time>2026-05-02T12:14:29.307Z</time></trkpt><trkpt lat="46.0766746" lon="12.1144981"><ele>326.0</ele><time>2026-05-02T12:14:32.305Z</time></trkpt><trkpt lat="46.0767497" lon="12.1145227"><ele>326.14285714285717</ele><time>2026-05-02T12:14:35.306Z</time></trkpt><trkpt lat="46.07682" lon="12.1145335"><ele>326.2857142857143</ele><time>2026-05-02T12:14:38.306Z</time></trkpt><trkpt lat="46.0768712" lon="12.1146017"><ele>326.42857142857144</ele><time>2026-05-02T12:14:41.314Z</time></trkpt><trkpt lat="46.0769147" lon="12.1146836"><ele>326.57142857142856</ele><time>2026-05-02T12:14:44.313Z</time></trkpt><trkpt lat="46.0769538" lon="12.1147577"><ele>326.7142857142857</ele><time>2026-05-02T12:14:47.312Z</time></trkpt><trkpt lat="46.076992" lon="12.1148386"><ele>326.85714285714283</ele><time>2026-05-02T12:14:50.313Z</time></trkpt><trkpt lat="46.0770397" lon="12.1149362"><ele>327.0</ele><time>2026-05-02T12:14:53.309Z</time></trkpt><trkpt lat="46.0770927" lon="12.1150277"><ele>327.0</ele><time>2026-05-02T12:14:56.316Z</time></trkpt><trkpt lat="46.0771554" lon="12.1150885"><ele>327.0</ele><time>2026-05-02T12:14:59.314Z</time></trkpt><trkpt lat="46.0772258" lon="12.1151703"><ele>327.0</ele><time>2026-05-02T12:15:02.314Z</time></trkpt><trkpt lat="46.0773161" lon="12.1151837"><ele>327.0</ele><time>2026-05-02T12:15:05.318Z</time></trkpt><trkpt lat="46.0773807" lon="12.1151763"><ele>327.0</ele><time>2026-05-02T12:15:07.313Z</time></trkpt><trkpt lat="46.077446" lon="12.1151736"><ele>327.0</ele><time>2026-05-02T12:15:09.315Z</time></trkpt><trkpt lat="46.0775194" lon="12.1151567"><ele>328.0</ele><time>2026-05-02T12:15:11.314Z</time></trkpt><trkpt lat="46.0775959" lon="12.1151519"><ele>329.0</ele><time>2026-05-02T12:15:13.317Z</time></trkpt><trkpt lat="46.0776655" lon="12.1151352"><ele>330.0</ele><time>2026-05-02T12:15:15.307Z</time></trkpt><trkpt lat="46.0777205" lon="12.1150859"><ele>331.0</ele><time>2026-05-02T12:15:17.327Z</time></trkpt><trkpt lat="46.0777835" lon="12.1150355"><ele>332.0</ele><time>2026-05-02T12:15:19.306Z</time></trkpt><trkpt lat="46.0778575" lon="12.1149735"><ele>333.0</ele><time>2026-05-02T12:15:21.311Z</time></trkpt><trkpt lat="46.0779461" lon="12.1149083"><ele>333.4</ele><time>2026-05-02T12:15:23.308Z</time></trkpt><trkpt lat="46.0780366" lon="12.1148332"><ele>333.79999999999995</ele><time>2026-05-02T12:15:25.313Z</time></trkpt><trkpt lat="46.0781256" lon="12.1147564"><ele>334.2</ele><time>2026-05-02T12:15:27.324Z</time></trkpt><trkpt lat="46.0782031" lon="12.1146756"><ele>334.6</ele><time>2026-05-02T12:15:29.306Z</time></trkpt><trkpt lat="46.0782588" lon="12.1145952"><ele>335.0</ele><time>2026-05-02T12:15:31.306Z</time></trkpt><trkpt lat="46.0783403" lon="12.1146101"><ele>334.99999999999994</ele><time>2026-05-02T12:15:35.312Z</time></trkpt><trkpt lat="46.0783148" lon="12.1145223"><ele>335.0</ele><time>2026-05-02T12:15:43.304Z</time></trkpt><trkpt lat="46.0783482" lon="12.1144406"><ele>335.0</ele><time>2026-05-02T12:15:45.305Z</time></trkpt><trkpt lat="46.0784004" lon="12.1143734"><ele>335.0</ele><time>2026-05-02T12:15:47.313Z</time></trkpt><trkpt lat="46.0784513" lon="12.1143009"><ele>335.0</ele><time>2026-05-02T12:15:49.316Z</time></trkpt><trkpt lat="46.0784973" lon="12.1142225"><ele>334.99999999999994</ele><time>2026-05-02T12:15:51.314Z</time></trkpt><trkpt lat="46.0785316" lon="12.1141366"><ele>335.0</ele><time>2026-05-02T12:15:53.313Z</time></trkpt><trkpt lat="46.0785485" lon="12.1140456"><ele>334.99999999999994</ele><time>2026-05-02T12:15:55.312Z</time></trkpt><trkpt lat="46.0785682" lon="12.1139527"><ele>335.0</ele><time>2026-05-02T12:15:57.316Z</time></trkpt><trkpt lat="46.0785906" lon="12.1138589"><ele>335.0</ele><time>2026-05-02T12:15:59.303Z</time></trkpt><trkpt lat="46.0786282" lon="12.1137777"><ele>335.0</ele><time>2026-05-02T12:16:01.31Z</time></trkpt><trkpt lat="46.0786799" lon="12.1137063"><ele>335.0</ele><time>2026-05-02T12:16:03.314Z</time></trkpt><trkpt lat="46.0787269" lon="12.1136233"><ele>334.99999999999994</ele><time>2026-05-02T12:16:05.306Z</time></trkpt><trkpt lat="46.0787718" lon="12.1135359"><ele>335.0</ele><time>2026-05-02T12:16:07.323Z</time></trkpt><trkpt lat="46.0788216" lon="12.1134449"><ele>335.0</ele><time>2026-05-02T12:16:09.306Z</time></trkpt><trkpt lat="46.0788702" lon="12.1133453"><ele>335.0</ele><time>2026-05-02T12:16:11.314Z</time></trkpt><trkpt lat="46.0789193" lon="12.1132469"><ele>335.0</ele><time>2026-05-02T12:16:13.313Z</time></trkpt><trkpt lat="46.0789647" lon="12.1131499"><ele>335.0</ele><time>2026-05-02T12:16:15.426Z</time></trkpt><trkpt lat="46.0790082" lon="12.1130421"><ele>335.0</ele><time>2026-05-02T12:16:17.324Z</time></trkpt><trkpt lat="46.0790447" lon="12.11293"><ele>335.0</ele><time>2026-05-02T12:16:19.309Z</time></trkpt><trkpt lat="46.0790623" lon="12.1128025"><ele>335.0</ele><time>2026-05-02T12:16:21.315Z</time></trkpt><trkpt lat="46.0790735" lon="12.1126711"><ele>335.0</ele><time>2026-05-02T12:16:23.309Z</time></trkpt><trkpt lat="46.0790914" lon="12.1125531"><ele>335.0</ele><time>2026-05-02T12:16:25.311Z</time></trkpt><trkpt lat="46.0791019" lon="12.1124261"><ele>335.0</ele><time>2026-05-02T12:16:27.314Z</time></trkpt><trkpt lat="46.0791023" lon="12.1123057"><ele>335.0</ele><time>2026-05-02T12:16:29.306Z</time></trkpt><trkpt lat="46.0790932" lon="12.1121799"><ele>335.0</ele><time>2026-05-02T12:16:31.307Z</time></trkpt><trkpt lat="46.0790822" lon="12.1120481"><ele>335.5</ele><time>2026-05-02T12:16:33.313Z</time></trkpt><trkpt lat="46.0790711" lon="12.1119206"><ele>336.0</ele><time>2026-05-02T12:16:35.306Z</time></trkpt><trkpt lat="46.0790599" lon="12.1117948"><ele>336.5</ele><time>2026-05-02T12:16:37.32Z</time></trkpt><trkpt lat="46.0790403" lon="12.1116633"><ele>337.0</ele><time>2026-05-02T12:16:39.309Z</time></trkpt><trkpt lat="46.0790255" lon="12.1115464"><ele>337.5</ele><time>2026-05-02T12:16:41.315Z</time></trkpt><trkpt lat="46.0790368" lon="12.1114179"><ele>338.0</ele><time>2026-05-02T12:16:43.316Z</time></trkpt><trkpt lat="46.0790305" lon="12.1112857"><ele>338.0</ele><time>2026-05-02T12:16:45.315Z</time></trkpt><trkpt lat="46.0790223" lon="12.1111388"><ele>338.0</ele><time>2026-05-02T12:16:47.326Z</time></trkpt><trkpt lat="46.0790197" lon="12.1110071"><ele>338.0</ele><time>2026-05-02T12:16:49.314Z</time></trkpt><trkpt lat="46.0790212" lon="12.1109067"><ele>338.0</ele><time>2026-05-02T12:16:51.314Z</time></trkpt><trkpt lat="46.0790116" lon="12.1107793"><ele>338.0</ele><time>2026-05-02T12:16:53.305Z</time></trkpt><trkpt lat="46.0790073" lon="12.110644"><ele>338.0</ele><time>2026-05-02T12:16:55.314Z</time></trkpt><trkpt lat="46.079006" lon="12.1105167"><ele>337.59999999999997</ele><time>2026-05-02T12:16:57.326Z</time></trkpt><trkpt lat="46.0790094" lon="12.1103795"><ele>337.2</ele><time>2026-05-02T12:16:59.311Z</time></trkpt><trkpt lat="46.0790112" lon="12.1102359"><ele>336.8</ele><time>2026-05-02T12:17:01.307Z</time></trkpt><trkpt lat="46.0790092" lon="12.1100673"><ele>336.4</ele><time>2026-05-02T12:17:03.313Z</time></trkpt><trkpt lat="46.0790254" lon="12.109889"><ele>336.0</ele><time>2026-05-02T12:17:05.306Z</time></trkpt><trkpt lat="46.0790574" lon="12.1097965"><ele>335.3333333333333</ele><time>2026-05-02T12:17:06.315Z</time></trkpt><trkpt lat="46.0791003" lon="12.1097101"><ele>334.6666666666667</ele><time>2026-05-02T12:17:07.323Z</time></trkpt><trkpt lat="46.079145" lon="12.1096159"><ele>334.0</ele><time>2026-05-02T12:17:08.307Z</time></trkpt><trkpt lat="46.0791866" lon="12.10952"><ele>333.33333333333337</ele><time>2026-05-02T12:17:09.312Z</time></trkpt><trkpt lat="46.0792279" lon="12.1094284"><ele>332.6666666666667</ele><time>2026-05-02T12:17:10.314Z</time></trkpt><trkpt lat="46.0792703" lon="12.10934"><ele>332.0</ele><time>2026-05-02T12:17:11.313Z</time></trkpt><trkpt lat="46.0793099" lon="12.1092525"><ele>331.40000000000003</ele><time>2026-05-02T12:17:12.313Z</time></trkpt><trkpt lat="46.0793452" lon="12.1091684"><ele>330.8</ele><time>2026-05-02T12:17:13.304Z</time></trkpt><trkpt lat="46.0793752" lon="12.1090819"><ele>330.2</ele><time>2026-05-02T12:17:14.314Z</time></trkpt><trkpt lat="46.0794373" lon="12.1089406"><ele>329.6</ele><time>2026-05-02T12:17:16.303Z</time></trkpt><trkpt lat="46.0795044" lon="12.1088154"><ele>329.0</ele><time>2026-05-02T12:17:18.313Z</time></trkpt><trkpt lat="46.0795226" lon="12.1086563"><ele>329.0</ele><time>2026-05-02T12:17:20.307Z</time></trkpt><trkpt lat="46.079518" lon="12.1085177"><ele>329.0</ele><time>2026-05-02T12:17:22.306Z</time></trkpt><trkpt lat="46.0794988" lon="12.1083717"><ele>329.0</ele><time>2026-05-02T12:17:24.313Z</time></trkpt><trkpt lat="46.0794626" lon="12.1082301"><ele>329.0</ele><time>2026-05-02T12:17:26.305Z</time></trkpt><trkpt lat="46.0794335" lon="12.1080841"><ele>329.0</ele><time>2026-05-02T12:17:28.312Z</time></trkpt><trkpt lat="46.0794167" lon="12.1079329"><ele>329.4</ele><time>2026-05-02T12:17:30.308Z</time></trkpt><trkpt lat="46.0794178" lon="12.1077866"><ele>329.79999999999995</ele><time>2026-05-02T12:17:32.313Z</time></trkpt><trkpt lat="46.0794388" lon="12.1076453"><ele>330.20000000000005</ele><time>2026-05-02T12:17:34.313Z</time></trkpt><trkpt lat="46.0794583" lon="12.1075012"><ele>330.6</ele><time>2026-05-02T12:17:36.307Z</time></trkpt><trkpt lat="46.0794827" lon="12.1073626"><ele>331.0</ele><time>2026-05-02T12:17:38.308Z</time></trkpt><trkpt lat="46.0794801" lon="12.1072069"><ele>331.4</ele><time>2026-05-02T12:17:40.31Z</time></trkpt><trkpt lat="46.0794716" lon="12.1070641"><ele>331.8</ele><time>2026-05-02T12:17:42.313Z</time></trkpt><trkpt lat="46.079441" lon="12.1069193"><ele>332.2</ele><time>2026-05-02T12:17:44.313Z</time></trkpt><trkpt lat="46.0794046" lon="12.1067812"><ele>332.59999999999997</ele><time>2026-05-02T12:17:46.306Z</time></trkpt><trkpt lat="46.0793687" lon="12.1066417"><ele>333.0</ele><time>2026-05-02T12:17:48.306Z</time></trkpt><trkpt lat="46.0793389" lon="12.1064993"><ele>333.59999999999997</ele><time>2026-05-02T12:17:50.313Z</time></trkpt><trkpt lat="46.0793191" lon="12.106353"><ele>334.2</ele><time>2026-05-02T12:17:52.313Z</time></trkpt><trkpt lat="46.0792917" lon="12.1062126"><ele>334.8</ele><time>2026-05-02T12:17:54.315Z</time></trkpt><trkpt lat="46.0792641" lon="12.1060729"><ele>335.4</ele><time>2026-05-02T12:17:56.32Z</time></trkpt><trkpt lat="46.0792482" lon="12.10595"><ele>336.0</ele><time>2026-05-02T12:17:58.312Z</time></trkpt><trkpt lat="46.0792313" lon="12.1058336"><ele>335.8333333333333</ele><time>2026-05-02T12:18:00.31Z</time></trkpt><trkpt lat="46.0792095" lon="12.1057364"><ele>335.6666666666667</ele><time>2026-05-02T12:18:02.305Z</time></trkpt><trkpt lat="46.0791852" lon="12.1056399"><ele>335.5</ele><time>2026-05-02T12:18:04.314Z</time></trkpt><trkpt lat="46.079157" lon="12.1055373"><ele>335.33333333333337</ele><time>2026-05-02T12:18:06.315Z</time></trkpt><trkpt lat="46.0791228" lon="12.1054209"><ele>335.1666666666667</ele><time>2026-05-02T12:18:08.314Z</time></trkpt><trkpt lat="46.0790983" lon="12.1053033"><ele>335.0</ele><time>2026-05-02T12:18:10.312Z</time></trkpt><trkpt lat="46.0790741" lon="12.1051848"><ele>335.0</ele><time>2026-05-02T12:18:12.305Z</time></trkpt><trkpt lat="46.0790371" lon="12.1050775"><ele>335.0</ele><time>2026-05-02T12:18:14.313Z</time></trkpt><trkpt lat="46.0789908" lon="12.1049778"><ele>335.0</ele><time>2026-05-02T12:18:16.316Z</time></trkpt><trkpt lat="46.0789505" lon="12.104874"><ele>335.0</ele><time>2026-05-02T12:18:18.306Z</time></trkpt><trkpt lat="46.0789097" lon="12.1047723"><ele>335.0</ele><time>2026-05-02T12:18:20.314Z</time></trkpt><trkpt lat="46.0788724" lon="12.1046664"><ele>335.0</ele><time>2026-05-02T12:18:22.314Z</time></trkpt><trkpt lat="46.0788383" lon="12.1045611"><ele>335.33333333333337</ele><time>2026-05-02T12:18:24.311Z</time></trkpt><trkpt lat="46.0788031" lon="12.1044592"><ele>335.6666666666667</ele><time>2026-05-02T12:18:26.308Z</time></trkpt><trkpt lat="46.0787648" lon="12.1043651"><ele>336.0</ele><time>2026-05-02T12:18:28.306Z</time></trkpt><trkpt lat="46.0787175" lon="12.1042741"><ele>336.3333333333333</ele><time>2026-05-02T12:18:30.304Z</time></trkpt><trkpt lat="46.0786646" lon="12.1041809"><ele>336.66666666666663</ele><time>2026-05-02T12:18:32.314Z</time></trkpt><trkpt lat="46.0786289" lon="12.1040921"><ele>337.0</ele><time>2026-05-02T12:18:34.313Z</time></trkpt><trkpt lat="46.0786401" lon="12.1039951"><ele>337.16666666666663</ele><time>2026-05-02T12:18:36.308Z</time></trkpt><trkpt lat="46.0786895" lon="12.1039322"><ele>337.3333333333333</ele><time>2026-05-02T12:18:38.305Z</time></trkpt><trkpt lat="46.0787713" lon="12.1038889"><ele>337.5</ele><time>2026-05-02T12:18:40.303Z</time></trkpt><trkpt lat="46.078857" lon="12.1038517"><ele>337.6666666666667</ele><time>2026-05-02T12:18:42.312Z</time></trkpt><trkpt lat="46.0789412" lon="12.1038153"><ele>337.83333333333337</ele><time>2026-05-02T12:18:44.306Z</time></trkpt><trkpt lat="46.0790243" lon="12.1037779"><ele>338.0</ele><time>2026-05-02T12:18:46.315Z</time></trkpt><trkpt lat="46.0791062" lon="12.1037442"><ele>338.2</ele><time>2026-05-02T12:18:48.315Z</time></trkpt><trkpt lat="46.0791873" lon="12.1037114"><ele>338.4</ele><time>2026-05-02T12:18:50.313Z</time></trkpt><trkpt lat="46.0792707" lon="12.1036414"><ele>338.59999999999997</ele><time>2026-05-02T12:18:52.304Z</time></trkpt><trkpt lat="46.079324" lon="12.1035265"><ele>338.79999999999995</ele><time>2026-05-02T12:18:54.313Z</time></trkpt><trkpt lat="46.0793797" lon="12.1033975"><ele>339.0</ele><time>2026-05-02T12:18:56.306Z</time></trkpt><trkpt lat="46.0794322" lon="12.1032532"><ele>338.75</ele><time>2026-05-02T12:18:58.313Z</time></trkpt><trkpt lat="46.0794962" lon="12.1031193"><ele>338.5</ele><time>2026-05-02T12:19:00.3Z</time></trkpt><trkpt lat="46.0795366" lon="12.1029578"><ele>338.25</ele><time>2026-05-02T12:19:02.315Z</time></trkpt><trkpt lat="46.0795342" lon="12.1027909"><ele>338.0</ele><time>2026-05-02T12:19:04.313Z</time></trkpt><trkpt lat="46.0794845" lon="12.1026495"><ele>338.0</ele><time>2026-05-02T12:19:06.303Z</time></trkpt><trkpt lat="46.0794259" lon="12.102515"><ele>338.0</ele><time>2026-05-02T12:19:08.303Z</time></trkpt><trkpt lat="46.0793712" lon="12.1023763"><ele>338.0</ele><time>2026-05-02T12:19:10.314Z</time></trkpt><trkpt lat="46.0793312" lon="12.1022227"><ele>338.0</ele><time>2026-05-02T12:19:12.313Z</time></trkpt><trkpt lat="46.0793009" lon="12.102065"><ele>338.0</ele><time>2026-05-02T12:19:14.306Z</time></trkpt><trkpt lat="46.0792723" lon="12.1019121"><ele>338.0</ele><time>2026-05-02T12:19:16.312Z</time></trkpt><trkpt lat="46.0792477" lon="12.1017716"><ele>338.0</ele><time>2026-05-02T12:19:18.313Z</time></trkpt><trkpt lat="46.0792305" lon="12.1016376"><ele>338.0</ele><time>2026-05-02T12:19:20.313Z</time></trkpt><trkpt lat="46.079197" lon="12.1014267"><ele>338.0</ele><time>2026-05-02T12:19:23.313Z</time></trkpt><trkpt lat="46.0791786" lon="12.1012958"><ele>338.0</ele><time>2026-05-02T12:19:25.312Z</time></trkpt><trkpt lat="46.0791616" lon="12.1011643"><ele>338.0</ele><time>2026-05-02T12:19:27.305Z</time></trkpt><trkpt lat="46.0791464" lon="12.1010217"><ele>338.0</ele><time>2026-05-02T12:19:29.31Z</time></trkpt><trkpt lat="46.0791292" lon="12.1008851"><ele>338.0</ele><time>2026-05-02T12:19:31.305Z</time></trkpt><trkpt lat="46.0791127" lon="12.10073"><ele>338.0</ele><time>2026-05-02T12:19:33.312Z</time></trkpt><trkpt lat="46.0791032" lon="12.1005497"><ele>338.0</ele><time>2026-05-02T12:19:35.311Z</time></trkpt><trkpt lat="46.0790953" lon="12.1003789"><ele>338.4</ele><time>2026-05-02T12:19:37.312Z</time></trkpt><trkpt lat="46.0790904" lon="12.1002015"><ele>338.79999999999995</ele><time>2026-05-02T12:19:39.305Z</time></trkpt><trkpt lat="46.0790921" lon="12.1000293"><ele>339.2</ele><time>2026-05-02T12:19:41.312Z</time></trkpt><trkpt lat="46.0790882" lon="12.0999315"><ele>339.6</ele><time>2026-05-02T12:19:42.31Z</time></trkpt><trkpt lat="46.079094" lon="12.0998399"><ele>340.0</ele><time>2026-05-02T12:19:43.303Z</time></trkpt><trkpt lat="46.0790874" lon="12.0996629"><ele>339.0</ele><time>2026-05-02T12:19:45.313Z</time></trkpt><trkpt lat="46.0790626" lon="12.0994756"><ele>338.0</ele><time>2026-05-02T12:19:47.312Z</time></trkpt><trkpt lat="46.0790501" lon="12.0992864"><ele>337.0</ele><time>2026-05-02T12:19:49.312Z</time></trkpt><trkpt lat="46.0790312" lon="12.0991169"><ele>336.0</ele><time>2026-05-02T12:19:51.313Z</time></trkpt><trkpt lat="46.0789997" lon="12.098942"><ele>336.0</ele><time>2026-05-02T12:19:53.32Z</time></trkpt><trkpt lat="46.0789899" lon="12.0988496"><ele>336.0</ele><time>2026-05-02T12:19:54.315Z</time></trkpt><trkpt lat="46.0789743" lon="12.0987411"><ele>336.0</ele><time>2026-05-02T12:19:55.311Z</time></trkpt><trkpt lat="46.0789348" lon="12.0985706"><ele>336.0</ele><time>2026-05-02T12:19:57.316Z</time></trkpt><trkpt lat="46.0788702" lon="12.0984224"><ele>336.0</ele><time>2026-05-02T12:19:59.318Z</time></trkpt><trkpt lat="46.0788196" lon="12.0983605"><ele>335.6666666666667</ele><time>2026-05-02T12:20:00.305Z</time></trkpt><trkpt lat="46.0787449" lon="12.0982054"><ele>335.3333333333333</ele><time>2026-05-02T12:20:02.312Z</time></trkpt><trkpt lat="46.0787032" lon="12.0981324"><ele>335.0</ele><time>2026-05-02T12:20:03.312Z</time></trkpt><trkpt lat="46.0786657" lon="12.0980549"><ele>334.66666666666663</ele><time>2026-05-02T12:20:04.312Z</time></trkpt><trkpt lat="46.0786181" lon="12.0979693"><ele>334.3333333333333</ele><time>2026-05-02T12:20:05.312Z</time></trkpt><trkpt lat="46.0785763" lon="12.0978814"><ele>334.0</ele><time>2026-05-02T12:20:06.313Z</time></trkpt><trkpt lat="46.0785439" lon="12.0977865"><ele>334.0</ele><time>2026-05-02T12:20:07.314Z</time></trkpt><trkpt lat="46.0785072" lon="12.0976874"><ele>334.0</ele><time>2026-05-02T12:20:08.313Z</time></trkpt><trkpt lat="46.0784759" lon="12.0975806"><ele>334.0</ele><time>2026-05-02T12:20:09.312Z</time></trkpt><trkpt lat="46.0784474" lon="12.0974703"><ele>334.0</ele><time>2026-05-02T12:20:10.312Z</time></trkpt><trkpt lat="46.0784236" lon="12.0973624"><ele>334.0</ele><time>2026-05-02T12:20:11.309Z</time></trkpt><trkpt lat="46.0783996" lon="12.0972447"><ele>334.0</ele><time>2026-05-02T12:20:12.313Z</time></trkpt><trkpt lat="46.0783757" lon="12.0971396"><ele>334.3333333333333</ele><time>2026-05-02T12:20:13.313Z</time></trkpt><trkpt lat="46.0783528" lon="12.0970506"><ele>334.66666666666663</ele><time>2026-05-02T12:20:14.313Z</time></trkpt><trkpt lat="46.0783274" lon="12.0969552"><ele>335.0</ele><time>2026-05-02T12:20:15.314Z</time></trkpt><trkpt lat="46.0782952" lon="12.096856"><ele>335.3333333333333</ele><time>2026-05-02T12:20:16.314Z</time></trkpt><trkpt lat="46.0782574" lon="12.0967575"><ele>335.6666666666667</ele><time>2026-05-02T12:20:17.313Z</time></trkpt><trkpt lat="46.0782149" lon="12.0966564"><ele>336.0</ele><time>2026-05-02T12:20:18.313Z</time></trkpt><trkpt lat="46.0781715" lon="12.0965512"><ele>335.1666666666667</ele><time>2026-05-02T12:20:19.308Z</time></trkpt><trkpt lat="46.0781298" lon="12.0964444"><ele>334.3333333333333</ele><time>2026-05-02T12:20:20.306Z</time></trkpt><trkpt lat="46.0780986" lon="12.0963578"><ele>333.5</ele><time>2026-05-02T12:20:21.305Z</time></trkpt><trkpt lat="46.0780701" lon="12.0962609"><ele>332.66666666666663</ele><time>2026-05-02T12:20:22.31Z</time></trkpt><trkpt lat="46.0780327" lon="12.096174"><ele>331.8333333333333</ele><time>2026-05-02T12:20:23.304Z</time></trkpt><trkpt lat="46.0779711" lon="12.096024"><ele>331.0</ele><time>2026-05-02T12:20:25.315Z</time></trkpt><trkpt lat="46.0778935" lon="12.0959269"><ele>331.0</ele><time>2026-05-02T12:20:27.312Z</time></trkpt><trkpt lat="46.0778693" lon="12.0958062"><ele>331.0</ele><time>2026-05-02T12:20:29.312Z</time></trkpt><trkpt lat="46.0778649" lon="12.0956736"><ele>331.0</ele><time>2026-05-02T12:20:31.309Z</time></trkpt><trkpt lat="46.0778678" lon="12.0955254"><ele>331.0</ele><time>2026-05-02T12:20:33.305Z</time></trkpt><trkpt lat="46.0778529" lon="12.095394"><ele>331.0</ele><time>2026-05-02T12:20:35.314Z</time></trkpt><trkpt lat="46.0778369" lon="12.0952372"><ele>330.16666666666663</ele><time>2026-05-02T12:20:37.312Z</time></trkpt><trkpt lat="46.0778175" lon="12.0950751"><ele>329.3333333333333</ele><time>2026-05-02T12:20:39.306Z</time></trkpt><trkpt lat="46.0778043" lon="12.0949833"><ele>328.5</ele><time>2026-05-02T12:20:40.313Z</time></trkpt><trkpt lat="46.0777922" lon="12.0948933"><ele>327.6666666666667</ele><time>2026-05-02T12:20:41.312Z</time></trkpt><trkpt lat="46.0777562" lon="12.0947984"><ele>326.83333333333337</ele><time>2026-05-02T12:20:42.31Z</time></trkpt><trkpt lat="46.0777301" lon="12.0947053"><ele>326.0</ele><time>2026-05-02T12:20:43.307Z</time></trkpt><trkpt lat="46.077699" lon="12.0946119"><ele>325.5714285714286</ele><time>2026-05-02T12:20:44.312Z</time></trkpt><trkpt lat="46.077673" lon="12.094505"><ele>325.1428571428571</ele><time>2026-05-02T12:20:45.312Z</time></trkpt><trkpt lat="46.0776575" lon="12.094399"><ele>324.7142857142857</ele><time>2026-05-02T12:20:46.312Z</time></trkpt><trkpt lat="46.0776386" lon="12.0943021"><ele>324.28571428571433</ele><time>2026-05-02T12:20:47.314Z</time></trkpt><trkpt lat="46.0776319" lon="12.0942091"><ele>323.8571428571429</ele><time>2026-05-02T12:20:48.313Z</time></trkpt><trkpt lat="46.0776087" lon="12.0940945"><ele>323.42857142857144</ele><time>2026-05-02T12:20:49.312Z</time></trkpt><trkpt lat="46.0775912" lon="12.0939978"><ele>323.0</ele><time>2026-05-02T12:20:50.312Z</time></trkpt><trkpt lat="46.0775677" lon="12.0938996"><ele>322.6666666666667</ele><time>2026-05-02T12:20:51.304Z</time></trkpt><trkpt lat="46.0775433" lon="12.0937935"><ele>322.33333333333337</ele><time>2026-05-02T12:20:52.313Z</time></trkpt><trkpt lat="46.0775143" lon="12.0936947"><ele>322.0</ele><time>2026-05-02T12:20:53.312Z</time></trkpt><trkpt lat="46.0774832" lon="12.0935812"><ele>321.6666666666667</ele><time>2026-05-02T12:20:55.305Z</time></trkpt><trkpt lat="46.0774426" lon="12.0934885"><ele>321.3333333333333</ele><time>2026-05-02T12:20:57.311Z</time></trkpt><trkpt lat="46.0774024" lon="12.0933754"><ele>321.0</ele><time>2026-05-02T12:20:59.313Z</time></trkpt><trkpt lat="46.0773957" lon="12.0932112"><ele>319.8</ele><time>2026-05-02T12:21:01.298Z</time></trkpt><trkpt lat="46.0774036" lon="12.0930296"><ele>318.6</ele><time>2026-05-02T12:21:03.312Z</time></trkpt><trkpt lat="46.0773911" lon="12.0929012"><ele>317.4</ele><time>2026-05-02T12:21:05.311Z</time></trkpt><trkpt lat="46.0772789" lon="12.0927772"><ele>316.2</ele><time>2026-05-02T12:21:07.339Z</time></trkpt><trkpt lat="46.0772305" lon="12.0927013"><ele>315.0</ele><time>2026-05-02T12:21:08.31Z</time></trkpt><trkpt lat="46.0771621" lon="12.0925698"><ele>315.0</ele><time>2026-05-02T12:21:10.312Z</time></trkpt><trkpt lat="46.0771696" lon="12.0924234"><ele>315.0</ele><time>2026-05-02T12:21:12.312Z</time></trkpt><trkpt lat="46.0772135" lon="12.0922864"><ele>315.0</ele><time>2026-05-02T12:21:14.313Z</time></trkpt><trkpt lat="46.0772172" lon="12.0921372"><ele>315.0</ele><time>2026-05-02T12:21:16.307Z</time></trkpt><trkpt lat="46.0771691" lon="12.0920622"><ele>315.0</ele><time>2026-05-02T12:21:17.311Z</time></trkpt><trkpt lat="46.0771023" lon="12.0919383"><ele>313.8333333333333</ele><time>2026-05-02T12:21:19.31Z</time></trkpt><trkpt lat="46.0770655" lon="12.0918372"><ele>312.6666666666667</ele><time>2026-05-02T12:21:21.318Z</time></trkpt><trkpt lat="46.0769983" lon="12.0917481"><ele>311.5</ele><time>2026-05-02T12:21:24.305Z</time></trkpt><trkpt lat="46.0769516" lon="12.0916823"><ele>310.33333333333337</ele><time>2026-05-02T12:21:26.31Z</time></trkpt><trkpt lat="46.076899" lon="12.0915707"><ele>309.1666666666667</ele><time>2026-05-02T12:21:29.308Z</time></trkpt><trkpt lat="46.0768778" lon="12.0914342"><ele>308.0</ele><time>2026-05-02T12:21:32.32Z</time></trkpt><trkpt lat="46.0768556" lon="12.0913461"><ele>306.7142857142857</ele><time>2026-05-02T12:21:34.305Z</time></trkpt><trkpt lat="46.076813" lon="12.0912337"><ele>305.42857142857144</ele><time>2026-05-02T12:21:36.312Z</time></trkpt><trkpt lat="46.0768049" lon="12.0911374"><ele>304.1428571428571</ele><time>2026-05-02T12:21:38.318Z</time></trkpt><trkpt lat="46.0768148" lon="12.091044"><ele>302.8571428571429</ele><time>2026-05-02T12:21:40.304Z</time></trkpt><trkpt lat="46.0767943" lon="12.0909405"><ele>301.57142857142856</ele><time>2026-05-02T12:21:45.312Z</time></trkpt><trkpt lat="46.0768058" lon="12.090847"><ele>300.2857142857143</ele><time>2026-05-02T12:21:51.311Z</time></trkpt><trkpt lat="46.0768153" lon="12.0907289"><ele>299.0</ele><time>2026-05-02T12:21:55.313Z</time></trkpt><trkpt lat="46.0768389" lon="12.0906418"><ele>296.83333333333337</ele><time>2026-05-02T12:21:57.308Z</time></trkpt><trkpt lat="46.0769028" lon="12.0905489"><ele>294.6666666666667</ele><time>2026-05-02T12:22:00.305Z</time></trkpt><trkpt lat="46.0769709" lon="12.0905412"><ele>292.5</ele><time>2026-05-02T12:22:02.302Z</time></trkpt><trkpt lat="46.0770335" lon="12.0905707"><ele>290.3333333333333</ele><time>2026-05-02T12:22:04.293Z</time></trkpt><trkpt lat="46.0771304" lon="12.0906122"><ele>288.16666666666663</ele><time>2026-05-02T12:22:06.296Z</time></trkpt><trkpt lat="46.0772208" lon="12.0906176"><ele>286.0</ele><time>2026-05-02T12:22:08.302Z</time></trkpt><trkpt lat="46.0773068" lon="12.0906687"><ele>286.0</ele><time>2026-05-02T12:22:10.309Z</time></trkpt><trkpt lat="46.0773577" lon="12.0906112"><ele>286.0</ele><time>2026-05-02T12:22:11.312Z</time></trkpt><trkpt lat="46.0773798" lon="12.0904789"><ele>286.0</ele><time>2026-05-02T12:22:14.312Z</time></trkpt><trkpt lat="46.07733" lon="12.0903797"><ele>286.0</ele><time>2026-05-02T12:22:16.3Z</time></trkpt><trkpt lat="46.0772561" lon="12.0903145"><ele>286.0</ele><time>2026-05-02T12:22:18.308Z</time></trkpt><trkpt lat="46.0771999" lon="12.0902605"><ele>286.0</ele><time>2026-05-02T12:22:20.312Z</time></trkpt><trkpt lat="46.0771253" lon="12.0902062"><ele>286.0</ele><time>2026-05-02T12:22:23.313Z</time></trkpt><trkpt lat="46.0770489" lon="12.090134"><ele>286.0</ele><time>2026-05-02T12:22:26.307Z</time></trkpt><trkpt lat="46.0769795" lon="12.0900481"><ele>286.0</ele><time>2026-05-02T12:22:29.311Z</time></trkpt><trkpt lat="46.0769296" lon="12.0899792"><ele>286.0</ele><time>2026-05-02T12:22:31.311Z</time></trkpt><trkpt lat="46.076865" lon="12.0899143"><ele>286.0</ele><time>2026-05-02T12:22:33.317Z</time></trkpt><trkpt lat="46.076798" lon="12.0898566"><ele>286.0</ele><time>2026-05-02T12:22:35.309Z</time></trkpt><trkpt lat="46.0767224" lon="12.0897901"><ele>286.0</ele><time>2026-05-02T12:22:37.317Z</time></trkpt><trkpt lat="46.076642" lon="12.0897445"><ele>286.0</ele><time>2026-05-02T12:22:39.311Z</time></trkpt><trkpt lat="46.0765581" lon="12.0896873"><ele>286.0</ele><time>2026-05-02T12:22:41.312Z</time></trkpt><trkpt lat="46.0764757" lon="12.0896226"><ele>286.0</ele><time>2026-05-02T12:22:43.307Z</time></trkpt><trkpt lat="46.0763879" lon="12.0895747"><ele>286.0</ele><time>2026-05-02T12:22:45.309Z</time></trkpt><trkpt lat="46.0762946" lon="12.0895213"><ele>286.0</ele><time>2026-05-02T12:22:47.313Z</time></trkpt><trkpt lat="46.0762074" lon="12.0894509"><ele>286.0</ele><time>2026-05-02T12:22:49.3Z</time></trkpt><trkpt lat="46.0761216" lon="12.0893906"><ele>286.0</ele><time>2026-05-02T12:22:51.303Z</time></trkpt><trkpt lat="46.0760409" lon="12.0893228"><ele>286.0</ele><time>2026-05-02T12:22:53.311Z</time></trkpt><trkpt lat="46.0759677" lon="12.0892683"><ele>286.0</ele><time>2026-05-02T12:22:55.31Z</time></trkpt><trkpt lat="46.0759407" lon="12.0891808"><ele>286.0</ele><time>2026-05-02T12:22:57.312Z</time></trkpt><trkpt lat="46.0759216" lon="12.0890783"><ele>285.0</ele><time>2026-05-02T12:22:59.31Z</time></trkpt><trkpt lat="46.0758939" lon="12.0889677"><ele>284.0</ele><time>2026-05-02T12:23:01.314Z</time></trkpt><trkpt lat="46.0758417" lon="12.0888169"><ele>283.0</ele><time>2026-05-02T12:23:03.317Z</time></trkpt><trkpt lat="46.0757963" lon="12.0886727"><ele>282.0</ele><time>2026-05-02T12:23:05.311Z</time></trkpt><trkpt lat="46.0757439" lon="12.0885317"><ele>281.0</ele><time>2026-05-02T12:23:07.3Z</time></trkpt><trkpt lat="46.0756966" lon="12.0884041"><ele>281.0</ele><time>2026-05-02T12:23:09.31Z</time></trkpt><trkpt lat="46.0756386" lon="12.0882744"><ele>281.0</ele><time>2026-05-02T12:23:11.314Z</time></trkpt><trkpt lat="46.0755731" lon="12.0881567"><ele>281.0</ele><time>2026-05-02T12:23:13.312Z</time></trkpt><trkpt lat="46.075512" lon="12.088032"><ele>281.0</ele><time>2026-05-02T12:23:15.302Z</time></trkpt><trkpt lat="46.0754649" lon="12.0879025"><ele>281.0</ele><time>2026-05-02T12:23:17.306Z</time></trkpt><trkpt lat="46.0753884" lon="12.0877936"><ele>280.0</ele><time>2026-05-02T12:23:19.317Z</time></trkpt><trkpt lat="46.0752962" lon="12.0877264"><ele>279.0</ele><time>2026-05-02T12:23:21.318Z</time></trkpt><trkpt lat="46.0752186" lon="12.0876257"><ele>278.0</ele><time>2026-05-02T12:23:23.308Z</time></trkpt><trkpt lat="46.0751617" lon="12.0874874"><ele>277.0</ele><time>2026-05-02T12:23:25.31Z</time></trkpt><trkpt lat="46.075094" lon="12.0873658"><ele>276.0</ele><time>2026-05-02T12:23:27.315Z</time></trkpt><trkpt lat="46.0750191" lon="12.0872942"><ele>276.0</ele><time>2026-05-02T12:23:29.313Z</time></trkpt><trkpt lat="46.074952" lon="12.0872246"><ele>276.0</ele><time>2026-05-02T12:23:31.308Z</time></trkpt><trkpt lat="46.0748739" lon="12.0871547"><ele>276.0</ele><time>2026-05-02T12:23:33.306Z</time></trkpt><trkpt lat="46.0747878" lon="12.0871012"><ele>276.0</ele><time>2026-05-02T12:23:35.31Z</time></trkpt><trkpt lat="46.0746911" lon="12.0870338"><ele>276.0</ele><time>2026-05-02T12:23:37.318Z</time></trkpt><trkpt lat="46.0745975" lon="12.0869946"><ele>275.8</ele><time>2026-05-02T12:23:39.326Z</time></trkpt><trkpt lat="46.0745048" lon="12.0869491"><ele>275.6</ele><time>2026-05-02T12:23:41.31Z</time></trkpt><trkpt lat="46.0744097" lon="12.086898"><ele>275.4</ele><time>2026-05-02T12:23:43.31Z</time></trkpt><trkpt lat="46.0743147" lon="12.0868753"><ele>275.2</ele><time>2026-05-02T12:23:45.318Z</time></trkpt><trkpt lat="46.0742631" lon="12.0869718"><ele>275.0</ele><time>2026-05-02T12:23:47.317Z</time></trkpt><trkpt lat="46.0742238" lon="12.0870863"><ele>275.0</ele><time>2026-05-02T12:23:49.303Z</time></trkpt><trkpt lat="46.0741917" lon="12.0872231"><ele>275.0</ele><time>2026-05-02T12:23:51.31Z</time></trkpt><trkpt lat="46.0741394" lon="12.0872949"><ele>275.0</ele><time>2026-05-02T12:23:53.318Z</time></trkpt><trkpt lat="46.0740407" lon="12.0872616"><ele>275.0</ele><time>2026-05-02T12:23:56.309Z</time></trkpt><trkpt lat="46.0739592" lon="12.0872366"><ele>275.0</ele><time>2026-05-02T12:23:58.313Z</time></trkpt><trkpt lat="46.0738834" lon="12.0872045"><ele>275.0</ele><time>2026-05-02T12:24:00.322Z</time></trkpt><trkpt lat="46.0738157" lon="12.0871599"><ele>275.0</ele><time>2026-05-02T12:24:02.318Z</time></trkpt><trkpt lat="46.0737412" lon="12.0871138"><ele>275.0</ele><time>2026-05-02T12:24:04.32Z</time></trkpt><trkpt lat="46.073666" lon="12.0870719"><ele>275.0</ele><time>2026-05-02T12:24:06.315Z</time></trkpt><trkpt lat="46.0735991" lon="12.0870254"><ele>275.0</ele><time>2026-05-02T12:24:08.32Z</time></trkpt><trkpt lat="46.0735296" lon="12.0869812"><ele>275.0</ele><time>2026-05-02T12:24:10.308Z</time></trkpt><trkpt lat="46.0734537" lon="12.0869279"><ele>275.0</ele><time>2026-05-02T12:24:12.316Z</time></trkpt><trkpt lat="46.0733627" lon="12.0868393"><ele>275.0</ele><time>2026-05-02T12:24:14.318Z</time></trkpt><trkpt lat="46.0732913" lon="12.0867529"><ele>275.0</ele><time>2026-05-02T12:24:16.315Z</time></trkpt><trkpt lat="46.0732006" lon="12.0866951"><ele>275.0</ele><time>2026-05-02T12:24:18.317Z</time></trkpt><trkpt lat="46.0731084" lon="12.0867162"><ele>275.0</ele><time>2026-05-02T12:24:20.316Z</time></trkpt><trkpt lat="46.0730184" lon="12.0867552"><ele>275.0</ele><time>2026-05-02T12:24:22.314Z</time></trkpt><trkpt lat="46.0729341" lon="12.0868031"><ele>275.6666666666667</ele><time>2026-05-02T12:24:24.315Z</time></trkpt><trkpt lat="46.0728519" lon="12.0868619"><ele>276.33333333333337</ele><time>2026-05-02T12:24:26.308Z</time></trkpt><trkpt lat="46.0727784" lon="12.0869272"><ele>277.0</ele><time>2026-05-02T12:24:28.313Z</time></trkpt><trkpt lat="46.0727182" lon="12.0869847"><ele>277.6666666666667</ele><time>2026-05-02T12:24:30.314Z</time></trkpt><trkpt lat="46.0726548" lon="12.0870069"><ele>278.3333333333333</ele><time>2026-05-02T12:24:32.319Z</time></trkpt><trkpt lat="46.0725658" lon="12.0870064"><ele>279.0</ele><time>2026-05-02T12:24:35.315Z</time></trkpt><trkpt lat="46.0724972" lon="12.0869917"><ele>280.4285714285714</ele><time>2026-05-02T12:24:37.307Z</time></trkpt><trkpt lat="46.0724295" lon="12.0869822"><ele>281.85714285714283</ele><time>2026-05-02T12:24:39.311Z</time></trkpt><trkpt lat="46.0723658" lon="12.0869793"><ele>283.2857142857143</ele><time>2026-05-02T12:24:41.314Z</time></trkpt><trkpt lat="46.0722772" lon="12.0869765"><ele>284.71428571428567</ele><time>2026-05-02T12:24:44.317Z</time></trkpt><trkpt lat="46.0722057" lon="12.0869415"><ele>286.1428571428571</ele><time>2026-05-02T12:24:47.307Z</time></trkpt><trkpt lat="46.0721384" lon="12.0869194"><ele>287.57142857142856</ele><time>2026-05-02T12:24:50.313Z</time></trkpt><trkpt lat="46.0720681" lon="12.0868854"><ele>289.0</ele><time>2026-05-02T12:24:54.307Z</time></trkpt><trkpt lat="46.0719868" lon="12.0868637"><ele>289.0</ele><time>2026-05-02T12:24:59.315Z</time></trkpt><trkpt lat="46.0719262" lon="12.0868389"><ele>289.0</ele><time>2026-05-02T12:25:03.309Z</time></trkpt><trkpt lat="46.0718522" lon="12.0868128"><ele>289.0</ele><time>2026-05-02T12:25:07.311Z</time></trkpt><trkpt lat="46.0717809" lon="12.0867896"><ele>289.0</ele><time>2026-05-02T12:25:11.314Z</time></trkpt><trkpt lat="46.0716996" lon="12.0867722"><ele>289.0</ele><time>2026-05-02T12:25:15.317Z</time></trkpt><trkpt lat="46.0716316" lon="12.0867537"><ele>289.0</ele><time>2026-05-02T12:25:19.321Z</time></trkpt><trkpt lat="46.0715586" lon="12.0867382"><ele>289.0</ele><time>2026-05-02T12:25:23.303Z</time></trkpt><trkpt lat="46.0714937" lon="12.0867195"><ele>291.0</ele><time>2026-05-02T12:25:26.305Z</time></trkpt><trkpt lat="46.07142" lon="12.0867173"><ele>293.0</ele><time>2026-05-02T12:25:30.306Z</time></trkpt><trkpt lat="46.0713508" lon="12.0867114"><ele>295.0</ele><time>2026-05-02T12:25:34.315Z</time></trkpt><trkpt lat="46.0712742" lon="12.0867022"><ele>297.0</ele><time>2026-05-02T12:25:39.312Z</time></trkpt><trkpt lat="46.0712093" lon="12.0867141"><ele>299.0</ele><time>2026-05-02T12:25:43.317Z</time></trkpt><trkpt lat="46.0711345" lon="12.0867205"><ele>301.0</ele><time>2026-05-02T12:25:48.306Z</time></trkpt><trkpt lat="46.0710571" lon="12.0867237"><ele>303.0</ele><time>2026-05-02T12:25:52.318Z</time></trkpt><trkpt lat="46.0709777" lon="12.0867296"><ele>303.0</ele><time>2026-05-02T12:25:56.319Z</time></trkpt><trkpt lat="46.0709119" lon="12.0867187"><ele>303.0</ele><time>2026-05-02T12:25:59.307Z</time></trkpt><trkpt lat="46.0708362" lon="12.0866725"><ele>303.0</ele><time>2026-05-02T12:26:03.312Z</time></trkpt><trkpt lat="46.0707733" lon="12.0866354"><ele>303.0</ele><time>2026-05-02T12:26:06.316Z</time></trkpt><trkpt lat="46.0707098" lon="12.0865985"><ele>303.0</ele><time>2026-05-02T12:26:09.319Z</time></trkpt><trkpt lat="46.0706399" lon="12.0865669"><ele>303.0</ele><time>2026-05-02T12:26:12.316Z</time></trkpt><trkpt lat="46.0705769" lon="12.086549"><ele>303.0</ele><time>2026-05-02T12:26:15.32Z</time></trkpt><trkpt lat="46.0705036" lon="12.0865154"><ele>303.5</ele><time>2026-05-02T12:26:18.31Z</time></trkpt><trkpt lat="46.0704236" lon="12.0864711"><ele>304.0</ele><time>2026-05-02T12:26:21.316Z</time></trkpt><trkpt lat="46.0703403" lon="12.0864289"><ele>304.5</ele><time>2026-05-02T12:26:24.31Z</time></trkpt><trkpt lat="46.0702541" lon="12.0863806"><ele>305.0</ele><time>2026-05-02T12:26:27.31Z</time></trkpt><trkpt lat="46.0701692" lon="12.0863384"><ele>305.5</ele><time>2026-05-02T12:26:30.317Z</time></trkpt><trkpt lat="46.0700829" lon="12.0863035"><ele>306.0</ele><time>2026-05-02T12:26:33.313Z</time></trkpt><trkpt lat="46.0699998" lon="12.0862742"><ele>306.5</ele><time>2026-05-02T12:26:36.31Z</time></trkpt><trkpt lat="46.0699148" lon="12.0862449"><ele>307.0</ele><time>2026-05-02T12:26:39.319Z</time></trkpt><trkpt lat="46.0698306" lon="12.0862004"><ele>307.5</ele><time>2026-05-02T12:26:42.312Z</time></trkpt><trkpt lat="46.0697467" lon="12.086153"><ele>308.0</ele><time>2026-05-02T12:26:45.314Z</time></trkpt><trkpt lat="46.0696867" lon="12.0861213"><ele>308.5</ele><time>2026-05-02T12:26:47.319Z</time></trkpt><trkpt lat="46.0696257" lon="12.0860803"><ele>309.0</ele><time>2026-05-02T12:26:49.313Z</time></trkpt><trkpt lat="46.0695665" lon="12.0860372"><ele>309.00000000000006</ele><time>2026-05-02T12:26:51.305Z</time></trkpt><trkpt lat="46.0695067" lon="12.0859956"><ele>309.0</ele><time>2026-05-02T12:26:53.318Z</time></trkpt><trkpt lat="46.069444" lon="12.0859478"><ele>309.0</ele><time>2026-05-02T12:26:55.319Z</time></trkpt><trkpt lat="46.0693828" lon="12.0858907"><ele>309.0</ele><time>2026-05-02T12:26:57.32Z</time></trkpt><trkpt lat="46.0693185" lon="12.0858339"><ele>309.0</ele><time>2026-05-02T12:26:59.313Z</time></trkpt><trkpt lat="46.0692531" lon="12.0857744"><ele>309.00000000000006</ele><time>2026-05-02T12:27:01.316Z</time></trkpt><trkpt lat="46.0691891" lon="12.0857134"><ele>309.0</ele><time>2026-05-02T12:27:03.324Z</time></trkpt><trkpt lat="46.0691245" lon="12.085651"><ele>309.28571428571433</ele><time>2026-05-02T12:27:05.315Z</time></trkpt><trkpt lat="46.0690606" lon="12.0855968"><ele>309.57142857142856</ele><time>2026-05-02T12:27:07.319Z</time></trkpt><trkpt lat="46.0689987" lon="12.0855391"><ele>309.8571428571429</ele><time>2026-05-02T12:27:09.302Z</time></trkpt><trkpt lat="46.0689332" lon="12.08549"><ele>310.14285714285717</ele><time>2026-05-02T12:27:11.312Z</time></trkpt><trkpt lat="46.0688637" lon="12.0854494"><ele>310.42857142857144</ele><time>2026-05-02T12:27:13.305Z</time></trkpt><trkpt lat="46.0687937" lon="12.085403"><ele>310.7142857142857</ele><time>2026-05-02T12:27:15.317Z</time></trkpt><trkpt lat="46.0687271" lon="12.0853553"><ele>311.0</ele><time>2026-05-02T12:27:17.322Z</time></trkpt><trkpt lat="46.0686596" lon="12.0853105"><ele>311.0</ele><time>2026-05-02T12:27:19.304Z</time></trkpt><trkpt lat="46.0685896" lon="12.0852607"><ele>311.0</ele><time>2026-05-02T12:27:21.31Z</time></trkpt><trkpt lat="46.0685208" lon="12.0852129"><ele>311.0</ele><time>2026-05-02T12:27:23.316Z</time></trkpt><trkpt lat="46.0684569" lon="12.0851708"><ele>311.0</ele><time>2026-05-02T12:27:25.318Z</time></trkpt><trkpt lat="46.0683958" lon="12.0851256"><ele>311.0</ele><time>2026-05-02T12:27:27.322Z</time></trkpt><trkpt lat="46.0683336" lon="12.0850781"><ele>311.0</ele><time>2026-05-02T12:27:29.318Z</time></trkpt><trkpt lat="46.0682628" lon="12.0850336"><ele>311.0</ele><time>2026-05-02T12:27:31.312Z</time></trkpt><trkpt lat="46.0681787" lon="12.0850031"><ele>310.6</ele><time>2026-05-02T12:27:33.315Z</time></trkpt><trkpt lat="46.0680731" lon="12.085015"><ele>310.20000000000005</ele><time>2026-05-02T12:27:35.31Z</time></trkpt><trkpt lat="46.0679755" lon="12.0850954"><ele>309.79999999999995</ele><time>2026-05-02T12:27:37.324Z</time></trkpt><trkpt lat="46.0678833" lon="12.0851907"><ele>309.4</ele><time>2026-05-02T12:27:39.322Z</time></trkpt><trkpt lat="46.0677964" lon="12.0852943"><ele>309.0</ele><time>2026-05-02T12:27:41.319Z</time></trkpt><trkpt lat="46.0677111" lon="12.0853951"><ele>309.0</ele><time>2026-05-02T12:27:43.314Z</time></trkpt><trkpt lat="46.0676217" lon="12.0854782"><ele>309.0</ele><time>2026-05-02T12:27:45.31Z</time></trkpt><trkpt lat="46.0675332" lon="12.0855521"><ele>309.0</ele><time>2026-05-02T12:27:47.319Z</time></trkpt><trkpt lat="46.0674424" lon="12.085621"><ele>309.0</ele><time>2026-05-02T12:27:49.309Z</time></trkpt><trkpt lat="46.0673467" lon="12.0856831"><ele>309.0</ele><time>2026-05-02T12:27:51.315Z</time></trkpt><trkpt lat="46.0672613" lon="12.0857668"><ele>309.6666666666667</ele><time>2026-05-02T12:27:53.32Z</time></trkpt><trkpt lat="46.0671907" lon="12.0858527"><ele>310.3333333333333</ele><time>2026-05-02T12:27:55.305Z</time></trkpt><trkpt lat="46.067111" lon="12.0859083"><ele>311.0</ele><time>2026-05-02T12:27:57.31Z</time></trkpt><trkpt lat="46.0670249" lon="12.0859471"><ele>311.66666666666663</ele><time>2026-05-02T12:27:59.319Z</time></trkpt><trkpt lat="46.0669376" lon="12.0859492"><ele>312.3333333333333</ele><time>2026-05-02T12:28:01.305Z</time></trkpt><trkpt lat="46.0668493" lon="12.0859284"><ele>313.0</ele><time>2026-05-02T12:28:03.317Z</time></trkpt><trkpt lat="46.0667657" lon="12.0858975"><ele>313.0</ele><time>2026-05-02T12:28:05.318Z</time></trkpt><trkpt lat="46.0666811" lon="12.0858646"><ele>313.0</ele><time>2026-05-02T12:28:07.32Z</time></trkpt><trkpt lat="46.066624" lon="12.0857873"><ele>313.0</ele><time>2026-05-02T12:28:09.313Z</time></trkpt><trkpt lat="46.066588" lon="12.0857078"><ele>313.0</ele><time>2026-05-02T12:28:11.317Z</time></trkpt><trkpt lat="46.066569" lon="12.0855788"><ele>313.0</ele><time>2026-05-02T12:28:14.308Z</time></trkpt><trkpt lat="46.0665578" lon="12.0854761"><ele>313.0</ele><time>2026-05-02T12:28:16.312Z</time></trkpt><trkpt lat="46.066533" lon="12.0853634"><ele>316.57142857142856</ele><time>2026-05-02T12:28:19.32Z</time></trkpt><trkpt lat="46.0665108" lon="12.0852742"><ele>320.14285714285717</ele><time>2026-05-02T12:28:22.314Z</time></trkpt><trkpt lat="46.0664992" lon="12.0851707"><ele>323.7142857142857</ele><time>2026-05-02T12:28:26.308Z</time></trkpt><trkpt lat="46.0664717" lon="12.085086"><ele>327.2857142857143</ele><time>2026-05-02T12:28:36.304Z</time></trkpt><trkpt lat="46.0664594" lon="12.0849964"><ele>330.85714285714283</ele><time>2026-05-02T12:28:44.305Z</time></trkpt><trkpt lat="46.0664063" lon="12.0849437"><ele>334.42857142857144</ele><time>2026-05-02T12:28:49.312Z</time></trkpt><trkpt lat="46.0663495" lon="12.0849044"><ele>338.0</ele><time>2026-05-02T12:29:07.306Z</time></trkpt><trkpt lat="46.0662952" lon="12.0848562"><ele>338.0</ele><time>2026-05-02T12:29:19.304Z</time></trkpt><trkpt lat="46.0662314" lon="12.0848321"><ele>338.0</ele><time>2026-05-02T12:29:30.301Z</time></trkpt><trkpt lat="46.066169" lon="12.0848773"><ele>338.0</ele><time>2026-05-02T12:29:36.308Z</time></trkpt><trkpt lat="46.0661124" lon="12.0849428"><ele>338.0</ele><time>2026-05-02T12:29:41.305Z</time></trkpt><trkpt lat="46.0660732" lon="12.0850167"><ele>338.0</ele><time>2026-05-02T12:29:44.312Z</time></trkpt><trkpt lat="46.066039" lon="12.0851207"><ele>338.0</ele><time>2026-05-02T12:29:47.317Z</time></trkpt><trkpt lat="46.0660127" lon="12.0852183"><ele>338.0</ele><time>2026-05-02T12:29:50.309Z</time></trkpt><trkpt lat="46.0659882" lon="12.0853063"><ele>338.7142857142857</ele><time>2026-05-02T12:29:53.308Z</time></trkpt><trkpt lat="46.0659555" lon="12.0853873"><ele>339.42857142857144</ele><time>2026-05-02T12:29:56.314Z</time></trkpt><trkpt lat="46.0659042" lon="12.0854453"><ele>340.1428571428571</ele><time>2026-05-02T12:29:59.306Z</time></trkpt><trkpt lat="46.0658519" lon="12.0855209"><ele>340.8571428571429</ele><time>2026-05-02T12:30:02.338Z</time></trkpt><trkpt lat="46.0657978" lon="12.0855813"><ele>341.57142857142856</ele><time>2026-05-02T12:30:05.31Z</time></trkpt><trkpt lat="46.0657266" lon="12.0856338"><ele>342.2857142857143</ele><time>2026-05-02T12:30:09.317Z</time></trkpt><trkpt lat="46.0656602" lon="12.0856257"><ele>343.0</ele><time>2026-05-02T12:30:13.311Z</time></trkpt><trkpt lat="46.0655987" lon="12.0855824"><ele>343.5</ele><time>2026-05-02T12:30:16.311Z</time></trkpt><trkpt lat="46.0655406" lon="12.0855177"><ele>344.0</ele><time>2026-05-02T12:30:19.31Z</time></trkpt><trkpt lat="46.0655044" lon="12.0853893"><ele>344.5</ele><time>2026-05-02T12:30:22.311Z</time></trkpt><trkpt lat="46.0654892" lon="12.0852702"><ele>345.0</ele><time>2026-05-02T12:30:24.311Z</time></trkpt><trkpt lat="46.0654656" lon="12.0851489"><ele>345.5</ele><time>2026-05-02T12:30:26.33Z</time></trkpt><trkpt lat="46.0654225" lon="12.0850496"><ele>346.0</ele><time>2026-05-02T12:30:28.307Z</time></trkpt><trkpt lat="46.0653736" lon="12.0849599"><ele>345.5</ele><time>2026-05-02T12:30:30.31Z</time></trkpt><trkpt lat="46.0653077" lon="12.0848599"><ele>345.0</ele><time>2026-05-02T12:30:32.314Z</time></trkpt><trkpt lat="46.0652362" lon="12.0847642"><ele>344.5</ele><time>2026-05-02T12:30:34.311Z</time></trkpt><trkpt lat="46.0651562" lon="12.0846416"><ele>344.0</ele><time>2026-05-02T12:30:36.306Z</time></trkpt><trkpt lat="46.0651158" lon="12.0845635"><ele>343.5</ele><time>2026-05-02T12:30:37.312Z</time></trkpt><trkpt lat="46.0650775" lon="12.0844868"><ele>343.0</ele><time>2026-05-02T12:30:38.312Z</time></trkpt><trkpt lat="46.0650427" lon="12.0844074"><ele>343.0</ele><time>2026-05-02T12:30:39.312Z</time></trkpt><trkpt lat="46.0650047" lon="12.0843268"><ele>343.0</ele><time>2026-05-02T12:30:40.311Z</time></trkpt><trkpt lat="46.0649575" lon="12.0842526"><ele>343.0</ele><time>2026-05-02T12:30:41.311Z</time></trkpt><trkpt lat="46.0648801" lon="12.0841548"><ele>343.0</ele><time>2026-05-02T12:30:43.309Z</time></trkpt><trkpt lat="46.0648929" lon="12.0840226"><ele>343.0</ele><time>2026-05-02T12:30:46.311Z</time></trkpt><trkpt lat="46.0649214" lon="12.0839081"><ele>343.0</ele><time>2026-05-02T12:30:48.305Z</time></trkpt><trkpt lat="46.0649447" lon="12.0837677"><ele>342.79999999999995</ele><time>2026-05-02T12:30:50.302Z</time></trkpt><trkpt lat="46.0649651" lon="12.0836203"><ele>342.6</ele><time>2026-05-02T12:30:52.304Z</time></trkpt><trkpt lat="46.0649836" lon="12.0834746"><ele>342.4</ele><time>2026-05-02T12:30:54.311Z</time></trkpt><trkpt lat="46.0650047" lon="12.0833332"><ele>342.20000000000005</ele><time>2026-05-02T12:30:56.311Z</time></trkpt><trkpt lat="46.065029" lon="12.0831939"><ele>342.0</ele><time>2026-05-02T12:30:58.311Z</time></trkpt><trkpt lat="46.0650535" lon="12.0830606"><ele>342.0</ele><time>2026-05-02T12:31:00.304Z</time></trkpt><trkpt lat="46.0650673" lon="12.0829204"><ele>342.0</ele><time>2026-05-02T12:31:02.302Z</time></trkpt><trkpt lat="46.0650833" lon="12.0827802"><ele>342.0</ele><time>2026-05-02T12:31:04.313Z</time></trkpt><trkpt lat="46.0651032" lon="12.0826421"><ele>342.0</ele><time>2026-05-02T12:31:06.31Z</time></trkpt><trkpt lat="46.0651198" lon="12.0825027"><ele>342.0</ele><time>2026-05-02T12:31:08.303Z</time></trkpt><trkpt lat="46.065101" lon="12.0823686"><ele>342.6</ele><time>2026-05-02T12:31:10.308Z</time></trkpt><trkpt lat="46.0650346" lon="12.0822799"><ele>343.20000000000005</ele><time>2026-05-02T12:31:12.307Z</time></trkpt><trkpt lat="46.0649309" lon="12.0821459"><ele>343.8</ele><time>2026-05-02T12:31:15.305Z</time></trkpt><trkpt lat="46.0648589" lon="12.0820709"><ele>344.4</ele><time>2026-05-02T12:31:17.337Z</time></trkpt><trkpt lat="46.0647933" lon="12.0819897"><ele>345.0</ele><time>2026-05-02T12:31:19.311Z</time></trkpt><trkpt lat="46.0647388" lon="12.0818977"><ele>345.1666666666667</ele><time>2026-05-02T12:31:21.303Z</time></trkpt><trkpt lat="46.0646933" lon="12.0818113"><ele>345.3333333333333</ele><time>2026-05-02T12:31:23.305Z</time></trkpt><trkpt lat="46.0646523" lon="12.0817363"><ele>345.5</ele><time>2026-05-02T12:31:25.314Z</time></trkpt><trkpt lat="46.0646119" lon="12.0816292"><ele>345.66666666666663</ele><time>2026-05-02T12:31:28.314Z</time></trkpt><trkpt lat="46.0645794" lon="12.081519"><ele>345.8333333333333</ele><time>2026-05-02T12:31:31.302Z</time></trkpt><trkpt lat="46.0645452" lon="12.0813997"><ele>346.0</ele><time>2026-05-02T12:31:34.305Z</time></trkpt><trkpt lat="46.064518" lon="12.0812772"><ele>346.57142857142856</ele><time>2026-05-02T12:31:37.314Z</time></trkpt><trkpt lat="46.0644982" lon="12.0811875"><ele>347.14285714285717</ele><time>2026-05-02T12:31:39.311Z</time></trkpt><trkpt lat="46.0644795" lon="12.0810896"><ele>347.7142857142857</ele><time>2026-05-02T12:31:41.311Z</time></trkpt><trkpt lat="46.0644632" lon="12.0809906"><ele>348.2857142857143</ele><time>2026-05-02T12:31:43.312Z</time></trkpt><trkpt lat="46.0644445" lon="12.0808941"><ele>348.8571428571429</ele><time>2026-05-02T12:31:45.313Z</time></trkpt><trkpt lat="46.0644291" lon="12.0807988"><ele>349.42857142857144</ele><time>2026-05-02T12:31:47.306Z</time></trkpt><trkpt lat="46.0644087" lon="12.0807015"><ele>350.0</ele><time>2026-05-02T12:31:49.311Z</time></trkpt><trkpt lat="46.0643871" lon="12.0806016"><ele>350.5</ele><time>2026-05-02T12:31:51.311Z</time></trkpt><trkpt lat="46.0643628" lon="12.0805011"><ele>351.0</ele><time>2026-05-02T12:31:53.305Z</time></trkpt><trkpt lat="46.0643377" lon="12.0804018"><ele>351.5</ele><time>2026-05-02T12:31:55.304Z</time></trkpt><trkpt lat="46.0643103" lon="12.0802992"><ele>352.0</ele><time>2026-05-02T12:31:57.306Z</time></trkpt><trkpt lat="46.0642756" lon="12.0801946"><ele>352.5</ele><time>2026-05-02T12:31:59.311Z</time></trkpt><trkpt lat="46.0642377" lon="12.0800923"><ele>353.0</ele><time>2026-05-02T12:32:01.305Z</time></trkpt><trkpt lat="46.0642042" lon="12.079985"><ele>353.33333333333337</ele><time>2026-05-02T12:32:03.311Z</time></trkpt><trkpt lat="46.0641696" lon="12.0798771"><ele>353.6666666666667</ele><time>2026-05-02T12:32:05.313Z</time></trkpt><trkpt lat="46.0641207" lon="12.0797778"><ele>354.0</ele><time>2026-05-02T12:32:07.311Z</time></trkpt><trkpt lat="46.0640559" lon="12.0797001"><ele>354.3333333333333</ele><time>2026-05-02T12:32:09.33Z</time></trkpt><trkpt lat="46.0639835" lon="12.0796425"><ele>354.66666666666663</ele><time>2026-05-02T12:32:11.311Z</time></trkpt><trkpt lat="46.0639104" lon="12.0795963"><ele>355.0</ele><time>2026-05-02T12:32:13.312Z</time></trkpt><trkpt lat="46.0638376" lon="12.0795489"><ele>355.0</ele><time>2026-05-02T12:32:15.312Z</time></trkpt><trkpt lat="46.0637649" lon="12.0795076"><ele>355.0</ele><time>2026-05-02T12:32:17.311Z</time></trkpt><trkpt lat="46.0636913" lon="12.0794716"><ele>355.0</ele><time>2026-05-02T12:32:19.313Z</time></trkpt><trkpt lat="46.0636201" lon="12.0794311"><ele>355.0</ele><time>2026-05-02T12:32:21.311Z</time></trkpt><trkpt lat="46.0635477" lon="12.0793874"><ele>355.0</ele><time>2026-05-02T12:32:23.306Z</time></trkpt><trkpt lat="46.0634707" lon="12.0793493"><ele>355.0</ele><time>2026-05-02T12:32:25.305Z</time></trkpt><trkpt lat="46.063394" lon="12.0793054"><ele>355.0</ele><time>2026-05-02T12:32:27.304Z</time></trkpt><trkpt lat="46.0633209" lon="12.0792639"><ele>355.0</ele><time>2026-05-02T12:32:29.306Z</time></trkpt><trkpt lat="46.0632566" lon="12.0792284"><ele>355.0</ele><time>2026-05-02T12:32:31.307Z</time></trkpt><trkpt lat="46.0632006" lon="12.0791827"><ele>355.0</ele><time>2026-05-02T12:32:33.312Z</time></trkpt><trkpt lat="46.0631456" lon="12.079135"><ele>355.0</ele><time>2026-05-02T12:32:35.312Z</time></trkpt><trkpt lat="46.0630655" lon="12.0790535"><ele>355.0</ele><time>2026-05-02T12:32:38.308Z</time></trkpt><trkpt lat="46.0630027" lon="12.0790121"><ele>355.0</ele><time>2026-05-02T12:32:40.312Z</time></trkpt><trkpt lat="46.0629203" lon="12.0789688"><ele>354.5</ele><time>2026-05-02T12:32:43.312Z</time></trkpt><trkpt lat="46.0628371" lon="12.0789691"><ele>354.0</ele><time>2026-05-02T12:32:46.304Z</time></trkpt><trkpt lat="46.0627432" lon="12.0789967"><ele>353.5</ele><time>2026-05-02T12:32:49.312Z</time></trkpt><trkpt lat="46.0626714" lon="12.0790284"><ele>353.0</ele><time>2026-05-02T12:32:51.314Z</time></trkpt><trkpt lat="46.0626031" lon="12.0790463"><ele>352.5</ele><time>2026-05-02T12:32:53.315Z</time></trkpt><trkpt lat="46.062541" lon="12.0790687"><ele>352.0</ele><time>2026-05-02T12:32:55.305Z</time></trkpt><trkpt lat="46.0624806" lon="12.0790954"><ele>351.8333333333333</ele><time>2026-05-02T12:32:57.319Z</time></trkpt><trkpt lat="46.0624182" lon="12.0791354"><ele>351.66666666666663</ele><time>2026-05-02T12:32:59.312Z</time></trkpt><trkpt lat="46.062341" lon="12.0791772"><ele>351.5</ele><time>2026-05-02T12:33:01.313Z</time></trkpt><trkpt lat="46.0622608" lon="12.0792312"><ele>351.3333333333333</ele><time>2026-05-02T12:33:03.308Z</time></trkpt><trkpt lat="46.0621799" lon="12.079322"><ele>351.1666666666667</ele><time>2026-05-02T12:33:05.312Z</time></trkpt><trkpt lat="46.0620896" lon="12.079404"><ele>351.0</ele><time>2026-05-02T12:33:07.322Z</time></trkpt><trkpt lat="46.0620079" lon="12.0795098"><ele>351.0</ele><time>2026-05-02T12:33:09.319Z</time></trkpt><trkpt lat="46.061949" lon="12.0796122"><ele>351.0</ele><time>2026-05-02T12:33:11.307Z</time></trkpt><trkpt lat="46.0618674" lon="12.0796217"><ele>351.0</ele><time>2026-05-02T12:33:13.312Z</time></trkpt><trkpt lat="46.0618149" lon="12.0795587"><ele>351.0</ele><time>2026-05-02T12:33:15.302Z</time></trkpt><trkpt lat="46.0617032" lon="12.0794099"><ele>351.0</ele><time>2026-05-02T12:33:18.306Z</time></trkpt><trkpt lat="46.0616415" lon="12.0793229"><ele>348.5</ele><time>2026-05-02T12:33:20.312Z</time></trkpt><trkpt lat="46.0615579" lon="12.0792793"><ele>346.0</ele><time>2026-05-02T12:33:23.311Z</time></trkpt><trkpt lat="46.0614833" lon="12.0792318"><ele>343.5</ele><time>2026-05-02T12:33:25.312Z</time></trkpt><trkpt lat="46.0614024" lon="12.0791953"><ele>341.0</ele><time>2026-05-02T12:33:27.315Z</time></trkpt><trkpt lat="46.061345" lon="12.0791524"><ele>338.5</ele><time>2026-05-02T12:33:28.311Z</time></trkpt><trkpt lat="46.0612526" lon="12.0790679"><ele>336.0</ele><time>2026-05-02T12:33:30.306Z</time></trkpt><trkpt lat="46.0611838" lon="12.0790354"><ele>335.3333333333333</ele><time>2026-05-02T12:33:31.304Z</time></trkpt><trkpt lat="46.06111" lon="12.0789713"><ele>334.6666666666667</ele><time>2026-05-02T12:33:32.303Z</time></trkpt><trkpt lat="46.061037" lon="12.0789231"><ele>334.0</ele><time>2026-05-02T12:33:33.312Z</time></trkpt><trkpt lat="46.0609615" lon="12.0788828"><ele>333.33333333333337</ele><time>2026-05-02T12:33:34.314Z</time></trkpt><trkpt lat="46.060899" lon="12.0788471"><ele>332.6666666666667</ele><time>2026-05-02T12:33:35.313Z</time></trkpt><trkpt lat="46.0608321" lon="12.0788003"><ele>332.0</ele><time>2026-05-02T12:33:36.311Z</time></trkpt><trkpt lat="46.0607735" lon="12.0787533"><ele>327.20000000000005</ele><time>2026-05-02T12:33:37.318Z</time></trkpt><trkpt lat="46.0606809" lon="12.0786438"><ele>322.40000000000003</ele><time>2026-05-02T12:33:39.313Z</time></trkpt><trkpt lat="46.0606093" lon="12.0785083"><ele>317.6</ele><time>2026-05-02T12:33:41.305Z</time></trkpt><trkpt lat="46.0605901" lon="12.0783634"><ele>312.8</ele><time>2026-05-02T12:33:43.31Z</time></trkpt><trkpt lat="46.0605171" lon="12.0783369"><ele>308.0</ele><time>2026-05-02T12:33:45.314Z</time></trkpt><trkpt lat="46.0604775" lon="12.0784522"><ele>308.0</ele><time>2026-05-02T12:33:47.33Z</time></trkpt><trkpt lat="46.0604611" lon="12.078543"><ele>308.0</ele><time>2026-05-02T12:33:48.304Z</time></trkpt><trkpt lat="46.0604435" lon="12.0786421"><ele>308.0</ele><time>2026-05-02T12:33:49.313Z</time></trkpt><trkpt lat="46.060417" lon="12.0787395"><ele>308.0</ele><time>2026-05-02T12:33:50.311Z</time></trkpt><trkpt lat="46.0603882" lon="12.0788226"><ele>308.0</ele><time>2026-05-02T12:33:51.305Z</time></trkpt><trkpt lat="46.0603459" lon="12.0788994"><ele>308.0</ele><time>2026-05-02T12:33:52.304Z</time></trkpt><trkpt lat="46.06025" lon="12.0790062"><ele>308.0</ele><time>2026-05-02T12:33:54.304Z</time></trkpt><trkpt lat="46.0601887" lon="12.0790373"><ele>308.0</ele><time>2026-05-02T12:33:55.306Z</time></trkpt><trkpt lat="46.0600839" lon="12.0790824"><ele>308.0</ele><time>2026-05-02T12:33:57.303Z</time></trkpt><trkpt lat="46.0599963" lon="12.0791162"><ele>308.0</ele><time>2026-05-02T12:33:59.312Z</time></trkpt><trkpt lat="46.0599313" lon="12.0790949"><ele>308.0</ele><time>2026-05-02T12:34:01.313Z</time></trkpt><trkpt lat="46.0599364" lon="12.0789784"><ele>308.0</ele><time>2026-05-02T12:34:04.309Z</time></trkpt><trkpt lat="46.0599523" lon="12.078877"><ele>308.0</ele><time>2026-05-02T12:34:09.306Z</time></trkpt><trkpt lat="46.0599636" lon="12.0787741"><ele>308.0</ele><time>2026-05-02T12:34:11.312Z</time></trkpt><trkpt lat="46.0599923" lon="12.0786615"><ele>308.0</ele><time>2026-05-02T12:34:13.313Z</time></trkpt><trkpt lat="46.0600235" lon="12.0785417"><ele>308.0</ele><time>2026-05-02T12:34:15.312Z</time></trkpt><trkpt lat="46.0600453" lon="12.0784108"><ele>308.0</ele><time>2026-05-02T12:34:17.312Z</time></trkpt><trkpt lat="46.060038" lon="12.0782752"><ele>308.0</ele><time>2026-05-02T12:34:19.308Z</time></trkpt><trkpt lat="46.0600306" lon="12.0780984"><ele>307.0</ele><time>2026-05-02T12:34:21.312Z</time></trkpt><trkpt lat="46.0600425" lon="12.077991"><ele>306.0</ele><time>2026-05-02T12:34:22.314Z</time></trkpt><trkpt lat="46.0600639" lon="12.0778741"><ele>305.0</ele><time>2026-05-02T12:34:23.312Z</time></trkpt><trkpt lat="46.0600743" lon="12.0777541"><ele>304.0</ele><time>2026-05-02T12:34:24.311Z</time></trkpt><trkpt lat="46.0600748" lon="12.0776459"><ele>303.0</ele><time>2026-05-02T12:34:25.312Z</time></trkpt><trkpt lat="46.0600924" lon="12.0774767"><ele>302.0</ele><time>2026-05-02T12:34:27.317Z</time></trkpt><trkpt lat="46.0601282" lon="12.0773372"><ele>301.0</ele><time>2026-05-02T12:34:29.318Z</time></trkpt><trkpt lat="46.0601589" lon="12.077206"><ele>300.0</ele><time>2026-05-02T12:34:31.305Z</time></trkpt><trkpt lat="46.0601941" lon="12.0770511"><ele>299.0</ele><time>2026-05-02T12:34:33.312Z</time></trkpt><trkpt lat="46.060211" lon="12.0769576"><ele>298.0</ele><time>2026-05-02T12:34:34.312Z</time></trkpt><trkpt lat="46.0602292" lon="12.0768456"><ele>297.0</ele><time>2026-05-02T12:34:35.317Z</time></trkpt><trkpt lat="46.0602467" lon="12.0767249"><ele>296.0</ele><time>2026-05-02T12:34:36.314Z</time></trkpt><trkpt lat="46.0602585" lon="12.0765899"><ele>295.6</ele><time>2026-05-02T12:34:37.318Z</time></trkpt><trkpt lat="46.0602671" lon="12.0764522"><ele>295.20000000000005</ele><time>2026-05-02T12:34:38.305Z</time></trkpt><trkpt lat="46.0602683" lon="12.0763089"><ele>294.79999999999995</ele><time>2026-05-02T12:34:39.311Z</time></trkpt><trkpt lat="46.0602713" lon="12.0761759"><ele>294.4</ele><time>2026-05-02T12:34:40.305Z</time></trkpt><trkpt lat="46.0602753" lon="12.076042"><ele>294.0</ele><time>2026-05-02T12:34:41.312Z</time></trkpt><trkpt lat="46.0602862" lon="12.0759089"><ele>294.0</ele><time>2026-05-02T12:34:42.307Z</time></trkpt><trkpt lat="46.0602912" lon="12.075781"><ele>294.0</ele><time>2026-05-02T12:34:43.303Z</time></trkpt><trkpt lat="46.060289" lon="12.0756526"><ele>294.0</ele><time>2026-05-02T12:34:44.308Z</time></trkpt><trkpt lat="46.0602677" lon="12.0755299"><ele>294.0</ele><time>2026-05-02T12:34:45.312Z</time></trkpt><trkpt lat="46.0602382" lon="12.075405"><ele>294.0</ele><time>2026-05-02T12:34:46.313Z</time></trkpt><trkpt lat="46.0602025" lon="12.0752829"><ele>294.0</ele><time>2026-05-02T12:34:47.321Z</time></trkpt><trkpt lat="46.0601444" lon="12.0751714"><ele>293.59999999999997</ele><time>2026-05-02T12:34:48.311Z</time></trkpt><trkpt lat="46.0600784" lon="12.0750689"><ele>293.2</ele><time>2026-05-02T12:34:49.31Z</time></trkpt><trkpt lat="46.0600136" lon="12.0749733"><ele>292.79999999999995</ele><time>2026-05-02T12:34:50.314Z</time></trkpt><trkpt lat="46.0599415" lon="12.0748893"><ele>292.4</ele><time>2026-05-02T12:34:51.311Z</time></trkpt><trkpt lat="46.0598713" lon="12.0748131"><ele>292.0</ele><time>2026-05-02T12:34:52.304Z</time></trkpt><trkpt lat="46.059801" lon="12.0747366"><ele>291.3333333333333</ele><time>2026-05-02T12:34:53.312Z</time></trkpt><trkpt lat="46.0597311" lon="12.0746672"><ele>290.66666666666663</ele><time>2026-05-02T12:34:54.311Z</time></trkpt><trkpt lat="46.059661" lon="12.0745934"><ele>290.0</ele><time>2026-05-02T12:34:55.311Z</time></trkpt><trkpt lat="46.0596038" lon="12.074515"><ele>289.3333333333333</ele><time>2026-05-02T12:34:56.311Z</time></trkpt><trkpt lat="46.0595504" lon="12.0744258"><ele>288.6666666666667</ele><time>2026-05-02T12:34:57.315Z</time></trkpt><trkpt lat="46.0594986" lon="12.0743389"><ele>288.0</ele><time>2026-05-02T12:34:58.306Z</time></trkpt><trkpt lat="46.0594477" lon="12.0742588"><ele>288.00000000000006</ele><time>2026-05-02T12:34:59.314Z</time></trkpt><trkpt lat="46.0593992" lon="12.074174"><ele>288.0</ele><time>2026-05-02T12:35:00.314Z</time></trkpt><trkpt lat="46.0593497" lon="12.0740878"><ele>288.0</ele><time>2026-05-02T12:35:01.313Z</time></trkpt><trkpt lat="46.0593112" lon="12.0740035"><ele>288.0</ele><time>2026-05-02T12:35:02.312Z</time></trkpt><trkpt lat="46.0592769" lon="12.0739124"><ele>288.0</ele><time>2026-05-02T12:35:03.312Z</time></trkpt><trkpt lat="46.0592465" lon="12.073818"><ele>288.00000000000006</ele><time>2026-05-02T12:35:04.305Z</time></trkpt><trkpt lat="46.0592226" lon="12.0737202"><ele>288.0</ele><time>2026-05-02T12:35:05.312Z</time></trkpt><trkpt lat="46.059205" lon="12.0736239"><ele>287.5714285714286</ele><time>2026-05-02T12:35:06.303Z</time></trkpt><trkpt lat="46.0591918" lon="12.0735291"><ele>287.14285714285717</ele><time>2026-05-02T12:35:07.321Z</time></trkpt><trkpt lat="46.0591851" lon="12.0734344"><ele>286.7142857142857</ele><time>2026-05-02T12:35:08.314Z</time></trkpt><trkpt lat="46.0591833" lon="12.0733413"><ele>286.28571428571433</ele><time>2026-05-02T12:35:09.311Z</time></trkpt><trkpt lat="46.0591804" lon="12.0732464"><ele>285.8571428571429</ele><time>2026-05-02T12:35:10.311Z</time></trkpt><trkpt lat="46.0591885" lon="12.0731513"><ele>285.42857142857144</ele><time>2026-05-02T12:35:11.31Z</time></trkpt><trkpt lat="46.0592047" lon="12.0730542"><ele>285.0</ele><time>2026-05-02T12:35:12.312Z</time></trkpt><trkpt lat="46.0592294" lon="12.0729643"><ele>285.0</ele><time>2026-05-02T12:35:13.312Z</time></trkpt><trkpt lat="46.0592565" lon="12.0728745"><ele>285.0</ele><time>2026-05-02T12:35:14.304Z</time></trkpt><trkpt lat="46.0592861" lon="12.0727833"><ele>285.0</ele><time>2026-05-02T12:35:15.31Z</time></trkpt><trkpt lat="46.0593204" lon="12.0726893"><ele>285.0</ele><time>2026-05-02T12:35:16.311Z</time></trkpt><trkpt lat="46.0593469" lon="12.0725907"><ele>285.0</ele><time>2026-05-02T12:35:17.309Z</time></trkpt><trkpt lat="46.0593568" lon="12.072489"><ele>285.0</ele><time>2026-05-02T12:35:18.311Z</time></trkpt><trkpt lat="46.0593488" lon="12.0723908"><ele>285.0</ele><time>2026-05-02T12:35:19.314Z</time></trkpt><trkpt lat="46.0593288" lon="12.0722955"><ele>284.3333333333333</ele><time>2026-05-02T12:35:20.31Z</time></trkpt><trkpt lat="46.0593103" lon="12.072205"><ele>283.6666666666667</ele><time>2026-05-02T12:35:21.312Z</time></trkpt><trkpt lat="46.0592905" lon="12.0721125"><ele>283.0</ele><time>2026-05-02T12:35:22.306Z</time></trkpt><trkpt lat="46.0592722" lon="12.0720252"><ele>282.33333333333337</ele><time>2026-05-02T12:35:23.312Z</time></trkpt><trkpt lat="46.059232" lon="12.071855"><ele>281.6666666666667</ele><time>2026-05-02T12:35:25.307Z</time></trkpt><trkpt lat="46.0592131" lon="12.0717648"><ele>281.0</ele><time>2026-05-02T12:35:26.308Z</time></trkpt><trkpt lat="46.059196" lon="12.0716766"><ele>281.0</ele><time>2026-05-02T12:35:27.31Z</time></trkpt><trkpt lat="46.0591809" lon="12.0715864"><ele>281.0</ele><time>2026-05-02T12:35:28.313Z</time></trkpt><trkpt lat="46.0591654" lon="12.0714942"><ele>281.0</ele><time>2026-05-02T12:35:29.312Z</time></trkpt><trkpt lat="46.0591497" lon="12.0713999"><ele>281.0</ele><time>2026-05-02T12:35:30.313Z</time></trkpt><trkpt lat="46.0591199" lon="12.0712263"><ele>281.0</ele><time>2026-05-02T12:35:32.304Z</time></trkpt><trkpt lat="46.0591127" lon="12.0711353"><ele>281.0</ele><time>2026-05-02T12:35:33.311Z</time></trkpt><trkpt lat="46.0591002" lon="12.0709607"><ele>281.40000000000003</ele><time>2026-05-02T12:35:35.312Z</time></trkpt><trkpt lat="46.0590935" lon="12.0707887"><ele>281.8</ele><time>2026-05-02T12:35:37.306Z</time></trkpt><trkpt lat="46.0590809" lon="12.0706347"><ele>282.20000000000005</ele><time>2026-05-02T12:35:39.309Z</time></trkpt><trkpt lat="46.0590503" lon="12.0705149"><ele>282.6</ele><time>2026-05-02T12:35:41.313Z</time></trkpt><trkpt lat="46.0590359" lon="12.0703993"><ele>283.0</ele><time>2026-05-02T12:35:44.305Z</time></trkpt><trkpt lat="46.0590514" lon="12.0702773"><ele>283.0</ele><time>2026-05-02T12:35:47.302Z</time></trkpt><trkpt lat="46.0590645" lon="12.0701803"><ele>283.0</ele><time>2026-05-02T12:35:49.313Z</time></trkpt><trkpt lat="46.0590749" lon="12.0700707"><ele>283.0</ele><time>2026-05-02T12:35:51.304Z</time></trkpt><trkpt lat="46.0590787" lon="12.0699488"><ele>283.0</ele><time>2026-05-02T12:35:53.314Z</time></trkpt><trkpt lat="46.0590851" lon="12.0698245"><ele>283.0</ele><time>2026-05-02T12:35:55.313Z</time></trkpt><trkpt lat="46.059097" lon="12.0696991"><ele>283.0</ele><time>2026-05-02T12:35:57.313Z</time></trkpt><trkpt lat="46.0591086" lon="12.0695924"><ele>282.8333333333333</ele><time>2026-05-02T12:35:59.309Z</time></trkpt><trkpt lat="46.0590916" lon="12.0694811"><ele>282.66666666666663</ele><time>2026-05-02T12:36:02.312Z</time></trkpt><trkpt lat="46.0590215" lon="12.0694851"><ele>282.5</ele><time>2026-05-02T12:36:04.311Z</time></trkpt><trkpt lat="46.0589426" lon="12.0694694"><ele>282.3333333333333</ele><time>2026-05-02T12:36:06.306Z</time></trkpt><trkpt lat="46.0588573" lon="12.0694404"><ele>282.1666666666667</ele><time>2026-05-02T12:36:08.31Z</time></trkpt><trkpt lat="46.0587686" lon="12.0694438"><ele>282.0</ele><time>2026-05-02T12:36:10.312Z</time></trkpt><trkpt lat="46.0586828" lon="12.069439"><ele>282.0</ele><time>2026-05-02T12:36:12.312Z</time></trkpt><trkpt lat="46.0585984" lon="12.0694407"><ele>282.0</ele><time>2026-05-02T12:36:14.311Z</time></trkpt><trkpt lat="46.0585064" lon="12.0694271"><ele>282.0</ele><time>2026-05-02T12:36:16.311Z</time></trkpt><trkpt lat="46.0584116" lon="12.0694241"><ele>282.0</ele><time>2026-05-02T12:36:18.311Z</time></trkpt><trkpt lat="46.05832" lon="12.0694026"><ele>282.0</ele><time>2026-05-02T12:36:20.311Z</time></trkpt><trkpt lat="46.0582365" lon="12.0693635"><ele>282.0</ele><time>2026-05-02T12:36:22.314Z</time></trkpt><trkpt lat="46.0581537" lon="12.0693256"><ele>282.0</ele><time>2026-05-02T12:36:24.3Z</time></trkpt><trkpt lat="46.0580716" lon="12.069282"><ele>282.0</ele><time>2026-05-02T12:36:26.302Z</time></trkpt><trkpt lat="46.0579833" lon="12.0692739"><ele>282.0</ele><time>2026-05-02T12:36:28.312Z</time></trkpt><trkpt lat="46.0578933" lon="12.0692793"><ele>282.0</ele><time>2026-05-02T12:36:30.306Z</time></trkpt><trkpt lat="46.0578117" lon="12.0692657"><ele>282.0</ele><time>2026-05-02T12:36:32.306Z</time></trkpt><trkpt lat="46.057737" lon="12.0692549"><ele>282.0</ele><time>2026-05-02T12:36:34.312Z</time></trkpt><trkpt lat="46.0576494" lon="12.069258"><ele>282.0</ele><time>2026-05-02T12:36:36.311Z</time></trkpt><trkpt lat="46.0575838" lon="12.0693051"><ele>282.0</ele><time>2026-05-02T12:36:38.31Z</time></trkpt><trkpt lat="46.0575033" lon="12.0693519"><ele>282.0</ele><time>2026-05-02T12:36:40.303Z</time></trkpt><trkpt lat="46.0574184" lon="12.0693897"><ele>282.0</ele><time>2026-05-02T12:36:42.311Z</time></trkpt><trkpt lat="46.057331" lon="12.0694389"><ele>282.0</ele><time>2026-05-02T12:36:44.314Z</time></trkpt><trkpt lat="46.0572373" lon="12.0694816"><ele>282.6</ele><time>2026-05-02T12:36:46.311Z</time></trkpt><trkpt lat="46.0571441" lon="12.0695039"><ele>283.2</ele><time>2026-05-02T12:36:48.31Z</time></trkpt><trkpt lat="46.0570531" lon="12.0695109"><ele>283.8</ele><time>2026-05-02T12:36:50.312Z</time></trkpt><trkpt lat="46.0569584" lon="12.0695065"><ele>284.4</ele><time>2026-05-02T12:36:52.3Z</time></trkpt><trkpt lat="46.0568624" lon="12.0695059"><ele>285.0</ele><time>2026-05-02T12:36:54.312Z</time></trkpt><trkpt lat="46.0567744" lon="12.0695402"><ele>285.0</ele><time>2026-05-02T12:36:56.314Z</time></trkpt><trkpt lat="46.0567047" lon="12.0696037"><ele>285.0</ele><time>2026-05-02T12:36:58.31Z</time></trkpt><trkpt lat="46.0566369" lon="12.0696788"><ele>285.0</ele><time>2026-05-02T12:37:00.316Z</time></trkpt><trkpt lat="46.0565764" lon="12.0697375"><ele>285.0</ele><time>2026-05-02T12:37:02.311Z</time></trkpt><trkpt lat="46.0565105" lon="12.0697352"><ele>285.0</ele><time>2026-05-02T12:37:06.313Z</time></trkpt><trkpt lat="46.0564096" lon="12.0696812"><ele>285.0</ele><time>2026-05-02T12:37:09.309Z</time></trkpt><trkpt lat="46.0563326" lon="12.0696177"><ele>285.3333333333333</ele><time>2026-05-02T12:37:11.308Z</time></trkpt><trkpt lat="46.0562567" lon="12.0695661"><ele>285.6666666666667</ele><time>2026-05-02T12:37:13.309Z</time></trkpt><trkpt lat="46.0561821" lon="12.0695409"><ele>286.0</ele><time>2026-05-02T12:37:15.308Z</time></trkpt><trkpt lat="46.0561074" lon="12.0695214"><ele>286.33333333333337</ele><time>2026-05-02T12:37:17.319Z</time></trkpt><trkpt lat="46.0560159" lon="12.0695156"><ele>286.6666666666667</ele><time>2026-05-02T12:37:19.311Z</time></trkpt><trkpt lat="46.0559319" lon="12.0695315"><ele>287.0</ele><time>2026-05-02T12:37:21.311Z</time></trkpt><trkpt lat="46.0558596" lon="12.0694994"><ele>287.0</ele><time>2026-05-02T12:37:23.304Z</time></trkpt><trkpt lat="46.0558036" lon="12.0694199"><ele>287.0</ele><time>2026-05-02T12:37:25.312Z</time></trkpt><trkpt lat="46.0557509" lon="12.0693335"><ele>287.0</ele><time>2026-05-02T12:37:27.313Z</time></trkpt><trkpt lat="46.0556967" lon="12.0692649"><ele>287.0</ele><time>2026-05-02T12:37:29.312Z</time></trkpt><trkpt lat="46.0556397" lon="12.0691715"><ele>287.0</ele><time>2026-05-02T12:37:31.303Z</time></trkpt><trkpt lat="46.0555835" lon="12.0691123"><ele>287.0</ele><time>2026-05-02T12:37:33.309Z</time></trkpt><trkpt lat="46.055507" lon="12.0690844"><ele>287.1666666666667</ele><time>2026-05-02T12:37:35.311Z</time></trkpt><trkpt lat="46.0554291" lon="12.0690486"><ele>287.33333333333337</ele><time>2026-05-02T12:37:37.312Z</time></trkpt><trkpt lat="46.0553465" lon="12.0690363"><ele>287.5</ele><time>2026-05-02T12:37:39.308Z</time></trkpt><trkpt lat="46.0552635" lon="12.0690696"><ele>287.6666666666667</ele><time>2026-05-02T12:37:41.303Z</time></trkpt><trkpt lat="46.0551834" lon="12.0690749"><ele>287.8333333333333</ele><time>2026-05-02T12:37:43.303Z</time></trkpt><trkpt lat="46.0550999" lon="12.0690779"><ele>288.0</ele><time>2026-05-02T12:37:45.311Z</time></trkpt><trkpt lat="46.0550152" lon="12.0690687"><ele>288.6666666666667</ele><time>2026-05-02T12:37:47.313Z</time></trkpt><trkpt lat="46.0549466" lon="12.069045"><ele>289.3333333333333</ele><time>2026-05-02T12:37:49.31Z</time></trkpt><trkpt lat="46.0548725" lon="12.0689793"><ele>290.0</ele><time>2026-05-02T12:37:51.305Z</time></trkpt><trkpt lat="46.054797" lon="12.0689264"><ele>290.66666666666663</ele><time>2026-05-02T12:37:53.304Z</time></trkpt><trkpt lat="46.0547168" lon="12.0688967"><ele>291.3333333333333</ele><time>2026-05-02T12:37:55.312Z</time></trkpt><trkpt lat="46.0546265" lon="12.0688969"><ele>292.0</ele><time>2026-05-02T12:37:57.31Z</time></trkpt><trkpt lat="46.0545414" lon="12.068891"><ele>292.0</ele><time>2026-05-02T12:37:59.307Z</time></trkpt><trkpt lat="46.0544601" lon="12.0688886"><ele>292.0</ele><time>2026-05-02T12:38:01.308Z</time></trkpt><trkpt lat="46.0543782" lon="12.0689077"><ele>292.0</ele><time>2026-05-02T12:38:03.308Z</time></trkpt><trkpt lat="46.0542937" lon="12.0689325"><ele>292.0</ele><time>2026-05-02T12:38:05.31Z</time></trkpt><trkpt lat="46.0542111" lon="12.06895"><ele>292.0</ele><time>2026-05-02T12:38:07.306Z</time></trkpt><trkpt lat="46.0541303" lon="12.0689641"><ele>292.0</ele><time>2026-05-02T12:38:09.31Z</time></trkpt><trkpt lat="46.0540315" lon="12.0689675"><ele>292.3333333333333</ele><time>2026-05-02T12:38:11.311Z</time></trkpt><trkpt lat="46.0539433" lon="12.0689811"><ele>292.66666666666663</ele><time>2026-05-02T12:38:13.311Z</time></trkpt><trkpt lat="46.053859" lon="12.0690008"><ele>293.0</ele><time>2026-05-02T12:38:15.304Z</time></trkpt><trkpt lat="46.0537738" lon="12.0690086"><ele>293.3333333333333</ele><time>2026-05-02T12:38:17.308Z</time></trkpt><trkpt lat="46.0536825" lon="12.0690413"><ele>293.6666666666667</ele><time>2026-05-02T12:38:19.311Z</time></trkpt><trkpt lat="46.0535883" lon="12.0690519"><ele>294.0</ele><time>2026-05-02T12:38:21.309Z</time></trkpt><trkpt lat="46.0534926" lon="12.0690729"><ele>294.0</ele><time>2026-05-02T12:38:23.304Z</time></trkpt><trkpt lat="46.0534041" lon="12.0690961"><ele>294.0</ele><time>2026-05-02T12:38:25.31Z</time></trkpt><trkpt lat="46.0533079" lon="12.0691154"><ele>294.0</ele><time>2026-05-02T12:38:27.302Z</time></trkpt><trkpt lat="46.0532136" lon="12.0691066"><ele>294.0</ele><time>2026-05-02T12:38:29.3Z</time></trkpt><trkpt lat="46.0531198" lon="12.0691023"><ele>294.0</ele><time>2026-05-02T12:38:31.313Z</time></trkpt><trkpt lat="46.0530323" lon="12.0690935"><ele>294.1666666666667</ele><time>2026-05-02T12:38:33.303Z</time></trkpt><trkpt lat="46.0529519" lon="12.0690866"><ele>294.3333333333333</ele><time>2026-05-02T12:38:35.312Z</time></trkpt><trkpt lat="46.0528637" lon="12.0690824"><ele>294.5</ele><time>2026-05-02T12:38:37.311Z</time></trkpt><trkpt lat="46.0527746" lon="12.0690738"><ele>294.66666666666663</ele><time>2026-05-02T12:38:39.311Z</time></trkpt><trkpt lat="46.0526789" lon="12.0690542"><ele>294.8333333333333</ele><time>2026-05-02T12:38:41.31Z</time></trkpt><trkpt lat="46.0525937" lon="12.0690442"><ele>295.0</ele><time>2026-05-02T12:38:43.306Z</time></trkpt><trkpt lat="46.0525114" lon="12.0690299"><ele>295.3333333333333</ele><time>2026-05-02T12:38:45.311Z</time></trkpt><trkpt lat="46.0524248" lon="12.0690237"><ele>295.66666666666663</ele><time>2026-05-02T12:38:47.305Z</time></trkpt><trkpt lat="46.0523416" lon="12.0690269"><ele>296.0</ele><time>2026-05-02T12:38:49.309Z</time></trkpt><trkpt lat="46.0522524" lon="12.0690243"><ele>296.3333333333333</ele><time>2026-05-02T12:38:51.301Z</time></trkpt><trkpt lat="46.0521708" lon="12.0690631"><ele>296.6666666666667</ele><time>2026-05-02T12:38:53.303Z</time></trkpt><trkpt lat="46.0521059" lon="12.0691167"><ele>297.0</ele><time>2026-05-02T12:38:55.303Z</time></trkpt><trkpt lat="46.0520511" lon="12.0691814"><ele>297.8571428571429</ele><time>2026-05-02T12:39:02.315Z</time></trkpt><trkpt lat="46.0519991" lon="12.0692442"><ele>298.7142857142857</ele><time>2026-05-02T12:39:05.312Z</time></trkpt><trkpt lat="46.0519661" lon="12.0693506"><ele>299.57142857142856</ele><time>2026-05-02T12:39:08.317Z</time></trkpt><trkpt lat="46.0519234" lon="12.069427"><ele>300.42857142857144</ele><time>2026-05-02T12:39:11.313Z</time></trkpt><trkpt lat="46.0518662" lon="12.0694789"><ele>301.2857142857143</ele><time>2026-05-02T12:39:14.304Z</time></trkpt><trkpt lat="46.0518" lon="12.069457"><ele>302.14285714285717</ele><time>2026-05-02T12:39:19.305Z</time></trkpt><trkpt lat="46.0517739" lon="12.0693614"><ele>303.0</ele><time>2026-05-02T12:39:23.32Z</time></trkpt><trkpt lat="46.0517277" lon="12.0692628"><ele>303.0</ele><time>2026-05-02T12:39:28.32Z</time></trkpt><trkpt lat="46.0516705" lon="12.0691426"><ele>303.0</ele><time>2026-05-02T12:39:31.318Z</time></trkpt><trkpt lat="46.0516073" lon="12.069007"><ele>303.0</ele><time>2026-05-02T12:39:33.311Z</time></trkpt><trkpt lat="46.0515654" lon="12.068858"><ele>303.0</ele><time>2026-05-02T12:39:35.303Z</time></trkpt><trkpt lat="46.0515334" lon="12.0687131"><ele>303.0</ele><time>2026-05-02T12:39:37.311Z</time></trkpt><trkpt lat="46.0515091" lon="12.0685883"><ele>302.3333333333333</ele><time>2026-05-02T12:39:39.31Z</time></trkpt><trkpt lat="46.0514812" lon="12.068486"><ele>301.6666666666667</ele><time>2026-05-02T12:39:41.311Z</time></trkpt><trkpt lat="46.0514394" lon="12.0683875"><ele>301.0</ele><time>2026-05-02T12:39:43.305Z</time></trkpt><trkpt lat="46.0513697" lon="12.0683206"><ele>300.33333333333337</ele><time>2026-05-02T12:39:45.304Z</time></trkpt><trkpt lat="46.0513042" lon="12.0682645"><ele>299.6666666666667</ele><time>2026-05-02T12:39:47.32Z</time></trkpt><trkpt lat="46.0512259" lon="12.0682463"><ele>299.0</ele><time>2026-05-02T12:39:49.327Z</time></trkpt><trkpt lat="46.0511588" lon="12.0682163"><ele>299.0</ele><time>2026-05-02T12:39:51.309Z</time></trkpt><trkpt lat="46.0511243" lon="12.0681126"><ele>299.0</ele><time>2026-05-02T12:39:54.308Z</time></trkpt><trkpt lat="46.0511324" lon="12.0680147"><ele>299.0</ele><time>2026-05-02T12:39:56.304Z</time></trkpt><trkpt lat="46.051123" lon="12.0678786"><ele>299.0</ele><time>2026-05-02T12:39:59.309Z</time></trkpt><trkpt lat="46.0511302" lon="12.0677642"><ele>299.0</ele><time>2026-05-02T12:40:02.312Z</time></trkpt><trkpt lat="46.0511264" lon="12.0676179"><ele>299.0</ele><time>2026-05-02T12:40:06.309Z</time></trkpt><trkpt lat="46.0511301" lon="12.0675149"><ele>298.1666666666667</ele><time>2026-05-02T12:40:08.308Z</time></trkpt><trkpt lat="46.0511355" lon="12.0674145"><ele>297.33333333333337</ele><time>2026-05-02T12:40:10.3Z</time></trkpt><trkpt lat="46.0511398" lon="12.0673101"><ele>296.5</ele><time>2026-05-02T12:40:12.302Z</time></trkpt><trkpt lat="46.0511132" lon="12.0671957"><ele>295.6666666666667</ele><time>2026-05-02T12:40:14.311Z</time></trkpt><trkpt lat="46.0510792" lon="12.0671026"><ele>294.8333333333333</ele><time>2026-05-02T12:40:16.308Z</time></trkpt><trkpt lat="46.0510205" lon="12.0670171"><ele>294.0</ele><time>2026-05-02T12:40:19.31Z</time></trkpt><trkpt lat="46.0509576" lon="12.066951"><ele>294.0</ele><time>2026-05-02T12:40:21.311Z</time></trkpt><trkpt lat="46.0508799" lon="12.0669426"><ele>294.0</ele><time>2026-05-02T12:40:23.31Z</time></trkpt><trkpt lat="46.0508101" lon="12.0669322"><ele>294.0</ele><time>2026-05-02T12:40:25.308Z</time></trkpt><trkpt lat="46.0507436" lon="12.0669249"><ele>294.0</ele><time>2026-05-02T12:40:29.304Z</time></trkpt><trkpt lat="46.0506796" lon="12.0669178"><ele>294.0</ele><time>2026-05-02T12:40:32.309Z</time></trkpt><trkpt lat="46.050612" lon="12.0668875"><ele>294.0</ele><time>2026-05-02T12:41:20.316Z</time></trkpt><trkpt lat="46.0505388" lon="12.0669047"><ele>294.0</ele><time>2026-05-02T12:41:24.309Z</time></trkpt><trkpt lat="46.0504587" lon="12.0669211"><ele>294.2857142857143</ele><time>2026-05-02T12:41:27.309Z</time></trkpt><trkpt lat="46.050394" lon="12.0669344"><ele>294.57142857142856</ele><time>2026-05-02T12:41:29.31Z</time></trkpt><trkpt lat="46.0503237" lon="12.0669398"><ele>294.8571428571429</ele><time>2026-05-02T12:41:31.31Z</time></trkpt><trkpt lat="46.0502556" lon="12.0669506"><ele>295.1428571428571</ele><time>2026-05-02T12:41:33.303Z</time></trkpt><trkpt lat="46.0501899" lon="12.0669631"><ele>295.42857142857144</ele><time>2026-05-02T12:41:35.305Z</time></trkpt><trkpt lat="46.050125" lon="12.0669911"><ele>295.7142857142857</ele><time>2026-05-02T12:41:37.316Z</time></trkpt><trkpt lat="46.0500656" lon="12.0670427"><ele>296.0</ele><time>2026-05-02T12:41:39.31Z</time></trkpt><trkpt lat="46.0500105" lon="12.0671045"><ele>296.57142857142856</ele><time>2026-05-02T12:41:41.309Z</time></trkpt><trkpt lat="46.0499577" lon="12.0671696"><ele>297.1428571428571</ele><time>2026-05-02T12:41:43.305Z</time></trkpt><trkpt lat="46.0498995" lon="12.0672236"><ele>297.71428571428567</ele><time>2026-05-02T12:41:45.309Z</time></trkpt><trkpt lat="46.0498335" lon="12.0672607"><ele>298.2857142857143</ele><time>2026-05-02T12:41:47.32Z</time></trkpt><trkpt lat="46.0497655" lon="12.0672909"><ele>298.85714285714283</ele><time>2026-05-02T12:41:49.31Z</time></trkpt><trkpt lat="46.0496933" lon="12.0673186"><ele>299.4285714285714</ele><time>2026-05-02T12:41:51.303Z</time></trkpt><trkpt lat="46.0496228" lon="12.067337"><ele>300.0</ele><time>2026-05-02T12:41:53.301Z</time></trkpt><trkpt lat="46.0495585" lon="12.0673438"><ele>299.99999999999994</ele><time>2026-05-02T12:41:55.311Z</time></trkpt><trkpt lat="46.0494858" lon="12.0673538"><ele>300.0</ele><time>2026-05-02T12:41:57.316Z</time></trkpt><trkpt lat="46.0494071" lon="12.0673583"><ele>300.0</ele><time>2026-05-02T12:41:59.305Z</time></trkpt><trkpt lat="46.0493445" lon="12.0673455"><ele>300.0</ele><time>2026-05-02T12:42:03.31Z</time></trkpt><trkpt lat="46.0492741" lon="12.0673996"><ele>300.0</ele><time>2026-05-02T12:42:06.308Z</time></trkpt><trkpt lat="46.049206" lon="12.0674112"><ele>299.99999999999994</ele><time>2026-05-02T12:42:08.311Z</time></trkpt><trkpt lat="46.0491447" lon="12.0674344"><ele>300.0</ele><time>2026-05-02T12:42:10.307Z</time></trkpt><trkpt lat="46.0490795" lon="12.0675009"><ele>301.2857142857143</ele><time>2026-05-02T12:42:13.31Z</time></trkpt><trkpt lat="46.0490137" lon="12.0675626"><ele>302.57142857142856</ele><time>2026-05-02T12:42:16.309Z</time></trkpt><trkpt lat="46.0489617" lon="12.0676309"><ele>303.8571428571429</ele><time>2026-05-02T12:42:19.309Z</time></trkpt><trkpt lat="46.0489293" lon="12.0677188"><ele>305.1428571428571</ele><time>2026-05-02T12:42:22.308Z</time></trkpt><trkpt lat="46.0489033" lon="12.0678101"><ele>306.42857142857144</ele><time>2026-05-02T12:42:51.427Z</time></trkpt><trkpt lat="46.0489483" lon="12.0678773"><ele>307.7142857142857</ele><time>2026-05-02T12:42:57.315Z</time></trkpt><trkpt lat="46.0490025" lon="12.0679343"><ele>309.0</ele><time>2026-05-02T12:43:04.301Z</time></trkpt><trkpt lat="46.0490616" lon="12.067981"><ele>309.00000000000006</ele><time>2026-05-02T12:43:11.311Z</time></trkpt><trkpt lat="46.0491138" lon="12.0680365"><ele>309.0</ele><time>2026-05-02T12:43:26.309Z</time></trkpt><trkpt lat="46.0491764" lon="12.0680811"><ele>309.0</ele><time>2026-05-02T12:43:33.305Z</time></trkpt><trkpt lat="46.0492349" lon="12.0681507"><ele>309.0</ele><time>2026-05-02T12:43:44.31Z</time></trkpt><trkpt lat="46.0492963" lon="12.0681977"><ele>309.0</ele><time>2026-05-02T12:43:49.312Z</time></trkpt><trkpt lat="46.0493573" lon="12.0681688"><ele>309.00000000000006</ele><time>2026-05-02T12:43:53.303Z</time></trkpt><trkpt lat="46.0494238" lon="12.0681703"><ele>309.0</ele><time>2026-05-02T12:43:56.31Z</time></trkpt><trkpt lat="46.0494801" lon="12.0681002"><ele>309.0</ele><time>2026-05-02T12:44:26.31Z</time></trkpt><trkpt lat="46.0494483" lon="12.0680174"><ele>309.0</ele><time>2026-05-02T12:44:28.307Z</time></trkpt><trkpt lat="46.0493843" lon="12.0679479"><ele>309.0</ele><time>2026-05-02T12:44:30.311Z</time></trkpt><trkpt lat="46.0493095" lon="12.0678743"><ele>309.0</ele><time>2026-05-02T12:44:32.304Z</time></trkpt><trkpt lat="46.0492306" lon="12.0677948"><ele>309.0</ele><time>2026-05-02T12:44:34.311Z</time></trkpt><trkpt lat="46.0491419" lon="12.0677019"><ele>309.0</ele><time>2026-05-02T12:44:36.309Z</time></trkpt><trkpt lat="46.0490553" lon="12.0676091"><ele>309.0</ele><time>2026-05-02T12:44:38.31Z</time></trkpt><trkpt lat="46.0489694" lon="12.0675072"><ele>309.0</ele><time>2026-05-02T12:44:40.306Z</time></trkpt><trkpt lat="46.0488874" lon="12.0674004"><ele>309.0</ele><time>2026-05-02T12:44:42.314Z</time></trkpt><trkpt lat="46.0488017" lon="12.0672792"><ele>309.0</ele><time>2026-05-02T12:44:44.312Z</time></trkpt><trkpt lat="46.0487197" lon="12.0671533"><ele>309.59999999999997</ele><time>2026-05-02T12:44:46.31Z</time></trkpt><trkpt lat="46.0486438" lon="12.06702"><ele>310.2</ele><time>2026-05-02T12:44:48.303Z</time></trkpt><trkpt lat="46.0485695" lon="12.0668859"><ele>310.79999999999995</ele><time>2026-05-02T12:44:50.308Z</time></trkpt><trkpt lat="46.0485306" lon="12.0668144"><ele>311.4</ele><time>2026-05-02T12:44:51.302Z</time></trkpt><trkpt lat="46.0484657" lon="12.0666681"><ele>312.0</ele><time>2026-05-02T12:44:53.31Z</time></trkpt><trkpt lat="46.0484052" lon="12.0665133"><ele>312.0</ele><time>2026-05-02T12:44:55.311Z</time></trkpt><trkpt lat="46.0483486" lon="12.0663647"><ele>312.0</ele><time>2026-05-02T12:44:57.315Z</time></trkpt><trkpt lat="46.0483012" lon="12.066226"><ele>312.0</ele><time>2026-05-02T12:44:59.309Z</time></trkpt><trkpt lat="46.0483208" lon="12.0660837"><ele>312.0</ele><time>2026-05-02T12:45:01.314Z</time></trkpt><trkpt lat="46.0483529" lon="12.0659781"><ele>312.0</ele><time>2026-05-02T12:45:03.307Z</time></trkpt><trkpt lat="46.0483541" lon="12.0658774"><ele>312.0</ele><time>2026-05-02T12:45:05.303Z</time></trkpt><trkpt lat="46.0483304" lon="12.065787"><ele>312.0</ele><time>2026-05-02T12:45:07.318Z</time></trkpt><trkpt lat="46.0483041" lon="12.0656685"><ele>312.0</ele><time>2026-05-02T12:45:09.305Z</time></trkpt><trkpt lat="46.0482824" lon="12.0655454"><ele>312.0</ele><time>2026-05-02T12:45:11.308Z</time></trkpt><trkpt lat="46.0482608" lon="12.065428"><ele>312.0</ele><time>2026-05-02T12:45:13.31Z</time></trkpt><trkpt lat="46.0482482" lon="12.0653051"><ele>312.0</ele><time>2026-05-02T12:45:15.309Z</time></trkpt><trkpt lat="46.0482162" lon="12.065192"><ele>311.8333333333333</ele><time>2026-05-02T12:45:17.315Z</time></trkpt><trkpt lat="46.0481777" lon="12.0650704"><ele>311.6666666666667</ele><time>2026-05-02T12:45:19.311Z</time></trkpt><trkpt lat="46.0481628" lon="12.0649437"><ele>311.5</ele><time>2026-05-02T12:45:21.306Z</time></trkpt><trkpt lat="46.0481549" lon="12.064813"><ele>311.33333333333337</ele><time>2026-05-02T12:45:23.307Z</time></trkpt><trkpt lat="46.0481488" lon="12.0646831"><ele>311.1666666666667</ele><time>2026-05-02T12:45:25.309Z</time></trkpt><trkpt lat="46.0481089" lon="12.0645868"><ele>311.0</ele><time>2026-05-02T12:45:27.326Z</time></trkpt><trkpt lat="46.0480904" lon="12.0644988"><ele>311.0</ele><time>2026-05-02T12:45:29.312Z</time></trkpt><trkpt lat="46.0480883" lon="12.0643926"><ele>311.0</ele><time>2026-05-02T12:45:31.31Z</time></trkpt><trkpt lat="46.0480937" lon="12.0642783"><ele>311.0</ele><time>2026-05-02T12:45:33.304Z</time></trkpt><trkpt lat="46.0481097" lon="12.0641734"><ele>311.0</ele><time>2026-05-02T12:45:35.31Z</time></trkpt><trkpt lat="46.0481078" lon="12.0640466"><ele>311.0</ele><time>2026-05-02T12:45:37.319Z</time></trkpt><trkpt lat="46.0481068" lon="12.0639115"><ele>311.0</ele><time>2026-05-02T12:45:39.304Z</time></trkpt><trkpt lat="46.0481125" lon="12.0637709"><ele>311.0</ele><time>2026-05-02T12:45:41.316Z</time></trkpt><trkpt lat="46.0481319" lon="12.0636436"><ele>311.0</ele><time>2026-05-02T12:45:43.309Z</time></trkpt><trkpt lat="46.0482114" lon="12.0636113"><ele>311.0</ele><time>2026-05-02T12:45:45.31Z</time></trkpt><trkpt lat="46.0482873" lon="12.0636463"><ele>311.0</ele><time>2026-05-02T12:45:47.315Z</time></trkpt><trkpt lat="46.0483461" lon="12.0637076"><ele>311.0</ele><time>2026-05-02T12:45:49.308Z</time></trkpt><trkpt lat="46.0484007" lon="12.0637753"><ele>311.0</ele><time>2026-05-02T12:45:51.309Z</time></trkpt><trkpt lat="46.0484446" lon="12.0638406"><ele>311.1666666666667</ele><time>2026-05-02T12:45:53.31Z</time></trkpt><trkpt lat="46.0485194" lon="12.0639212"><ele>311.33333333333337</ele><time>2026-05-02T12:45:56.31Z</time></trkpt><trkpt lat="46.0486088" lon="12.0639623"><ele>311.5</ele><time>2026-05-02T12:45:59.301Z</time></trkpt><trkpt lat="46.0486727" lon="12.0639005"><ele>311.6666666666667</ele><time>2026-05-02T12:46:01.311Z</time></trkpt><trkpt lat="46.0487404" lon="12.0638341"><ele>311.8333333333333</ele><time>2026-05-02T12:46:03.311Z</time></trkpt><trkpt lat="46.0488093" lon="12.0637738"><ele>312.0</ele><time>2026-05-02T12:46:05.311Z</time></trkpt><trkpt lat="46.0488757" lon="12.0637026"><ele>312.0</ele><time>2026-05-02T12:46:07.319Z</time></trkpt><trkpt lat="46.0489503" lon="12.063625"><ele>312.0</ele><time>2026-05-02T12:46:09.31Z</time></trkpt><trkpt lat="46.0490279" lon="12.0635391"><ele>312.0</ele><time>2026-05-02T12:46:11.311Z</time></trkpt><trkpt lat="46.0491052" lon="12.0634637"><ele>312.0</ele><time>2026-05-02T12:46:13.306Z</time></trkpt><trkpt lat="46.0491818" lon="12.0633733"><ele>312.0</ele><time>2026-05-02T12:46:15.311Z</time></trkpt><trkpt lat="46.0492561" lon="12.0632935"><ele>311.8</ele><time>2026-05-02T12:46:17.319Z</time></trkpt><trkpt lat="46.0493335" lon="12.0632125"><ele>311.6</ele><time>2026-05-02T12:46:19.31Z</time></trkpt><trkpt lat="46.0494099" lon="12.06313"><ele>311.40000000000003</ele><time>2026-05-02T12:46:21.308Z</time></trkpt><trkpt lat="46.0494868" lon="12.0630463"><ele>311.2</ele><time>2026-05-02T12:46:23.309Z</time></trkpt><trkpt lat="46.0495625" lon="12.0629567"><ele>311.0</ele><time>2026-05-02T12:46:25.31Z</time></trkpt><trkpt lat="46.0496136" lon="12.0628466"><ele>311.0</ele><time>2026-05-02T12:46:27.319Z</time></trkpt><trkpt lat="46.0495975" lon="12.0627132"><ele>311.0</ele><time>2026-05-02T12:46:29.315Z</time></trkpt><trkpt lat="46.0495489" lon="12.0625766"><ele>311.0</ele><time>2026-05-02T12:46:31.31Z</time></trkpt><trkpt lat="46.0494815" lon="12.0624382"><ele>311.0</ele><time>2026-05-02T12:46:33.302Z</time></trkpt><trkpt lat="46.0494039" lon="12.0623089"><ele>311.0</ele><time>2026-05-02T12:46:35.31Z</time></trkpt><trkpt lat="46.0493307" lon="12.0621654"><ele>310.5</ele><time>2026-05-02T12:46:37.32Z</time></trkpt><trkpt lat="46.0492531" lon="12.0620298"><ele>310.0</ele><time>2026-05-02T12:46:39.311Z</time></trkpt><trkpt lat="46.0491881" lon="12.0618937"><ele>309.5</ele><time>2026-05-02T12:46:41.308Z</time></trkpt><trkpt lat="46.0491292" lon="12.0617619"><ele>309.0</ele><time>2026-05-02T12:46:43.31Z</time></trkpt><trkpt lat="46.0490594" lon="12.061631"><ele>309.0</ele><time>2026-05-02T12:46:45.311Z</time></trkpt><trkpt lat="46.0489916" lon="12.061496"><ele>309.0</ele><time>2026-05-02T12:46:47.32Z</time></trkpt><trkpt lat="46.0489189" lon="12.0613589"><ele>309.0</ele><time>2026-05-02T12:46:49.308Z</time></trkpt><trkpt lat="46.0488478" lon="12.0612237"><ele>309.0</ele><time>2026-05-02T12:46:51.422Z</time></trkpt><trkpt lat="46.0487795" lon="12.0610983"><ele>309.0</ele><time>2026-05-02T12:46:53.298Z</time></trkpt><trkpt lat="46.0487143" lon="12.0609728"><ele>309.0</ele><time>2026-05-02T12:46:55.311Z</time></trkpt><trkpt lat="46.0486603" lon="12.0608466"><ele>309.0</ele><time>2026-05-02T12:46:57.316Z</time></trkpt><trkpt lat="46.048612" lon="12.060728"><ele>309.0</ele><time>2026-05-02T12:46:59.304Z</time></trkpt><trkpt lat="46.0486068" lon="12.0605849"><ele>309.0</ele><time>2026-05-02T12:47:01.31Z</time></trkpt><trkpt lat="46.0486476" lon="12.0604481"><ele>309.1666666666667</ele><time>2026-05-02T12:47:03.31Z</time></trkpt><trkpt lat="46.0487321" lon="12.060345"><ele>309.3333333333333</ele><time>2026-05-02T12:47:05.303Z</time></trkpt><trkpt lat="46.0488362" lon="12.0602663"><ele>309.5</ele><time>2026-05-02T12:47:07.313Z</time></trkpt><trkpt lat="46.0488949" lon="12.0602321"><ele>309.66666666666663</ele><time>2026-05-02T12:47:08.311Z</time></trkpt><trkpt lat="46.0489535" lon="12.0601938"><ele>309.8333333333333</ele><time>2026-05-02T12:47:09.309Z</time></trkpt><trkpt lat="46.0490135" lon="12.0601561"><ele>310.0</ele><time>2026-05-02T12:47:10.308Z</time></trkpt><trkpt lat="46.0490716" lon="12.0601145"><ele>309.7142857142857</ele><time>2026-05-02T12:47:11.311Z</time></trkpt><trkpt lat="46.0491299" lon="12.0600677"><ele>309.42857142857144</ele><time>2026-05-02T12:47:12.31Z</time></trkpt><trkpt lat="46.049191" lon="12.0600296"><ele>309.1428571428571</ele><time>2026-05-02T12:47:13.31Z</time></trkpt><trkpt lat="46.0492501" lon="12.0599873"><ele>308.8571428571429</ele><time>2026-05-02T12:47:14.311Z</time></trkpt><trkpt lat="46.0493095" lon="12.0599461"><ele>308.57142857142856</ele><time>2026-05-02T12:47:15.309Z</time></trkpt><trkpt lat="46.049373" lon="12.0599038"><ele>308.2857142857143</ele><time>2026-05-02T12:47:16.307Z</time></trkpt><trkpt lat="46.0494384" lon="12.0598611"><ele>308.0</ele><time>2026-05-02T12:47:17.318Z</time></trkpt><trkpt lat="46.0495036" lon="12.0598166"><ele>307.42857142857144</ele><time>2026-05-02T12:47:18.311Z</time></trkpt><trkpt lat="46.0495703" lon="12.0597742"><ele>306.8571428571429</ele><time>2026-05-02T12:47:19.31Z</time></trkpt><trkpt lat="46.049637" lon="12.0597346"><ele>306.2857142857143</ele><time>2026-05-02T12:47:20.309Z</time></trkpt><trkpt lat="46.0496984" lon="12.0596922"><ele>305.7142857142857</ele><time>2026-05-02T12:47:21.311Z</time></trkpt><trkpt lat="46.0497626" lon="12.0596609"><ele>305.14285714285717</ele><time>2026-05-02T12:47:22.309Z</time></trkpt><trkpt lat="46.0498276" lon="12.0596248"><ele>304.57142857142856</ele><time>2026-05-02T12:47:23.303Z</time></trkpt><trkpt lat="46.0498882" lon="12.0595953"><ele>304.0</ele><time>2026-05-02T12:47:24.31Z</time></trkpt><trkpt lat="46.0499495" lon="12.0595663"><ele>304.1428571428571</ele><time>2026-05-02T12:47:25.31Z</time></trkpt><trkpt lat="46.0500121" lon="12.0595388"><ele>304.28571428571433</ele><time>2026-05-02T12:47:26.309Z</time></trkpt><trkpt lat="46.0501283" lon="12.0594823"><ele>304.42857142857144</ele><time>2026-05-02T12:47:28.31Z</time></trkpt><trkpt lat="46.0501861" lon="12.0594462"><ele>304.57142857142856</ele><time>2026-05-02T12:47:29.31Z</time></trkpt><trkpt lat="46.0502487" lon="12.0594152"><ele>304.71428571428567</ele><time>2026-05-02T12:47:30.31Z</time></trkpt><trkpt lat="46.0503099" lon="12.0593828"><ele>304.8571428571429</ele><time>2026-05-02T12:47:31.304Z</time></trkpt><trkpt lat="46.0503717" lon="12.0593485"><ele>305.0</ele><time>2026-05-02T12:47:32.303Z</time></trkpt><trkpt lat="46.0504312" lon="12.0593127"><ele>305.0</ele><time>2026-05-02T12:47:33.308Z</time></trkpt><trkpt lat="46.0504923" lon="12.0592802"><ele>305.0</ele><time>2026-05-02T12:47:34.305Z</time></trkpt><trkpt lat="46.0505544" lon="12.0592463"><ele>305.0</ele><time>2026-05-02T12:47:35.307Z</time></trkpt><trkpt lat="46.0506204" lon="12.0592142"><ele>305.0</ele><time>2026-05-02T12:47:36.301Z</time></trkpt><trkpt lat="46.0506799" lon="12.0591824"><ele>305.0</ele><time>2026-05-02T12:47:37.32Z</time></trkpt><trkpt lat="46.0507381" lon="12.0591478"><ele>305.0</ele><time>2026-05-02T12:47:38.311Z</time></trkpt><trkpt lat="46.0507973" lon="12.0591128"><ele>305.0</ele><time>2026-05-02T12:47:39.308Z</time></trkpt><trkpt lat="46.0508571" lon="12.0590841"><ele>304.6</ele><time>2026-05-02T12:47:40.303Z</time></trkpt><trkpt lat="46.0509758" lon="12.0590213"><ele>304.2</ele><time>2026-05-02T12:47:42.309Z</time></trkpt><trkpt lat="46.05109" lon="12.0589613"><ele>303.8</ele><time>2026-05-02T12:47:44.301Z</time></trkpt><trkpt lat="46.0512059" lon="12.0588967"><ele>303.4</ele><time>2026-05-02T12:47:46.3Z</time></trkpt><trkpt lat="46.0512653" lon="12.0588607"><ele>303.0</ele><time>2026-05-02T12:47:47.321Z</time></trkpt><trkpt lat="46.0513253" lon="12.0588249"><ele>303.0</ele><time>2026-05-02T12:47:48.31Z</time></trkpt><trkpt lat="46.0513896" lon="12.0587912"><ele>303.0</ele><time>2026-05-02T12:47:49.309Z</time></trkpt><trkpt lat="46.0514503" lon="12.058759"><ele>303.0</ele><time>2026-05-02T12:47:50.312Z</time></trkpt><trkpt lat="46.0515107" lon="12.0587232"><ele>303.0</ele><time>2026-05-02T12:47:51.302Z</time></trkpt><trkpt lat="46.0515709" lon="12.0586802"><ele>303.0</ele><time>2026-05-02T12:47:52.309Z</time></trkpt><trkpt lat="46.0516353" lon="12.0586375"><ele>303.0</ele><time>2026-05-02T12:47:53.311Z</time></trkpt><trkpt lat="46.0516982" lon="12.0585891"><ele>303.0</ele><time>2026-05-02T12:47:54.31Z</time></trkpt><trkpt lat="46.0517589" lon="12.058538"><ele>302.8571428571429</ele><time>2026-05-02T12:47:55.305Z</time></trkpt><trkpt lat="46.0518195" lon="12.058485"><ele>302.7142857142857</ele><time>2026-05-02T12:47:56.312Z</time></trkpt><trkpt lat="46.051878" lon="12.058427"><ele>302.57142857142856</ele><time>2026-05-02T12:47:57.312Z</time></trkpt><trkpt lat="46.0519377" lon="12.0583691"><ele>302.42857142857144</ele><time>2026-05-02T12:47:58.31Z</time></trkpt><trkpt lat="46.0519977" lon="12.0583104"><ele>302.2857142857143</ele><time>2026-05-02T12:47:59.301Z</time></trkpt><trkpt lat="46.0520536" lon="12.0582575"><ele>302.14285714285717</ele><time>2026-05-02T12:48:00.309Z</time></trkpt><trkpt lat="46.0521108" lon="12.0582009"><ele>302.0</ele><time>2026-05-02T12:48:01.302Z</time></trkpt><trkpt lat="46.0521691" lon="12.0581469"><ele>301.7142857142857</ele><time>2026-05-02T12:48:02.302Z</time></trkpt><trkpt lat="46.0522267" lon="12.0580921"><ele>301.42857142857144</ele><time>2026-05-02T12:48:03.303Z</time></trkpt><trkpt lat="46.0522828" lon="12.0580408"><ele>301.1428571428571</ele><time>2026-05-02T12:48:04.304Z</time></trkpt><trkpt lat="46.0523388" lon="12.0579856"><ele>300.8571428571429</ele><time>2026-05-02T12:48:05.309Z</time></trkpt><trkpt lat="46.0523959" lon="12.0579337"><ele>300.57142857142856</ele><time>2026-05-02T12:48:06.31Z</time></trkpt><trkpt lat="46.0524526" lon="12.0578805"><ele>300.2857142857143</ele><time>2026-05-02T12:48:07.323Z</time></trkpt><trkpt lat="46.0525083" lon="12.0578248"><ele>300.0</ele><time>2026-05-02T12:48:08.306Z</time></trkpt><trkpt lat="46.0525652" lon="12.0577745"><ele>299.57142857142856</ele><time>2026-05-02T12:48:09.31Z</time></trkpt><trkpt lat="46.0526194" lon="12.0577216"><ele>299.1428571428571</ele><time>2026-05-02T12:48:10.311Z</time></trkpt><trkpt lat="46.0526757" lon="12.0576665"><ele>298.7142857142857</ele><time>2026-05-02T12:48:11.309Z</time></trkpt><trkpt lat="46.052734" lon="12.0576174"><ele>298.2857142857143</ele><time>2026-05-02T12:48:12.301Z</time></trkpt><trkpt lat="46.0527929" lon="12.0575665"><ele>297.8571428571429</ele><time>2026-05-02T12:48:13.307Z</time></trkpt><trkpt lat="46.0528493" lon="12.0575132"><ele>297.42857142857144</ele><time>2026-05-02T12:48:14.309Z</time></trkpt><trkpt lat="46.0529046" lon="12.0574614"><ele>297.0</ele><time>2026-05-02T12:48:15.31Z</time></trkpt><trkpt lat="46.0529567" lon="12.0574084"><ele>297.0</ele><time>2026-05-02T12:48:16.303Z</time></trkpt><trkpt lat="46.0530114" lon="12.0573566"><ele>297.0</ele><time>2026-05-02T12:48:17.325Z</time></trkpt><trkpt lat="46.0530656" lon="12.057306"><ele>297.0</ele><time>2026-05-02T12:48:18.309Z</time></trkpt><trkpt lat="46.0531199" lon="12.0572583"><ele>297.0</ele><time>2026-05-02T12:48:19.311Z</time></trkpt><trkpt lat="46.053173" lon="12.0572086"><ele>297.0</ele><time>2026-05-02T12:48:20.309Z</time></trkpt><trkpt lat="46.0532266" lon="12.0571582"><ele>297.0</ele><time>2026-05-02T12:48:21.309Z</time></trkpt><trkpt lat="46.0533293" lon="12.0570588"><ele>297.0</ele><time>2026-05-02T12:48:23.308Z</time></trkpt><trkpt lat="46.0534342" lon="12.0569578"><ele>296.8</ele><time>2026-05-02T12:48:25.301Z</time></trkpt><trkpt lat="46.0535384" lon="12.0568597"><ele>296.6</ele><time>2026-05-02T12:48:27.318Z</time></trkpt><trkpt lat="46.0536428" lon="12.0567672"><ele>296.40000000000003</ele><time>2026-05-02T12:48:29.303Z</time></trkpt><trkpt lat="46.0537394" lon="12.0566691"><ele>296.2</ele><time>2026-05-02T12:48:31.306Z</time></trkpt><trkpt lat="46.053793" lon="12.0566191"><ele>296.0</ele><time>2026-05-02T12:48:32.309Z</time></trkpt><trkpt lat="46.0538914" lon="12.0565192"><ele>296.0</ele><time>2026-05-02T12:48:34.305Z</time></trkpt><trkpt lat="46.0539901" lon="12.0564314"><ele>296.0</ele><time>2026-05-02T12:48:36.311Z</time></trkpt><trkpt lat="46.0540892" lon="12.0563533"><ele>296.0</ele><time>2026-05-02T12:48:38.311Z</time></trkpt><trkpt lat="46.0541513" lon="12.0562575"><ele>296.0</ele><time>2026-05-02T12:48:40.308Z</time></trkpt><trkpt lat="46.0541355" lon="12.0561265"><ele>296.0</ele><time>2026-05-02T12:48:42.311Z</time></trkpt><trkpt lat="46.0540727" lon="12.05599"><ele>296.0</ele><time>2026-05-02T12:48:44.309Z</time></trkpt><trkpt lat="46.0539958" lon="12.0558449"><ele>296.0</ele><time>2026-05-02T12:48:46.309Z</time></trkpt><trkpt lat="46.0539203" lon="12.0557012"><ele>296.0</ele><time>2026-05-02T12:48:48.31Z</time></trkpt><trkpt lat="46.0538837" lon="12.0556264"><ele>296.0</ele><time>2026-05-02T12:48:49.307Z</time></trkpt><trkpt lat="46.0538465" lon="12.055551"><ele>296.0</ele><time>2026-05-02T12:48:50.304Z</time></trkpt><trkpt lat="46.053808" lon="12.0554765"><ele>296.0</ele><time>2026-05-02T12:48:51.422Z</time></trkpt><trkpt lat="46.0537301" lon="12.055326"><ele>295.6666666666667</ele><time>2026-05-02T12:48:53.3Z</time></trkpt><trkpt lat="46.0536912" lon="12.0552495"><ele>295.33333333333337</ele><time>2026-05-02T12:48:54.304Z</time></trkpt><trkpt lat="46.0536515" lon="12.0551749"><ele>295.0</ele><time>2026-05-02T12:48:55.309Z</time></trkpt><trkpt lat="46.0536138" lon="12.0550995"><ele>294.6666666666667</ele><time>2026-05-02T12:48:56.308Z</time></trkpt><trkpt lat="46.0535756" lon="12.0550271"><ele>294.3333333333333</ele><time>2026-05-02T12:48:57.308Z</time></trkpt><trkpt lat="46.053503" lon="12.0548874"><ele>294.0</ele><time>2026-05-02T12:48:59.309Z</time></trkpt><trkpt lat="46.0534273" lon="12.0547524"><ele>294.0</ele><time>2026-05-02T12:49:01.309Z</time></trkpt><trkpt lat="46.0533603" lon="12.0546149"><ele>294.0</ele><time>2026-05-02T12:49:03.307Z</time></trkpt><trkpt lat="46.0533024" lon="12.0544788"><ele>294.0</ele><time>2026-05-02T12:49:05.309Z</time></trkpt><trkpt lat="46.0532973" lon="12.0543199"><ele>294.0</ele><time>2026-05-02T12:49:07.315Z</time></trkpt><trkpt lat="46.0533004" lon="12.0541528"><ele>294.1666666666667</ele><time>2026-05-02T12:49:09.309Z</time></trkpt><trkpt lat="46.0532779" lon="12.0540632"><ele>294.3333333333333</ele><time>2026-05-02T12:49:10.309Z</time></trkpt><trkpt lat="46.0532586" lon="12.0539692"><ele>294.5</ele><time>2026-05-02T12:49:11.309Z</time></trkpt><trkpt lat="46.0532573" lon="12.0538608"><ele>294.66666666666663</ele><time>2026-05-02T12:49:12.309Z</time></trkpt><trkpt lat="46.0532687" lon="12.0537466"><ele>294.8333333333333</ele><time>2026-05-02T12:49:13.319Z</time></trkpt><trkpt lat="46.0532859" lon="12.053626"><ele>295.0</ele><time>2026-05-02T12:49:14.31Z</time></trkpt><trkpt lat="46.0533162" lon="12.0535271"><ele>295.00000000000006</ele><time>2026-05-02T12:49:15.305Z</time></trkpt><trkpt lat="46.0533467" lon="12.0534319"><ele>295.0</ele><time>2026-05-02T12:49:16.299Z</time></trkpt><trkpt lat="46.0533664" lon="12.0533318"><ele>295.0</ele><time>2026-05-02T12:49:17.321Z</time></trkpt><trkpt lat="46.0533711" lon="12.0532266"><ele>295.0</ele><time>2026-05-02T12:49:18.301Z</time></trkpt><trkpt lat="46.0533632" lon="12.0531339"><ele>295.0</ele><time>2026-05-02T12:49:19.312Z</time></trkpt><trkpt lat="46.0533577" lon="12.0530416"><ele>295.00000000000006</ele><time>2026-05-02T12:49:20.308Z</time></trkpt><trkpt lat="46.053372" lon="12.0529474"><ele>295.0</ele><time>2026-05-02T12:49:21.309Z</time></trkpt><trkpt lat="46.0534005" lon="12.0528591"><ele>294.8333333333333</ele><time>2026-05-02T12:49:22.307Z</time></trkpt><trkpt lat="46.0534447" lon="12.0527857"><ele>294.66666666666663</ele><time>2026-05-02T12:49:23.305Z</time></trkpt><trkpt lat="46.0534799" lon="12.0527083"><ele>294.5</ele><time>2026-05-02T12:49:24.307Z</time></trkpt><trkpt lat="46.053537" lon="12.0526086"><ele>294.3333333333333</ele><time>2026-05-02T12:49:25.309Z</time></trkpt><trkpt lat="46.0535823" lon="12.0525273"><ele>294.1666666666667</ele><time>2026-05-02T12:49:26.31Z</time></trkpt><trkpt lat="46.0536341" lon="12.0524425"><ele>294.0</ele><time>2026-05-02T12:49:27.316Z</time></trkpt><trkpt lat="46.0536893" lon="12.0523581"><ele>294.0</ele><time>2026-05-02T12:49:28.302Z</time></trkpt><trkpt lat="46.0537353" lon="12.0522553"><ele>294.0</ele><time>2026-05-02T12:49:29.312Z</time></trkpt><trkpt lat="46.0537741" lon="12.0521575"><ele>294.0</ele><time>2026-05-02T12:49:30.3Z</time></trkpt><trkpt lat="46.0538052" lon="12.0520575"><ele>294.0</ele><time>2026-05-02T12:49:31.309Z</time></trkpt><trkpt lat="46.0538351" lon="12.0519774"><ele>294.0</ele><time>2026-05-02T12:49:32.31Z</time></trkpt><trkpt lat="46.0538749" lon="12.0518887"><ele>294.0</ele><time>2026-05-02T12:49:33.301Z</time></trkpt><trkpt lat="46.0539299" lon="12.0518266"><ele>294.0</ele><time>2026-05-02T12:49:34.305Z</time></trkpt><trkpt lat="46.0539991" lon="12.051789"><ele>294.0</ele><time>2026-05-02T12:49:35.308Z</time></trkpt><trkpt lat="46.0540667" lon="12.0517823"><ele>294.0</ele><time>2026-05-02T12:49:36.308Z</time></trkpt><trkpt lat="46.0541383" lon="12.0517481"><ele>294.0</ele><time>2026-05-02T12:49:37.301Z</time></trkpt><trkpt lat="46.0541965" lon="12.0516732"><ele>294.0</ele><time>2026-05-02T12:49:38.313Z</time></trkpt><trkpt lat="46.0542431" lon="12.0515859"><ele>294.0</ele><time>2026-05-02T12:49:39.306Z</time></trkpt><trkpt lat="46.0542798" lon="12.0514925"><ele>294.0</ele><time>2026-05-02T12:49:40.303Z</time></trkpt><trkpt lat="46.0543275" lon="12.0514113"><ele>294.0</ele><time>2026-05-02T12:49:41.304Z</time></trkpt><trkpt lat="46.0543743" lon="12.0513358"><ele>290.8</ele><time>2026-05-02T12:49:42.31Z</time></trkpt><trkpt lat="46.0544241" lon="12.0512772"><ele>287.59999999999997</ele><time>2026-05-02T12:49:43.312Z</time></trkpt><trkpt lat="46.0545275" lon="12.0512494"><ele>284.4</ele><time>2026-05-02T12:49:45.31Z</time></trkpt><trkpt lat="46.0546064" lon="12.0513292"><ele>281.2</ele><time>2026-05-02T12:49:47.312Z</time></trkpt><trkpt lat="46.0546835" lon="12.05145"><ele>278.0</ele><time>2026-05-02T12:49:49.305Z</time></trkpt><trkpt lat="46.054801" lon="12.0514802"><ele>278.0</ele><time>2026-05-02T12:49:51.31Z</time></trkpt><trkpt lat="46.0549262" lon="12.0514428"><ele>278.0</ele><time>2026-05-02T12:49:53.312Z</time></trkpt><trkpt lat="46.0549887" lon="12.0514118"><ele>278.0</ele><time>2026-05-02T12:49:54.301Z</time></trkpt><trkpt lat="46.0550511" lon="12.0513849"><ele>278.0</ele><time>2026-05-02T12:49:55.311Z</time></trkpt><trkpt lat="46.0551278" lon="12.051361"><ele>278.0</ele><time>2026-05-02T12:49:57.303Z</time></trkpt><trkpt lat="46.0550568" lon="12.051343"><ele>278.0</ele><time>2026-05-02T12:50:04.3Z</time></trkpt><trkpt lat="46.0550234" lon="12.0512583"><ele>278.0</ele><time>2026-05-02T12:50:09.302Z</time></trkpt><trkpt lat="46.0549948" lon="12.0511185"><ele>278.0</ele><time>2026-05-02T12:50:11.303Z</time></trkpt><trkpt lat="46.0549636" lon="12.0509662"><ele>278.0</ele><time>2026-05-02T12:50:13.303Z</time></trkpt><trkpt lat="46.054934" lon="12.0508086"><ele>278.0</ele><time>2026-05-02T12:50:15.311Z</time></trkpt><trkpt lat="46.054905" lon="12.0506662"><ele>278.0</ele><time>2026-05-02T12:50:17.314Z</time></trkpt><trkpt lat="46.0548808" lon="12.0505335"><ele>276.8</ele><time>2026-05-02T12:50:19.308Z</time></trkpt><trkpt lat="46.0548612" lon="12.0503881"><ele>275.6</ele><time>2026-05-02T12:50:21.301Z</time></trkpt><trkpt lat="46.0548307" lon="12.0502505"><ele>274.4</ele><time>2026-05-02T12:50:23.308Z</time></trkpt><trkpt lat="46.0548011" lon="12.0501113"><ele>273.2</ele><time>2026-05-02T12:50:25.313Z</time></trkpt><trkpt lat="46.054769" lon="12.049974"><ele>272.0</ele><time>2026-05-02T12:50:27.3Z</time></trkpt><trkpt lat="46.0547441" lon="12.0498217"><ele>270.0</ele><time>2026-05-02T12:50:29.299Z</time></trkpt><trkpt lat="46.0547266" lon="12.0496634"><ele>268.0</ele><time>2026-05-02T12:50:31.308Z</time></trkpt><trkpt lat="46.0547078" lon="12.0495103"><ele>266.0</ele><time>2026-05-02T12:50:33.307Z</time></trkpt><trkpt lat="46.0546837" lon="12.0493491"><ele>264.0</ele><time>2026-05-02T12:50:35.312Z</time></trkpt><trkpt lat="46.0547105" lon="12.0491868"><ele>262.0</ele><time>2026-05-02T12:50:37.299Z</time></trkpt><trkpt lat="46.05471" lon="12.0490249"><ele>261.4</ele><time>2026-05-02T12:50:39.309Z</time></trkpt><trkpt lat="46.0546864" lon="12.048886"><ele>260.79999999999995</ele><time>2026-05-02T12:50:41.311Z</time></trkpt><trkpt lat="46.0546481" lon="12.0487523"><ele>260.2</ele><time>2026-05-02T12:50:43.3Z</time></trkpt><trkpt lat="46.0545822" lon="12.0486477"><ele>259.59999999999997</ele><time>2026-05-02T12:50:45.308Z</time></trkpt><trkpt lat="46.0545098" lon="12.0485314"><ele>259.0</ele><time>2026-05-02T12:50:47.299Z</time></trkpt><trkpt lat="46.0544381" lon="12.0484121"><ele>259.0</ele><time>2026-05-02T12:50:49.308Z</time></trkpt><trkpt lat="46.0543644" lon="12.0483026"><ele>259.0</ele><time>2026-05-02T12:50:51.309Z</time></trkpt><trkpt lat="46.054293" lon="12.0481733"><ele>259.0</ele><time>2026-05-02T12:50:53.308Z</time></trkpt><trkpt lat="46.0542349" lon="12.0480357"><ele>259.0</ele><time>2026-05-02T12:50:55.31Z</time></trkpt><trkpt lat="46.0541831" lon="12.0478964"><ele>259.0</ele><time>2026-05-02T12:50:57.301Z</time></trkpt><trkpt lat="46.054128" lon="12.0477664"><ele>261.2</ele><time>2026-05-02T12:50:59.3Z</time></trkpt><trkpt lat="46.0540738" lon="12.047639"><ele>263.4</ele><time>2026-05-02T12:51:01.303Z</time></trkpt><trkpt lat="46.0540157" lon="12.04752"><ele>265.6</ele><time>2026-05-02T12:51:03.309Z</time></trkpt><trkpt lat="46.0539576" lon="12.0474103"><ele>267.8</ele><time>2026-05-02T12:51:05.309Z</time></trkpt><trkpt lat="46.0538976" lon="12.0473112"><ele>270.0</ele><time>2026-05-02T12:51:07.309Z</time></trkpt><trkpt lat="46.0538338" lon="12.0472116"><ele>270.0</ele><time>2026-05-02T12:51:09.301Z</time></trkpt><trkpt lat="46.0537876" lon="12.0470702"><ele>270.0</ele><time>2026-05-02T12:51:11.298Z</time></trkpt><trkpt lat="46.053733" lon="12.0469235"><ele>270.0</ele><time>2026-05-02T12:51:13.309Z</time></trkpt><trkpt lat="46.0536976" lon="12.046766"><ele>270.0</ele><time>2026-05-02T12:51:15.301Z</time></trkpt><trkpt lat="46.0536724" lon="12.0466825"><ele>270.0</ele><time>2026-05-02T12:51:16.312Z</time></trkpt><trkpt lat="46.053665" lon="12.0465126"><ele>268.6</ele><time>2026-05-02T12:51:18.311Z</time></trkpt><trkpt lat="46.0536614" lon="12.0463319"><ele>267.2</ele><time>2026-05-02T12:51:20.308Z</time></trkpt><trkpt lat="46.0536587" lon="12.0462349"><ele>265.8</ele><time>2026-05-02T12:51:21.311Z</time></trkpt><trkpt lat="46.053695" lon="12.0460784"><ele>264.4</ele><time>2026-05-02T12:51:23.309Z</time></trkpt><trkpt lat="46.053757" lon="12.0459301"><ele>263.0</ele><time>2026-05-02T12:51:25.3Z</time></trkpt><trkpt lat="46.053756" lon="12.0457538"><ele>262.7142857142857</ele><time>2026-05-02T12:51:27.314Z</time></trkpt><trkpt lat="46.05374" lon="12.0456654"><ele>262.4285714285714</ele><time>2026-05-02T12:51:28.309Z</time></trkpt><trkpt lat="46.0537333" lon="12.0455704"><ele>262.1428571428571</ele><time>2026-05-02T12:51:29.3Z</time></trkpt><trkpt lat="46.0537257" lon="12.0454736"><ele>261.85714285714283</ele><time>2026-05-02T12:51:30.3Z</time></trkpt><trkpt lat="46.0537128" lon="12.0453815"><ele>261.57142857142856</ele><time>2026-05-02T12:51:31.312Z</time></trkpt><trkpt lat="46.0536977" lon="12.0452918"><ele>261.2857142857143</ele><time>2026-05-02T12:51:32.308Z</time></trkpt><trkpt lat="46.0536785" lon="12.0452011"><ele>261.0</ele><time>2026-05-02T12:51:33.305Z</time></trkpt><trkpt lat="46.0536258" lon="12.0450447"><ele>260.6</ele><time>2026-05-02T12:51:35.304Z</time></trkpt><trkpt lat="46.053571" lon="12.044914"><ele>260.20000000000005</ele><time>2026-05-02T12:51:37.308Z</time></trkpt><trkpt lat="46.0534831" lon="12.044849"><ele>259.79999999999995</ele><time>2026-05-02T12:51:39.309Z</time></trkpt><trkpt lat="46.0533884" lon="12.0448438"><ele>259.4</ele><time>2026-05-02T12:51:41.307Z</time></trkpt><trkpt lat="46.0532939" lon="12.0448172"><ele>259.0</ele><time>2026-05-02T12:51:43.309Z</time></trkpt><trkpt lat="46.0532362" lon="12.0447289"><ele>261.0</ele><time>2026-05-02T12:51:45.309Z</time></trkpt><trkpt lat="46.0532027" lon="12.044614"><ele>263.0</ele><time>2026-05-02T12:51:47.301Z</time></trkpt><trkpt lat="46.0531685" lon="12.044479"><ele>265.0</ele><time>2026-05-02T12:51:49.312Z</time></trkpt><trkpt lat="46.053129" lon="12.0443438"><ele>267.0</ele><time>2026-05-02T12:51:51.309Z</time></trkpt><trkpt lat="46.0530916" lon="12.044197"><ele>269.0</ele><time>2026-05-02T12:51:53.303Z</time></trkpt><trkpt lat="46.0530416" lon="12.0440665"><ele>269.0</ele><time>2026-05-02T12:51:55.31Z</time></trkpt><trkpt lat="46.0530196" lon="12.0439117"><ele>269.0</ele><time>2026-05-02T12:51:57.303Z</time></trkpt><trkpt lat="46.0529982" lon="12.0437537"><ele>269.0</ele><time>2026-05-02T12:51:59.309Z</time></trkpt><trkpt lat="46.0529651" lon="12.0436136"><ele>269.0</ele><time>2026-05-02T12:52:01.314Z</time></trkpt><trkpt lat="46.05293" lon="12.043477"><ele>269.0</ele><time>2026-05-02T12:52:03.31Z</time></trkpt><trkpt lat="46.0529211" lon="12.0433254"><ele>267.59999999999997</ele><time>2026-05-02T12:52:05.301Z</time></trkpt><trkpt lat="46.0529248" lon="12.0431631"><ele>266.2</ele><time>2026-05-02T12:52:07.323Z</time></trkpt><trkpt lat="46.0529378" lon="12.0430047"><ele>264.79999999999995</ele><time>2026-05-02T12:52:09.298Z</time></trkpt><trkpt lat="46.0529178" lon="12.0428509"><ele>263.4</ele><time>2026-05-02T12:52:11.309Z</time></trkpt><trkpt lat="46.0528591" lon="12.0427347"><ele>262.0</ele><time>2026-05-02T12:52:13.3Z</time></trkpt><trkpt lat="46.0528103" lon="12.042613"><ele>262.0</ele><time>2026-05-02T12:52:15.302Z</time></trkpt><trkpt lat="46.0527559" lon="12.0424959"><ele>262.0</ele><time>2026-05-02T12:52:17.311Z</time></trkpt><trkpt lat="46.0527208" lon="12.0423686"><ele>262.0</ele><time>2026-05-02T12:52:19.307Z</time></trkpt><trkpt lat="46.0527091" lon="12.0422026"><ele>262.0</ele><time>2026-05-02T12:52:21.301Z</time></trkpt><trkpt lat="46.0527067" lon="12.0421093"><ele>262.0</ele><time>2026-05-02T12:52:22.309Z</time></trkpt><trkpt lat="46.0527021" lon="12.0420105"><ele>262.0</ele><time>2026-05-02T12:52:23.308Z</time></trkpt><trkpt lat="46.052697" lon="12.041916"><ele>261.3333333333333</ele><time>2026-05-02T12:52:24.308Z</time></trkpt><trkpt lat="46.0526869" lon="12.0418212"><ele>260.66666666666663</ele><time>2026-05-02T12:52:25.308Z</time></trkpt><trkpt lat="46.0526721" lon="12.0417224"><ele>260.0</ele><time>2026-05-02T12:52:26.301Z</time></trkpt><trkpt lat="46.0526589" lon="12.0416287"><ele>259.3333333333333</ele><time>2026-05-02T12:52:27.309Z</time></trkpt><trkpt lat="46.0526503" lon="12.0415348"><ele>258.6666666666667</ele><time>2026-05-02T12:52:28.302Z</time></trkpt><trkpt lat="46.0526377" lon="12.0413834"><ele>258.0</ele><time>2026-05-02T12:52:30.299Z</time></trkpt><trkpt lat="46.0525632" lon="12.0412915"><ele>257.6666666666667</ele><time>2026-05-02T12:52:33.307Z</time></trkpt><trkpt lat="46.0524936" lon="12.0412635"><ele>257.3333333333333</ele><time>2026-05-02T12:52:35.309Z</time></trkpt><trkpt lat="46.0524152" lon="12.041244"><ele>257.0</ele><time>2026-05-02T12:52:37.301Z</time></trkpt><trkpt lat="46.0523375" lon="12.0412037"><ele>256.66666666666663</ele><time>2026-05-02T12:52:39.309Z</time></trkpt><trkpt lat="46.0522659" lon="12.0411463"><ele>256.3333333333333</ele><time>2026-05-02T12:52:41.309Z</time></trkpt><trkpt lat="46.0522233" lon="12.0410701"><ele>256.0</ele><time>2026-05-02T12:52:43.308Z</time></trkpt><trkpt lat="46.0521917" lon="12.0409795"><ele>256.5</ele><time>2026-05-02T12:52:45.303Z</time></trkpt><trkpt lat="46.0521733" lon="12.0408629"><ele>257.0</ele><time>2026-05-02T12:52:47.309Z</time></trkpt><trkpt lat="46.0521616" lon="12.0407511"><ele>257.5</ele><time>2026-05-02T12:52:49.304Z</time></trkpt><trkpt lat="46.052146" lon="12.0406417"><ele>258.0</ele><time>2026-05-02T12:52:51.309Z</time></trkpt><trkpt lat="46.0521309" lon="12.0405242"><ele>258.5</ele><time>2026-05-02T12:52:53.303Z</time></trkpt><trkpt lat="46.0521232" lon="12.0404026"><ele>259.0</ele><time>2026-05-02T12:52:55.31Z</time></trkpt><trkpt lat="46.0521135" lon="12.0402866"><ele>259.0</ele><time>2026-05-02T12:52:57.309Z</time></trkpt><trkpt lat="46.0520933" lon="12.0401701"><ele>259.0</ele><time>2026-05-02T12:52:59.308Z</time></trkpt><trkpt lat="46.0520694" lon="12.0400331"><ele>259.0</ele><time>2026-05-02T12:53:01.304Z</time></trkpt><trkpt lat="46.0520533" lon="12.0399064"><ele>259.0</ele><time>2026-05-02T12:53:03.303Z</time></trkpt><trkpt lat="46.0520276" lon="12.0397658"><ele>259.0</ele><time>2026-05-02T12:53:05.307Z</time></trkpt><trkpt lat="46.0519812" lon="12.0396514"><ele>258.8</ele><time>2026-05-02T12:53:07.301Z</time></trkpt><trkpt lat="46.0519254" lon="12.0395407"><ele>258.59999999999997</ele><time>2026-05-02T12:53:09.302Z</time></trkpt><trkpt lat="46.051884" lon="12.0394395"><ele>258.4</ele><time>2026-05-02T12:53:11.308Z</time></trkpt><trkpt lat="46.0518718" lon="12.0393038"><ele>258.2</ele><time>2026-05-02T12:53:13.308Z</time></trkpt><trkpt lat="46.0518462" lon="12.0391794"><ele>258.0</ele><time>2026-05-02T12:53:15.309Z</time></trkpt><trkpt lat="46.0518303" lon="12.0390277"><ele>257.6</ele><time>2026-05-02T12:53:17.314Z</time></trkpt><trkpt lat="46.0518205" lon="12.0388832"><ele>257.20000000000005</ele><time>2026-05-02T12:53:19.312Z</time></trkpt><trkpt lat="46.0518229" lon="12.0387434"><ele>256.8</ele><time>2026-05-02T12:53:21.308Z</time></trkpt><trkpt lat="46.0518217" lon="12.0386024"><ele>256.40000000000003</ele><time>2026-05-02T12:53:23.303Z</time></trkpt><trkpt lat="46.0518073" lon="12.0384642"><ele>256.0</ele><time>2026-05-02T12:53:25.3Z</time></trkpt><trkpt lat="46.0517877" lon="12.0383386"><ele>255.8</ele><time>2026-05-02T12:53:27.31Z</time></trkpt><trkpt lat="46.0517619" lon="12.0382125"><ele>255.60000000000002</ele><time>2026-05-02T12:53:29.299Z</time></trkpt><trkpt lat="46.0517077" lon="12.0380986"><ele>255.4</ele><time>2026-05-02T12:53:31.301Z</time></trkpt><trkpt lat="46.0516393" lon="12.0380011"><ele>255.2</ele><time>2026-05-02T12:53:33.304Z</time></trkpt><trkpt lat="46.0515513" lon="12.0379217"><ele>255.0</ele><time>2026-05-02T12:53:35.308Z</time></trkpt><trkpt lat="46.0514675" lon="12.0378454"><ele>256.4</ele><time>2026-05-02T12:53:37.31Z</time></trkpt><trkpt lat="46.0513966" lon="12.0377507"><ele>257.8</ele><time>2026-05-02T12:53:39.299Z</time></trkpt><trkpt lat="46.0513525" lon="12.0376354"><ele>259.2</ele><time>2026-05-02T12:53:41.3Z</time></trkpt><trkpt lat="46.0513112" lon="12.037502"><ele>260.6</ele><time>2026-05-02T12:53:43.302Z</time></trkpt><trkpt lat="46.0512688" lon="12.0373682"><ele>262.0</ele><time>2026-05-02T12:53:45.309Z</time></trkpt><trkpt lat="46.051227" lon="12.0372323"><ele>262.0</ele><time>2026-05-02T12:53:47.31Z</time></trkpt><trkpt lat="46.0511847" lon="12.0370929"><ele>262.0</ele><time>2026-05-02T12:53:49.304Z</time></trkpt><trkpt lat="46.0511489" lon="12.0369507"><ele>262.0</ele><time>2026-05-02T12:53:51.301Z</time></trkpt><trkpt lat="46.0511155" lon="12.0368083"><ele>262.0</ele><time>2026-05-02T12:53:53.308Z</time></trkpt><trkpt lat="46.0510811" lon="12.0366629"><ele>262.0</ele><time>2026-05-02T12:53:55.308Z</time></trkpt><trkpt lat="46.0510551" lon="12.0365249"><ele>261.6</ele><time>2026-05-02T12:53:57.303Z</time></trkpt><trkpt lat="46.0510248" lon="12.0363863"><ele>261.2</ele><time>2026-05-02T12:53:59.308Z</time></trkpt><trkpt lat="46.0510009" lon="12.0362523"><ele>260.8</ele><time>2026-05-02T12:54:01.307Z</time></trkpt><trkpt lat="46.0509721" lon="12.0361232"><ele>260.4</ele><time>2026-05-02T12:54:03.301Z</time></trkpt><trkpt lat="46.0509507" lon="12.0359831"><ele>260.0</ele><time>2026-05-02T12:54:05.304Z</time></trkpt><trkpt lat="46.050941" lon="12.0358426"><ele>260.33333333333337</ele><time>2026-05-02T12:54:07.308Z</time></trkpt><trkpt lat="46.0509592" lon="12.0357401"><ele>260.6666666666667</ele><time>2026-05-02T12:54:09.301Z</time></trkpt><trkpt lat="46.0509588" lon="12.0356351"><ele>261.0</ele><time>2026-05-02T12:54:11.309Z</time></trkpt><trkpt lat="46.050924" lon="12.0355263"><ele>261.3333333333333</ele><time>2026-05-02T12:54:14.298Z</time></trkpt><trkpt lat="46.0508553" lon="12.0354592"><ele>261.66666666666663</ele><time>2026-05-02T12:54:16.309Z</time></trkpt><trkpt lat="46.0507706" lon="12.0354323"><ele>262.0</ele><time>2026-05-02T12:54:18.314Z</time></trkpt><trkpt lat="46.0506855" lon="12.035441"><ele>262.0</ele><time>2026-05-02T12:54:20.308Z</time></trkpt><trkpt lat="46.0506005" lon="12.0354444"><ele>262.0</ele><time>2026-05-02T12:54:22.308Z</time></trkpt><trkpt lat="46.0505236" lon="12.0354188"><ele>262.0</ele><time>2026-05-02T12:54:24.298Z</time></trkpt><trkpt lat="46.0504729" lon="12.0353414"><ele>262.0</ele><time>2026-05-02T12:54:26.302Z</time></trkpt><trkpt lat="46.0504461" lon="12.0352396"><ele>262.0</ele><time>2026-05-02T12:54:28.311Z</time></trkpt><trkpt lat="46.0504212" lon="12.035126"><ele>262.0</ele><time>2026-05-02T12:54:30.318Z</time></trkpt><trkpt lat="46.0503946" lon="12.0350135"><ele>261.5</ele><time>2026-05-02T12:54:32.314Z</time></trkpt><trkpt lat="46.0503674" lon="12.0348965"><ele>261.0</ele><time>2026-05-02T12:54:34.311Z</time></trkpt><trkpt lat="46.0503415" lon="12.0347775"><ele>260.5</ele><time>2026-05-02T12:54:36.309Z</time></trkpt><trkpt lat="46.050315" lon="12.0346574"><ele>260.0</ele><time>2026-05-02T12:54:38.312Z</time></trkpt><trkpt lat="46.0502893" lon="12.0345401"><ele>259.5</ele><time>2026-05-02T12:54:40.31Z</time></trkpt><trkpt lat="46.0502636" lon="12.0344195"><ele>259.0</ele><time>2026-05-02T12:54:42.31Z</time></trkpt><trkpt lat="46.0502416" lon="12.0342956"><ele>259.0</ele><time>2026-05-02T12:54:44.301Z</time></trkpt><trkpt lat="46.0502156" lon="12.0341742"><ele>259.0</ele><time>2026-05-02T12:54:46.309Z</time></trkpt><trkpt lat="46.0501851" lon="12.0340552"><ele>259.0</ele><time>2026-05-02T12:54:48.309Z</time></trkpt><trkpt lat="46.050133" lon="12.0339482"><ele>259.0</ele><time>2026-05-02T12:54:50.3Z</time></trkpt><trkpt lat="46.0500836" lon="12.0338311"><ele>259.0</ele><time>2026-05-02T12:54:52.307Z</time></trkpt><trkpt lat="46.0500393" lon="12.033732"><ele>259.0</ele><time>2026-05-02T12:54:54.302Z</time></trkpt><trkpt lat="46.0499914" lon="12.033626"><ele>259.8333333333333</ele><time>2026-05-02T12:54:56.309Z</time></trkpt><trkpt lat="46.0499394" lon="12.0335281"><ele>260.66666666666663</ele><time>2026-05-02T12:54:58.309Z</time></trkpt><trkpt lat="46.0498735" lon="12.0334621"><ele>261.5</ele><time>2026-05-02T12:55:00.305Z</time></trkpt><trkpt lat="46.0497993" lon="12.0334484"><ele>262.3333333333333</ele><time>2026-05-02T12:55:02.313Z</time></trkpt><trkpt lat="46.0497222" lon="12.0334804"><ele>263.1666666666667</ele><time>2026-05-02T12:55:04.304Z</time></trkpt><trkpt lat="46.0496541" lon="12.0335423"><ele>264.0</ele><time>2026-05-02T12:55:06.309Z</time></trkpt><trkpt lat="46.04959" lon="12.0335977"><ele>264.0</ele><time>2026-05-02T12:55:08.309Z</time></trkpt><trkpt lat="46.0495246" lon="12.0336542"><ele>264.0</ele><time>2026-05-02T12:55:10.303Z</time></trkpt><trkpt lat="46.0494581" lon="12.0337125"><ele>264.0</ele><time>2026-05-02T12:55:12.313Z</time></trkpt><trkpt lat="46.0493972" lon="12.0337544"><ele>264.0</ele><time>2026-05-02T12:55:14.31Z</time></trkpt><trkpt lat="46.0493282" lon="12.0338013"><ele>264.0</ele><time>2026-05-02T12:55:16.307Z</time></trkpt><trkpt lat="46.0492595" lon="12.0338444"><ele>264.0</ele><time>2026-05-02T12:55:18.304Z</time></trkpt><trkpt lat="46.0491904" lon="12.033896"><ele>264.8333333333333</ele><time>2026-05-02T12:55:20.309Z</time></trkpt><trkpt lat="46.0491197" lon="12.0339518"><ele>265.6666666666667</ele><time>2026-05-02T12:55:22.31Z</time></trkpt><trkpt lat="46.0490485" lon="12.0339837"><ele>266.5</ele><time>2026-05-02T12:55:24.308Z</time></trkpt><trkpt lat="46.0489796" lon="12.0340152"><ele>267.33333333333337</ele><time>2026-05-02T12:55:26.312Z</time></trkpt><trkpt lat="46.0489099" lon="12.0340385"><ele>268.1666666666667</ele><time>2026-05-02T12:55:28.309Z</time></trkpt><trkpt lat="46.0488402" lon="12.0340622"><ele>269.0</ele><time>2026-05-02T12:55:30.308Z</time></trkpt><trkpt lat="46.0487506" lon="12.0340921"><ele>269.0</ele><time>2026-05-02T12:55:33.303Z</time></trkpt><trkpt lat="46.0486829" lon="12.034108"><ele>269.0</ele><time>2026-05-02T12:55:35.308Z</time></trkpt><trkpt lat="46.0486105" lon="12.0341279"><ele>269.0</ele><time>2026-05-02T12:55:37.309Z</time></trkpt><trkpt lat="46.0485369" lon="12.0341414"><ele>269.0</ele><time>2026-05-02T12:55:39.309Z</time></trkpt><trkpt lat="46.0484614" lon="12.0341509"><ele>269.0</ele><time>2026-05-02T12:55:41.302Z</time></trkpt><trkpt lat="46.0483829" lon="12.034156"><ele>269.0</ele><time>2026-05-02T12:55:43.304Z</time></trkpt><trkpt lat="46.0483029" lon="12.0341536"><ele>270.0</ele><time>2026-05-02T12:55:45.304Z</time></trkpt><trkpt lat="46.0482188" lon="12.0341508"><ele>271.0</ele><time>2026-05-02T12:55:47.31Z</time></trkpt><trkpt lat="46.0481366" lon="12.0341492"><ele>272.0</ele><time>2026-05-02T12:55:49.31Z</time></trkpt><trkpt lat="46.0480584" lon="12.0341529"><ele>273.0</ele><time>2026-05-02T12:55:51.302Z</time></trkpt><trkpt lat="46.0479784" lon="12.0341457"><ele>274.0</ele><time>2026-05-02T12:55:53.303Z</time></trkpt><trkpt lat="46.0478985" lon="12.0341416"><ele>275.0</ele><time>2026-05-02T12:55:55.308Z</time></trkpt><trkpt lat="46.0478229" lon="12.0341328"><ele>275.0</ele><time>2026-05-02T12:55:57.307Z</time></trkpt><trkpt lat="46.0477505" lon="12.0341087"><ele>275.0</ele><time>2026-05-02T12:55:59.304Z</time></trkpt><trkpt lat="46.0476831" lon="12.0340769"><ele>275.0</ele><time>2026-05-02T12:56:01.308Z</time></trkpt><trkpt lat="46.0476063" lon="12.0340506"><ele>275.0</ele><time>2026-05-02T12:56:03.307Z</time></trkpt><trkpt lat="46.0475353" lon="12.0340395"><ele>275.0</ele><time>2026-05-02T12:56:05.307Z</time></trkpt><trkpt lat="46.0474673" lon="12.0340219"><ele>275.0</ele><time>2026-05-02T12:56:07.297Z</time></trkpt><trkpt lat="46.0473952" lon="12.0340094"><ele>275.0</ele><time>2026-05-02T12:56:09.309Z</time></trkpt><trkpt lat="46.0473258" lon="12.0339808"><ele>275.5</ele><time>2026-05-02T12:56:11.3Z</time></trkpt><trkpt lat="46.0472641" lon="12.0339335"><ele>276.0</ele><time>2026-05-02T12:56:13.302Z</time></trkpt><trkpt lat="46.0472112" lon="12.0338488"><ele>276.5</ele><time>2026-05-02T12:56:15.299Z</time></trkpt><trkpt lat="46.0471665" lon="12.0337465"><ele>277.0</ele><time>2026-05-02T12:56:17.311Z</time></trkpt><trkpt lat="46.0471229" lon="12.0336571"><ele>277.5</ele><time>2026-05-02T12:56:19.299Z</time></trkpt><trkpt lat="46.0470871" lon="12.0335617"><ele>278.0</ele><time>2026-05-02T12:56:21.299Z</time></trkpt><trkpt lat="46.0470648" lon="12.033457"><ele>278.0</ele><time>2026-05-02T12:56:23.301Z</time></trkpt><trkpt lat="46.047059" lon="12.0333519"><ele>278.0</ele><time>2026-05-02T12:56:25.311Z</time></trkpt><trkpt lat="46.0470519" lon="12.0331701"><ele>278.0</ele><time>2026-05-02T12:56:29.309Z</time></trkpt><trkpt lat="46.0470262" lon="12.0330517"><ele>278.0</ele><time>2026-05-02T12:56:32.307Z</time></trkpt><trkpt lat="46.0469968" lon="12.0329262"><ele>278.0</ele><time>2026-05-02T12:56:35.311Z</time></trkpt><trkpt lat="46.0469763" lon="12.0328304"><ele>278.0</ele><time>2026-05-02T12:56:37.309Z</time></trkpt><trkpt lat="46.0469572" lon="12.0327346"><ele>278.1666666666667</ele><time>2026-05-02T12:56:39.292Z</time></trkpt><trkpt lat="46.0469188" lon="12.0326105"><ele>278.33333333333337</ele><time>2026-05-02T12:56:42.32Z</time></trkpt><trkpt lat="46.0469054" lon="12.0325193"><ele>278.5</ele><time>2026-05-02T12:56:44.314Z</time></trkpt><trkpt lat="46.0468892" lon="12.0324134"><ele>278.6666666666667</ele><time>2026-05-02T12:56:46.309Z</time></trkpt><trkpt lat="46.0468752" lon="12.0323129"><ele>278.8333333333333</ele><time>2026-05-02T12:56:48.306Z</time></trkpt><trkpt lat="46.0468647" lon="12.0322065"><ele>279.0</ele><time>2026-05-02T12:56:50.299Z</time></trkpt><trkpt lat="46.0468515" lon="12.0320958"><ele>279.0</ele><time>2026-05-02T12:56:52.309Z</time></trkpt><trkpt lat="46.0468293" lon="12.0319814"><ele>279.0</ele><time>2026-05-02T12:56:54.308Z</time></trkpt><trkpt lat="46.046793" lon="12.0318607"><ele>279.0</ele><time>2026-05-02T12:56:56.309Z</time></trkpt><trkpt lat="46.0467492" lon="12.0317263"><ele>279.0</ele><time>2026-05-02T12:56:58.31Z</time></trkpt><trkpt lat="46.0467236" lon="12.0315835"><ele>279.0</ele><time>2026-05-02T12:57:00.302Z</time></trkpt><trkpt lat="46.046695" lon="12.0314493"><ele>279.0</ele><time>2026-05-02T12:57:02.312Z</time></trkpt><trkpt lat="46.0466679" lon="12.0313311"><ele>279.0</ele><time>2026-05-02T12:57:04.31Z</time></trkpt><trkpt lat="46.0466343" lon="12.0312142"><ele>279.0</ele><time>2026-05-02T12:57:06.301Z</time></trkpt><trkpt lat="46.0465972" lon="12.0310994"><ele>279.0</ele><time>2026-05-02T12:57:08.311Z</time></trkpt><trkpt lat="46.0465507" lon="12.0309875"><ele>279.0</ele><time>2026-05-02T12:57:10.31Z</time></trkpt><trkpt lat="46.0465064" lon="12.0308683"><ele>279.0</ele><time>2026-05-02T12:57:12.311Z</time></trkpt><trkpt lat="46.0464585" lon="12.0307465"><ele>277.6666666666667</ele><time>2026-05-02T12:57:14.309Z</time></trkpt><trkpt lat="46.0464055" lon="12.0306244"><ele>276.3333333333333</ele><time>2026-05-02T12:57:16.301Z</time></trkpt><trkpt lat="46.0463574" lon="12.0305089"><ele>275.0</ele><time>2026-05-02T12:57:18.304Z</time></trkpt><trkpt lat="46.0463075" lon="12.030409"><ele>273.66666666666663</ele><time>2026-05-02T12:57:20.304Z</time></trkpt><trkpt lat="46.046272" lon="12.0303176"><ele>272.3333333333333</ele><time>2026-05-02T12:57:22.312Z</time></trkpt><trkpt lat="46.0462286" lon="12.0302413"><ele>271.0</ele><time>2026-05-02T12:57:25.309Z</time></trkpt><trkpt lat="46.0462197" lon="12.0300886"><ele>271.0</ele><time>2026-05-02T12:57:30.303Z</time></trkpt><trkpt lat="46.0462453" lon="12.029995"><ele>271.0</ele><time>2026-05-02T12:57:33.303Z</time></trkpt><trkpt lat="46.0462482" lon="12.0298677"><ele>271.0</ele><time>2026-05-02T12:57:35.305Z</time></trkpt><trkpt lat="46.0462565" lon="12.0297759"><ele>271.0</ele><time>2026-05-02T12:57:36.31Z</time></trkpt><trkpt lat="46.0462606" lon="12.0296053"><ele>271.0</ele><time>2026-05-02T12:57:38.309Z</time></trkpt><trkpt lat="46.0462297" lon="12.0294432"><ele>270.0</ele><time>2026-05-02T12:57:40.309Z</time></trkpt><trkpt lat="46.0461917" lon="12.029368"><ele>269.0</ele><time>2026-05-02T12:57:41.308Z</time></trkpt><trkpt lat="46.0461006" lon="12.0292636"><ele>268.0</ele><time>2026-05-02T12:57:43.31Z</time></trkpt><trkpt lat="46.0460146" lon="12.0292026"><ele>267.0</ele><time>2026-05-02T12:57:45.307Z</time></trkpt><trkpt lat="46.045954" lon="12.0290871"><ele>266.0</ele><time>2026-05-02T12:57:47.307Z</time></trkpt><trkpt lat="46.0458912" lon="12.0289663"><ele>265.8</ele><time>2026-05-02T12:57:49.308Z</time></trkpt><trkpt lat="46.0458178" lon="12.0288573"><ele>265.6</ele><time>2026-05-02T12:57:51.312Z</time></trkpt><trkpt lat="46.0457635" lon="12.0287494"><ele>265.4</ele><time>2026-05-02T12:57:53.309Z</time></trkpt><trkpt lat="46.0457546" lon="12.0286039"><ele>265.2</ele><time>2026-05-02T12:57:55.317Z</time></trkpt><trkpt lat="46.0457661" lon="12.0284297"><ele>265.0</ele><time>2026-05-02T12:57:57.306Z</time></trkpt><trkpt lat="46.0457702" lon="12.0283368"><ele>264.8333333333333</ele><time>2026-05-02T12:57:58.31Z</time></trkpt><trkpt lat="46.0457719" lon="12.028246"><ele>264.66666666666663</ele><time>2026-05-02T12:57:59.309Z</time></trkpt><trkpt lat="46.0457537" lon="12.0280849"><ele>264.5</ele><time>2026-05-02T12:58:01.311Z</time></trkpt><trkpt lat="46.0457018" lon="12.0279466"><ele>264.3333333333333</ele><time>2026-05-02T12:58:03.309Z</time></trkpt><trkpt lat="46.0456386" lon="12.0278816"><ele>264.1666666666667</ele><time>2026-05-02T12:58:05.304Z</time></trkpt><trkpt lat="46.0455867" lon="12.0279483"><ele>264.0</ele><time>2026-05-02T12:58:10.309Z</time></trkpt><trkpt lat="46.0456789" lon="12.0279629"><ele>264.0</ele><time>2026-05-02T12:58:12.307Z</time></trkpt><trkpt lat="46.0457266" lon="12.0280812"><ele>264.0</ele><time>2026-05-02T12:58:14.3Z</time></trkpt><trkpt lat="46.0457538" lon="12.0282163"><ele>264.0</ele><time>2026-05-02T12:58:16.304Z</time></trkpt><trkpt lat="46.0457559" lon="12.0283626"><ele>264.0</ele><time>2026-05-02T12:58:18.309Z</time></trkpt><trkpt lat="46.0457611" lon="12.028508"><ele>264.0</ele><time>2026-05-02T12:58:20.307Z</time></trkpt><trkpt lat="46.0457511" lon="12.0286461"><ele>264.0</ele><time>2026-05-02T12:58:22.309Z</time></trkpt><trkpt lat="46.0457252" lon="12.0287748"><ele>264.0</ele><time>2026-05-02T12:58:24.302Z</time></trkpt><trkpt lat="46.045673" lon="12.0288685"><ele>264.0</ele><time>2026-05-02T12:58:26.311Z</time></trkpt><trkpt lat="46.0456162" lon="12.0289529"><ele>264.0</ele><time>2026-05-02T12:58:28.306Z</time></trkpt><trkpt lat="46.045561" lon="12.0290604"><ele>264.0</ele><time>2026-05-02T12:58:30.31Z</time></trkpt><trkpt lat="46.0455033" lon="12.0291627"><ele>264.0</ele><time>2026-05-02T12:58:32.299Z</time></trkpt><trkpt lat="46.0454269" lon="12.0291404"><ele>264.0</ele><time>2026-05-02T12:58:37.302Z</time></trkpt><trkpt lat="46.0453632" lon="12.029147"><ele>264.0</ele><time>2026-05-02T12:58:39.301Z</time></trkpt><trkpt lat="46.0453868" lon="12.0292395"><ele>264.0</ele><time>2026-05-02T12:58:42.297Z</time></trkpt><trkpt lat="46.0453934" lon="12.029146"><ele>264.0</ele><time>2026-05-02T13:01:37.308Z</time></trkpt><trkpt lat="46.0453406" lon="12.0290724"><ele>264.0</ele><time>2026-05-02T13:01:40.301Z</time></trkpt><trkpt lat="46.0452812" lon="12.0289901"><ele>264.0</ele><time>2026-05-02T13:01:44.308Z</time></trkpt><trkpt lat="46.0452897" lon="12.0288538"><ele>264.0</ele><time>2026-05-02T13:01:47.309Z</time></trkpt><trkpt lat="46.0452859" lon="12.028758"><ele>264.0</ele><time>2026-05-02T13:01:49.302Z</time></trkpt><trkpt lat="46.0452835" lon="12.0286564"><ele>264.0</ele><time>2026-05-02T13:01:51.412Z</time></trkpt><trkpt lat="46.0452924" lon="12.0285388"><ele>264.0</ele><time>2026-05-02T13:01:53.306Z</time></trkpt><trkpt lat="46.0453111" lon="12.0284173"><ele>264.0</ele><time>2026-05-02T13:01:55.301Z</time></trkpt><trkpt lat="46.0453322" lon="12.0282881"><ele>264.0</ele><time>2026-05-02T13:01:57.313Z</time></trkpt><trkpt lat="46.045343" lon="12.0281598"><ele>264.0</ele><time>2026-05-02T13:01:59.306Z</time></trkpt><trkpt lat="46.045349" lon="12.0280275"><ele>264.0</ele><time>2026-05-02T13:02:01.304Z</time></trkpt><trkpt lat="46.0453433" lon="12.0278885"><ele>264.0</ele><time>2026-05-02T13:02:03.307Z</time></trkpt><trkpt lat="46.0453282" lon="12.0277431"><ele>264.0</ele><time>2026-05-02T13:02:05.294Z</time></trkpt><trkpt lat="46.0453033" lon="12.0275899"><ele>264.0</ele><time>2026-05-02T13:02:07.314Z</time></trkpt><trkpt lat="46.0452681" lon="12.0274421"><ele>264.0</ele><time>2026-05-02T13:02:09.316Z</time></trkpt><trkpt lat="46.0452411" lon="12.0272962"><ele>264.0</ele><time>2026-05-02T13:02:11.312Z</time></trkpt><trkpt lat="46.0452097" lon="12.0271517"><ele>264.0</ele><time>2026-05-02T13:02:13.305Z</time></trkpt><trkpt lat="46.0451841" lon="12.027011"><ele>264.0</ele><time>2026-05-02T13:02:15.313Z</time></trkpt><trkpt lat="46.045164" lon="12.0268731"><ele>264.0</ele><time>2026-05-02T13:02:17.323Z</time></trkpt><trkpt lat="46.0451485" lon="12.0267269"><ele>264.0</ele><time>2026-05-02T13:02:19.311Z</time></trkpt><trkpt lat="46.0451389" lon="12.0265745"><ele>264.0</ele><time>2026-05-02T13:02:21.307Z</time></trkpt><trkpt lat="46.0451444" lon="12.0264138"><ele>264.0</ele><time>2026-05-02T13:02:23.3Z</time></trkpt><trkpt lat="46.0451569" lon="12.0262559"><ele>264.0</ele><time>2026-05-02T13:02:25.312Z</time></trkpt><trkpt lat="46.0451707" lon="12.0260965"><ele>264.0</ele><time>2026-05-02T13:02:27.321Z</time></trkpt><trkpt lat="46.0451776" lon="12.0259235"><ele>264.0</ele><time>2026-05-02T13:02:29.303Z</time></trkpt><trkpt lat="46.0451809" lon="12.025746"><ele>264.0</ele><time>2026-05-02T13:02:31.301Z</time></trkpt><trkpt lat="46.0451972" lon="12.0255753"><ele>264.0</ele><time>2026-05-02T13:02:33.312Z</time></trkpt><trkpt lat="46.0452225" lon="12.0254057"><ele>264.0</ele><time>2026-05-02T13:02:35.32Z</time></trkpt><trkpt lat="46.0452323" lon="12.0252338"><ele>264.0</ele><time>2026-05-02T13:02:37.309Z</time></trkpt><trkpt lat="46.0451943" lon="12.0250953"><ele>264.0</ele><time>2026-05-02T13:02:39.303Z</time></trkpt><trkpt lat="46.0450916" lon="12.0250518"><ele>264.0</ele><time>2026-05-02T13:02:41.303Z</time></trkpt><trkpt lat="46.0449917" lon="12.025044"><ele>264.0</ele><time>2026-05-02T13:02:43.307Z</time></trkpt><trkpt lat="46.044896" lon="12.0250358"><ele>264.0</ele><time>2026-05-02T13:02:45.3Z</time></trkpt><trkpt lat="46.0448018" lon="12.0250344"><ele>264.5</ele><time>2026-05-02T13:02:47.316Z</time></trkpt><trkpt lat="46.0447088" lon="12.0250406"><ele>265.0</ele><time>2026-05-02T13:02:49.317Z</time></trkpt><trkpt lat="46.04462" lon="12.025053"><ele>265.5</ele><time>2026-05-02T13:02:51.308Z</time></trkpt><trkpt lat="46.0445419" lon="12.0250513"><ele>266.0</ele><time>2026-05-02T13:02:53.299Z</time></trkpt><trkpt lat="46.0444638" lon="12.0250514"><ele>266.5</ele><time>2026-05-02T13:02:55.303Z</time></trkpt><trkpt lat="46.0443865" lon="12.0250477"><ele>267.0</ele><time>2026-05-02T13:02:57.306Z</time></trkpt><trkpt lat="46.0443089" lon="12.0250476"><ele>267.0</ele><time>2026-05-02T13:02:59.307Z</time></trkpt><trkpt lat="46.0442273" lon="12.0250609"><ele>267.0</ele><time>2026-05-02T13:03:01.304Z</time></trkpt><trkpt lat="46.0441521" lon="12.0251122"><ele>267.0</ele><time>2026-05-02T13:03:03.295Z</time></trkpt><trkpt lat="46.0440882" lon="12.0251888"><ele>267.0</ele><time>2026-05-02T13:03:05.306Z</time></trkpt><trkpt lat="46.0440177" lon="12.025251"><ele>267.0</ele><time>2026-05-02T13:03:07.312Z</time></trkpt><trkpt lat="46.0439492" lon="12.0253106"><ele>267.0</ele><time>2026-05-02T13:03:09.303Z</time></trkpt><trkpt lat="46.0438787" lon="12.0253574"><ele>268.3333333333333</ele><time>2026-05-02T13:03:11.298Z</time></trkpt><trkpt lat="46.0438094" lon="12.0254033"><ele>269.6666666666667</ele><time>2026-05-02T13:03:13.301Z</time></trkpt><trkpt lat="46.0437406" lon="12.0254446"><ele>271.0</ele><time>2026-05-02T13:03:15.303Z</time></trkpt><trkpt lat="46.0436725" lon="12.0254886"><ele>272.33333333333337</ele><time>2026-05-02T13:03:17.305Z</time></trkpt><trkpt lat="46.0436034" lon="12.0255209"><ele>273.6666666666667</ele><time>2026-05-02T13:03:19.307Z</time></trkpt><trkpt lat="46.0435356" lon="12.0255436"><ele>275.0</ele><time>2026-05-02T13:03:21.43Z</time></trkpt><trkpt lat="46.0434479" lon="12.0255478"><ele>275.0</ele><time>2026-05-02T13:03:24.307Z</time></trkpt><trkpt lat="46.0433822" lon="12.0255154"><ele>275.0</ele><time>2026-05-02T13:03:30.307Z</time></trkpt><trkpt lat="46.0433218" lon="12.0255551"><ele>275.0</ele><time>2026-05-02T13:03:36.302Z</time></trkpt><trkpt lat="46.0433351" lon="12.0256729"><ele>275.0</ele><time>2026-05-02T13:03:38.298Z</time></trkpt><trkpt lat="46.0433279" lon="12.0258173"><ele>275.0</ele><time>2026-05-02T13:03:40.307Z</time></trkpt><trkpt lat="46.0433214" lon="12.0259709"><ele>275.0</ele><time>2026-05-02T13:03:42.303Z</time></trkpt><trkpt lat="46.0433094" lon="12.0261273"><ele>275.6</ele><time>2026-05-02T13:03:44.306Z</time></trkpt><trkpt lat="46.0433023" lon="12.0262771"><ele>276.2</ele><time>2026-05-02T13:03:46.308Z</time></trkpt><trkpt lat="46.0432917" lon="12.0264186"><ele>276.8</ele><time>2026-05-02T13:03:48.301Z</time></trkpt><trkpt lat="46.043279" lon="12.0265629"><ele>277.4</ele><time>2026-05-02T13:03:50.304Z</time></trkpt><trkpt lat="46.0432705" lon="12.0266924"><ele>278.0</ele><time>2026-05-02T13:03:52.303Z</time></trkpt><trkpt lat="46.0432721" lon="12.0268104"><ele>278.1428571428571</ele><time>2026-05-02T13:03:54.307Z</time></trkpt><trkpt lat="46.0432809" lon="12.0269221"><ele>278.2857142857143</ele><time>2026-05-02T13:03:56.304Z</time></trkpt><trkpt lat="46.0432869" lon="12.0270289"><ele>278.42857142857144</ele><time>2026-05-02T13:03:58.307Z</time></trkpt><trkpt lat="46.0432907" lon="12.0271338"><ele>278.57142857142856</ele><time>2026-05-02T13:04:00.309Z</time></trkpt><trkpt lat="46.0432962" lon="12.0272346"><ele>278.7142857142857</ele><time>2026-05-02T13:04:02.305Z</time></trkpt><trkpt lat="46.0433006" lon="12.0273391"><ele>278.85714285714283</ele><time>2026-05-02T13:04:04.31Z</time></trkpt><trkpt lat="46.0433059" lon="12.0274417"><ele>279.0</ele><time>2026-05-02T13:04:06.308Z</time></trkpt><trkpt lat="46.0433083" lon="12.0275465"><ele>279.4285714285714</ele><time>2026-05-02T13:04:08.307Z</time></trkpt><trkpt lat="46.0433124" lon="12.0276497"><ele>279.85714285714283</ele><time>2026-05-02T13:04:10.306Z</time></trkpt><trkpt lat="46.0433171" lon="12.0277533"><ele>280.2857142857143</ele><time>2026-05-02T13:04:12.307Z</time></trkpt><trkpt lat="46.0433133" lon="12.0278559"><ele>280.71428571428567</ele><time>2026-05-02T13:04:14.302Z</time></trkpt><trkpt lat="46.043309" lon="12.0279613"><ele>281.1428571428571</ele><time>2026-05-02T13:04:16.308Z</time></trkpt><trkpt lat="46.0432989" lon="12.0280667"><ele>281.57142857142856</ele><time>2026-05-02T13:04:18.307Z</time></trkpt><trkpt lat="46.0432708" lon="12.0281644"><ele>282.0</ele><time>2026-05-02T13:04:20.298Z</time></trkpt><trkpt lat="46.0432202" lon="12.0282425"><ele>285.8571428571429</ele><time>2026-05-02T13:04:22.308Z</time></trkpt><trkpt lat="46.0431627" lon="12.0283131"><ele>289.7142857142857</ele><time>2026-05-02T13:04:24.305Z</time></trkpt><trkpt lat="46.0431028" lon="12.0283817"><ele>293.57142857142856</ele><time>2026-05-02T13:04:26.307Z</time></trkpt><trkpt lat="46.0430434" lon="12.0284419"><ele>297.42857142857144</ele><time>2026-05-02T13:04:28.304Z</time></trkpt><trkpt lat="46.0429918" lon="12.0285058"><ele>301.2857142857143</ele><time>2026-05-02T13:04:30.302Z</time></trkpt><trkpt lat="46.0429484" lon="12.0285789"><ele>305.14285714285717</ele><time>2026-05-02T13:04:32.308Z</time></trkpt><trkpt lat="46.0429128" lon="12.0286551"><ele>309.0</ele><time>2026-05-02T13:04:34.307Z</time></trkpt><trkpt lat="46.0428559" lon="12.0287524"><ele>309.00000000000006</ele><time>2026-05-02T13:04:37.315Z</time></trkpt><trkpt lat="46.0428099" lon="12.0288372"><ele>309.0</ele><time>2026-05-02T13:04:40.304Z</time></trkpt><trkpt lat="46.0427687" lon="12.0289279"><ele>309.0</ele><time>2026-05-02T13:04:43.312Z</time></trkpt><trkpt lat="46.042734" lon="12.0290122"><ele>309.0</ele><time>2026-05-02T13:04:46.308Z</time></trkpt><trkpt lat="46.0427106" lon="12.0290993"><ele>309.0</ele><time>2026-05-02T13:04:49.307Z</time></trkpt><trkpt lat="46.0426803" lon="12.0292083"><ele>309.00000000000006</ele><time>2026-05-02T13:04:53.309Z</time></trkpt><trkpt lat="46.0426458" lon="12.0293133"><ele>309.0</ele><time>2026-05-02T13:04:57.318Z</time></trkpt><trkpt lat="46.042604" lon="12.0294214"><ele>308.5</ele><time>2026-05-02T13:05:01.305Z</time></trkpt><trkpt lat="46.0425628" lon="12.0295226"><ele>308.0</ele><time>2026-05-02T13:05:05.307Z</time></trkpt><trkpt lat="46.0425269" lon="12.0296238"><ele>307.5</ele><time>2026-05-02T13:05:09.306Z</time></trkpt><trkpt lat="46.042491" lon="12.0297017"><ele>307.0</ele><time>2026-05-02T13:05:13.308Z</time></trkpt><trkpt lat="46.042446" lon="12.029795"><ele>306.5</ele><time>2026-05-02T13:05:18.31Z</time></trkpt><trkpt lat="46.042397" lon="12.0298972"><ele>306.0</ele><time>2026-05-02T13:05:23.308Z</time></trkpt><trkpt lat="46.0423572" lon="12.0299759"><ele>308.5</ele><time>2026-05-02T13:05:27.317Z</time></trkpt><trkpt lat="46.0423122" lon="12.0300707"><ele>311.0</ele><time>2026-05-02T13:05:32.3Z</time></trkpt><trkpt lat="46.0422744" lon="12.0301661"><ele>313.5</ele><time>2026-05-02T13:05:36.307Z</time></trkpt><trkpt lat="46.0422231" lon="12.0302375"><ele>316.0</ele><time>2026-05-02T13:05:40.306Z</time></trkpt><trkpt lat="46.0421733" lon="12.0303177"><ele>318.5</ele><time>2026-05-02T13:05:44.3Z</time></trkpt><trkpt lat="46.0421121" lon="12.0303735"><ele>321.0</ele><time>2026-05-02T13:05:48.309Z</time></trkpt><trkpt lat="46.0420415" lon="12.0304247"><ele>321.0</ele><time>2026-05-02T13:05:52.303Z</time></trkpt><trkpt lat="46.0419739" lon="12.0304758"><ele>321.0</ele><time>2026-05-02T13:05:56.305Z</time></trkpt><trkpt lat="46.0419047" lon="12.0305369"><ele>321.0</ele><time>2026-05-02T13:06:01.307Z</time></trkpt><trkpt lat="46.0418454" lon="12.0306194"><ele>321.0</ele><time>2026-05-02T13:06:05.306Z</time></trkpt><trkpt lat="46.0418104" lon="12.0306954"><ele>321.0</ele><time>2026-05-02T13:06:08.307Z</time></trkpt><trkpt lat="46.0417704" lon="12.0307992"><ele>321.0</ele><time>2026-05-02T13:06:12.306Z</time></trkpt><trkpt lat="46.041725" lon="12.0308942"><ele>320.0</ele><time>2026-05-02T13:06:16.301Z</time></trkpt><trkpt lat="46.041683" lon="12.0309941"><ele>319.0</ele><time>2026-05-02T13:06:20.308Z</time></trkpt><trkpt lat="46.0416422" lon="12.0310962"><ele>318.0</ele><time>2026-05-02T13:06:24.305Z</time></trkpt><trkpt lat="46.0416098" lon="12.0312017"><ele>317.0</ele><time>2026-05-02T13:06:28.306Z</time></trkpt><trkpt lat="46.0415773" lon="12.0313065"><ele>316.0</ele><time>2026-05-02T13:06:32.306Z</time></trkpt><trkpt lat="46.0415439" lon="12.0314099"><ele>315.0</ele><time>2026-05-02T13:06:36.301Z</time></trkpt><trkpt lat="46.0415165" lon="12.0314921"><ele>316.85714285714283</ele><time>2026-05-02T13:06:39.312Z</time></trkpt><trkpt lat="46.0414814" lon="12.0315707"><ele>318.7142857142857</ele><time>2026-05-02T13:06:42.311Z</time></trkpt><trkpt lat="46.0414451" lon="12.0316459"><ele>320.57142857142856</ele><time>2026-05-02T13:06:45.303Z</time></trkpt><trkpt lat="46.0414065" lon="12.0317197"><ele>322.42857142857144</ele><time>2026-05-02T13:06:48.307Z</time></trkpt><trkpt lat="46.0413662" lon="12.0317937"><ele>324.2857142857143</ele><time>2026-05-02T13:06:51.433Z</time></trkpt><trkpt lat="46.0413244" lon="12.0318683"><ele>326.1428571428571</ele><time>2026-05-02T13:06:54.3Z</time></trkpt><trkpt lat="46.0412832" lon="12.0319475"><ele>328.0</ele><time>2026-05-02T13:06:57.318Z</time></trkpt><trkpt lat="46.0412322" lon="12.0320215"><ele>328.0</ele><time>2026-05-02T13:07:00.301Z</time></trkpt><trkpt lat="46.0411768" lon="12.032087"><ele>328.0</ele><time>2026-05-02T13:07:03.318Z</time></trkpt><trkpt lat="46.0411176" lon="12.0321572"><ele>328.0</ele><time>2026-05-02T13:07:06.307Z</time></trkpt><trkpt lat="46.0410476" lon="12.0322228"><ele>328.0</ele><time>2026-05-02T13:07:09.307Z</time></trkpt><trkpt lat="46.0409802" lon="12.0322887"><ele>328.0</ele><time>2026-05-02T13:07:12.307Z</time></trkpt><trkpt lat="46.0409236" lon="12.0323575"><ele>328.0</ele><time>2026-05-02T13:07:15.307Z</time></trkpt><trkpt lat="46.04087" lon="12.0324279"><ele>327.5</ele><time>2026-05-02T13:07:18.303Z</time></trkpt><trkpt lat="46.0408267" lon="12.0325103"><ele>327.0</ele><time>2026-05-02T13:07:21.308Z</time></trkpt><trkpt lat="46.0407891" lon="12.0326028"><ele>326.5</ele><time>2026-05-02T13:07:24.298Z</time></trkpt><trkpt lat="46.0407599" lon="12.0327009"><ele>326.0</ele><time>2026-05-02T13:07:27.317Z</time></trkpt><trkpt lat="46.0407278" lon="12.0327966"><ele>325.5</ele><time>2026-05-02T13:07:30.304Z</time></trkpt><trkpt lat="46.040704" lon="12.0328979"><ele>325.0</ele><time>2026-05-02T13:07:33.306Z</time></trkpt><trkpt lat="46.0406795" lon="12.0330112"><ele>328.5</ele><time>2026-05-02T13:07:36.307Z</time></trkpt><trkpt lat="46.0406532" lon="12.0331266"><ele>332.0</ele><time>2026-05-02T13:07:39.303Z</time></trkpt><trkpt lat="46.040622" lon="12.0332374"><ele>335.5</ele><time>2026-05-02T13:07:42.309Z</time></trkpt><trkpt lat="46.0405939" lon="12.0333473"><ele>339.0</ele><time>2026-05-02T13:07:45.306Z</time></trkpt><trkpt lat="46.0405617" lon="12.0334545"><ele>342.5</ele><time>2026-05-02T13:07:48.302Z</time></trkpt><trkpt lat="46.0405342" lon="12.0335639"><ele>346.0</ele><time>2026-05-02T13:07:51.306Z</time></trkpt><trkpt lat="46.0405038" lon="12.0336738"><ele>346.0</ele><time>2026-05-02T13:07:54.306Z</time></trkpt><trkpt lat="46.0404739" lon="12.0337847"><ele>346.0</ele><time>2026-05-02T13:07:57.316Z</time></trkpt><trkpt lat="46.0404356" lon="12.0338912"><ele>346.0</ele><time>2026-05-02T13:08:00.308Z</time></trkpt><trkpt lat="46.0403921" lon="12.0339911"><ele>346.0</ele><time>2026-05-02T13:08:03.3Z</time></trkpt><trkpt lat="46.0403403" lon="12.0340762"><ele>346.0</ele><time>2026-05-02T13:08:06.3Z</time></trkpt><trkpt lat="46.0402914" lon="12.0341631"><ele>346.0</ele><time>2026-05-02T13:08:09.306Z</time></trkpt><trkpt lat="46.0402503" lon="12.0342713"><ele>345.8333333333333</ele><time>2026-05-02T13:08:12.302Z</time></trkpt><trkpt lat="46.0402088" lon="12.0343846"><ele>345.66666666666663</ele><time>2026-05-02T13:08:15.304Z</time></trkpt><trkpt lat="46.0401623" lon="12.0345056"><ele>345.5</ele><time>2026-05-02T13:08:18.306Z</time></trkpt><trkpt lat="46.0401255" lon="12.0345956"><ele>345.3333333333333</ele><time>2026-05-02T13:08:20.302Z</time></trkpt><trkpt lat="46.0400826" lon="12.0346832"><ele>345.1666666666667</ele><time>2026-05-02T13:08:22.307Z</time></trkpt><trkpt lat="46.0400408" lon="12.0347718"><ele>345.0</ele><time>2026-05-02T13:08:24.307Z</time></trkpt><trkpt lat="46.0400001" lon="12.0348577"><ele>346.5</ele><time>2026-05-02T13:08:26.309Z</time></trkpt><trkpt lat="46.0399605" lon="12.0349491"><ele>348.0</ele><time>2026-05-02T13:08:28.303Z</time></trkpt><trkpt lat="46.0399201" lon="12.035042"><ele>349.5</ele><time>2026-05-02T13:08:30.306Z</time></trkpt><trkpt lat="46.0398876" lon="12.0351411"><ele>351.0</ele><time>2026-05-02T13:08:32.31Z</time></trkpt><trkpt lat="46.0398575" lon="12.0352427"><ele>352.5</ele><time>2026-05-02T13:08:34.308Z</time></trkpt><trkpt lat="46.039834" lon="12.0353481"><ele>354.0</ele><time>2026-05-02T13:08:36.306Z</time></trkpt><trkpt lat="46.0398132" lon="12.0354561"><ele>354.0</ele><time>2026-05-02T13:08:38.306Z</time></trkpt><trkpt lat="46.0398017" lon="12.0355665"><ele>354.0</ele><time>2026-05-02T13:08:40.311Z</time></trkpt><trkpt lat="46.0397886" lon="12.0356794"><ele>354.0</ele><time>2026-05-02T13:08:42.306Z</time></trkpt><trkpt lat="46.0397747" lon="12.0357916"><ele>354.0</ele><time>2026-05-02T13:08:44.308Z</time></trkpt><trkpt lat="46.0397579" lon="12.0359026"><ele>354.0</ele><time>2026-05-02T13:08:46.308Z</time></trkpt><trkpt lat="46.0397388" lon="12.0360084"><ele>354.0</ele><time>2026-05-02T13:08:48.304Z</time></trkpt><trkpt lat="46.0397176" lon="12.0361092"><ele>354.0</ele><time>2026-05-02T13:08:50.304Z</time></trkpt><trkpt lat="46.0396941" lon="12.0362062"><ele>354.0</ele><time>2026-05-02T13:08:52.306Z</time></trkpt><trkpt lat="46.0396674" lon="12.0363007"><ele>354.0</ele><time>2026-05-02T13:08:54.307Z</time></trkpt><trkpt lat="46.0396335" lon="12.0363884"><ele>354.0</ele><time>2026-05-02T13:08:56.305Z</time></trkpt><trkpt lat="46.0395877" lon="12.0364542"><ele>354.0</ele><time>2026-05-02T13:08:58.308Z</time></trkpt><trkpt lat="46.0395132" lon="12.036534"><ele>354.0</ele><time>2026-05-02T13:09:01.305Z</time></trkpt><trkpt lat="46.0394352" lon="12.0365909"><ele>354.0</ele><time>2026-05-02T13:09:04.301Z</time></trkpt><trkpt lat="46.0393443" lon="12.0366285"><ele>354.0</ele><time>2026-05-02T13:09:07.308Z</time></trkpt><trkpt lat="46.0392555" lon="12.0366641"><ele>354.0</ele><time>2026-05-02T13:09:10.304Z</time></trkpt><trkpt lat="46.0391686" lon="12.0366952"><ele>354.0</ele><time>2026-05-02T13:09:13.301Z</time></trkpt><trkpt lat="46.039085" lon="12.0367398"><ele>354.0</ele><time>2026-05-02T13:09:16.308Z</time></trkpt><trkpt lat="46.0390124" lon="12.0368124"><ele>355.3333333333333</ele><time>2026-05-02T13:09:19.303Z</time></trkpt><trkpt lat="46.0389695" lon="12.0369288"><ele>356.6666666666667</ele><time>2026-05-02T13:09:22.307Z</time></trkpt><trkpt lat="46.0389464" lon="12.0370546"><ele>358.0</ele><time>2026-05-02T13:09:25.308Z</time></trkpt><trkpt lat="46.0389174" lon="12.0371745"><ele>359.33333333333337</ele><time>2026-05-02T13:09:28.309Z</time></trkpt><trkpt lat="46.0388977" lon="12.0372974"><ele>360.6666666666667</ele><time>2026-05-02T13:09:31.311Z</time></trkpt><trkpt lat="46.038877" lon="12.0374189"><ele>362.0</ele><time>2026-05-02T13:09:34.308Z</time></trkpt><trkpt lat="46.0388501" lon="12.0375387"><ele>362.6</ele><time>2026-05-02T13:09:37.311Z</time></trkpt><trkpt lat="46.0388237" lon="12.0376575"><ele>363.20000000000005</ele><time>2026-05-02T13:09:40.306Z</time></trkpt><trkpt lat="46.0387996" lon="12.0378276"><ele>363.8</ele><time>2026-05-02T13:09:44.307Z</time></trkpt><trkpt lat="46.0387788" lon="12.0379561"><ele>364.4</ele><time>2026-05-02T13:09:47.306Z</time></trkpt><trkpt lat="46.0387626" lon="12.038088"><ele>365.0</ele><time>2026-05-02T13:09:50.308Z</time></trkpt><trkpt lat="46.0387467" lon="12.0381779"><ele>365.00000000000006</ele><time>2026-05-02T13:09:52.308Z</time></trkpt><trkpt lat="46.0387263" lon="12.0382697"><ele>365.0</ele><time>2026-05-02T13:09:54.307Z</time></trkpt><trkpt lat="46.0387089" lon="12.0383657"><ele>365.0</ele><time>2026-05-02T13:09:56.308Z</time></trkpt><trkpt lat="46.0386963" lon="12.0384652"><ele>365.0</ele><time>2026-05-02T13:09:58.305Z</time></trkpt><trkpt lat="46.0386872" lon="12.0385675"><ele>365.0</ele><time>2026-05-02T13:10:00.3Z</time></trkpt><trkpt lat="46.0386734" lon="12.0386682"><ele>365.00000000000006</ele><time>2026-05-02T13:10:02.302Z</time></trkpt><trkpt lat="46.0386591" lon="12.0387684"><ele>365.0</ele><time>2026-05-02T13:10:04.305Z</time></trkpt><trkpt lat="46.0386402" lon="12.0388669"><ele>364.8571428571429</ele><time>2026-05-02T13:10:06.305Z</time></trkpt><trkpt lat="46.0386154" lon="12.0389636"><ele>364.7142857142857</ele><time>2026-05-02T13:10:08.307Z</time></trkpt><trkpt lat="46.0385858" lon="12.0390582"><ele>364.57142857142856</ele><time>2026-05-02T13:10:10.299Z</time></trkpt><trkpt lat="46.0385509" lon="12.0391528"><ele>364.42857142857144</ele><time>2026-05-02T13:10:12.307Z</time></trkpt><trkpt lat="46.0385126" lon="12.0392466"><ele>364.2857142857143</ele><time>2026-05-02T13:10:14.301Z</time></trkpt><trkpt lat="46.0384695" lon="12.0393349"><ele>364.14285714285717</ele><time>2026-05-02T13:10:16.302Z</time></trkpt><trkpt lat="46.0384177" lon="12.0394054"><ele>364.0</ele><time>2026-05-02T13:10:18.301Z</time></trkpt><trkpt lat="46.038356" lon="12.0394531"><ele>364.7142857142857</ele><time>2026-05-02T13:10:20.301Z</time></trkpt><trkpt lat="46.0382915" lon="12.039489"><ele>365.42857142857144</ele><time>2026-05-02T13:10:22.309Z</time></trkpt><trkpt lat="46.0382251" lon="12.0395299"><ele>366.1428571428571</ele><time>2026-05-02T13:10:24.305Z</time></trkpt><trkpt lat="46.0381563" lon="12.0395697"><ele>366.8571428571429</ele><time>2026-05-02T13:10:26.309Z</time></trkpt><trkpt lat="46.0380885" lon="12.0396159"><ele>367.57142857142856</ele><time>2026-05-02T13:10:28.308Z</time></trkpt><trkpt lat="46.0380244" lon="12.0396681"><ele>368.2857142857143</ele><time>2026-05-02T13:10:30.307Z</time></trkpt><trkpt lat="46.0379629" lon="12.0397244"><ele>369.0</ele><time>2026-05-02T13:10:32.306Z</time></trkpt><trkpt lat="46.0379005" lon="12.0397759"><ele>369.0</ele><time>2026-05-02T13:10:34.305Z</time></trkpt><trkpt lat="46.0378353" lon="12.0398261"><ele>369.0</ele><time>2026-05-02T13:10:36.301Z</time></trkpt><trkpt lat="46.0377641" lon="12.0398644"><ele>369.0</ele><time>2026-05-02T13:10:38.303Z</time></trkpt><trkpt lat="46.0376908" lon="12.0398889"><ele>369.0</ele><time>2026-05-02T13:10:40.309Z</time></trkpt><trkpt lat="46.0376158" lon="12.0398911"><ele>369.0</ele><time>2026-05-02T13:10:42.308Z</time></trkpt><trkpt lat="46.0375403" lon="12.0398769"><ele>369.0</ele><time>2026-05-02T13:10:44.303Z</time></trkpt><trkpt lat="46.0374697" lon="12.0398516"><ele>369.0</ele><time>2026-05-02T13:10:46.306Z</time></trkpt><trkpt lat="46.0374002" lon="12.0398319"><ele>372.1428571428571</ele><time>2026-05-02T13:10:48.306Z</time></trkpt><trkpt lat="46.0373323" lon="12.0398038"><ele>375.2857142857143</ele><time>2026-05-02T13:10:50.312Z</time></trkpt><trkpt lat="46.0372669" lon="12.0397807"><ele>378.42857142857144</ele><time>2026-05-02T13:10:52.307Z</time></trkpt><trkpt lat="46.0372023" lon="12.0397616"><ele>381.57142857142856</ele><time>2026-05-02T13:10:54.309Z</time></trkpt><trkpt lat="46.0371361" lon="12.0397464"><ele>384.7142857142857</ele><time>2026-05-02T13:10:56.311Z</time></trkpt><trkpt lat="46.0370673" lon="12.0397331"><ele>387.85714285714283</ele><time>2026-05-02T13:10:58.307Z</time></trkpt><trkpt lat="46.0369986" lon="12.0397326"><ele>391.0</ele><time>2026-05-02T13:11:00.301Z</time></trkpt><trkpt lat="46.0369349" lon="12.0397451"><ele>390.99999999999994</ele><time>2026-05-02T13:11:02.304Z</time></trkpt><trkpt lat="46.0368713" lon="12.0397648"><ele>391.0</ele><time>2026-05-02T13:11:04.316Z</time></trkpt><trkpt lat="46.0368085" lon="12.0397902"><ele>391.0</ele><time>2026-05-02T13:11:06.303Z</time></trkpt><trkpt lat="46.0367462" lon="12.0398162"><ele>391.0</ele><time>2026-05-02T13:11:08.306Z</time></trkpt><trkpt lat="46.0366851" lon="12.0398421"><ele>391.0</ele><time>2026-05-02T13:11:10.309Z</time></trkpt><trkpt lat="46.0365995" lon="12.0398844"><ele>390.99999999999994</ele><time>2026-05-02T13:11:13.309Z</time></trkpt><trkpt lat="46.0365134" lon="12.0399289"><ele>391.0</ele><time>2026-05-02T13:11:16.304Z</time></trkpt><trkpt lat="46.0364298" lon="12.0399677"><ele>390.6666666666667</ele><time>2026-05-02T13:11:19.306Z</time></trkpt><trkpt lat="46.0363223" lon="12.0400164"><ele>390.33333333333337</ele><time>2026-05-02T13:11:23.308Z</time></trkpt><trkpt lat="46.0362421" lon="12.0400497"><ele>390.0</ele><time>2026-05-02T13:11:26.306Z</time></trkpt><trkpt lat="46.0361668" lon="12.0400792"><ele>389.66666666666663</ele><time>2026-05-02T13:11:29.311Z</time></trkpt><trkpt lat="46.0360958" lon="12.0401087"><ele>389.3333333333333</ele><time>2026-05-02T13:11:32.308Z</time></trkpt><trkpt lat="46.0360263" lon="12.0401409"><ele>389.0</ele><time>2026-05-02T13:11:35.303Z</time></trkpt><trkpt lat="46.0359579" lon="12.0401667"><ele>388.99999999999994</ele><time>2026-05-02T13:11:38.308Z</time></trkpt><trkpt lat="46.0358883" lon="12.0401858"><ele>389.0</ele><time>2026-05-02T13:11:41.308Z</time></trkpt><trkpt lat="46.0358204" lon="12.0402055"><ele>389.0</ele><time>2026-05-02T13:11:44.31Z</time></trkpt><trkpt lat="46.0357538" lon="12.0402168"><ele>389.0</ele><time>2026-05-02T13:11:47.313Z</time></trkpt><trkpt lat="46.0356723" lon="12.0402379"><ele>388.99999999999994</ele><time>2026-05-02T13:11:51.309Z</time></trkpt><trkpt lat="46.03559" lon="12.0402466"><ele>389.0</ele><time>2026-05-02T13:11:55.312Z</time></trkpt><trkpt lat="46.0355104" lon="12.0402552"><ele>391.14285714285717</ele><time>2026-05-02T13:11:59.315Z</time></trkpt><trkpt lat="46.035446" lon="12.0402781"><ele>393.2857142857143</ele><time>2026-05-02T13:12:02.307Z</time></trkpt><trkpt lat="46.0353872" lon="12.0403281"><ele>395.42857142857144</ele><time>2026-05-02T13:12:05.303Z</time></trkpt><trkpt lat="46.0353457" lon="12.0403987"><ele>397.57142857142856</ele><time>2026-05-02T13:12:08.309Z</time></trkpt><trkpt lat="46.0353106" lon="12.0404767"><ele>399.71428571428567</ele><time>2026-05-02T13:12:11.307Z</time></trkpt><trkpt lat="46.0352699" lon="12.0405516"><ele>401.85714285714283</ele><time>2026-05-02T13:12:14.307Z</time></trkpt><trkpt lat="46.0352225" lon="12.0406133"><ele>404.0</ele><time>2026-05-02T13:12:17.308Z</time></trkpt><trkpt lat="46.0351524" lon="12.0406776"><ele>403.99999999999994</ele><time>2026-05-02T13:12:21.307Z</time></trkpt><trkpt lat="46.035077" lon="12.0407242"><ele>404.0</ele><time>2026-05-02T13:12:25.303Z</time></trkpt><trkpt lat="46.0350023" lon="12.0407644"><ele>404.0</ele><time>2026-05-02T13:12:29.301Z</time></trkpt><trkpt lat="46.0349265" lon="12.0407816"><ele>404.0</ele><time>2026-05-02T13:12:33.305Z</time></trkpt><trkpt lat="46.0348498" lon="12.0407892"><ele>403.99999999999994</ele><time>2026-05-02T13:12:37.316Z</time></trkpt><trkpt lat="46.0347801" lon="12.0407863"><ele>404.0</ele><time>2026-05-02T13:12:41.306Z</time></trkpt><trkpt lat="46.0347136" lon="12.040775"><ele>407.16666666666663</ele><time>2026-05-02T13:12:45.302Z</time></trkpt><trkpt lat="46.0346455" lon="12.0407579"><ele>410.3333333333333</ele><time>2026-05-02T13:12:49.308Z</time></trkpt><trkpt lat="46.0345648" lon="12.0407296"><ele>413.5</ele><time>2026-05-02T13:12:53.307Z</time></trkpt><trkpt lat="46.0344848" lon="12.0407154"><ele>416.66666666666663</ele><time>2026-05-02T13:12:57.31Z</time></trkpt><trkpt lat="46.0344111" lon="12.0406931"><ele>419.8333333333333</ele><time>2026-05-02T13:13:01.307Z</time></trkpt><trkpt lat="46.0343291" lon="12.0406713"><ele>423.0</ele><time>2026-05-02T13:13:05.312Z</time></trkpt><trkpt lat="46.0342477" lon="12.0406855"><ele>423.0</ele><time>2026-05-02T13:13:09.308Z</time></trkpt><trkpt lat="46.0341705" lon="12.0407073"><ele>423.0</ele><time>2026-05-02T13:13:13.304Z</time></trkpt><trkpt lat="46.0340933" lon="12.040737"><ele>423.0</ele><time>2026-05-02T13:13:17.31Z</time></trkpt><trkpt lat="46.0340125" lon="12.0407684"><ele>423.0</ele><time>2026-05-02T13:13:21.307Z</time></trkpt><trkpt lat="46.0339376" lon="12.0408064"><ele>423.0</ele><time>2026-05-02T13:13:25.306Z</time></trkpt><trkpt lat="46.0338606" lon="12.0408471"><ele>423.0</ele><time>2026-05-02T13:13:29.305Z</time></trkpt><trkpt lat="46.0337891" lon="12.0408953"><ele>422.85714285714283</ele><time>2026-05-02T13:13:33.303Z</time></trkpt><trkpt lat="46.0337153" lon="12.0409402"><ele>422.7142857142857</ele><time>2026-05-02T13:13:37.31Z</time></trkpt><trkpt lat="46.0336572" lon="12.0409762"><ele>422.57142857142856</ele><time>2026-05-02T13:13:40.31Z</time></trkpt><trkpt lat="46.0335947" lon="12.0409997"><ele>422.42857142857144</ele><time>2026-05-02T13:13:43.308Z</time></trkpt><trkpt lat="46.0335114" lon="12.0410293"><ele>422.28571428571433</ele><time>2026-05-02T13:13:47.322Z</time></trkpt><trkpt lat="46.0334329" lon="12.0410712"><ele>422.14285714285717</ele><time>2026-05-02T13:13:51.311Z</time></trkpt><trkpt lat="46.0333734" lon="12.0411023"><ele>422.0</ele><time>2026-05-02T13:13:54.309Z</time></trkpt><trkpt lat="46.0333162" lon="12.0411408"><ele>423.7142857142857</ele><time>2026-05-02T13:13:57.313Z</time></trkpt><trkpt lat="46.0332585" lon="12.0411781"><ele>425.42857142857144</ele><time>2026-05-02T13:14:00.308Z</time></trkpt><trkpt lat="46.0332028" lon="12.0412223"><ele>427.1428571428571</ele><time>2026-05-02T13:14:03.306Z</time></trkpt><trkpt lat="46.0331465" lon="12.0412667"><ele>428.8571428571429</ele><time>2026-05-02T13:14:06.3Z</time></trkpt><trkpt lat="46.0330696" lon="12.0413098"><ele>430.57142857142856</ele><time>2026-05-02T13:14:10.306Z</time></trkpt><trkpt lat="46.0330067" lon="12.0413404"><ele>432.2857142857143</ele><time>2026-05-02T13:14:13.31Z</time></trkpt><trkpt lat="46.0329277" lon="12.0413684"><ele>434.0</ele><time>2026-05-02T13:14:17.303Z</time></trkpt><trkpt lat="46.0328653" lon="12.0413966"><ele>433.99999999999994</ele><time>2026-05-02T13:14:20.303Z</time></trkpt><trkpt lat="46.0327842" lon="12.0414164"><ele>434.0</ele><time>2026-05-02T13:14:24.307Z</time></trkpt><trkpt lat="46.0327043" lon="12.0414258"><ele>434.0</ele><time>2026-05-02T13:14:28.308Z</time></trkpt><trkpt lat="46.0326233" lon="12.041439"><ele>434.0</ele><time>2026-05-02T13:14:32.307Z</time></trkpt><trkpt lat="46.0325416" lon="12.0414482"><ele>433.99999999999994</ele><time>2026-05-02T13:14:36.327Z</time></trkpt><trkpt lat="46.0324629" lon="12.0414365"><ele>434.0</ele><time>2026-05-02T13:14:40.309Z</time></trkpt><trkpt lat="46.0323813" lon="12.0414256"><ele>436.0</ele><time>2026-05-02T13:14:44.308Z</time></trkpt><trkpt lat="46.0323182" lon="12.0414181"><ele>438.0</ele><time>2026-05-02T13:14:47.313Z</time></trkpt><trkpt lat="46.0322517" lon="12.0414135"><ele>440.0</ele><time>2026-05-02T13:14:50.308Z</time></trkpt><trkpt lat="46.0321853" lon="12.0414135"><ele>442.0</ele><time>2026-05-02T13:14:53.309Z</time></trkpt><trkpt lat="46.0321204" lon="12.0414143"><ele>444.0</ele><time>2026-05-02T13:14:56.299Z</time></trkpt><trkpt lat="46.0320552" lon="12.0414246"><ele>446.0</ele><time>2026-05-02T13:14:59.308Z</time></trkpt><trkpt lat="46.0319711" lon="12.0414289"><ele>448.0</ele><time>2026-05-02T13:15:03.31Z</time></trkpt><trkpt lat="46.0319055" lon="12.0414536"><ele>448.0</ele><time>2026-05-02T13:15:06.312Z</time></trkpt><trkpt lat="46.0318463" lon="12.0414894"><ele>448.0</ele><time>2026-05-02T13:15:09.306Z</time></trkpt><trkpt lat="46.0317707" lon="12.0415416"><ele>448.0</ele><time>2026-05-02T13:15:13.306Z</time></trkpt><trkpt lat="46.031717" lon="12.041592"><ele>448.0</ele><time>2026-05-02T13:15:16.307Z</time></trkpt><trkpt lat="46.031651" lon="12.0416647"><ele>448.0</ele><time>2026-05-02T13:15:20.306Z</time></trkpt><trkpt lat="46.0315933" lon="12.0417314"><ele>448.0</ele><time>2026-05-02T13:15:24.307Z</time></trkpt><trkpt lat="46.0315372" lon="12.0417993"><ele>448.0</ele><time>2026-05-02T13:15:28.306Z</time></trkpt><trkpt lat="46.0314745" lon="12.0418666"><ele>450.00000000000006</ele><time>2026-05-02T13:15:32.305Z</time></trkpt><trkpt lat="46.0314144" lon="12.041912"><ele>452.0</ele><time>2026-05-02T13:15:35.307Z</time></trkpt><trkpt lat="46.0313446" lon="12.0419551"><ele>454.0</ele><time>2026-05-02T13:15:39.307Z</time></trkpt><trkpt lat="46.0312644" lon="12.0419959"><ele>456.0</ele><time>2026-05-02T13:15:43.309Z</time></trkpt><trkpt lat="46.0311978" lon="12.0420595"><ele>458.00000000000006</ele><time>2026-05-02T13:15:46.308Z</time></trkpt><trkpt lat="46.0311476" lon="12.0421552"><ele>460.0</ele><time>2026-05-02T13:15:49.304Z</time></trkpt><trkpt lat="46.0311504" lon="12.042273"><ele>460.00000000000006</ele><time>2026-05-02T13:15:52.305Z</time></trkpt><trkpt lat="46.0311502" lon="12.0423903"><ele>460.0</ele><time>2026-05-02T13:15:55.309Z</time></trkpt><trkpt lat="46.0311067" lon="12.0424985"><ele>460.0</ele><time>2026-05-02T13:15:58.306Z</time></trkpt><trkpt lat="46.0310461" lon="12.0425999"><ele>460.0</ele><time>2026-05-02T13:16:01.303Z</time></trkpt><trkpt lat="46.0309918" lon="12.0426468"><ele>460.00000000000006</ele><time>2026-05-02T13:16:03.308Z</time></trkpt><trkpt lat="46.0309284" lon="12.04267"><ele>460.0</ele><time>2026-05-02T13:16:05.305Z</time></trkpt><trkpt lat="46.0308644" lon="12.0426647"><ele>459.42857142857133</ele><time>2026-05-02T13:16:07.3Z</time></trkpt><trkpt lat="46.0307986" lon="12.0426516"><ele>458.85714285714283</ele><time>2026-05-02T13:16:09.308Z</time></trkpt><trkpt lat="46.0307282" lon="12.0426351"><ele>458.2857142857142</ele><time>2026-05-02T13:16:11.297Z</time></trkpt><trkpt lat="46.0306598" lon="12.0426237"><ele>457.71428571428567</ele><time>2026-05-02T13:16:13.311Z</time></trkpt><trkpt lat="46.0305844" lon="12.0426221"><ele>457.1428571428571</ele><time>2026-05-02T13:16:15.309Z</time></trkpt><trkpt lat="46.0305046" lon="12.0426355"><ele>456.57142857142856</ele><time>2026-05-02T13:16:17.311Z</time></trkpt><trkpt lat="46.0304285" lon="12.0426526"><ele>456.0</ele><time>2026-05-02T13:16:19.309Z</time></trkpt><trkpt lat="46.030359" lon="12.0426573"><ele>456.0</ele><time>2026-05-02T13:16:21.311Z</time></trkpt><trkpt lat="46.0302817" lon="12.0426667"><ele>456.0</ele><time>2026-05-02T13:16:23.315Z</time></trkpt><trkpt lat="46.0301957" lon="12.0426752"><ele>456.0</ele><time>2026-05-02T13:16:25.308Z</time></trkpt><trkpt lat="46.0301125" lon="12.0427165"><ele>456.0</ele><time>2026-05-02T13:16:27.303Z</time></trkpt><trkpt lat="46.0300457" lon="12.0427936"><ele>456.0</ele><time>2026-05-02T13:16:29.309Z</time></trkpt><trkpt lat="46.0299964" lon="12.0428705"><ele>456.0</ele><time>2026-05-02T13:16:31.301Z</time></trkpt><trkpt lat="46.0299415" lon="12.0429439"><ele>456.4285714285714</ele><time>2026-05-02T13:16:33.304Z</time></trkpt><trkpt lat="46.0298801" lon="12.0430057"><ele>456.8571428571428</ele><time>2026-05-02T13:16:35.306Z</time></trkpt><trkpt lat="46.0298176" lon="12.0430654"><ele>457.2857142857143</ele><time>2026-05-02T13:16:37.306Z</time></trkpt><trkpt lat="46.0297546" lon="12.0431214"><ele>457.71428571428567</ele><time>2026-05-02T13:16:39.313Z</time></trkpt><trkpt lat="46.0296929" lon="12.0431801"><ele>458.1428571428571</ele><time>2026-05-02T13:16:41.308Z</time></trkpt><trkpt lat="46.0296343" lon="12.0432282"><ele>458.57142857142856</ele><time>2026-05-02T13:16:43.303Z</time></trkpt><trkpt lat="46.0295704" lon="12.0432764"><ele>459.0</ele><time>2026-05-02T13:16:45.307Z</time></trkpt><trkpt lat="46.029504" lon="12.0433217"><ele>459.0</ele><time>2026-05-02T13:16:47.311Z</time></trkpt><trkpt lat="46.0294392" lon="12.0433664"><ele>459.0</ele><time>2026-05-02T13:16:49.309Z</time></trkpt><trkpt lat="46.0293743" lon="12.0434063"><ele>459.0</ele><time>2026-05-02T13:16:51.312Z</time></trkpt><trkpt lat="46.0293121" lon="12.0434365"><ele>459.0</ele><time>2026-05-02T13:16:53.307Z</time></trkpt><trkpt lat="46.0292245" lon="12.0434808"><ele>459.0</ele><time>2026-05-02T13:16:56.314Z</time></trkpt><trkpt lat="46.0291323" lon="12.0435058"><ele>459.0</ele><time>2026-05-02T13:16:59.305Z</time></trkpt><trkpt lat="46.0290628" lon="12.0435174"><ele>462.5</ele><time>2026-05-02T13:17:01.307Z</time></trkpt><trkpt lat="46.0289931" lon="12.0435439"><ele>466.0</ele><time>2026-05-02T13:17:03.315Z</time></trkpt><trkpt lat="46.0289253" lon="12.0435803"><ele>469.5</ele><time>2026-05-02T13:17:05.304Z</time></trkpt><trkpt lat="46.0288479" lon="12.0436273"><ele>473.0</ele><time>2026-05-02T13:17:07.309Z</time></trkpt><trkpt lat="46.02878" lon="12.0436863"><ele>476.5</ele><time>2026-05-02T13:17:09.31Z</time></trkpt><trkpt lat="46.0287034" lon="12.0437406"><ele>480.0</ele><time>2026-05-02T13:17:11.309Z</time></trkpt><trkpt lat="46.0286358" lon="12.0437831"><ele>480.0</ele><time>2026-05-02T13:17:13.307Z</time></trkpt><trkpt lat="46.028557" lon="12.0438054"><ele>480.0</ele><time>2026-05-02T13:17:15.316Z</time></trkpt><trkpt lat="46.0284774" lon="12.0438073"><ele>480.0</ele><time>2026-05-02T13:17:17.305Z</time></trkpt><trkpt lat="46.0283976" lon="12.0438073"><ele>480.0</ele><time>2026-05-02T13:17:19.304Z</time></trkpt><trkpt lat="46.0283217" lon="12.0438221"><ele>480.0</ele><time>2026-05-02T13:17:21.312Z</time></trkpt><trkpt lat="46.0282516" lon="12.0438488"><ele>480.0</ele><time>2026-05-02T13:17:23.307Z</time></trkpt><trkpt lat="46.0281937" lon="12.0439023"><ele>482.0</ele><time>2026-05-02T13:17:25.31Z</time></trkpt><trkpt lat="46.0281361" lon="12.0439428"><ele>484.0</ele><time>2026-05-02T13:17:27.302Z</time></trkpt><trkpt lat="46.0280584" lon="12.0439894"><ele>486.0</ele><time>2026-05-02T13:17:30.31Z</time></trkpt><trkpt lat="46.0279989" lon="12.0440212"><ele>488.0</ele><time>2026-05-02T13:17:33.304Z</time></trkpt><trkpt lat="46.0279381" lon="12.0440675"><ele>490.0</ele><time>2026-05-02T13:17:37.309Z</time></trkpt><trkpt lat="46.0278797" lon="12.0441132"><ele>492.0</ele><time>2026-05-02T13:18:38.313Z</time></trkpt><trkpt lat="46.0277997" lon="12.0441482"><ele>494.0</ele><time>2026-05-02T13:18:41.315Z</time></trkpt><trkpt lat="46.027734" lon="12.0441772"><ele>491.49999999999994</ele><time>2026-05-02T13:18:43.314Z</time></trkpt><trkpt lat="46.0276664" lon="12.0442021"><ele>489.0</ele><time>2026-05-02T13:18:45.313Z</time></trkpt><trkpt lat="46.02758" lon="12.0442432"><ele>486.5</ele><time>2026-05-02T13:18:48.313Z</time></trkpt><trkpt lat="46.0274948" lon="12.0442777"><ele>484.0</ele><time>2026-05-02T13:18:51.306Z</time></trkpt><trkpt lat="46.0274224" lon="12.0442726"><ele>481.49999999999994</ele><time>2026-05-02T13:18:54.313Z</time></trkpt><trkpt lat="46.0273513" lon="12.0442608"><ele>479.0</ele><time>2026-05-02T13:18:58.307Z</time></trkpt><trkpt lat="46.0272731" lon="12.0442564"><ele>479.0</ele><time>2026-05-02T13:19:02.313Z</time></trkpt><trkpt lat="46.0272083" lon="12.0442674"><ele>479.0</ele><time>2026-05-02T13:19:05.308Z</time></trkpt><trkpt lat="46.0271645" lon="12.0443516"><ele>479.0</ele><time>2026-05-02T13:19:08.303Z</time></trkpt><trkpt lat="46.027151" lon="12.0444507"><ele>479.0</ele><time>2026-05-02T13:19:11.299Z</time></trkpt><trkpt lat="46.0271412" lon="12.0445606"><ele>479.0</ele><time>2026-05-02T13:19:14.31Z</time></trkpt><trkpt lat="46.0271108" lon="12.0446604"><ele>479.0</ele><time>2026-05-02T13:19:17.295Z</time></trkpt><trkpt lat="46.02707" lon="12.0447614"><ele>479.0</ele><time>2026-05-02T13:19:20.301Z</time></trkpt><trkpt lat="46.0270306" lon="12.044856"><ele>476.16666666666663</ele><time>2026-05-02T13:19:23.302Z</time></trkpt><trkpt lat="46.0269942" lon="12.0449649"><ele>473.3333333333333</ele><time>2026-05-02T13:19:26.308Z</time></trkpt><trkpt lat="46.0269597" lon="12.0450791"><ele>470.5</ele><time>2026-05-02T13:19:29.301Z</time></trkpt><trkpt lat="46.0269157" lon="12.0451843"><ele>467.66666666666663</ele><time>2026-05-02T13:19:32.301Z</time></trkpt><trkpt lat="46.0268476" lon="12.0452817"><ele>464.8333333333333</ele><time>2026-05-02T13:19:35.314Z</time></trkpt><trkpt lat="46.0267934" lon="12.0453546"><ele>462.0</ele><time>2026-05-02T13:19:37.309Z</time></trkpt><trkpt lat="46.0267421" lon="12.0454413"><ele>462.0</ele><time>2026-05-02T13:19:39.312Z</time></trkpt><trkpt lat="46.0267127" lon="12.0455452"><ele>462.0</ele><time>2026-05-02T13:19:41.313Z</time></trkpt><trkpt lat="46.0266781" lon="12.0456451"><ele>462.0</ele><time>2026-05-02T13:19:43.312Z</time></trkpt><trkpt lat="46.0266385" lon="12.0457501"><ele>462.0</ele><time>2026-05-02T13:19:45.315Z</time></trkpt><trkpt lat="46.0265981" lon="12.0458554"><ele>462.0</ele><time>2026-05-02T13:19:47.309Z</time></trkpt><trkpt lat="46.0265504" lon="12.0459467"><ele>462.0</ele><time>2026-05-02T13:19:49.315Z</time></trkpt><trkpt lat="46.0264865" lon="12.0460097"><ele>462.1428571428571</ele><time>2026-05-02T13:19:51.306Z</time></trkpt><trkpt lat="46.0264165" lon="12.0460282"><ele>462.2857142857143</ele><time>2026-05-02T13:19:53.307Z</time></trkpt><trkpt lat="46.0263446" lon="12.0460239"><ele>462.42857142857144</ele><time>2026-05-02T13:19:55.312Z</time></trkpt><trkpt lat="46.0262744" lon="12.0460176"><ele>462.57142857142856</ele><time>2026-05-02T13:19:57.302Z</time></trkpt><trkpt lat="46.026204" lon="12.0460313"><ele>462.71428571428567</ele><time>2026-05-02T13:19:59.31Z</time></trkpt><trkpt lat="46.0261353" lon="12.0460577"><ele>462.85714285714283</ele><time>2026-05-02T13:20:01.307Z</time></trkpt><trkpt lat="46.0260694" lon="12.0460944"><ele>463.0</ele><time>2026-05-02T13:20:03.307Z</time></trkpt><trkpt lat="46.0260067" lon="12.0461376"><ele>463.0</ele><time>2026-05-02T13:20:05.316Z</time></trkpt><trkpt lat="46.0259446" lon="12.046176"><ele>462.99999999999994</ele><time>2026-05-02T13:20:07.314Z</time></trkpt><trkpt lat="46.0258777" lon="12.046207"><ele>463.0</ele><time>2026-05-02T13:20:09.309Z</time></trkpt><trkpt lat="46.0258128" lon="12.0462428"><ele>463.0</ele><time>2026-05-02T13:20:11.338Z</time></trkpt><trkpt lat="46.0257479" lon="12.0462729"><ele>462.99999999999994</ele><time>2026-05-02T13:20:13.302Z</time></trkpt><trkpt lat="46.0256825" lon="12.046307"><ele>463.0</ele><time>2026-05-02T13:20:15.314Z</time></trkpt><trkpt lat="46.0256156" lon="12.0463337"><ele>463.0</ele><time>2026-05-02T13:20:17.314Z</time></trkpt><trkpt lat="46.0255509" lon="12.046363"><ele>464.71428571428567</ele><time>2026-05-02T13:20:19.306Z</time></trkpt><trkpt lat="46.0254847" lon="12.0463873"><ele>466.4285714285714</ele><time>2026-05-02T13:20:21.31Z</time></trkpt><trkpt lat="46.0254188" lon="12.0464048"><ele>468.1428571428571</ele><time>2026-05-02T13:20:23.314Z</time></trkpt><trkpt lat="46.025353" lon="12.0464147"><ele>469.8571428571429</ele><time>2026-05-02T13:20:25.312Z</time></trkpt><trkpt lat="46.0252854" lon="12.0464287"><ele>471.5714285714286</ele><time>2026-05-02T13:20:27.315Z</time></trkpt><trkpt lat="46.0252185" lon="12.0464512"><ele>473.28571428571433</ele><time>2026-05-02T13:20:29.317Z</time></trkpt><trkpt lat="46.0251545" lon="12.0464831"><ele>475.0</ele><time>2026-05-02T13:20:31.309Z</time></trkpt><trkpt lat="46.0250893" lon="12.0465191"><ele>475.0</ele><time>2026-05-02T13:20:33.304Z</time></trkpt><trkpt lat="46.0250257" lon="12.0465513"><ele>475.00000000000006</ele><time>2026-05-02T13:20:35.299Z</time></trkpt><trkpt lat="46.0249647" lon="12.0465798"><ele>475.0</ele><time>2026-05-02T13:20:37.314Z</time></trkpt><trkpt lat="46.0249031" lon="12.0466083"><ele>475.0</ele><time>2026-05-02T13:20:39.308Z</time></trkpt><trkpt lat="46.0248393" lon="12.0466333"><ele>475.00000000000006</ele><time>2026-05-02T13:20:41.302Z</time></trkpt><trkpt lat="46.0247745" lon="12.0466523"><ele>475.0</ele><time>2026-05-02T13:20:43.309Z</time></trkpt><trkpt lat="46.0247105" lon="12.046677"><ele>475.0</ele><time>2026-05-02T13:20:45.316Z</time></trkpt><trkpt lat="46.0246465" lon="12.0467024"><ele>475.5714285714286</ele><time>2026-05-02T13:20:47.306Z</time></trkpt><trkpt lat="46.0245849" lon="12.0467409"><ele>476.1428571428572</ele><time>2026-05-02T13:20:49.31Z</time></trkpt><trkpt lat="46.0245327" lon="12.0467982"><ele>476.7142857142857</ele><time>2026-05-02T13:20:51.314Z</time></trkpt><trkpt lat="46.0244875" lon="12.0468622"><ele>477.28571428571433</ele><time>2026-05-02T13:20:53.315Z</time></trkpt><trkpt lat="46.0244227" lon="12.0469623"><ele>477.8571428571429</ele><time>2026-05-02T13:20:56.311Z</time></trkpt><trkpt lat="46.0243708" lon="12.0470171"><ele>478.42857142857144</ele><time>2026-05-02T13:20:58.315Z</time></trkpt><trkpt lat="46.0243153" lon="12.0470752"><ele>479.0</ele><time>2026-05-02T13:21:00.315Z</time></trkpt><trkpt lat="46.0242587" lon="12.0471416"><ele>479.0</ele><time>2026-05-02T13:21:02.314Z</time></trkpt><trkpt lat="46.0242129" lon="12.0472183"><ele>479.0</ele><time>2026-05-02T13:21:04.309Z</time></trkpt><trkpt lat="46.0241719" lon="12.047294"><ele>479.0</ele><time>2026-05-02T13:21:06.302Z</time></trkpt><trkpt lat="46.0241323" lon="12.0473749"><ele>479.0</ele><time>2026-05-02T13:21:08.319Z</time></trkpt><trkpt lat="46.0240753" lon="12.0474336"><ele>479.0</ele><time>2026-05-02T13:21:10.308Z</time></trkpt><trkpt lat="46.0240066" lon="12.0474577"><ele>479.0</ele><time>2026-05-02T13:21:12.311Z</time></trkpt><trkpt lat="46.0239378" lon="12.0474662"><ele>479.0</ele><time>2026-05-02T13:21:14.313Z</time></trkpt><trkpt lat="46.0238714" lon="12.0474704"><ele>479.71428571428567</ele><time>2026-05-02T13:21:16.312Z</time></trkpt><trkpt lat="46.0238058" lon="12.0474848"><ele>480.42857142857144</ele><time>2026-05-02T13:21:18.313Z</time></trkpt><trkpt lat="46.0237463" lon="12.0475301"><ele>481.1428571428571</ele><time>2026-05-02T13:21:20.315Z</time></trkpt><trkpt lat="46.0237132" lon="12.0476135"><ele>481.85714285714283</ele><time>2026-05-02T13:21:22.313Z</time></trkpt><trkpt lat="46.023702" lon="12.0477063"><ele>482.57142857142856</ele><time>2026-05-02T13:21:24.314Z</time></trkpt><trkpt lat="46.0236855" lon="12.0478023"><ele>483.2857142857143</ele><time>2026-05-02T13:21:26.314Z</time></trkpt><trkpt lat="46.0236471" lon="12.0478819"><ele>484.0</ele><time>2026-05-02T13:21:28.314Z</time></trkpt><trkpt lat="46.0235869" lon="12.0479348"><ele>484.0</ele><time>2026-05-02T13:21:30.311Z</time></trkpt><trkpt lat="46.0235187" lon="12.047973"><ele>483.99999999999994</ele><time>2026-05-02T13:21:32.313Z</time></trkpt><trkpt lat="46.023451" lon="12.0480112"><ele>484.0</ele><time>2026-05-02T13:21:34.312Z</time></trkpt><trkpt lat="46.0233857" lon="12.0480565"><ele>484.0</ele><time>2026-05-02T13:21:36.317Z</time></trkpt><trkpt lat="46.0233243" lon="12.0481"><ele>483.99999999999994</ele><time>2026-05-02T13:21:38.32Z</time></trkpt><trkpt lat="46.0232597" lon="12.0481273"><ele>484.0</ele><time>2026-05-02T13:21:40.314Z</time></trkpt><trkpt lat="46.0231919" lon="12.0481391"><ele>484.0</ele><time>2026-05-02T13:21:42.313Z</time></trkpt><trkpt lat="46.0231236" lon="12.0481412"><ele>484.85714285714283</ele><time>2026-05-02T13:21:44.313Z</time></trkpt><trkpt lat="46.0230587" lon="12.0481316"><ele>485.71428571428567</ele><time>2026-05-02T13:21:46.313Z</time></trkpt><trkpt lat="46.0229903" lon="12.0481172"><ele>486.57142857142856</ele><time>2026-05-02T13:21:48.297Z</time></trkpt><trkpt lat="46.0229209" lon="12.0481029"><ele>487.42857142857144</ele><time>2026-05-02T13:21:50.314Z</time></trkpt><trkpt lat="46.0228565" lon="12.0480797"><ele>488.2857142857143</ele><time>2026-05-02T13:21:52.316Z</time></trkpt><trkpt lat="46.0227893" lon="12.0480621"><ele>489.1428571428571</ele><time>2026-05-02T13:21:54.315Z</time></trkpt><trkpt lat="46.0227238" lon="12.0480476"><ele>490.0</ele><time>2026-05-02T13:21:56.31Z</time></trkpt><trkpt lat="46.0226592" lon="12.0480379"><ele>490.0</ele><time>2026-05-02T13:21:58.314Z</time></trkpt><trkpt lat="46.0225934" lon="12.0480311"><ele>490.0</ele><time>2026-05-02T13:22:00.316Z</time></trkpt><trkpt lat="46.0225288" lon="12.0480335"><ele>490.0</ele><time>2026-05-02T13:22:02.312Z</time></trkpt><trkpt lat="46.0224634" lon="12.0480395"><ele>490.0</ele><time>2026-05-02T13:22:04.313Z</time></trkpt><trkpt lat="46.0223927" lon="12.0480426"><ele>490.0</ele><time>2026-05-02T13:22:06.31Z</time></trkpt><trkpt lat="46.0223244" lon="12.0480482"><ele>490.0</ele><time>2026-05-02T13:22:08.314Z</time></trkpt><trkpt lat="46.0222497" lon="12.0480371"><ele>490.0</ele><time>2026-05-02T13:22:10.305Z</time></trkpt><trkpt lat="46.0221808" lon="12.048005"><ele>491.8571428571429</ele><time>2026-05-02T13:22:12.299Z</time></trkpt><trkpt lat="46.0221157" lon="12.0479559"><ele>493.7142857142857</ele><time>2026-05-02T13:22:14.312Z</time></trkpt><trkpt lat="46.0220682" lon="12.0478753"><ele>495.57142857142856</ele><time>2026-05-02T13:22:16.314Z</time></trkpt><trkpt lat="46.0220411" lon="12.0477769"><ele>497.42857142857144</ele><time>2026-05-02T13:22:18.308Z</time></trkpt><trkpt lat="46.0220167" lon="12.0476767"><ele>499.28571428571433</ele><time>2026-05-02T13:22:20.313Z</time></trkpt><trkpt lat="46.0219968" lon="12.0475756"><ele>501.14285714285717</ele><time>2026-05-02T13:22:22.332Z</time></trkpt><trkpt lat="46.0219708" lon="12.0474817"><ele>503.0</ele><time>2026-05-02T13:22:24.313Z</time></trkpt><trkpt lat="46.0219267" lon="12.0474066"><ele>502.99999999999994</ele><time>2026-05-02T13:22:26.311Z</time></trkpt><trkpt lat="46.021849" lon="12.0473515"><ele>503.0</ele><time>2026-05-02T13:22:29.322Z</time></trkpt><trkpt lat="46.0217576" lon="12.047334"><ele>503.0</ele><time>2026-05-02T13:22:32.315Z</time></trkpt><trkpt lat="46.02169" lon="12.0473237"><ele>503.0</ele><time>2026-05-02T13:22:34.317Z</time></trkpt><trkpt lat="46.0216262" lon="12.0472906"><ele>502.99999999999994</ele><time>2026-05-02T13:22:36.315Z</time></trkpt><trkpt lat="46.0215611" lon="12.0472531"><ele>503.0</ele><time>2026-05-02T13:22:38.319Z</time></trkpt><trkpt lat="46.0215009" lon="12.0471939"><ele>502.7142857142857</ele><time>2026-05-02T13:22:40.315Z</time></trkpt><trkpt lat="46.0214453" lon="12.0471394"><ele>502.42857142857144</ele><time>2026-05-02T13:22:42.317Z</time></trkpt><trkpt lat="46.0213823" lon="12.0470956"><ele>502.14285714285717</ele><time>2026-05-02T13:22:44.314Z</time></trkpt><trkpt lat="46.0213121" lon="12.0470579"><ele>501.8571428571429</ele><time>2026-05-02T13:22:46.316Z</time></trkpt><trkpt lat="46.0212424" lon="12.0470232"><ele>501.57142857142856</ele><time>2026-05-02T13:22:48.31Z</time></trkpt><trkpt lat="46.0211706" lon="12.0469924"><ele>501.28571428571433</ele><time>2026-05-02T13:22:50.309Z</time></trkpt><trkpt lat="46.0211095" lon="12.0469616"><ele>501.0</ele><time>2026-05-02T13:22:52.312Z</time></trkpt><trkpt lat="46.0210274" lon="12.0469335"><ele>501.0</ele><time>2026-05-02T13:22:54.313Z</time></trkpt><trkpt lat="46.0209504" lon="12.046892"><ele>501.0</ele><time>2026-05-02T13:22:56.304Z</time></trkpt><trkpt lat="46.0208746" lon="12.0468533"><ele>501.0</ele><time>2026-05-02T13:22:58.302Z</time></trkpt><trkpt lat="46.0207999" lon="12.0468118"><ele>501.0</ele><time>2026-05-02T13:23:00.303Z</time></trkpt><trkpt lat="46.0207231" lon="12.0467692"><ele>501.0</ele><time>2026-05-02T13:23:02.301Z</time></trkpt><trkpt lat="46.0206489" lon="12.0467215"><ele>501.0</ele><time>2026-05-02T13:23:04.321Z</time></trkpt><trkpt lat="46.0205738" lon="12.0466671"><ele>502.5</ele><time>2026-05-02T13:23:06.299Z</time></trkpt><trkpt lat="46.0204965" lon="12.0466195"><ele>504.0</ele><time>2026-05-02T13:23:08.347Z</time></trkpt><trkpt lat="46.0204199" lon="12.0465716"><ele>505.5</ele><time>2026-05-02T13:23:10.3Z</time></trkpt><trkpt lat="46.0203424" lon="12.046526"><ele>507.0</ele><time>2026-05-02T13:23:12.299Z</time></trkpt><trkpt lat="46.0202675" lon="12.0464832"><ele>508.5</ele><time>2026-05-02T13:23:14.298Z</time></trkpt><trkpt lat="46.020199" lon="12.0464255"><ele>510.0</ele><time>2026-05-02T13:23:16.299Z</time></trkpt><trkpt lat="46.0201378" lon="12.0463531"><ele>510.0</ele><time>2026-05-02T13:23:18.298Z</time></trkpt><trkpt lat="46.0200781" lon="12.0462693"><ele>510.0</ele><time>2026-05-02T13:23:20.297Z</time></trkpt><trkpt lat="46.0200203" lon="12.0461698"><ele>510.0</ele><time>2026-05-02T13:23:22.298Z</time></trkpt><trkpt lat="46.0199696" lon="12.0460972"><ele>510.0</ele><time>2026-05-02T13:23:24.298Z</time></trkpt><trkpt lat="46.0199109" lon="12.0460253"><ele>510.0</ele><time>2026-05-02T13:23:26.298Z</time></trkpt><trkpt lat="46.0198422" lon="12.0459558"><ele>510.0</ele><time>2026-05-02T13:23:28.301Z</time></trkpt><trkpt lat="46.0197749" lon="12.0458776"><ele>510.0</ele><time>2026-05-02T13:23:30.301Z</time></trkpt><trkpt lat="46.0197105" lon="12.045811"><ele>510.0</ele><time>2026-05-02T13:23:32.299Z</time></trkpt><trkpt lat="46.0196426" lon="12.0457437"><ele>510.0</ele><time>2026-05-02T13:23:34.299Z</time></trkpt><trkpt lat="46.0195734" lon="12.0456667"><ele>510.0</ele><time>2026-05-02T13:23:36.295Z</time></trkpt><trkpt lat="46.0194639" lon="12.0455592"><ele>510.0</ele><time>2026-05-02T13:23:39.308Z</time></trkpt><trkpt lat="46.019383" lon="12.0455012"><ele>510.0</ele><time>2026-05-02T13:23:41.295Z</time></trkpt><trkpt lat="46.0192995" lon="12.0454613"><ele>510.0</ele><time>2026-05-02T13:23:43.297Z</time></trkpt><trkpt lat="46.0192151" lon="12.0454221"><ele>510.0</ele><time>2026-05-02T13:23:45.305Z</time></trkpt><trkpt lat="46.0191351" lon="12.0453766"><ele>510.0</ele><time>2026-05-02T13:23:47.304Z</time></trkpt><trkpt lat="46.0190595" lon="12.0453185"><ele>510.0</ele><time>2026-05-02T13:23:49.307Z</time></trkpt><trkpt lat="46.0189898" lon="12.045244"><ele>510.0</ele><time>2026-05-02T13:23:51.311Z</time></trkpt><trkpt lat="46.0189317" lon="12.0451543"><ele>508.5</ele><time>2026-05-02T13:23:53.311Z</time></trkpt><trkpt lat="46.0188973" lon="12.0450719"><ele>507.0</ele><time>2026-05-02T13:23:55.313Z</time></trkpt><trkpt lat="46.0188574" lon="12.0449677"><ele>505.5</ele><time>2026-05-02T13:23:57.307Z</time></trkpt><trkpt lat="46.0188076" lon="12.0448686"><ele>504.0</ele><time>2026-05-02T13:23:59.306Z</time></trkpt><trkpt lat="46.0187467" lon="12.0447978"><ele>502.5</ele><time>2026-05-02T13:24:00.307Z</time></trkpt><trkpt lat="46.0186948" lon="12.0447108"><ele>501.0</ele><time>2026-05-02T13:24:03.309Z</time></trkpt><trkpt lat="46.0186048" lon="12.0446762"><ele>501.0</ele><time>2026-05-02T13:24:05.308Z</time></trkpt><trkpt lat="46.0185255" lon="12.04464"><ele>501.0</ele><time>2026-05-02T13:24:07.305Z</time></trkpt><trkpt lat="46.0184457" lon="12.0446153"><ele>501.0</ele><time>2026-05-02T13:24:09.314Z</time></trkpt><trkpt lat="46.0183696" lon="12.0445693"><ele>501.0</ele><time>2026-05-02T13:24:11.312Z</time></trkpt><trkpt lat="46.0183099" lon="12.0445042"><ele>501.0</ele><time>2026-05-02T13:24:13.309Z</time></trkpt><trkpt lat="46.0182658" lon="12.0444314"><ele>501.0</ele><time>2026-05-02T13:24:15.318Z</time></trkpt><trkpt lat="46.018233" lon="12.0443533"><ele>497.6666666666667</ele><time>2026-05-02T13:24:17.321Z</time></trkpt><trkpt lat="46.0181956" lon="12.044236"><ele>494.33333333333337</ele><time>2026-05-02T13:24:20.317Z</time></trkpt><trkpt lat="46.0181743" lon="12.0441217"><ele>491.0</ele><time>2026-05-02T13:24:22.316Z</time></trkpt><trkpt lat="46.0181602" lon="12.0440303"><ele>487.6666666666667</ele><time>2026-05-02T13:24:24.312Z</time></trkpt><trkpt lat="46.0181347" lon="12.0439119"><ele>484.33333333333337</ele><time>2026-05-02T13:24:33.311Z</time></trkpt><trkpt lat="46.0180987" lon="12.0437922"><ele>481.0</ele><time>2026-05-02T13:24:35.315Z</time></trkpt><trkpt lat="46.0180814" lon="12.043656"><ele>489.50000000000006</ele><time>2026-05-02T13:24:37.314Z</time></trkpt><trkpt lat="46.0180233" lon="12.0435264"><ele>498.0</ele><time>2026-05-02T13:24:39.308Z</time></trkpt><trkpt lat="46.0179318" lon="12.0434752"><ele>506.5</ele><time>2026-05-02T13:24:41.316Z</time></trkpt><trkpt lat="46.0178566" lon="12.0435039"><ele>515.0</ele><time>2026-05-02T13:24:43.31Z</time></trkpt><trkpt lat="46.0177975" lon="12.043584"><ele>523.5</ele><time>2026-05-02T13:24:45.297Z</time></trkpt><trkpt lat="46.017752" lon="12.0436562"><ele>532.0</ele><time>2026-05-02T13:24:47.313Z</time></trkpt><trkpt lat="46.0177024" lon="12.0437405"><ele>532.0</ele><time>2026-05-02T13:24:50.306Z</time></trkpt><trkpt lat="46.0176427" lon="12.0438036"><ele>532.0</ele><time>2026-05-02T13:24:53.313Z</time></trkpt><trkpt lat="46.0175631" lon="12.0438409"><ele>532.0</ele><time>2026-05-02T13:24:56.307Z</time></trkpt><trkpt lat="46.0174728" lon="12.0438642"><ele>532.0</ele><time>2026-05-02T13:24:59.314Z</time></trkpt><trkpt lat="46.0173845" lon="12.0438642"><ele>532.0</ele><time>2026-05-02T13:25:02.316Z</time></trkpt><trkpt lat="46.0172969" lon="12.043875"><ele>532.0</ele><time>2026-05-02T13:25:05.315Z</time></trkpt><trkpt lat="46.0172126" lon="12.0438716"><ele>534.0</ele><time>2026-05-02T13:25:08.312Z</time></trkpt><trkpt lat="46.017119" lon="12.0438856"><ele>536.0</ele><time>2026-05-02T13:25:11.309Z</time></trkpt><trkpt lat="46.0170304" lon="12.0439214"><ele>538.0</ele><time>2026-05-02T13:25:14.306Z</time></trkpt><trkpt lat="46.0169495" lon="12.0439588"><ele>540.0</ele><time>2026-05-02T13:25:17.312Z</time></trkpt><trkpt lat="46.0168577" lon="12.0439806"><ele>542.0</ele><time>2026-05-02T13:25:20.316Z</time></trkpt><trkpt lat="46.0167617" lon="12.0439859"><ele>542.0</ele><time>2026-05-02T13:25:23.314Z</time></trkpt><trkpt lat="46.0166936" lon="12.0439934"><ele>542.0</ele><time>2026-05-02T13:25:25.315Z</time></trkpt><trkpt lat="46.0166297" lon="12.0439828"><ele>542.0</ele><time>2026-05-02T13:25:27.316Z</time></trkpt><trkpt lat="46.0165463" lon="12.0439723"><ele>542.0</ele><time>2026-05-02T13:25:30.313Z</time></trkpt><trkpt lat="46.0164627" lon="12.0439664"><ele>542.0</ele><time>2026-05-02T13:25:33.308Z</time></trkpt><trkpt lat="46.0163794" lon="12.0439477"><ele>542.0</ele><time>2026-05-02T13:25:36.31Z</time></trkpt><trkpt lat="46.0162939" lon="12.0439317"><ele>540.5</ele><time>2026-05-02T13:25:39.317Z</time></trkpt><trkpt lat="46.0162109" lon="12.0439143"><ele>539.0</ele><time>2026-05-02T13:25:42.31Z</time></trkpt><trkpt lat="46.0161275" lon="12.0439034"><ele>537.5</ele><time>2026-05-02T13:25:45.314Z</time></trkpt><trkpt lat="46.0160431" lon="12.0438855"><ele>536.0</ele><time>2026-05-02T13:25:48.314Z</time></trkpt><trkpt lat="46.0159538" lon="12.0438758"><ele>534.5</ele><time>2026-05-02T13:25:51.31Z</time></trkpt><trkpt lat="46.0158718" lon="12.0438702"><ele>533.0</ele><time>2026-05-02T13:25:54.311Z</time></trkpt><trkpt lat="46.0157879" lon="12.0438663"><ele>532.0</ele><time>2026-05-02T13:25:57.313Z</time></trkpt><trkpt lat="46.0157001" lon="12.0438642"><ele>531.0</ele><time>2026-05-02T13:26:00.312Z</time></trkpt><trkpt lat="46.0156137" lon="12.0438625"><ele>530.0</ele><time>2026-05-02T13:26:03.313Z</time></trkpt><trkpt lat="46.0155235" lon="12.0438731"><ele>529.0</ele><time>2026-05-02T13:26:06.299Z</time></trkpt><trkpt lat="46.0154365" lon="12.0438813"><ele>528.0</ele><time>2026-05-02T13:26:09.303Z</time></trkpt><trkpt lat="46.0153478" lon="12.043878"><ele>527.0</ele><time>2026-05-02T13:26:12.298Z</time></trkpt><trkpt lat="46.0152617" lon="12.0438803"><ele>527.0</ele><time>2026-05-02T13:26:15.301Z</time></trkpt><trkpt lat="46.0151927" lon="12.043867"><ele>527.0</ele><time>2026-05-02T13:26:18.299Z</time></trkpt><trkpt lat="46.0151203" lon="12.0438466"><ele>527.0</ele><time>2026-05-02T13:26:21.301Z</time></trkpt><trkpt lat="46.0150357" lon="12.0438305"><ele>527.0</ele><time>2026-05-02T13:26:24.301Z</time></trkpt><trkpt lat="46.0149496" lon="12.0438068"><ele>527.0</ele><time>2026-05-02T13:26:27.3Z</time></trkpt><trkpt lat="46.0148771" lon="12.0437492"><ele>527.0</ele><time>2026-05-02T13:26:30.298Z</time></trkpt><trkpt lat="46.0148142" lon="12.0436759"><ele>526.1666666666666</ele><time>2026-05-02T13:26:33.299Z</time></trkpt><trkpt lat="46.0147426" lon="12.0436071"><ele>525.3333333333333</ele><time>2026-05-02T13:26:36.302Z</time></trkpt><trkpt lat="46.0146607" lon="12.0435917"><ele>524.5</ele><time>2026-05-02T13:26:39.304Z</time></trkpt><trkpt lat="46.0145888" lon="12.0436055"><ele>523.6666666666666</ele><time>2026-05-02T13:26:42.3Z</time></trkpt><trkpt lat="46.0145145" lon="12.0436083"><ele>522.8333333333334</ele><time>2026-05-02T13:26:45.302Z</time></trkpt><trkpt lat="46.0144386" lon="12.0436174"><ele>522.0</ele><time>2026-05-02T13:26:48.301Z</time></trkpt><trkpt lat="46.0143682" lon="12.0436255"><ele>522.0</ele><time>2026-05-02T13:26:51.305Z</time></trkpt><trkpt lat="46.0142975" lon="12.0436224"><ele>522.0</ele><time>2026-05-02T13:26:54.3Z</time></trkpt><trkpt lat="46.014229" lon="12.0435986"><ele>522.0</ele><time>2026-05-02T13:26:57.306Z</time></trkpt><trkpt lat="46.0141545" lon="12.0435683"><ele>522.0</ele><time>2026-05-02T13:27:00.299Z</time></trkpt><trkpt lat="46.0140722" lon="12.0435244"><ele>522.0</ele><time>2026-05-02T13:27:03.306Z</time></trkpt><trkpt lat="46.0139864" lon="12.0434805"><ele>522.0</ele><time>2026-05-02T13:27:06.306Z</time></trkpt><trkpt lat="46.0139095" lon="12.0434352"><ele>523.6666666666666</ele><time>2026-05-02T13:27:09.298Z</time></trkpt><trkpt lat="46.0138507" lon="12.043387"><ele>525.3333333333334</ele><time>2026-05-02T13:27:12.3Z</time></trkpt><trkpt lat="46.0137952" lon="12.0432849"><ele>527.0</ele><time>2026-05-02T13:27:15.302Z</time></trkpt><trkpt lat="46.0137736" lon="12.0431585"><ele>528.6666666666667</ele><time>2026-05-02T13:27:17.301Z</time></trkpt><trkpt lat="46.0137304" lon="12.0430357"><ele>530.3333333333334</ele><time>2026-05-02T13:27:19.3Z</time></trkpt><trkpt lat="46.01366" lon="12.0429432"><ele>532.0</ele><time>2026-05-02T13:27:21.303Z</time></trkpt><trkpt lat="46.0136012" lon="12.0428634"><ele>532.0</ele><time>2026-05-02T13:27:23.298Z</time></trkpt><trkpt lat="46.013543" lon="12.0428102"><ele>532.0</ele><time>2026-05-02T13:27:25.304Z</time></trkpt><trkpt lat="46.0134884" lon="12.0427164"><ele>532.0</ele><time>2026-05-02T13:27:28.305Z</time></trkpt><trkpt lat="46.013455" lon="12.0425957"><ele>532.0</ele><time>2026-05-02T13:27:31.307Z</time></trkpt><trkpt lat="46.0133835" lon="12.0425222"><ele>532.0</ele><time>2026-05-02T13:27:34.306Z</time></trkpt><trkpt lat="46.0132992" lon="12.0425134"><ele>532.0</ele><time>2026-05-02T13:27:37.312Z</time></trkpt><trkpt lat="46.0132196" lon="12.0425271"><ele>531.1666666666667</ele><time>2026-05-02T13:27:40.317Z</time></trkpt><trkpt lat="46.0131409" lon="12.0425456"><ele>530.3333333333334</ele><time>2026-05-02T13:27:43.318Z</time></trkpt><trkpt lat="46.0130651" lon="12.0425193"><ele>529.5</ele><time>2026-05-02T13:27:46.313Z</time></trkpt><trkpt lat="46.0129869" lon="12.0424634"><ele>528.6666666666666</ele><time>2026-05-02T13:27:49.313Z</time></trkpt><trkpt lat="46.012908" lon="12.0424071"><ele>527.8333333333333</ele><time>2026-05-02T13:27:52.308Z</time></trkpt><trkpt lat="46.0128375" lon="12.0423328"><ele>527.0</ele><time>2026-05-02T13:27:55.308Z</time></trkpt><trkpt lat="46.0127768" lon="12.0422505"><ele>527.0</ele><time>2026-05-02T13:27:58.305Z</time></trkpt><trkpt lat="46.0127163" lon="12.0421709"><ele>527.0</ele><time>2026-05-02T13:28:01.311Z</time></trkpt><trkpt lat="46.0126614" lon="12.0420998"><ele>527.0</ele><time>2026-05-02T13:28:04.307Z</time></trkpt><trkpt lat="46.0126156" lon="12.0420252"><ele>527.0</ele><time>2026-05-02T13:28:07.312Z</time></trkpt><trkpt lat="46.0125872" lon="12.041921"><ele>527.0</ele><time>2026-05-02T13:28:11.315Z</time></trkpt><trkpt lat="46.0125412" lon="12.0418253"><ele>527.0</ele><time>2026-05-02T13:28:14.318Z</time></trkpt><trkpt lat="46.012494" lon="12.04174"><ele>524.0000000000001</ele><time>2026-05-02T13:28:17.308Z</time></trkpt><trkpt lat="46.0124383" lon="12.0416584"><ele>521.0</ele><time>2026-05-02T13:28:20.297Z</time></trkpt><trkpt lat="46.0123831" lon="12.0415809"><ele>518.0</ele><time>2026-05-02T13:28:23.303Z</time></trkpt><trkpt lat="46.0123228" lon="12.0415279"><ele>515.0</ele><time>2026-05-02T13:28:26.301Z</time></trkpt><trkpt lat="46.012291" lon="12.0414414"><ele>512.0</ele><time>2026-05-02T13:28:45.305Z</time></trkpt><trkpt lat="46.0123129" lon="12.0413502"><ele>509.00000000000006</ele><time>2026-05-02T13:29:44.306Z</time></trkpt><trkpt lat="46.0123206" lon="12.0412599"><ele>506.00000000000006</ele><time>2026-05-02T13:29:46.304Z</time></trkpt><trkpt lat="46.0123104" lon="12.0411486"><ele>505.99999999999994</ele><time>2026-05-02T13:29:48.304Z</time></trkpt><trkpt lat="46.0122755" lon="12.041054"><ele>506.0</ele><time>2026-05-02T13:29:50.301Z</time></trkpt><trkpt lat="46.0122294" lon="12.0409608"><ele>506.0</ele><time>2026-05-02T13:29:52.305Z</time></trkpt><trkpt lat="46.0121851" lon="12.0408576"><ele>506.0</ele><time>2026-05-02T13:29:54.301Z</time></trkpt><trkpt lat="46.0121381" lon="12.0407539"><ele>505.99999999999994</ele><time>2026-05-02T13:29:56.301Z</time></trkpt><trkpt lat="46.012091" lon="12.0406477"><ele>506.0</ele><time>2026-05-02T13:29:58.301Z</time></trkpt><trkpt lat="46.012041" lon="12.0405475"><ele>511.3333333333333</ele><time>2026-05-02T13:30:00.304Z</time></trkpt><trkpt lat="46.0119957" lon="12.0404453"><ele>516.6666666666666</ele><time>2026-05-02T13:30:02.304Z</time></trkpt><trkpt lat="46.0119496" lon="12.0403499"><ele>522.0</ele><time>2026-05-02T13:30:04.305Z</time></trkpt><trkpt lat="46.0119065" lon="12.0402564"><ele>527.3333333333334</ele><time>2026-05-02T13:30:06.307Z</time></trkpt><trkpt lat="46.0118632" lon="12.0401622"><ele>532.6666666666667</ele><time>2026-05-02T13:30:08.304Z</time></trkpt><trkpt lat="46.0118144" lon="12.0400738"><ele>538.0</ele><time>2026-05-02T13:30:10.305Z</time></trkpt><trkpt lat="46.0117604" lon="12.0399896"><ele>536.1666666666667</ele><time>2026-05-02T13:30:12.309Z</time></trkpt><trkpt lat="46.0117139" lon="12.0399114"><ele>534.3333333333334</ele><time>2026-05-02T13:30:14.305Z</time></trkpt><trkpt lat="46.0116672" lon="12.0398327"><ele>532.5</ele><time>2026-05-02T13:30:16.305Z</time></trkpt><trkpt lat="46.011625" lon="12.0397606"><ele>530.6666666666666</ele><time>2026-05-02T13:30:18.309Z</time></trkpt><trkpt lat="46.0115683" lon="12.0396563"><ele>528.8333333333333</ele><time>2026-05-02T13:30:21.305Z</time></trkpt><trkpt lat="46.0115163" lon="12.0395477"><ele>527.0</ele><time>2026-05-02T13:30:24.303Z</time></trkpt><trkpt lat="46.011472" lon="12.039446"><ele>527.0</ele><time>2026-05-02T13:30:27.305Z</time></trkpt><trkpt lat="46.0114279" lon="12.0393444"><ele>527.0</ele><time>2026-05-02T13:30:30.309Z</time></trkpt><trkpt lat="46.0113784" lon="12.0392539"><ele>527.0</ele><time>2026-05-02T13:30:33.305Z</time></trkpt><trkpt lat="46.0113275" lon="12.0391705"><ele>527.0</ele><time>2026-05-02T13:30:36.299Z</time></trkpt><trkpt lat="46.0112647" lon="12.0390929"><ele>527.0</ele><time>2026-05-02T13:30:39.3Z</time></trkpt><trkpt lat="46.0112044" lon="12.0390251"><ele>527.0</ele><time>2026-05-02T13:30:42.315Z</time></trkpt><trkpt lat="46.0111469" lon="12.0389601"><ele>530.1428571428572</ele><time>2026-05-02T13:30:45.312Z</time></trkpt><trkpt lat="46.0110944" lon="12.0388934"><ele>533.2857142857143</ele><time>2026-05-02T13:30:48.31Z</time></trkpt><trkpt lat="46.0110405" lon="12.0388305"><ele>536.4285714285714</ele><time>2026-05-02T13:30:51.31Z</time></trkpt><trkpt lat="46.0109894" lon="12.0387576"><ele>539.5714285714287</ele><time>2026-05-02T13:30:54.315Z</time></trkpt><trkpt lat="46.0109383" lon="12.0386849"><ele>542.7142857142858</ele><time>2026-05-02T13:30:57.317Z</time></trkpt><trkpt lat="46.0109003" lon="12.0386036"><ele>545.8571428571429</ele><time>2026-05-02T13:31:00.318Z</time></trkpt><trkpt lat="46.0108539" lon="12.0385199"><ele>549.0</ele><time>2026-05-02T13:31:03.318Z</time></trkpt><trkpt lat="46.0108069" lon="12.0384247"><ele>542.7142857142857</ele><time>2026-05-02T13:31:06.315Z</time></trkpt><trkpt lat="46.0107876" lon="12.0383119"><ele>536.4285714285714</ele><time>2026-05-02T13:31:09.314Z</time></trkpt><trkpt lat="46.0107565" lon="12.0381999"><ele>530.1428571428571</ele><time>2026-05-02T13:31:12.309Z</time></trkpt><trkpt lat="46.0107" lon="12.0381503"><ele>523.8571428571429</ele><time>2026-05-02T13:31:14.311Z</time></trkpt><trkpt lat="46.010641" lon="12.0381036"><ele>517.5714285714286</ele><time>2026-05-02T13:31:16.313Z</time></trkpt><trkpt lat="46.010591" lon="12.0380096"><ele>511.2857142857143</ele><time>2026-05-02T13:31:19.313Z</time></trkpt><trkpt lat="46.0105803" lon="12.0379149"><ele>505.0</ele><time>2026-05-02T13:31:22.315Z</time></trkpt><trkpt lat="46.0105422" lon="12.0378311"><ele>505.00000000000006</ele><time>2026-05-02T13:31:26.312Z</time></trkpt><trkpt lat="46.0105386" lon="12.0377264"><ele>505.0</ele><time>2026-05-02T13:31:29.312Z</time></trkpt><trkpt lat="46.0105634" lon="12.037591"><ele>505.0</ele><time>2026-05-02T13:31:32.311Z</time></trkpt><trkpt lat="46.0105774" lon="12.0374913"><ele>505.0</ele><time>2026-05-02T13:31:34.316Z</time></trkpt><trkpt lat="46.0106067" lon="12.0373692"><ele>505.00000000000006</ele><time>2026-05-02T13:31:37.308Z</time></trkpt><trkpt lat="46.0106315" lon="12.0372858"><ele>505.0</ele><time>2026-05-02T13:31:39.304Z</time></trkpt><trkpt lat="46.0106532" lon="12.0371668"><ele>507.57142857142856</ele><time>2026-05-02T13:31:42.303Z</time></trkpt><trkpt lat="46.0106726" lon="12.0370726"><ele>510.1428571428571</ele><time>2026-05-02T13:31:44.301Z</time></trkpt><trkpt lat="46.0106972" lon="12.0369753"><ele>512.7142857142857</ele><time>2026-05-02T13:31:46.304Z</time></trkpt><trkpt lat="46.010735" lon="12.0368915"><ele>515.2857142857142</ele><time>2026-05-02T13:31:48.3Z</time></trkpt><trkpt lat="46.0107653" lon="12.0368016"><ele>517.8571428571429</ele><time>2026-05-02T13:31:50.303Z</time></trkpt><trkpt lat="46.0107971" lon="12.0367104"><ele>520.4285714285713</ele><time>2026-05-02T13:31:52.305Z</time></trkpt><trkpt lat="46.0108283" lon="12.0366233"><ele>523.0</ele><time>2026-05-02T13:31:54.308Z</time></trkpt><trkpt lat="46.0108523" lon="12.0365295"><ele>528.1428571428571</ele><time>2026-05-02T13:31:56.308Z</time></trkpt><trkpt lat="46.010862" lon="12.0364299"><ele>533.2857142857142</ele><time>2026-05-02T13:31:58.305Z</time></trkpt><trkpt lat="46.0108712" lon="12.0363319"><ele>538.4285714285714</ele><time>2026-05-02T13:32:00.316Z</time></trkpt><trkpt lat="46.0108849" lon="12.0362403"><ele>543.5714285714286</ele><time>2026-05-02T13:32:02.311Z</time></trkpt><trkpt lat="46.0109128" lon="12.0361545"><ele>548.7142857142858</ele><time>2026-05-02T13:32:04.307Z</time></trkpt><trkpt lat="46.010935" lon="12.036062"><ele>553.8571428571429</ele><time>2026-05-02T13:32:06.303Z</time></trkpt><trkpt lat="46.0109225" lon="12.0359591"><ele>559.0</ele><time>2026-05-02T13:32:08.313Z</time></trkpt><trkpt lat="46.0108874" lon="12.0358391"><ele>563.5</ele><time>2026-05-02T13:32:10.31Z</time></trkpt><trkpt lat="46.0108872" lon="12.0357061"><ele>568.0</ele><time>2026-05-02T13:32:12.319Z</time></trkpt><trkpt lat="46.010938" lon="12.0355808"><ele>572.5</ele><time>2026-05-02T13:32:14.311Z</time></trkpt><trkpt lat="46.0109994" lon="12.0354837"><ele>577.0</ele><time>2026-05-02T13:32:16.314Z</time></trkpt><trkpt lat="46.0110531" lon="12.0353896"><ele>581.5</ele><time>2026-05-02T13:32:18.314Z</time></trkpt><trkpt lat="46.0110981" lon="12.0353039"><ele>586.0</ele><time>2026-05-02T13:32:20.315Z</time></trkpt><trkpt lat="46.0110471" lon="12.0352227"><ele>586.0</ele><time>2026-05-02T13:32:22.315Z</time></trkpt><trkpt lat="46.0109915" lon="12.0351612"><ele>586.0</ele><time>2026-05-02T13:32:24.316Z</time></trkpt><trkpt lat="46.0109099" lon="12.0351045"><ele>586.0</ele><time>2026-05-02T13:32:27.306Z</time></trkpt><trkpt lat="46.0108313" lon="12.0351342"><ele>586.0</ele><time>2026-05-02T13:32:30.314Z</time></trkpt><trkpt lat="46.0107652" lon="12.0351583"><ele>586.0</ele><time>2026-05-02T13:32:33.318Z</time></trkpt><trkpt lat="46.0106818" lon="12.0351883"><ele>586.0</ele><time>2026-05-02T13:32:38.308Z</time></trkpt><trkpt lat="46.0106147" lon="12.035246"><ele>588.7142857142857</ele><time>2026-05-02T13:32:41.31Z</time></trkpt><trkpt lat="46.0105375" lon="12.0352576"><ele>591.4285714285714</ele><time>2026-05-02T13:32:45.314Z</time></trkpt><trkpt lat="46.0104905" lon="12.0353221"><ele>594.1428571428571</ele><time>2026-05-02T13:32:48.323Z</time></trkpt><trkpt lat="46.0104312" lon="12.0353892"><ele>596.8571428571429</ele><time>2026-05-02T13:32:51.309Z</time></trkpt><trkpt lat="46.0103763" lon="12.0354453"><ele>599.5714285714286</ele><time>2026-05-02T13:32:54.306Z</time></trkpt><trkpt lat="46.0103253" lon="12.0355014"><ele>602.2857142857142</ele><time>2026-05-02T13:32:57.304Z</time></trkpt><trkpt lat="46.0102655" lon="12.0355563"><ele>605.0</ele><time>2026-05-02T13:33:00.303Z</time></trkpt><trkpt lat="46.0102033" lon="12.0355897"><ele>605.0</ele><time>2026-05-02T13:33:03.301Z</time></trkpt><trkpt lat="46.0101415" lon="12.0356354"><ele>605.0</ele><time>2026-05-02T13:33:06.302Z</time></trkpt><trkpt lat="46.0100812" lon="12.0356732"><ele>605.0</ele><time>2026-05-02T13:33:09.303Z</time></trkpt><trkpt lat="46.0100077" lon="12.0357321"><ele>605.0</ele><time>2026-05-02T13:33:13.303Z</time></trkpt><trkpt lat="46.0099391" lon="12.0357698"><ele>605.0</ele><time>2026-05-02T13:33:16.305Z</time></trkpt><trkpt lat="46.009861" lon="12.0357789"><ele>605.0</ele><time>2026-05-02T13:33:19.302Z</time></trkpt><trkpt lat="46.0097972" lon="12.0357704"><ele>605.0</ele><time>2026-05-02T13:33:21.313Z</time></trkpt><trkpt lat="46.0097053" lon="12.0357795"><ele>604.8571428571429</ele><time>2026-05-02T13:33:24.308Z</time></trkpt><trkpt lat="46.0096423" lon="12.0357973"><ele>604.7142857142858</ele><time>2026-05-02T13:33:26.309Z</time></trkpt><trkpt lat="46.0095824" lon="12.0358265"><ele>604.5714285714287</ele><time>2026-05-02T13:33:28.317Z</time></trkpt><trkpt lat="46.009523" lon="12.0358608"><ele>604.4285714285714</ele><time>2026-05-02T13:33:30.315Z</time></trkpt><trkpt lat="46.009461" lon="12.0358876"><ele>604.2857142857143</ele><time>2026-05-02T13:33:32.313Z</time></trkpt><trkpt lat="46.0093718" lon="12.0359046"><ele>604.1428571428572</ele><time>2026-05-02T13:33:35.316Z</time></trkpt><trkpt lat="46.0093078" lon="12.0358975"><ele>604.0</ele><time>2026-05-02T13:33:37.321Z</time></trkpt><trkpt lat="46.0092234" lon="12.0358511"><ele>598.0</ele><time>2026-05-02T13:33:40.307Z</time></trkpt><trkpt lat="46.0091642" lon="12.0358083"><ele>592.0</ele><time>2026-05-02T13:33:42.303Z</time></trkpt><trkpt lat="46.0090966" lon="12.0357684"><ele>586.0</ele><time>2026-05-02T13:33:44.307Z</time></trkpt><trkpt lat="46.0090303" lon="12.0357342"><ele>580.0</ele><time>2026-05-02T13:33:46.307Z</time></trkpt><trkpt lat="46.0089591" lon="12.0357102"><ele>574.0</ele><time>2026-05-02T13:33:48.304Z</time></trkpt><trkpt lat="46.0088792" lon="12.0356779"><ele>568.0</ele><time>2026-05-02T13:33:50.304Z</time></trkpt><trkpt lat="46.008791" lon="12.0356497"><ele>568.0</ele><time>2026-05-02T13:33:52.307Z</time></trkpt><trkpt lat="46.0086989" lon="12.0356033"><ele>568.0</ele><time>2026-05-02T13:33:54.314Z</time></trkpt><trkpt lat="46.0086251" lon="12.0355004"><ele>568.0</ele><time>2026-05-02T13:33:56.314Z</time></trkpt><trkpt lat="46.0085748" lon="12.0353711"><ele>568.0</ele><time>2026-05-02T13:33:58.318Z</time></trkpt><trkpt lat="46.0085297" lon="12.0352618"><ele>568.0</ele><time>2026-05-02T13:34:00.306Z</time></trkpt><trkpt lat="46.0084933" lon="12.0351125"><ele>574.4</ele><time>2026-05-02T13:34:02.309Z</time></trkpt><trkpt lat="46.008463" lon="12.0349605"><ele>580.8</ele><time>2026-05-02T13:34:04.315Z</time></trkpt><trkpt lat="46.0084155" lon="12.0348188"><ele>587.2</ele><time>2026-05-02T13:34:06.297Z</time></trkpt><trkpt lat="46.008343" lon="12.0346972"><ele>593.6</ele><time>2026-05-02T13:34:08.301Z</time></trkpt><trkpt lat="46.008239" lon="12.0346228"><ele>600.0</ele><time>2026-05-02T13:34:10.313Z</time></trkpt><trkpt lat="46.0081402" lon="12.0345725"><ele>601.6666666666666</ele><time>2026-05-02T13:34:12.313Z</time></trkpt><trkpt lat="46.0080377" lon="12.0345966"><ele>603.3333333333334</ele><time>2026-05-02T13:34:14.326Z</time></trkpt><trkpt lat="46.0079847" lon="12.0347142"><ele>605.0</ele><time>2026-05-02T13:34:16.319Z</time></trkpt><trkpt lat="46.0079327" lon="12.0347983"><ele>606.6666666666667</ele><time>2026-05-02T13:34:18.313Z</time></trkpt><trkpt lat="46.0078647" lon="12.0348734"><ele>608.3333333333334</ele><time>2026-05-02T13:34:20.311Z</time></trkpt><trkpt lat="46.0078073" lon="12.0349376"><ele>610.0</ele><time>2026-05-02T13:34:22.311Z</time></trkpt><trkpt lat="46.0077547" lon="12.034996"><ele>603.1666666666667</ele><time>2026-05-02T13:34:24.307Z</time></trkpt><trkpt lat="46.0076942" lon="12.0350469"><ele>596.3333333333334</ele><time>2026-05-02T13:34:26.312Z</time></trkpt><trkpt lat="46.0076394" lon="12.0350962"><ele>589.5</ele><time>2026-05-02T13:34:28.309Z</time></trkpt><trkpt lat="46.0075513" lon="12.0351521"><ele>582.6666666666666</ele><time>2026-05-02T13:34:31.299Z</time></trkpt><trkpt lat="46.0074873" lon="12.0351616"><ele>575.8333333333333</ele><time>2026-05-02T13:34:33.304Z</time></trkpt><trkpt lat="46.0074061" lon="12.0351545"><ele>569.0</ele><time>2026-05-02T13:34:36.301Z</time></trkpt><trkpt lat="46.0073265" lon="12.0351609"><ele>569.0000000000001</ele><time>2026-05-02T13:34:39.309Z</time></trkpt><trkpt lat="46.007265" lon="12.0351367"><ele>569.0</ele><time>2026-05-02T13:34:42.308Z</time></trkpt><trkpt lat="46.0071893" lon="12.0351104"><ele>569.0</ele><time>2026-05-02T13:34:47.308Z</time></trkpt><trkpt lat="46.0072364" lon="12.0351913"><ele>569.0</ele><time>2026-05-02T13:34:57.308Z</time></trkpt><trkpt lat="46.0072944" lon="12.0352285"><ele>569.0</ele><time>2026-05-02T13:34:59.323Z</time></trkpt><trkpt lat="46.0073437" lon="12.0352876"><ele>569.0000000000001</ele><time>2026-05-02T13:35:03.322Z</time></trkpt><trkpt lat="46.0073977" lon="12.0352347"><ele>569.0</ele><time>2026-05-02T13:35:08.32Z</time></trkpt><trkpt lat="46.007322" lon="12.0352369"><ele>569.0000000000001</ele><time>2026-05-02T13:37:52.308Z</time></trkpt><trkpt lat="46.0072512" lon="12.0352064"><ele>569.0</ele><time>2026-05-02T13:37:55.308Z</time></trkpt><trkpt lat="46.0071843" lon="12.035185"><ele>569.0</ele><time>2026-05-02T13:37:58.313Z</time></trkpt><trkpt lat="46.0071352" lon="12.035126"><ele>569.0</ele><time>2026-05-02T13:38:02.312Z</time></trkpt><trkpt lat="46.0070611" lon="12.0351659"><ele>569.0</ele><time>2026-05-02T13:38:39.297Z</time></trkpt><trkpt lat="46.0069913" lon="12.0351936"><ele>569.0000000000001</ele><time>2026-05-02T13:38:43.294Z</time></trkpt><trkpt lat="46.0069176" lon="12.035164"><ele>569.0</ele><time>2026-05-02T13:38:48.312Z</time></trkpt><trkpt lat="46.0068574" lon="12.035108"><ele>569.0</ele><time>2026-05-02T13:38:51.306Z</time></trkpt><trkpt lat="46.0067734" lon="12.0351262"><ele>569.0</ele><time>2026-05-02T13:38:53.308Z</time></trkpt><trkpt lat="46.0066473" lon="12.0351246"><ele>569.0</ele><time>2026-05-02T13:38:54.305Z</time></trkpt><trkpt lat="46.0066431" lon="12.0350175"><ele>569.0</ele><time>2026-05-02T13:39:02.309Z</time></trkpt><trkpt lat="46.0066031" lon="12.0349138"><ele>569.0</ele><time>2026-05-02T13:39:06.308Z</time></trkpt><trkpt lat="46.006545" lon="12.0348292"><ele>573.7142857142858</ele><time>2026-05-02T13:39:10.308Z</time></trkpt><trkpt lat="46.0064974" lon="12.0347675"><ele>578.4285714285714</ele><time>2026-05-02T13:39:14.309Z</time></trkpt><trkpt lat="46.0064399" lon="12.0347275"><ele>583.1428571428571</ele><time>2026-05-02T13:39:17.308Z</time></trkpt><trkpt lat="46.0063583" lon="12.0347029"><ele>587.8571428571429</ele><time>2026-05-02T13:39:21.311Z</time></trkpt><trkpt lat="46.0062923" lon="12.0346734"><ele>592.5714285714286</ele><time>2026-05-02T13:39:26.293Z</time></trkpt><trkpt lat="46.006214" lon="12.0347024"><ele>597.2857142857143</ele><time>2026-05-02T13:39:30.311Z</time></trkpt><trkpt lat="46.0061381" lon="12.0347157"><ele>602.0</ele><time>2026-05-02T13:39:34.306Z</time></trkpt><trkpt lat="46.0060818" lon="12.0346742"><ele>602.0</ele><time>2026-05-02T13:39:37.309Z</time></trkpt><trkpt lat="46.0060106" lon="12.0345962"><ele>602.0</ele><time>2026-05-02T13:39:41.309Z</time></trkpt><trkpt lat="46.0059589" lon="12.0345421"><ele>602.0</ele><time>2026-05-02T13:39:43.307Z</time></trkpt><trkpt lat="46.0059007" lon="12.0344888"><ele>602.0</ele><time>2026-05-02T13:39:45.309Z</time></trkpt><trkpt lat="46.0058251" lon="12.0344556"><ele>602.0</ele><time>2026-05-02T13:39:48.307Z</time></trkpt><trkpt lat="46.0057422" lon="12.03442"><ele>602.0</ele><time>2026-05-02T13:39:51.302Z</time></trkpt><trkpt lat="46.0056775" lon="12.0344189"><ele>599.6666666666666</ele><time>2026-05-02T13:39:53.307Z</time></trkpt><trkpt lat="46.0056111" lon="12.0344143"><ele>597.3333333333333</ele><time>2026-05-02T13:39:55.309Z</time></trkpt><trkpt lat="46.0055281" lon="12.0344303"><ele>595.0</ele><time>2026-05-02T13:39:58.31Z</time></trkpt><trkpt lat="46.0054457" lon="12.0344186"><ele>592.6666666666666</ele><time>2026-05-02T13:40:01.31Z</time></trkpt><trkpt lat="46.0053658" lon="12.0343908"><ele>590.3333333333334</ele><time>2026-05-02T13:40:04.308Z</time></trkpt><trkpt lat="46.0052893" lon="12.0343431"><ele>588.0</ele><time>2026-05-02T13:40:07.309Z</time></trkpt><trkpt lat="46.0052304" lon="12.0343003"><ele>588.0</ele><time>2026-05-02T13:40:09.307Z</time></trkpt><trkpt lat="46.0051433" lon="12.0342272"><ele>588.0</ele><time>2026-05-02T13:40:12.309Z</time></trkpt><trkpt lat="46.005082" lon="12.0341731"><ele>588.0</ele><time>2026-05-02T13:40:14.307Z</time></trkpt><trkpt lat="46.0050295" lon="12.0341168"><ele>588.0</ele><time>2026-05-02T13:40:16.31Z</time></trkpt><trkpt lat="46.00498" lon="12.0340588"><ele>588.0</ele><time>2026-05-02T13:40:18.31Z</time></trkpt><trkpt lat="46.0049201" lon="12.0339806"><ele>588.0</ele><time>2026-05-02T13:40:20.308Z</time></trkpt><trkpt lat="46.0048722" lon="12.0339126"><ele>593.2857142857143</ele><time>2026-05-02T13:40:22.308Z</time></trkpt><trkpt lat="46.0048191" lon="12.0338532"><ele>598.5714285714286</ele><time>2026-05-02T13:40:24.308Z</time></trkpt><trkpt lat="46.0047924" lon="12.0337668"><ele>603.8571428571429</ele><time>2026-05-02T13:40:26.303Z</time></trkpt><trkpt lat="46.0047723" lon="12.0336754"><ele>609.1428571428571</ele><time>2026-05-02T13:40:28.309Z</time></trkpt><trkpt lat="46.0047687" lon="12.0335514"><ele>614.4285714285714</ele><time>2026-05-02T13:40:31.303Z</time></trkpt><trkpt lat="46.0047697" lon="12.0334261"><ele>619.7142857142858</ele><time>2026-05-02T13:40:34.31Z</time></trkpt><trkpt lat="46.0047573" lon="12.0333319"><ele>625.0</ele><time>2026-05-02T13:40:36.309Z</time></trkpt><trkpt lat="46.004743" lon="12.0332087"><ele>631.5714285714287</ele><time>2026-05-02T13:40:39.3Z</time></trkpt><trkpt lat="46.0047386" lon="12.0331125"><ele>638.1428571428571</ele><time>2026-05-02T13:40:41.31Z</time></trkpt><trkpt lat="46.0047191" lon="12.0330202"><ele>644.7142857142858</ele><time>2026-05-02T13:40:43.309Z</time></trkpt><trkpt lat="46.0046403" lon="12.0329836"><ele>651.2857142857143</ele><time>2026-05-02T13:40:45.311Z</time></trkpt><trkpt lat="46.0045572" lon="12.0329775"><ele>657.8571428571429</ele><time>2026-05-02T13:40:47.307Z</time></trkpt><trkpt lat="46.0045097" lon="12.0330409"><ele>664.4285714285714</ele><time>2026-05-02T13:40:49.308Z</time></trkpt><trkpt lat="46.004446" lon="12.0331123"><ele>671.0</ele><time>2026-05-02T13:40:51.308Z</time></trkpt><trkpt lat="46.0043891" lon="12.0331758"><ele>671.0</ele><time>2026-05-02T13:40:53.302Z</time></trkpt><trkpt lat="46.004339" lon="12.033234"><ele>671.0</ele><time>2026-05-02T13:40:55.304Z</time></trkpt><trkpt lat="46.0043145" lon="12.0333263"><ele>671.0</ele><time>2026-05-02T13:40:57.301Z</time></trkpt><trkpt lat="46.0042903" lon="12.0334428"><ele>671.0</ele><time>2026-05-02T13:41:00.3Z</time></trkpt><trkpt lat="46.0042695" lon="12.033552"><ele>671.0</ele><time>2026-05-02T13:41:03.303Z</time></trkpt><trkpt lat="46.0042266" lon="12.0336496"><ele>671.0</ele><time>2026-05-02T13:41:07.307Z</time></trkpt><trkpt lat="46.0041706" lon="12.0337347"><ele>668.2857142857142</ele><time>2026-05-02T13:41:11.308Z</time></trkpt><trkpt lat="46.0041121" lon="12.0338029"><ele>665.5714285714287</ele><time>2026-05-02T13:41:15.305Z</time></trkpt><trkpt lat="46.004046" lon="12.0338467"><ele>662.8571428571429</ele><time>2026-05-02T13:41:19.299Z</time></trkpt><trkpt lat="46.0039772" lon="12.0338712"><ele>660.1428571428571</ele><time>2026-05-02T13:41:23.296Z</time></trkpt><trkpt lat="46.0039009" lon="12.0339005"><ele>657.4285714285713</ele><time>2026-05-02T13:41:27.296Z</time></trkpt><trkpt lat="46.003831" lon="12.0339249"><ele>654.7142857142858</ele><time>2026-05-02T13:41:31.295Z</time></trkpt><trkpt lat="46.0037719" lon="12.033961"><ele>652.0</ele><time>2026-05-02T13:41:34.3Z</time></trkpt><trkpt lat="46.0036958" lon="12.0340125"><ele>652.0</ele><time>2026-05-02T13:41:38.3Z</time></trkpt><trkpt lat="46.0036291" lon="12.0340739"><ele>652.0</ele><time>2026-05-02T13:41:42.298Z</time></trkpt><trkpt lat="46.0035608" lon="12.034127"><ele>652.0</ele><time>2026-05-02T13:41:46.298Z</time></trkpt><trkpt lat="46.003492" lon="12.0341778"><ele>652.0</ele><time>2026-05-02T13:41:50.301Z</time></trkpt><trkpt lat="46.003425" lon="12.0341921"><ele>652.0</ele><time>2026-05-02T13:41:54.299Z</time></trkpt><trkpt lat="46.0033593" lon="12.034155"><ele>652.0</ele><time>2026-05-02T13:41:58.313Z</time></trkpt><trkpt lat="46.0032791" lon="12.0341259"><ele>650.5</ele><time>2026-05-02T13:42:02.297Z</time></trkpt><trkpt lat="46.0032166" lon="12.0341148"><ele>649.0</ele><time>2026-05-02T13:42:05.308Z</time></trkpt><trkpt lat="46.0031392" lon="12.0340971"><ele>647.5</ele><time>2026-05-02T13:42:09.304Z</time></trkpt><trkpt lat="46.0030592" lon="12.0340947"><ele>646.0</ele><time>2026-05-02T13:42:13.302Z</time></trkpt><trkpt lat="46.0029782" lon="12.03408"><ele>644.5</ele><time>2026-05-02T13:42:17.304Z</time></trkpt><trkpt lat="46.0029026" lon="12.0340581"><ele>643.0</ele><time>2026-05-02T13:42:21.309Z</time></trkpt><trkpt lat="46.0028272" lon="12.0340536"><ele>643.0</ele><time>2026-05-02T13:42:25.296Z</time></trkpt><trkpt lat="46.0027484" lon="12.0340476"><ele>643.0</ele><time>2026-05-02T13:42:29.296Z</time></trkpt><trkpt lat="46.0026686" lon="12.0340343"><ele>643.0</ele><time>2026-05-02T13:42:33.297Z</time></trkpt><trkpt lat="46.0025902" lon="12.0339998"><ele>643.0</ele><time>2026-05-02T13:42:37.296Z</time></trkpt><trkpt lat="46.0025227" lon="12.0339868"><ele>643.0</ele><time>2026-05-02T13:42:40.295Z</time></trkpt><trkpt lat="46.0024403" lon="12.0339693"><ele>643.0</ele><time>2026-05-02T13:42:44.297Z</time></trkpt><trkpt lat="46.0023738" lon="12.0339739"><ele>637.1428571428571</ele><time>2026-05-02T13:42:47.298Z</time></trkpt><trkpt lat="46.0023107" lon="12.0339879"><ele>631.2857142857143</ele><time>2026-05-02T13:42:50.299Z</time></trkpt><trkpt lat="46.0022384" lon="12.0339626"><ele>625.4285714285714</ele><time>2026-05-02T13:42:54.303Z</time></trkpt><trkpt lat="46.0021784" lon="12.0338777"><ele>619.5714285714286</ele><time>2026-05-02T13:42:58.303Z</time></trkpt><trkpt lat="46.0021533" lon="12.0337857"><ele>613.7142857142858</ele><time>2026-05-02T13:43:01.296Z</time></trkpt><trkpt lat="46.0021428" lon="12.0336893"><ele>607.8571428571429</ele><time>2026-05-02T13:43:04.3Z</time></trkpt><trkpt lat="46.0021359" lon="12.0335872"><ele>602.0</ele><time>2026-05-02T13:43:07.306Z</time></trkpt><trkpt lat="46.0020912" lon="12.0334816"><ele>602.0</ele><time>2026-05-02T13:43:11.303Z</time></trkpt><trkpt lat="46.0020443" lon="12.0333981"><ele>602.0</ele><time>2026-05-02T13:43:14.308Z</time></trkpt><trkpt lat="46.0020005" lon="12.0333146"><ele>602.0</ele><time>2026-05-02T13:43:17.308Z</time></trkpt><trkpt lat="46.0019748" lon="12.0332141"><ele>602.0</ele><time>2026-05-02T13:43:21.308Z</time></trkpt><trkpt lat="46.0019574" lon="12.0331098"><ele>602.0</ele><time>2026-05-02T13:43:24.304Z</time></trkpt><trkpt lat="46.0019351" lon="12.0329944"><ele>602.0</ele><time>2026-05-02T13:43:27.389Z</time></trkpt><trkpt lat="46.0019194" lon="12.0328915"><ele>605.4285714285714</ele><time>2026-05-02T13:43:30.292Z</time></trkpt><trkpt lat="46.0019033" lon="12.0327912"><ele>608.8571428571429</ele><time>2026-05-02T13:43:33.292Z</time></trkpt><trkpt lat="46.0018857" lon="12.0327025"><ele>612.2857142857142</ele><time>2026-05-02T13:43:36.307Z</time></trkpt><trkpt lat="46.0018833" lon="12.0326112"><ele>615.7142857142858</ele><time>2026-05-02T13:43:39.299Z</time></trkpt><trkpt lat="46.0018823" lon="12.0325191"><ele>619.1428571428571</ele><time>2026-05-02T13:43:42.3Z</time></trkpt><trkpt lat="46.0018674" lon="12.0324157"><ele>622.5714285714286</ele><time>2026-05-02T13:43:45.297Z</time></trkpt><trkpt lat="46.0018596" lon="12.0323186"><ele>626.0</ele><time>2026-05-02T13:43:48.3Z</time></trkpt><trkpt lat="46.00184" lon="12.0322232"><ele>630.2857142857142</ele><time>2026-05-02T13:43:51.296Z</time></trkpt><trkpt lat="46.0018236" lon="12.032128"><ele>634.5714285714286</ele><time>2026-05-02T13:43:54.296Z</time></trkpt><trkpt lat="46.0018109" lon="12.0320368"><ele>638.8571428571429</ele><time>2026-05-02T13:43:57.307Z</time></trkpt><trkpt lat="46.0018086" lon="12.0319176"><ele>643.1428571428571</ele><time>2026-05-02T13:44:01.308Z</time></trkpt><trkpt lat="46.0018083" lon="12.0318237"><ele>647.4285714285714</ele><time>2026-05-02T13:44:04.291Z</time></trkpt><trkpt lat="46.0018284" lon="12.0317337"><ele>651.7142857142857</ele><time>2026-05-02T13:44:07.295Z</time></trkpt><trkpt lat="46.0018645" lon="12.0316489"><ele>656.0</ele><time>2026-05-02T13:44:10.306Z</time></trkpt><trkpt lat="46.0019056" lon="12.0315793"><ele>655.8571428571428</ele><time>2026-05-02T13:44:13.309Z</time></trkpt><trkpt lat="46.0018796" lon="12.0314678"><ele>655.7142857142857</ele><time>2026-05-02T13:44:18.308Z</time></trkpt><trkpt lat="46.0018159" lon="12.0314581"><ele>655.5714285714286</ele><time>2026-05-02T13:45:33.31Z</time></trkpt><trkpt lat="46.0017495" lon="12.031517"><ele>655.4285714285713</ele><time>2026-05-02T13:45:36.308Z</time></trkpt><trkpt lat="46.0016813" lon="12.0315331"><ele>655.2857142857142</ele><time>2026-05-02T13:45:39.307Z</time></trkpt><trkpt lat="46.0016029" lon="12.0315673"><ele>655.1428571428571</ele><time>2026-05-02T13:45:43.312Z</time></trkpt><trkpt lat="46.0015425" lon="12.0316004"><ele>655.0</ele><time>2026-05-02T13:45:46.302Z</time></trkpt><trkpt lat="46.0014817" lon="12.0316499"><ele>655.0</ele><time>2026-05-02T13:45:49.309Z</time></trkpt><trkpt lat="46.0014308" lon="12.0317114"><ele>655.0</ele><time>2026-05-02T13:45:52.306Z</time></trkpt><trkpt lat="46.0013778" lon="12.0317782"><ele>655.0</ele><time>2026-05-02T13:45:55.302Z</time></trkpt><trkpt lat="46.0013113" lon="12.0318209"><ele>655.0</ele><time>2026-05-02T13:45:58.307Z</time></trkpt><trkpt lat="46.001251" lon="12.0318566"><ele>655.0</ele><time>2026-05-02T13:46:01.304Z</time></trkpt><trkpt lat="46.0011776" lon="12.0318286"><ele>655.0</ele><time>2026-05-02T13:46:04.31Z</time></trkpt><trkpt lat="46.0011147" lon="12.0317992"><ele>655.0</ele><time>2026-05-02T13:46:06.309Z</time></trkpt><trkpt lat="46.0010325" lon="12.031761"><ele>655.0</ele><time>2026-05-02T13:46:09.297Z</time></trkpt><trkpt lat="46.0009517" lon="12.0317176"><ele>655.0</ele><time>2026-05-02T13:46:12.302Z</time></trkpt><trkpt lat="46.0008731" lon="12.0316699"><ele>655.0</ele><time>2026-05-02T13:46:14.306Z</time></trkpt><trkpt lat="46.0008178" lon="12.0315762"><ele>655.0</ele><time>2026-05-02T13:46:17.301Z</time></trkpt><trkpt lat="46.0007545" lon="12.0315583"><ele>655.0</ele><time>2026-05-02T13:46:19.308Z</time></trkpt><trkpt lat="46.0006758" lon="12.0315437"><ele>655.0</ele><time>2026-05-02T13:46:20.305Z</time></trkpt><trkpt lat="46.0006265" lon="12.0316018"><ele>658.3333333333334</ele><time>2026-05-02T13:46:22.302Z</time></trkpt><trkpt lat="46.0005634" lon="12.0315945"><ele>661.6666666666667</ele><time>2026-05-02T13:46:24.304Z</time></trkpt><trkpt lat="46.0004661" lon="12.0315796"><ele>665.0</ele><time>2026-05-02T13:46:27.301Z</time></trkpt><trkpt lat="46.0003961" lon="12.0315481"><ele>668.3333333333334</ele><time>2026-05-02T13:46:29.301Z</time></trkpt><trkpt lat="46.0003248" lon="12.0315017"><ele>671.6666666666666</ele><time>2026-05-02T13:46:31.306Z</time></trkpt><trkpt lat="46.0002583" lon="12.0314637"><ele>675.0</ele><time>2026-05-02T13:46:33.298Z</time></trkpt><trkpt lat="46.000167" lon="12.0314256"><ele>675.0</ele><time>2026-05-02T13:46:36.303Z</time></trkpt><trkpt lat="46.0000982" lon="12.0313661"><ele>675.0</ele><time>2026-05-02T13:46:38.292Z</time></trkpt><trkpt lat="46.0000343" lon="12.0313069"><ele>675.0</ele><time>2026-05-02T13:46:40.304Z</time></trkpt><trkpt lat="45.9999778" lon="12.0312471"><ele>675.0</ele><time>2026-05-02T13:46:42.291Z</time></trkpt><trkpt lat="45.9999012" lon="12.0311702"><ele>675.0</ele><time>2026-05-02T13:46:45.308Z</time></trkpt><trkpt lat="45.9998449" lon="12.0311225"><ele>675.0</ele><time>2026-05-02T13:46:47.308Z</time></trkpt><trkpt lat="45.999778" lon="12.0310604"><ele>675.0</ele><time>2026-05-02T13:46:50.308Z</time></trkpt><trkpt lat="45.9997115" lon="12.030998"><ele>675.0</ele><time>2026-05-02T13:46:53.304Z</time></trkpt><trkpt lat="45.9996579" lon="12.0309348"><ele>675.0</ele><time>2026-05-02T13:46:56.302Z</time></trkpt><trkpt lat="45.9996048" lon="12.0308771"><ele>675.0</ele><time>2026-05-02T13:46:59.306Z</time></trkpt><trkpt lat="45.99956" lon="12.0308074"><ele>675.0</ele><time>2026-05-02T13:47:02.301Z</time></trkpt><trkpt lat="45.9995124" lon="12.0307453"><ele>675.0</ele><time>2026-05-02T13:47:05.31Z</time></trkpt><trkpt lat="45.9994441" lon="12.0307325"><ele>675.0</ele><time>2026-05-02T13:47:08.294Z</time></trkpt><trkpt lat="45.9993654" lon="12.0307354"><ele>678.5</ele><time>2026-05-02T13:47:11.304Z</time></trkpt><trkpt lat="45.9992812" lon="12.0307595"><ele>682.0</ele><time>2026-05-02T13:47:14.309Z</time></trkpt><trkpt lat="45.9991988" lon="12.0307676"><ele>685.5</ele><time>2026-05-02T13:47:17.308Z</time></trkpt><trkpt lat="45.99912" lon="12.0307594"><ele>689.0</ele><time>2026-05-02T13:47:20.303Z</time></trkpt><trkpt lat="45.9990483" lon="12.0307353"><ele>692.5</ele><time>2026-05-02T13:47:23.307Z</time></trkpt><trkpt lat="45.9989833" lon="12.0306946"><ele>696.0</ele><time>2026-05-02T13:47:26.306Z</time></trkpt><trkpt lat="45.9989278" lon="12.030641"><ele>696.0</ele><time>2026-05-02T13:47:29.307Z</time></trkpt><trkpt lat="45.9988677" lon="12.0305539"><ele>696.0</ele><time>2026-05-02T13:47:33.3Z</time></trkpt><trkpt lat="45.9988166" lon="12.03049"><ele>696.0</ele><time>2026-05-02T13:47:36.304Z</time></trkpt><trkpt lat="45.9987605" lon="12.0304394"><ele>696.0</ele><time>2026-05-02T13:47:39.306Z</time></trkpt><trkpt lat="45.9986937" lon="12.0304153"><ele>696.0</ele><time>2026-05-02T13:47:42.31Z</time></trkpt><trkpt lat="45.99863" lon="12.0303892"><ele>696.0</ele><time>2026-05-02T13:47:46.29Z</time></trkpt><trkpt lat="45.9985682" lon="12.0303411"><ele>696.0</ele><time>2026-05-02T13:47:50.298Z</time></trkpt><trkpt lat="45.9985179" lon="12.0302741"><ele>696.0</ele><time>2026-05-02T13:47:54.299Z</time></trkpt><trkpt lat="45.9984835" lon="12.0301894"><ele>696.0</ele><time>2026-05-02T13:47:59.306Z</time></trkpt><trkpt lat="45.9984584" lon="12.0300858"><ele>696.0</ele><time>2026-05-02T13:48:02.301Z</time></trkpt><trkpt lat="45.9984286" lon="12.0300009"><ele>696.0</ele><time>2026-05-02T13:48:20.307Z</time></trkpt><trkpt lat="45.9984038" lon="12.029894"><ele>696.0</ele><time>2026-05-02T13:48:24.309Z</time></trkpt><trkpt lat="45.9983587" lon="12.0297795"><ele>696.0</ele><time>2026-05-02T13:48:27.311Z</time></trkpt><trkpt lat="45.9983256" lon="12.0296592"><ele>698.5</ele><time>2026-05-02T13:48:29.312Z</time></trkpt><trkpt lat="45.9982938" lon="12.0295724"><ele>701.0</ele><time>2026-05-02T13:48:31.3Z</time></trkpt><trkpt lat="45.9982464" lon="12.0294613"><ele>703.5</ele><time>2026-05-02T13:48:33.293Z</time></trkpt><trkpt lat="45.9981964" lon="12.0293498"><ele>706.0</ele><time>2026-05-02T13:48:35.309Z</time></trkpt><trkpt lat="45.9981449" lon="12.0292402"><ele>708.5</ele><time>2026-05-02T13:48:37.312Z</time></trkpt><trkpt lat="45.9980876" lon="12.0291347"><ele>711.0</ele><time>2026-05-02T13:48:39.309Z</time></trkpt><trkpt lat="45.9980359" lon="12.029047"><ele>711.0</ele><time>2026-05-02T13:48:41.308Z</time></trkpt><trkpt lat="45.9979731" lon="12.0289576"><ele>711.0</ele><time>2026-05-02T13:48:43.306Z</time></trkpt><trkpt lat="45.9978961" lon="12.0289532"><ele>711.0</ele><time>2026-05-02T13:48:45.414Z</time></trkpt><trkpt lat="45.9978266" lon="12.0289496"><ele>711.0</ele><time>2026-05-02T13:48:47.304Z</time></trkpt><trkpt lat="45.997761" lon="12.0289941"><ele>711.0</ele><time>2026-05-02T13:48:50.299Z</time></trkpt><trkpt lat="45.9976865" lon="12.0290489"><ele>711.0</ele><time>2026-05-02T13:48:53.303Z</time></trkpt><trkpt lat="45.9976051" lon="12.0291163"><ele>711.0</ele><time>2026-05-02T13:48:56.299Z</time></trkpt><trkpt lat="45.9975387" lon="12.0291369"><ele>711.0</ele><time>2026-05-02T13:48:58.305Z</time></trkpt><trkpt lat="45.9974456" lon="12.0291609"><ele>711.0</ele><time>2026-05-02T13:49:01.309Z</time></trkpt><trkpt lat="45.9973715" lon="12.029205"><ele>711.0</ele><time>2026-05-02T13:49:03.294Z</time></trkpt><trkpt lat="45.99731" lon="12.0293416"><ele>711.0</ele><time>2026-05-02T13:49:05.309Z</time></trkpt><trkpt lat="45.9972421" lon="12.0294031"><ele>711.0</ele><time>2026-05-02T13:49:07.307Z</time></trkpt><trkpt lat="45.9971593" lon="12.0294553"><ele>710.0</ele><time>2026-05-02T13:49:10.309Z</time></trkpt><trkpt lat="45.9970911" lon="12.0294801"><ele>709.0</ele><time>2026-05-02T13:49:13.301Z</time></trkpt><trkpt lat="45.9970299" lon="12.0294583"><ele>708.0</ele><time>2026-05-02T13:49:16.305Z</time></trkpt><trkpt lat="45.9969623" lon="12.0293983"><ele>707.0</ele><time>2026-05-02T13:49:20.312Z</time></trkpt><trkpt lat="45.9969067" lon="12.0293556"><ele>706.0</ele><time>2026-05-02T13:49:24.3Z</time></trkpt><trkpt lat="45.9968435" lon="12.0292639"><ele>705.0</ele><time>2026-05-02T13:52:07.301Z</time></trkpt><trkpt lat="45.9967967" lon="12.0291954"><ele>704.0</ele><time>2026-05-02T13:52:09.298Z</time></trkpt><trkpt lat="45.9967366" lon="12.0291288"><ele>704.0</ele><time>2026-05-02T13:52:11.3Z</time></trkpt><trkpt lat="45.9966712" lon="12.0290642"><ele>704.0</ele><time>2026-05-02T13:52:13.299Z</time></trkpt><trkpt lat="45.9966138" lon="12.0289408"><ele>704.0</ele><time>2026-05-02T13:52:15.303Z</time></trkpt><trkpt lat="45.9965455" lon="12.0288323"><ele>704.0</ele><time>2026-05-02T13:52:17.29Z</time></trkpt><trkpt lat="45.9964753" lon="12.0287428"><ele>704.0</ele><time>2026-05-02T13:52:19.301Z</time></trkpt><trkpt lat="45.9964004" lon="12.0287187"><ele>701.0</ele><time>2026-05-02T13:52:21.301Z</time></trkpt><trkpt lat="45.9963375" lon="12.0286651"><ele>698.0</ele><time>2026-05-02T13:52:23.297Z</time></trkpt><trkpt lat="45.996277" lon="12.0285958"><ele>695.0</ele><time>2026-05-02T13:52:25.299Z</time></trkpt><trkpt lat="45.9962097" lon="12.0285271"><ele>692.0</ele><time>2026-05-02T13:52:27.3Z</time></trkpt><trkpt lat="45.9961473" lon="12.0284757"><ele>689.0</ele><time>2026-05-02T13:52:29.299Z</time></trkpt><trkpt lat="45.9960658" lon="12.0284305"><ele>686.0</ele><time>2026-05-02T13:52:32.3Z</time></trkpt><trkpt lat="45.9959846" lon="12.0284192"><ele>686.0</ele><time>2026-05-02T13:52:35.31Z</time></trkpt><trkpt lat="45.9959016" lon="12.0284272"><ele>686.0</ele><time>2026-05-02T13:52:38.311Z</time></trkpt><trkpt lat="45.9958274" lon="12.0284122"><ele>686.0</ele><time>2026-05-02T13:52:41.299Z</time></trkpt><trkpt lat="45.9957459" lon="12.0283947"><ele>686.0</ele><time>2026-05-02T13:52:44.301Z</time></trkpt><trkpt lat="45.9956667" lon="12.0283861"><ele>686.0</ele><time>2026-05-02T13:52:47.291Z</time></trkpt><trkpt lat="45.9955979" lon="12.0283161"><ele>686.0</ele><time>2026-05-02T13:52:50.308Z</time></trkpt><trkpt lat="45.9955695" lon="12.0282011"><ele>686.1428571428571</ele><time>2026-05-02T13:52:53.307Z</time></trkpt><trkpt lat="45.9955824" lon="12.0280863"><ele>686.2857142857142</ele><time>2026-05-02T13:52:56.307Z</time></trkpt><trkpt lat="45.9955912" lon="12.0279753"><ele>686.4285714285714</ele><time>2026-05-02T13:52:59.297Z</time></trkpt><trkpt lat="45.9956593" lon="12.027938"><ele>686.5714285714286</ele><time>2026-05-02T13:53:00.302Z</time></trkpt><trkpt lat="45.9956222" lon="12.0278527"><ele>686.7142857142857</ele><time>2026-05-02T13:53:03.301Z</time></trkpt><trkpt lat="45.9955949" lon="12.027766"><ele>686.8571428571429</ele><time>2026-05-02T13:53:06.29Z</time></trkpt><trkpt lat="45.9955636" lon="12.0276696"><ele>687.0</ele><time>2026-05-02T13:53:09.298Z</time></trkpt><trkpt lat="45.9955361" lon="12.0275847"><ele>687.0</ele><time>2026-05-02T13:53:12.3Z</time></trkpt><trkpt lat="45.9955151" lon="12.0274777"><ele>687.0</ele><time>2026-05-02T13:53:16.307Z</time></trkpt><trkpt lat="45.9955019" lon="12.0273792"><ele>687.0</ele><time>2026-05-02T13:53:20.31Z</time></trkpt><trkpt lat="45.9954989" lon="12.0272632"><ele>687.0</ele><time>2026-05-02T13:53:24.306Z</time></trkpt><trkpt lat="45.9954881" lon="12.0271578"><ele>687.0</ele><time>2026-05-02T13:53:27.299Z</time></trkpt><trkpt lat="45.9954751" lon="12.0270458"><ele>687.0</ele><time>2026-05-02T13:53:30.303Z</time></trkpt><trkpt lat="45.9954838" lon="12.0269502"><ele>687.0</ele><time>2026-05-02T13:53:33.306Z</time></trkpt><trkpt lat="45.9955033" lon="12.0268364"><ele>689.8333333333334</ele><time>2026-05-02T13:53:35.307Z</time></trkpt><trkpt lat="45.995524" lon="12.0267211"><ele>692.6666666666666</ele><time>2026-05-02T13:53:37.312Z</time></trkpt><trkpt lat="45.9955371" lon="12.026595"><ele>695.5</ele><time>2026-05-02T13:53:40.306Z</time></trkpt><trkpt lat="45.9955265" lon="12.0264894"><ele>698.3333333333333</ele><time>2026-05-02T13:53:42.304Z</time></trkpt><trkpt lat="45.9955083" lon="12.0264001"><ele>701.1666666666666</ele><time>2026-05-02T13:53:44.305Z</time></trkpt><trkpt lat="45.9954757" lon="12.0263008"><ele>704.0</ele><time>2026-05-02T13:53:46.311Z</time></trkpt><trkpt lat="45.9954475" lon="12.0261956"><ele>704.4285714285714</ele><time>2026-05-02T13:53:48.316Z</time></trkpt><trkpt lat="45.995365" lon="12.0261346"><ele>704.8571428571429</ele><time>2026-05-02T13:53:51.307Z</time></trkpt><trkpt lat="45.9953037" lon="12.0260917"><ele>705.2857142857142</ele><time>2026-05-02T13:53:54.311Z</time></trkpt><trkpt lat="45.9952335" lon="12.0260638"><ele>705.7142857142858</ele><time>2026-05-02T13:53:57.305Z</time></trkpt><trkpt lat="45.9951702" lon="12.0260938"><ele>706.1428571428571</ele><time>2026-05-02T13:54:02.307Z</time></trkpt><trkpt lat="45.9951159" lon="12.0261424"><ele>706.5714285714286</ele><time>2026-05-02T13:54:07.308Z</time></trkpt><trkpt lat="45.99505" lon="12.0261808"><ele>707.0</ele><time>2026-05-02T13:54:12.307Z</time></trkpt><trkpt lat="45.9949694" lon="12.0261994"><ele>707.0</ele><time>2026-05-02T13:54:17.297Z</time></trkpt><trkpt lat="45.9949043" lon="12.0261934"><ele>707.0</ele><time>2026-05-02T13:54:21.301Z</time></trkpt><trkpt lat="45.9948363" lon="12.0261901"><ele>707.0</ele><time>2026-05-02T13:54:25.304Z</time></trkpt><trkpt lat="45.9947693" lon="12.0262102"><ele>707.0</ele><time>2026-05-02T13:54:29.306Z</time></trkpt><trkpt lat="45.9946972" lon="12.0262387"><ele>707.0</ele><time>2026-05-02T13:54:33.308Z</time></trkpt><trkpt lat="45.9946188" lon="12.0262661"><ele>707.0</ele><time>2026-05-02T13:54:37.31Z</time></trkpt><trkpt lat="45.9945445" lon="12.0263035"><ele>707.0</ele><time>2026-05-02T13:54:41.305Z</time></trkpt><trkpt lat="45.9944861" lon="12.0263544"><ele>707.0</ele><time>2026-05-02T13:54:45.31Z</time></trkpt><trkpt lat="45.9944166" lon="12.0263976"><ele>707.0</ele><time>2026-05-02T13:54:49.292Z</time></trkpt><trkpt lat="45.9943509" lon="12.026437"><ele>707.0</ele><time>2026-05-02T13:54:53.299Z</time></trkpt><trkpt lat="45.9942754" lon="12.0264711"><ele>707.0</ele><time>2026-05-02T13:54:58.313Z</time></trkpt><trkpt lat="45.9942112" lon="12.0265097"><ele>707.0</ele><time>2026-05-02T13:55:02.307Z</time></trkpt><trkpt lat="45.9941462" lon="12.02655"><ele>707.0</ele><time>2026-05-02T13:55:06.294Z</time></trkpt><trkpt lat="45.9940828" lon="12.0265364"><ele>707.0</ele><time>2026-05-02T13:55:10.295Z</time></trkpt><trkpt lat="45.9940404" lon="12.0264668"><ele>709.0</ele><time>2026-05-02T13:55:14.292Z</time></trkpt><trkpt lat="45.9939938" lon="12.026404"><ele>711.0</ele><time>2026-05-02T13:55:36.3Z</time></trkpt><trkpt lat="45.9939497" lon="12.0263365"><ele>713.0</ele><time>2026-05-02T13:55:40.299Z</time></trkpt><trkpt lat="45.9939171" lon="12.0262552"><ele>715.0</ele><time>2026-05-02T13:55:44.301Z</time></trkpt><trkpt lat="45.9938758" lon="12.0261865"><ele>717.0</ele><time>2026-05-02T13:55:47.3Z</time></trkpt><trkpt lat="45.993824" lon="12.0261013"><ele>719.0</ele><time>2026-05-02T13:55:53.299Z</time></trkpt><trkpt lat="45.9937723" lon="12.0260064"><ele>721.0</ele><time>2026-05-02T13:55:58.303Z</time></trkpt><trkpt lat="45.9937192" lon="12.0259031"><ele>725.6666666666667</ele><time>2026-05-02T13:56:01.3Z</time></trkpt><trkpt lat="45.9936568" lon="12.0258039"><ele>730.3333333333334</ele><time>2026-05-02T13:56:04.308Z</time></trkpt><trkpt lat="45.9936115" lon="12.0257382"><ele>735.0</ele><time>2026-05-02T13:56:07.3Z</time></trkpt><trkpt lat="45.99357" lon="12.0256536"><ele>739.6666666666666</ele><time>2026-05-02T13:56:10.299Z</time></trkpt><trkpt lat="45.9935396" lon="12.0255706"><ele>744.3333333333333</ele><time>2026-05-02T13:56:13.298Z</time></trkpt><trkpt lat="45.9935076" lon="12.0254761"><ele>749.0</ele><time>2026-05-02T13:56:16.297Z</time></trkpt><trkpt lat="45.9934676" lon="12.0253687"><ele>749.0</ele><time>2026-05-02T13:56:19.303Z</time></trkpt><trkpt lat="45.9934146" lon="12.0252721"><ele>749.0</ele><time>2026-05-02T13:56:22.3Z</time></trkpt><trkpt lat="45.9933599" lon="12.0251785"><ele>749.0</ele><time>2026-05-02T13:56:25.296Z</time></trkpt><trkpt lat="45.9933024" lon="12.025077"><ele>749.0</ele><time>2026-05-02T13:56:28.297Z</time></trkpt><trkpt lat="45.9932586" lon="12.0250024"><ele>749.0</ele><time>2026-05-02T13:56:30.292Z</time></trkpt><trkpt lat="45.9932145" lon="12.0249246"><ele>749.0</ele><time>2026-05-02T13:56:32.301Z</time></trkpt><trkpt lat="45.9931642" lon="12.0248233"><ele>746.3333333333333</ele><time>2026-05-02T13:56:35.297Z</time></trkpt><trkpt lat="45.9931292" lon="12.0247454"><ele>743.6666666666666</ele><time>2026-05-02T13:56:37.294Z</time></trkpt><trkpt lat="45.9930869" lon="12.0246448"><ele>741.0</ele><time>2026-05-02T13:56:39.291Z</time></trkpt><trkpt lat="45.9930173" lon="12.0245517"><ele>738.3333333333334</ele><time>2026-05-02T13:56:41.3Z</time></trkpt><trkpt lat="45.9929495" lon="12.0244661"><ele>735.6666666666667</ele><time>2026-05-02T13:56:43.297Z</time></trkpt><trkpt lat="45.992869" lon="12.0244316"><ele>733.0</ele><time>2026-05-02T13:56:45.292Z</time></trkpt><trkpt lat="45.9928057" lon="12.0244849"><ele>733.0</ele><time>2026-05-02T13:56:47.3Z</time></trkpt><trkpt lat="45.9928103" lon="12.0245808"><ele>733.0</ele><time>2026-05-02T13:56:49.305Z</time></trkpt><trkpt lat="45.9928187" lon="12.0246863"><ele>733.0</ele><time>2026-05-02T13:56:51.297Z</time></trkpt><trkpt lat="45.9928076" lon="12.0247825"><ele>733.0</ele><time>2026-05-02T13:56:53.3Z</time></trkpt><trkpt lat="45.9927749" lon="12.024882"><ele>733.0</ele><time>2026-05-02T13:56:55.304Z</time></trkpt><trkpt lat="45.9927538" lon="12.0250186"><ele>733.0</ele><time>2026-05-02T13:56:58.306Z</time></trkpt><trkpt lat="45.9927202" lon="12.0251081"><ele>728.0</ele><time>2026-05-02T13:57:01.305Z</time></trkpt><trkpt lat="45.9926451" lon="12.0251433"><ele>723.0</ele><time>2026-05-02T13:57:04.31Z</time></trkpt><trkpt lat="45.9925305" lon="12.0251139"><ele>718.0</ele><time>2026-05-02T13:57:06.307Z</time></trkpt><trkpt lat="45.9924424" lon="12.0251141"><ele>713.0</ele><time>2026-05-02T13:57:08.306Z</time></trkpt><trkpt lat="45.9923541" lon="12.0251274"><ele>708.0</ele><time>2026-05-02T13:57:10.311Z</time></trkpt><trkpt lat="45.9922914" lon="12.0252134"><ele>707.6666666666666</ele><time>2026-05-02T13:57:12.306Z</time></trkpt><trkpt lat="45.9922481" lon="12.0253394"><ele>707.3333333333334</ele><time>2026-05-02T13:57:14.306Z</time></trkpt><trkpt lat="45.9922406" lon="12.0254326"><ele>707.0</ele><time>2026-05-02T13:57:16.307Z</time></trkpt><trkpt lat="45.9922006" lon="12.0255336"><ele>706.6666666666667</ele><time>2026-05-02T13:57:18.305Z</time></trkpt><trkpt lat="45.9921582" lon="12.0256316"><ele>706.3333333333334</ele><time>2026-05-02T13:57:20.313Z</time></trkpt><trkpt lat="45.9921505" lon="12.0257607"><ele>706.0</ele><time>2026-05-02T13:57:23.306Z</time></trkpt><trkpt lat="45.9921041" lon="12.0258634"><ele>700.4</ele><time>2026-05-02T13:57:26.313Z</time></trkpt><trkpt lat="45.9920813" lon="12.0260011"><ele>694.8</ele><time>2026-05-02T13:57:29.303Z</time></trkpt><trkpt lat="45.9920545" lon="12.0261118"><ele>689.1999999999999</ele><time>2026-05-02T13:57:31.304Z</time></trkpt><trkpt lat="45.9920019" lon="12.0262303"><ele>683.5999999999999</ele><time>2026-05-02T13:57:33.305Z</time></trkpt><trkpt lat="45.9919439" lon="12.026348"><ele>678.0</ele><time>2026-05-02T13:57:35.306Z</time></trkpt><trkpt lat="45.9918697" lon="12.0264226"><ele>678.0</ele><time>2026-05-02T13:57:37.295Z</time></trkpt><trkpt lat="45.9917762" lon="12.0264754"><ele>678.0</ele><time>2026-05-02T13:57:39.302Z</time></trkpt><trkpt lat="45.9916717" lon="12.0265181"><ele>678.0</ele><time>2026-05-02T13:57:41.306Z</time></trkpt><trkpt lat="45.9916072" lon="12.0265398"><ele>678.0</ele><time>2026-05-02T13:57:42.292Z</time></trkpt><trkpt lat="45.9915199" lon="12.0266175"><ele>678.0</ele><time>2026-05-02T13:57:44.294Z</time></trkpt><trkpt lat="45.9914495" lon="12.0267052"><ele>679.4</ele><time>2026-05-02T13:57:46.294Z</time></trkpt><trkpt lat="45.991364" lon="12.0267362"><ele>680.8</ele><time>2026-05-02T13:57:48.296Z</time></trkpt><trkpt lat="45.9912807" lon="12.0267537"><ele>682.2</ele><time>2026-05-02T13:57:50.293Z</time></trkpt><trkpt lat="45.9911825" lon="12.0268041"><ele>683.6</ele><time>2026-05-02T13:57:52.297Z</time></trkpt><trkpt lat="45.991089" lon="12.0268376"><ele>685.0</ele><time>2026-05-02T13:57:54.303Z</time></trkpt><trkpt lat="45.991007" lon="12.0268945"><ele>685.0</ele><time>2026-05-02T13:57:56.302Z</time></trkpt><trkpt lat="45.9909121" lon="12.0269712"><ele>685.0</ele><time>2026-05-02T13:57:58.294Z</time></trkpt><trkpt lat="45.9908111" lon="12.0270211"><ele>685.0</ele><time>2026-05-02T13:58:00.295Z</time></trkpt><trkpt lat="45.9907053" lon="12.0270372"><ele>685.0</ele><time>2026-05-02T13:58:02.298Z</time></trkpt><trkpt lat="45.990585" lon="12.0270427"><ele>685.0</ele><time>2026-05-02T13:58:04.295Z</time></trkpt><trkpt lat="45.9905226" lon="12.0270259"><ele>687.0</ele><time>2026-05-02T13:58:05.297Z</time></trkpt><trkpt lat="45.9904269" lon="12.0269697"><ele>689.0</ele><time>2026-05-02T13:58:07.29Z</time></trkpt><trkpt lat="45.9903442" lon="12.0269083"><ele>691.0</ele><time>2026-05-02T13:58:09.3Z</time></trkpt><trkpt lat="45.9902702" lon="12.0268895"><ele>693.0</ele><time>2026-05-02T13:58:11.298Z</time></trkpt><trkpt lat="45.9902021" lon="12.0268816"><ele>695.0</ele><time>2026-05-02T13:58:13.295Z</time></trkpt><trkpt lat="45.9901372" lon="12.0268693"><ele>697.0</ele><time>2026-05-02T13:58:15.296Z</time></trkpt><trkpt lat="45.9900567" lon="12.026869"><ele>696.4285714285714</ele><time>2026-05-02T13:58:18.295Z</time></trkpt><trkpt lat="45.9899883" lon="12.0268943"><ele>695.8571428571429</ele><time>2026-05-02T13:58:21.293Z</time></trkpt><trkpt lat="45.9899028" lon="12.0268849"><ele>695.2857142857142</ele><time>2026-05-02T13:58:24.292Z</time></trkpt><trkpt lat="45.9898336" lon="12.0269087"><ele>694.7142857142858</ele><time>2026-05-02T13:58:26.292Z</time></trkpt><trkpt lat="45.9897741" lon="12.0269511"><ele>694.1428571428571</ele><time>2026-05-02T13:58:28.294Z</time></trkpt><trkpt lat="45.9897335" lon="12.0270298"><ele>693.5714285714286</ele><time>2026-05-02T13:58:30.291Z</time></trkpt><trkpt lat="45.9897188" lon="12.0271425"><ele>693.0</ele><time>2026-05-02T13:58:32.29Z</time></trkpt><trkpt lat="45.9897136" lon="12.027261"><ele>693.0</ele><time>2026-05-02T13:58:34.303Z</time></trkpt><trkpt lat="45.9897081" lon="12.0273865"><ele>693.0</ele><time>2026-05-02T13:58:36.299Z</time></trkpt><trkpt lat="45.9896712" lon="12.0274684"><ele>693.0</ele><time>2026-05-02T13:58:38.297Z</time></trkpt><trkpt lat="45.9896145" lon="12.0275147"><ele>693.0</ele><time>2026-05-02T13:58:40.296Z</time></trkpt><trkpt lat="45.9895342" lon="12.0275294"><ele>693.0</ele><time>2026-05-02T13:58:42.288Z</time></trkpt><trkpt lat="45.9894455" lon="12.0275419"><ele>693.0</ele><time>2026-05-02T13:58:44.293Z</time></trkpt><trkpt lat="45.9893777" lon="12.0274915"><ele>689.6666666666666</ele><time>2026-05-02T13:58:46.296Z</time></trkpt><trkpt lat="45.9893104" lon="12.0274871"><ele>686.3333333333334</ele><time>2026-05-02T13:58:48.294Z</time></trkpt><trkpt lat="45.9892297" lon="12.0275102"><ele>683.0</ele><time>2026-05-02T13:58:50.289Z</time></trkpt><trkpt lat="45.9891593" lon="12.0275285"><ele>679.6666666666667</ele><time>2026-05-02T13:58:52.293Z</time></trkpt><trkpt lat="45.9890669" lon="12.0275377"><ele>676.3333333333334</ele><time>2026-05-02T13:58:55.295Z</time></trkpt><trkpt lat="45.9889711" lon="12.0275133"><ele>673.0</ele><time>2026-05-02T13:58:58.295Z</time></trkpt><trkpt lat="45.9889032" lon="12.0274924"><ele>679.3333333333334</ele><time>2026-05-02T13:59:00.285Z</time></trkpt><trkpt lat="45.9888272" lon="12.0274559"><ele>685.6666666666667</ele><time>2026-05-02T13:59:03.293Z</time></trkpt><trkpt lat="45.9887576" lon="12.0274355"><ele>692.0</ele><time>2026-05-02T13:59:06.292Z</time></trkpt><trkpt lat="45.9886845" lon="12.0274334"><ele>698.3333333333334</ele><time>2026-05-02T13:59:09.295Z</time></trkpt><trkpt lat="45.9886144" lon="12.0274183"><ele>704.6666666666666</ele><time>2026-05-02T13:59:12.29Z</time></trkpt><trkpt lat="45.9885292" lon="12.0274021"><ele>711.0</ele><time>2026-05-02T13:59:16.296Z</time></trkpt><trkpt lat="45.9884515" lon="12.027377"><ele>711.0</ele><time>2026-05-02T13:59:20.293Z</time></trkpt><trkpt lat="45.9883734" lon="12.0273762"><ele>711.0</ele><time>2026-05-02T13:59:24.291Z</time></trkpt><trkpt lat="45.9883077" lon="12.0273683"><ele>711.0</ele><time>2026-05-02T13:59:28.296Z</time></trkpt><trkpt lat="45.9882351" lon="12.0273458"><ele>711.0</ele><time>2026-05-02T13:59:32.3Z</time></trkpt><trkpt lat="45.9881611" lon="12.0273268"><ele>711.0</ele><time>2026-05-02T13:59:36.296Z</time></trkpt><trkpt lat="45.9880827" lon="12.0273103"><ele>711.0</ele><time>2026-05-02T13:59:40.292Z</time></trkpt><trkpt lat="45.9880217" lon="12.0272842"><ele>711.0</ele><time>2026-05-02T13:59:43.292Z</time></trkpt><trkpt lat="45.9879479" lon="12.0272689"><ele>713.0</ele><time>2026-05-02T13:59:47.295Z</time></trkpt><trkpt lat="45.987881" lon="12.0272357"><ele>715.0</ele><time>2026-05-02T13:59:51.301Z</time></trkpt><trkpt lat="45.9878091" lon="12.0272072"><ele>717.0</ele><time>2026-05-02T13:59:55.293Z</time></trkpt><trkpt lat="45.9877298" lon="12.0271789"><ele>719.0</ele><time>2026-05-02T13:59:59.296Z</time></trkpt><trkpt lat="45.9876686" lon="12.0271473"><ele>721.0</ele><time>2026-05-02T14:00:02.292Z</time></trkpt><trkpt lat="45.9875847" lon="12.0271211"><ele>723.0</ele><time>2026-05-02T14:00:06.299Z</time></trkpt><trkpt lat="45.9875197" lon="12.0271077"><ele>725.0</ele><time>2026-05-02T14:00:09.289Z</time></trkpt><trkpt lat="45.9874541" lon="12.0271027"><ele>725.3333333333333</ele><time>2026-05-02T14:00:12.294Z</time></trkpt><trkpt lat="45.9873837" lon="12.027091"><ele>725.6666666666666</ele><time>2026-05-02T14:00:15.292Z</time></trkpt><trkpt lat="45.9873053" lon="12.0270539"><ele>726.0</ele><time>2026-05-02T14:00:19.302Z</time></trkpt><trkpt lat="45.987241" lon="12.0270248"><ele>726.3333333333334</ele><time>2026-05-02T14:00:22.29Z</time></trkpt><trkpt lat="45.9871683" lon="12.026996"><ele>726.6666666666667</ele><time>2026-05-02T14:00:25.291Z</time></trkpt><trkpt lat="45.9870943" lon="12.0269702"><ele>727.0</ele><time>2026-05-02T14:00:28.294Z</time></trkpt><trkpt lat="45.9870055" lon="12.0269743"><ele>727.0</ele><time>2026-05-02T14:00:31.292Z</time></trkpt><trkpt lat="45.9869253" lon="12.0269755"><ele>727.0</ele><time>2026-05-02T14:00:34.294Z</time></trkpt><trkpt lat="45.9868519" lon="12.0269728"><ele>727.0</ele><time>2026-05-02T14:00:37.291Z</time></trkpt><trkpt lat="45.9867832" lon="12.026973"><ele>727.0</ele><time>2026-05-02T14:00:40.298Z</time></trkpt><trkpt lat="45.986719" lon="12.0269695"><ele>727.0</ele><time>2026-05-02T14:00:43.299Z</time></trkpt><trkpt lat="45.986656" lon="12.0269446"><ele>727.0</ele><time>2026-05-02T14:00:46.289Z</time></trkpt><trkpt lat="45.9865909" lon="12.0269001"><ele>727.0</ele><time>2026-05-02T14:00:49.296Z</time></trkpt><trkpt lat="45.9865274" lon="12.0268543"><ele>724.3333333333334</ele><time>2026-05-02T14:00:52.293Z</time></trkpt><trkpt lat="45.9864668" lon="12.0267957"><ele>721.6666666666667</ele><time>2026-05-02T14:00:55.288Z</time></trkpt><trkpt lat="45.9864112" lon="12.0267257"><ele>719.0</ele><time>2026-05-02T14:00:58.296Z</time></trkpt><trkpt lat="45.9863437" lon="12.0266494"><ele>716.3333333333334</ele><time>2026-05-02T14:01:01.293Z</time></trkpt><trkpt lat="45.9862653" lon="12.0265896"><ele>713.6666666666666</ele><time>2026-05-02T14:01:04.292Z</time></trkpt><trkpt lat="45.9861824" lon="12.0265498"><ele>711.0</ele><time>2026-05-02T14:01:07.294Z</time></trkpt><trkpt lat="45.9861013" lon="12.0265321"><ele>713.2857142857143</ele><time>2026-05-02T14:01:10.296Z</time></trkpt><trkpt lat="45.9860238" lon="12.0265003"><ele>715.5714285714286</ele><time>2026-05-02T14:01:13.296Z</time></trkpt><trkpt lat="45.9859548" lon="12.0264753"><ele>717.8571428571429</ele><time>2026-05-02T14:01:16.289Z</time></trkpt><trkpt lat="45.985879" lon="12.0264776"><ele>720.1428571428571</ele><time>2026-05-02T14:01:20.29Z</time></trkpt><trkpt lat="45.9858147" lon="12.0264891"><ele>722.4285714285714</ele><time>2026-05-02T14:01:28.313Z</time></trkpt><trkpt lat="45.9857858" lon="12.0263937"><ele>724.7142857142857</ele><time>2026-05-02T14:01:39.297Z</time></trkpt><trkpt lat="45.985744" lon="12.0263085"><ele>727.0</ele><time>2026-05-02T14:01:43.296Z</time></trkpt><trkpt lat="45.9856806" lon="12.0262533"><ele>727.0</ele><time>2026-05-02T14:01:47.298Z</time></trkpt><trkpt lat="45.9856182" lon="12.0261802"><ele>727.0</ele><time>2026-05-02T14:01:51.399Z</time></trkpt><trkpt lat="45.9855653" lon="12.0261281"><ele>727.0</ele><time>2026-05-02T14:01:54.296Z</time></trkpt><trkpt lat="45.9855032" lon="12.026096"><ele>727.0</ele><time>2026-05-02T14:01:57.295Z</time></trkpt><trkpt lat="45.9854458" lon="12.0260581"><ele>727.0</ele><time>2026-05-02T14:01:59.299Z</time></trkpt><trkpt lat="45.9853743" lon="12.0260129"><ele>727.0</ele><time>2026-05-02T14:02:02.295Z</time></trkpt><trkpt lat="45.9853185" lon="12.0259708"><ele>727.0</ele><time>2026-05-02T14:02:07.295Z</time></trkpt><trkpt lat="45.9852454" lon="12.0259657"><ele>727.0</ele><time>2026-05-02T14:02:22.305Z</time></trkpt><trkpt lat="45.9851446" lon="12.0259487"><ele>727.0</ele><time>2026-05-02T14:03:17.305Z</time></trkpt><trkpt lat="45.985061" lon="12.0259752"><ele>727.0</ele><time>2026-05-02T14:03:20.297Z</time></trkpt><trkpt lat="45.9849757" lon="12.0260248"><ele>727.0</ele><time>2026-05-02T14:03:23.298Z</time></trkpt><trkpt lat="45.984903" lon="12.0260428"><ele>727.0</ele><time>2026-05-02T14:03:26.304Z</time></trkpt><trkpt lat="45.9848435" lon="12.0259598"><ele>727.0</ele><time>2026-05-02T14:03:30.298Z</time></trkpt><trkpt lat="45.9848223" lon="12.025847"><ele>726.6666666666667</ele><time>2026-05-02T14:03:33.296Z</time></trkpt><trkpt lat="45.9848031" lon="12.0257044"><ele>726.3333333333334</ele><time>2026-05-02T14:03:36.298Z</time></trkpt><trkpt lat="45.9847315" lon="12.0256246"><ele>726.0</ele><time>2026-05-02T14:03:38.298Z</time></trkpt><trkpt lat="45.9846778" lon="12.025555"><ele>725.6666666666666</ele><time>2026-05-02T14:03:40.298Z</time></trkpt><trkpt lat="45.9846149" lon="12.025472"><ele>725.3333333333333</ele><time>2026-05-02T14:03:43.298Z</time></trkpt><trkpt lat="45.9845595" lon="12.0254047"><ele>725.0</ele><time>2026-05-02T14:03:46.296Z</time></trkpt><trkpt lat="45.9845378" lon="12.0253126"><ele>725.0</ele><time>2026-05-02T14:03:49.298Z</time></trkpt><trkpt lat="45.9845435" lon="12.025222"><ele>725.0</ele><time>2026-05-02T14:03:52.301Z</time></trkpt><trkpt lat="45.9845489" lon="12.0251227"><ele>725.0</ele><time>2026-05-02T14:03:57.295Z</time></trkpt><trkpt lat="45.9845237" lon="12.0250054"><ele>725.0</ele><time>2026-05-02T14:04:01.297Z</time></trkpt><trkpt lat="45.9844662" lon="12.024883"><ele>725.0</ele><time>2026-05-02T14:04:03.297Z</time></trkpt><trkpt lat="45.984424" lon="12.0247972"><ele>725.0</ele><time>2026-05-02T14:04:05.299Z</time></trkpt><trkpt lat="45.9843863" lon="12.0246878"><ele>728.0</ele><time>2026-05-02T14:04:08.296Z</time></trkpt><trkpt lat="45.9843648" lon="12.0245688"><ele>731.0</ele><time>2026-05-02T14:04:12.298Z</time></trkpt><trkpt lat="45.9843086" lon="12.0244766"><ele>734.0</ele><time>2026-05-02T14:04:25.296Z</time></trkpt><trkpt lat="45.9842417" lon="12.0244387"><ele>737.0</ele><time>2026-05-02T14:04:32.292Z</time></trkpt><trkpt lat="45.9842299" lon="12.0245556"><ele>740.0</ele><time>2026-05-02T14:04:36.303Z</time></trkpt><trkpt lat="45.9842606" lon="12.0244457"><ele>743.0</ele><time>2026-05-02T14:13:33.305Z</time></trkpt><trkpt lat="45.9843268" lon="12.0244545"><ele>743.0</ele><time>2026-05-02T14:13:44.317Z</time></trkpt><trkpt lat="45.9843589" lon="12.0245506"><ele>743.0</ele><time>2026-05-02T14:13:55.308Z</time></trkpt><trkpt lat="45.9843884" lon="12.0246421"><ele>743.0</ele><time>2026-05-02T14:14:04.306Z</time></trkpt><trkpt lat="45.9844168" lon="12.0247258"><ele>743.0</ele><time>2026-05-02T14:14:14.307Z</time></trkpt><trkpt lat="45.9844386" lon="12.0248124"><ele>743.0</ele><time>2026-05-02T14:14:18.306Z</time></trkpt><trkpt lat="45.9844767" lon="12.0248936"><ele>743.0</ele><time>2026-05-02T14:14:22.304Z</time></trkpt><trkpt lat="45.9845182" lon="12.0249651"><ele>743.0</ele><time>2026-05-02T14:14:26.307Z</time></trkpt><trkpt lat="45.9845337" lon="12.0250545"><ele>740.4285714285714</ele><time>2026-05-02T14:14:30.308Z</time></trkpt><trkpt lat="45.9845294" lon="12.0251512"><ele>737.8571428571428</ele><time>2026-05-02T14:14:41.307Z</time></trkpt><trkpt lat="45.9845423" lon="12.0252639"><ele>735.2857142857142</ele><time>2026-05-02T14:14:58.313Z</time></trkpt><trkpt lat="45.9845548" lon="12.0253664"><ele>732.7142857142858</ele><time>2026-05-02T14:15:02.308Z</time></trkpt><trkpt lat="45.9845953" lon="12.0254403"><ele>730.1428571428571</ele><time>2026-05-02T14:15:06.311Z</time></trkpt><trkpt lat="45.9846604" lon="12.0255169"><ele>727.5714285714286</ele><time>2026-05-02T14:15:10.313Z</time></trkpt><trkpt lat="45.9847144" lon="12.0255661"><ele>725.0</ele><time>2026-05-02T14:15:13.319Z</time></trkpt><trkpt lat="45.984784" lon="12.0256153"><ele>725.0</ele><time>2026-05-02T14:15:17.309Z</time></trkpt><trkpt lat="45.9848195" lon="12.0257076"><ele>725.0</ele><time>2026-05-02T14:15:20.312Z</time></trkpt><trkpt lat="45.98482" lon="12.025804"><ele>725.0</ele><time>2026-05-02T14:15:23.301Z</time></trkpt><trkpt lat="45.9848416" lon="12.0259073"><ele>725.0</ele><time>2026-05-02T14:15:27.302Z</time></trkpt><trkpt lat="45.984885" lon="12.0260094"><ele>725.0</ele><time>2026-05-02T14:15:31.313Z</time></trkpt><trkpt lat="45.9849585" lon="12.026029"><ele>725.0</ele><time>2026-05-02T14:15:35.317Z</time></trkpt><trkpt lat="45.9850121" lon="12.0259526"><ele>725.0</ele><time>2026-05-02T14:15:39.322Z</time></trkpt><trkpt lat="45.985072" lon="12.0259122"><ele>725.2857142857143</ele><time>2026-05-02T14:15:42.303Z</time></trkpt><trkpt lat="45.9851493" lon="12.0259251"><ele>725.5714285714287</ele><time>2026-05-02T14:15:46.3Z</time></trkpt><trkpt lat="45.9852236" lon="12.0259605"><ele>725.8571428571429</ele><time>2026-05-02T14:15:50.312Z</time></trkpt><trkpt lat="45.985289" lon="12.0260093"><ele>726.1428571428571</ele><time>2026-05-02T14:16:39.302Z</time></trkpt><trkpt lat="45.9853538" lon="12.0260469"><ele>726.4285714285714</ele><time>2026-05-02T14:17:10.306Z</time></trkpt><trkpt lat="45.9854161" lon="12.0260685"><ele>726.7142857142857</ele><time>2026-05-02T14:17:30.314Z</time></trkpt><trkpt lat="45.9854918" lon="12.0261189"><ele>727.0</ele><time>2026-05-02T14:17:35.32Z</time></trkpt><trkpt lat="45.9855676" lon="12.0261667"><ele>727.0</ele><time>2026-05-02T14:17:39.301Z</time></trkpt><trkpt lat="45.9856363" lon="12.0262407"><ele>727.0</ele><time>2026-05-02T14:17:42.313Z</time></trkpt><trkpt lat="45.9856949" lon="12.0263065"><ele>727.0</ele><time>2026-05-02T14:17:44.301Z</time></trkpt><trkpt lat="45.9857613" lon="12.0263605"><ele>727.0</ele><time>2026-05-02T14:17:47.303Z</time></trkpt><trkpt lat="45.9857919" lon="12.0264509"><ele>727.0</ele><time>2026-05-02T14:17:51.306Z</time></trkpt><trkpt lat="45.9858495" lon="12.02653"><ele>727.0</ele><time>2026-05-02T14:17:54.305Z</time></trkpt><trkpt lat="45.9858575" lon="12.0266258"><ele>730.0</ele><time>2026-05-02T14:17:57.3Z</time></trkpt><trkpt lat="45.9857994" lon="12.0266848"><ele>733.0</ele><time>2026-05-02T14:18:00.316Z</time></trkpt><trkpt lat="45.9858546" lon="12.0266179"><ele>736.0</ele><time>2026-05-02T14:20:46.295Z</time></trkpt><trkpt lat="45.9858728" lon="12.0265209"><ele>739.0</ele><time>2026-05-02T14:20:50.295Z</time></trkpt><trkpt lat="45.9859338" lon="12.0264854"><ele>742.0</ele><time>2026-05-02T14:20:54.297Z</time></trkpt><trkpt lat="45.9860228" lon="12.0265108"><ele>745.0</ele><time>2026-05-02T14:20:58.294Z</time></trkpt><trkpt lat="45.9860843" lon="12.0265341"><ele>748.0</ele><time>2026-05-02T14:21:00.293Z</time></trkpt><trkpt lat="45.9861615" lon="12.0265637"><ele>748.0</ele><time>2026-05-02T14:21:02.293Z</time></trkpt><trkpt lat="45.9862426" lon="12.0266064"><ele>748.0</ele><time>2026-05-02T14:21:04.295Z</time></trkpt><trkpt lat="45.9863147" lon="12.0266634"><ele>748.0</ele><time>2026-05-02T14:21:06.294Z</time></trkpt><trkpt lat="45.9863873" lon="12.0267332"><ele>748.0</ele><time>2026-05-02T14:21:08.293Z</time></trkpt><trkpt lat="45.9864536" lon="12.0268073"><ele>748.0</ele><time>2026-05-02T14:21:10.294Z</time></trkpt><trkpt lat="45.9865125" lon="12.0268821"><ele>748.0</ele><time>2026-05-02T14:21:12.304Z</time></trkpt><trkpt lat="45.9865775" lon="12.026934"><ele>744.5</ele><time>2026-05-02T14:21:14.292Z</time></trkpt><trkpt lat="45.9866488" lon="12.0269704"><ele>741.0</ele><time>2026-05-02T14:21:16.298Z</time></trkpt><trkpt lat="45.9867246" lon="12.0269878"><ele>737.5</ele><time>2026-05-02T14:21:18.299Z</time></trkpt><trkpt lat="45.9867897" lon="12.0269877"><ele>734.0</ele><time>2026-05-02T14:21:20.307Z</time></trkpt><trkpt lat="45.986885" lon="12.0269978"><ele>730.5</ele><time>2026-05-02T14:21:22.3Z</time></trkpt><trkpt lat="45.9869813" lon="12.0270174"><ele>727.0</ele><time>2026-05-02T14:21:24.298Z</time></trkpt><trkpt lat="45.9870721" lon="12.0270189"><ele>727.0</ele><time>2026-05-02T14:21:26.297Z</time></trkpt><trkpt lat="45.9871556" lon="12.0270463"><ele>727.0</ele><time>2026-05-02T14:21:28.298Z</time></trkpt><trkpt lat="45.9872531" lon="12.0270921"><ele>727.0</ele><time>2026-05-02T14:21:30.296Z</time></trkpt><trkpt lat="45.9873542" lon="12.0271191"><ele>727.0</ele><time>2026-05-02T14:21:32.291Z</time></trkpt><trkpt lat="45.9874405" lon="12.0271455"><ele>727.0</ele><time>2026-05-02T14:21:34.294Z</time></trkpt><trkpt lat="45.9875146" lon="12.0271613"><ele>726.6666666666667</ele><time>2026-05-02T14:21:36.304Z</time></trkpt><trkpt lat="45.9876099" lon="12.027189"><ele>726.3333333333334</ele><time>2026-05-02T14:21:38.289Z</time></trkpt><trkpt lat="45.9876987" lon="12.0272203"><ele>726.0</ele><time>2026-05-02T14:21:40.302Z</time></trkpt><trkpt lat="45.987771" lon="12.0272435"><ele>725.6666666666666</ele><time>2026-05-02T14:21:42.311Z</time></trkpt><trkpt lat="45.9878608" lon="12.0272822"><ele>725.3333333333333</ele><time>2026-05-02T14:21:44.307Z</time></trkpt><trkpt lat="45.9879287" lon="12.0272994"><ele>725.0</ele><time>2026-05-02T14:21:46.296Z</time></trkpt><trkpt lat="45.9880042" lon="12.0273234"><ele>725.0</ele><time>2026-05-02T14:21:48.295Z</time></trkpt><trkpt lat="45.9880917" lon="12.0273391"><ele>725.0</ele><time>2026-05-02T14:21:50.313Z</time></trkpt><trkpt lat="45.9881715" lon="12.0273546"><ele>725.0</ele><time>2026-05-02T14:21:52.307Z</time></trkpt><trkpt lat="45.9882559" lon="12.027362"><ele>725.0</ele><time>2026-05-02T14:21:54.311Z</time></trkpt><trkpt lat="45.9883328" lon="12.0273713"><ele>725.0</ele><time>2026-05-02T14:21:56.304Z</time></trkpt><trkpt lat="45.9884069" lon="12.0273841"><ele>725.0</ele><time>2026-05-02T14:21:58.316Z</time></trkpt><trkpt lat="45.9885051" lon="12.0273949"><ele>722.6666666666666</ele><time>2026-05-02T14:22:00.312Z</time></trkpt><trkpt lat="45.9885833" lon="12.0274029"><ele>720.3333333333333</ele><time>2026-05-02T14:22:02.295Z</time></trkpt><trkpt lat="45.9886837" lon="12.0274387"><ele>718.0</ele><time>2026-05-02T14:22:04.296Z</time></trkpt><trkpt lat="45.9887667" lon="12.0274587"><ele>715.6666666666666</ele><time>2026-05-02T14:22:06.292Z</time></trkpt><trkpt lat="45.9888403" lon="12.0274788"><ele>713.3333333333334</ele><time>2026-05-02T14:22:08.305Z</time></trkpt><trkpt lat="45.9889065" lon="12.0274878"><ele>711.0</ele><time>2026-05-02T14:22:10.299Z</time></trkpt><trkpt lat="45.9889739" lon="12.027507"><ele>708.0</ele><time>2026-05-02T14:22:12.296Z</time></trkpt><trkpt lat="45.9890625" lon="12.0275191"><ele>705.0</ele><time>2026-05-02T14:22:15.299Z</time></trkpt><trkpt lat="45.9891314" lon="12.0275226"><ele>702.0</ele><time>2026-05-02T14:22:17.294Z</time></trkpt><trkpt lat="45.9892182" lon="12.0275079"><ele>699.0</ele><time>2026-05-02T14:22:19.296Z</time></trkpt><trkpt lat="45.9892998" lon="12.02749"><ele>696.0</ele><time>2026-05-02T14:22:22.295Z</time></trkpt><trkpt lat="45.9893622" lon="12.0274765"><ele>693.0</ele><time>2026-05-02T14:22:24.295Z</time></trkpt><trkpt lat="45.9894529" lon="12.0274769"><ele>693.0</ele><time>2026-05-02T14:22:27.293Z</time></trkpt><trkpt lat="45.9895457" lon="12.0274937"><ele>693.0</ele><time>2026-05-02T14:22:30.296Z</time></trkpt><trkpt lat="45.989621" lon="12.0274636"><ele>693.0</ele><time>2026-05-02T14:22:33.291Z</time></trkpt><trkpt lat="45.9896729" lon="12.0273579"><ele>693.0</ele><time>2026-05-02T14:22:36.306Z</time></trkpt><trkpt lat="45.9896911" lon="12.02724"><ele>693.0</ele><time>2026-05-02T14:22:39.31Z</time></trkpt><trkpt lat="45.9897091" lon="12.0271112"><ele>693.0</ele><time>2026-05-02T14:22:42.3Z</time></trkpt><trkpt lat="45.9897272" lon="12.027023"><ele>693.0</ele><time>2026-05-02T14:22:44.302Z</time></trkpt><trkpt lat="45.9897683" lon="12.02694"><ele>693.0</ele><time>2026-05-02T14:22:46.295Z</time></trkpt><trkpt lat="45.9898361" lon="12.0268857"><ele>693.0</ele><time>2026-05-02T14:22:49.294Z</time></trkpt><trkpt lat="45.9899064" lon="12.0269061"><ele>693.0</ele><time>2026-05-02T14:22:52.294Z</time></trkpt><trkpt lat="45.9899695" lon="12.0268908"><ele>693.0</ele><time>2026-05-02T14:22:55.293Z</time></trkpt><trkpt lat="45.9900594" lon="12.0268748"><ele>693.0</ele><time>2026-05-02T14:22:58.298Z</time></trkpt><trkpt lat="45.9901315" lon="12.0268993"><ele>693.0</ele><time>2026-05-02T14:23:34.302Z</time></trkpt><trkpt lat="45.9902004" lon="12.0269493"><ele>693.6666666666666</ele><time>2026-05-02T14:23:43.299Z</time></trkpt><trkpt lat="45.990267" lon="12.0269766"><ele>694.3333333333334</ele><time>2026-05-02T14:23:46.293Z</time></trkpt><trkpt lat="45.9903326" lon="12.0270245"><ele>695.0</ele><time>2026-05-02T14:23:49.298Z</time></trkpt><trkpt lat="45.9903867" lon="12.0270851"><ele>695.6666666666667</ele><time>2026-05-02T14:23:51.294Z</time></trkpt><trkpt lat="45.9904497" lon="12.0271878"><ele>696.3333333333334</ele><time>2026-05-02T14:23:53.299Z</time></trkpt><trkpt lat="45.9905252" lon="12.0272835"><ele>697.0</ele><time>2026-05-02T14:23:55.29Z</time></trkpt><trkpt lat="45.9905783" lon="12.0273867"><ele>697.0</ele><time>2026-05-02T14:23:57.295Z</time></trkpt><trkpt lat="45.9906299" lon="12.0274712"><ele>697.0</ele><time>2026-05-02T14:24:00.293Z</time></trkpt><trkpt lat="45.9906889" lon="12.0275073"><ele>697.0</ele><time>2026-05-02T14:24:03.298Z</time></trkpt><trkpt lat="45.9907731" lon="12.0275275"><ele>697.0</ele><time>2026-05-02T14:24:06.301Z</time></trkpt><trkpt lat="45.9908458" lon="12.0275454"><ele>697.0</ele><time>2026-05-02T14:24:08.296Z</time></trkpt><trkpt lat="45.9909375" lon="12.0275418"><ele>697.0</ele><time>2026-05-02T14:24:11.297Z</time></trkpt><trkpt lat="45.9910087" lon="12.0275201"><ele>686.8333333333334</ele><time>2026-05-02T14:24:13.297Z</time></trkpt><trkpt lat="45.9910694" lon="12.0274945"><ele>676.6666666666667</ele><time>2026-05-02T14:24:15.296Z</time></trkpt><trkpt lat="45.991132" lon="12.0275496"><ele>666.5</ele><time>2026-05-02T14:24:19.304Z</time></trkpt><trkpt lat="45.9910888" lon="12.0276575"><ele>656.3333333333334</ele><time>2026-05-02T14:24:22.297Z</time></trkpt><trkpt lat="45.9910352" lon="12.0277458"><ele>646.1666666666666</ele><time>2026-05-02T14:24:24.296Z</time></trkpt><trkpt lat="45.9909997" lon="12.0279005"><ele>636.0</ele><time>2026-05-02T14:24:26.299Z</time></trkpt><trkpt lat="45.9909686" lon="12.0279928"><ele>636.0</ele><time>2026-05-02T14:24:27.3Z</time></trkpt><trkpt lat="45.9909374" lon="12.028083"><ele>636.0</ele><time>2026-05-02T14:24:28.297Z</time></trkpt><trkpt lat="45.9909116" lon="12.0281723"><ele>636.0</ele><time>2026-05-02T14:24:29.295Z</time></trkpt><trkpt lat="45.9908599" lon="12.0283213"><ele>636.0</ele><time>2026-05-02T14:24:31.303Z</time></trkpt><trkpt lat="45.9908186" lon="12.0283908"><ele>636.0</ele><time>2026-05-02T14:24:33.305Z</time></trkpt><trkpt lat="45.9907511" lon="12.0284063"><ele>636.0</ele><time>2026-05-02T14:24:37.304Z</time></trkpt><trkpt lat="45.9906776" lon="12.028395"><ele>635.3333333333334</ele><time>2026-05-02T14:24:41.293Z</time></trkpt><trkpt lat="45.9906097" lon="12.0283526"><ele>634.6666666666666</ele><time>2026-05-02T14:24:43.291Z</time></trkpt><trkpt lat="45.9905385" lon="12.0282987"><ele>634.0</ele><time>2026-05-02T14:24:45.295Z</time></trkpt><trkpt lat="45.9904586" lon="12.0282685"><ele>633.3333333333333</ele><time>2026-05-02T14:24:47.296Z</time></trkpt><trkpt lat="45.9903894" lon="12.0282612"><ele>632.6666666666666</ele><time>2026-05-02T14:24:49.294Z</time></trkpt><trkpt lat="45.9903291" lon="12.0283373"><ele>632.0</ele><time>2026-05-02T14:24:52.293Z</time></trkpt><trkpt lat="45.990346" lon="12.0284375"><ele>632.0</ele><time>2026-05-02T14:24:54.3Z</time></trkpt><trkpt lat="45.9904009" lon="12.0285045"><ele>632.0</ele><time>2026-05-02T14:24:56.292Z</time></trkpt><trkpt lat="45.9904451" lon="12.02862"><ele>632.0</ele><time>2026-05-02T14:24:59.299Z</time></trkpt><trkpt lat="45.9904848" lon="12.0287142"><ele>632.0</ele><time>2026-05-02T14:25:02.305Z</time></trkpt><trkpt lat="45.9905397" lon="12.0288187"><ele>632.0</ele><time>2026-05-02T14:25:05.297Z</time></trkpt><trkpt lat="45.9905708" lon="12.0289312"><ele>632.0</ele><time>2026-05-02T14:25:08.295Z</time></trkpt><trkpt lat="45.9906051" lon="12.0290207"><ele>632.0</ele><time>2026-05-02T14:25:11.299Z</time></trkpt><trkpt lat="45.9906575" lon="12.0290846"><ele>632.0</ele><time>2026-05-02T14:25:14.298Z</time></trkpt><trkpt lat="45.9907327" lon="12.029105"><ele>632.0</ele><time>2026-05-02T14:25:17.307Z</time></trkpt><trkpt lat="45.9908081" lon="12.0291256"><ele>632.0</ele><time>2026-05-02T14:25:19.294Z</time></trkpt><trkpt lat="45.9908824" lon="12.029186"><ele>632.0</ele><time>2026-05-02T14:25:22.297Z</time></trkpt><trkpt lat="45.9909481" lon="12.0292198"><ele>632.0</ele><time>2026-05-02T14:25:24.295Z</time></trkpt><trkpt lat="45.9910435" lon="12.0292216"><ele>623.1666666666666</ele><time>2026-05-02T14:25:27.292Z</time></trkpt><trkpt lat="45.9911199" lon="12.029216"><ele>614.3333333333333</ele><time>2026-05-02T14:25:29.295Z</time></trkpt><trkpt lat="45.9911826" lon="12.0292454"><ele>605.5</ele><time>2026-05-02T14:25:31.307Z</time></trkpt><trkpt lat="45.9912116" lon="12.0293408"><ele>596.6666666666666</ele><time>2026-05-02T14:25:33.3Z</time></trkpt><trkpt lat="45.9912127" lon="12.0294587"><ele>587.8333333333334</ele><time>2026-05-02T14:25:35.312Z</time></trkpt><trkpt lat="45.991246" lon="12.0295797"><ele>579.0</ele><time>2026-05-02T14:25:38.305Z</time></trkpt><trkpt lat="45.9912823" lon="12.0296599"><ele>579.0</ele><time>2026-05-02T14:25:41.297Z</time></trkpt><trkpt lat="45.9911898" lon="12.0297011"><ele>579.0</ele><time>2026-05-02T14:25:44.296Z</time></trkpt><trkpt lat="45.991121" lon="12.0296903"><ele>579.0</ele><time>2026-05-02T14:25:46.292Z</time></trkpt><trkpt lat="45.9910407" lon="12.029713"><ele>579.0</ele><time>2026-05-02T14:25:48.295Z</time></trkpt><trkpt lat="45.9909806" lon="12.0297559"><ele>579.0</ele><time>2026-05-02T14:25:50.294Z</time></trkpt><trkpt lat="45.9909177" lon="12.0298135"><ele>579.0</ele><time>2026-05-02T14:25:53.293Z</time></trkpt><trkpt lat="45.9909208" lon="12.0299288"><ele>576.9999999999999</ele><time>2026-05-02T14:25:56.296Z</time></trkpt><trkpt lat="45.9909888" lon="12.0300049"><ele>575.0</ele><time>2026-05-02T14:25:59.297Z</time></trkpt><trkpt lat="45.9910598" lon="12.0300406"><ele>573.0</ele><time>2026-05-02T14:26:02.3Z</time></trkpt><trkpt lat="45.9911204" lon="12.0301062"><ele>571.0</ele><time>2026-05-02T14:26:06.297Z</time></trkpt><trkpt lat="45.9910765" lon="12.0301885"><ele>569.0</ele><time>2026-05-02T14:26:10.299Z</time></trkpt><trkpt lat="45.991014" lon="12.0302129"><ele>566.9999999999999</ele><time>2026-05-02T14:26:12.305Z</time></trkpt><trkpt lat="45.9909406" lon="12.0302301"><ele>565.0</ele><time>2026-05-02T14:26:15.305Z</time></trkpt><trkpt lat="45.9908677" lon="12.0302644"><ele>567.1428571428571</ele><time>2026-05-02T14:26:18.296Z</time></trkpt><trkpt lat="45.9908007" lon="12.0303286"><ele>569.2857142857142</ele><time>2026-05-02T14:26:20.294Z</time></trkpt><trkpt lat="45.9907404" lon="12.0303706"><ele>571.4285714285714</ele><time>2026-05-02T14:26:40.306Z</time></trkpt><trkpt lat="45.9906867" lon="12.0304288"><ele>573.5714285714286</ele><time>2026-05-02T14:26:57.305Z</time></trkpt><trkpt lat="45.9907073" lon="12.0303323"><ele>575.7142857142858</ele><time>2026-05-02T14:27:24.306Z</time></trkpt><trkpt lat="45.9906604" lon="12.0302598"><ele>577.8571428571429</ele><time>2026-05-02T14:27:29.309Z</time></trkpt><trkpt lat="45.9905902" lon="12.0302512"><ele>580.0</ele><time>2026-05-02T14:28:01.294Z</time></trkpt><trkpt lat="45.9905242" lon="12.0302835"><ele>580.0</ele><time>2026-05-02T14:28:10.296Z</time></trkpt><trkpt lat="45.9904528" lon="12.0303273"><ele>580.0</ele><time>2026-05-02T14:28:16.296Z</time></trkpt><trkpt lat="45.9903952" lon="12.0303805"><ele>580.0</ele><time>2026-05-02T14:28:19.299Z</time></trkpt><trkpt lat="45.9903397" lon="12.0304366"><ele>580.0</ele><time>2026-05-02T14:28:22.306Z</time></trkpt><trkpt lat="45.9902804" lon="12.0304696"><ele>580.0</ele><time>2026-05-02T14:28:25.303Z</time></trkpt><trkpt lat="45.9902359" lon="12.0305512"><ele>580.0</ele><time>2026-05-02T14:28:29.305Z</time></trkpt><trkpt lat="45.9902242" lon="12.0306595"><ele>580.0</ele><time>2026-05-02T14:28:33.306Z</time></trkpt><trkpt lat="45.9902108" lon="12.030752"><ele>579.1666666666667</ele><time>2026-05-02T14:28:36.308Z</time></trkpt><trkpt lat="45.9902806" lon="12.0308289"><ele>578.3333333333334</ele><time>2026-05-02T14:28:41.305Z</time></trkpt><trkpt lat="45.990379" lon="12.0308687"><ele>577.5</ele><time>2026-05-02T14:28:44.29Z</time></trkpt><trkpt lat="45.9904517" lon="12.0308856"><ele>576.6666666666666</ele><time>2026-05-02T14:28:46.29Z</time></trkpt><trkpt lat="45.990546" lon="12.0309373"><ele>575.8333333333333</ele><time>2026-05-02T14:28:48.297Z</time></trkpt><trkpt lat="45.9906041" lon="12.0309866"><ele>575.0</ele><time>2026-05-02T14:28:51.291Z</time></trkpt><trkpt lat="45.990662" lon="12.0310286"><ele>575.0</ele><time>2026-05-02T14:28:54.308Z</time></trkpt><trkpt lat="45.9907366" lon="12.0310531"><ele>575.0</ele><time>2026-05-02T14:28:58.307Z</time></trkpt><trkpt lat="45.9908041" lon="12.0311012"><ele>575.0</ele><time>2026-05-02T14:29:02.307Z</time></trkpt><trkpt lat="45.9907326" lon="12.0310608"><ele>575.0</ele><time>2026-05-02T14:29:18.306Z</time></trkpt><trkpt lat="45.990656" lon="12.0310102"><ele>575.0</ele><time>2026-05-02T14:29:21.307Z</time></trkpt><trkpt lat="45.9905768" lon="12.0309831"><ele>575.0</ele><time>2026-05-02T14:29:24.304Z</time></trkpt><trkpt lat="45.9905012" lon="12.0310358"><ele>575.0</ele><time>2026-05-02T14:29:28.307Z</time></trkpt><trkpt lat="45.9904324" lon="12.0310432"><ele>575.0</ele><time>2026-05-02T14:29:32.305Z</time></trkpt><trkpt lat="45.9903656" lon="12.03104"><ele>575.0</ele><time>2026-05-02T14:29:35.304Z</time></trkpt><trkpt lat="45.9902997" lon="12.0310315"><ele>575.0</ele><time>2026-05-02T14:29:39.304Z</time></trkpt><trkpt lat="45.9902371" lon="12.0310497"><ele>575.0</ele><time>2026-05-02T14:29:43.305Z</time></trkpt><trkpt lat="45.9901656" lon="12.0310911"><ele>575.0</ele><time>2026-05-02T14:29:47.303Z</time></trkpt><trkpt lat="45.9900934" lon="12.0310917"><ele>575.0</ele><time>2026-05-02T14:29:50.304Z</time></trkpt><trkpt lat="45.9900288" lon="12.0310757"><ele>576.3333333333333</ele><time>2026-05-02T14:30:25.307Z</time></trkpt><trkpt lat="45.9899469" lon="12.031113"><ele>577.6666666666666</ele><time>2026-05-02T14:30:40.302Z</time></trkpt><trkpt lat="45.9898768" lon="12.0310996"><ele>579.0</ele><time>2026-05-02T14:31:00.29Z</time></trkpt><trkpt lat="45.9898128" lon="12.0311336"><ele>580.3333333333334</ele><time>2026-05-02T14:31:04.306Z</time></trkpt><trkpt lat="45.9897485" lon="12.0311818"><ele>581.6666666666667</ele><time>2026-05-02T14:31:08.304Z</time></trkpt><trkpt lat="45.9896901" lon="12.0312593"><ele>583.0</ele><time>2026-05-02T14:31:11.307Z</time></trkpt><trkpt lat="45.9896221" lon="12.0313013"><ele>583.0000000000001</ele><time>2026-05-02T14:31:16.297Z</time></trkpt><trkpt lat="45.9895542" lon="12.0313521"><ele>583.0</ele><time>2026-05-02T14:31:30.299Z</time></trkpt><trkpt lat="45.9894873" lon="12.0313805"><ele>583.0</ele><time>2026-05-02T14:31:34.299Z</time></trkpt><trkpt lat="45.9894183" lon="12.0314216"><ele>583.0</ele><time>2026-05-02T14:31:39.3Z</time></trkpt><trkpt lat="45.9893513" lon="12.0314605"><ele>583.0</ele><time>2026-05-02T14:31:44.297Z</time></trkpt><trkpt lat="45.9892877" lon="12.031467"><ele>583.0000000000001</ele><time>2026-05-02T14:31:48.299Z</time></trkpt><trkpt lat="45.9892193" lon="12.0314793"><ele>583.0</ele><time>2026-05-02T14:32:34.298Z</time></trkpt><trkpt lat="45.9891426" lon="12.0315023"><ele>586.0</ele><time>2026-05-02T14:32:39.3Z</time></trkpt><trkpt lat="45.9890676" lon="12.0315204"><ele>589.0</ele><time>2026-05-02T14:32:43.297Z</time></trkpt><trkpt lat="45.9889951" lon="12.0315479"><ele>592.0</ele><time>2026-05-02T14:32:47.298Z</time></trkpt><trkpt lat="45.9889117" lon="12.0315636"><ele>595.0</ele><time>2026-05-02T14:32:51.305Z</time></trkpt><trkpt lat="45.9888461" lon="12.031573"><ele>598.0</ele><time>2026-05-02T14:32:54.306Z</time></trkpt><trkpt lat="45.9887746" lon="12.0315404"><ele>601.0</ele><time>2026-05-02T14:32:58.297Z</time></trkpt><trkpt lat="45.9887057" lon="12.0314899"><ele>601.0</ele><time>2026-05-02T14:33:07.295Z</time></trkpt><trkpt lat="45.9886344" lon="12.0314598"><ele>601.0</ele><time>2026-05-02T14:33:11.307Z</time></trkpt><trkpt lat="45.9885594" lon="12.0314583"><ele>601.0</ele><time>2026-05-02T14:33:15.306Z</time></trkpt><trkpt lat="45.9884965" lon="12.031466"><ele>601.0</ele><time>2026-05-02T14:33:18.304Z</time></trkpt><trkpt lat="45.9884235" lon="12.0314928"><ele>601.0</ele><time>2026-05-02T14:33:22.311Z</time></trkpt><trkpt lat="45.9883597" lon="12.0315341"><ele>601.0</ele><time>2026-05-02T14:33:26.304Z</time></trkpt><trkpt lat="45.9882791" lon="12.031559"><ele>601.0</ele><time>2026-05-02T14:33:31.307Z</time></trkpt><trkpt lat="45.9882175" lon="12.0315841"><ele>602.7142857142857</ele><time>2026-05-02T14:33:34.309Z</time></trkpt><trkpt lat="45.988151" lon="12.0315968"><ele>604.4285714285714</ele><time>2026-05-02T14:33:37.308Z</time></trkpt><trkpt lat="45.988088" lon="12.031577"><ele>606.1428571428571</ele><time>2026-05-02T14:33:42.307Z</time></trkpt><trkpt lat="45.9880274" lon="12.0316401"><ele>607.8571428571429</ele><time>2026-05-02T14:33:47.296Z</time></trkpt><trkpt lat="45.9879547" lon="12.0316781"><ele>609.5714285714286</ele><time>2026-05-02T14:33:50.299Z</time></trkpt><trkpt lat="45.9878874" lon="12.0317245"><ele>611.2857142857143</ele><time>2026-05-02T14:33:54.306Z</time></trkpt><trkpt lat="45.9878206" lon="12.0317032"><ele>613.0</ele><time>2026-05-02T14:34:38.298Z</time></trkpt><trkpt lat="45.9877339" lon="12.0316613"><ele>613.0</ele><time>2026-05-02T14:34:41.303Z</time></trkpt><trkpt lat="45.9876655" lon="12.0316194"><ele>613.0</ele><time>2026-05-02T14:34:43.305Z</time></trkpt><trkpt lat="45.9875852" lon="12.0316087"><ele>613.0</ele><time>2026-05-02T14:34:46.297Z</time></trkpt><trkpt lat="45.9874948" lon="12.0316357"><ele>613.0</ele><time>2026-05-02T14:34:49.299Z</time></trkpt><trkpt lat="45.9873975" lon="12.0316562"><ele>613.0</ele><time>2026-05-02T14:34:51.297Z</time></trkpt><trkpt lat="45.9873046" lon="12.0316856"><ele>613.0</ele><time>2026-05-02T14:34:53.298Z</time></trkpt><trkpt lat="45.9872011" lon="12.0317083"><ele>617.4</ele><time>2026-05-02T14:34:55.298Z</time></trkpt><trkpt lat="45.9871137" lon="12.0317565"><ele>621.8</ele><time>2026-05-02T14:34:57.305Z</time></trkpt><trkpt lat="45.9870189" lon="12.0317812"><ele>626.2</ele><time>2026-05-02T14:34:59.297Z</time></trkpt><trkpt lat="45.9869168" lon="12.031797"><ele>630.6</ele><time>2026-05-02T14:35:01.299Z</time></trkpt><trkpt lat="45.9868202" lon="12.031827"><ele>635.0</ele><time>2026-05-02T14:35:03.298Z</time></trkpt><trkpt lat="45.9867334" lon="12.0318433"><ele>634.8333333333333</ele><time>2026-05-02T14:35:05.299Z</time></trkpt><trkpt lat="45.9866549" lon="12.031849"><ele>634.6666666666666</ele><time>2026-05-02T14:35:07.296Z</time></trkpt><trkpt lat="45.9865716" lon="12.0318437"><ele>634.5</ele><time>2026-05-02T14:35:09.296Z</time></trkpt><trkpt lat="45.9864875" lon="12.0318434"><ele>634.3333333333334</ele><time>2026-05-02T14:35:11.299Z</time></trkpt><trkpt lat="45.9864049" lon="12.0318623"><ele>634.1666666666667</ele><time>2026-05-02T14:35:13.297Z</time></trkpt><trkpt lat="45.9863296" lon="12.0318777"><ele>634.0</ele><time>2026-05-02T14:35:15.298Z</time></trkpt><trkpt lat="45.986242" lon="12.0318725"><ele>634.0</ele><time>2026-05-02T14:35:18.3Z</time></trkpt><trkpt lat="45.9861563" lon="12.0318883"><ele>634.0</ele><time>2026-05-02T14:35:21.298Z</time></trkpt><trkpt lat="45.9860763" lon="12.0318781"><ele>634.0</ele><time>2026-05-02T14:35:24.298Z</time></trkpt><trkpt lat="45.9860362" lon="12.0317806"><ele>634.0</ele><time>2026-05-02T14:35:28.3Z</time></trkpt><trkpt lat="45.9860115" lon="12.0316931"><ele>634.0</ele><time>2026-05-02T14:35:31.306Z</time></trkpt><trkpt lat="45.9859545" lon="12.0316352"><ele>634.0</ele><time>2026-05-02T14:37:20.297Z</time></trkpt><trkpt lat="45.9859141" lon="12.0317053"><ele>634.0</ele><time>2026-05-02T14:37:25.294Z</time></trkpt><trkpt lat="45.9859371" lon="12.0318091"><ele>634.0</ele><time>2026-05-02T14:37:29.294Z</time></trkpt><trkpt lat="45.9859455" lon="12.0319122"><ele>634.0</ele><time>2026-05-02T14:37:33.3Z</time></trkpt><trkpt lat="45.9860129" lon="12.0319275"><ele>634.0</ele><time>2026-05-02T14:37:50.3Z</time></trkpt><trkpt lat="45.9860782" lon="12.0319186"><ele>634.0</ele><time>2026-05-02T14:37:52.296Z</time></trkpt><trkpt lat="45.9861432" lon="12.0319027"><ele>634.0</ele><time>2026-05-02T14:37:54.296Z</time></trkpt><trkpt lat="45.9862075" lon="12.0318939"><ele>634.0</ele><time>2026-05-02T14:37:56.294Z</time></trkpt><trkpt lat="45.9862697" lon="12.0318777"><ele>634.0</ele><time>2026-05-02T14:37:58.296Z</time></trkpt><trkpt lat="45.9863328" lon="12.0318726"><ele>634.0</ele><time>2026-05-02T14:38:00.293Z</time></trkpt><trkpt lat="45.9864208" lon="12.0318459"><ele>634.0</ele><time>2026-05-02T14:38:03.296Z</time></trkpt><trkpt lat="45.9864844" lon="12.031831"><ele>634.0</ele><time>2026-05-02T14:38:05.296Z</time></trkpt><trkpt lat="45.9865506" lon="12.0318364"><ele>634.0</ele><time>2026-05-02T14:38:07.289Z</time></trkpt><trkpt lat="45.9866147" lon="12.0318698"><ele>634.0</ele><time>2026-05-02T14:38:09.296Z</time></trkpt><trkpt lat="45.9866681" lon="12.0319219"><ele>634.0</ele><time>2026-05-02T14:38:11.295Z</time></trkpt><trkpt lat="45.9867346" lon="12.0318837"><ele>634.0</ele><time>2026-05-02T14:55:52.301Z</time></trkpt><trkpt lat="45.9868034" lon="12.0318748"><ele>634.1428571428571</ele><time>2026-05-02T14:55:55.305Z</time></trkpt><trkpt lat="45.9868701" lon="12.0318531"><ele>634.2857142857142</ele><time>2026-05-02T14:55:57.307Z</time></trkpt><trkpt lat="45.9869548" lon="12.0318419"><ele>634.4285714285713</ele><time>2026-05-02T14:56:00.305Z</time></trkpt><trkpt lat="45.9870212" lon="12.0318261"><ele>634.5714285714286</ele><time>2026-05-02T14:56:02.31Z</time></trkpt><trkpt lat="45.9870917" lon="12.0318147"><ele>634.7142857142857</ele><time>2026-05-02T14:56:04.293Z</time></trkpt><trkpt lat="45.9871609" lon="12.0317899"><ele>634.8571428571428</ele><time>2026-05-02T14:56:06.297Z</time></trkpt><trkpt lat="45.9872343" lon="12.0317651"><ele>635.0</ele><time>2026-05-02T14:56:08.292Z</time></trkpt><trkpt lat="45.9873243" lon="12.0317423"><ele>635.0</ele><time>2026-05-02T14:56:11.292Z</time></trkpt><trkpt lat="45.9873895" lon="12.0317164"><ele>635.0</ele><time>2026-05-02T14:56:13.288Z</time></trkpt><trkpt lat="45.9874699" lon="12.0316826"><ele>635.0</ele><time>2026-05-02T14:56:16.296Z</time></trkpt><trkpt lat="45.9875563" lon="12.03166"><ele>635.0</ele><time>2026-05-02T14:56:19.294Z</time></trkpt><trkpt lat="45.987633" lon="12.0316637"><ele>635.0</ele><time>2026-05-02T14:56:21.293Z</time></trkpt><trkpt lat="45.9877028" lon="12.0316982"><ele>635.0</ele><time>2026-05-02T14:56:23.29Z</time></trkpt><trkpt lat="45.9877663" lon="12.0317425"><ele>634.1428571428571</ele><time>2026-05-02T14:56:25.299Z</time></trkpt><trkpt lat="45.9878186" lon="12.0317953"><ele>633.2857142857142</ele><time>2026-05-02T14:56:27.293Z</time></trkpt><trkpt lat="45.9878965" lon="12.0318731"><ele>632.4285714285713</ele><time>2026-05-02T14:56:30.304Z</time></trkpt><trkpt lat="45.9879658" lon="12.0319314"><ele>631.5714285714286</ele><time>2026-05-02T14:56:33.305Z</time></trkpt><trkpt lat="45.9880326" lon="12.0319677"><ele>630.7142857142858</ele><time>2026-05-02T14:56:36.29Z</time></trkpt><trkpt lat="45.9880924" lon="12.0319987"><ele>629.8571428571428</ele><time>2026-05-02T14:56:39.297Z</time></trkpt><trkpt lat="45.9881553" lon="12.0320322"><ele>629.0</ele><time>2026-05-02T14:56:42.291Z</time></trkpt><trkpt lat="45.9882179" lon="12.0320693"><ele>629.0</ele><time>2026-05-02T14:56:45.297Z</time></trkpt><trkpt lat="45.9882822" lon="12.0321167"><ele>629.0</ele><time>2026-05-02T14:56:48.296Z</time></trkpt><trkpt lat="45.9883483" lon="12.0321366"><ele>629.0</ele><time>2026-05-02T14:56:51.293Z</time></trkpt><trkpt lat="45.9884264" lon="12.0321442"><ele>629.0</ele><time>2026-05-02T14:56:55.294Z</time></trkpt><trkpt lat="45.9885037" lon="12.0321133"><ele>629.0</ele><time>2026-05-02T14:56:59.302Z</time></trkpt><trkpt lat="45.9885841" lon="12.0320919"><ele>629.0</ele><time>2026-05-02T14:57:03.296Z</time></trkpt><trkpt lat="45.9886632" lon="12.0320975"><ele>628.1428571428571</ele><time>2026-05-02T14:57:07.298Z</time></trkpt><trkpt lat="45.9887435" lon="12.0321034"><ele>627.2857142857143</ele><time>2026-05-02T14:57:11.297Z</time></trkpt><trkpt lat="45.9888179" lon="12.0321282"><ele>626.4285714285714</ele><time>2026-05-02T14:57:15.298Z</time></trkpt><trkpt lat="45.9888923" lon="12.0321664"><ele>625.5714285714286</ele><time>2026-05-02T14:57:19.297Z</time></trkpt><trkpt lat="45.9889611" lon="12.0321976"><ele>624.7142857142858</ele><time>2026-05-02T14:57:22.299Z</time></trkpt><trkpt lat="45.9890321" lon="12.0322355"><ele>623.8571428571429</ele><time>2026-05-02T14:57:25.303Z</time></trkpt><trkpt lat="45.9890872" lon="12.0322823"><ele>623.0</ele><time>2026-05-02T14:57:28.305Z</time></trkpt><trkpt lat="45.9891474" lon="12.0323235"><ele>624.8333333333333</ele><time>2026-05-02T14:57:30.304Z</time></trkpt><trkpt lat="45.9892167" lon="12.0323493"><ele>626.6666666666666</ele><time>2026-05-02T14:57:32.307Z</time></trkpt><trkpt lat="45.9892995" lon="12.0324259"><ele>628.5</ele><time>2026-05-02T14:57:35.295Z</time></trkpt><trkpt lat="45.9893648" lon="12.0325102"><ele>630.3333333333334</ele><time>2026-05-02T14:57:38.297Z</time></trkpt><trkpt lat="45.9894297" lon="12.0325482"><ele>632.1666666666667</ele><time>2026-05-02T14:57:40.287Z</time></trkpt><trkpt lat="45.9894977" lon="12.0325864"><ele>634.0</ele><time>2026-05-02T14:57:43.306Z</time></trkpt><trkpt lat="45.9895778" lon="12.0325953"><ele>634.0</ele><time>2026-05-02T14:57:45.302Z</time></trkpt><trkpt lat="45.9896469" lon="12.0326257"><ele>634.0</ele><time>2026-05-02T14:57:47.307Z</time></trkpt><trkpt lat="45.9897276" lon="12.032664"><ele>634.0</ele><time>2026-05-02T14:57:50.3Z</time></trkpt><trkpt lat="45.9897917" lon="12.0326993"><ele>634.0</ele><time>2026-05-02T14:57:52.305Z</time></trkpt><trkpt lat="45.9898619" lon="12.0327314"><ele>634.0</ele><time>2026-05-02T14:57:54.313Z</time></trkpt><trkpt lat="45.9899327" lon="12.0327345"><ele>634.0</ele><time>2026-05-02T14:57:56.304Z</time></trkpt><trkpt lat="45.9900062" lon="12.0327424"><ele>634.0</ele><time>2026-05-02T14:57:58.3Z</time></trkpt><trkpt lat="45.9900744" lon="12.0327574"><ele>632.4</ele><time>2026-05-02T14:58:00.304Z</time></trkpt><trkpt lat="45.9901631" lon="12.0327392"><ele>630.8</ele><time>2026-05-02T14:58:03.294Z</time></trkpt><trkpt lat="45.990239" lon="12.0327409"><ele>629.2</ele><time>2026-05-02T14:58:05.294Z</time></trkpt><trkpt lat="45.9903184" lon="12.0327583"><ele>627.6</ele><time>2026-05-02T14:58:07.285Z</time></trkpt><trkpt lat="45.9904137" lon="12.0327607"><ele>626.0</ele><time>2026-05-02T14:58:09.305Z</time></trkpt><trkpt lat="45.9905337" lon="12.032773"><ele>626.0</ele><time>2026-05-02T14:58:11.307Z</time></trkpt><trkpt lat="45.9906001" lon="12.0327697"><ele>626.0</ele><time>2026-05-02T14:58:12.301Z</time></trkpt><trkpt lat="45.9906749" lon="12.0327522"><ele>626.0</ele><time>2026-05-02T14:58:13.307Z</time></trkpt><trkpt lat="45.990776" lon="12.0327262"><ele>626.0</ele><time>2026-05-02T14:58:15.303Z</time></trkpt><trkpt lat="45.9908609" lon="12.0326831"><ele>626.0</ele><time>2026-05-02T14:58:17.289Z</time></trkpt><trkpt lat="45.9909247" lon="12.0326605"><ele>626.0</ele><time>2026-05-02T14:58:19.296Z</time></trkpt><trkpt lat="45.9909997" lon="12.0326506"><ele>624.2</ele><time>2026-05-02T14:58:22.305Z</time></trkpt><trkpt lat="45.9910717" lon="12.0326858"><ele>622.4000000000001</ele><time>2026-05-02T14:58:25.297Z</time></trkpt><trkpt lat="45.9911487" lon="12.032721"><ele>620.6</ele><time>2026-05-02T14:58:28.304Z</time></trkpt><trkpt lat="45.9912409" lon="12.0327323"><ele>618.8000000000001</ele><time>2026-05-02T14:58:31.309Z</time></trkpt><trkpt lat="45.9913516" lon="12.0327153"><ele>617.0</ele><time>2026-05-02T14:58:33.299Z</time></trkpt><trkpt lat="45.9914688" lon="12.032692"><ele>617.0</ele><time>2026-05-02T14:58:35.31Z</time></trkpt><trkpt lat="45.9915763" lon="12.0326748"><ele>617.0</ele><time>2026-05-02T14:58:37.302Z</time></trkpt><trkpt lat="45.99168" lon="12.0326773"><ele>617.0</ele><time>2026-05-02T14:58:39.305Z</time></trkpt><trkpt lat="45.991785" lon="12.0326781"><ele>617.0</ele><time>2026-05-02T14:58:41.295Z</time></trkpt><trkpt lat="45.9918787" lon="12.0327122"><ele>617.0</ele><time>2026-05-02T14:58:43.304Z</time></trkpt><trkpt lat="45.9919677" lon="12.0327276"><ele>616.3333333333333</ele><time>2026-05-02T14:58:45.304Z</time></trkpt><trkpt lat="45.992051" lon="12.0327229"><ele>615.6666666666666</ele><time>2026-05-02T14:58:47.305Z</time></trkpt><trkpt lat="45.9921323" lon="12.0327309"><ele>615.0</ele><time>2026-05-02T14:58:49.304Z</time></trkpt><trkpt lat="45.9921979" lon="12.0327713"><ele>614.3333333333334</ele><time>2026-05-02T14:58:51.303Z</time></trkpt><trkpt lat="45.9922983" lon="12.0327804"><ele>613.6666666666667</ele><time>2026-05-02T14:58:53.305Z</time></trkpt><trkpt lat="45.99239" lon="12.0328028"><ele>613.0</ele><time>2026-05-02T14:58:55.305Z</time></trkpt><trkpt lat="45.9924712" lon="12.0327909"><ele>611.4</ele><time>2026-05-02T14:58:57.306Z</time></trkpt><trkpt lat="45.9925609" lon="12.0327809"><ele>609.8</ele><time>2026-05-02T14:58:59.308Z</time></trkpt><trkpt lat="45.9926601" lon="12.0327713"><ele>608.2</ele><time>2026-05-02T14:59:01.304Z</time></trkpt><trkpt lat="45.9927682" lon="12.0327724"><ele>606.6</ele><time>2026-05-02T14:59:03.305Z</time></trkpt><trkpt lat="45.99282" lon="12.0328301"><ele>605.0</ele><time>2026-05-02T14:59:05.303Z</time></trkpt><trkpt lat="45.992903" lon="12.032873"><ele>605.0</ele><time>2026-05-02T14:59:08.305Z</time></trkpt><trkpt lat="45.9929659" lon="12.0328922"><ele>605.0</ele><time>2026-05-02T14:59:10.294Z</time></trkpt><trkpt lat="45.9930411" lon="12.032921"><ele>605.0</ele><time>2026-05-02T14:59:13.305Z</time></trkpt><trkpt lat="45.9931195" lon="12.0329048"><ele>605.0</ele><time>2026-05-02T15:02:01.309Z</time></trkpt><trkpt lat="45.9932044" lon="12.0328958"><ele>605.0</ele><time>2026-05-02T15:02:04.304Z</time></trkpt><trkpt lat="45.9932832" lon="12.0328953"><ele>605.0</ele><time>2026-05-02T15:02:07.306Z</time></trkpt><trkpt lat="45.9933718" lon="12.0328985"><ele>600.8333333333333</ele><time>2026-05-02T15:02:10.306Z</time></trkpt><trkpt lat="45.9934398" lon="12.0328996"><ele>596.6666666666666</ele><time>2026-05-02T15:02:12.299Z</time></trkpt><trkpt lat="45.993509" lon="12.0329093"><ele>592.5</ele><time>2026-05-02T15:02:14.304Z</time></trkpt><trkpt lat="45.9935996" lon="12.0329068"><ele>588.3333333333334</ele><time>2026-05-02T15:02:16.299Z</time></trkpt><trkpt lat="45.9936989" lon="12.0329206"><ele>584.1666666666667</ele><time>2026-05-02T15:02:18.298Z</time></trkpt><trkpt lat="45.9938098" lon="12.0329342"><ele>580.0</ele><time>2026-05-02T15:02:20.3Z</time></trkpt><trkpt lat="45.9939251" lon="12.0329365"><ele>580.0</ele><time>2026-05-02T15:02:22.3Z</time></trkpt><trkpt lat="45.9940227" lon="12.0329142"><ele>580.0</ele><time>2026-05-02T15:02:24.295Z</time></trkpt><trkpt lat="45.9941126" lon="12.0328979"><ele>580.0</ele><time>2026-05-02T15:02:26.291Z</time></trkpt><trkpt lat="45.9942385" lon="12.0329934"><ele>580.0</ele><time>2026-05-02T15:02:29.302Z</time></trkpt><trkpt lat="45.9943186" lon="12.0330911"><ele>580.0</ele><time>2026-05-02T15:02:31.294Z</time></trkpt><trkpt lat="45.9943801" lon="12.0332237"><ele>573.5</ele><time>2026-05-02T15:02:33.31Z</time></trkpt><trkpt lat="45.9944093" lon="12.0333065"><ele>567.0</ele><time>2026-05-02T15:02:34.302Z</time></trkpt><trkpt lat="45.9944414" lon="12.0333934"><ele>560.5</ele><time>2026-05-02T15:02:35.298Z</time></trkpt><trkpt lat="45.994448" lon="12.0334909"><ele>554.0</ele><time>2026-05-02T15:02:36.294Z</time></trkpt><trkpt lat="45.9944644" lon="12.0335887"><ele>547.5</ele><time>2026-05-02T15:02:37.301Z</time></trkpt><trkpt lat="45.9945064" lon="12.0337471"><ele>541.0</ele><time>2026-05-02T15:02:39.304Z</time></trkpt><trkpt lat="45.9945457" lon="12.0339058"><ele>541.0</ele><time>2026-05-02T15:02:41.3Z</time></trkpt><trkpt lat="45.9946108" lon="12.0340431"><ele>541.0</ele><time>2026-05-02T15:02:43.306Z</time></trkpt><trkpt lat="45.9946628" lon="12.0340964"><ele>541.0</ele><time>2026-05-02T15:02:44.31Z</time></trkpt><trkpt lat="45.9947608" lon="12.0341978"><ele>541.0</ele><time>2026-05-02T15:02:46.301Z</time></trkpt><trkpt lat="45.9948519" lon="12.034302"><ele>541.0</ele><time>2026-05-02T15:02:48.305Z</time></trkpt><trkpt lat="45.9949164" lon="12.0343429"><ele>541.0</ele><time>2026-05-02T15:02:49.297Z</time></trkpt><trkpt lat="45.9950237" lon="12.0344239"><ele>541.0</ele><time>2026-05-02T15:02:51.302Z</time></trkpt><trkpt lat="45.9951254" lon="12.0344736"><ele>541.0</ele><time>2026-05-02T15:02:53.295Z</time></trkpt><trkpt lat="45.9952211" lon="12.0345308"><ele>541.0</ele><time>2026-05-02T15:02:55.301Z</time></trkpt><trkpt lat="45.9953209" lon="12.0345625"><ele>541.0</ele><time>2026-05-02T15:02:57.296Z</time></trkpt><trkpt lat="45.9954133" lon="12.0345336"><ele>541.0</ele><time>2026-05-02T15:02:59.296Z</time></trkpt><trkpt lat="45.9954895" lon="12.0345402"><ele>541.0</ele><time>2026-05-02T15:03:01.292Z</time></trkpt><trkpt lat="45.9955585" lon="12.0345839"><ele>541.0</ele><time>2026-05-02T15:03:03.3Z</time></trkpt><trkpt lat="45.9956607" lon="12.0347205"><ele>541.0</ele><time>2026-05-02T15:04:30.299Z</time></trkpt><trkpt lat="45.9957666" lon="12.0348177"><ele>541.0</ele><time>2026-05-02T15:04:32.295Z</time></trkpt><trkpt lat="45.9958474" lon="12.0349346"><ele>538.0</ele><time>2026-05-02T15:04:34.293Z</time></trkpt><trkpt lat="45.9959494" lon="12.0350079"><ele>535.0</ele><time>2026-05-02T15:04:36.3Z</time></trkpt><trkpt lat="45.9960346" lon="12.0350981"><ele>532.0</ele><time>2026-05-02T15:04:38.302Z</time></trkpt><trkpt lat="45.996115" lon="12.0351725"><ele>529.0</ele><time>2026-05-02T15:04:40.301Z</time></trkpt><trkpt lat="45.9961297" lon="12.035276"><ele>526.0</ele><time>2026-05-02T15:04:42.301Z</time></trkpt><trkpt lat="45.9961028" lon="12.0353961"><ele>526.0</ele><time>2026-05-02T15:04:44.302Z</time></trkpt><trkpt lat="45.9960935" lon="12.035489"><ele>526.0</ele><time>2026-05-02T15:04:45.304Z</time></trkpt><trkpt lat="45.9961109" lon="12.0355804"><ele>526.0</ele><time>2026-05-02T15:04:46.294Z</time></trkpt><trkpt lat="45.9961268" lon="12.0356789"><ele>526.0</ele><time>2026-05-02T15:04:47.3Z</time></trkpt><trkpt lat="45.9961556" lon="12.0357875"><ele>526.0</ele><time>2026-05-02T15:04:48.308Z</time></trkpt><trkpt lat="45.9961813" lon="12.0358966"><ele>526.0</ele><time>2026-05-02T15:04:49.293Z</time></trkpt><trkpt lat="45.9962137" lon="12.0360218"><ele>529.6</ele><time>2026-05-02T15:04:50.294Z</time></trkpt><trkpt lat="45.9962374" lon="12.0361503"><ele>533.2</ele><time>2026-05-02T15:04:51.373Z</time></trkpt><trkpt lat="45.996268" lon="12.0362718"><ele>536.8</ele><time>2026-05-02T15:04:52.292Z</time></trkpt><trkpt lat="45.9963056" lon="12.0363803"><ele>540.4</ele><time>2026-05-02T15:04:53.293Z</time></trkpt><trkpt lat="45.9963441" lon="12.0364858"><ele>544.0</ele><time>2026-05-02T15:04:54.296Z</time></trkpt><trkpt lat="45.9964035" lon="12.0366217"><ele>545.6666666666667</ele><time>2026-05-02T15:04:56.295Z</time></trkpt><trkpt lat="45.9964517" lon="12.0366909"><ele>547.3333333333334</ele><time>2026-05-02T15:04:58.291Z</time></trkpt><trkpt lat="45.9964958" lon="12.0367674"><ele>549.0</ele><time>2026-05-02T15:05:22.294Z</time></trkpt><trkpt lat="45.9965423" lon="12.0368812"><ele>550.6666666666666</ele><time>2026-05-02T15:05:26.301Z</time></trkpt><trkpt lat="45.996548" lon="12.0370022"><ele>552.3333333333333</ele><time>2026-05-02T15:05:28.296Z</time></trkpt><trkpt lat="45.9965672" lon="12.0371608"><ele>554.0</ele><time>2026-05-02T15:05:30.289Z</time></trkpt><trkpt lat="45.9965869" lon="12.0372491"><ele>554.0</ele><time>2026-05-02T15:05:31.288Z</time></trkpt><trkpt lat="45.996616" lon="12.0373414"><ele>554.0</ele><time>2026-05-02T15:05:32.288Z</time></trkpt><trkpt lat="45.996654" lon="12.0374239"><ele>554.0</ele><time>2026-05-02T15:05:33.29Z</time></trkpt><trkpt lat="45.9966918" lon="12.037519"><ele>554.0</ele><time>2026-05-02T15:05:34.291Z</time></trkpt><trkpt lat="45.9967255" lon="12.0375976"><ele>554.0</ele><time>2026-05-02T15:05:35.295Z</time></trkpt><trkpt lat="45.9967745" lon="12.0377353"><ele>554.0</ele><time>2026-05-02T15:05:37.29Z</time></trkpt><trkpt lat="45.9967917" lon="12.0378424"><ele>553.6</ele><time>2026-05-02T15:05:39.292Z</time></trkpt><trkpt lat="45.9967372" lon="12.03792"><ele>553.2</ele><time>2026-05-02T15:05:41.291Z</time></trkpt><trkpt lat="45.9966268" lon="12.037934"><ele>552.8000000000001</ele><time>2026-05-02T15:05:43.293Z</time></trkpt><trkpt lat="45.9965201" lon="12.0379644"><ele>552.4</ele><time>2026-05-02T15:05:45.291Z</time></trkpt><trkpt lat="45.9964484" lon="12.0380612"><ele>552.0</ele><time>2026-05-02T15:05:47.292Z</time></trkpt><trkpt lat="45.9964505" lon="12.0382123"><ele>547.2</ele><time>2026-05-02T15:05:49.293Z</time></trkpt><trkpt lat="45.996485" lon="12.0383296"><ele>542.4000000000001</ele><time>2026-05-02T15:05:51.284Z</time></trkpt><trkpt lat="45.9964947" lon="12.0384556"><ele>537.5999999999999</ele><time>2026-05-02T15:05:54.286Z</time></trkpt><trkpt lat="45.9964292" lon="12.0385275"><ele>532.8</ele><time>2026-05-02T15:05:56.297Z</time></trkpt><trkpt lat="45.9963447" lon="12.0386381"><ele>528.0</ele><time>2026-05-02T15:05:58.293Z</time></trkpt><trkpt lat="45.9962963" lon="12.0387594"><ele>528.0</ele><time>2026-05-02T15:06:00.292Z</time></trkpt><trkpt lat="45.9962879" lon="12.0389087"><ele>528.0</ele><time>2026-05-02T15:06:02.293Z</time></trkpt><trkpt lat="45.9962731" lon="12.0390422"><ele>528.0</ele><time>2026-05-02T15:06:04.291Z</time></trkpt><trkpt lat="45.9961947" lon="12.0391248"><ele>528.0</ele><time>2026-05-02T15:06:06.293Z</time></trkpt><trkpt lat="45.9961355" lon="12.0392263"><ele>528.0</ele><time>2026-05-02T15:06:08.294Z</time></trkpt><trkpt lat="45.9961036" lon="12.0393813"><ele>525.1666666666666</ele><time>2026-05-02T15:06:10.299Z</time></trkpt><trkpt lat="45.9960844" lon="12.0394726"><ele>522.3333333333334</ele><time>2026-05-02T15:06:11.293Z</time></trkpt><trkpt lat="45.9960661" lon="12.0395765"><ele>519.5</ele><time>2026-05-02T15:06:12.292Z</time></trkpt><trkpt lat="45.9960132" lon="12.0397328"><ele>516.6666666666667</ele><time>2026-05-02T15:06:14.294Z</time></trkpt><trkpt lat="45.995981" lon="12.0398301"><ele>513.8333333333334</ele><time>2026-05-02T15:06:15.292Z</time></trkpt><trkpt lat="45.9959792" lon="12.0399397"><ele>511.0</ele><time>2026-05-02T15:06:16.292Z</time></trkpt><trkpt lat="45.9959614" lon="12.0400269"><ele>511.00000000000006</ele><time>2026-05-02T15:06:17.289Z</time></trkpt><trkpt lat="45.9959137" lon="12.0401404"><ele>511.0</ele><time>2026-05-02T15:06:19.298Z</time></trkpt><trkpt lat="45.9958387" lon="12.0402344"><ele>511.0</ele><time>2026-05-02T15:06:21.299Z</time></trkpt><trkpt lat="45.9958286" lon="12.0403448"><ele>511.0</ele><time>2026-05-02T15:06:23.294Z</time></trkpt><trkpt lat="45.9958807" lon="12.0404033"><ele>511.00000000000006</ele><time>2026-05-02T15:06:27.3Z</time></trkpt><trkpt lat="45.9959647" lon="12.0403667"><ele>511.0</ele><time>2026-05-02T15:06:32.292Z</time></trkpt><trkpt lat="45.9960418" lon="12.0402819"><ele>511.0</ele><time>2026-05-02T15:06:35.299Z</time></trkpt><trkpt lat="45.9960974" lon="12.0402243"><ele>511.0</ele><time>2026-05-02T15:06:37.3Z</time></trkpt><trkpt lat="45.9961734" lon="12.0401934"><ele>511.0</ele><time>2026-05-02T15:06:40.297Z</time></trkpt><trkpt lat="45.9962588" lon="12.0402093"><ele>511.0</ele><time>2026-05-02T15:06:43.299Z</time></trkpt><trkpt lat="45.9963252" lon="12.0402342"><ele>511.0</ele><time>2026-05-02T15:06:45.292Z</time></trkpt><trkpt lat="45.996381" lon="12.0401918"><ele>511.0</ele><time>2026-05-02T15:06:47.296Z</time></trkpt><trkpt lat="45.9964114" lon="12.040099"><ele>511.0</ele><time>2026-05-02T15:06:49.3Z</time></trkpt><trkpt lat="45.9964508" lon="12.0400005"><ele>509.6</ele><time>2026-05-02T15:06:51.391Z</time></trkpt><trkpt lat="45.9965058" lon="12.0399119"><ele>508.20000000000005</ele><time>2026-05-02T15:06:53.285Z</time></trkpt><trkpt lat="45.996572" lon="12.0397739"><ele>506.79999999999995</ele><time>2026-05-02T15:06:55.293Z</time></trkpt><trkpt lat="45.996642" lon="12.0396454"><ele>505.4</ele><time>2026-05-02T15:06:57.293Z</time></trkpt><trkpt lat="45.9967199" lon="12.0395205"><ele>504.0</ele><time>2026-05-02T15:06:59.292Z</time></trkpt><trkpt lat="45.9967796" lon="12.0394658"><ele>503.8571428571429</ele><time>2026-05-02T15:07:00.291Z</time></trkpt><trkpt lat="45.9968394" lon="12.0394183"><ele>503.7142857142857</ele><time>2026-05-02T15:07:01.291Z</time></trkpt><trkpt lat="45.9968954" lon="12.039372"><ele>503.57142857142856</ele><time>2026-05-02T15:07:02.294Z</time></trkpt><trkpt lat="45.9969689" lon="12.0393238"><ele>503.42857142857144</ele><time>2026-05-02T15:07:03.294Z</time></trkpt><trkpt lat="45.9970407" lon="12.0392806"><ele>503.28571428571433</ele><time>2026-05-02T15:07:04.293Z</time></trkpt><trkpt lat="45.9971142" lon="12.0392717"><ele>503.14285714285717</ele><time>2026-05-02T15:07:05.292Z</time></trkpt><trkpt lat="45.9971806" lon="12.0392625"><ele>503.0</ele><time>2026-05-02T15:07:06.293Z</time></trkpt><trkpt lat="45.9972432" lon="12.0392323"><ele>502.99999999999994</ele><time>2026-05-02T15:07:07.292Z</time></trkpt><trkpt lat="45.9973007" lon="12.0391854"><ele>503.0</ele><time>2026-05-02T15:07:08.293Z</time></trkpt><trkpt lat="45.9973477" lon="12.0391166"><ele>503.0</ele><time>2026-05-02T15:07:09.294Z</time></trkpt><trkpt lat="45.9973973" lon="12.039058"><ele>503.0</ele><time>2026-05-02T15:07:10.291Z</time></trkpt><trkpt lat="45.9974941" lon="12.0389545"><ele>502.99999999999994</ele><time>2026-05-02T15:07:12.292Z</time></trkpt><trkpt lat="45.9975539" lon="12.0389236"><ele>503.0</ele><time>2026-05-02T15:07:13.292Z</time></trkpt><trkpt lat="45.9976588" lon="12.0388988"><ele>500.16666666666663</ele><time>2026-05-02T15:07:15.297Z</time></trkpt><trkpt lat="45.9977682" lon="12.0389113"><ele>497.3333333333333</ele><time>2026-05-02T15:07:17.3Z</time></trkpt><trkpt lat="45.9978677" lon="12.0389207"><ele>494.5</ele><time>2026-05-02T15:07:19.299Z</time></trkpt><trkpt lat="45.9979409" lon="12.0389288"><ele>491.66666666666663</ele><time>2026-05-02T15:07:21.292Z</time></trkpt><trkpt lat="45.9980279" lon="12.0388997"><ele>488.8333333333333</ele><time>2026-05-02T15:07:23.296Z</time></trkpt><trkpt lat="45.9981003" lon="12.038907"><ele>486.0</ele><time>2026-05-02T15:07:25.293Z</time></trkpt><trkpt lat="45.9981863" lon="12.0389035"><ele>486.0</ele><time>2026-05-02T15:07:27.298Z</time></trkpt><trkpt lat="45.9982716" lon="12.0388679"><ele>486.0</ele><time>2026-05-02T15:07:30.294Z</time></trkpt><trkpt lat="45.9983296" lon="12.0388275"><ele>486.0</ele><time>2026-05-02T15:07:32.299Z</time></trkpt><trkpt lat="45.9983963" lon="12.0387715"><ele>486.0</ele><time>2026-05-02T15:07:35.3Z</time></trkpt><trkpt lat="45.9984568" lon="12.0387206"><ele>486.0</ele><time>2026-05-02T15:07:38.294Z</time></trkpt><trkpt lat="45.9985338" lon="12.0386712"><ele>486.0</ele><time>2026-05-02T15:07:41.303Z</time></trkpt><trkpt lat="45.9986115" lon="12.0386228"><ele>486.3333333333333</ele><time>2026-05-02T15:07:44.292Z</time></trkpt><trkpt lat="45.9986818" lon="12.0385795"><ele>486.66666666666663</ele><time>2026-05-02T15:07:47.289Z</time></trkpt><trkpt lat="45.9987562" lon="12.0385255"><ele>487.0</ele><time>2026-05-02T15:07:50.295Z</time></trkpt><trkpt lat="45.9988272" lon="12.0384814"><ele>487.3333333333333</ele><time>2026-05-02T15:07:53.295Z</time></trkpt><trkpt lat="45.9988953" lon="12.0384202"><ele>487.66666666666663</ele><time>2026-05-02T15:07:56.286Z</time></trkpt><trkpt lat="45.9989858" lon="12.0384101"><ele>488.0</ele><time>2026-05-02T15:07:59.295Z</time></trkpt><trkpt lat="45.9990712" lon="12.0384264"><ele>487.99999999999994</ele><time>2026-05-02T15:08:02.293Z</time></trkpt><trkpt lat="45.9991473" lon="12.0384743"><ele>488.0</ele><time>2026-05-02T15:08:05.303Z</time></trkpt><trkpt lat="45.9992272" lon="12.0385076"><ele>488.0</ele><time>2026-05-02T15:08:08.301Z</time></trkpt><trkpt lat="45.9992985" lon="12.0385336"><ele>488.0</ele><time>2026-05-02T15:08:11.302Z</time></trkpt><trkpt lat="45.9993797" lon="12.0385165"><ele>487.99999999999994</ele><time>2026-05-02T15:08:14.301Z</time></trkpt><trkpt lat="45.9994635" lon="12.0384981"><ele>488.0</ele><time>2026-05-02T15:08:17.288Z</time></trkpt><trkpt lat="45.9995476" lon="12.0384836"><ele>486.8333333333333</ele><time>2026-05-02T15:08:20.287Z</time></trkpt><trkpt lat="45.999615" lon="12.0384779"><ele>485.66666666666663</ele><time>2026-05-02T15:08:22.302Z</time></trkpt><trkpt lat="45.999697" lon="12.0385024"><ele>484.5</ele><time>2026-05-02T15:08:24.301Z</time></trkpt><trkpt lat="45.9997107" lon="12.0386298"><ele>483.33333333333337</ele><time>2026-05-02T15:08:27.305Z</time></trkpt><trkpt lat="45.9997357" lon="12.0387469"><ele>482.1666666666667</ele><time>2026-05-02T15:08:30.299Z</time></trkpt><trkpt lat="45.9997547" lon="12.0388628"><ele>481.0</ele><time>2026-05-02T15:08:33.304Z</time></trkpt><trkpt lat="45.9997982" lon="12.0389754"><ele>480.99999999999994</ele><time>2026-05-02T15:08:36.308Z</time></trkpt><trkpt lat="45.9998657" lon="12.0389861"><ele>481.0</ele><time>2026-05-02T15:08:38.303Z</time></trkpt><trkpt lat="45.9999287" lon="12.0389555"><ele>480.99999999999994</ele><time>2026-05-02T15:08:40.298Z</time></trkpt><trkpt lat="46.0000112" lon="12.0388905"><ele>480.99999999999994</ele><time>2026-05-02T15:08:43.303Z</time></trkpt><trkpt lat="46.0000761" lon="12.0388494"><ele>481.0</ele><time>2026-05-02T15:08:45.303Z</time></trkpt><trkpt lat="46.0001476" lon="12.0388194"><ele>480.99999999999994</ele><time>2026-05-02T15:08:47.299Z</time></trkpt><trkpt lat="46.0002149" lon="12.0387883"><ele>480.99999999999994</ele><time>2026-05-02T15:08:49.306Z</time></trkpt><trkpt lat="46.0002843" lon="12.0387555"><ele>480.99999999999994</ele><time>2026-05-02T15:08:51.306Z</time></trkpt><trkpt lat="46.0003601" lon="12.0387318"><ele>481.0</ele><time>2026-05-02T15:08:53.301Z</time></trkpt><trkpt lat="46.0004233" lon="12.0386836"><ele>480.99999999999994</ele><time>2026-05-02T15:08:55.303Z</time></trkpt><trkpt lat="46.0004862" lon="12.0386072"><ele>480.99999999999994</ele><time>2026-05-02T15:08:57.303Z</time></trkpt><trkpt lat="46.000544" lon="12.0385656"><ele>481.0</ele><time>2026-05-02T15:08:59.303Z</time></trkpt><trkpt lat="46.0006086" lon="12.0385794"><ele>480.99999999999994</ele><time>2026-05-02T15:09:01.3Z</time></trkpt><trkpt lat="46.0006692" lon="12.0386338"><ele>480.99999999999994</ele><time>2026-05-02T15:09:03.303Z</time></trkpt><trkpt lat="46.0007231" lon="12.0387244"><ele>481.00000000000006</ele><time>2026-05-02T15:09:05.301Z</time></trkpt><trkpt lat="46.000749" lon="12.0388179"><ele>481.0</ele><time>2026-05-02T15:09:07.302Z</time></trkpt><trkpt lat="46.0007726" lon="12.0389167"><ele>481.0</ele><time>2026-05-02T15:09:09.301Z</time></trkpt><trkpt lat="46.0008126" lon="12.0390139"><ele>481.0</ele><time>2026-05-02T15:09:11.301Z</time></trkpt><trkpt lat="46.0008737" lon="12.039082"><ele>481.00000000000006</ele><time>2026-05-02T15:09:13.303Z</time></trkpt><trkpt lat="46.0009449" lon="12.0391322"><ele>481.0</ele><time>2026-05-02T15:09:15.3Z</time></trkpt><trkpt lat="46.0010206" lon="12.0391546"><ele>480.99999999999994</ele><time>2026-05-02T15:09:17.302Z</time></trkpt><trkpt lat="46.0010829" lon="12.0391204"><ele>481.0</ele><time>2026-05-02T15:09:19.292Z</time></trkpt><trkpt lat="46.0011449" lon="12.0390932"><ele>480.99999999999994</ele><time>2026-05-02T15:09:21.287Z</time></trkpt><trkpt lat="46.0012095" lon="12.0391119"><ele>480.99999999999994</ele><time>2026-05-02T15:09:23.301Z</time></trkpt><trkpt lat="46.0012698" lon="12.0391677"><ele>481.0</ele><time>2026-05-02T15:09:25.304Z</time></trkpt><trkpt lat="46.0013363" lon="12.0392097"><ele>480.99999999999994</ele><time>2026-05-02T15:09:27.303Z</time></trkpt><trkpt lat="46.0014091" lon="12.0392232"><ele>480.99999999999994</ele><time>2026-05-02T15:09:29.299Z</time></trkpt><trkpt lat="46.0014851" lon="12.0391917"><ele>480.99999999999994</ele><time>2026-05-02T15:09:31.293Z</time></trkpt><trkpt lat="46.0015383" lon="12.0391296"><ele>481.0</ele><time>2026-05-02T15:09:33.303Z</time></trkpt><trkpt lat="46.0015965" lon="12.0390814"><ele>480.99999999999994</ele><time>2026-05-02T15:09:35.302Z</time></trkpt><trkpt lat="46.0016845" lon="12.0390564"><ele>480.99999999999994</ele><time>2026-05-02T15:09:38.301Z</time></trkpt><trkpt lat="46.0017462" lon="12.0390826"><ele>481.0</ele><time>2026-05-02T15:09:40.304Z</time></trkpt><trkpt lat="46.0018127" lon="12.039121"><ele>480.99999999999994</ele><time>2026-05-02T15:09:42.304Z</time></trkpt><trkpt lat="46.0018754" lon="12.0392018"><ele>480.99999999999994</ele><time>2026-05-02T15:09:45.302Z</time></trkpt><trkpt lat="46.0019199" lon="12.039309"><ele>484.99999999999994</ele><time>2026-05-02T15:09:48.302Z</time></trkpt><trkpt lat="46.0019439" lon="12.0394072"><ele>489.0</ele><time>2026-05-02T15:09:51.303Z</time></trkpt><trkpt lat="46.0019677" lon="12.039529"><ele>492.99999999999994</ele><time>2026-05-02T15:09:54.301Z</time></trkpt><trkpt lat="46.0020182" lon="12.0395887"><ele>496.99999999999994</ele><time>2026-05-02T15:09:56.299Z</time></trkpt><trkpt lat="46.0020857" lon="12.0396109"><ele>501.0</ele><time>2026-05-02T15:09:58.303Z</time></trkpt><trkpt lat="46.0021528" lon="12.0396059"><ele>504.99999999999994</ele><time>2026-05-02T15:10:00.301Z</time></trkpt><trkpt lat="46.0022148" lon="12.0395882"><ele>508.99999999999994</ele><time>2026-05-02T15:10:02.289Z</time></trkpt><trkpt lat="46.0023031" lon="12.0395529"><ele>508.99999999999994</ele><time>2026-05-02T15:10:05.303Z</time></trkpt><trkpt lat="46.0023667" lon="12.0395346"><ele>509.0</ele><time>2026-05-02T15:10:07.304Z</time></trkpt><trkpt lat="46.0024515" lon="12.0395155"><ele>509.0</ele><time>2026-05-02T15:10:10.297Z</time></trkpt><trkpt lat="46.0025448" lon="12.0395058"><ele>509.0</ele><time>2026-05-02T15:10:13.303Z</time></trkpt><trkpt lat="46.0026095" lon="12.0395032"><ele>508.99999999999994</ele><time>2026-05-02T15:10:15.306Z</time></trkpt><trkpt lat="46.0026983" lon="12.0395025"><ele>509.0</ele><time>2026-05-02T15:10:18.298Z</time></trkpt><trkpt lat="46.0027843" lon="12.0394964"><ele>508.16666666666663</ele><time>2026-05-02T15:10:21.302Z</time></trkpt><trkpt lat="46.0028692" lon="12.0395031"><ele>507.3333333333333</ele><time>2026-05-02T15:10:24.299Z</time></trkpt><trkpt lat="46.0029437" lon="12.0395388"><ele>506.5</ele><time>2026-05-02T15:10:27.299Z</time></trkpt><trkpt lat="46.0029979" lon="12.0395865"><ele>505.66666666666663</ele><time>2026-05-02T15:10:29.3Z</time></trkpt><trkpt lat="46.0030503" lon="12.0396407"><ele>504.8333333333333</ele><time>2026-05-02T15:10:31.301Z</time></trkpt><trkpt lat="46.0031043" lon="12.0396969"><ele>504.0</ele><time>2026-05-02T15:10:33.301Z</time></trkpt><trkpt lat="46.0031735" lon="12.0397986"><ele>504.0</ele><time>2026-05-02T15:10:36.303Z</time></trkpt><trkpt lat="46.0032339" lon="12.039851"><ele>504.0</ele><time>2026-05-02T15:10:38.29Z</time></trkpt><trkpt lat="46.0032868" lon="12.0399045"><ele>504.0</ele><time>2026-05-02T15:10:40.302Z</time></trkpt><trkpt lat="46.0033525" lon="12.0399832"><ele>504.0</ele><time>2026-05-02T15:10:43.304Z</time></trkpt><trkpt lat="46.0034201" lon="12.040025"><ele>504.0</ele><time>2026-05-02T15:10:45.304Z</time></trkpt><trkpt lat="46.0034929" lon="12.0400798"><ele>504.0</ele><time>2026-05-02T15:10:47.301Z</time></trkpt><trkpt lat="46.0035664" lon="12.0401141"><ele>507.8571428571429</ele><time>2026-05-02T15:10:49.302Z</time></trkpt><trkpt lat="46.0036307" lon="12.0401463"><ele>511.7142857142857</ele><time>2026-05-02T15:10:51.3Z</time></trkpt><trkpt lat="46.0036863" lon="12.0401908"><ele>515.5714285714286</ele><time>2026-05-02T15:10:53.302Z</time></trkpt><trkpt lat="46.0037449" lon="12.0402381"><ele>519.4285714285714</ele><time>2026-05-02T15:10:55.3Z</time></trkpt><trkpt lat="46.0038026" lon="12.0402796"><ele>523.2857142857143</ele><time>2026-05-02T15:10:57.3Z</time></trkpt><trkpt lat="46.0038705" lon="12.0403177"><ele>527.1428571428571</ele><time>2026-05-02T15:10:59.288Z</time></trkpt><trkpt lat="46.0039383" lon="12.0403487"><ele>531.0</ele><time>2026-05-02T15:11:01.305Z</time></trkpt><trkpt lat="46.0040025" lon="12.0403873"><ele>531.0</ele><time>2026-05-02T15:11:03.304Z</time></trkpt><trkpt lat="46.0040668" lon="12.0404226"><ele>531.0</ele><time>2026-05-02T15:11:05.299Z</time></trkpt><trkpt lat="46.0041252" lon="12.0404611"><ele>531.0</ele><time>2026-05-02T15:11:07.299Z</time></trkpt><trkpt lat="46.0041873" lon="12.0404973"><ele>531.0</ele><time>2026-05-02T15:11:09.302Z</time></trkpt><trkpt lat="46.0042487" lon="12.040523"><ele>531.0</ele><time>2026-05-02T15:11:11.303Z</time></trkpt><trkpt lat="46.0043284" lon="12.0405256"><ele>531.0</ele><time>2026-05-02T15:11:13.299Z</time></trkpt><trkpt lat="46.0044049" lon="12.0405125"><ele>531.0</ele><time>2026-05-02T15:11:15.297Z</time></trkpt><trkpt lat="46.0044905" lon="12.0405193"><ele>527.1666666666666</ele><time>2026-05-02T15:11:18.302Z</time></trkpt><trkpt lat="46.0045549" lon="12.0405143"><ele>523.3333333333334</ele><time>2026-05-02T15:11:19.303Z</time></trkpt><trkpt lat="46.0046209" lon="12.040503"><ele>519.5</ele><time>2026-05-02T15:11:21.3Z</time></trkpt><trkpt lat="46.0047174" lon="12.0404992"><ele>515.6666666666667</ele><time>2026-05-02T15:11:24.301Z</time></trkpt><trkpt lat="46.0048015" lon="12.0405151"><ele>511.83333333333337</ele><time>2026-05-02T15:11:27.302Z</time></trkpt><trkpt lat="46.0048701" lon="12.0405296"><ele>508.0</ele><time>2026-05-02T15:11:29.301Z</time></trkpt><trkpt lat="46.0049529" lon="12.0405788"><ele>505.83333333333337</ele><time>2026-05-02T15:11:32.3Z</time></trkpt><trkpt lat="46.0050136" lon="12.040623"><ele>503.6666666666667</ele><time>2026-05-02T15:11:34.3Z</time></trkpt><trkpt lat="46.0050784" lon="12.0407032"><ele>501.5</ele><time>2026-05-02T15:11:37.295Z</time></trkpt><trkpt lat="46.0051211" lon="12.0407837"><ele>499.33333333333337</ele><time>2026-05-02T15:11:39.287Z</time></trkpt><trkpt lat="46.0051551" lon="12.0408799"><ele>497.1666666666667</ele><time>2026-05-02T15:11:41.29Z</time></trkpt><trkpt lat="46.0051721" lon="12.0409876"><ele>495.0</ele><time>2026-05-02T15:11:43.291Z</time></trkpt><trkpt lat="46.0051586" lon="12.0410978"><ele>500.1428571428571</ele><time>2026-05-02T15:11:45.29Z</time></trkpt><trkpt lat="46.0051516" lon="12.0412036"><ele>505.2857142857143</ele><time>2026-05-02T15:11:47.29Z</time></trkpt><trkpt lat="46.0051399" lon="12.0413088"><ele>510.42857142857144</ele><time>2026-05-02T15:11:49.289Z</time></trkpt><trkpt lat="46.0051273" lon="12.0414088"><ele>515.5714285714286</ele><time>2026-05-02T15:11:51.292Z</time></trkpt><trkpt lat="46.0051116" lon="12.0415195"><ele>520.7142857142858</ele><time>2026-05-02T15:11:53.293Z</time></trkpt><trkpt lat="46.0050853" lon="12.0416217"><ele>525.8571428571429</ele><time>2026-05-02T15:11:55.291Z</time></trkpt><trkpt lat="46.0050471" lon="12.0417123"><ele>531.0</ele><time>2026-05-02T15:11:57.293Z</time></trkpt><trkpt lat="46.0050392" lon="12.0418065"><ele>535.6666666666666</ele><time>2026-05-02T15:11:59.294Z</time></trkpt><trkpt lat="46.0051175" lon="12.0417792"><ele>540.3333333333334</ele><time>2026-05-02T15:12:08.292Z</time></trkpt><trkpt lat="46.0051975" lon="12.0417721"><ele>545.0</ele><time>2026-05-02T15:12:18.291Z</time></trkpt><trkpt lat="46.0052852" lon="12.0417589"><ele>549.6666666666667</ele><time>2026-05-02T15:12:21.301Z</time></trkpt><trkpt lat="46.0053635" lon="12.0417366"><ele>554.3333333333334</ele><time>2026-05-02T15:12:24.3Z</time></trkpt><trkpt lat="46.0054381" lon="12.0417442"><ele>559.0</ele><time>2026-05-02T15:12:27.3Z</time></trkpt><trkpt lat="46.0055243" lon="12.0417286"><ele>559.0</ele><time>2026-05-02T15:12:30.3Z</time></trkpt><trkpt lat="46.0055902" lon="12.0417248"><ele>559.0</ele><time>2026-05-02T15:12:32.299Z</time></trkpt><trkpt lat="46.0056819" lon="12.0417212"><ele>559.0</ele><time>2026-05-02T15:12:35.301Z</time></trkpt><trkpt lat="46.0057697" lon="12.0417195"><ele>559.0</ele><time>2026-05-02T15:12:38.303Z</time></trkpt><trkpt lat="46.0058468" lon="12.0417145"><ele>559.0</ele><time>2026-05-02T15:12:41.303Z</time></trkpt><trkpt lat="46.005915" lon="12.0417192"><ele>559.0</ele><time>2026-05-02T15:12:44.302Z</time></trkpt><trkpt lat="46.0059909" lon="12.0417121"><ele>556.4285714285714</ele><time>2026-05-02T15:12:47.288Z</time></trkpt><trkpt lat="46.0060692" lon="12.0416792"><ele>553.8571428571429</ele><time>2026-05-02T15:12:50.303Z</time></trkpt><trkpt lat="46.0061368" lon="12.0416466"><ele>551.2857142857143</ele><time>2026-05-02T15:12:54.305Z</time></trkpt><trkpt lat="46.0062141" lon="12.0416301"><ele>548.7142857142858</ele><time>2026-05-02T15:12:57.287Z</time></trkpt><trkpt lat="46.0062862" lon="12.0416231"><ele>546.1428571428571</ele><time>2026-05-02T15:13:00.289Z</time></trkpt><trkpt lat="46.0063598" lon="12.0416314"><ele>543.5714285714287</ele><time>2026-05-02T15:13:04.302Z</time></trkpt><trkpt lat="46.0064251" lon="12.0416507"><ele>541.0</ele><time>2026-05-02T15:13:07.293Z</time></trkpt><trkpt lat="46.0064921" lon="12.0416693"><ele>541.0</ele><time>2026-05-02T15:13:10.293Z</time></trkpt><trkpt lat="46.0065703" lon="12.041699"><ele>541.0</ele><time>2026-05-02T15:13:15.303Z</time></trkpt><trkpt lat="46.0066373" lon="12.041739"><ele>541.0</ele><time>2026-05-02T15:13:18.292Z</time></trkpt><trkpt lat="46.0066997" lon="12.0417784"><ele>541.0</ele><time>2026-05-02T15:13:20.302Z</time></trkpt><trkpt lat="46.0067656" lon="12.0418356"><ele>541.0</ele><time>2026-05-02T15:13:22.304Z</time></trkpt><trkpt lat="46.0068418" lon="12.0419154"><ele>541.0</ele><time>2026-05-02T15:13:24.3Z</time></trkpt><trkpt lat="46.0069385" lon="12.0420012"><ele>539.2</ele><time>2026-05-02T15:13:26.289Z</time></trkpt><trkpt lat="46.0070362" lon="12.0420846"><ele>537.4000000000001</ele><time>2026-05-02T15:13:28.291Z</time></trkpt><trkpt lat="46.0071413" lon="12.0421641"><ele>535.6</ele><time>2026-05-02T15:13:30.301Z</time></trkpt><trkpt lat="46.0072342" lon="12.0422774"><ele>533.8000000000001</ele><time>2026-05-02T15:13:32.294Z</time></trkpt><trkpt lat="46.0072812" lon="12.042341"><ele>532.0</ele><time>2026-05-02T15:13:33.297Z</time></trkpt><trkpt lat="46.0073373" lon="12.0424778"><ele>536.5</ele><time>2026-05-02T15:13:35.296Z</time></trkpt><trkpt lat="46.0073304" lon="12.0426363"><ele>541.0</ele><time>2026-05-02T15:13:37.302Z</time></trkpt><trkpt lat="46.0073121" lon="12.0427966"><ele>545.5</ele><time>2026-05-02T15:13:39.292Z</time></trkpt><trkpt lat="46.0072777" lon="12.042971"><ele>550.0</ele><time>2026-05-02T15:13:41.303Z</time></trkpt><trkpt lat="46.0072595" lon="12.0431348"><ele>550.0</ele><time>2026-05-02T15:13:43.3Z</time></trkpt><trkpt lat="46.0073102" lon="12.0432417"><ele>550.0</ele><time>2026-05-02T15:13:45.301Z</time></trkpt><trkpt lat="46.0073743" lon="12.0432769"><ele>550.0</ele><time>2026-05-02T15:13:47.294Z</time></trkpt><trkpt lat="46.0074445" lon="12.0433178"><ele>550.0</ele><time>2026-05-02T15:13:49.3Z</time></trkpt><trkpt lat="46.0074984" lon="12.0434102"><ele>550.0</ele><time>2026-05-02T15:13:51.299Z</time></trkpt><trkpt lat="46.0075546" lon="12.0435101"><ele>550.0</ele><time>2026-05-02T15:13:53.301Z</time></trkpt><trkpt lat="46.0076098" lon="12.0436144"><ele>548.8333333333334</ele><time>2026-05-02T15:13:55.306Z</time></trkpt><trkpt lat="46.0076526" lon="12.0437198"><ele>547.6666666666667</ele><time>2026-05-02T15:13:57.292Z</time></trkpt><trkpt lat="46.0076788" lon="12.0438194"><ele>546.5</ele><time>2026-05-02T15:13:59.296Z</time></trkpt><trkpt lat="46.0077059" lon="12.0439098"><ele>545.3333333333334</ele><time>2026-05-02T15:14:01.298Z</time></trkpt><trkpt lat="46.0077578" lon="12.0440094"><ele>544.1666666666666</ele><time>2026-05-02T15:14:04.296Z</time></trkpt><trkpt lat="46.0077957" lon="12.0441026"><ele>543.0</ele><time>2026-05-02T15:14:07.292Z</time></trkpt><trkpt lat="46.0078132" lon="12.0441929"><ele>543.0</ele><time>2026-05-02T15:14:10.294Z</time></trkpt><trkpt lat="46.0078405" lon="12.044289"><ele>543.0</ele><time>2026-05-02T15:14:13.295Z</time></trkpt><trkpt lat="46.007865" lon="12.0444"><ele>543.0</ele><time>2026-05-02T15:14:16.297Z</time></trkpt><trkpt lat="46.0078531" lon="12.0445133"><ele>543.0</ele><time>2026-05-02T15:14:20.297Z</time></trkpt><trkpt lat="46.0078165" lon="12.0446016"><ele>543.0</ele><time>2026-05-02T15:14:23.296Z</time></trkpt><trkpt lat="46.0077662" lon="12.0446931"><ele>543.0</ele><time>2026-05-02T15:14:26.298Z</time></trkpt><trkpt lat="46.0077376" lon="12.0447806"><ele>543.0</ele><time>2026-05-02T15:14:28.291Z</time></trkpt><trkpt lat="46.0077168" lon="12.0448677"><ele>543.0</ele><time>2026-05-02T15:14:30.294Z</time></trkpt><trkpt lat="46.0077119" lon="12.0449686"><ele>543.0</ele><time>2026-05-02T15:14:32.297Z</time></trkpt><trkpt lat="46.0077328" lon="12.0450762"><ele>543.0</ele><time>2026-05-02T15:14:34.293Z</time></trkpt><trkpt lat="46.0077683" lon="12.0451726"><ele>543.0</ele><time>2026-05-02T15:14:36.292Z</time></trkpt><trkpt lat="46.0078174" lon="12.0452552"><ele>543.0</ele><time>2026-05-02T15:14:38.291Z</time></trkpt><trkpt lat="46.007866" lon="12.0453293"><ele>543.0</ele><time>2026-05-02T15:14:40.292Z</time></trkpt><trkpt lat="46.0079168" lon="12.0453958"><ele>544.0</ele><time>2026-05-02T15:14:42.296Z</time></trkpt><trkpt lat="46.0079798" lon="12.0454759"><ele>545.0</ele><time>2026-05-02T15:14:45.295Z</time></trkpt><trkpt lat="46.0080367" lon="12.0455575"><ele>546.0</ele><time>2026-05-02T15:14:48.29Z</time></trkpt><trkpt lat="46.0081038" lon="12.0456621"><ele>547.0</ele><time>2026-05-02T15:14:51.346Z</time></trkpt><trkpt lat="46.0081647" lon="12.0457452"><ele>548.0</ele><time>2026-05-02T15:14:53.29Z</time></trkpt><trkpt lat="46.008216" lon="12.0458483"><ele>549.0</ele><time>2026-05-02T15:14:55.3Z</time></trkpt><trkpt lat="46.0082161" lon="12.0459835"><ele>550.6</ele><time>2026-05-02T15:14:57.293Z</time></trkpt><trkpt lat="46.0081943" lon="12.0461427"><ele>552.2</ele><time>2026-05-02T15:14:59.303Z</time></trkpt><trkpt lat="46.0081833" lon="12.0462334"><ele>553.8000000000001</ele><time>2026-05-02T15:15:00.288Z</time></trkpt><trkpt lat="46.0081899" lon="12.0463384"><ele>555.4</ele><time>2026-05-02T15:15:01.289Z</time></trkpt><trkpt lat="46.0081906" lon="12.0464414"><ele>557.0</ele><time>2026-05-02T15:15:02.289Z</time></trkpt><trkpt lat="46.0081682" lon="12.046625"><ele>558.5</ele><time>2026-05-02T15:15:04.295Z</time></trkpt><trkpt lat="46.0081402" lon="12.0467157"><ele>560.0</ele><time>2026-05-02T15:15:05.298Z</time></trkpt><trkpt lat="46.0081123" lon="12.0468266"><ele>561.5</ele><time>2026-05-02T15:15:06.291Z</time></trkpt><trkpt lat="46.0080701" lon="12.0469965"><ele>563.0</ele><time>2026-05-02T15:15:08.293Z</time></trkpt><trkpt lat="46.0080228" lon="12.0470694"><ele>564.5</ele><time>2026-05-02T15:15:09.292Z</time></trkpt><trkpt lat="46.0079794" lon="12.0472035"><ele>566.0</ele><time>2026-05-02T15:15:11.29Z</time></trkpt><trkpt lat="46.0079892" lon="12.0473652"><ele>566.0</ele><time>2026-05-02T15:15:13.304Z</time></trkpt><trkpt lat="46.0080655" lon="12.0474011"><ele>566.0</ele><time>2026-05-02T15:15:15.294Z</time></trkpt><trkpt lat="46.0081305" lon="12.0474253"><ele>566.0</ele><time>2026-05-02T15:15:17.296Z</time></trkpt><trkpt lat="46.008195" lon="12.0474471"><ele>566.0</ele><time>2026-05-02T15:15:19.294Z</time></trkpt><trkpt lat="46.0082599" lon="12.0474631"><ele>566.0</ele><time>2026-05-02T15:15:21.297Z</time></trkpt><trkpt lat="46.0083443" lon="12.047484"><ele>566.0</ele><time>2026-05-02T15:15:24.295Z</time></trkpt><trkpt lat="46.0084275" lon="12.0474954"><ele>566.0</ele><time>2026-05-02T15:15:27.294Z</time></trkpt><trkpt lat="46.008505" lon="12.0475166"><ele>560.5</ele><time>2026-05-02T15:15:30.292Z</time></trkpt><trkpt lat="46.0085752" lon="12.0475368"><ele>555.0</ele><time>2026-05-02T15:15:33.292Z</time></trkpt><trkpt lat="46.0086574" lon="12.0475697"><ele>549.5</ele><time>2026-05-02T15:15:36.298Z</time></trkpt><trkpt lat="46.0087303" lon="12.047602"><ele>544.0</ele><time>2026-05-02T15:15:39.299Z</time></trkpt><trkpt lat="46.0088069" lon="12.0476527"><ele>538.5</ele><time>2026-05-02T15:15:42.295Z</time></trkpt><trkpt lat="46.0088746" lon="12.0477263"><ele>533.0</ele><time>2026-05-02T15:15:45.296Z</time></trkpt><trkpt lat="46.0089378" lon="12.0478103"><ele>533.0</ele><time>2026-05-02T15:15:48.291Z</time></trkpt><trkpt lat="46.0089796" lon="12.047896"><ele>533.0</ele><time>2026-05-02T15:15:51.297Z</time></trkpt><trkpt lat="46.0090176" lon="12.0479844"><ele>533.0</ele><time>2026-05-02T15:15:54.292Z</time></trkpt><trkpt lat="46.0090537" lon="12.0480774"><ele>533.0</ele><time>2026-05-02T15:15:57.293Z</time></trkpt><trkpt lat="46.0090853" lon="12.0481707"><ele>533.0</ele><time>2026-05-02T15:16:00.292Z</time></trkpt><trkpt lat="46.0091135" lon="12.0482724"><ele>533.0</ele><time>2026-05-02T15:16:03.293Z</time></trkpt><trkpt lat="46.0091407" lon="12.0483722"><ele>533.0</ele><time>2026-05-02T15:16:06.292Z</time></trkpt><trkpt lat="46.0091494" lon="12.0484917"><ele>532.6666666666666</ele><time>2026-05-02T15:16:09.296Z</time></trkpt><trkpt lat="46.0091566" lon="12.0486162"><ele>532.3333333333333</ele><time>2026-05-02T15:16:12.293Z</time></trkpt><trkpt lat="46.0091466" lon="12.0487342"><ele>532.0</ele><time>2026-05-02T15:16:15.292Z</time></trkpt><trkpt lat="46.0091327" lon="12.0488409"><ele>531.6666666666666</ele><time>2026-05-02T15:16:18.291Z</time></trkpt><trkpt lat="46.0090868" lon="12.0489188"><ele>531.3333333333334</ele><time>2026-05-02T15:17:40.295Z</time></trkpt><trkpt lat="46.0091217" lon="12.0490195"><ele>531.0</ele><time>2026-05-02T15:17:43.301Z</time></trkpt><trkpt lat="46.0091628" lon="12.0491257"><ele>532.6</ele><time>2026-05-02T15:17:46.301Z</time></trkpt><trkpt lat="46.009222" lon="12.0492252"><ele>534.2</ele><time>2026-05-02T15:17:48.302Z</time></trkpt><trkpt lat="46.0092805" lon="12.049313"><ele>535.8</ele><time>2026-05-02T15:17:50.293Z</time></trkpt><trkpt lat="46.0093465" lon="12.049408"><ele>537.4</ele><time>2026-05-02T15:17:52.306Z</time></trkpt><trkpt lat="46.00943" lon="12.0495012"><ele>539.0</ele><time>2026-05-02T15:17:54.295Z</time></trkpt><trkpt lat="46.0095154" lon="12.0495989"><ele>539.0</ele><time>2026-05-02T15:17:56.3Z</time></trkpt><trkpt lat="46.0096116" lon="12.0497154"><ele>539.0</ele><time>2026-05-02T15:17:58.294Z</time></trkpt><trkpt lat="46.0096621" lon="12.0497768"><ele>539.0</ele><time>2026-05-02T15:17:59.302Z</time></trkpt><trkpt lat="46.0097136" lon="12.049837"><ele>539.0</ele><time>2026-05-02T15:18:00.301Z</time></trkpt><trkpt lat="46.0097659" lon="12.0498979"><ele>539.0</ele><time>2026-05-02T15:18:01.301Z</time></trkpt><trkpt lat="46.0098167" lon="12.0499536"><ele>539.0</ele><time>2026-05-02T15:18:02.298Z</time></trkpt><trkpt lat="46.0098675" lon="12.0500125"><ele>541.7142857142857</ele><time>2026-05-02T15:18:03.295Z</time></trkpt><trkpt lat="46.0099192" lon="12.0500738"><ele>544.4285714285714</ele><time>2026-05-02T15:18:04.305Z</time></trkpt><trkpt lat="46.0099707" lon="12.0501406"><ele>547.1428571428571</ele><time>2026-05-02T15:18:05.302Z</time></trkpt><trkpt lat="46.0100321" lon="12.0501939"><ele>549.8571428571429</ele><time>2026-05-02T15:18:06.301Z</time></trkpt><trkpt lat="46.0100882" lon="12.0502541"><ele>552.5714285714286</ele><time>2026-05-02T15:18:07.302Z</time></trkpt><trkpt lat="46.010153" lon="12.0503154"><ele>555.2857142857142</ele><time>2026-05-02T15:18:08.304Z</time></trkpt><trkpt lat="46.0102154" lon="12.0503824"><ele>558.0</ele><time>2026-05-02T15:18:09.302Z</time></trkpt><trkpt lat="46.0102762" lon="12.0504318"><ele>550.1999999999999</ele><time>2026-05-02T15:18:10.296Z</time></trkpt><trkpt lat="46.0103818" lon="12.0505159"><ele>542.4</ele><time>2026-05-02T15:18:12.301Z</time></trkpt><trkpt lat="46.010486" lon="12.0505894"><ele>534.5999999999999</ele><time>2026-05-02T15:18:14.3Z</time></trkpt><trkpt lat="46.010588" lon="12.0506534"><ele>526.8</ele><time>2026-05-02T15:18:16.3Z</time></trkpt><trkpt lat="46.0106516" lon="12.050675"><ele>519.0</ele><time>2026-05-02T15:18:17.294Z</time></trkpt><trkpt lat="46.0107161" lon="12.0506959"><ele>519.0</ele><time>2026-05-02T15:18:18.296Z</time></trkpt><trkpt lat="46.010784" lon="12.0507185"><ele>519.0</ele><time>2026-05-02T15:18:19.301Z</time></trkpt><trkpt lat="46.0108544" lon="12.0507358"><ele>519.0</ele><time>2026-05-02T15:18:20.301Z</time></trkpt><trkpt lat="46.0109188" lon="12.0507493"><ele>519.0</ele><time>2026-05-02T15:18:21.302Z</time></trkpt><trkpt lat="46.0110354" lon="12.0507852"><ele>519.0</ele><time>2026-05-02T15:18:23.302Z</time></trkpt><trkpt lat="46.011109" lon="12.0508172"><ele>519.0</ele><time>2026-05-02T15:18:25.291Z</time></trkpt><trkpt lat="46.0111087" lon="12.0509163"><ele>518.4285714285714</ele><time>2026-05-02T15:18:47.304Z</time></trkpt><trkpt lat="46.0110601" lon="12.0510088"><ele>517.8571428571428</ele><time>2026-05-02T15:18:50.296Z</time></trkpt><trkpt lat="46.0110448" lon="12.0511252"><ele>517.2857142857142</ele><time>2026-05-02T15:18:53.29Z</time></trkpt><trkpt lat="46.0110501" lon="12.0512266"><ele>516.7142857142857</ele><time>2026-05-02T15:18:58.293Z</time></trkpt><trkpt lat="46.0110306" lon="12.0513247"><ele>516.1428571428571</ele><time>2026-05-02T15:19:01.289Z</time></trkpt><trkpt lat="46.0110264" lon="12.0514178"><ele>515.5714285714286</ele><time>2026-05-02T15:19:04.292Z</time></trkpt><trkpt lat="46.0110146" lon="12.0513145"><ele>515.0</ele><time>2026-05-02T15:19:34.289Z</time></trkpt><trkpt lat="46.0110238" lon="12.0511961"><ele>515.0</ele><time>2026-05-02T15:19:36.29Z</time></trkpt><trkpt lat="46.0110318" lon="12.0510463"><ele>515.0</ele><time>2026-05-02T15:19:38.29Z</time></trkpt><trkpt lat="46.0110829" lon="12.050909"><ele>515.0</ele><time>2026-05-02T15:19:40.297Z</time></trkpt><trkpt lat="46.0111869" lon="12.0508456"><ele>515.0</ele><time>2026-05-02T15:19:42.299Z</time></trkpt><trkpt lat="46.0112523" lon="12.0508363"><ele>515.0</ele><time>2026-05-02T15:19:43.3Z</time></trkpt><trkpt lat="46.0113216" lon="12.0508401"><ele>515.0</ele><time>2026-05-02T15:19:44.301Z</time></trkpt><trkpt lat="46.0113919" lon="12.0508444"><ele>515.0</ele><time>2026-05-02T15:19:45.302Z</time></trkpt><trkpt lat="46.0114669" lon="12.0508483"><ele>515.0</ele><time>2026-05-02T15:19:46.305Z</time></trkpt><trkpt lat="46.0115426" lon="12.0508445"><ele>515.0</ele><time>2026-05-02T15:19:47.299Z</time></trkpt><trkpt lat="46.0116129" lon="12.0508484"><ele>515.0</ele><time>2026-05-02T15:19:48.302Z</time></trkpt><trkpt lat="46.0116825" lon="12.0508686"><ele>515.0</ele><time>2026-05-02T15:19:49.29Z</time></trkpt><trkpt lat="46.0117497" lon="12.0508956"><ele>515.0</ele><time>2026-05-02T15:19:50.301Z</time></trkpt><trkpt lat="46.0118432" lon="12.0509442"><ele>512.8333333333333</ele><time>2026-05-02T15:19:52.299Z</time></trkpt><trkpt lat="46.0118704" lon="12.050844"><ele>510.66666666666663</ele><time>2026-05-02T15:19:54.294Z</time></trkpt><trkpt lat="46.0117875" lon="12.0507584"><ele>508.5</ele><time>2026-05-02T15:19:56.309Z</time></trkpt><trkpt lat="46.0117248" lon="12.0507136"><ele>506.33333333333337</ele><time>2026-05-02T15:19:57.295Z</time></trkpt><trkpt lat="46.0116567" lon="12.0506589"><ele>504.1666666666667</ele><time>2026-05-02T15:19:58.295Z</time></trkpt><trkpt lat="46.0115855" lon="12.0505967"><ele>502.0</ele><time>2026-05-02T15:19:59.301Z</time></trkpt><trkpt lat="46.0115115" lon="12.0505359"><ele>501.50000000000006</ele><time>2026-05-02T15:20:00.29Z</time></trkpt><trkpt lat="46.0114449" lon="12.0504783"><ele>501.0</ele><time>2026-05-02T15:20:01.292Z</time></trkpt><trkpt lat="46.0113669" lon="12.0503868"><ele>500.5</ele><time>2026-05-02T15:20:03.293Z</time></trkpt><trkpt lat="46.0114207" lon="12.050328"><ele>500.0</ele><time>2026-05-02T15:20:06.289Z</time></trkpt><trkpt lat="46.0114785" lon="12.0503861"><ele>499.50000000000006</ele><time>2026-05-02T15:20:09.289Z</time></trkpt><trkpt lat="46.0115433" lon="12.0504349"><ele>499.0</ele><time>2026-05-02T15:20:11.29Z</time></trkpt><trkpt lat="46.0116363" lon="12.0504617"><ele>496.50000000000006</ele><time>2026-05-02T15:20:13.291Z</time></trkpt><trkpt lat="46.0117496" lon="12.0504825"><ele>494.0</ele><time>2026-05-02T15:20:15.289Z</time></trkpt><trkpt lat="46.0118168" lon="12.0504885"><ele>491.5</ele><time>2026-05-02T15:20:16.289Z</time></trkpt><trkpt lat="46.0118884" lon="12.0505032"><ele>489.0</ele><time>2026-05-02T15:20:17.29Z</time></trkpt><trkpt lat="46.0119559" lon="12.0505414"><ele>486.50000000000006</ele><time>2026-05-02T15:20:18.294Z</time></trkpt><trkpt lat="46.0120261" lon="12.0505736"><ele>484.0</ele><time>2026-05-02T15:20:19.301Z</time></trkpt><trkpt lat="46.012099" lon="12.0505826"><ele>484.00000000000006</ele><time>2026-05-02T15:20:20.292Z</time></trkpt><trkpt lat="46.0121745" lon="12.0505771"><ele>484.0</ele><time>2026-05-02T15:20:21.295Z</time></trkpt><trkpt lat="46.0122588" lon="12.0505562"><ele>484.0</ele><time>2026-05-02T15:20:22.291Z</time></trkpt><trkpt lat="46.0123479" lon="12.0505315"><ele>484.0</ele><time>2026-05-02T15:20:23.292Z</time></trkpt><trkpt lat="46.0124345" lon="12.0505059"><ele>484.00000000000006</ele><time>2026-05-02T15:20:24.29Z</time></trkpt><trkpt lat="46.0125187" lon="12.0504811"><ele>484.0</ele><time>2026-05-02T15:20:25.291Z</time></trkpt><trkpt lat="46.0126084" lon="12.0504725"><ele>484.6</ele><time>2026-05-02T15:20:26.291Z</time></trkpt><trkpt lat="46.0127015" lon="12.0504873"><ele>485.2</ele><time>2026-05-02T15:20:27.29Z</time></trkpt><trkpt lat="46.0127979" lon="12.0505074"><ele>485.80000000000007</ele><time>2026-05-02T15:20:28.29Z</time></trkpt><trkpt lat="46.0128997" lon="12.0505229"><ele>486.40000000000003</ele><time>2026-05-02T15:20:29.292Z</time></trkpt><trkpt lat="46.0130047" lon="12.0505406"><ele>487.0</ele><time>2026-05-02T15:20:30.292Z</time></trkpt><trkpt lat="46.0131101" lon="12.0505588"><ele>487.0</ele><time>2026-05-02T15:20:31.293Z</time></trkpt><trkpt lat="46.01321" lon="12.0505909"><ele>487.00000000000006</ele><time>2026-05-02T15:20:32.294Z</time></trkpt><trkpt lat="46.0133046" lon="12.0506269"><ele>487.00000000000006</ele><time>2026-05-02T15:20:33.291Z</time></trkpt><trkpt lat="46.0134012" lon="12.0506463"><ele>487.0</ele><time>2026-05-02T15:20:34.29Z</time></trkpt><trkpt lat="46.0135078" lon="12.0506581"><ele>487.0</ele><time>2026-05-02T15:20:35.291Z</time></trkpt><trkpt lat="46.0136205" lon="12.0506598"><ele>486.0</ele><time>2026-05-02T15:20:36.29Z</time></trkpt><trkpt lat="46.0137407" lon="12.050664"><ele>485.0</ele><time>2026-05-02T15:20:37.292Z</time></trkpt><trkpt lat="46.0138651" lon="12.0506738"><ele>484.0</ele><time>2026-05-02T15:20:38.292Z</time></trkpt><trkpt lat="46.0139916" lon="12.05069"><ele>483.0</ele><time>2026-05-02T15:20:39.289Z</time></trkpt><trkpt lat="46.014115" lon="12.0507075"><ele>480.79999999999995</ele><time>2026-05-02T15:20:40.291Z</time></trkpt><trkpt lat="46.0142284" lon="12.0507341"><ele>478.59999999999997</ele><time>2026-05-02T15:20:41.291Z</time></trkpt><trkpt lat="46.0143362" lon="12.0507502"><ele>476.40000000000003</ele><time>2026-05-02T15:20:42.29Z</time></trkpt><trkpt lat="46.014429" lon="12.0507468"><ele>474.20000000000005</ele><time>2026-05-02T15:20:43.289Z</time></trkpt><trkpt lat="46.0145077" lon="12.0507186"><ele>472.0</ele><time>2026-05-02T15:20:44.297Z</time></trkpt><trkpt lat="46.0145822" lon="12.0506411"><ele>472.0</ele><time>2026-05-02T15:20:45.292Z</time></trkpt><trkpt lat="46.0146465" lon="12.0505453"><ele>472.00000000000006</ele><time>2026-05-02T15:20:46.291Z</time></trkpt><trkpt lat="46.0147103" lon="12.0504474"><ele>472.00000000000006</ele><time>2026-05-02T15:20:47.292Z</time></trkpt><trkpt lat="46.0147835" lon="12.0503695"><ele>472.0</ele><time>2026-05-02T15:20:48.29Z</time></trkpt><trkpt lat="46.0148639" lon="12.050317"><ele>472.0</ele><time>2026-05-02T15:20:49.291Z</time></trkpt><trkpt lat="46.0149492" lon="12.0502705"><ele>470.40000000000003</ele><time>2026-05-02T15:20:50.293Z</time></trkpt><trkpt lat="46.015044" lon="12.0502382"><ele>468.80000000000007</ele><time>2026-05-02T15:20:51.293Z</time></trkpt><trkpt lat="46.0151395" lon="12.0502391"><ele>467.2</ele><time>2026-05-02T15:20:52.294Z</time></trkpt><trkpt lat="46.0152316" lon="12.0502837"><ele>465.6</ele><time>2026-05-02T15:20:53.291Z</time></trkpt><trkpt lat="46.0153131" lon="12.0503614"><ele>464.0</ele><time>2026-05-02T15:20:54.293Z</time></trkpt><trkpt lat="46.0153731" lon="12.0504636"><ele>463.99999999999994</ele><time>2026-05-02T15:20:55.292Z</time></trkpt><trkpt lat="46.0154196" lon="12.0505797"><ele>464.0</ele><time>2026-05-02T15:20:56.292Z</time></trkpt><trkpt lat="46.0154763" lon="12.0506915"><ele>464.0</ele><time>2026-05-02T15:20:57.378Z</time></trkpt><trkpt lat="46.0155395" lon="12.0508002"><ele>464.0</ele><time>2026-05-02T15:20:58.294Z</time></trkpt><trkpt lat="46.0155898" lon="12.0509039"><ele>463.99999999999994</ele><time>2026-05-02T15:20:59.292Z</time></trkpt><trkpt lat="46.0156344" lon="12.0509772"><ele>464.0</ele><time>2026-05-02T15:21:00.292Z</time></trkpt><trkpt lat="46.0156963" lon="12.0510151"><ele>462.16666666666663</ele><time>2026-05-02T15:21:01.291Z</time></trkpt><trkpt lat="46.015772" lon="12.0510166"><ele>460.3333333333333</ele><time>2026-05-02T15:21:02.293Z</time></trkpt><trkpt lat="46.0158549" lon="12.0510019"><ele>458.5</ele><time>2026-05-02T15:21:03.291Z</time></trkpt><trkpt lat="46.0159479" lon="12.0510108"><ele>456.66666666666663</ele><time>2026-05-02T15:21:04.293Z</time></trkpt><trkpt lat="46.0160387" lon="12.0510482"><ele>454.8333333333333</ele><time>2026-05-02T15:21:05.3Z</time></trkpt><trkpt lat="46.0161255" lon="12.0511027"><ele>453.0</ele><time>2026-05-02T15:21:06.302Z</time></trkpt><trkpt lat="46.0162111" lon="12.0511607"><ele>453.0</ele><time>2026-05-02T15:21:07.302Z</time></trkpt><trkpt lat="46.0162808" lon="12.0512052"><ele>453.0</ele><time>2026-05-02T15:21:08.302Z</time></trkpt><trkpt lat="46.0163556" lon="12.0512531"><ele>453.0</ele><time>2026-05-02T15:21:09.301Z</time></trkpt><trkpt lat="46.0164299" lon="12.0512902"><ele>453.0</ele><time>2026-05-02T15:21:10.295Z</time></trkpt><trkpt lat="46.0165103" lon="12.0513102"><ele>453.0</ele><time>2026-05-02T15:21:11.302Z</time></trkpt><trkpt lat="46.0165997" lon="12.0512608"><ele>453.0</ele><time>2026-05-02T15:21:12.295Z</time></trkpt><trkpt lat="46.0166857" lon="12.0511911"><ele>450.0</ele><time>2026-05-02T15:21:13.293Z</time></trkpt><trkpt lat="46.0167716" lon="12.0510995"><ele>446.99999999999994</ele><time>2026-05-02T15:21:14.305Z</time></trkpt><trkpt lat="46.0168651" lon="12.0510154"><ele>443.99999999999994</ele><time>2026-05-02T15:21:15.294Z</time></trkpt><trkpt lat="46.0169639" lon="12.0509432"><ele>441.0</ele><time>2026-05-02T15:21:16.299Z</time></trkpt><trkpt lat="46.0170663" lon="12.0508976"><ele>438.0</ele><time>2026-05-02T15:21:17.293Z</time></trkpt><trkpt lat="46.017171" lon="12.0508759"><ele>438.0</ele><time>2026-05-02T15:21:18.293Z</time></trkpt><trkpt lat="46.0172737" lon="12.0508636"><ele>438.0</ele><time>2026-05-02T15:21:19.293Z</time></trkpt><trkpt lat="46.0173663" lon="12.0508654"><ele>438.0</ele><time>2026-05-02T15:21:20.292Z</time></trkpt><trkpt lat="46.0174451" lon="12.0508585"><ele>438.0</ele><time>2026-05-02T15:21:21.291Z</time></trkpt><trkpt lat="46.0175147" lon="12.0508161"><ele>438.0</ele><time>2026-05-02T15:21:22.291Z</time></trkpt><trkpt lat="46.0175705" lon="12.0507511"><ele>438.0</ele><time>2026-05-02T15:21:23.295Z</time></trkpt><trkpt lat="46.0176629" lon="12.0507178"><ele>438.0</ele><time>2026-05-02T15:21:25.291Z</time></trkpt><trkpt lat="46.017672" lon="12.0508313"><ele>438.0</ele><time>2026-05-02T15:21:28.3Z</time></trkpt><trkpt lat="46.0176254" lon="12.050938"><ele>438.0</ele><time>2026-05-02T15:21:30.3Z</time></trkpt><trkpt lat="46.0175538" lon="12.0510683"><ele>438.0</ele><time>2026-05-02T15:21:32.292Z</time></trkpt><trkpt lat="46.0175007" lon="12.0511295"><ele>438.0</ele><time>2026-05-02T15:21:33.291Z</time></trkpt><trkpt lat="46.0174524" lon="12.0511891"><ele>438.0</ele><time>2026-05-02T15:21:34.289Z</time></trkpt><trkpt lat="46.0173714" lon="12.05125"><ele>438.0</ele><time>2026-05-02T15:21:35.29Z</time></trkpt><trkpt lat="46.017302" lon="12.0513201"><ele>437.99999999999994</ele><time>2026-05-02T15:21:36.29Z</time></trkpt><trkpt lat="46.0172225" lon="12.0513911"><ele>437.99999999999994</ele><time>2026-05-02T15:21:37.291Z</time></trkpt><trkpt lat="46.0171428" lon="12.0514735"><ele>438.0</ele><time>2026-05-02T15:21:38.29Z</time></trkpt><trkpt lat="46.0170683" lon="12.0515746"><ele>438.0</ele><time>2026-05-02T15:21:39.29Z</time></trkpt><trkpt lat="46.0169993" lon="12.0517022"><ele>433.59999999999997</ele><time>2026-05-02T15:21:40.29Z</time></trkpt><trkpt lat="46.0169367" lon="12.0518262"><ele>429.19999999999993</ele><time>2026-05-02T15:21:41.29Z</time></trkpt><trkpt lat="46.0168735" lon="12.0519357"><ele>424.8</ele><time>2026-05-02T15:21:42.289Z</time></trkpt><trkpt lat="46.0168059" lon="12.0520398"><ele>420.4</ele><time>2026-05-02T15:21:43.29Z</time></trkpt><trkpt lat="46.0167378" lon="12.0521157"><ele>416.0</ele><time>2026-05-02T15:21:44.291Z</time></trkpt><trkpt lat="46.0166747" lon="12.0521776"><ele>416.0</ele><time>2026-05-02T15:21:45.292Z</time></trkpt><trkpt lat="46.0166472" lon="12.0523199"><ele>416.0</ele><time>2026-05-02T15:21:47.294Z</time></trkpt><trkpt lat="46.0167485" lon="12.0523635"><ele>416.0</ele><time>2026-05-02T15:21:49.292Z</time></trkpt><trkpt lat="46.0168179" lon="12.0523212"><ele>416.0</ele><time>2026-05-02T15:21:50.293Z</time></trkpt><trkpt lat="46.0168873" lon="12.0522502"><ele>416.0</ele><time>2026-05-02T15:21:51.294Z</time></trkpt><trkpt lat="46.0169719" lon="12.0522051"><ele>415.99999999999994</ele><time>2026-05-02T15:21:52.29Z</time></trkpt><trkpt lat="46.0170646" lon="12.0521816"><ele>416.0</ele><time>2026-05-02T15:21:53.296Z</time></trkpt><trkpt lat="46.0171594" lon="12.0521893"><ele>416.0</ele><time>2026-05-02T15:21:54.294Z</time></trkpt><trkpt lat="46.0172464" lon="12.0522147"><ele>416.0</ele><time>2026-05-02T15:21:55.294Z</time></trkpt><trkpt lat="46.0173276" lon="12.052244"><ele>415.99999999999994</ele><time>2026-05-02T15:21:56.295Z</time></trkpt><trkpt lat="46.0173927" lon="12.0522708"><ele>416.0</ele><time>2026-05-02T15:21:57.289Z</time></trkpt><trkpt lat="46.0174658" lon="12.0522718"><ele>411.0</ele><time>2026-05-02T15:21:58.302Z</time></trkpt><trkpt lat="46.0175398" lon="12.0522378"><ele>406.0</ele><time>2026-05-02T15:21:59.305Z</time></trkpt><trkpt lat="46.0176245" lon="12.0521943"><ele>401.0</ele><time>2026-05-02T15:22:00.307Z</time></trkpt><trkpt lat="46.017712" lon="12.0521152"><ele>396.0</ele><time>2026-05-02T15:22:01.301Z</time></trkpt><trkpt lat="46.0178067" lon="12.0519889"><ele>391.0</ele><time>2026-05-02T15:22:02.305Z</time></trkpt><trkpt lat="46.0179002" lon="12.0518816"><ele>391.0</ele><time>2026-05-02T15:22:03.307Z</time></trkpt><trkpt lat="46.0179889" lon="12.0517921"><ele>391.0</ele><time>2026-05-02T15:22:04.301Z</time></trkpt><trkpt lat="46.0180668" lon="12.0517092"><ele>391.0</ele><time>2026-05-02T15:22:05.304Z</time></trkpt><trkpt lat="46.0181543" lon="12.0516348"><ele>391.0</ele><time>2026-05-02T15:22:06.303Z</time></trkpt><trkpt lat="46.0182555" lon="12.0515744"><ele>391.0</ele><time>2026-05-02T15:22:07.302Z</time></trkpt><trkpt lat="46.018353" lon="12.05153"><ele>392.00000000000006</ele><time>2026-05-02T15:22:08.304Z</time></trkpt><trkpt lat="46.0184368" lon="12.0514998"><ele>393.0</ele><time>2026-05-02T15:22:09.301Z</time></trkpt><trkpt lat="46.0185247" lon="12.0514746"><ele>394.0</ele><time>2026-05-02T15:22:10.302Z</time></trkpt><trkpt lat="46.0186032" lon="12.0514814"><ele>395.0</ele><time>2026-05-02T15:22:11.302Z</time></trkpt><trkpt lat="46.0186674" lon="12.0515663"><ele>396.00000000000006</ele><time>2026-05-02T15:22:12.301Z</time></trkpt><trkpt lat="46.0187348" lon="12.0516567"><ele>397.0</ele><time>2026-05-02T15:22:13.303Z</time></trkpt><trkpt lat="46.0187871" lon="12.0517465"><ele>393.50000000000006</ele><time>2026-05-02T15:22:14.303Z</time></trkpt><trkpt lat="46.018845" lon="12.0518405"><ele>390.0</ele><time>2026-05-02T15:22:15.301Z</time></trkpt><trkpt lat="46.0189113" lon="12.0519256"><ele>386.5</ele><time>2026-05-02T15:22:16.305Z</time></trkpt><trkpt lat="46.0189642" lon="12.0519997"><ele>383.0</ele><time>2026-05-02T15:22:17.303Z</time></trkpt><trkpt lat="46.0190271" lon="12.0520263"><ele>379.5</ele><time>2026-05-02T15:22:18.302Z</time></trkpt><trkpt lat="46.0190906" lon="12.0520002"><ele>376.0</ele><time>2026-05-02T15:22:19.302Z</time></trkpt><trkpt lat="46.019156" lon="12.0518869"><ele>375.0</ele><time>2026-05-02T15:22:21.287Z</time></trkpt><trkpt lat="46.0192137" lon="12.0517402"><ele>374.0</ele><time>2026-05-02T15:22:23.302Z</time></trkpt><trkpt lat="46.0192774" lon="12.0516338"><ele>373.0</ele><time>2026-05-02T15:22:25.291Z</time></trkpt><trkpt lat="46.0193469" lon="12.0515348"><ele>372.0</ele><time>2026-05-02T15:22:27.301Z</time></trkpt><trkpt lat="46.0194162" lon="12.0514259"><ele>371.0</ele><time>2026-05-02T15:22:29.304Z</time></trkpt><trkpt lat="46.0194795" lon="12.0513093"><ele>371.0</ele><time>2026-05-02T15:22:31.302Z</time></trkpt><trkpt lat="46.0195393" lon="12.0511931"><ele>371.0</ele><time>2026-05-02T15:22:33.302Z</time></trkpt><trkpt lat="46.0196198" lon="12.0511093"><ele>371.0</ele><time>2026-05-02T15:22:35.302Z</time></trkpt><trkpt lat="46.0196996" lon="12.0510377"><ele>371.0</ele><time>2026-05-02T15:22:37.304Z</time></trkpt><trkpt lat="46.0197678" lon="12.0509427"><ele>371.0</ele><time>2026-05-02T15:22:39.301Z</time></trkpt><trkpt lat="46.0198378" lon="12.0508482"><ele>370.0</ele><time>2026-05-02T15:22:41.303Z</time></trkpt><trkpt lat="46.0198975" lon="12.0507583"><ele>369.0</ele><time>2026-05-02T15:22:43.303Z</time></trkpt><trkpt lat="46.0199615" lon="12.0506625"><ele>368.0</ele><time>2026-05-02T15:22:45.309Z</time></trkpt><trkpt lat="46.0200324" lon="12.0505685"><ele>367.0</ele><time>2026-05-02T15:22:47.302Z</time></trkpt><trkpt lat="46.0200985" lon="12.0504806"><ele>366.0</ele><time>2026-05-02T15:22:49.367Z</time></trkpt><trkpt lat="46.0201561" lon="12.0503883"><ele>362.8333333333333</ele><time>2026-05-02T15:22:51.294Z</time></trkpt><trkpt lat="46.0202032" lon="12.050304"><ele>359.6666666666667</ele><time>2026-05-02T15:22:53.304Z</time></trkpt><trkpt lat="46.0202604" lon="12.0502269"><ele>356.5</ele><time>2026-05-02T15:22:55.289Z</time></trkpt><trkpt lat="46.0203185" lon="12.0501842"><ele>353.33333333333337</ele><time>2026-05-02T15:22:57.302Z</time></trkpt><trkpt lat="46.0204124" lon="12.0501669"><ele>350.1666666666667</ele><time>2026-05-02T15:23:00.305Z</time></trkpt><trkpt lat="46.020481" lon="12.0502016"><ele>347.0</ele><time>2026-05-02T15:23:03.301Z</time></trkpt><trkpt lat="46.0205292" lon="12.0503444"><ele>347.0</ele><time>2026-05-02T15:23:55.303Z</time></trkpt><trkpt lat="46.0205654" lon="12.050424"><ele>347.0</ele><time>2026-05-02T15:23:58.306Z</time></trkpt><trkpt lat="46.0206381" lon="12.0505071"><ele>347.0</ele><time>2026-05-02T15:24:01.306Z</time></trkpt><trkpt lat="46.0207071" lon="12.0505703"><ele>347.0</ele><time>2026-05-02T15:24:04.306Z</time></trkpt><trkpt lat="46.0207792" lon="12.0506281"><ele>347.0</ele><time>2026-05-02T15:24:07.307Z</time></trkpt><trkpt lat="46.0208687" lon="12.0506571"><ele>347.0</ele><time>2026-05-02T15:24:10.307Z</time></trkpt><trkpt lat="46.0209503" lon="12.0506755"><ele>349.1666666666667</ele><time>2026-05-02T15:24:13.302Z</time></trkpt><trkpt lat="46.0210312" lon="12.0506882"><ele>351.33333333333337</ele><time>2026-05-02T15:24:16.297Z</time></trkpt><trkpt lat="46.0211108" lon="12.0507109"><ele>353.5</ele><time>2026-05-02T15:24:19.306Z</time></trkpt><trkpt lat="46.0211803" lon="12.0507269"><ele>355.6666666666667</ele><time>2026-05-02T15:24:22.303Z</time></trkpt><trkpt lat="46.0212564" lon="12.0507483"><ele>357.8333333333333</ele><time>2026-05-02T15:24:25.304Z</time></trkpt><trkpt lat="46.0213332" lon="12.0507718"><ele>360.0</ele><time>2026-05-02T15:24:28.303Z</time></trkpt><trkpt lat="46.0213977" lon="12.0508428"><ele>363.3333333333333</ele><time>2026-05-02T15:24:31.304Z</time></trkpt><trkpt lat="46.0214133" lon="12.0509409"><ele>366.6666666666667</ele><time>2026-05-02T15:24:34.302Z</time></trkpt><trkpt lat="46.0213936" lon="12.0510389"><ele>370.0</ele><time>2026-05-02T15:24:37.302Z</time></trkpt><trkpt lat="46.0213752" lon="12.0511601"><ele>373.33333333333337</ele><time>2026-05-02T15:24:40.301Z</time></trkpt><trkpt lat="46.0213456" lon="12.0512852"><ele>376.6666666666667</ele><time>2026-05-02T15:24:43.301Z</time></trkpt><trkpt lat="46.0213235" lon="12.0514117"><ele>380.0</ele><time>2026-05-02T15:24:46.302Z</time></trkpt><trkpt lat="46.0213085" lon="12.0515292"><ele>384.1666666666667</ele><time>2026-05-02T15:24:49.301Z</time></trkpt><trkpt lat="46.0213277" lon="12.0516547"><ele>388.33333333333337</ele><time>2026-05-02T15:24:52.301Z</time></trkpt><trkpt lat="46.0213784" lon="12.051769"><ele>392.5</ele><time>2026-05-02T15:24:55.303Z</time></trkpt><trkpt lat="46.0214209" lon="12.0518403"><ele>396.6666666666667</ele><time>2026-05-02T15:24:57.289Z</time></trkpt><trkpt lat="46.0214641" lon="12.0519093"><ele>400.8333333333333</ele><time>2026-05-02T15:24:59.287Z</time></trkpt><trkpt lat="46.0215158" lon="12.0520152"><ele>405.0</ele><time>2026-05-02T15:25:02.302Z</time></trkpt><trkpt lat="46.0215548" lon="12.052121"><ele>405.0</ele><time>2026-05-02T15:25:05.297Z</time></trkpt><trkpt lat="46.021584" lon="12.0522289"><ele>405.0</ele><time>2026-05-02T15:25:08.303Z</time></trkpt><trkpt lat="46.0215915" lon="12.0523285"><ele>405.0</ele><time>2026-05-02T15:25:11.299Z</time></trkpt><trkpt lat="46.0215871" lon="12.0524349"><ele>405.0</ele><time>2026-05-02T15:25:14.302Z</time></trkpt><trkpt lat="46.0215605" lon="12.0525382"><ele>405.0</ele><time>2026-05-02T15:25:17.293Z</time></trkpt><trkpt lat="46.021526" lon="12.052655"><ele>405.0</ele><time>2026-05-02T15:25:20.293Z</time></trkpt><trkpt lat="46.0214871" lon="12.0527522"><ele>408.8333333333333</ele><time>2026-05-02T15:25:23.291Z</time></trkpt><trkpt lat="46.0214383" lon="12.0528307"><ele>412.66666666666663</ele><time>2026-05-02T15:25:26.293Z</time></trkpt><trkpt lat="46.0213777" lon="12.0528982"><ele>416.5</ele><time>2026-05-02T15:25:29.293Z</time></trkpt><trkpt lat="46.0213225" lon="12.0529728"><ele>420.3333333333333</ele><time>2026-05-02T15:25:32.293Z</time></trkpt><trkpt lat="46.0212973" lon="12.0530743"><ele>424.16666666666663</ele><time>2026-05-02T15:25:35.291Z</time></trkpt><trkpt lat="46.021291" lon="12.0531905"><ele>428.0</ele><time>2026-05-02T15:25:38.298Z</time></trkpt><trkpt lat="46.0213005" lon="12.0532918"><ele>430.2</ele><time>2026-05-02T15:25:40.287Z</time></trkpt><trkpt lat="46.0213574" lon="12.0533601"><ele>432.4</ele><time>2026-05-02T15:25:42.294Z</time></trkpt><trkpt lat="46.0214309" lon="12.0533739"><ele>434.59999999999997</ele><time>2026-05-02T15:25:44.292Z</time></trkpt><trkpt lat="46.0215717" lon="12.0533579"><ele>436.79999999999995</ele><time>2026-05-02T15:25:48.303Z</time></trkpt><trkpt lat="46.0216639" lon="12.0533416"><ele>439.0</ele><time>2026-05-02T15:25:51.3Z</time></trkpt><trkpt lat="46.0217565" lon="12.0533342"><ele>435.1666666666667</ele><time>2026-05-02T15:25:54.298Z</time></trkpt><trkpt lat="46.0218192" lon="12.0533244"><ele>431.33333333333337</ele><time>2026-05-02T15:25:56.301Z</time></trkpt><trkpt lat="46.0218834" lon="12.053319"><ele>427.5</ele><time>2026-05-02T15:25:58.301Z</time></trkpt><trkpt lat="46.0219721" lon="12.0533049"><ele>423.66666666666663</ele><time>2026-05-02T15:26:01.301Z</time></trkpt><trkpt lat="46.0220591" lon="12.0533268"><ele>419.8333333333333</ele><time>2026-05-02T15:26:04.286Z</time></trkpt><trkpt lat="46.0221378" lon="12.0533704"><ele>416.0</ele><time>2026-05-02T15:26:07.302Z</time></trkpt><trkpt lat="46.0222015" lon="12.0533663"><ele>415.99999999999994</ele><time>2026-05-02T15:26:09.302Z</time></trkpt><trkpt lat="46.0222649" lon="12.0533377"><ele>416.0</ele><time>2026-05-02T15:26:11.299Z</time></trkpt><trkpt lat="46.0223388" lon="12.0532674"><ele>416.0</ele><time>2026-05-02T15:26:14.303Z</time></trkpt><trkpt lat="46.0224037" lon="12.0532013"><ele>416.0</ele><time>2026-05-02T15:26:17.291Z</time></trkpt><trkpt lat="46.0224771" lon="12.0531537"><ele>415.99999999999994</ele><time>2026-05-02T15:26:20.302Z</time></trkpt><trkpt lat="46.0225522" lon="12.0531027"><ele>416.0</ele><time>2026-05-02T15:26:23.304Z</time></trkpt><trkpt lat="46.0226156" lon="12.0530554"><ele>411.8333333333333</ele><time>2026-05-02T15:26:26.303Z</time></trkpt><trkpt lat="46.0226865" lon="12.0529914"><ele>407.66666666666663</ele><time>2026-05-02T15:26:29.307Z</time></trkpt><trkpt lat="46.0227738" lon="12.052941"><ele>403.5</ele><time>2026-05-02T15:26:32.298Z</time></trkpt><trkpt lat="46.0228609" lon="12.0529022"><ele>399.33333333333337</ele><time>2026-05-02T15:26:35.303Z</time></trkpt><trkpt lat="46.0229469" lon="12.0528967"><ele>395.1666666666667</ele><time>2026-05-02T15:26:38.303Z</time></trkpt><trkpt lat="46.0230254" lon="12.0529541"><ele>391.0</ele><time>2026-05-02T15:26:41.299Z</time></trkpt><trkpt lat="46.0230957" lon="12.0530506"><ele>391.00000000000006</ele><time>2026-05-02T15:26:44.292Z</time></trkpt><trkpt lat="46.0231585" lon="12.0531431"><ele>391.0</ele><time>2026-05-02T15:26:47.294Z</time></trkpt><trkpt lat="46.0232265" lon="12.053229"><ele>391.0</ele><time>2026-05-02T15:26:50.292Z</time></trkpt><trkpt lat="46.0232692" lon="12.0532978"><ele>391.0</ele><time>2026-05-02T15:26:52.291Z</time></trkpt><trkpt lat="46.023307" lon="12.0533818"><ele>391.00000000000006</ele><time>2026-05-02T15:26:54.291Z</time></trkpt><trkpt lat="46.0233618" lon="12.0534901"><ele>391.0</ele><time>2026-05-02T15:26:57.29Z</time></trkpt><trkpt lat="46.0233985" lon="12.0535644"><ele>397.00000000000006</ele><time>2026-05-02T15:26:59.29Z</time></trkpt><trkpt lat="46.0234571" lon="12.0536521"><ele>403.0</ele><time>2026-05-02T15:27:02.291Z</time></trkpt><trkpt lat="46.0235071" lon="12.0537237"><ele>409.0</ele><time>2026-05-02T15:27:04.29Z</time></trkpt><trkpt lat="46.023566" lon="12.053789"><ele>415.0</ele><time>2026-05-02T15:27:07.291Z</time></trkpt><trkpt lat="46.0236456" lon="12.0538707"><ele>421.00000000000006</ele><time>2026-05-02T15:27:10.295Z</time></trkpt><trkpt lat="46.0237006" lon="12.0539329"><ele>427.0</ele><time>2026-05-02T15:27:12.294Z</time></trkpt><trkpt lat="46.0237516" lon="12.0539904"><ele>427.00000000000006</ele><time>2026-05-02T15:27:14.294Z</time></trkpt><trkpt lat="46.0238187" lon="12.0540837"><ele>427.0</ele><time>2026-05-02T15:27:17.293Z</time></trkpt><trkpt lat="46.0238728" lon="12.0541391"><ele>427.0</ele><time>2026-05-02T15:27:19.295Z</time></trkpt><trkpt lat="46.0239328" lon="12.0541909"><ele>427.0</ele><time>2026-05-02T15:27:21.294Z</time></trkpt><trkpt lat="46.0239894" lon="12.0542357"><ele>427.00000000000006</ele><time>2026-05-02T15:27:23.292Z</time></trkpt><trkpt lat="46.0240586" lon="12.0542978"><ele>427.0</ele><time>2026-05-02T15:27:26.293Z</time></trkpt><trkpt lat="46.0241228" lon="12.0543717"><ele>427.83333333333337</ele><time>2026-05-02T15:27:29.29Z</time></trkpt><trkpt lat="46.02416" lon="12.0544633"><ele>428.6666666666667</ele><time>2026-05-02T15:27:32.29Z</time></trkpt><trkpt lat="46.0242002" lon="12.0545697"><ele>429.5</ele><time>2026-05-02T15:27:35.293Z</time></trkpt><trkpt lat="46.0242472" lon="12.0546328"><ele>430.33333333333337</ele><time>2026-05-02T15:27:37.295Z</time></trkpt><trkpt lat="46.0243319" lon="12.0546467"><ele>431.1666666666667</ele><time>2026-05-02T15:27:40.295Z</time></trkpt><trkpt lat="46.024395" lon="12.0546067"><ele>432.0</ele><time>2026-05-02T15:27:42.294Z</time></trkpt><trkpt lat="46.0244519" lon="12.0545388"><ele>432.0</ele><time>2026-05-02T15:27:44.294Z</time></trkpt><trkpt lat="46.024515" lon="12.054473"><ele>432.0</ele><time>2026-05-02T15:27:46.304Z</time></trkpt><trkpt lat="46.024582" lon="12.054408"><ele>432.0</ele><time>2026-05-02T15:27:48.293Z</time></trkpt><trkpt lat="46.0246467" lon="12.0543355"><ele>432.0</ele><time>2026-05-02T15:27:50.296Z</time></trkpt><trkpt lat="46.0247083" lon="12.0542555"><ele>432.0</ele><time>2026-05-02T15:27:52.293Z</time></trkpt><trkpt lat="46.0247657" lon="12.054179"><ele>432.0</ele><time>2026-05-02T15:27:54.293Z</time></trkpt><trkpt lat="46.0248271" lon="12.0541069"><ele>429.2857142857143</ele><time>2026-05-02T15:27:56.294Z</time></trkpt><trkpt lat="46.0248871" lon="12.0540451"><ele>426.57142857142856</ele><time>2026-05-02T15:27:58.294Z</time></trkpt><trkpt lat="46.0249505" lon="12.053996"><ele>423.8571428571429</ele><time>2026-05-02T15:28:00.294Z</time></trkpt><trkpt lat="46.0250173" lon="12.0539693"><ele>421.1428571428571</ele><time>2026-05-02T15:28:02.288Z</time></trkpt><trkpt lat="46.0250888" lon="12.0539685"><ele>418.42857142857144</ele><time>2026-05-02T15:28:04.291Z</time></trkpt><trkpt lat="46.0251656" lon="12.053963"><ele>415.7142857142857</ele><time>2026-05-02T15:28:06.293Z</time></trkpt><trkpt lat="46.0252391" lon="12.0539275"><ele>413.0</ele><time>2026-05-02T15:28:08.288Z</time></trkpt><trkpt lat="46.0252928" lon="12.0538559"><ele>413.0</ele><time>2026-05-02T15:28:10.288Z</time></trkpt><trkpt lat="46.0253343" lon="12.0537638"><ele>413.0</ele><time>2026-05-02T15:28:12.295Z</time></trkpt><trkpt lat="46.0253738" lon="12.0536814"><ele>413.0</ele><time>2026-05-02T15:28:14.286Z</time></trkpt><trkpt lat="46.0254139" lon="12.0536065"><ele>413.0</ele><time>2026-05-02T15:28:16.291Z</time></trkpt><trkpt lat="46.0254682" lon="12.0535504"><ele>413.0</ele><time>2026-05-02T15:28:18.293Z</time></trkpt><trkpt lat="46.0255317" lon="12.053524"><ele>413.0</ele><time>2026-05-02T15:28:20.291Z</time></trkpt><trkpt lat="46.0256034" lon="12.0535119"><ele>413.0</ele><time>2026-05-02T15:28:22.292Z</time></trkpt><trkpt lat="46.025678" lon="12.0535009"><ele>413.0</ele><time>2026-05-02T15:28:24.292Z</time></trkpt><trkpt lat="46.0257529" lon="12.0534908"><ele>413.0</ele><time>2026-05-02T15:28:26.291Z</time></trkpt><trkpt lat="46.0258274" lon="12.0534849"><ele>413.0</ele><time>2026-05-02T15:28:28.289Z</time></trkpt><trkpt lat="46.0259027" lon="12.0534773"><ele>413.0</ele><time>2026-05-02T15:28:30.291Z</time></trkpt><trkpt lat="46.0259783" lon="12.0534757"><ele>413.0</ele><time>2026-05-02T15:28:32.292Z</time></trkpt><trkpt lat="46.0260519" lon="12.0534776"><ele>413.0</ele><time>2026-05-02T15:28:34.29Z</time></trkpt><trkpt lat="46.026123" lon="12.0534857"><ele>413.0</ele><time>2026-05-02T15:28:36.29Z</time></trkpt><trkpt lat="46.026197" lon="12.0534939"><ele>416.2857142857143</ele><time>2026-05-02T15:28:38.289Z</time></trkpt><trkpt lat="46.0262699" lon="12.0535084"><ele>419.57142857142856</ele><time>2026-05-02T15:28:40.289Z</time></trkpt><trkpt lat="46.0263392" lon="12.0535224"><ele>422.8571428571429</ele><time>2026-05-02T15:28:42.288Z</time></trkpt><trkpt lat="46.0264034" lon="12.0535427"><ele>426.1428571428571</ele><time>2026-05-02T15:28:44.289Z</time></trkpt><trkpt lat="46.0264734" lon="12.053557"><ele>429.42857142857144</ele><time>2026-05-02T15:28:46.291Z</time></trkpt><trkpt lat="46.0265451" lon="12.0535662"><ele>432.7142857142857</ele><time>2026-05-02T15:28:48.299Z</time></trkpt><trkpt lat="46.0266175" lon="12.0535749"><ele>436.0</ele><time>2026-05-02T15:28:50.298Z</time></trkpt><trkpt lat="46.0266906" lon="12.0535723"><ele>437.50000000000006</ele><time>2026-05-02T15:28:52.29Z</time></trkpt><trkpt lat="46.0267588" lon="12.0535588"><ele>439.0</ele><time>2026-05-02T15:28:54.292Z</time></trkpt><trkpt lat="46.026846" lon="12.0535017"><ele>440.5</ele><time>2026-05-02T15:28:57.291Z</time></trkpt><trkpt lat="46.0269091" lon="12.0534729"><ele>442.0</ele><time>2026-05-02T15:28:59.29Z</time></trkpt><trkpt lat="46.0269838" lon="12.0534673"><ele>443.50000000000006</ele><time>2026-05-02T15:29:01.29Z</time></trkpt><trkpt lat="46.0270595" lon="12.0534768"><ele>445.0</ele><time>2026-05-02T15:29:03.299Z</time></trkpt><trkpt lat="46.0271359" lon="12.0534983"><ele>445.0</ele><time>2026-05-02T15:29:05.294Z</time></trkpt><trkpt lat="46.0272131" lon="12.0535193"><ele>445.0</ele><time>2026-05-02T15:29:07.295Z</time></trkpt><trkpt lat="46.0272889" lon="12.0535416"><ele>445.0</ele><time>2026-05-02T15:29:09.293Z</time></trkpt><trkpt lat="46.027362" lon="12.0535679"><ele>445.0</ele><time>2026-05-02T15:29:11.293Z</time></trkpt><trkpt lat="46.0274327" lon="12.0535994"><ele>445.0</ele><time>2026-05-02T15:29:13.301Z</time></trkpt><trkpt lat="46.0274996" lon="12.0536299"><ele>445.0</ele><time>2026-05-02T15:29:15.293Z</time></trkpt><trkpt lat="46.0275692" lon="12.0536617"><ele>445.0</ele><time>2026-05-02T15:29:17.299Z</time></trkpt><trkpt lat="46.0276409" lon="12.0537014"><ele>444.7142857142857</ele><time>2026-05-02T15:29:19.3Z</time></trkpt><trkpt lat="46.0277086" lon="12.0537426"><ele>444.4285714285714</ele><time>2026-05-02T15:29:21.3Z</time></trkpt><trkpt lat="46.0277739" lon="12.0537843"><ele>444.1428571428571</ele><time>2026-05-02T15:29:23.297Z</time></trkpt><trkpt lat="46.0278397" lon="12.0538283"><ele>443.8571428571429</ele><time>2026-05-02T15:29:25.293Z</time></trkpt><trkpt lat="46.0278969" lon="12.0538836"><ele>443.57142857142856</ele><time>2026-05-02T15:29:27.301Z</time></trkpt><trkpt lat="46.0279592" lon="12.0539311"><ele>443.2857142857143</ele><time>2026-05-02T15:29:29.3Z</time></trkpt><trkpt lat="46.028022" lon="12.0539861"><ele>443.0</ele><time>2026-05-02T15:29:31.299Z</time></trkpt><trkpt lat="46.0280838" lon="12.0540419"><ele>443.0</ele><time>2026-05-02T15:29:33.341Z</time></trkpt><trkpt lat="46.0281455" lon="12.0540982"><ele>443.0</ele><time>2026-05-02T15:29:35.289Z</time></trkpt><trkpt lat="46.028206" lon="12.0541589"><ele>443.0</ele><time>2026-05-02T15:29:37.29Z</time></trkpt><trkpt lat="46.0282655" lon="12.0542215"><ele>443.0</ele><time>2026-05-02T15:29:39.289Z</time></trkpt><trkpt lat="46.0283248" lon="12.0542743"><ele>443.0</ele><time>2026-05-02T15:29:41.288Z</time></trkpt><trkpt lat="46.0283817" lon="12.0543317"><ele>443.0</ele><time>2026-05-02T15:29:43.29Z</time></trkpt><trkpt lat="46.0284389" lon="12.0543862"><ele>443.0</ele><time>2026-05-02T15:29:45.288Z</time></trkpt><trkpt lat="46.028508" lon="12.0544202"><ele>447.8333333333333</ele><time>2026-05-02T15:29:47.294Z</time></trkpt><trkpt lat="46.0285757" lon="12.0544183"><ele>452.66666666666663</ele><time>2026-05-02T15:29:49.302Z</time></trkpt><trkpt lat="46.0286536" lon="12.0544112"><ele>457.5</ele><time>2026-05-02T15:29:51.3Z</time></trkpt><trkpt lat="46.0287382" lon="12.0544097"><ele>462.33333333333337</ele><time>2026-05-02T15:29:53.299Z</time></trkpt><trkpt lat="46.0288294" lon="12.0544146"><ele>467.1666666666667</ele><time>2026-05-02T15:29:55.294Z</time></trkpt><trkpt lat="46.0289212" lon="12.0544269"><ele>472.0</ele><time>2026-05-02T15:29:57.302Z</time></trkpt><trkpt lat="46.0290085" lon="12.0544198"><ele>472.0</ele><time>2026-05-02T15:29:59.291Z</time></trkpt><trkpt lat="46.0290989" lon="12.0543861"><ele>472.00000000000006</ele><time>2026-05-02T15:30:01.293Z</time></trkpt><trkpt lat="46.029182" lon="12.0543373"><ele>472.00000000000006</ele><time>2026-05-02T15:30:03.296Z</time></trkpt><trkpt lat="46.0292759" lon="12.0543125"><ele>472.0</ele><time>2026-05-02T15:30:05.293Z</time></trkpt><trkpt lat="46.0293762" lon="12.0543464"><ele>472.0</ele><time>2026-05-02T15:30:07.293Z</time></trkpt><trkpt lat="46.029466" lon="12.0543924"><ele>469.50000000000006</ele><time>2026-05-02T15:30:09.289Z</time></trkpt><trkpt lat="46.0295477" lon="12.0544413"><ele>467.0</ele><time>2026-05-02T15:30:11.289Z</time></trkpt><trkpt lat="46.029621" lon="12.0544877"><ele>464.5</ele><time>2026-05-02T15:30:13.287Z</time></trkpt><trkpt lat="46.0296958" lon="12.0545343"><ele>462.0</ele><time>2026-05-02T15:30:15.292Z</time></trkpt><trkpt lat="46.0297751" lon="12.0545724"><ele>459.50000000000006</ele><time>2026-05-02T15:30:17.294Z</time></trkpt><trkpt lat="46.029849" lon="12.054612"><ele>457.0</ele><time>2026-05-02T15:30:19.293Z</time></trkpt><trkpt lat="46.0299497" lon="12.0546731"><ele>456.8</ele><time>2026-05-02T15:30:21.292Z</time></trkpt><trkpt lat="46.0300497" lon="12.0547305"><ele>456.6</ele><time>2026-05-02T15:30:23.29Z</time></trkpt><trkpt lat="46.030123" lon="12.0547751"><ele>456.40000000000003</ele><time>2026-05-02T15:30:25.292Z</time></trkpt><trkpt lat="46.0302183" lon="12.0548448"><ele>456.20000000000005</ele><time>2026-05-02T15:30:27.293Z</time></trkpt><trkpt lat="46.0303019" lon="12.0549059"><ele>456.0</ele><time>2026-05-02T15:30:29.288Z</time></trkpt><trkpt lat="46.0303785" lon="12.0549615"><ele>462.0</ele><time>2026-05-02T15:30:31.291Z</time></trkpt><trkpt lat="46.0304257" lon="12.0550295"><ele>468.0</ele><time>2026-05-02T15:30:33.292Z</time></trkpt><trkpt lat="46.0305037" lon="12.0550865"><ele>474.0</ele><time>2026-05-02T15:30:35.29Z</time></trkpt><trkpt lat="46.0306003" lon="12.0551529"><ele>480.0</ele><time>2026-05-02T15:30:37.294Z</time></trkpt><trkpt lat="46.0307109" lon="12.0551537"><ele>486.0</ele><time>2026-05-02T15:30:39.294Z</time></trkpt><trkpt lat="46.0307679" lon="12.0550319"><ele>480.0</ele><time>2026-05-02T15:30:41.291Z</time></trkpt><trkpt lat="46.0307266" lon="12.054892"><ele>474.0</ele><time>2026-05-02T15:30:43.293Z</time></trkpt><trkpt lat="46.0306724" lon="12.0547505"><ele>468.0</ele><time>2026-05-02T15:30:45.291Z</time></trkpt><trkpt lat="46.030654" lon="12.0545942"><ele>462.0</ele><time>2026-05-02T15:30:47.293Z</time></trkpt><trkpt lat="46.0306956" lon="12.0544348"><ele>456.0</ele><time>2026-05-02T15:30:49.291Z</time></trkpt><trkpt lat="46.0307698" lon="12.0542885"><ele>454.85714285714283</ele><time>2026-05-02T15:30:51.292Z</time></trkpt><trkpt lat="46.03082" lon="12.0542304"><ele>453.71428571428567</ele><time>2026-05-02T15:30:52.294Z</time></trkpt><trkpt lat="46.0308757" lon="12.0541861"><ele>452.57142857142856</ele><time>2026-05-02T15:30:53.292Z</time></trkpt><trkpt lat="46.030936" lon="12.0541358"><ele>451.42857142857144</ele><time>2026-05-02T15:30:54.289Z</time></trkpt><trkpt lat="46.0309949" lon="12.0540806"><ele>450.2857142857143</ele><time>2026-05-02T15:30:55.291Z</time></trkpt><trkpt lat="46.0310556" lon="12.054026"><ele>449.1428571428571</ele><time>2026-05-02T15:30:56.289Z</time></trkpt><trkpt lat="46.031116" lon="12.0539769"><ele>448.0</ele><time>2026-05-02T15:30:57.289Z</time></trkpt><trkpt lat="46.0311725" lon="12.0539214"><ele>448.0</ele><time>2026-05-02T15:30:58.291Z</time></trkpt><trkpt lat="46.0312334" lon="12.0538722"><ele>447.99999999999994</ele><time>2026-05-02T15:30:59.288Z</time></trkpt><trkpt lat="46.0313325" lon="12.0537699"><ele>447.99999999999994</ele><time>2026-05-02T15:31:01.29Z</time></trkpt><trkpt lat="46.0314335" lon="12.0536933"><ele>448.0</ele><time>2026-05-02T15:31:03.291Z</time></trkpt><trkpt lat="46.0315484" lon="12.0537058"><ele>448.0</ele><time>2026-05-02T15:31:05.29Z</time></trkpt><trkpt lat="46.0316673" lon="12.0537446"><ele>450.2</ele><time>2026-05-02T15:31:07.299Z</time></trkpt><trkpt lat="46.0317295" lon="12.0537621"><ele>452.4</ele><time>2026-05-02T15:31:08.294Z</time></trkpt><trkpt lat="46.031793" lon="12.0537832"><ele>454.59999999999997</ele><time>2026-05-02T15:31:09.292Z</time></trkpt><trkpt lat="46.0319052" lon="12.0538164"><ele>456.79999999999995</ele><time>2026-05-02T15:31:11.29Z</time></trkpt><trkpt lat="46.0320137" lon="12.053887"><ele>459.0</ele><time>2026-05-02T15:31:13.292Z</time></trkpt><trkpt lat="46.0320982" lon="12.0539991"><ele>459.75</ele><time>2026-05-02T15:31:15.292Z</time></trkpt><trkpt lat="46.0321708" lon="12.0541364"><ele>460.5</ele><time>2026-05-02T15:31:17.291Z</time></trkpt><trkpt lat="46.0322853" lon="12.054183"><ele>461.25</ele><time>2026-05-02T15:31:19.293Z</time></trkpt><trkpt lat="46.0323961" lon="12.0541317"><ele>462.0</ele><time>2026-05-02T15:31:21.298Z</time></trkpt><trkpt lat="46.0325085" lon="12.0540435"><ele>462.0</ele><time>2026-05-02T15:31:23.293Z</time></trkpt><trkpt lat="46.0325672" lon="12.0540099"><ele>462.00000000000006</ele><time>2026-05-02T15:31:24.298Z</time></trkpt><trkpt lat="46.0326853" lon="12.0539783"><ele>462.00000000000006</ele><time>2026-05-02T15:31:26.3Z</time></trkpt><trkpt lat="46.0327873" lon="12.0538785"><ele>462.0</ele><time>2026-05-02T15:31:28.3Z</time></trkpt><trkpt lat="46.032862" lon="12.053743"><ele>462.0</ele><time>2026-05-02T15:31:30.299Z</time></trkpt><trkpt lat="46.0329345" lon="12.0536056"><ele>462.0</ele><time>2026-05-02T15:31:32.3Z</time></trkpt><trkpt lat="46.0330075" lon="12.0534875"><ele>462.0</ele><time>2026-05-02T15:31:34.3Z</time></trkpt><trkpt lat="46.0330716" lon="12.0533885"><ele>462.0</ele><time>2026-05-02T15:31:36.294Z</time></trkpt><trkpt lat="46.0331224" lon="12.0533149"><ele>462.0</ele><time>2026-05-02T15:31:38.299Z</time></trkpt><trkpt lat="46.0331752" lon="12.0532459"><ele>462.0</ele><time>2026-05-02T15:31:41.304Z</time></trkpt><trkpt lat="46.0332416" lon="12.0532823"><ele>462.0</ele><time>2026-05-02T15:34:16.3Z</time></trkpt><trkpt lat="46.0333388" lon="12.05327"><ele>464.40000000000003</ele><time>2026-05-02T15:34:18.299Z</time></trkpt><trkpt lat="46.0334506" lon="12.053298"><ele>466.80000000000007</ele><time>2026-05-02T15:34:20.305Z</time></trkpt><trkpt lat="46.033572" lon="12.0533444"><ele>469.2</ele><time>2026-05-02T15:34:22.3Z</time></trkpt><trkpt lat="46.0336357" lon="12.053353"><ele>471.6</ele><time>2026-05-02T15:34:23.301Z</time></trkpt><trkpt lat="46.0337499" lon="12.0533413"><ele>474.0</ele><time>2026-05-02T15:34:25.302Z</time></trkpt><trkpt lat="46.0338464" lon="12.0533133"><ele>471.2</ele><time>2026-05-02T15:34:27.301Z</time></trkpt><trkpt lat="46.0339374" lon="12.0532755"><ele>468.4</ele><time>2026-05-02T15:34:29.301Z</time></trkpt><trkpt lat="46.0340254" lon="12.0532302"><ele>465.6</ele><time>2026-05-02T15:34:31.296Z</time></trkpt><trkpt lat="46.0341118" lon="12.0531835"><ele>462.8</ele><time>2026-05-02T15:34:33.295Z</time></trkpt><trkpt lat="46.0342035" lon="12.0531129"><ele>460.0</ele><time>2026-05-02T15:34:35.291Z</time></trkpt><trkpt lat="46.034299" lon="12.0530414"><ele>460.0</ele><time>2026-05-02T15:34:37.292Z</time></trkpt><trkpt lat="46.0344096" lon="12.052964"><ele>460.0</ele><time>2026-05-02T15:34:39.301Z</time></trkpt><trkpt lat="46.0345362" lon="12.0529284"><ele>460.0</ele><time>2026-05-02T15:34:41.301Z</time></trkpt><trkpt lat="46.0346085" lon="12.0529099"><ele>460.0</ele><time>2026-05-02T15:34:42.303Z</time></trkpt><trkpt lat="46.0346825" lon="12.0528961"><ele>460.0</ele><time>2026-05-02T15:34:43.295Z</time></trkpt><trkpt lat="46.0347562" lon="12.0528832"><ele>460.00000000000006</ele><time>2026-05-02T15:34:44.301Z</time></trkpt><trkpt lat="46.0348347" lon="12.0528708"><ele>460.0</ele><time>2026-05-02T15:34:45.302Z</time></trkpt><trkpt lat="46.0349127" lon="12.0528657"><ele>460.0</ele><time>2026-05-02T15:34:46.294Z</time></trkpt><trkpt lat="46.0349913" lon="12.0528691"><ele>460.0</ele><time>2026-05-02T15:34:47.293Z</time></trkpt><trkpt lat="46.0350678" lon="12.0528863"><ele>460.00000000000006</ele><time>2026-05-02T15:34:48.301Z</time></trkpt><trkpt lat="46.0351528" lon="12.052914"><ele>460.0</ele><time>2026-05-02T15:34:49.3Z</time></trkpt><trkpt lat="46.0352409" lon="12.0529345"><ele>460.8</ele><time>2026-05-02T15:34:50.293Z</time></trkpt><trkpt lat="46.0353346" lon="12.0529351"><ele>461.6</ele><time>2026-05-02T15:34:51.302Z</time></trkpt><trkpt lat="46.0354309" lon="12.0529278"><ele>462.4</ele><time>2026-05-02T15:34:52.299Z</time></trkpt><trkpt lat="46.0355325" lon="12.0528991"><ele>463.2</ele><time>2026-05-02T15:34:53.295Z</time></trkpt><trkpt lat="46.0356329" lon="12.0528551"><ele>464.0</ele><time>2026-05-02T15:34:54.3Z</time></trkpt><trkpt lat="46.0357361" lon="12.0528195"><ele>463.4</ele><time>2026-05-02T15:34:55.296Z</time></trkpt><trkpt lat="46.0358399" lon="12.0527997"><ele>462.79999999999995</ele><time>2026-05-02T15:34:56.299Z</time></trkpt><trkpt lat="46.0359469" lon="12.0527938"><ele>462.20000000000005</ele><time>2026-05-02T15:34:57.293Z</time></trkpt><trkpt lat="46.0360558" lon="12.0528084"><ele>461.6</ele><time>2026-05-02T15:34:58.324Z</time></trkpt><trkpt lat="46.0361683" lon="12.0528253"><ele>461.0</ele><time>2026-05-02T15:34:59.3Z</time></trkpt><trkpt lat="46.0362785" lon="12.0528417"><ele>461.0</ele><time>2026-05-02T15:35:00.301Z</time></trkpt><trkpt lat="46.0363937" lon="12.0528614"><ele>461.0</ele><time>2026-05-02T15:35:01.301Z</time></trkpt><trkpt lat="46.0365115" lon="12.0528791"><ele>461.0</ele><time>2026-05-02T15:35:02.293Z</time></trkpt><trkpt lat="46.0366284" lon="12.0528939"><ele>461.0</ele><time>2026-05-02T15:35:03.294Z</time></trkpt><trkpt lat="46.0367291" lon="12.0529053"><ele>459.8</ele><time>2026-05-02T15:35:04.293Z</time></trkpt><trkpt lat="46.0368239" lon="12.0529181"><ele>458.6</ele><time>2026-05-02T15:35:05.293Z</time></trkpt><trkpt lat="46.0369092" lon="12.0529533"><ele>457.4</ele><time>2026-05-02T15:35:06.329Z</time></trkpt><trkpt lat="46.0369903" lon="12.0530252"><ele>456.2</ele><time>2026-05-02T15:35:07.301Z</time></trkpt><trkpt lat="46.0370603" lon="12.0531227"><ele>455.0</ele><time>2026-05-02T15:35:08.29Z</time></trkpt><trkpt lat="46.0371299" lon="12.0532317"><ele>455.75</ele><time>2026-05-02T15:35:09.294Z</time></trkpt><trkpt lat="46.0371951" lon="12.0533531"><ele>456.5</ele><time>2026-05-02T15:35:10.299Z</time></trkpt><trkpt lat="46.0372657" lon="12.0534796"><ele>457.25</ele><time>2026-05-02T15:35:11.325Z</time></trkpt><trkpt lat="46.0373356" lon="12.053618"><ele>458.0</ele><time>2026-05-02T15:35:12.317Z</time></trkpt><trkpt lat="46.0374069" lon="12.0537643"><ele>453.75</ele><time>2026-05-02T15:35:13.327Z</time></trkpt><trkpt lat="46.0374852" lon="12.0539098"><ele>449.5</ele><time>2026-05-02T15:35:14.304Z</time></trkpt><trkpt lat="46.0375653" lon="12.0540622"><ele>445.25</ele><time>2026-05-02T15:35:15.294Z</time></trkpt><trkpt lat="46.037648" lon="12.0542219"><ele>441.0</ele><time>2026-05-02T15:35:16.294Z</time></trkpt><trkpt lat="46.0377357" lon="12.0543838"><ele>441.0</ele><time>2026-05-02T15:35:17.299Z</time></trkpt><trkpt lat="46.0378236" lon="12.0545477"><ele>441.0</ele><time>2026-05-02T15:35:18.292Z</time></trkpt><trkpt lat="46.0379092" lon="12.0547135"><ele>441.0</ele><time>2026-05-02T15:35:19.301Z</time></trkpt><trkpt lat="46.0379965" lon="12.0548798"><ele>441.0</ele><time>2026-05-02T15:35:20.295Z</time></trkpt><trkpt lat="46.0380817" lon="12.0550498"><ele>441.25</ele><time>2026-05-02T15:35:21.391Z</time></trkpt><trkpt lat="46.0381658" lon="12.0552217"><ele>441.5</ele><time>2026-05-02T15:35:22.298Z</time></trkpt><trkpt lat="46.038248" lon="12.0553994"><ele>441.75</ele><time>2026-05-02T15:35:23.327Z</time></trkpt><trkpt lat="46.0383231" lon="12.0555841"><ele>442.0</ele><time>2026-05-02T15:35:24.298Z</time></trkpt><trkpt lat="46.0383951" lon="12.0557736"><ele>436.0</ele><time>2026-05-02T15:35:25.3Z</time></trkpt><trkpt lat="46.0384718" lon="12.0559636"><ele>430.0</ele><time>2026-05-02T15:35:26.292Z</time></trkpt><trkpt lat="46.0385572" lon="12.0561531"><ele>424.0</ele><time>2026-05-02T15:35:27.325Z</time></trkpt><trkpt lat="46.0386431" lon="12.0563429"><ele>424.0</ele><time>2026-05-02T15:35:28.297Z</time></trkpt><trkpt lat="46.0387283" lon="12.0565387"><ele>424.0</ele><time>2026-05-02T15:35:29.327Z</time></trkpt><trkpt lat="46.0388053" lon="12.0567417"><ele>424.0</ele><time>2026-05-02T15:35:30.301Z</time></trkpt><trkpt lat="46.0388825" lon="12.0569483"><ele>424.33333333333337</ele><time>2026-05-02T15:35:31.301Z</time></trkpt><trkpt lat="46.0389622" lon="12.0571537"><ele>424.66666666666663</ele><time>2026-05-02T15:35:32.298Z</time></trkpt><trkpt lat="46.0390476" lon="12.0573588"><ele>425.0</ele><time>2026-05-02T15:35:33.3Z</time></trkpt><trkpt lat="46.0391293" lon="12.0575549"><ele>420.25</ele><time>2026-05-02T15:35:34.324Z</time></trkpt><trkpt lat="46.0392072" lon="12.0577357"><ele>415.5</ele><time>2026-05-02T15:35:35.327Z</time></trkpt><trkpt lat="46.0392806" lon="12.0579112"><ele>410.75</ele><time>2026-05-02T15:35:36.299Z</time></trkpt><trkpt lat="46.0393522" lon="12.0580764"><ele>406.0</ele><time>2026-05-02T15:35:37.326Z</time></trkpt><trkpt lat="46.0394163" lon="12.0582313"><ele>405.75</ele><time>2026-05-02T15:35:38.291Z</time></trkpt><trkpt lat="46.0394713" lon="12.0583872"><ele>405.5</ele><time>2026-05-02T15:35:39.326Z</time></trkpt><trkpt lat="46.0395124" lon="12.0585457"><ele>405.25</ele><time>2026-05-02T15:35:40.299Z</time></trkpt><trkpt lat="46.0395544" lon="12.0587039"><ele>405.0</ele><time>2026-05-02T15:35:41.299Z</time></trkpt><trkpt lat="46.0396115" lon="12.0588509"><ele>405.0</ele><time>2026-05-02T15:35:42.291Z</time></trkpt><trkpt lat="46.0396863" lon="12.0589882"><ele>405.0</ele><time>2026-05-02T15:35:43.298Z</time></trkpt><trkpt lat="46.0397691" lon="12.059109"><ele>405.0</ele><time>2026-05-02T15:35:44.302Z</time></trkpt><trkpt lat="46.0398487" lon="12.059227"><ele>405.0</ele><time>2026-05-02T15:35:45.298Z</time></trkpt><trkpt lat="46.0399277" lon="12.0593418"><ele>401.0</ele><time>2026-05-02T15:35:46.299Z</time></trkpt><trkpt lat="46.0400023" lon="12.0594578"><ele>397.0</ele><time>2026-05-02T15:35:47.3Z</time></trkpt><trkpt lat="46.0400633" lon="12.0595894"><ele>393.0</ele><time>2026-05-02T15:35:48.298Z</time></trkpt><trkpt lat="46.0401038" lon="12.0597391"><ele>389.0</ele><time>2026-05-02T15:35:49.291Z</time></trkpt><trkpt lat="46.0401447" lon="12.0598908"><ele>385.0</ele><time>2026-05-02T15:35:50.292Z</time></trkpt><trkpt lat="46.0401863" lon="12.0600446"><ele>385.0</ele><time>2026-05-02T15:35:51.328Z</time></trkpt><trkpt lat="46.040232" lon="12.0601931"><ele>385.0</ele><time>2026-05-02T15:35:52.299Z</time></trkpt><trkpt lat="46.0402809" lon="12.0603456"><ele>385.0</ele><time>2026-05-02T15:35:53.299Z</time></trkpt><trkpt lat="46.0403258" lon="12.0604958"><ele>385.0</ele><time>2026-05-02T15:35:54.3Z</time></trkpt><trkpt lat="46.0403534" lon="12.0606376"><ele>385.0</ele><time>2026-05-02T15:35:55.29Z</time></trkpt><trkpt lat="46.0403672" lon="12.0607775"><ele>385.1666666666667</ele><time>2026-05-02T15:35:56.326Z</time></trkpt><trkpt lat="46.0403575" lon="12.0609185"><ele>385.33333333333337</ele><time>2026-05-02T15:35:57.293Z</time></trkpt><trkpt lat="46.040357" lon="12.0610459"><ele>385.5</ele><time>2026-05-02T15:35:58.298Z</time></trkpt><trkpt lat="46.0403786" lon="12.0611649"><ele>385.66666666666663</ele><time>2026-05-02T15:35:59.293Z</time></trkpt><trkpt lat="46.0404232" lon="12.0612669"><ele>385.8333333333333</ele><time>2026-05-02T15:36:00.294Z</time></trkpt><trkpt lat="46.0404765" lon="12.0613671"><ele>386.0</ele><time>2026-05-02T15:36:01.3Z</time></trkpt><trkpt lat="46.0405204" lon="12.0614805"><ele>386.0</ele><time>2026-05-02T15:36:02.297Z</time></trkpt><trkpt lat="46.040545" lon="12.0616087"><ele>386.0</ele><time>2026-05-02T15:36:03.291Z</time></trkpt><trkpt lat="46.0405597" lon="12.0617424"><ele>386.0</ele><time>2026-05-02T15:36:04.291Z</time></trkpt><trkpt lat="46.0405677" lon="12.0618765"><ele>386.0</ele><time>2026-05-02T15:36:05.293Z</time></trkpt><trkpt lat="46.0405734" lon="12.0620098"><ele>386.0</ele><time>2026-05-02T15:36:06.292Z</time></trkpt><trkpt lat="46.0405765" lon="12.0621485"><ele>385.8</ele><time>2026-05-02T15:36:07.293Z</time></trkpt><trkpt lat="46.0405786" lon="12.0622886"><ele>385.6</ele><time>2026-05-02T15:36:08.301Z</time></trkpt><trkpt lat="46.0405714" lon="12.0624285"><ele>385.4</ele><time>2026-05-02T15:36:09.3Z</time></trkpt><trkpt lat="46.0405571" lon="12.0625706"><ele>385.2</ele><time>2026-05-02T15:36:10.299Z</time></trkpt><trkpt lat="46.0405403" lon="12.0627166"><ele>385.0</ele><time>2026-05-02T15:36:11.291Z</time></trkpt><trkpt lat="46.040526" lon="12.0628572"><ele>384.6666666666667</ele><time>2026-05-02T15:36:12.293Z</time></trkpt><trkpt lat="46.0405097" lon="12.0629839"><ele>384.33333333333337</ele><time>2026-05-02T15:36:13.3Z</time></trkpt><trkpt lat="46.0404976" lon="12.0631077"><ele>384.0</ele><time>2026-05-02T15:36:14.315Z</time></trkpt><trkpt lat="46.0405378" lon="12.0632167"><ele>383.6666666666667</ele><time>2026-05-02T15:36:15.294Z</time></trkpt><trkpt lat="46.0405971" lon="12.0633041"><ele>383.33333333333337</ele><time>2026-05-02T15:36:16.302Z</time></trkpt><trkpt lat="46.0406746" lon="12.0633607"><ele>383.0</ele><time>2026-05-02T15:36:17.3Z</time></trkpt><trkpt lat="46.0407573" lon="12.0633848"><ele>379.83333333333337</ele><time>2026-05-02T15:36:18.306Z</time></trkpt><trkpt lat="46.040837" lon="12.0634136"><ele>376.6666666666667</ele><time>2026-05-02T15:36:19.296Z</time></trkpt><trkpt lat="46.0409174" lon="12.0634346"><ele>373.5</ele><time>2026-05-02T15:36:20.301Z</time></trkpt><trkpt lat="46.0409904" lon="12.0634623"><ele>370.3333333333333</ele><time>2026-05-02T15:36:21.3Z</time></trkpt><trkpt lat="46.0410593" lon="12.0634827"><ele>367.16666666666663</ele><time>2026-05-02T15:36:22.293Z</time></trkpt><trkpt lat="46.0411259" lon="12.0635002"><ele>364.0</ele><time>2026-05-02T15:36:23.291Z</time></trkpt><trkpt lat="46.0412402" lon="12.0635285"><ele>364.0</ele><time>2026-05-02T15:36:25.292Z</time></trkpt><trkpt lat="46.0413501" lon="12.0635538"><ele>364.0</ele><time>2026-05-02T15:36:27.291Z</time></trkpt><trkpt lat="46.0414528" lon="12.0635535"><ele>364.0</ele><time>2026-05-02T15:36:29.29Z</time></trkpt><trkpt lat="46.0415319" lon="12.0635437"><ele>364.0</ele><time>2026-05-02T15:36:31.29Z</time></trkpt><trkpt lat="46.0416002" lon="12.0635585"><ele>364.0</ele><time>2026-05-02T15:36:33.29Z</time></trkpt><trkpt lat="46.0416787" lon="12.0636199"><ele>364.3333333333333</ele><time>2026-05-02T15:36:38.291Z</time></trkpt><trkpt lat="46.0417598" lon="12.0636135"><ele>364.66666666666663</ele><time>2026-05-02T15:36:40.295Z</time></trkpt><trkpt lat="46.041855" lon="12.0636495"><ele>365.0</ele><time>2026-05-02T15:36:42.293Z</time></trkpt><trkpt lat="46.0419231" lon="12.0636489"><ele>365.3333333333333</ele><time>2026-05-02T15:36:44.293Z</time></trkpt><trkpt lat="46.041985" lon="12.0636137"><ele>365.6666666666667</ele><time>2026-05-02T15:36:46.294Z</time></trkpt><trkpt lat="46.0420842" lon="12.0635816"><ele>366.0</ele><time>2026-05-02T15:36:48.297Z</time></trkpt><trkpt lat="46.0421802" lon="12.0635622"><ele>366.0</ele><time>2026-05-02T15:36:50.299Z</time></trkpt><trkpt lat="46.0422474" lon="12.0635494"><ele>366.0</ele><time>2026-05-02T15:36:51.291Z</time></trkpt><trkpt lat="46.0423777" lon="12.06351"><ele>366.0</ele><time>2026-05-02T15:36:53.295Z</time></trkpt><trkpt lat="46.0424435" lon="12.0634825"><ele>366.0</ele><time>2026-05-02T15:36:54.301Z</time></trkpt><trkpt lat="46.0425127" lon="12.063455"><ele>366.0</ele><time>2026-05-02T15:36:55.291Z</time></trkpt><trkpt lat="46.0426249" lon="12.0634562"><ele>365.6666666666667</ele><time>2026-05-02T15:36:57.296Z</time></trkpt><trkpt lat="46.042688" lon="12.0635519"><ele>365.3333333333333</ele><time>2026-05-02T15:36:59.293Z</time></trkpt><trkpt lat="46.0427309" lon="12.0636656"><ele>365.0</ele><time>2026-05-02T15:37:01.294Z</time></trkpt><trkpt lat="46.0427454" lon="12.0637594"><ele>364.66666666666663</ele><time>2026-05-02T15:37:03.292Z</time></trkpt><trkpt lat="46.0427188" lon="12.0638631"><ele>364.3333333333333</ele><time>2026-05-02T15:37:05.292Z</time></trkpt><trkpt lat="46.0427042" lon="12.0639661"><ele>364.0</ele><time>2026-05-02T15:37:07.293Z</time></trkpt><trkpt lat="46.0427568" lon="12.0640343"><ele>364.0</ele><time>2026-05-02T15:37:10.294Z</time></trkpt><trkpt lat="46.0428277" lon="12.064067"><ele>364.0</ele><time>2026-05-02T15:37:15.293Z</time></trkpt><trkpt lat="46.0428915" lon="12.0641014"><ele>364.0</ele><time>2026-05-02T15:37:18.294Z</time></trkpt><trkpt lat="46.0429633" lon="12.0641586"><ele>364.0</ele><time>2026-05-02T15:37:23.296Z</time></trkpt><trkpt lat="46.0430316" lon="12.0641907"><ele>364.0</ele><time>2026-05-02T15:37:26.299Z</time></trkpt><trkpt lat="46.0430962" lon="12.0642181"><ele>364.0</ele><time>2026-05-02T15:37:28.291Z</time></trkpt><trkpt lat="46.0431699" lon="12.0642232"><ele>364.0</ele><time>2026-05-02T15:37:30.293Z</time></trkpt><trkpt lat="46.0432499" lon="12.064252"><ele>364.16666666666663</ele><time>2026-05-02T15:37:32.292Z</time></trkpt><trkpt lat="46.0433297" lon="12.0643096"><ele>364.3333333333333</ele><time>2026-05-02T15:37:34.294Z</time></trkpt><trkpt lat="46.0433968" lon="12.0643576"><ele>364.5</ele><time>2026-05-02T15:37:36.302Z</time></trkpt><trkpt lat="46.0434695" lon="12.0643958"><ele>364.6666666666667</ele><time>2026-05-02T15:37:38.302Z</time></trkpt><trkpt lat="46.043544" lon="12.0644334"><ele>364.83333333333337</ele><time>2026-05-02T15:37:40.296Z</time></trkpt><trkpt lat="46.0436115" lon="12.0644741"><ele>365.0</ele><time>2026-05-02T15:37:42.299Z</time></trkpt><trkpt lat="46.0436855" lon="12.0645186"><ele>365.0</ele><time>2026-05-02T15:37:44.299Z</time></trkpt><trkpt lat="46.043772" lon="12.0645862"><ele>365.0</ele><time>2026-05-02T15:37:46.295Z</time></trkpt><trkpt lat="46.043874" lon="12.064672"><ele>365.0</ele><time>2026-05-02T15:37:48.299Z</time></trkpt><trkpt lat="46.0439293" lon="12.0647293"><ele>365.0</ele><time>2026-05-02T15:37:49.3Z</time></trkpt><trkpt lat="46.0439809" lon="12.0647964"><ele>365.0</ele><time>2026-05-02T15:37:50.3Z</time></trkpt><trkpt lat="46.0440235" lon="12.064878"><ele>365.0</ele><time>2026-05-02T15:37:51.301Z</time></trkpt><trkpt lat="46.0440448" lon="12.0649758"><ele>365.1666666666667</ele><time>2026-05-02T15:37:52.299Z</time></trkpt><trkpt lat="46.044047" lon="12.0650885"><ele>365.33333333333337</ele><time>2026-05-02T15:37:53.302Z</time></trkpt><trkpt lat="46.0440402" lon="12.0652093"><ele>365.5</ele><time>2026-05-02T15:37:54.301Z</time></trkpt><trkpt lat="46.0440324" lon="12.06534"><ele>365.6666666666667</ele><time>2026-05-02T15:37:55.298Z</time></trkpt><trkpt lat="46.0440249" lon="12.0654764"><ele>365.8333333333333</ele><time>2026-05-02T15:37:56.298Z</time></trkpt><trkpt lat="46.044019" lon="12.0656135"><ele>366.0</ele><time>2026-05-02T15:37:57.3Z</time></trkpt><trkpt lat="46.0440166" lon="12.0657575"><ele>366.20000000000005</ele><time>2026-05-02T15:37:58.302Z</time></trkpt><trkpt lat="46.0440139" lon="12.0659055"><ele>366.40000000000003</ele><time>2026-05-02T15:37:59.299Z</time></trkpt><trkpt lat="46.0440129" lon="12.0660572"><ele>366.6</ele><time>2026-05-02T15:38:00.298Z</time></trkpt><trkpt lat="46.0440124" lon="12.0662058"><ele>366.8</ele><time>2026-05-02T15:38:01.3Z</time></trkpt><trkpt lat="46.0440098" lon="12.0663461"><ele>367.0</ele><time>2026-05-02T15:38:02.299Z</time></trkpt><trkpt lat="46.0440049" lon="12.0664822"><ele>368.20000000000005</ele><time>2026-05-02T15:38:03.295Z</time></trkpt><trkpt lat="46.0439859" lon="12.066616"><ele>369.4</ele><time>2026-05-02T15:38:04.296Z</time></trkpt><trkpt lat="46.0439655" lon="12.0667542"><ele>370.6</ele><time>2026-05-02T15:38:05.301Z</time></trkpt><trkpt lat="46.0439418" lon="12.0668939"><ele>371.79999999999995</ele><time>2026-05-02T15:38:06.302Z</time></trkpt><trkpt lat="46.0439219" lon="12.0670341"><ele>373.0</ele><time>2026-05-02T15:38:07.303Z</time></trkpt><trkpt lat="46.0438971" lon="12.0671713"><ele>373.0</ele><time>2026-05-02T15:38:08.298Z</time></trkpt><trkpt lat="46.0438801" lon="12.0673016"><ele>373.0</ele><time>2026-05-02T15:38:09.294Z</time></trkpt><trkpt lat="46.043865" lon="12.0674259"><ele>373.0</ele><time>2026-05-02T15:38:10.292Z</time></trkpt><trkpt lat="46.0438423" lon="12.0675444"><ele>373.0</ele><time>2026-05-02T15:38:11.292Z</time></trkpt><trkpt lat="46.0438247" lon="12.067665"><ele>373.0</ele><time>2026-05-02T15:38:12.3Z</time></trkpt><trkpt lat="46.0438255" lon="12.0678023"><ele>373.0</ele><time>2026-05-02T15:38:13.3Z</time></trkpt><trkpt lat="46.0438334" lon="12.067935"><ele>373.0</ele><time>2026-05-02T15:38:14.301Z</time></trkpt><trkpt lat="46.0438393" lon="12.0680701"><ele>373.0</ele><time>2026-05-02T15:38:15.297Z</time></trkpt><trkpt lat="46.0438486" lon="12.0681982"><ele>373.0</ele><time>2026-05-02T15:38:16.3Z</time></trkpt><trkpt lat="46.0438476" lon="12.0683136"><ele>373.0</ele><time>2026-05-02T15:38:17.291Z</time></trkpt><trkpt lat="46.0438318" lon="12.0684152"><ele>373.0</ele><time>2026-05-02T15:38:18.3Z</time></trkpt><trkpt lat="46.0437971" lon="12.0685505"><ele>373.0</ele><time>2026-05-02T15:38:20.3Z</time></trkpt><trkpt lat="46.0437713" lon="12.0686788"><ele>373.0</ele><time>2026-05-02T15:38:23.3Z</time></trkpt><trkpt lat="46.0438409" lon="12.0686838"><ele>373.0</ele><time>2026-05-02T15:38:27.302Z</time></trkpt><trkpt lat="46.0438673" lon="12.0685745"><ele>373.0</ele><time>2026-05-02T15:38:32.3Z</time></trkpt><trkpt lat="46.0439271" lon="12.0684561"><ele>373.0</ele><time>2026-05-02T15:38:34.297Z</time></trkpt><trkpt lat="46.0439862" lon="12.0682909"><ele>373.0</ele><time>2026-05-02T15:38:36.3Z</time></trkpt><trkpt lat="46.0440112" lon="12.0682063"><ele>373.0</ele><time>2026-05-02T15:38:37.301Z</time></trkpt><trkpt lat="46.0440514" lon="12.0680798"><ele>373.0</ele><time>2026-05-02T15:38:39.302Z</time></trkpt><trkpt lat="46.0440894" lon="12.0680061"><ele>373.0</ele><time>2026-05-02T15:38:41.298Z</time></trkpt><trkpt lat="46.0441571" lon="12.067977"><ele>373.0</ele><time>2026-05-02T15:38:45.3Z</time></trkpt><trkpt lat="46.0442337" lon="12.0679669"><ele>373.0</ele><time>2026-05-02T15:38:48.292Z</time></trkpt><trkpt lat="46.0443038" lon="12.0679689"><ele>373.0</ele><time>2026-05-02T15:38:50.297Z</time></trkpt><trkpt lat="46.0443984" lon="12.0680196"><ele>373.0</ele><time>2026-05-02T15:38:52.302Z</time></trkpt><trkpt lat="46.0445208" lon="12.0680729"><ele>368.0</ele><time>2026-05-02T15:38:54.299Z</time></trkpt><trkpt lat="46.0445898" lon="12.068106"><ele>363.0</ele><time>2026-05-02T15:38:55.301Z</time></trkpt><trkpt lat="46.0446621" lon="12.068126"><ele>358.0</ele><time>2026-05-02T15:38:56.302Z</time></trkpt><trkpt lat="46.0447391" lon="12.0681355"><ele>353.0</ele><time>2026-05-02T15:38:57.323Z</time></trkpt><trkpt lat="46.0448184" lon="12.0681396"><ele>348.0</ele><time>2026-05-02T15:38:58.292Z</time></trkpt><trkpt lat="46.0448955" lon="12.0681357"><ele>343.0</ele><time>2026-05-02T15:38:59.302Z</time></trkpt><trkpt lat="46.0449754" lon="12.0681306"><ele>339.16666666666663</ele><time>2026-05-02T15:39:00.302Z</time></trkpt><trkpt lat="46.0450544" lon="12.06812"><ele>335.3333333333333</ele><time>2026-05-02T15:39:01.299Z</time></trkpt><trkpt lat="46.0451324" lon="12.068115"><ele>331.5</ele><time>2026-05-02T15:39:02.304Z</time></trkpt><trkpt lat="46.0452096" lon="12.0681028"><ele>327.6666666666667</ele><time>2026-05-02T15:39:03.299Z</time></trkpt><trkpt lat="46.0452861" lon="12.0680987"><ele>323.83333333333337</ele><time>2026-05-02T15:39:04.298Z</time></trkpt><trkpt lat="46.04536" lon="12.0680972"><ele>320.0</ele><time>2026-05-02T15:39:05.299Z</time></trkpt><trkpt lat="46.045432" lon="12.0681086"><ele>320.0</ele><time>2026-05-02T15:39:06.296Z</time></trkpt><trkpt lat="46.045498" lon="12.0681342"><ele>320.0</ele><time>2026-05-02T15:39:07.3Z</time></trkpt><trkpt lat="46.0455648" lon="12.0681635"><ele>320.0</ele><time>2026-05-02T15:39:08.291Z</time></trkpt><trkpt lat="46.0456358" lon="12.0681719"><ele>320.0</ele><time>2026-05-02T15:39:09.291Z</time></trkpt><trkpt lat="46.0456994" lon="12.0681508"><ele>320.0</ele><time>2026-05-02T15:39:10.302Z</time></trkpt><trkpt lat="46.0457652" lon="12.0681339"><ele>320.0</ele><time>2026-05-02T15:39:11.301Z</time></trkpt><trkpt lat="46.0458252" lon="12.0680988"><ele>320.0</ele><time>2026-05-02T15:39:12.301Z</time></trkpt><trkpt lat="46.0459374" lon="12.0680175"><ele>319.7142857142857</ele><time>2026-05-02T15:39:14.296Z</time></trkpt><trkpt lat="46.045996" lon="12.0679775"><ele>319.42857142857144</ele><time>2026-05-02T15:39:15.299Z</time></trkpt><trkpt lat="46.0460543" lon="12.0679341"><ele>319.1428571428571</ele><time>2026-05-02T15:39:16.299Z</time></trkpt><trkpt lat="46.0461129" lon="12.067889"><ele>318.8571428571429</ele><time>2026-05-02T15:39:17.301Z</time></trkpt><trkpt lat="46.0461709" lon="12.0678462"><ele>318.5714285714286</ele><time>2026-05-02T15:39:18.3Z</time></trkpt><trkpt lat="46.0462292" lon="12.0678025"><ele>318.2857142857143</ele><time>2026-05-02T15:39:19.301Z</time></trkpt><trkpt lat="46.046291" lon="12.0677561"><ele>318.0</ele><time>2026-05-02T15:39:20.301Z</time></trkpt><trkpt lat="46.0463483" lon="12.0677033"><ele>318.0</ele><time>2026-05-02T15:39:21.296Z</time></trkpt><trkpt lat="46.0464119" lon="12.0676426"><ele>318.0</ele><time>2026-05-02T15:39:22.295Z</time></trkpt><trkpt lat="46.0464704" lon="12.0675802"><ele>318.0</ele><time>2026-05-02T15:39:23.301Z</time></trkpt><trkpt lat="46.0465191" lon="12.0675136"><ele>318.0</ele><time>2026-05-02T15:39:24.3Z</time></trkpt><trkpt lat="46.0465699" lon="12.0674524"><ele>318.0</ele><time>2026-05-02T15:39:25.302Z</time></trkpt><trkpt lat="46.0466686" lon="12.0673477"><ele>318.0</ele><time>2026-05-02T15:39:27.298Z</time></trkpt><trkpt lat="46.0467746" lon="12.0672655"><ele>317.8333333333333</ele><time>2026-05-02T15:39:29.296Z</time></trkpt><trkpt lat="46.0468792" lon="12.0671855"><ele>317.6666666666667</ele><time>2026-05-02T15:39:31.299Z</time></trkpt><trkpt lat="46.0469338" lon="12.0671388"><ele>317.5</ele><time>2026-05-02T15:39:32.3Z</time></trkpt><trkpt lat="46.0470417" lon="12.0670477"><ele>317.33333333333337</ele><time>2026-05-02T15:39:34.298Z</time></trkpt><trkpt lat="46.0470981" lon="12.0670061"><ele>317.1666666666667</ele><time>2026-05-02T15:39:35.299Z</time></trkpt><trkpt lat="46.0471557" lon="12.0669606"><ele>317.0</ele><time>2026-05-02T15:39:36.3Z</time></trkpt><trkpt lat="46.047218" lon="12.0669214"><ele>317.0</ele><time>2026-05-02T15:39:37.292Z</time></trkpt><trkpt lat="46.0472794" lon="12.0668819"><ele>317.0</ele><time>2026-05-02T15:39:38.291Z</time></trkpt><trkpt lat="46.0473411" lon="12.0668449"><ele>317.0</ele><time>2026-05-02T15:39:39.299Z</time></trkpt><trkpt lat="46.0474058" lon="12.0668046"><ele>317.0</ele><time>2026-05-02T15:39:40.299Z</time></trkpt><trkpt lat="46.04747" lon="12.0667698"><ele>317.0</ele><time>2026-05-02T15:39:41.301Z</time></trkpt><trkpt lat="46.0475344" lon="12.0667374"><ele>317.0</ele><time>2026-05-02T15:39:42.299Z</time></trkpt><trkpt lat="46.0475965" lon="12.0667077"><ele>317.0</ele><time>2026-05-02T15:39:43.299Z</time></trkpt><trkpt lat="46.0476581" lon="12.0666866"><ele>316.1666666666667</ele><time>2026-05-02T15:39:44.299Z</time></trkpt><trkpt lat="46.0477236" lon="12.0666683"><ele>315.33333333333337</ele><time>2026-05-02T15:39:45.297Z</time></trkpt><trkpt lat="46.0478296" lon="12.0666468"><ele>314.5</ele><time>2026-05-02T15:39:47.291Z</time></trkpt><trkpt lat="46.047904" lon="12.0666431"><ele>313.6666666666667</ele><time>2026-05-02T15:39:49.297Z</time></trkpt><trkpt lat="46.0479689" lon="12.0666705"><ele>312.8333333333333</ele><time>2026-05-02T15:40:00.295Z</time></trkpt><trkpt lat="46.0479988" lon="12.0667752"><ele>312.0</ele><time>2026-05-02T15:40:03.299Z</time></trkpt><trkpt lat="46.0479998" lon="12.066896"><ele>312.0</ele><time>2026-05-02T15:40:05.3Z</time></trkpt><trkpt lat="46.0480249" lon="12.0670304"><ele>312.0</ele><time>2026-05-02T15:40:07.3Z</time></trkpt><trkpt lat="46.0480517" lon="12.0671633"><ele>312.0</ele><time>2026-05-02T15:40:09.295Z</time></trkpt><trkpt lat="46.0480869" lon="12.067291"><ele>312.0</ele><time>2026-05-02T15:40:11.292Z</time></trkpt><trkpt lat="46.0481338" lon="12.0673992"><ele>312.0</ele><time>2026-05-02T15:40:13.3Z</time></trkpt><trkpt lat="46.0481385" lon="12.0675138"><ele>312.0</ele><time>2026-05-02T15:40:16.292Z</time></trkpt><trkpt lat="46.0481753" lon="12.0674367"><ele>312.0</ele><time>2026-05-02T15:40:57.293Z</time></trkpt><trkpt lat="46.0481147" lon="12.0673415"><ele>312.0</ele><time>2026-05-02T15:41:11.3Z</time></trkpt><trkpt lat="46.0480732" lon="12.0672324"><ele>312.0</ele><time>2026-05-02T15:41:14.301Z</time></trkpt><trkpt lat="46.0480435" lon="12.0671442"><ele>312.0</ele><time>2026-05-02T15:41:16.3Z</time></trkpt><trkpt lat="46.0480189" lon="12.0670324"><ele>312.0</ele><time>2026-05-02T15:41:18.298Z</time></trkpt><trkpt lat="46.0480051" lon="12.0669147"><ele>312.0</ele><time>2026-05-02T15:41:20.299Z</time></trkpt><trkpt lat="46.0479933" lon="12.06681"><ele>312.0</ele><time>2026-05-02T15:41:22.299Z</time></trkpt><trkpt lat="46.047984" lon="12.0667118"><ele>312.0</ele><time>2026-05-02T15:41:24.302Z</time></trkpt><trkpt lat="46.0479831" lon="12.0665982"><ele>312.0</ele><time>2026-05-02T15:41:26.299Z</time></trkpt><trkpt lat="46.0479868" lon="12.0664792"><ele>312.0</ele><time>2026-05-02T15:41:28.299Z</time></trkpt><trkpt lat="46.0479831" lon="12.0663686"><ele>312.0</ele><time>2026-05-02T15:41:30.299Z</time></trkpt><trkpt lat="46.047985" lon="12.0662576"><ele>312.3333333333333</ele><time>2026-05-02T15:41:32.301Z</time></trkpt><trkpt lat="46.0479865" lon="12.066135"><ele>312.6666666666667</ele><time>2026-05-02T15:41:34.299Z</time></trkpt><trkpt lat="46.0479823" lon="12.066008"><ele>313.0</ele><time>2026-05-02T15:41:36.3Z</time></trkpt><trkpt lat="46.0479778" lon="12.0658807"><ele>313.33333333333337</ele><time>2026-05-02T15:41:38.292Z</time></trkpt><trkpt lat="46.0479837" lon="12.0657585"><ele>313.6666666666667</ele><time>2026-05-02T15:41:40.3Z</time></trkpt><trkpt lat="46.0479901" lon="12.0656512"><ele>314.0</ele><time>2026-05-02T15:41:42.299Z</time></trkpt><trkpt lat="46.0480621" lon="12.0656133"><ele>314.0</ele><time>2026-05-02T15:41:45.291Z</time></trkpt><trkpt lat="46.0480926" lon="12.0657178"><ele>314.0</ele><time>2026-05-02T15:41:47.292Z</time></trkpt><trkpt lat="46.0481181" lon="12.0658459"><ele>314.0</ele><time>2026-05-02T15:41:49.299Z</time></trkpt><trkpt lat="46.0481531" lon="12.0659789"><ele>314.0</ele><time>2026-05-02T15:41:51.298Z</time></trkpt><trkpt lat="46.0481939" lon="12.0661226"><ele>314.0</ele><time>2026-05-02T15:41:53.299Z</time></trkpt><trkpt lat="46.0482371" lon="12.0662714"><ele>313.6666666666667</ele><time>2026-05-02T15:41:55.293Z</time></trkpt><trkpt lat="46.0482932" lon="12.0664198"><ele>313.33333333333337</ele><time>2026-05-02T15:41:57.3Z</time></trkpt><trkpt lat="46.0483548" lon="12.0665773"><ele>313.0</ele><time>2026-05-02T15:41:59.299Z</time></trkpt><trkpt lat="46.048389" lon="12.0666556"><ele>312.6666666666667</ele><time>2026-05-02T15:42:00.299Z</time></trkpt><trkpt lat="46.0484201" lon="12.066736"><ele>312.3333333333333</ele><time>2026-05-02T15:42:01.3Z</time></trkpt><trkpt lat="46.0484534" lon="12.0668153"><ele>312.0</ele><time>2026-05-02T15:42:02.296Z</time></trkpt><trkpt lat="46.0484905" lon="12.0668913"><ele>312.0</ele><time>2026-05-02T15:42:03.293Z</time></trkpt><trkpt lat="46.0485324" lon="12.0669655"><ele>312.0</ele><time>2026-05-02T15:42:04.29Z</time></trkpt><trkpt lat="46.0486094" lon="12.0671064"><ele>312.0</ele><time>2026-05-02T15:42:06.299Z</time></trkpt><trkpt lat="46.0486896" lon="12.0672394"><ele>312.0</ele><time>2026-05-02T15:42:08.298Z</time></trkpt><trkpt lat="46.0487709" lon="12.0673575"><ele>312.0</ele><time>2026-05-02T15:42:10.301Z</time></trkpt><trkpt lat="46.0488538" lon="12.0674711"><ele>311.25</ele><time>2026-05-02T15:42:12.3Z</time></trkpt><trkpt lat="46.0489347" lon="12.067577"><ele>310.5</ele><time>2026-05-02T15:42:14.301Z</time></trkpt><trkpt lat="46.049017" lon="12.0676748"><ele>309.75</ele><time>2026-05-02T15:42:16.299Z</time></trkpt><trkpt lat="46.0491028" lon="12.067775"><ele>309.0</ele><time>2026-05-02T15:42:18.298Z</time></trkpt><trkpt lat="46.049201" lon="12.0678828"><ele>309.75</ele><time>2026-05-02T15:42:20.299Z</time></trkpt><trkpt lat="46.0492992" lon="12.0679886"><ele>310.5</ele><time>2026-05-02T15:42:22.3Z</time></trkpt><trkpt lat="46.0494015" lon="12.0680886"><ele>311.25</ele><time>2026-05-02T15:42:24.301Z</time></trkpt><trkpt lat="46.0494977" lon="12.0681911"><ele>312.0</ele><time>2026-05-02T15:42:26.292Z</time></trkpt><trkpt lat="46.0495934" lon="12.0682946"><ele>312.0</ele><time>2026-05-02T15:42:28.301Z</time></trkpt><trkpt lat="46.0496939" lon="12.0683943"><ele>312.0</ele><time>2026-05-02T15:42:30.3Z</time></trkpt><trkpt lat="46.0497436" lon="12.0684513"><ele>312.0</ele><time>2026-05-02T15:42:31.299Z</time></trkpt><trkpt lat="46.0497966" lon="12.068511"><ele>312.0</ele><time>2026-05-02T15:42:32.291Z</time></trkpt><trkpt lat="46.0498487" lon="12.068565"><ele>312.0</ele><time>2026-05-02T15:42:33.322Z</time></trkpt><trkpt lat="46.0499037" lon="12.0686151"><ele>312.0</ele><time>2026-05-02T15:42:34.3Z</time></trkpt><trkpt lat="46.0499552" lon="12.0686725"><ele>312.0</ele><time>2026-05-02T15:42:35.293Z</time></trkpt><trkpt lat="46.05001" lon="12.0687282"><ele>311.2857142857143</ele><time>2026-05-02T15:42:36.297Z</time></trkpt><trkpt lat="46.0500645" lon="12.0687835"><ele>310.57142857142856</ele><time>2026-05-02T15:42:37.3Z</time></trkpt><trkpt lat="46.0501211" lon="12.0688358"><ele>309.85714285714283</ele><time>2026-05-02T15:42:38.299Z</time></trkpt><trkpt lat="46.0501712" lon="12.0688923"><ele>309.1428571428571</ele><time>2026-05-02T15:42:39.299Z</time></trkpt><trkpt lat="46.0502256" lon="12.0689487"><ele>308.42857142857144</ele><time>2026-05-02T15:42:40.299Z</time></trkpt><trkpt lat="46.0502786" lon="12.0690048"><ele>307.71428571428567</ele><time>2026-05-02T15:42:41.299Z</time></trkpt><trkpt lat="46.0503313" lon="12.0690567"><ele>307.0</ele><time>2026-05-02T15:42:42.29Z</time></trkpt><trkpt lat="46.0503818" lon="12.0691117"><ele>309.2</ele><time>2026-05-02T15:42:43.291Z</time></trkpt><trkpt lat="46.0504842" lon="12.069221"><ele>311.4</ele><time>2026-05-02T15:42:45.298Z</time></trkpt><trkpt lat="46.0505347" lon="12.0692778"><ele>313.6</ele><time>2026-05-02T15:42:46.29Z</time></trkpt><trkpt lat="46.0505866" lon="12.0693339"><ele>315.8</ele><time>2026-05-02T15:42:47.317Z</time></trkpt><trkpt lat="46.0506881" lon="12.0694354"><ele>318.0</ele><time>2026-05-02T15:42:49.326Z</time></trkpt><trkpt lat="46.0507841" lon="12.0695343"><ele>317.2</ele><time>2026-05-02T15:42:51.298Z</time></trkpt><trkpt lat="46.0508783" lon="12.0696368"><ele>316.4</ele><time>2026-05-02T15:42:53.298Z</time></trkpt><trkpt lat="46.0509698" lon="12.0697279"><ele>315.59999999999997</ele><time>2026-05-02T15:42:55.3Z</time></trkpt><trkpt lat="46.0510487" lon="12.0698035"><ele>314.8</ele><time>2026-05-02T15:42:57.3Z</time></trkpt><trkpt lat="46.0511248" lon="12.0698679"><ele>314.0</ele><time>2026-05-02T15:42:59.305Z</time></trkpt><trkpt lat="46.0512276" lon="12.0698776"><ele>314.0</ele><time>2026-05-02T15:43:01.298Z</time></trkpt><trkpt lat="46.0513041" lon="12.0698402"><ele>314.0</ele><time>2026-05-02T15:43:03.296Z</time></trkpt><trkpt lat="46.0513654" lon="12.0697419"><ele>314.0</ele><time>2026-05-02T15:43:05.306Z</time></trkpt><trkpt lat="46.0514459" lon="12.0696352"><ele>314.0</ele><time>2026-05-02T15:43:07.3Z</time></trkpt><trkpt lat="46.0515423" lon="12.0695698"><ele>314.0</ele><time>2026-05-02T15:43:09.289Z</time></trkpt><trkpt lat="46.0516619" lon="12.0695633"><ele>314.0</ele><time>2026-05-02T15:43:11.299Z</time></trkpt><trkpt lat="46.051775" lon="12.069589"><ele>314.0</ele><time>2026-05-02T15:43:13.293Z</time></trkpt><trkpt lat="46.0518422" lon="12.0695683"><ele>314.0</ele><time>2026-05-02T15:43:16.299Z</time></trkpt><trkpt lat="46.0517781" lon="12.0695807"><ele>314.0</ele><time>2026-05-02T15:43:29.293Z</time></trkpt><trkpt lat="46.0517041" lon="12.0695765"><ele>314.0</ele><time>2026-05-02T15:43:57.3Z</time></trkpt><trkpt lat="46.0516376" lon="12.0695662"><ele>314.0</ele><time>2026-05-02T15:43:59.294Z</time></trkpt><trkpt lat="46.0515609" lon="12.0695666"><ele>314.0</ele><time>2026-05-02T15:44:01.299Z</time></trkpt><trkpt lat="46.0514911" lon="12.0695886"><ele>314.0</ele><time>2026-05-02T15:44:03.299Z</time></trkpt><trkpt lat="46.0514305" lon="12.0696373"><ele>314.0</ele><time>2026-05-02T15:44:05.3Z</time></trkpt><trkpt lat="46.0513772" lon="12.0696954"><ele>314.0</ele><time>2026-05-02T15:44:07.293Z</time></trkpt><trkpt lat="46.0513254" lon="12.0697635"><ele>314.0</ele><time>2026-05-02T15:44:09.292Z</time></trkpt><trkpt lat="46.0512806" lon="12.0698548"><ele>314.0</ele><time>2026-05-02T15:44:12.299Z</time></trkpt><trkpt lat="46.0512839" lon="12.0699963"><ele>314.5</ele><time>2026-05-02T15:44:39.3Z</time></trkpt><trkpt lat="46.0513477" lon="12.0700943"><ele>315.0</ele><time>2026-05-02T15:44:41.311Z</time></trkpt><trkpt lat="46.0514423" lon="12.0701948"><ele>315.5</ele><time>2026-05-02T15:44:43.295Z</time></trkpt><trkpt lat="46.0514956" lon="12.0702484"><ele>316.0</ele><time>2026-05-02T15:44:44.299Z</time></trkpt><trkpt lat="46.0515487" lon="12.0703018"><ele>316.5</ele><time>2026-05-02T15:44:45.293Z</time></trkpt><trkpt lat="46.0516029" lon="12.070358"><ele>317.0</ele><time>2026-05-02T15:44:46.291Z</time></trkpt><trkpt lat="46.051655" lon="12.070415"><ele>316.2857142857143</ele><time>2026-05-02T15:44:47.299Z</time></trkpt><trkpt lat="46.0517068" lon="12.0704776"><ele>315.57142857142856</ele><time>2026-05-02T15:44:48.293Z</time></trkpt><trkpt lat="46.0517644" lon="12.0705351"><ele>314.8571428571429</ele><time>2026-05-02T15:44:49.29Z</time></trkpt><trkpt lat="46.0518214" lon="12.070591"><ele>314.1428571428571</ele><time>2026-05-02T15:44:50.291Z</time></trkpt><trkpt lat="46.0518801" lon="12.0706512"><ele>313.4285714285714</ele><time>2026-05-02T15:44:51.3Z</time></trkpt><trkpt lat="46.0519377" lon="12.0707143"><ele>312.7142857142857</ele><time>2026-05-02T15:44:52.3Z</time></trkpt><trkpt lat="46.0519986" lon="12.0707754"><ele>312.0</ele><time>2026-05-02T15:44:53.299Z</time></trkpt><trkpt lat="46.0520592" lon="12.0708397"><ele>312.0</ele><time>2026-05-02T15:44:54.3Z</time></trkpt><trkpt lat="46.0521206" lon="12.0709056"><ele>312.0</ele><time>2026-05-02T15:44:55.301Z</time></trkpt><trkpt lat="46.0521803" lon="12.070967"><ele>312.0</ele><time>2026-05-02T15:44:56.29Z</time></trkpt><trkpt lat="46.0522397" lon="12.0710285"><ele>312.0</ele><time>2026-05-02T15:44:57.301Z</time></trkpt><trkpt lat="46.0522991" lon="12.0710894"><ele>312.0</ele><time>2026-05-02T15:44:58.3Z</time></trkpt><trkpt lat="46.0523615" lon="12.0711494"><ele>312.0</ele><time>2026-05-02T15:44:59.295Z</time></trkpt><trkpt lat="46.0524225" lon="12.0712119"><ele>312.0</ele><time>2026-05-02T15:45:00.292Z</time></trkpt><trkpt lat="46.0524818" lon="12.0712751"><ele>312.1666666666667</ele><time>2026-05-02T15:45:01.299Z</time></trkpt><trkpt lat="46.0525433" lon="12.0713364"><ele>312.3333333333333</ele><time>2026-05-02T15:45:02.3Z</time></trkpt><trkpt lat="46.0526048" lon="12.0714004"><ele>312.5</ele><time>2026-05-02T15:45:03.299Z</time></trkpt><trkpt lat="46.0526675" lon="12.0714648"><ele>312.66666666666663</ele><time>2026-05-02T15:45:04.298Z</time></trkpt><trkpt lat="46.0527292" lon="12.0715268"><ele>312.8333333333333</ele><time>2026-05-02T15:45:05.293Z</time></trkpt><trkpt lat="46.0527873" lon="12.0715918"><ele>313.0</ele><time>2026-05-02T15:45:06.293Z</time></trkpt><trkpt lat="46.0528485" lon="12.0716549"><ele>313.0</ele><time>2026-05-02T15:45:07.298Z</time></trkpt><trkpt lat="46.0529092" lon="12.0717188"><ele>313.0</ele><time>2026-05-02T15:45:08.299Z</time></trkpt><trkpt lat="46.0529726" lon="12.0717827"><ele>313.0</ele><time>2026-05-02T15:45:09.298Z</time></trkpt><trkpt lat="46.0530332" lon="12.0718467"><ele>313.0</ele><time>2026-05-02T15:45:10.291Z</time></trkpt><trkpt lat="46.0530946" lon="12.0719086"><ele>313.0</ele><time>2026-05-02T15:45:11.299Z</time></trkpt><trkpt lat="46.0531561" lon="12.0719707"><ele>313.0</ele><time>2026-05-02T15:45:12.292Z</time></trkpt><trkpt lat="46.0532195" lon="12.0720378"><ele>313.0</ele><time>2026-05-02T15:45:13.3Z</time></trkpt><trkpt lat="46.0532818" lon="12.0721072"><ele>313.0</ele><time>2026-05-02T15:45:14.294Z</time></trkpt><trkpt lat="46.053346" lon="12.0721733"><ele>313.0</ele><time>2026-05-02T15:45:15.3Z</time></trkpt><trkpt lat="46.0534101" lon="12.0722418"><ele>313.0</ele><time>2026-05-02T15:45:16.3Z</time></trkpt><trkpt lat="46.0534743" lon="12.0723078"><ele>313.0</ele><time>2026-05-02T15:45:17.291Z</time></trkpt><trkpt lat="46.0535368" lon="12.072371"><ele>313.0</ele><time>2026-05-02T15:45:18.3Z</time></trkpt><trkpt lat="46.0535984" lon="12.0724433"><ele>312.3333333333333</ele><time>2026-05-02T15:45:19.297Z</time></trkpt><trkpt lat="46.0536569" lon="12.0725153"><ele>311.66666666666663</ele><time>2026-05-02T15:45:20.3Z</time></trkpt><trkpt lat="46.0537201" lon="12.0725869"><ele>311.0</ele><time>2026-05-02T15:45:21.298Z</time></trkpt><trkpt lat="46.0537834" lon="12.0726548"><ele>310.3333333333333</ele><time>2026-05-02T15:45:22.292Z</time></trkpt><trkpt lat="46.0538482" lon="12.0727234"><ele>309.6666666666667</ele><time>2026-05-02T15:45:23.302Z</time></trkpt><trkpt lat="46.0539129" lon="12.072791"><ele>309.0</ele><time>2026-05-02T15:45:24.289Z</time></trkpt><trkpt lat="46.0539769" lon="12.0728574"><ele>309.0</ele><time>2026-05-02T15:45:25.29Z</time></trkpt><trkpt lat="46.0540403" lon="12.072924"><ele>309.0</ele><time>2026-05-02T15:45:26.29Z</time></trkpt><trkpt lat="46.0541051" lon="12.0729894"><ele>309.0</ele><time>2026-05-02T15:45:27.298Z</time></trkpt><trkpt lat="46.0541708" lon="12.0730514"><ele>309.0</ele><time>2026-05-02T15:45:28.294Z</time></trkpt><trkpt lat="46.0542354" lon="12.0731121"><ele>309.0</ele><time>2026-05-02T15:45:29.29Z</time></trkpt><trkpt lat="46.0543" lon="12.0731725"><ele>309.0</ele><time>2026-05-02T15:45:30.298Z</time></trkpt><trkpt lat="46.0543649" lon="12.073232"><ele>309.0</ele><time>2026-05-02T15:45:31.298Z</time></trkpt><trkpt lat="46.054432" lon="12.0732898"><ele>309.0</ele><time>2026-05-02T15:45:32.3Z</time></trkpt><trkpt lat="46.0545006" lon="12.0733443"><ele>309.0</ele><time>2026-05-02T15:45:33.294Z</time></trkpt><trkpt lat="46.0545693" lon="12.0733941"><ele>309.0</ele><time>2026-05-02T15:45:34.3Z</time></trkpt><trkpt lat="46.0546365" lon="12.0734427"><ele>309.0</ele><time>2026-05-02T15:45:35.3Z</time></trkpt><trkpt lat="46.0547054" lon="12.0734893"><ele>309.0</ele><time>2026-05-02T15:45:36.299Z</time></trkpt><trkpt lat="46.0547742" lon="12.073533"><ele>309.00000000000006</ele><time>2026-05-02T15:45:37.292Z</time></trkpt><trkpt lat="46.0548422" lon="12.0735747"><ele>309.0</ele><time>2026-05-02T15:45:38.292Z</time></trkpt><trkpt lat="46.0549095" lon="12.07362"><ele>309.0</ele><time>2026-05-02T15:45:39.306Z</time></trkpt><trkpt lat="46.054976" lon="12.0736627"><ele>309.0</ele><time>2026-05-02T15:45:40.299Z</time></trkpt><trkpt lat="46.0550438" lon="12.073704"><ele>309.0</ele><time>2026-05-02T15:45:41.299Z</time></trkpt><trkpt lat="46.0551116" lon="12.07375"><ele>309.00000000000006</ele><time>2026-05-02T15:45:42.301Z</time></trkpt><trkpt lat="46.0551768" lon="12.0737874"><ele>309.0</ele><time>2026-05-02T15:45:43.299Z</time></trkpt><trkpt lat="46.0552424" lon="12.0738245"><ele>308.0</ele><time>2026-05-02T15:45:44.297Z</time></trkpt><trkpt lat="46.0553085" lon="12.0738629"><ele>307.0</ele><time>2026-05-02T15:45:45.299Z</time></trkpt><trkpt lat="46.0553736" lon="12.0738949"><ele>306.0</ele><time>2026-05-02T15:45:46.298Z</time></trkpt><trkpt lat="46.0554398" lon="12.0739312"><ele>305.0</ele><time>2026-05-02T15:45:47.3Z</time></trkpt><trkpt lat="46.0555724" lon="12.0740012"><ele>304.0</ele><time>2026-05-02T15:45:49.298Z</time></trkpt><trkpt lat="46.0556364" lon="12.0740351"><ele>303.0</ele><time>2026-05-02T15:45:50.298Z</time></trkpt><trkpt lat="46.0556989" lon="12.0740712"><ele>303.6666666666667</ele><time>2026-05-02T15:45:51.29Z</time></trkpt><trkpt lat="46.0557615" lon="12.0741076"><ele>304.3333333333333</ele><time>2026-05-02T15:45:52.29Z</time></trkpt><trkpt lat="46.0558242" lon="12.0741444"><ele>305.0</ele><time>2026-05-02T15:45:53.3Z</time></trkpt><trkpt lat="46.0558845" lon="12.0741789"><ele>305.66666666666663</ele><time>2026-05-02T15:45:54.299Z</time></trkpt><trkpt lat="46.0559445" lon="12.0742069"><ele>306.3333333333333</ele><time>2026-05-02T15:45:55.291Z</time></trkpt><trkpt lat="46.0560583" lon="12.0742738"><ele>307.0</ele><time>2026-05-02T15:45:57.295Z</time></trkpt><trkpt lat="46.0561628" lon="12.0743241"><ele>307.0</ele><time>2026-05-02T15:45:59.299Z</time></trkpt><trkpt lat="46.0562642" lon="12.0743602"><ele>307.0</ele><time>2026-05-02T15:46:01.299Z</time></trkpt><trkpt lat="46.0563615" lon="12.0743876"><ele>307.0</ele><time>2026-05-02T15:46:03.294Z</time></trkpt><trkpt lat="46.0564635" lon="12.0744134"><ele>307.0</ele><time>2026-05-02T15:46:05.298Z</time></trkpt><trkpt lat="46.056564" lon="12.0744752"><ele>307.0</ele><time>2026-05-02T15:46:07.301Z</time></trkpt><trkpt lat="46.056612" lon="12.0745922"><ele>306.99999999999994</ele><time>2026-05-02T15:46:09.299Z</time></trkpt><trkpt lat="46.0566197" lon="12.0747132"><ele>307.0</ele><time>2026-05-02T15:46:11.295Z</time></trkpt><trkpt lat="46.0566252" lon="12.0748055"><ele>307.0</ele><time>2026-05-02T15:46:13.301Z</time></trkpt><trkpt lat="46.0565845" lon="12.0748789"><ele>307.0</ele><time>2026-05-02T15:47:01.293Z</time></trkpt><trkpt lat="46.0566321" lon="12.0747843"><ele>307.0</ele><time>2026-05-02T15:47:06.291Z</time></trkpt><trkpt lat="46.056661" lon="12.074698"><ele>306.99999999999994</ele><time>2026-05-02T15:47:09.29Z</time></trkpt><trkpt lat="46.0567028" lon="12.0746121"><ele>307.0</ele><time>2026-05-02T15:47:12.29Z</time></trkpt><trkpt lat="46.0567772" lon="12.0745306"><ele>307.0</ele><time>2026-05-02T15:47:15.29Z</time></trkpt><trkpt lat="46.0568394" lon="12.074496"><ele>307.0</ele><time>2026-05-02T15:47:17.29Z</time></trkpt><trkpt lat="46.0569035" lon="12.0744894"><ele>307.0</ele><time>2026-05-02T15:47:19.29Z</time></trkpt><trkpt lat="46.0569821" lon="12.0744963"><ele>307.0</ele><time>2026-05-02T15:47:22.29Z</time></trkpt><trkpt lat="46.0570815" lon="12.0745018"><ele>307.0</ele><time>2026-05-02T15:47:25.291Z</time></trkpt><trkpt lat="46.0571618" lon="12.0745068"><ele>307.0</ele><time>2026-05-02T15:47:27.29Z</time></trkpt><trkpt lat="46.057248" lon="12.0745194"><ele>307.0</ele><time>2026-05-02T15:47:29.292Z</time></trkpt><trkpt lat="46.0573436" lon="12.0745493"><ele>307.0</ele><time>2026-05-02T15:47:31.291Z</time></trkpt><trkpt lat="46.0574378" lon="12.0745671"><ele>307.0</ele><time>2026-05-02T15:47:33.293Z</time></trkpt><trkpt lat="46.0575375" lon="12.0745822"><ele>307.0</ele><time>2026-05-02T15:47:35.291Z</time></trkpt><trkpt lat="46.0576284" lon="12.0746061"><ele>307.0</ele><time>2026-05-02T15:47:37.291Z</time></trkpt><trkpt lat="46.0577231" lon="12.0746416"><ele>306.8333333333333</ele><time>2026-05-02T15:47:39.296Z</time></trkpt><trkpt lat="46.0578193" lon="12.0746906"><ele>306.66666666666663</ele><time>2026-05-02T15:47:41.294Z</time></trkpt><trkpt lat="46.0579355" lon="12.074743"><ele>306.5</ele><time>2026-05-02T15:47:43.292Z</time></trkpt><trkpt lat="46.0579952" lon="12.0747911"><ele>306.3333333333333</ele><time>2026-05-02T15:47:44.291Z</time></trkpt><trkpt lat="46.058056" lon="12.0748456"><ele>306.1666666666667</ele><time>2026-05-02T15:47:45.298Z</time></trkpt><trkpt lat="46.0581145" lon="12.0749052"><ele>306.0</ele><time>2026-05-02T15:47:46.303Z</time></trkpt><trkpt lat="46.0581739" lon="12.0749728"><ele>306.6666666666667</ele><time>2026-05-02T15:47:47.3Z</time></trkpt><trkpt lat="46.0582253" lon="12.0750469"><ele>307.3333333333333</ele><time>2026-05-02T15:47:48.3Z</time></trkpt><trkpt lat="46.058276" lon="12.0751253"><ele>308.0</ele><time>2026-05-02T15:47:49.294Z</time></trkpt><trkpt lat="46.0583298" lon="12.0752094"><ele>308.66666666666663</ele><time>2026-05-02T15:47:50.297Z</time></trkpt><trkpt lat="46.0583858" lon="12.07529"><ele>309.3333333333333</ele><time>2026-05-02T15:47:51.303Z</time></trkpt><trkpt lat="46.0584313" lon="12.0753824"><ele>310.0</ele><time>2026-05-02T15:47:52.3Z</time></trkpt><trkpt lat="46.0584772" lon="12.075475"><ele>310.16666666666663</ele><time>2026-05-02T15:47:53.299Z</time></trkpt><trkpt lat="46.0585222" lon="12.075568"><ele>310.3333333333333</ele><time>2026-05-02T15:47:54.297Z</time></trkpt><trkpt lat="46.0585671" lon="12.0756662"><ele>310.5</ele><time>2026-05-02T15:47:55.299Z</time></trkpt><trkpt lat="46.058609" lon="12.0757638"><ele>310.6666666666667</ele><time>2026-05-02T15:47:56.298Z</time></trkpt><trkpt lat="46.0586496" lon="12.0758669"><ele>310.83333333333337</ele><time>2026-05-02T15:47:57.299Z</time></trkpt><trkpt lat="46.0586892" lon="12.0759706"><ele>311.0</ele><time>2026-05-02T15:47:58.296Z</time></trkpt><trkpt lat="46.0587265" lon="12.0760801"><ele>311.0</ele><time>2026-05-02T15:47:59.295Z</time></trkpt><trkpt lat="46.058762" lon="12.0761944"><ele>311.0</ele><time>2026-05-02T15:48:00.294Z</time></trkpt><trkpt lat="46.0587987" lon="12.0763094"><ele>311.0</ele><time>2026-05-02T15:48:01.299Z</time></trkpt><trkpt lat="46.058834" lon="12.0764228"><ele>311.0</ele><time>2026-05-02T15:48:02.293Z</time></trkpt><trkpt lat="46.0588678" lon="12.0765396"><ele>311.0</ele><time>2026-05-02T15:48:03.3Z</time></trkpt><trkpt lat="46.058902" lon="12.0766584"><ele>311.0</ele><time>2026-05-02T15:48:04.301Z</time></trkpt><trkpt lat="46.0589377" lon="12.0767765"><ele>311.6666666666667</ele><time>2026-05-02T15:48:05.298Z</time></trkpt><trkpt lat="46.058972" lon="12.0768917"><ele>312.33333333333337</ele><time>2026-05-02T15:48:06.296Z</time></trkpt><trkpt lat="46.0590062" lon="12.0770068"><ele>313.0</ele><time>2026-05-02T15:48:07.299Z</time></trkpt><trkpt lat="46.0590403" lon="12.0771219"><ele>313.6666666666667</ele><time>2026-05-02T15:48:08.302Z</time></trkpt><trkpt lat="46.0590747" lon="12.0772388"><ele>314.3333333333333</ele><time>2026-05-02T15:48:09.302Z</time></trkpt><trkpt lat="46.0591101" lon="12.0773553"><ele>315.0</ele><time>2026-05-02T15:48:10.302Z</time></trkpt><trkpt lat="46.0591424" lon="12.07747"><ele>313.6666666666667</ele><time>2026-05-02T15:48:11.303Z</time></trkpt><trkpt lat="46.0591769" lon="12.0775806"><ele>312.3333333333333</ele><time>2026-05-02T15:48:12.299Z</time></trkpt><trkpt lat="46.0592103" lon="12.0776939"><ele>311.0</ele><time>2026-05-02T15:48:13.301Z</time></trkpt><trkpt lat="46.059247" lon="12.0778038"><ele>309.66666666666663</ele><time>2026-05-02T15:48:14.295Z</time></trkpt><trkpt lat="46.0592801" lon="12.077917"><ele>308.3333333333333</ele><time>2026-05-02T15:48:15.3Z</time></trkpt><trkpt lat="46.0593151" lon="12.0780287"><ele>307.0</ele><time>2026-05-02T15:48:16.299Z</time></trkpt><trkpt lat="46.0593458" lon="12.0781435"><ele>307.0</ele><time>2026-05-02T15:48:17.3Z</time></trkpt><trkpt lat="46.0593785" lon="12.0782547"><ele>307.0</ele><time>2026-05-02T15:48:18.3Z</time></trkpt><trkpt lat="46.0594094" lon="12.0783673"><ele>307.0</ele><time>2026-05-02T15:48:19.294Z</time></trkpt><trkpt lat="46.0594467" lon="12.0784798"><ele>307.0</ele><time>2026-05-02T15:48:20.291Z</time></trkpt><trkpt lat="46.0594759" lon="12.0785898"><ele>307.0</ele><time>2026-05-02T15:48:21.299Z</time></trkpt><trkpt lat="46.0595045" lon="12.0786975"><ele>307.0</ele><time>2026-05-02T15:48:22.296Z</time></trkpt><trkpt lat="46.0595331" lon="12.0788028"><ele>306.85714285714283</ele><time>2026-05-02T15:48:23.301Z</time></trkpt><trkpt lat="46.0595649" lon="12.0789057"><ele>306.7142857142857</ele><time>2026-05-02T15:48:24.291Z</time></trkpt><trkpt lat="46.0595925" lon="12.0790048"><ele>306.57142857142856</ele><time>2026-05-02T15:48:25.302Z</time></trkpt><trkpt lat="46.0596219" lon="12.0791028"><ele>306.42857142857144</ele><time>2026-05-02T15:48:26.301Z</time></trkpt><trkpt lat="46.0596525" lon="12.0791992"><ele>306.2857142857143</ele><time>2026-05-02T15:48:27.299Z</time></trkpt><trkpt lat="46.0596877" lon="12.0792889"><ele>306.1428571428571</ele><time>2026-05-02T15:48:28.302Z</time></trkpt><trkpt lat="46.0597248" lon="12.0793781"><ele>306.0</ele><time>2026-05-02T15:48:29.295Z</time></trkpt><trkpt lat="46.0597627" lon="12.079465"><ele>305.8333333333333</ele><time>2026-05-02T15:48:30.297Z</time></trkpt><trkpt lat="46.0598015" lon="12.0795513"><ele>305.6666666666667</ele><time>2026-05-02T15:48:31.289Z</time></trkpt><trkpt lat="46.0598381" lon="12.0796353"><ele>305.5</ele><time>2026-05-02T15:48:32.293Z</time></trkpt><trkpt lat="46.0598698" lon="12.0797185"><ele>305.33333333333337</ele><time>2026-05-02T15:48:33.295Z</time></trkpt><trkpt lat="46.0598965" lon="12.0798009"><ele>305.1666666666667</ele><time>2026-05-02T15:48:34.293Z</time></trkpt><trkpt lat="46.0599424" lon="12.0799564"><ele>305.0</ele><time>2026-05-02T15:48:36.296Z</time></trkpt><trkpt lat="46.0599877" lon="12.0801076"><ele>305.83333333333337</ele><time>2026-05-02T15:48:38.294Z</time></trkpt><trkpt lat="46.060027" lon="12.0802238"><ele>306.6666666666667</ele><time>2026-05-02T15:48:40.296Z</time></trkpt><trkpt lat="46.0600612" lon="12.0803299"><ele>307.5</ele><time>2026-05-02T15:48:43.297Z</time></trkpt><trkpt lat="46.0600867" lon="12.0802349"><ele>308.3333333333333</ele><time>2026-05-02T15:49:18.297Z</time></trkpt><trkpt lat="46.0600804" lon="12.0801393"><ele>309.16666666666663</ele><time>2026-05-02T15:49:21.295Z</time></trkpt><trkpt lat="46.0600536" lon="12.080049"><ele>310.0</ele><time>2026-05-02T15:49:23.294Z</time></trkpt><trkpt lat="46.0600178" lon="12.0799495"><ele>310.57142857142856</ele><time>2026-05-02T15:49:25.299Z</time></trkpt><trkpt lat="46.0599808" lon="12.0798524"><ele>311.1428571428571</ele><time>2026-05-02T15:49:27.299Z</time></trkpt><trkpt lat="46.0599475" lon="12.0797616"><ele>311.71428571428567</ele><time>2026-05-02T15:49:29.299Z</time></trkpt><trkpt lat="46.059918" lon="12.0796698"><ele>312.2857142857143</ele><time>2026-05-02T15:49:31.293Z</time></trkpt><trkpt lat="46.0598854" lon="12.0795796"><ele>312.85714285714283</ele><time>2026-05-02T15:49:33.299Z</time></trkpt><trkpt lat="46.0598745" lon="12.07948"><ele>313.4285714285714</ele><time>2026-05-02T15:49:35.298Z</time></trkpt><trkpt lat="46.0598825" lon="12.0793826"><ele>314.0</ele><time>2026-05-02T15:49:37.292Z</time></trkpt><trkpt lat="46.0599092" lon="12.0792554"><ele>314.0</ele><time>2026-05-02T15:49:40.291Z</time></trkpt><trkpt lat="46.0599463" lon="12.079152"><ele>314.0</ele><time>2026-05-02T15:49:43.299Z</time></trkpt><trkpt lat="46.060003" lon="12.079103"><ele>314.0</ele><time>2026-05-02T15:49:46.294Z</time></trkpt><trkpt lat="46.060058" lon="12.0790502"><ele>314.0</ele><time>2026-05-02T15:49:49.298Z</time></trkpt><trkpt lat="46.0601477" lon="12.0790432"><ele>314.0</ele><time>2026-05-02T15:49:52.297Z</time></trkpt><trkpt lat="46.0602256" lon="12.0790083"><ele>314.0</ele><time>2026-05-02T15:49:54.29Z</time></trkpt><trkpt lat="46.0603051" lon="12.0789428"><ele>312.8</ele><time>2026-05-02T15:49:56.296Z</time></trkpt><trkpt lat="46.0603796" lon="12.0788576"><ele>311.59999999999997</ele><time>2026-05-02T15:49:58.299Z</time></trkpt><trkpt lat="46.0604368" lon="12.0787292"><ele>310.4</ele><time>2026-05-02T15:50:00.298Z</time></trkpt><trkpt lat="46.0604688" lon="12.078572"><ele>309.2</ele><time>2026-05-02T15:50:02.294Z</time></trkpt><trkpt lat="46.060489" lon="12.0784321"><ele>308.0</ele><time>2026-05-02T15:50:04.294Z</time></trkpt><trkpt lat="46.0605214" lon="12.0783244"><ele>308.0</ele><time>2026-05-02T15:50:06.304Z</time></trkpt><trkpt lat="46.060592" lon="12.0783667"><ele>308.0</ele><time>2026-05-02T15:50:09.298Z</time></trkpt><trkpt lat="46.0606015" lon="12.0784721"><ele>308.0</ele><time>2026-05-02T15:50:11.293Z</time></trkpt><trkpt lat="46.0606428" lon="12.0785817"><ele>308.0</ele><time>2026-05-02T15:50:13.298Z</time></trkpt><trkpt lat="46.0607026" lon="12.0786793"><ele>308.0</ele><time>2026-05-02T15:50:15.298Z</time></trkpt><trkpt lat="46.0607746" lon="12.0787621"><ele>308.0</ele><time>2026-05-02T15:50:17.294Z</time></trkpt><trkpt lat="46.0608578" lon="12.0788272"><ele>312.0</ele><time>2026-05-02T15:50:19.301Z</time></trkpt><trkpt lat="46.0609376" lon="12.0788825"><ele>316.0</ele><time>2026-05-02T15:50:21.3Z</time></trkpt><trkpt lat="46.0610214" lon="12.0789298"><ele>320.0</ele><time>2026-05-02T15:50:23.298Z</time></trkpt><trkpt lat="46.0610934" lon="12.0789769"><ele>324.0</ele><time>2026-05-02T15:50:25.293Z</time></trkpt><trkpt lat="46.061166" lon="12.0790314"><ele>328.0</ele><time>2026-05-02T15:50:27.305Z</time></trkpt><trkpt lat="46.0612306" lon="12.0790778"><ele>332.0</ele><time>2026-05-02T15:50:29.303Z</time></trkpt><trkpt lat="46.0612986" lon="12.0791353"><ele>332.57142857142856</ele><time>2026-05-02T15:50:32.293Z</time></trkpt><trkpt lat="46.0613638" lon="12.0791848"><ele>333.14285714285717</ele><time>2026-05-02T15:50:35.296Z</time></trkpt><trkpt lat="46.0614232" lon="12.0792229"><ele>333.7142857142857</ele><time>2026-05-02T15:50:38.299Z</time></trkpt><trkpt lat="46.0614481" lon="12.0793378"><ele>334.2857142857143</ele><time>2026-05-02T15:50:43.295Z</time></trkpt><trkpt lat="46.0615187" lon="12.0793795"><ele>334.8571428571429</ele><time>2026-05-02T15:50:46.299Z</time></trkpt><trkpt lat="46.0615859" lon="12.0793863"><ele>335.42857142857144</ele><time>2026-05-02T15:50:48.3Z</time></trkpt><trkpt lat="46.061659" lon="12.079417"><ele>336.0</ele><time>2026-05-02T15:50:51.296Z</time></trkpt><trkpt lat="46.0617259" lon="12.0794833"><ele>338.5</ele><time>2026-05-02T15:50:54.295Z</time></trkpt><trkpt lat="46.0618062" lon="12.0795535"><ele>341.0</ele><time>2026-05-02T15:50:57.299Z</time></trkpt><trkpt lat="46.0618643" lon="12.0796083"><ele>343.5</ele><time>2026-05-02T15:50:59.299Z</time></trkpt><trkpt lat="46.0619291" lon="12.0796324"><ele>346.0</ele><time>2026-05-02T15:51:01.302Z</time></trkpt><trkpt lat="46.0619954" lon="12.0796304"><ele>348.5</ele><time>2026-05-02T15:51:03.301Z</time></trkpt><trkpt lat="46.062088" lon="12.0796262"><ele>351.0</ele><time>2026-05-02T15:51:06.292Z</time></trkpt><trkpt lat="46.0621462" lon="12.0795836"><ele>351.00000000000006</ele><time>2026-05-02T15:51:08.29Z</time></trkpt><trkpt lat="46.0622069" lon="12.0795433"><ele>351.0</ele><time>2026-05-02T15:51:10.3Z</time></trkpt><trkpt lat="46.0622682" lon="12.0795025"><ele>351.0</ele><time>2026-05-02T15:51:12.299Z</time></trkpt><trkpt lat="46.0623293" lon="12.0794557"><ele>351.0</ele><time>2026-05-02T15:51:14.294Z</time></trkpt><trkpt lat="46.0623965" lon="12.07944"><ele>351.0</ele><time>2026-05-02T15:51:16.293Z</time></trkpt><trkpt lat="46.0624746" lon="12.0794595"><ele>351.00000000000006</ele><time>2026-05-02T15:51:19.299Z</time></trkpt><trkpt lat="46.062548" lon="12.0794523"><ele>351.0</ele><time>2026-05-02T15:51:21.292Z</time></trkpt><trkpt lat="46.0626271" lon="12.0794345"><ele>351.6666666666667</ele><time>2026-05-02T15:51:23.302Z</time></trkpt><trkpt lat="46.0627079" lon="12.0794292"><ele>352.3333333333333</ele><time>2026-05-02T15:51:25.3Z</time></trkpt><trkpt lat="46.0627849" lon="12.0794055"><ele>353.0</ele><time>2026-05-02T15:51:27.304Z</time></trkpt><trkpt lat="46.0628546" lon="12.07937"><ele>353.66666666666663</ele><time>2026-05-02T15:51:29.301Z</time></trkpt><trkpt lat="46.0629227" lon="12.0793855"><ele>354.3333333333333</ele><time>2026-05-02T15:51:31.295Z</time></trkpt><trkpt lat="46.0629841" lon="12.0794096"><ele>355.0</ele><time>2026-05-02T15:51:33.306Z</time></trkpt><trkpt lat="46.0630653" lon="12.079334"><ele>355.0</ele><time>2026-05-02T15:51:36.301Z</time></trkpt><trkpt lat="46.0631232" lon="12.079255"><ele>355.0</ele><time>2026-05-02T15:51:38.302Z</time></trkpt><trkpt lat="46.063181" lon="12.0791929"><ele>355.0</ele><time>2026-05-02T15:51:40.289Z</time></trkpt><trkpt lat="46.0632453" lon="12.079199"><ele>355.0</ele><time>2026-05-02T15:51:42.304Z</time></trkpt><trkpt lat="46.0633176" lon="12.0792592"><ele>355.0</ele><time>2026-05-02T15:51:44.299Z</time></trkpt><trkpt lat="46.0634122" lon="12.0793279"><ele>355.0</ele><time>2026-05-02T15:51:46.299Z</time></trkpt><trkpt lat="46.0635197" lon="12.0793931"><ele>355.0</ele><time>2026-05-02T15:51:48.298Z</time></trkpt><trkpt lat="46.0635804" lon="12.0794288"><ele>355.0</ele><time>2026-05-02T15:51:49.301Z</time></trkpt><trkpt lat="46.0636417" lon="12.0794654"><ele>355.0</ele><time>2026-05-02T15:51:50.299Z</time></trkpt><trkpt lat="46.0637065" lon="12.0794989"><ele>355.0</ele><time>2026-05-02T15:51:51.299Z</time></trkpt><trkpt lat="46.0637733" lon="12.0795377"><ele>355.0</ele><time>2026-05-02T15:51:52.3Z</time></trkpt><trkpt lat="46.0638454" lon="12.0795742"><ele>355.0</ele><time>2026-05-02T15:51:53.298Z</time></trkpt><trkpt lat="46.0639151" lon="12.0796229"><ele>355.0</ele><time>2026-05-02T15:51:54.297Z</time></trkpt><trkpt lat="46.0639856" lon="12.0796798"><ele>355.0</ele><time>2026-05-02T15:51:55.294Z</time></trkpt><trkpt lat="46.0640569" lon="12.0797408"><ele>355.0</ele><time>2026-05-02T15:51:56.296Z</time></trkpt><trkpt lat="46.0641104" lon="12.0798229"><ele>355.0</ele><time>2026-05-02T15:51:57.303Z</time></trkpt><trkpt lat="46.0641547" lon="12.0799205"><ele>355.0</ele><time>2026-05-02T15:51:58.302Z</time></trkpt><trkpt lat="46.0641953" lon="12.0800199"><ele>355.0</ele><time>2026-05-02T15:51:59.299Z</time></trkpt><trkpt lat="46.0642334" lon="12.0801187"><ele>355.0</ele><time>2026-05-02T15:52:00.303Z</time></trkpt><trkpt lat="46.0642685" lon="12.0802185"><ele>354.7142857142857</ele><time>2026-05-02T15:52:01.3Z</time></trkpt><trkpt lat="46.0642992" lon="12.0803195"><ele>354.42857142857144</ele><time>2026-05-02T15:52:02.298Z</time></trkpt><trkpt lat="46.0643262" lon="12.0804194"><ele>354.1428571428571</ele><time>2026-05-02T15:52:03.301Z</time></trkpt><trkpt lat="46.0643504" lon="12.0805187"><ele>353.8571428571429</ele><time>2026-05-02T15:52:04.296Z</time></trkpt><trkpt lat="46.0643749" lon="12.0806167"><ele>353.5714285714286</ele><time>2026-05-02T15:52:05.299Z</time></trkpt><trkpt lat="46.0643992" lon="12.0807153"><ele>353.2857142857143</ele><time>2026-05-02T15:52:06.3Z</time></trkpt><trkpt lat="46.0644213" lon="12.0808074"><ele>353.0</ele><time>2026-05-02T15:52:07.299Z</time></trkpt><trkpt lat="46.0644413" lon="12.0809031"><ele>352.5</ele><time>2026-05-02T15:52:08.301Z</time></trkpt><trkpt lat="46.0644619" lon="12.0809969"><ele>352.0</ele><time>2026-05-02T15:52:09.299Z</time></trkpt><trkpt lat="46.0644754" lon="12.0810878"><ele>351.5</ele><time>2026-05-02T15:52:10.299Z</time></trkpt><trkpt lat="46.0644799" lon="12.081243"><ele>351.0</ele><time>2026-05-02T15:52:12.294Z</time></trkpt><trkpt lat="46.0645277" lon="12.0814022"><ele>350.5</ele><time>2026-05-02T15:52:14.3Z</time></trkpt><trkpt lat="46.0645591" lon="12.081489"><ele>350.0</ele><time>2026-05-02T15:52:15.296Z</time></trkpt><trkpt lat="46.0645885" lon="12.0815794"><ele>349.33333333333337</ele><time>2026-05-02T15:52:16.299Z</time></trkpt><trkpt lat="46.0646147" lon="12.0816708"><ele>348.6666666666667</ele><time>2026-05-02T15:52:17.298Z</time></trkpt><trkpt lat="46.0646482" lon="12.0817656"><ele>348.0</ele><time>2026-05-02T15:52:18.298Z</time></trkpt><trkpt lat="46.064686" lon="12.0818628"><ele>347.3333333333333</ele><time>2026-05-02T15:52:19.299Z</time></trkpt><trkpt lat="46.0647337" lon="12.081957"><ele>346.66666666666663</ele><time>2026-05-02T15:52:20.294Z</time></trkpt><trkpt lat="46.0647941" lon="12.0820382"><ele>346.0</ele><time>2026-05-02T15:52:21.293Z</time></trkpt><trkpt lat="46.0648596" lon="12.0821127"><ele>346.0</ele><time>2026-05-02T15:52:22.299Z</time></trkpt><trkpt lat="46.064927" lon="12.0821864"><ele>346.0</ele><time>2026-05-02T15:52:23.298Z</time></trkpt><trkpt lat="46.0649944" lon="12.0822603"><ele>346.0</ele><time>2026-05-02T15:52:24.295Z</time></trkpt><trkpt lat="46.0650519" lon="12.0823431"><ele>346.0</ele><time>2026-05-02T15:52:25.29Z</time></trkpt><trkpt lat="46.0650857" lon="12.0824401"><ele>346.0</ele><time>2026-05-02T15:52:26.297Z</time></trkpt><trkpt lat="46.0650875" lon="12.0825529"><ele>346.0</ele><time>2026-05-02T15:52:27.298Z</time></trkpt><trkpt lat="46.065071" lon="12.0826611"><ele>345.3333333333333</ele><time>2026-05-02T15:52:28.291Z</time></trkpt><trkpt lat="46.0650589" lon="12.0827706"><ele>344.66666666666663</ele><time>2026-05-02T15:52:29.288Z</time></trkpt><trkpt lat="46.0650442" lon="12.0828851"><ele>344.0</ele><time>2026-05-02T15:52:30.299Z</time></trkpt><trkpt lat="46.0650305" lon="12.0829994"><ele>343.3333333333333</ele><time>2026-05-02T15:52:31.299Z</time></trkpt><trkpt lat="46.0650118" lon="12.0831139"><ele>342.6666666666667</ele><time>2026-05-02T15:52:32.298Z</time></trkpt><trkpt lat="46.0649952" lon="12.0832273"><ele>342.0</ele><time>2026-05-02T15:52:33.3Z</time></trkpt><trkpt lat="46.0649821" lon="12.0833471"><ele>342.0</ele><time>2026-05-02T15:52:34.292Z</time></trkpt><trkpt lat="46.0649679" lon="12.0834662"><ele>342.0</ele><time>2026-05-02T15:52:35.29Z</time></trkpt><trkpt lat="46.0649541" lon="12.0835771"><ele>342.0</ele><time>2026-05-02T15:52:36.298Z</time></trkpt><trkpt lat="46.064939" lon="12.0836776"><ele>342.0</ele><time>2026-05-02T15:52:37.292Z</time></trkpt><trkpt lat="46.0649258" lon="12.0837849"><ele>342.0</ele><time>2026-05-02T15:52:38.298Z</time></trkpt><trkpt lat="46.0649087" lon="12.083882"><ele>342.0</ele><time>2026-05-02T15:52:39.297Z</time></trkpt><trkpt lat="46.0648522" lon="12.0840085"><ele>342.0</ele><time>2026-05-02T15:52:41.301Z</time></trkpt><trkpt lat="46.0648293" lon="12.0841109"><ele>342.0</ele><time>2026-05-02T15:52:43.296Z</time></trkpt><trkpt lat="46.0648945" lon="12.0841859"><ele>342.0</ele><time>2026-05-02T15:52:45.301Z</time></trkpt><trkpt lat="46.0649647" lon="12.0842789"><ele>342.0</ele><time>2026-05-02T15:52:47.294Z</time></trkpt><trkpt lat="46.0650235" lon="12.0843821"><ele>342.0</ele><time>2026-05-02T15:52:49.307Z</time></trkpt><trkpt lat="46.0650705" lon="12.0844871"><ele>342.0</ele><time>2026-05-02T15:52:51.299Z</time></trkpt><trkpt lat="46.0651167" lon="12.0845848"><ele>342.1666666666667</ele><time>2026-05-02T15:52:53.296Z</time></trkpt><trkpt lat="46.0651714" lon="12.0846632"><ele>342.3333333333333</ele><time>2026-05-02T15:52:55.298Z</time></trkpt><trkpt lat="46.0652171" lon="12.0847554"><ele>342.5</ele><time>2026-05-02T15:52:57.293Z</time></trkpt><trkpt lat="46.0652805" lon="12.0848406"><ele>342.66666666666663</ele><time>2026-05-02T15:52:59.299Z</time></trkpt><trkpt lat="46.0653455" lon="12.0849293"><ele>342.8333333333333</ele><time>2026-05-02T15:53:01.298Z</time></trkpt><trkpt lat="46.0654044" lon="12.0850362"><ele>343.0</ele><time>2026-05-02T15:53:03.292Z</time></trkpt><trkpt lat="46.0654475" lon="12.0851422"><ele>343.42857142857144</ele><time>2026-05-02T15:53:05.298Z</time></trkpt><trkpt lat="46.0654742" lon="12.0852482"><ele>343.8571428571429</ele><time>2026-05-02T15:53:07.302Z</time></trkpt><trkpt lat="46.0654768" lon="12.0853565"><ele>344.2857142857143</ele><time>2026-05-02T15:53:09.298Z</time></trkpt><trkpt lat="46.0654872" lon="12.0854678"><ele>344.7142857142857</ele><time>2026-05-02T15:53:11.29Z</time></trkpt><trkpt lat="46.0655249" lon="12.0855617"><ele>345.14285714285717</ele><time>2026-05-02T15:53:13.289Z</time></trkpt><trkpt lat="46.0655872" lon="12.085616"><ele>345.57142857142856</ele><time>2026-05-02T15:53:15.302Z</time></trkpt><trkpt lat="46.0656496" lon="12.0856501"><ele>346.0</ele><time>2026-05-02T15:53:17.298Z</time></trkpt><trkpt lat="46.0657336" lon="12.0856647"><ele>345.5</ele><time>2026-05-02T15:53:19.298Z</time></trkpt><trkpt lat="46.0657825" lon="12.0856013"><ele>345.0</ele><time>2026-05-02T15:53:20.291Z</time></trkpt><trkpt lat="46.0658666" lon="12.0855589"><ele>344.5</ele><time>2026-05-02T15:53:22.296Z</time></trkpt><trkpt lat="46.0659358" lon="12.0854891"><ele>344.0</ele><time>2026-05-02T15:53:24.294Z</time></trkpt><trkpt lat="46.0659864" lon="12.0853743"><ele>343.5</ele><time>2026-05-02T15:53:26.299Z</time></trkpt><trkpt lat="46.0660225" lon="12.0852312"><ele>343.0</ele><time>2026-05-02T15:53:28.299Z</time></trkpt><trkpt lat="46.0660721" lon="12.085054"><ele>343.0</ele><time>2026-05-02T15:53:30.294Z</time></trkpt><trkpt lat="46.0661179" lon="12.0849373"><ele>343.0</ele><time>2026-05-02T15:53:32.297Z</time></trkpt><trkpt lat="46.0661739" lon="12.084841"><ele>343.0</ele><time>2026-05-02T15:53:35.301Z</time></trkpt><trkpt lat="46.0662581" lon="12.0848293"><ele>343.0</ele><time>2026-05-02T15:53:38.297Z</time></trkpt><trkpt lat="46.066331" lon="12.0848832"><ele>343.0</ele><time>2026-05-02T15:53:41.301Z</time></trkpt><trkpt lat="46.0663854" lon="12.0849299"><ele>343.0</ele><time>2026-05-02T15:53:46.294Z</time></trkpt><trkpt lat="46.0664418" lon="12.0849779"><ele>343.0</ele><time>2026-05-02T15:53:48.301Z</time></trkpt><trkpt lat="46.0664972" lon="12.0850316"><ele>343.0</ele><time>2026-05-02T15:53:50.3Z</time></trkpt><trkpt lat="46.0665464" lon="12.0851145"><ele>343.0</ele><time>2026-05-02T15:53:52.298Z</time></trkpt><trkpt lat="46.0665573" lon="12.085243"><ele>343.0</ele><time>2026-05-02T15:53:55.3Z</time></trkpt><trkpt lat="46.0665667" lon="12.085347"><ele>343.0</ele><time>2026-05-02T15:53:58.301Z</time></trkpt><trkpt lat="46.0665891" lon="12.0854822"><ele>343.0</ele><time>2026-05-02T15:54:01.294Z</time></trkpt><trkpt lat="46.0665956" lon="12.0856315"><ele>338.0</ele><time>2026-05-02T15:54:03.298Z</time></trkpt><trkpt lat="46.0666313" lon="12.0857837"><ele>333.0</ele><time>2026-05-02T15:54:05.298Z</time></trkpt><trkpt lat="46.0666821" lon="12.0858785"><ele>328.0</ele><time>2026-05-02T15:54:07.29Z</time></trkpt><trkpt lat="46.0666304" lon="12.0859637"><ele>323.0</ele><time>2026-05-02T15:54:13.291Z</time></trkpt><trkpt lat="46.0666958" lon="12.0859512"><ele>318.0</ele><time>2026-05-02T15:54:17.299Z</time></trkpt><trkpt lat="46.0666916" lon="12.0858593"><ele>313.0</ele><time>2026-05-02T15:54:21.289Z</time></trkpt><trkpt lat="46.0666463" lon="12.0857818"><ele>313.0</ele><time>2026-05-02T15:54:23.295Z</time></trkpt><trkpt lat="46.0666066" lon="12.0857042"><ele>313.0</ele><time>2026-05-02T15:54:25.3Z</time></trkpt><trkpt lat="46.0666249" lon="12.0856168"><ele>313.0</ele><time>2026-05-02T15:54:30.298Z</time></trkpt><trkpt lat="46.0666562" lon="12.0857571"><ele>313.0</ele><time>2026-05-02T15:55:39.3Z</time></trkpt><trkpt lat="46.0667081" lon="12.0858216"><ele>313.0</ele><time>2026-05-02T15:55:41.298Z</time></trkpt><trkpt lat="46.0667736" lon="12.0858651"><ele>313.0</ele><time>2026-05-02T15:55:43.291Z</time></trkpt><trkpt lat="46.0668508" lon="12.0858903"><ele>313.0</ele><time>2026-05-02T15:55:45.297Z</time></trkpt><trkpt lat="46.0669308" lon="12.0859199"><ele>313.0</ele><time>2026-05-02T15:55:47.298Z</time></trkpt><trkpt lat="46.0670171" lon="12.0859351"><ele>313.0</ele><time>2026-05-02T15:55:49.299Z</time></trkpt><trkpt lat="46.0671029" lon="12.0859189"><ele>313.0</ele><time>2026-05-02T15:55:51.299Z</time></trkpt><trkpt lat="46.0671759" lon="12.0858749"><ele>313.0</ele><time>2026-05-02T15:55:53.299Z</time></trkpt><trkpt lat="46.0672384" lon="12.0858042"><ele>313.0</ele><time>2026-05-02T15:55:55.301Z</time></trkpt><trkpt lat="46.0672964" lon="12.0857328"><ele>312.3333333333333</ele><time>2026-05-02T15:55:57.29Z</time></trkpt><trkpt lat="46.0673641" lon="12.0856668"><ele>311.66666666666663</ele><time>2026-05-02T15:55:59.302Z</time></trkpt><trkpt lat="46.0674423" lon="12.0856107"><ele>311.0</ele><time>2026-05-02T15:56:01.301Z</time></trkpt><trkpt lat="46.0675245" lon="12.0855588"><ele>310.3333333333333</ele><time>2026-05-02T15:56:03.301Z</time></trkpt><trkpt lat="46.0676142" lon="12.0855303"><ele>309.6666666666667</ele><time>2026-05-02T15:56:05.299Z</time></trkpt><trkpt lat="46.0676993" lon="12.0855651"><ele>309.0</ele><time>2026-05-02T15:56:07.296Z</time></trkpt><trkpt lat="46.0677777" lon="12.0856293"><ele>309.0</ele><time>2026-05-02T15:56:09.297Z</time></trkpt><trkpt lat="46.0678445" lon="12.0857074"><ele>309.0</ele><time>2026-05-02T15:56:11.299Z</time></trkpt><trkpt lat="46.0679089" lon="12.0857815"><ele>309.0</ele><time>2026-05-02T15:56:13.3Z</time></trkpt><trkpt lat="46.0679704" lon="12.085855"><ele>309.0</ele><time>2026-05-02T15:56:15.299Z</time></trkpt><trkpt lat="46.0680263" lon="12.0859326"><ele>309.0</ele><time>2026-05-02T15:56:17.301Z</time></trkpt><trkpt lat="46.0680782" lon="12.0860102"><ele>309.0</ele><time>2026-05-02T15:56:19.3Z</time></trkpt><trkpt lat="46.0681314" lon="12.0860802"><ele>309.0</ele><time>2026-05-02T15:56:21.296Z</time></trkpt><trkpt lat="46.0681818" lon="12.0861568"><ele>309.0</ele><time>2026-05-02T15:56:23.298Z</time></trkpt><trkpt lat="46.0682356" lon="12.0862286"><ele>309.0</ele><time>2026-05-02T15:56:25.299Z</time></trkpt><trkpt lat="46.0682865" lon="12.086295"><ele>309.0</ele><time>2026-05-02T15:56:27.292Z</time></trkpt><trkpt lat="46.0683496" lon="12.0863751"><ele>309.0</ele><time>2026-05-02T15:56:30.298Z</time></trkpt><trkpt lat="46.0684204" lon="12.0864783"><ele>309.0</ele><time>2026-05-02T15:56:33.301Z</time></trkpt><trkpt lat="46.0684666" lon="12.0865481"><ele>310.0</ele><time>2026-05-02T15:56:35.301Z</time></trkpt><trkpt lat="46.0685209" lon="12.0866222"><ele>311.0</ele><time>2026-05-02T15:56:38.3Z</time></trkpt><trkpt lat="46.0685637" lon="12.0867074"><ele>312.0</ele><time>2026-05-02T15:56:42.294Z</time></trkpt><trkpt lat="46.0686062" lon="12.0867827"><ele>313.0</ele><time>2026-05-02T15:56:44.289Z</time></trkpt><trkpt lat="46.0686573" lon="12.0868843"><ele>314.0</ele><time>2026-05-02T15:56:48.292Z</time></trkpt><trkpt lat="46.0687069" lon="12.0869906"><ele>315.0</ele><time>2026-05-02T15:56:53.304Z</time></trkpt><trkpt lat="46.0687468" lon="12.0870961"><ele>315.0</ele><time>2026-05-02T15:56:56.29Z</time></trkpt><trkpt lat="46.0687866" lon="12.0871998"><ele>315.0</ele><time>2026-05-02T15:56:59.304Z</time></trkpt><trkpt lat="46.0688325" lon="12.0873014"><ele>315.0</ele><time>2026-05-02T15:57:02.293Z</time></trkpt><trkpt lat="46.0688788" lon="12.0874091"><ele>315.0</ele><time>2026-05-02T15:57:05.291Z</time></trkpt><trkpt lat="46.0689178" lon="12.0875109"><ele>315.0</ele><time>2026-05-02T15:57:08.297Z</time></trkpt><trkpt lat="46.0689414" lon="12.0876245"><ele>315.0</ele><time>2026-05-02T15:57:12.298Z</time></trkpt><trkpt lat="46.0689746" lon="12.0877277"><ele>315.2</ele><time>2026-05-02T15:57:14.294Z</time></trkpt><trkpt lat="46.0690082" lon="12.0878297"><ele>315.4</ele><time>2026-05-02T15:57:16.297Z</time></trkpt><trkpt lat="46.0690575" lon="12.0879449"><ele>315.6</ele><time>2026-05-02T15:57:18.31Z</time></trkpt><trkpt lat="46.0691111" lon="12.0880561"><ele>315.8</ele><time>2026-05-02T15:57:20.305Z</time></trkpt><trkpt lat="46.0691557" lon="12.088173"><ele>316.0</ele><time>2026-05-02T15:57:22.297Z</time></trkpt><trkpt lat="46.0692015" lon="12.0882903"><ele>316.0</ele><time>2026-05-02T15:57:24.298Z</time></trkpt><trkpt lat="46.0692408" lon="12.0884078"><ele>316.0</ele><time>2026-05-02T15:57:26.307Z</time></trkpt><trkpt lat="46.0692826" lon="12.0885248"><ele>316.0</ele><time>2026-05-02T15:57:28.291Z</time></trkpt><trkpt lat="46.0693316" lon="12.0886415"><ele>316.0</ele><time>2026-05-02T15:57:30.291Z</time></trkpt><trkpt lat="46.0693802" lon="12.0887634"><ele>316.0</ele><time>2026-05-02T15:57:32.292Z</time></trkpt><trkpt lat="46.069438" lon="12.0888948"><ele>316.0</ele><time>2026-05-02T15:57:34.304Z</time></trkpt><trkpt lat="46.069498" lon="12.0890312"><ele>316.0</ele><time>2026-05-02T15:57:36.294Z</time></trkpt><trkpt lat="46.0695592" lon="12.0891657"><ele>316.0</ele><time>2026-05-02T15:57:38.287Z</time></trkpt><trkpt lat="46.0696204" lon="12.0893064"><ele>316.0</ele><time>2026-05-02T15:57:40.298Z</time></trkpt><trkpt lat="46.0696808" lon="12.0894493"><ele>315.5</ele><time>2026-05-02T15:57:42.306Z</time></trkpt><trkpt lat="46.0697356" lon="12.0895973"><ele>315.0</ele><time>2026-05-02T15:57:44.306Z</time></trkpt><trkpt lat="46.0697907" lon="12.089742"><ele>314.5</ele><time>2026-05-02T15:57:46.288Z</time></trkpt><trkpt lat="46.0698473" lon="12.0898929"><ele>314.0</ele><time>2026-05-02T15:57:48.297Z</time></trkpt><trkpt lat="46.0699071" lon="12.0900456"><ele>314.1666666666667</ele><time>2026-05-02T15:57:50.294Z</time></trkpt><trkpt lat="46.0699717" lon="12.0902024"><ele>314.33333333333337</ele><time>2026-05-02T15:57:52.3Z</time></trkpt><trkpt lat="46.0700029" lon="12.0902842"><ele>314.5</ele><time>2026-05-02T15:57:53.302Z</time></trkpt><trkpt lat="46.0700352" lon="12.0903679"><ele>314.6666666666667</ele><time>2026-05-02T15:57:54.303Z</time></trkpt><trkpt lat="46.0700675" lon="12.0904506"><ele>314.8333333333333</ele><time>2026-05-02T15:57:55.298Z</time></trkpt><trkpt lat="46.0700968" lon="12.0905362"><ele>315.0</ele><time>2026-05-02T15:57:56.305Z</time></trkpt><trkpt lat="46.0701259" lon="12.090623"><ele>315.0</ele><time>2026-05-02T15:57:57.298Z</time></trkpt><trkpt lat="46.0701541" lon="12.090711"><ele>315.0</ele><time>2026-05-02T15:57:58.308Z</time></trkpt><trkpt lat="46.0701805" lon="12.0908026"><ele>315.0</ele><time>2026-05-02T15:57:59.301Z</time></trkpt><trkpt lat="46.0702052" lon="12.090894"><ele>315.0</ele><time>2026-05-02T15:58:00.304Z</time></trkpt><trkpt lat="46.0702354" lon="12.0909842"><ele>315.0</ele><time>2026-05-02T15:58:01.307Z</time></trkpt><trkpt lat="46.0702641" lon="12.0910773"><ele>315.0</ele><time>2026-05-02T15:58:02.295Z</time></trkpt><trkpt lat="46.0702913" lon="12.0911685"><ele>315.0</ele><time>2026-05-02T15:58:03.321Z</time></trkpt><trkpt lat="46.0703188" lon="12.0912606"><ele>315.0</ele><time>2026-05-02T15:58:04.308Z</time></trkpt><trkpt lat="46.0703479" lon="12.0913518"><ele>315.0</ele><time>2026-05-02T15:58:05.301Z</time></trkpt><trkpt lat="46.0703725" lon="12.0914416"><ele>315.0</ele><time>2026-05-02T15:58:06.309Z</time></trkpt><trkpt lat="46.0703953" lon="12.0915331"><ele>315.0</ele><time>2026-05-02T15:58:07.299Z</time></trkpt><trkpt lat="46.0704213" lon="12.091627"><ele>315.0</ele><time>2026-05-02T15:58:08.301Z</time></trkpt><trkpt lat="46.07046" lon="12.091797"><ele>315.0</ele><time>2026-05-02T15:58:10.295Z</time></trkpt><trkpt lat="46.0704731" lon="12.0918875"><ele>315.0</ele><time>2026-05-02T15:58:11.299Z</time></trkpt><trkpt lat="46.0704845" lon="12.0919805"><ele>315.0</ele><time>2026-05-02T15:58:12.293Z</time></trkpt><trkpt lat="46.0704905" lon="12.0920711"><ele>315.0</ele><time>2026-05-02T15:58:13.298Z</time></trkpt><trkpt lat="46.0704975" lon="12.092251"><ele>315.0</ele><time>2026-05-02T15:58:15.298Z</time></trkpt><trkpt lat="46.0705063" lon="12.0923415"><ele>315.0</ele><time>2026-05-02T15:58:16.301Z</time></trkpt><trkpt lat="46.0705145" lon="12.0924319"><ele>315.0</ele><time>2026-05-02T15:58:17.298Z</time></trkpt><trkpt lat="46.0705273" lon="12.0925238"><ele>315.0</ele><time>2026-05-02T15:58:18.293Z</time></trkpt><trkpt lat="46.0705819" lon="12.0926882"><ele>315.0</ele><time>2026-05-02T15:58:20.295Z</time></trkpt><trkpt lat="46.0706174" lon="12.0927649"><ele>315.0</ele><time>2026-05-02T15:58:21.302Z</time></trkpt><trkpt lat="46.0707032" lon="12.0928942"><ele>315.0</ele><time>2026-05-02T15:58:23.298Z</time></trkpt><trkpt lat="46.0708029" lon="12.0929919"><ele>315.0</ele><time>2026-05-02T15:58:25.292Z</time></trkpt><trkpt lat="46.0709021" lon="12.0930901"><ele>315.0</ele><time>2026-05-02T15:58:27.293Z</time></trkpt><trkpt lat="46.0710051" lon="12.0931779"><ele>316.25</ele><time>2026-05-02T15:58:29.298Z</time></trkpt><trkpt lat="46.0711057" lon="12.0932686"><ele>317.5</ele><time>2026-05-02T15:58:31.302Z</time></trkpt><trkpt lat="46.0711937" lon="12.0933697"><ele>318.75</ele><time>2026-05-02T15:58:33.301Z</time></trkpt><trkpt lat="46.0712778" lon="12.0934776"><ele>320.0</ele><time>2026-05-02T15:58:35.3Z</time></trkpt><trkpt lat="46.0713638" lon="12.0935872"><ele>320.0</ele><time>2026-05-02T15:58:37.295Z</time></trkpt><trkpt lat="46.0714511" lon="12.0936999"><ele>320.0</ele><time>2026-05-02T15:58:39.305Z</time></trkpt><trkpt lat="46.0715388" lon="12.0938184"><ele>320.0</ele><time>2026-05-02T15:58:41.302Z</time></trkpt><trkpt lat="46.0716242" lon="12.0939404"><ele>320.0</ele><time>2026-05-02T15:58:43.301Z</time></trkpt><trkpt lat="46.0717083" lon="12.0940583"><ele>321.0</ele><time>2026-05-02T15:58:45.298Z</time></trkpt><trkpt lat="46.0717887" lon="12.0941808"><ele>322.0</ele><time>2026-05-02T15:58:47.292Z</time></trkpt><trkpt lat="46.0718611" lon="12.0943013"><ele>323.0</ele><time>2026-05-02T15:58:49.3Z</time></trkpt><trkpt lat="46.0719321" lon="12.0944279"><ele>324.0</ele><time>2026-05-02T15:58:51.301Z</time></trkpt><trkpt lat="46.072004" lon="12.0945593"><ele>324.0</ele><time>2026-05-02T15:58:53.299Z</time></trkpt><trkpt lat="46.0720788" lon="12.0946855"><ele>324.0</ele><time>2026-05-02T15:58:55.302Z</time></trkpt><trkpt lat="46.0721472" lon="12.094808"><ele>324.0</ele><time>2026-05-02T15:58:57.303Z</time></trkpt><trkpt lat="46.0722207" lon="12.0949248"><ele>324.0</ele><time>2026-05-02T15:58:59.298Z</time></trkpt><trkpt lat="46.0722843" lon="12.0950504"><ele>324.0</ele><time>2026-05-02T15:59:01.299Z</time></trkpt><trkpt lat="46.0723319" lon="12.095188"><ele>324.6</ele><time>2026-05-02T15:59:03.299Z</time></trkpt><trkpt lat="46.0723718" lon="12.0953246"><ele>325.2</ele><time>2026-05-02T15:59:05.3Z</time></trkpt><trkpt lat="46.0724058" lon="12.0954499"><ele>325.8</ele><time>2026-05-02T15:59:07.299Z</time></trkpt><trkpt lat="46.0724318" lon="12.0955757"><ele>326.40000000000003</ele><time>2026-05-02T15:59:09.297Z</time></trkpt><trkpt lat="46.0724431" lon="12.0957064"><ele>327.0</ele><time>2026-05-02T15:59:11.312Z</time></trkpt><trkpt lat="46.0724415" lon="12.0958452"><ele>327.8</ele><time>2026-05-02T15:59:13.302Z</time></trkpt><trkpt lat="46.0724334" lon="12.0959815"><ele>328.6</ele><time>2026-05-02T15:59:15.301Z</time></trkpt><trkpt lat="46.0724222" lon="12.0961135"><ele>329.40000000000003</ele><time>2026-05-02T15:59:17.303Z</time></trkpt><trkpt lat="46.0724109" lon="12.0962449"><ele>330.20000000000005</ele><time>2026-05-02T15:59:19.305Z</time></trkpt><trkpt lat="46.0724028" lon="12.09637"><ele>331.0</ele><time>2026-05-02T15:59:21.301Z</time></trkpt><trkpt lat="46.0724012" lon="12.0965021"><ele>331.4</ele><time>2026-05-02T15:59:23.294Z</time></trkpt><trkpt lat="46.0723979" lon="12.096642"><ele>331.8</ele><time>2026-05-02T15:59:25.3Z</time></trkpt><trkpt lat="46.0724068" lon="12.0967765"><ele>332.2</ele><time>2026-05-02T15:59:27.302Z</time></trkpt><trkpt lat="46.0724199" lon="12.0969175"><ele>332.59999999999997</ele><time>2026-05-02T15:59:29.303Z</time></trkpt><trkpt lat="46.072444" lon="12.0970629"><ele>333.0</ele><time>2026-05-02T15:59:31.31Z</time></trkpt><trkpt lat="46.0724692" lon="12.0972081"><ele>333.4</ele><time>2026-05-02T15:59:33.303Z</time></trkpt><trkpt lat="46.072486" lon="12.0973514"><ele>333.79999999999995</ele><time>2026-05-02T15:59:35.299Z</time></trkpt><trkpt lat="46.072502" lon="12.0974916"><ele>334.2</ele><time>2026-05-02T15:59:37.298Z</time></trkpt><trkpt lat="46.0725414" lon="12.0976244"><ele>334.6</ele><time>2026-05-02T15:59:39.302Z</time></trkpt><trkpt lat="46.0725857" lon="12.0977697"><ele>335.0</ele><time>2026-05-02T15:59:41.308Z</time></trkpt><trkpt lat="46.072632" lon="12.0979087"><ele>336.0</ele><time>2026-05-02T15:59:43.303Z</time></trkpt><trkpt lat="46.0726842" lon="12.0980521"><ele>337.0</ele><time>2026-05-02T15:59:45.311Z</time></trkpt><trkpt lat="46.0727389" lon="12.0981887"><ele>338.0</ele><time>2026-05-02T15:59:47.303Z</time></trkpt><trkpt lat="46.0728151" lon="12.0983124"><ele>339.0</ele><time>2026-05-02T15:59:49.298Z</time></trkpt><trkpt lat="46.0728982" lon="12.0984205"><ele>340.0</ele><time>2026-05-02T15:59:51.295Z</time></trkpt><trkpt lat="46.0729832" lon="12.0985302"><ele>340.75</ele><time>2026-05-02T15:59:53.301Z</time></trkpt><trkpt lat="46.0730732" lon="12.098639"><ele>341.5</ele><time>2026-05-02T15:59:55.294Z</time></trkpt><trkpt lat="46.0731648" lon="12.0987501"><ele>342.25</ele><time>2026-05-02T15:59:57.302Z</time></trkpt><trkpt lat="46.0732392" lon="12.0988819"><ele>343.0</ele><time>2026-05-02T15:59:59.301Z</time></trkpt><trkpt lat="46.0732957" lon="12.0990387"><ele>343.4</ele><time>2026-05-02T16:00:01.305Z</time></trkpt><trkpt lat="46.0733247" lon="12.0992083"><ele>343.79999999999995</ele><time>2026-05-02T16:00:03.298Z</time></trkpt><trkpt lat="46.0733343" lon="12.0993869"><ele>344.2</ele><time>2026-05-02T16:00:05.295Z</time></trkpt><trkpt lat="46.0733321" lon="12.0995648"><ele>344.6</ele><time>2026-05-02T16:00:07.303Z</time></trkpt><trkpt lat="46.0733318" lon="12.0996565"><ele>345.0</ele><time>2026-05-02T16:00:08.309Z</time></trkpt><trkpt lat="46.0733413" lon="12.0998309"><ele>345.0</ele><time>2026-05-02T16:00:10.301Z</time></trkpt><trkpt lat="46.0733522" lon="12.0999204"><ele>345.0</ele><time>2026-05-02T16:00:11.303Z</time></trkpt><trkpt lat="46.0733674" lon="12.1000085"><ele>345.0</ele><time>2026-05-02T16:00:12.3Z</time></trkpt><trkpt lat="46.0733863" lon="12.1000959"><ele>345.0</ele><time>2026-05-02T16:00:13.292Z</time></trkpt><trkpt lat="46.0734121" lon="12.1001789"><ele>345.0</ele><time>2026-05-02T16:00:14.298Z</time></trkpt><trkpt lat="46.0734393" lon="12.1002614"><ele>345.0</ele><time>2026-05-02T16:00:15.303Z</time></trkpt><trkpt lat="46.0734902" lon="12.1004255"><ele>345.0</ele><time>2026-05-02T16:00:17.294Z</time></trkpt><trkpt lat="46.0735218" lon="12.1005047"><ele>345.0</ele><time>2026-05-02T16:00:18.3Z</time></trkpt><trkpt lat="46.0735832" lon="12.1006632"><ele>345.0</ele><time>2026-05-02T16:00:20.303Z</time></trkpt><trkpt lat="46.0736105" lon="12.1007455"><ele>345.0</ele><time>2026-05-02T16:00:21.305Z</time></trkpt><trkpt lat="46.0736629" lon="12.1009103"><ele>345.0</ele><time>2026-05-02T16:00:23.302Z</time></trkpt><trkpt lat="46.0736874" lon="12.1009963"><ele>345.0</ele><time>2026-05-02T16:00:24.406Z</time></trkpt><trkpt lat="46.0737446" lon="12.1011688"><ele>345.0</ele><time>2026-05-02T16:00:26.305Z</time></trkpt><trkpt lat="46.0737696" lon="12.1012592"><ele>345.0</ele><time>2026-05-02T16:00:27.304Z</time></trkpt><trkpt lat="46.0737971" lon="12.1013464"><ele>345.0</ele><time>2026-05-02T16:00:28.3Z</time></trkpt><trkpt lat="46.0738252" lon="12.1014347"><ele>345.0</ele><time>2026-05-02T16:00:29.298Z</time></trkpt><trkpt lat="46.0738557" lon="12.1015281"><ele>345.0</ele><time>2026-05-02T16:00:30.299Z</time></trkpt><trkpt lat="46.0738858" lon="12.1016232"><ele>345.0</ele><time>2026-05-02T16:00:31.292Z</time></trkpt><trkpt lat="46.0739138" lon="12.1017181"><ele>345.0</ele><time>2026-05-02T16:00:32.3Z</time></trkpt><trkpt lat="46.0739438" lon="12.1018079"><ele>344.8571428571429</ele><time>2026-05-02T16:00:33.294Z</time></trkpt><trkpt lat="46.0739721" lon="12.1018988"><ele>344.7142857142857</ele><time>2026-05-02T16:00:34.3Z</time></trkpt><trkpt lat="46.0740043" lon="12.101991"><ele>344.57142857142856</ele><time>2026-05-02T16:00:35.301Z</time></trkpt><trkpt lat="46.0740328" lon="12.1020845"><ele>344.42857142857144</ele><time>2026-05-02T16:00:36.302Z</time></trkpt><trkpt lat="46.0740608" lon="12.1021822"><ele>344.2857142857143</ele><time>2026-05-02T16:00:37.29Z</time></trkpt><trkpt lat="46.0740888" lon="12.1022745"><ele>344.14285714285717</ele><time>2026-05-02T16:00:38.299Z</time></trkpt><trkpt lat="46.0741198" lon="12.1023701"><ele>344.0</ele><time>2026-05-02T16:00:39.301Z</time></trkpt><trkpt lat="46.0741498" lon="12.10247"><ele>343.5</ele><time>2026-05-02T16:00:40.302Z</time></trkpt><trkpt lat="46.07418" lon="12.1025741"><ele>343.0</ele><time>2026-05-02T16:00:41.29Z</time></trkpt><trkpt lat="46.0742122" lon="12.1026787"><ele>342.5</ele><time>2026-05-02T16:00:42.316Z</time></trkpt><trkpt lat="46.0742422" lon="12.1027847"><ele>342.0</ele><time>2026-05-02T16:00:43.3Z</time></trkpt><trkpt lat="46.0742747" lon="12.1028881"><ele>341.5</ele><time>2026-05-02T16:00:44.299Z</time></trkpt><trkpt lat="46.0743073" lon="12.1029944"><ele>341.0</ele><time>2026-05-02T16:00:45.309Z</time></trkpt><trkpt lat="46.0743409" lon="12.1030982"><ele>341.0</ele><time>2026-05-02T16:00:46.3Z</time></trkpt><trkpt lat="46.0743709" lon="12.1032037"><ele>341.0</ele><time>2026-05-02T16:00:47.298Z</time></trkpt><trkpt lat="46.0743989" lon="12.1033071"><ele>341.0</ele><time>2026-05-02T16:00:48.307Z</time></trkpt><trkpt lat="46.0744231" lon="12.1034075"><ele>341.0</ele><time>2026-05-02T16:00:49.294Z</time></trkpt><trkpt lat="46.0744472" lon="12.1035017"><ele>341.0</ele><time>2026-05-02T16:00:50.3Z</time></trkpt><trkpt lat="46.0745387" lon="12.1036077"><ele>341.0</ele><time>2026-05-02T16:00:52.299Z</time></trkpt><trkpt lat="46.0746545" lon="12.1035748"><ele>340.6666666666667</ele><time>2026-05-02T16:00:54.295Z</time></trkpt><trkpt lat="46.0747753" lon="12.1035523"><ele>340.33333333333337</ele><time>2026-05-02T16:00:56.31Z</time></trkpt><trkpt lat="46.0748887" lon="12.1036121"><ele>340.0</ele><time>2026-05-02T16:00:58.298Z</time></trkpt><trkpt lat="46.074933" lon="12.1036774"><ele>339.6666666666667</ele><time>2026-05-02T16:00:59.3Z</time></trkpt><trkpt lat="46.0749725" lon="12.1037566"><ele>339.3333333333333</ele><time>2026-05-02T16:01:00.301Z</time></trkpt><trkpt lat="46.0750125" lon="12.1038411"><ele>339.0</ele><time>2026-05-02T16:01:01.3Z</time></trkpt><trkpt lat="46.0750498" lon="12.103927"><ele>338.7142857142857</ele><time>2026-05-02T16:01:02.293Z</time></trkpt><trkpt lat="46.0750894" lon="12.1040139"><ele>338.42857142857144</ele><time>2026-05-02T16:01:03.296Z</time></trkpt><trkpt lat="46.0751277" lon="12.1041019"><ele>338.14285714285717</ele><time>2026-05-02T16:01:04.302Z</time></trkpt><trkpt lat="46.0751679" lon="12.1041881"><ele>337.8571428571429</ele><time>2026-05-02T16:01:05.3Z</time></trkpt><trkpt lat="46.0752097" lon="12.1042738"><ele>337.57142857142856</ele><time>2026-05-02T16:01:06.303Z</time></trkpt><trkpt lat="46.0752529" lon="12.1043599"><ele>337.28571428571433</ele><time>2026-05-02T16:01:07.311Z</time></trkpt><trkpt lat="46.0752969" lon="12.1044402"><ele>337.0</ele><time>2026-05-02T16:01:08.31Z</time></trkpt><trkpt lat="46.0753418" lon="12.1045254"><ele>337.00000000000006</ele><time>2026-05-02T16:01:09.312Z</time></trkpt><trkpt lat="46.0753872" lon="12.104605"><ele>337.0</ele><time>2026-05-02T16:01:10.301Z</time></trkpt><trkpt lat="46.0754389" lon="12.1046858"><ele>337.0</ele><time>2026-05-02T16:01:11.295Z</time></trkpt><trkpt lat="46.0754838" lon="12.1047648"><ele>337.0</ele><time>2026-05-02T16:01:12.289Z</time></trkpt><trkpt lat="46.0755334" lon="12.1048425"><ele>337.0</ele><time>2026-05-02T16:01:13.296Z</time></trkpt><trkpt lat="46.0755795" lon="12.104925"><ele>337.00000000000006</ele><time>2026-05-02T16:01:14.303Z</time></trkpt><trkpt lat="46.0756244" lon="12.1050097"><ele>337.0</ele><time>2026-05-02T16:01:15.311Z</time></trkpt><trkpt lat="46.0756685" lon="12.1051006"><ele>337.16666666666663</ele><time>2026-05-02T16:01:16.295Z</time></trkpt><trkpt lat="46.0757081" lon="12.1051906"><ele>337.3333333333333</ele><time>2026-05-02T16:01:17.302Z</time></trkpt><trkpt lat="46.0757525" lon="12.1052857"><ele>337.5</ele><time>2026-05-02T16:01:18.297Z</time></trkpt><trkpt lat="46.0757979" lon="12.1053798"><ele>337.6666666666667</ele><time>2026-05-02T16:01:19.303Z</time></trkpt><trkpt lat="46.0758448" lon="12.1054758"><ele>337.83333333333337</ele><time>2026-05-02T16:01:20.291Z</time></trkpt><trkpt lat="46.0758946" lon="12.1055526"><ele>338.0</ele><time>2026-05-02T16:01:21.302Z</time></trkpt><trkpt lat="46.0759542" lon="12.1056463"><ele>338.0</ele><time>2026-05-02T16:01:22.302Z</time></trkpt><trkpt lat="46.0760145" lon="12.1057337"><ele>338.0</ele><time>2026-05-02T16:01:23.297Z</time></trkpt><trkpt lat="46.0760703" lon="12.1058292"><ele>338.0</ele><time>2026-05-02T16:01:24.316Z</time></trkpt><trkpt lat="46.0761089" lon="12.1059422"><ele>338.0</ele><time>2026-05-02T16:01:25.307Z</time></trkpt><trkpt lat="46.0761421" lon="12.1060544"><ele>338.0</ele><time>2026-05-02T16:01:26.295Z</time></trkpt><trkpt lat="46.0761737" lon="12.1061655"><ele>338.0</ele><time>2026-05-02T16:01:27.309Z</time></trkpt><trkpt lat="46.0762071" lon="12.1062721"><ele>338.1666666666667</ele><time>2026-05-02T16:01:28.302Z</time></trkpt><trkpt lat="46.0762236" lon="12.1063905"><ele>338.33333333333337</ele><time>2026-05-02T16:01:29.299Z</time></trkpt><trkpt lat="46.0762474" lon="12.1065081"><ele>338.5</ele><time>2026-05-02T16:01:30.301Z</time></trkpt><trkpt lat="46.076264" lon="12.1066293"><ele>338.6666666666667</ele><time>2026-05-02T16:01:31.298Z</time></trkpt><trkpt lat="46.0762784" lon="12.1067456"><ele>338.8333333333333</ele><time>2026-05-02T16:01:32.295Z</time></trkpt><trkpt lat="46.0762876" lon="12.1068721"><ele>339.0</ele><time>2026-05-02T16:01:33.297Z</time></trkpt><trkpt lat="46.076301" lon="12.106995"><ele>338.3333333333333</ele><time>2026-05-02T16:01:34.291Z</time></trkpt><trkpt lat="46.0763147" lon="12.1071184"><ele>337.6666666666667</ele><time>2026-05-02T16:01:35.3Z</time></trkpt><trkpt lat="46.0763251" lon="12.1072477"><ele>337.0</ele><time>2026-05-02T16:01:36.294Z</time></trkpt><trkpt lat="46.0763386" lon="12.1073678"><ele>336.33333333333337</ele><time>2026-05-02T16:01:37.305Z</time></trkpt><trkpt lat="46.076351" lon="12.1074885"><ele>335.6666666666667</ele><time>2026-05-02T16:01:38.299Z</time></trkpt><trkpt lat="46.0763638" lon="12.1076075"><ele>335.0</ele><time>2026-05-02T16:01:39.303Z</time></trkpt><trkpt lat="46.0763709" lon="12.1077289"><ele>334.6666666666667</ele><time>2026-05-02T16:01:40.298Z</time></trkpt><trkpt lat="46.0763861" lon="12.1078494"><ele>334.33333333333337</ele><time>2026-05-02T16:01:41.307Z</time></trkpt><trkpt lat="46.0764018" lon="12.1079707"><ele>334.0</ele><time>2026-05-02T16:01:42.303Z</time></trkpt><trkpt lat="46.0764183" lon="12.1080912"><ele>333.6666666666667</ele><time>2026-05-02T16:01:43.298Z</time></trkpt><trkpt lat="46.076438" lon="12.1082078"><ele>333.3333333333333</ele><time>2026-05-02T16:01:44.309Z</time></trkpt><trkpt lat="46.0764606" lon="12.1083249"><ele>333.0</ele><time>2026-05-02T16:01:45.301Z</time></trkpt><trkpt lat="46.076494" lon="12.1084369"><ele>333.0</ele><time>2026-05-02T16:01:46.299Z</time></trkpt><trkpt lat="46.0765317" lon="12.1085516"><ele>333.0</ele><time>2026-05-02T16:01:47.308Z</time></trkpt><trkpt lat="46.0765669" lon="12.1086659"><ele>333.0</ele><time>2026-05-02T16:01:48.295Z</time></trkpt><trkpt lat="46.0766083" lon="12.1087782"><ele>333.0</ele><time>2026-05-02T16:01:49.301Z</time></trkpt><trkpt lat="46.0766461" lon="12.108897"><ele>333.0</ele><time>2026-05-02T16:01:50.301Z</time></trkpt><trkpt lat="46.076688" lon="12.109012"><ele>333.0</ele><time>2026-05-02T16:01:51.298Z</time></trkpt><trkpt lat="46.076725" lon="12.109119"><ele>333.2857142857143</ele><time>2026-05-02T16:01:52.309Z</time></trkpt><trkpt lat="46.0767618" lon="12.1092225"><ele>333.57142857142856</ele><time>2026-05-02T16:01:53.309Z</time></trkpt><trkpt lat="46.0767946" lon="12.1093214"><ele>333.85714285714283</ele><time>2026-05-02T16:01:54.298Z</time></trkpt><trkpt lat="46.0768247" lon="12.1094154"><ele>334.1428571428571</ele><time>2026-05-02T16:01:55.402Z</time></trkpt><trkpt lat="46.0768566" lon="12.1095028"><ele>334.42857142857144</ele><time>2026-05-02T16:01:56.306Z</time></trkpt><trkpt lat="46.0768878" lon="12.1095849"><ele>334.71428571428567</ele><time>2026-05-02T16:01:57.302Z</time></trkpt><trkpt lat="46.0769203" lon="12.1096634"><ele>335.0</ele><time>2026-05-02T16:01:58.301Z</time></trkpt><trkpt lat="46.077009" lon="12.1097686"><ele>335.0</ele><time>2026-05-02T16:02:00.303Z</time></trkpt><trkpt lat="46.0771118" lon="12.1098278"><ele>335.0</ele><time>2026-05-02T16:02:02.301Z</time></trkpt><trkpt lat="46.0772155" lon="12.1099256"><ele>335.0</ele><time>2026-05-02T16:02:04.296Z</time></trkpt><trkpt lat="46.0772688" lon="12.1099845"><ele>335.0</ele><time>2026-05-02T16:02:05.303Z</time></trkpt><trkpt lat="46.0773262" lon="12.1100313"><ele>335.0</ele><time>2026-05-02T16:02:06.301Z</time></trkpt><trkpt lat="46.0773801" lon="12.110085"><ele>335.0</ele><time>2026-05-02T16:02:07.301Z</time></trkpt><trkpt lat="46.0774719" lon="12.1101955"><ele>335.0</ele><time>2026-05-02T16:02:09.3Z</time></trkpt><trkpt lat="46.0775612" lon="12.1103151"><ele>335.0</ele><time>2026-05-02T16:02:11.311Z</time></trkpt><trkpt lat="46.0776536" lon="12.1104333"><ele>335.0</ele><time>2026-05-02T16:02:13.292Z</time></trkpt><trkpt lat="46.0777355" lon="12.1105549"><ele>335.0</ele><time>2026-05-02T16:02:15.294Z</time></trkpt><trkpt lat="46.077816" lon="12.1106767"><ele>335.5</ele><time>2026-05-02T16:02:17.292Z</time></trkpt><trkpt lat="46.0778969" lon="12.1108078"><ele>336.0</ele><time>2026-05-02T16:02:19.294Z</time></trkpt><trkpt lat="46.0779727" lon="12.1109445"><ele>336.5</ele><time>2026-05-02T16:02:21.297Z</time></trkpt><trkpt lat="46.0780262" lon="12.1110966"><ele>337.0</ele><time>2026-05-02T16:02:23.3Z</time></trkpt><trkpt lat="46.0780671" lon="12.1112523"><ele>337.0</ele><time>2026-05-02T16:02:25.298Z</time></trkpt><trkpt lat="46.0780803" lon="12.1113984"><ele>337.0</ele><time>2026-05-02T16:02:27.302Z</time></trkpt><trkpt lat="46.0780744" lon="12.1115426"><ele>337.0</ele><time>2026-05-02T16:02:29.301Z</time></trkpt><trkpt lat="46.0780403" lon="12.11169"><ele>337.0</ele><time>2026-05-02T16:02:31.298Z</time></trkpt><trkpt lat="46.0779837" lon="12.1118337"><ele>337.0</ele><time>2026-05-02T16:02:33.296Z</time></trkpt><trkpt lat="46.0779099" lon="12.1119411"><ele>337.20000000000005</ele><time>2026-05-02T16:02:35.31Z</time></trkpt><trkpt lat="46.0778354" lon="12.1120298"><ele>337.4</ele><time>2026-05-02T16:02:37.31Z</time></trkpt><trkpt lat="46.0777607" lon="12.1120891"><ele>337.6</ele><time>2026-05-02T16:02:39.293Z</time></trkpt><trkpt lat="46.0776817" lon="12.1121468"><ele>337.79999999999995</ele><time>2026-05-02T16:02:41.301Z</time></trkpt><trkpt lat="46.077602" lon="12.1122501"><ele>338.0</ele><time>2026-05-02T16:02:43.296Z</time></trkpt><trkpt lat="46.0775905" lon="12.1124279"><ele>338.0</ele><time>2026-05-02T16:02:45.31Z</time></trkpt><trkpt lat="46.0776144" lon="12.1125154"><ele>338.0</ele><time>2026-05-02T16:02:46.293Z</time></trkpt><trkpt lat="46.0776602" lon="12.1125905"><ele>338.0</ele><time>2026-05-02T16:02:47.307Z</time></trkpt><trkpt lat="46.077716" lon="12.1126519"><ele>338.0</ele><time>2026-05-02T16:02:48.298Z</time></trkpt><trkpt lat="46.077767" lon="12.1127169"><ele>338.0</ele><time>2026-05-02T16:02:49.293Z</time></trkpt><trkpt lat="46.077826" lon="12.1127782"><ele>338.0</ele><time>2026-05-02T16:02:50.298Z</time></trkpt><trkpt lat="46.0778849" lon="12.112833"><ele>338.0</ele><time>2026-05-02T16:02:51.292Z</time></trkpt><trkpt lat="46.0779328" lon="12.1128955"><ele>338.0</ele><time>2026-05-02T16:02:52.301Z</time></trkpt><trkpt lat="46.0779899" lon="12.1129849"><ele>338.0</ele><time>2026-05-02T16:02:54.306Z</time></trkpt><trkpt lat="46.0780247" lon="12.1130839"><ele>338.0</ele><time>2026-05-02T16:02:56.294Z</time></trkpt><trkpt lat="46.0780271" lon="12.1132191"><ele>338.0</ele><time>2026-05-02T16:02:58.294Z</time></trkpt><trkpt lat="46.0779522" lon="12.1133297"><ele>338.0</ele><time>2026-05-02T16:03:00.31Z</time></trkpt><trkpt lat="46.0778754" lon="12.1134218"><ele>337.59999999999997</ele><time>2026-05-02T16:03:02.301Z</time></trkpt><trkpt lat="46.0777998" lon="12.1135024"><ele>337.2</ele><time>2026-05-02T16:03:04.302Z</time></trkpt><trkpt lat="46.0777218" lon="12.1135723"><ele>336.8</ele><time>2026-05-02T16:03:06.292Z</time></trkpt><trkpt lat="46.0776509" lon="12.1136553"><ele>336.4</ele><time>2026-05-02T16:03:08.301Z</time></trkpt><trkpt lat="46.0775745" lon="12.1137356"><ele>336.0</ele><time>2026-05-02T16:03:10.298Z</time></trkpt><trkpt lat="46.0774732" lon="12.1137655"><ele>335.8</ele><time>2026-05-02T16:03:12.306Z</time></trkpt><trkpt lat="46.0773716" lon="12.1137761"><ele>335.6</ele><time>2026-05-02T16:03:14.307Z</time></trkpt><trkpt lat="46.0772744" lon="12.1137518"><ele>335.4</ele><time>2026-05-02T16:03:16.292Z</time></trkpt><trkpt lat="46.0771786" lon="12.1137711"><ele>335.2</ele><time>2026-05-02T16:03:18.301Z</time></trkpt><trkpt lat="46.0770926" lon="12.1138148"><ele>335.0</ele><time>2026-05-02T16:03:20.303Z</time></trkpt><trkpt lat="46.0770239" lon="12.113868"><ele>335.0</ele><time>2026-05-02T16:03:22.298Z</time></trkpt><trkpt lat="46.076961" lon="12.1139488"><ele>335.0</ele><time>2026-05-02T16:03:24.296Z</time></trkpt><trkpt lat="46.0768474" lon="12.1140723"><ele>335.0</ele><time>2026-05-02T16:03:27.297Z</time></trkpt><trkpt lat="46.0767901" lon="12.1141799"><ele>335.0</ele><time>2026-05-02T16:03:29.301Z</time></trkpt><trkpt lat="46.076779" lon="12.1143094"><ele>335.0</ele><time>2026-05-02T16:03:31.302Z</time></trkpt><trkpt lat="46.0768394" lon="12.1144309"><ele>334.4</ele><time>2026-05-02T16:03:33.299Z</time></trkpt><trkpt lat="46.0768955" lon="12.1145613"><ele>333.8</ele><time>2026-05-02T16:03:35.296Z</time></trkpt><trkpt lat="46.0769649" lon="12.1146547"><ele>333.20000000000005</ele><time>2026-05-02T16:03:37.311Z</time></trkpt><trkpt lat="46.0768939" lon="12.1145984"><ele>332.6</ele><time>2026-05-02T16:03:42.303Z</time></trkpt><trkpt lat="46.0768047" lon="12.1145145"><ele>332.0</ele><time>2026-05-02T16:03:44.296Z</time></trkpt><trkpt lat="46.0766882" lon="12.1144797"><ele>330.8</ele><time>2026-05-02T16:03:46.292Z</time></trkpt><trkpt lat="46.0765794" lon="12.1144867"><ele>329.6</ele><time>2026-05-02T16:03:48.299Z</time></trkpt><trkpt lat="46.0764844" lon="12.1143952"><ele>328.40000000000003</ele><time>2026-05-02T16:03:50.294Z</time></trkpt><trkpt lat="46.0763842" lon="12.1143057"><ele>327.20000000000005</ele><time>2026-05-02T16:03:52.294Z</time></trkpt><trkpt lat="46.0763286" lon="12.1142595"><ele>326.0</ele><time>2026-05-02T16:03:53.299Z</time></trkpt><trkpt lat="46.076236" lon="12.1141573"><ele>326.0</ele><time>2026-05-02T16:03:55.3Z</time></trkpt><trkpt lat="46.0761291" lon="12.1141032"><ele>326.0</ele><time>2026-05-02T16:03:57.298Z</time></trkpt><trkpt lat="46.0760383" lon="12.1140922"><ele>326.0</ele><time>2026-05-02T16:03:59.297Z</time></trkpt><trkpt lat="46.0759657" lon="12.1140888"><ele>326.0</ele><time>2026-05-02T16:04:01.294Z</time></trkpt><trkpt lat="46.0758989" lon="12.1141192"><ele>326.0</ele><time>2026-05-02T16:04:03.299Z</time></trkpt><trkpt lat="46.0758258" lon="12.1141945"><ele>326.0</ele><time>2026-05-02T16:04:05.299Z</time></trkpt><trkpt lat="46.0757112" lon="12.1142841"><ele>325.20000000000005</ele><time>2026-05-02T16:04:07.29Z</time></trkpt><trkpt lat="46.0756349" lon="12.114315"><ele>324.40000000000003</ele><time>2026-05-02T16:04:08.296Z</time></trkpt><trkpt lat="46.0755459" lon="12.1143327"><ele>323.6</ele><time>2026-05-02T16:04:09.3Z</time></trkpt><trkpt lat="46.0754464" lon="12.114347"><ele>322.8</ele><time>2026-05-02T16:04:10.294Z</time></trkpt><trkpt lat="46.075343" lon="12.1143581"><ele>322.0</ele><time>2026-05-02T16:04:11.294Z</time></trkpt><trkpt lat="46.0752361" lon="12.1143532"><ele>322.0</ele><time>2026-05-02T16:04:12.292Z</time></trkpt><trkpt lat="46.0751349" lon="12.1143187"><ele>322.0</ele><time>2026-05-02T16:04:13.301Z</time></trkpt><trkpt lat="46.0750434" lon="12.114258"><ele>322.0</ele><time>2026-05-02T16:04:14.292Z</time></trkpt><trkpt lat="46.0749562" lon="12.1142023"><ele>322.0</ele><time>2026-05-02T16:04:15.291Z</time></trkpt><trkpt lat="46.0748762" lon="12.1141566"><ele>322.0</ele><time>2026-05-02T16:04:16.297Z</time></trkpt><trkpt lat="46.0747998" lon="12.1141147"><ele>322.3333333333333</ele><time>2026-05-02T16:04:17.302Z</time></trkpt><trkpt lat="46.0747279" lon="12.1140709"><ele>322.66666666666663</ele><time>2026-05-02T16:04:18.294Z</time></trkpt><trkpt lat="46.0746619" lon="12.1140321"><ele>323.0</ele><time>2026-05-02T16:04:19.303Z</time></trkpt><trkpt lat="46.0745964" lon="12.1139924"><ele>323.3333333333333</ele><time>2026-05-02T16:04:20.299Z</time></trkpt><trkpt lat="46.0745334" lon="12.1139583"><ele>323.6666666666667</ele><time>2026-05-02T16:04:21.291Z</time></trkpt><trkpt lat="46.074474" lon="12.1139236"><ele>324.0</ele><time>2026-05-02T16:04:22.29Z</time></trkpt><trkpt lat="46.0743604" lon="12.113874"><ele>324.0</ele><time>2026-05-02T16:04:24.301Z</time></trkpt><trkpt lat="46.0742353" lon="12.1138583"><ele>324.0</ele><time>2026-05-02T16:04:26.299Z</time></trkpt><trkpt lat="46.0741135" lon="12.1138374"><ele>324.0</ele><time>2026-05-02T16:04:28.301Z</time></trkpt><trkpt lat="46.0740196" lon="12.1138231"><ele>324.0</ele><time>2026-05-02T16:04:30.292Z</time></trkpt><trkpt lat="46.0739907" lon="12.1139072"><ele>324.0</ele><time>2026-05-02T16:04:32.299Z</time></trkpt><trkpt lat="46.0740361" lon="12.1140274"><ele>323.4</ele><time>2026-05-02T16:04:34.301Z</time></trkpt><trkpt lat="46.0740853" lon="12.1141772"><ele>322.79999999999995</ele><time>2026-05-02T16:04:36.298Z</time></trkpt><trkpt lat="46.0741313" lon="12.1143403"><ele>322.20000000000005</ele><time>2026-05-02T16:04:38.293Z</time></trkpt><trkpt lat="46.0741532" lon="12.1145178"><ele>321.6</ele><time>2026-05-02T16:04:40.304Z</time></trkpt><trkpt lat="46.074158" lon="12.114615"><ele>321.0</ele><time>2026-05-02T16:04:41.299Z</time></trkpt><trkpt lat="46.0741533" lon="12.1147852"><ele>321.25</ele><time>2026-05-02T16:04:43.291Z</time></trkpt><trkpt lat="46.0741028" lon="12.1149395"><ele>321.5</ele><time>2026-05-02T16:04:45.292Z</time></trkpt><trkpt lat="46.0739995" lon="12.1150385"><ele>321.75</ele><time>2026-05-02T16:04:47.293Z</time></trkpt><trkpt lat="46.0738774" lon="12.1150706"><ele>322.0</ele><time>2026-05-02T16:04:49.299Z</time></trkpt><trkpt lat="46.0737627" lon="12.1151295"><ele>322.0</ele><time>2026-05-02T16:04:51.299Z</time></trkpt><trkpt lat="46.0736556" lon="12.115212"><ele>322.0</ele><time>2026-05-02T16:04:53.298Z</time></trkpt><trkpt lat="46.0735502" lon="12.1152732"><ele>322.0</ele><time>2026-05-02T16:04:55.303Z</time></trkpt><trkpt lat="46.0734359" lon="12.1153259"><ele>322.0</ele><time>2026-05-02T16:04:57.299Z</time></trkpt><trkpt lat="46.0733134" lon="12.1153679"><ele>322.6</ele><time>2026-05-02T16:04:59.301Z</time></trkpt><trkpt lat="46.0732531" lon="12.1153954"><ele>323.20000000000005</ele><time>2026-05-02T16:05:00.308Z</time></trkpt><trkpt lat="46.0731395" lon="12.1154561"><ele>323.8</ele><time>2026-05-02T16:05:02.294Z</time></trkpt><trkpt lat="46.0730307" lon="12.1155293"><ele>324.4</ele><time>2026-05-02T16:05:04.301Z</time></trkpt><trkpt lat="46.0729235" lon="12.1156062"><ele>325.0</ele><time>2026-05-02T16:05:06.3Z</time></trkpt><trkpt lat="46.0728111" lon="12.1156666"><ele>325.0</ele><time>2026-05-02T16:05:08.295Z</time></trkpt><trkpt lat="46.0726977" lon="12.1156896"><ele>325.0</ele><time>2026-05-02T16:05:10.292Z</time></trkpt><trkpt lat="46.0725805" lon="12.1156431"><ele>325.0</ele><time>2026-05-02T16:05:12.299Z</time></trkpt><trkpt lat="46.0724643" lon="12.115608"><ele>325.0</ele><time>2026-05-02T16:05:14.293Z</time></trkpt><trkpt lat="46.0723495" lon="12.1155923"><ele>324.25</ele><time>2026-05-02T16:05:16.299Z</time></trkpt><trkpt lat="46.0722351" lon="12.1155958"><ele>323.5</ele><time>2026-05-02T16:05:18.299Z</time></trkpt><trkpt lat="46.0721165" lon="12.1156163"><ele>322.75</ele><time>2026-05-02T16:05:20.293Z</time></trkpt><trkpt lat="46.0719485" lon="12.1156596"><ele>322.0</ele><time>2026-05-02T16:05:23.301Z</time></trkpt><trkpt lat="46.0718421" lon="12.1156991"><ele>321.75</ele><time>2026-05-02T16:05:25.301Z</time></trkpt><trkpt lat="46.0717275" lon="12.1157419"><ele>321.5</ele><time>2026-05-02T16:05:27.295Z</time></trkpt><trkpt lat="46.0716083" lon="12.1157792"><ele>321.25</ele><time>2026-05-02T16:05:29.298Z</time></trkpt><trkpt lat="46.0714922" lon="12.1158061"><ele>321.0</ele><time>2026-05-02T16:05:31.299Z</time></trkpt><trkpt lat="46.0713722" lon="12.1158133"><ele>321.75</ele><time>2026-05-02T16:05:33.3Z</time></trkpt><trkpt lat="46.0712541" lon="12.1158166"><ele>322.5</ele><time>2026-05-02T16:05:35.298Z</time></trkpt><trkpt lat="46.0711365" lon="12.1158201"><ele>323.25</ele><time>2026-05-02T16:05:37.293Z</time></trkpt><trkpt lat="46.0710148" lon="12.1158273"><ele>324.0</ele><time>2026-05-02T16:05:39.292Z</time></trkpt><trkpt lat="46.070892" lon="12.1158378"><ele>325.25</ele><time>2026-05-02T16:05:41.299Z</time></trkpt><trkpt lat="46.0707714" lon="12.1158464"><ele>326.5</ele><time>2026-05-02T16:05:43.297Z</time></trkpt><trkpt lat="46.0706467" lon="12.1158632"><ele>327.75</ele><time>2026-05-02T16:05:45.298Z</time></trkpt><trkpt lat="46.0705245" lon="12.1158771"><ele>329.0</ele><time>2026-05-02T16:05:47.307Z</time></trkpt><trkpt lat="46.0704041" lon="12.1158917"><ele>329.0</ele><time>2026-05-02T16:05:49.299Z</time></trkpt><trkpt lat="46.0702818" lon="12.1159031"><ele>329.0</ele><time>2026-05-02T16:05:51.293Z</time></trkpt><trkpt lat="46.0701568" lon="12.1159064"><ele>329.0</ele><time>2026-05-02T16:05:53.291Z</time></trkpt><trkpt lat="46.0700938" lon="12.1159062"><ele>329.0</ele><time>2026-05-02T16:05:54.301Z</time></trkpt><trkpt lat="46.0699743" lon="12.1159109"><ele>329.0</ele><time>2026-05-02T16:05:56.3Z</time></trkpt><trkpt lat="46.0698558" lon="12.115923"><ele>329.79999999999995</ele><time>2026-05-02T16:05:58.299Z</time></trkpt><trkpt lat="46.0697397" lon="12.1159431"><ele>330.59999999999997</ele><time>2026-05-02T16:06:00.299Z</time></trkpt><trkpt lat="46.0696351" lon="12.1159356"><ele>331.4</ele><time>2026-05-02T16:06:02.3Z</time></trkpt><trkpt lat="46.0695576" lon="12.115877"><ele>332.2</ele><time>2026-05-02T16:06:04.298Z</time></trkpt><trkpt lat="46.0695234" lon="12.1157746"><ele>333.0</ele><time>2026-05-02T16:06:06.299Z</time></trkpt><trkpt lat="46.0695002" lon="12.1156738"><ele>333.0</ele><time>2026-05-02T16:06:08.293Z</time></trkpt><trkpt lat="46.0694475" lon="12.1155906"><ele>333.0</ele><time>2026-05-02T16:06:11.292Z</time></trkpt><trkpt lat="46.0693837" lon="12.1155782"><ele>333.0</ele><time>2026-05-02T16:06:14.298Z</time></trkpt><trkpt lat="46.0693648" lon="12.1157161"><ele>333.0</ele><time>2026-05-02T16:06:17.3Z</time></trkpt><trkpt lat="46.0693804" lon="12.1158345"><ele>333.0</ele><time>2026-05-02T16:06:19.302Z</time></trkpt><trkpt lat="46.0693882" lon="12.115951"><ele>333.0</ele><time>2026-05-02T16:06:21.298Z</time></trkpt><trkpt lat="46.0693942" lon="12.1160874"><ele>333.0</ele><time>2026-05-02T16:06:23.298Z</time></trkpt><trkpt lat="46.0694017" lon="12.1162196"><ele>333.0</ele><time>2026-05-02T16:06:25.297Z</time></trkpt><trkpt lat="46.0694059" lon="12.1163518"><ele>333.0</ele><time>2026-05-02T16:06:27.296Z</time></trkpt><trkpt lat="46.0694084" lon="12.1164985"><ele>333.0</ele><time>2026-05-02T16:06:29.299Z</time></trkpt><trkpt lat="46.0694159" lon="12.1166379"><ele>333.0</ele><time>2026-05-02T16:06:31.292Z</time></trkpt><trkpt lat="46.0694266" lon="12.1167771"><ele>332.79999999999995</ele><time>2026-05-02T16:06:33.3Z</time></trkpt><trkpt lat="46.069447" lon="12.1169262"><ele>332.6</ele><time>2026-05-02T16:06:35.294Z</time></trkpt><trkpt lat="46.0694703" lon="12.1170783"><ele>332.4</ele><time>2026-05-02T16:06:37.293Z</time></trkpt><trkpt lat="46.069488" lon="12.1172217"><ele>332.20000000000005</ele><time>2026-05-02T16:06:39.3Z</time></trkpt><trkpt lat="46.0695114" lon="12.1173638"><ele>332.0</ele><time>2026-05-02T16:06:41.3Z</time></trkpt><trkpt lat="46.0695393" lon="12.1175303"><ele>333.6</ele><time>2026-05-02T16:06:43.298Z</time></trkpt><trkpt lat="46.0695859" lon="12.1176803"><ele>335.20000000000005</ele><time>2026-05-02T16:06:45.3Z</time></trkpt><trkpt lat="46.069635" lon="12.1178178"><ele>336.8</ele><time>2026-05-02T16:06:47.292Z</time></trkpt><trkpt lat="46.0696857" lon="12.1179581"><ele>338.4</ele><time>2026-05-02T16:06:49.298Z</time></trkpt><trkpt lat="46.0697394" lon="12.1181057"><ele>340.0</ele><time>2026-05-02T16:06:51.299Z</time></trkpt><trkpt lat="46.0697978" lon="12.118262"><ele>340.5</ele><time>2026-05-02T16:06:53.3Z</time></trkpt><trkpt lat="46.0698492" lon="12.1184244"><ele>341.0</ele><time>2026-05-02T16:06:55.295Z</time></trkpt><trkpt lat="46.0699044" lon="12.1185776"><ele>341.5</ele><time>2026-05-02T16:06:57.39Z</time></trkpt><trkpt lat="46.0699582" lon="12.1187144"><ele>342.0</ele><time>2026-05-02T16:06:59.294Z</time></trkpt><trkpt lat="46.0700081" lon="12.1188507"><ele>342.0</ele><time>2026-05-02T16:07:01.301Z</time></trkpt><trkpt lat="46.0700617" lon="12.1189925"><ele>342.0</ele><time>2026-05-02T16:07:03.298Z</time></trkpt><trkpt lat="46.0701146" lon="12.1191389"><ele>342.0</ele><time>2026-05-02T16:07:05.3Z</time></trkpt><trkpt lat="46.0701741" lon="12.1192864"><ele>342.0</ele><time>2026-05-02T16:07:07.301Z</time></trkpt><trkpt lat="46.0702345" lon="12.1194257"><ele>342.1666666666667</ele><time>2026-05-02T16:07:09.303Z</time></trkpt><trkpt lat="46.0702853" lon="12.1195557"><ele>342.3333333333333</ele><time>2026-05-02T16:07:11.297Z</time></trkpt><trkpt lat="46.070291" lon="12.1196896"><ele>342.5</ele><time>2026-05-02T16:07:13.297Z</time></trkpt><trkpt lat="46.0703236" lon="12.1198479"><ele>342.66666666666663</ele><time>2026-05-02T16:07:15.3Z</time></trkpt><trkpt lat="46.0703501" lon="12.1199327"><ele>342.8333333333333</ele><time>2026-05-02T16:07:16.299Z</time></trkpt><trkpt lat="46.0703831" lon="12.1200147"><ele>343.0</ele><time>2026-05-02T16:07:17.293Z</time></trkpt><trkpt lat="46.070416" lon="12.1200951"><ele>343.0</ele><time>2026-05-02T16:07:18.299Z</time></trkpt><trkpt lat="46.0704462" lon="12.1201763"><ele>343.0</ele><time>2026-05-02T16:07:19.296Z</time></trkpt><trkpt lat="46.0704777" lon="12.1202549"><ele>343.0</ele><time>2026-05-02T16:07:20.295Z</time></trkpt><trkpt lat="46.0705077" lon="12.1203361"><ele>343.0</ele><time>2026-05-02T16:07:21.295Z</time></trkpt><trkpt lat="46.0705681" lon="12.1204971"><ele>343.0</ele><time>2026-05-02T16:07:23.293Z</time></trkpt><trkpt lat="46.0706258" lon="12.120658"><ele>343.0</ele><time>2026-05-02T16:07:25.294Z</time></trkpt><trkpt lat="46.070653" lon="12.1207436"><ele>343.59999999999997</ele><time>2026-05-02T16:07:26.31Z</time></trkpt><trkpt lat="46.0707035" lon="12.1209105"><ele>344.2</ele><time>2026-05-02T16:07:28.294Z</time></trkpt><trkpt lat="46.0707276" lon="12.120998"><ele>344.8</ele><time>2026-05-02T16:07:29.301Z</time></trkpt><trkpt lat="46.0707689" lon="12.1211683"><ele>345.4</ele><time>2026-05-02T16:07:31.301Z</time></trkpt><trkpt lat="46.0708169" lon="12.1213334"><ele>346.0</ele><time>2026-05-02T16:07:33.3Z</time></trkpt><trkpt lat="46.0708635" lon="12.1215018"><ele>345.20000000000005</ele><time>2026-05-02T16:07:35.295Z</time></trkpt><trkpt lat="46.0709066" lon="12.1216732"><ele>344.40000000000003</ele><time>2026-05-02T16:07:37.295Z</time></trkpt><trkpt lat="46.0709511" lon="12.1218398"><ele>343.6</ele><time>2026-05-02T16:07:39.3Z</time></trkpt><trkpt lat="46.0709965" lon="12.1220096"><ele>342.8</ele><time>2026-05-02T16:07:41.3Z</time></trkpt><trkpt lat="46.071022" lon="12.1220981"><ele>342.0</ele><time>2026-05-02T16:07:42.3Z</time></trkpt><trkpt lat="46.0710447" lon="12.1221867"><ele>341.99999999999994</ele><time>2026-05-02T16:07:43.301Z</time></trkpt><trkpt lat="46.0710692" lon="12.1222746"><ele>342.0</ele><time>2026-05-02T16:07:44.302Z</time></trkpt><trkpt lat="46.0710932" lon="12.1223615"><ele>342.0</ele><time>2026-05-02T16:07:45.301Z</time></trkpt><trkpt lat="46.0711162" lon="12.1224492"><ele>342.0</ele><time>2026-05-02T16:07:46.301Z</time></trkpt><trkpt lat="46.0711388" lon="12.1225351"><ele>342.0</ele><time>2026-05-02T16:07:47.292Z</time></trkpt><trkpt lat="46.0711609" lon="12.1226277"><ele>341.99999999999994</ele><time>2026-05-02T16:07:48.297Z</time></trkpt><trkpt lat="46.0711875" lon="12.1227178"><ele>342.0</ele><time>2026-05-02T16:07:49.3Z</time></trkpt><trkpt lat="46.071211" lon="12.1228076"><ele>341.99999999999994</ele><time>2026-05-02T16:07:50.296Z</time></trkpt><trkpt lat="46.0712356" lon="12.1228951"><ele>342.0</ele><time>2026-05-02T16:07:51.293Z</time></trkpt><trkpt lat="46.0712604" lon="12.1229846"><ele>342.0</ele><time>2026-05-02T16:07:52.301Z</time></trkpt><trkpt lat="46.071283" lon="12.1230745"><ele>342.0</ele><time>2026-05-02T16:07:53.305Z</time></trkpt><trkpt lat="46.0713082" lon="12.1231648"><ele>342.0</ele><time>2026-05-02T16:07:54.305Z</time></trkpt><trkpt lat="46.071332" lon="12.1232564"><ele>341.99999999999994</ele><time>2026-05-02T16:07:55.292Z</time></trkpt><trkpt lat="46.0713538" lon="12.123345"><ele>342.0</ele><time>2026-05-02T16:07:56.296Z</time></trkpt><trkpt lat="46.0713756" lon="12.123433"><ele>342.2857142857143</ele><time>2026-05-02T16:07:57.294Z</time></trkpt><trkpt lat="46.0713988" lon="12.1235205"><ele>342.57142857142856</ele><time>2026-05-02T16:07:58.295Z</time></trkpt><trkpt lat="46.0714218" lon="12.1236074"><ele>342.8571428571429</ele><time>2026-05-02T16:07:59.294Z</time></trkpt><trkpt lat="46.0714442" lon="12.1236964"><ele>343.1428571428571</ele><time>2026-05-02T16:08:00.293Z</time></trkpt><trkpt lat="46.0714638" lon="12.1237865"><ele>343.42857142857144</ele><time>2026-05-02T16:08:01.295Z</time></trkpt><trkpt lat="46.0714873" lon="12.123877"><ele>343.7142857142857</ele><time>2026-05-02T16:08:02.294Z</time></trkpt><trkpt lat="46.07151" lon="12.1239677"><ele>344.0</ele><time>2026-05-02T16:08:03.296Z</time></trkpt><trkpt lat="46.0715303" lon="12.1240573"><ele>344.28571428571433</ele><time>2026-05-02T16:08:04.295Z</time></trkpt><trkpt lat="46.0715522" lon="12.124144"><ele>344.57142857142856</ele><time>2026-05-02T16:08:05.303Z</time></trkpt><trkpt lat="46.0715741" lon="12.1242307"><ele>344.8571428571429</ele><time>2026-05-02T16:08:06.297Z</time></trkpt><trkpt lat="46.0715966" lon="12.1243184"><ele>345.14285714285717</ele><time>2026-05-02T16:08:07.302Z</time></trkpt><trkpt lat="46.0716205" lon="12.1244041"><ele>345.42857142857144</ele><time>2026-05-02T16:08:08.298Z</time></trkpt><trkpt lat="46.0716447" lon="12.1244908"><ele>345.7142857142857</ele><time>2026-05-02T16:08:09.294Z</time></trkpt><trkpt lat="46.0716905" lon="12.1246607"><ele>346.0</ele><time>2026-05-02T16:08:11.292Z</time></trkpt><trkpt lat="46.0717143" lon="12.1247485"><ele>345.85714285714283</ele><time>2026-05-02T16:08:12.301Z</time></trkpt><trkpt lat="46.0717356" lon="12.1248362"><ele>345.7142857142857</ele><time>2026-05-02T16:08:13.299Z</time></trkpt><trkpt lat="46.0717577" lon="12.1249247"><ele>345.57142857142856</ele><time>2026-05-02T16:08:14.303Z</time></trkpt><trkpt lat="46.0717836" lon="12.1250094"><ele>345.42857142857144</ele><time>2026-05-02T16:08:15.296Z</time></trkpt><trkpt lat="46.0718064" lon="12.1250979"><ele>345.2857142857143</ele><time>2026-05-02T16:08:16.292Z</time></trkpt><trkpt lat="46.0718308" lon="12.1251826"><ele>345.14285714285717</ele><time>2026-05-02T16:08:17.302Z</time></trkpt><trkpt lat="46.0718549" lon="12.1252686"><ele>345.0</ele><time>2026-05-02T16:08:18.294Z</time></trkpt><trkpt lat="46.0718815" lon="12.1253509"><ele>345.0</ele><time>2026-05-02T16:08:19.3Z</time></trkpt><trkpt lat="46.0719041" lon="12.1254361"><ele>345.0</ele><time>2026-05-02T16:08:20.301Z</time></trkpt><trkpt lat="46.0719262" lon="12.1255235"><ele>345.0</ele><time>2026-05-02T16:08:21.302Z</time></trkpt><trkpt lat="46.0719492" lon="12.1256127"><ele>345.0</ele><time>2026-05-02T16:08:22.295Z</time></trkpt><trkpt lat="46.0719738" lon="12.1257022"><ele>345.0</ele><time>2026-05-02T16:08:23.296Z</time></trkpt><trkpt lat="46.0719946" lon="12.1257909"><ele>345.0</ele><time>2026-05-02T16:08:24.299Z</time></trkpt><trkpt lat="46.0720166" lon="12.1258832"><ele>345.0</ele><time>2026-05-02T16:08:25.294Z</time></trkpt><trkpt lat="46.0720413" lon="12.125974"><ele>345.3333333333333</ele><time>2026-05-02T16:08:26.294Z</time></trkpt><trkpt lat="46.0720646" lon="12.1260666"><ele>345.6666666666667</ele><time>2026-05-02T16:08:27.433Z</time></trkpt><trkpt lat="46.0721138" lon="12.1262499"><ele>346.0</ele><time>2026-05-02T16:08:29.3Z</time></trkpt><trkpt lat="46.0721385" lon="12.1263422"><ele>346.33333333333337</ele><time>2026-05-02T16:08:30.298Z</time></trkpt><trkpt lat="46.0721621" lon="12.1264338"><ele>346.6666666666667</ele><time>2026-05-02T16:08:31.29Z</time></trkpt><trkpt lat="46.0721858" lon="12.1265271"><ele>347.0</ele><time>2026-05-02T16:08:32.293Z</time></trkpt><trkpt lat="46.0722133" lon="12.1266196"><ele>347.14285714285717</ele><time>2026-05-02T16:08:33.3Z</time></trkpt><trkpt lat="46.0722389" lon="12.1267125"><ele>347.2857142857143</ele><time>2026-05-02T16:08:34.3Z</time></trkpt><trkpt lat="46.0722656" lon="12.12681"><ele>347.42857142857144</ele><time>2026-05-02T16:08:35.293Z</time></trkpt><trkpt lat="46.0722908" lon="12.1269023"><ele>347.57142857142856</ele><time>2026-05-02T16:08:36.299Z</time></trkpt><trkpt lat="46.0723142" lon="12.1269999"><ele>347.7142857142857</ele><time>2026-05-02T16:08:37.3Z</time></trkpt><trkpt lat="46.0723387" lon="12.1270948"><ele>347.85714285714283</ele><time>2026-05-02T16:08:38.299Z</time></trkpt><trkpt lat="46.0723641" lon="12.1271916"><ele>348.0</ele><time>2026-05-02T16:08:39.294Z</time></trkpt><trkpt lat="46.0723891" lon="12.1272841"><ele>348.0</ele><time>2026-05-02T16:08:40.295Z</time></trkpt><trkpt lat="46.0724137" lon="12.1273759"><ele>348.0</ele><time>2026-05-02T16:08:41.29Z</time></trkpt><trkpt lat="46.0724397" lon="12.1274696"><ele>348.0</ele><time>2026-05-02T16:08:42.3Z</time></trkpt><trkpt lat="46.07246" lon="12.1275619"><ele>348.0</ele><time>2026-05-02T16:08:43.296Z</time></trkpt><trkpt lat="46.0724821" lon="12.1276535"><ele>348.0</ele><time>2026-05-02T16:08:44.298Z</time></trkpt><trkpt lat="46.0725056" lon="12.1277459"><ele>348.0</ele><time>2026-05-02T16:08:45.303Z</time></trkpt><trkpt lat="46.0725322" lon="12.1278399"><ele>348.0</ele><time>2026-05-02T16:08:46.301Z</time></trkpt><trkpt lat="46.0725559" lon="12.1279341"><ele>347.7142857142857</ele><time>2026-05-02T16:08:47.298Z</time></trkpt><trkpt lat="46.0725785" lon="12.1280271"><ele>347.42857142857144</ele><time>2026-05-02T16:08:48.299Z</time></trkpt><trkpt lat="46.0726033" lon="12.1281207"><ele>347.1428571428571</ele><time>2026-05-02T16:08:49.294Z</time></trkpt><trkpt lat="46.072627" lon="12.1282129"><ele>346.8571428571429</ele><time>2026-05-02T16:08:50.296Z</time></trkpt><trkpt lat="46.0726529" lon="12.128302"><ele>346.5714285714286</ele><time>2026-05-02T16:08:51.299Z</time></trkpt><trkpt lat="46.0726726" lon="12.1283953"><ele>346.2857142857143</ele><time>2026-05-02T16:08:52.291Z</time></trkpt><trkpt lat="46.0726995" lon="12.1284855"><ele>346.0</ele><time>2026-05-02T16:08:53.292Z</time></trkpt><trkpt lat="46.072722" lon="12.128574"><ele>346.0</ele><time>2026-05-02T16:08:54.293Z</time></trkpt><trkpt lat="46.0727461" lon="12.1286632"><ele>346.0</ele><time>2026-05-02T16:08:55.297Z</time></trkpt><trkpt lat="46.0727705" lon="12.1287489"><ele>346.0</ele><time>2026-05-02T16:08:56.296Z</time></trkpt><trkpt lat="46.0727942" lon="12.128838"><ele>346.0</ele><time>2026-05-02T16:08:57.295Z</time></trkpt><trkpt lat="46.0728165" lon="12.1289256"><ele>346.0</ele><time>2026-05-02T16:08:58.294Z</time></trkpt><trkpt lat="46.0728382" lon="12.1290182"><ele>346.0</ele><time>2026-05-02T16:08:59.295Z</time></trkpt><trkpt lat="46.0728627" lon="12.1291046"><ele>346.0</ele><time>2026-05-02T16:09:00.3Z</time></trkpt><trkpt lat="46.0728858" lon="12.1291926"><ele>345.85714285714283</ele><time>2026-05-02T16:09:01.301Z</time></trkpt><trkpt lat="46.0729099" lon="12.1292831"><ele>345.7142857142857</ele><time>2026-05-02T16:09:02.302Z</time></trkpt><trkpt lat="46.0729344" lon="12.1293722"><ele>345.57142857142856</ele><time>2026-05-02T16:09:03.295Z</time></trkpt><trkpt lat="46.0729589" lon="12.1294619"><ele>345.42857142857144</ele><time>2026-05-02T16:09:04.299Z</time></trkpt><trkpt lat="46.0729835" lon="12.1295534"><ele>345.2857142857143</ele><time>2026-05-02T16:09:05.299Z</time></trkpt><trkpt lat="46.0730059" lon="12.1296458"><ele>345.14285714285717</ele><time>2026-05-02T16:09:06.296Z</time></trkpt><trkpt lat="46.073028" lon="12.1297356"><ele>345.0</ele><time>2026-05-02T16:09:07.299Z</time></trkpt><trkpt lat="46.0730507" lon="12.1298278"><ele>345.3333333333333</ele><time>2026-05-02T16:09:08.293Z</time></trkpt><trkpt lat="46.0730752" lon="12.1299188"><ele>345.6666666666667</ele><time>2026-05-02T16:09:09.294Z</time></trkpt><trkpt lat="46.0731002" lon="12.1300106"><ele>346.0</ele><time>2026-05-02T16:09:10.313Z</time></trkpt><trkpt lat="46.0731252" lon="12.1301045"><ele>346.33333333333337</ele><time>2026-05-02T16:09:11.293Z</time></trkpt><trkpt lat="46.073169" lon="12.1302745"><ele>346.6666666666667</ele><time>2026-05-02T16:09:13.308Z</time></trkpt><trkpt lat="46.0731886" lon="12.1303612"><ele>347.0</ele><time>2026-05-02T16:09:14.294Z</time></trkpt><trkpt lat="46.0732112" lon="12.130446"><ele>347.0</ele><time>2026-05-02T16:09:15.296Z</time></trkpt><trkpt lat="46.0732565" lon="12.1306085"><ele>347.0</ele><time>2026-05-02T16:09:17.294Z</time></trkpt><trkpt lat="46.0732972" lon="12.1307762"><ele>347.0</ele><time>2026-05-02T16:09:19.296Z</time></trkpt><trkpt lat="46.0733205" lon="12.1308608"><ele>347.0</ele><time>2026-05-02T16:09:20.293Z</time></trkpt><trkpt lat="46.0733422" lon="12.1309476"><ele>347.0</ele><time>2026-05-02T16:09:21.301Z</time></trkpt><trkpt lat="46.0733625" lon="12.131036"><ele>347.0</ele><time>2026-05-02T16:09:22.3Z</time></trkpt><trkpt lat="46.0733885" lon="12.1311192"><ele>347.0</ele><time>2026-05-02T16:09:23.297Z</time></trkpt><trkpt lat="46.0734352" lon="12.1312909"><ele>347.0</ele><time>2026-05-02T16:09:25.295Z</time></trkpt><trkpt lat="46.0734873" lon="12.131459"><ele>347.0</ele><time>2026-05-02T16:09:27.302Z</time></trkpt><trkpt lat="46.0735096" lon="12.1315441"><ele>347.0</ele><time>2026-05-02T16:09:28.309Z</time></trkpt><trkpt lat="46.073552" lon="12.1317126"><ele>347.0</ele><time>2026-05-02T16:09:30.293Z</time></trkpt><trkpt lat="46.073574" lon="12.1318013"><ele>347.20000000000005</ele><time>2026-05-02T16:09:31.301Z</time></trkpt><trkpt lat="46.0735979" lon="12.1318882"><ele>347.4</ele><time>2026-05-02T16:09:32.307Z</time></trkpt><trkpt lat="46.0736401" lon="12.1320538"><ele>347.6</ele><time>2026-05-02T16:09:34.301Z</time></trkpt><trkpt lat="46.0736762" lon="12.1322018"><ele>347.79999999999995</ele><time>2026-05-02T16:09:36.295Z</time></trkpt><trkpt lat="46.0737122" lon="12.1323559"><ele>348.0</ele><time>2026-05-02T16:09:38.297Z</time></trkpt><trkpt lat="46.0737558" lon="12.1325097"><ele>348.4</ele><time>2026-05-02T16:09:40.306Z</time></trkpt><trkpt lat="46.0738139" lon="12.132649"><ele>348.79999999999995</ele><time>2026-05-02T16:09:42.301Z</time></trkpt><trkpt lat="46.0738795" lon="12.1327696"><ele>349.2</ele><time>2026-05-02T16:09:44.303Z</time></trkpt><trkpt lat="46.0739463" lon="12.1328938"><ele>349.6</ele><time>2026-05-02T16:09:46.306Z</time></trkpt><trkpt lat="46.0740192" lon="12.1330188"><ele>350.0</ele><time>2026-05-02T16:09:48.295Z</time></trkpt><trkpt lat="46.0740921" lon="12.133149"><ele>349.0</ele><time>2026-05-02T16:09:50.296Z</time></trkpt><trkpt lat="46.0741682" lon="12.133284"><ele>348.0</ele><time>2026-05-02T16:09:52.301Z</time></trkpt><trkpt lat="46.074242" lon="12.1334228"><ele>347.0</ele><time>2026-05-02T16:09:54.295Z</time></trkpt><trkpt lat="46.0743255" lon="12.1335525"><ele>346.0</ele><time>2026-05-02T16:09:56.3Z</time></trkpt><trkpt lat="46.0744033" lon="12.1336921"><ele>346.0</ele><time>2026-05-02T16:09:58.297Z</time></trkpt><trkpt lat="46.0744861" lon="12.1338235"><ele>346.0</ele><time>2026-05-02T16:10:00.3Z</time></trkpt><trkpt lat="46.0745325" lon="12.1338851"><ele>346.0</ele><time>2026-05-02T16:10:01.301Z</time></trkpt><trkpt lat="46.0745803" lon="12.1339469"><ele>346.0</ele><time>2026-05-02T16:10:02.3Z</time></trkpt><trkpt lat="46.0746341" lon="12.1340037"><ele>346.0</ele><time>2026-05-02T16:10:03.293Z</time></trkpt><trkpt lat="46.0746896" lon="12.134054"><ele>346.0</ele><time>2026-05-02T16:10:04.305Z</time></trkpt><trkpt lat="46.0747498" lon="12.1340956"><ele>346.0</ele><time>2026-05-02T16:10:05.299Z</time></trkpt><trkpt lat="46.0748733" lon="12.1341631"><ele>345.4285714285714</ele><time>2026-05-02T16:10:07.293Z</time></trkpt><trkpt lat="46.0749418" lon="12.1341932"><ele>344.8571428571429</ele><time>2026-05-02T16:10:08.3Z</time></trkpt><trkpt lat="46.0750097" lon="12.1342187"><ele>344.2857142857143</ele><time>2026-05-02T16:10:09.3Z</time></trkpt><trkpt lat="46.075082" lon="12.1342402"><ele>343.71428571428567</ele><time>2026-05-02T16:10:10.295Z</time></trkpt><trkpt lat="46.0751542" lon="12.1342634"><ele>343.1428571428571</ele><time>2026-05-02T16:10:11.293Z</time></trkpt><trkpt lat="46.0752255" lon="12.134285"><ele>342.57142857142856</ele><time>2026-05-02T16:10:12.295Z</time></trkpt><trkpt lat="46.0752974" lon="12.1343077"><ele>342.0</ele><time>2026-05-02T16:10:13.292Z</time></trkpt><trkpt lat="46.0753699" lon="12.1343337"><ele>342.0</ele><time>2026-05-02T16:10:14.295Z</time></trkpt><trkpt lat="46.0754442" lon="12.1343554"><ele>342.0</ele><time>2026-05-02T16:10:15.3Z</time></trkpt><trkpt lat="46.0755196" lon="12.1343774"><ele>342.0</ele><time>2026-05-02T16:10:16.295Z</time></trkpt><trkpt lat="46.0755932" lon="12.1344025"><ele>342.0</ele><time>2026-05-02T16:10:17.3Z</time></trkpt><trkpt lat="46.0756667" lon="12.1344261"><ele>342.0</ele><time>2026-05-02T16:10:18.299Z</time></trkpt><trkpt lat="46.0757424" lon="12.1344514"><ele>342.0</ele><time>2026-05-02T16:10:19.301Z</time></trkpt><trkpt lat="46.075814" lon="12.1344794"><ele>340.8333333333333</ele><time>2026-05-02T16:10:20.302Z</time></trkpt><trkpt lat="46.0758874" lon="12.1345061"><ele>339.6666666666667</ele><time>2026-05-02T16:10:21.301Z</time></trkpt><trkpt lat="46.0759636" lon="12.1345371"><ele>338.5</ele><time>2026-05-02T16:10:22.301Z</time></trkpt><trkpt lat="46.0760358" lon="12.1345777"><ele>337.33333333333337</ele><time>2026-05-02T16:10:23.3Z</time></trkpt><trkpt lat="46.076105" lon="12.1346247"><ele>336.1666666666667</ele><time>2026-05-02T16:10:24.298Z</time></trkpt><trkpt lat="46.0761689" lon="12.1346745"><ele>335.0</ele><time>2026-05-02T16:10:25.3Z</time></trkpt><trkpt lat="46.0762307" lon="12.134727"><ele>335.0</ele><time>2026-05-02T16:10:26.299Z</time></trkpt><trkpt lat="46.0762848" lon="12.1347868"><ele>335.0</ele><time>2026-05-02T16:10:27.295Z</time></trkpt><trkpt lat="46.0763394" lon="12.1348482"><ele>335.0</ele><time>2026-05-02T16:10:28.301Z</time></trkpt><trkpt lat="46.0763925" lon="12.1349059"><ele>335.0</ele><time>2026-05-02T16:10:29.301Z</time></trkpt><trkpt lat="46.076444" lon="12.134965"><ele>335.0</ele><time>2026-05-02T16:10:30.295Z</time></trkpt><trkpt lat="46.0765397" lon="12.1350765"><ele>335.0</ele><time>2026-05-02T16:10:32.298Z</time></trkpt><trkpt lat="46.0766287" lon="12.1351685"><ele>334.33333333333337</ele><time>2026-05-02T16:10:34.299Z</time></trkpt><trkpt lat="46.0767005" lon="12.1352436"><ele>333.6666666666667</ele><time>2026-05-02T16:10:36.302Z</time></trkpt><trkpt lat="46.0767826" lon="12.1353131"><ele>333.0</ele><time>2026-05-02T16:10:53.3Z</time></trkpt><trkpt lat="46.0768533" lon="12.1352703"><ele>332.3333333333333</ele><time>2026-05-02T16:10:56.291Z</time></trkpt><trkpt lat="46.0768154" lon="12.1351964"><ele>331.66666666666663</ele><time>2026-05-02T16:10:59.294Z</time></trkpt><trkpt lat="46.0768302" lon="12.1353331"><ele>331.0</ele><time>2026-05-02T16:11:45.301Z</time></trkpt><trkpt lat="46.076869" lon="12.1354073"><ele>331.0</ele><time>2026-05-02T16:11:46.3Z</time></trkpt><trkpt lat="46.0769523" lon="12.1355076"><ele>331.0</ele><time>2026-05-02T16:11:48.293Z</time></trkpt><trkpt lat="46.0770022" lon="12.135565"><ele>331.0</ele><time>2026-05-02T16:11:49.301Z</time></trkpt><trkpt lat="46.0770562" lon="12.1356233"><ele>331.0</ele><time>2026-05-02T16:11:50.294Z</time></trkpt><trkpt lat="46.0771113" lon="12.1356778"><ele>331.0</ele><time>2026-05-02T16:11:51.301Z</time></trkpt><trkpt lat="46.0771654" lon="12.1357388"><ele>331.0</ele><time>2026-05-02T16:11:52.299Z</time></trkpt><trkpt lat="46.0772206" lon="12.1357988"><ele>331.0</ele><time>2026-05-02T16:11:53.299Z</time></trkpt><trkpt lat="46.0772782" lon="12.1358597"><ele>331.14285714285717</ele><time>2026-05-02T16:11:54.292Z</time></trkpt><trkpt lat="46.0773375" lon="12.1359197"><ele>331.2857142857143</ele><time>2026-05-02T16:11:55.299Z</time></trkpt><trkpt lat="46.0773954" lon="12.1359843"><ele>331.42857142857144</ele><time>2026-05-02T16:11:56.299Z</time></trkpt><trkpt lat="46.0774544" lon="12.1360473"><ele>331.57142857142856</ele><time>2026-05-02T16:11:57.3Z</time></trkpt><trkpt lat="46.0775139" lon="12.1361112"><ele>331.7142857142857</ele><time>2026-05-02T16:11:58.299Z</time></trkpt><trkpt lat="46.0775741" lon="12.1361778"><ele>331.85714285714283</ele><time>2026-05-02T16:11:59.29Z</time></trkpt><trkpt lat="46.0776354" lon="12.1362476"><ele>332.0</ele><time>2026-05-02T16:12:00.299Z</time></trkpt><trkpt lat="46.077698" lon="12.1363128"><ele>332.0</ele><time>2026-05-02T16:12:01.298Z</time></trkpt><trkpt lat="46.0777595" lon="12.1363792"><ele>332.0</ele><time>2026-05-02T16:12:02.292Z</time></trkpt><trkpt lat="46.0778204" lon="12.1364472"><ele>332.0</ele><time>2026-05-02T16:12:03.301Z</time></trkpt><trkpt lat="46.0778807" lon="12.1365164"><ele>332.0</ele><time>2026-05-02T16:12:04.3Z</time></trkpt><trkpt lat="46.0779409" lon="12.1365833"><ele>332.0</ele><time>2026-05-02T16:12:05.299Z</time></trkpt><trkpt lat="46.078" lon="12.1366527"><ele>332.0</ele><time>2026-05-02T16:12:06.294Z</time></trkpt><trkpt lat="46.0780573" lon="12.1367227"><ele>332.1428571428571</ele><time>2026-05-02T16:12:07.3Z</time></trkpt><trkpt lat="46.07811" lon="12.1367968"><ele>332.28571428571433</ele><time>2026-05-02T16:12:08.299Z</time></trkpt><trkpt lat="46.0781526" lon="12.1368787"><ele>332.42857142857144</ele><time>2026-05-02T16:12:09.3Z</time></trkpt><trkpt lat="46.0781895" lon="12.1369662"><ele>332.57142857142856</ele><time>2026-05-02T16:12:10.299Z</time></trkpt><trkpt lat="46.0782254" lon="12.1370544"><ele>332.71428571428567</ele><time>2026-05-02T16:12:11.299Z</time></trkpt><trkpt lat="46.0782641" lon="12.1371399"><ele>332.8571428571429</ele><time>2026-05-02T16:12:12.299Z</time></trkpt><trkpt lat="46.0783009" lon="12.1372323"><ele>333.0</ele><time>2026-05-02T16:12:13.297Z</time></trkpt><trkpt lat="46.0783372" lon="12.1373215"><ele>332.7142857142857</ele><time>2026-05-02T16:12:14.294Z</time></trkpt><trkpt lat="46.0783714" lon="12.1374126"><ele>332.4285714285714</ele><time>2026-05-02T16:12:15.3Z</time></trkpt><trkpt lat="46.0783998" lon="12.1375077"><ele>332.1428571428571</ele><time>2026-05-02T16:12:16.299Z</time></trkpt><trkpt lat="46.0784281" lon="12.1376035"><ele>331.8571428571429</ele><time>2026-05-02T16:12:17.299Z</time></trkpt><trkpt lat="46.0784571" lon="12.1376942"><ele>331.57142857142856</ele><time>2026-05-02T16:12:18.301Z</time></trkpt><trkpt lat="46.0784836" lon="12.13779"><ele>331.2857142857143</ele><time>2026-05-02T16:12:19.299Z</time></trkpt><trkpt lat="46.0785102" lon="12.1378885"><ele>331.0</ele><time>2026-05-02T16:12:20.293Z</time></trkpt><trkpt lat="46.0785381" lon="12.1379829"><ele>331.0</ele><time>2026-05-02T16:12:21.299Z</time></trkpt><trkpt lat="46.0785638" lon="12.1380766"><ele>331.0</ele><time>2026-05-02T16:12:22.291Z</time></trkpt><trkpt lat="46.078591" lon="12.138171"><ele>331.0</ele><time>2026-05-02T16:12:23.307Z</time></trkpt><trkpt lat="46.078617" lon="12.1382657"><ele>331.0</ele><time>2026-05-02T16:12:24.292Z</time></trkpt><trkpt lat="46.0786431" lon="12.1383608"><ele>331.0</ele><time>2026-05-02T16:12:25.293Z</time></trkpt><trkpt lat="46.0786685" lon="12.1384563"><ele>331.0</ele><time>2026-05-02T16:12:26.3Z</time></trkpt><trkpt lat="46.0786985" lon="12.1385517"><ele>331.0</ele><time>2026-05-02T16:12:27.3Z</time></trkpt><trkpt lat="46.0787254" lon="12.1386447"><ele>331.0</ele><time>2026-05-02T16:12:28.294Z</time></trkpt><trkpt lat="46.0787499" lon="12.1387367"><ele>331.0</ele><time>2026-05-02T16:12:29.3Z</time></trkpt><trkpt lat="46.0787752" lon="12.1388297"><ele>331.0</ele><time>2026-05-02T16:12:30.294Z</time></trkpt><trkpt lat="46.0788005" lon="12.1389181"><ele>331.0</ele><time>2026-05-02T16:12:31.301Z</time></trkpt><trkpt lat="46.0788232" lon="12.1390113"><ele>331.0</ele><time>2026-05-02T16:12:32.299Z</time></trkpt><trkpt lat="46.0788479" lon="12.1391013"><ele>331.0</ele><time>2026-05-02T16:12:33.301Z</time></trkpt><trkpt lat="46.0788715" lon="12.1391918"><ele>331.0</ele><time>2026-05-02T16:12:34.3Z</time></trkpt><trkpt lat="46.0788988" lon="12.1392827"><ele>331.0</ele><time>2026-05-02T16:12:35.292Z</time></trkpt><trkpt lat="46.0789245" lon="12.1393687"><ele>331.0</ele><time>2026-05-02T16:12:36.299Z</time></trkpt><trkpt lat="46.0789474" lon="12.1394594"><ele>331.0</ele><time>2026-05-02T16:12:37.3Z</time></trkpt><trkpt lat="46.0789961" lon="12.1396233"><ele>331.0</ele><time>2026-05-02T16:12:39.301Z</time></trkpt><trkpt lat="46.0790411" lon="12.1397938"><ele>331.0</ele><time>2026-05-02T16:12:41.301Z</time></trkpt><trkpt lat="46.0790638" lon="12.1398788"><ele>331.0</ele><time>2026-05-02T16:12:42.291Z</time></trkpt><trkpt lat="46.0790823" lon="12.1399675"><ele>330.8</ele><time>2026-05-02T16:12:43.299Z</time></trkpt><trkpt lat="46.0791315" lon="12.1401364"><ele>330.6</ele><time>2026-05-02T16:12:45.3Z</time></trkpt><trkpt lat="46.079158" lon="12.1402188"><ele>330.4</ele><time>2026-05-02T16:12:46.3Z</time></trkpt><trkpt lat="46.0791784" lon="12.140305"><ele>330.2</ele><time>2026-05-02T16:12:47.295Z</time></trkpt><trkpt lat="46.0792251" lon="12.140475"><ele>330.0</ele><time>2026-05-02T16:12:49.299Z</time></trkpt><trkpt lat="46.0792704" lon="12.1406383"><ele>330.5</ele><time>2026-05-02T16:12:51.408Z</time></trkpt><trkpt lat="46.0793186" lon="12.140802"><ele>331.0</ele><time>2026-05-02T16:12:53.299Z</time></trkpt><trkpt lat="46.0793668" lon="12.1409683"><ele>331.5</ele><time>2026-05-02T16:12:55.301Z</time></trkpt><trkpt lat="46.079412" lon="12.1411315"><ele>332.0</ele><time>2026-05-02T16:12:57.294Z</time></trkpt><trkpt lat="46.0794576" lon="12.1412949"><ele>332.0</ele><time>2026-05-02T16:12:59.299Z</time></trkpt><trkpt lat="46.0794986" lon="12.1414605"><ele>332.0</ele><time>2026-05-02T16:13:01.303Z</time></trkpt><trkpt lat="46.0795481" lon="12.1416169"><ele>332.0</ele><time>2026-05-02T16:13:03.303Z</time></trkpt><trkpt lat="46.0795926" lon="12.1417814"><ele>332.0</ele><time>2026-05-02T16:13:05.303Z</time></trkpt><trkpt lat="46.0796416" lon="12.1419489"><ele>332.20000000000005</ele><time>2026-05-02T16:13:07.303Z</time></trkpt><trkpt lat="46.0796885" lon="12.1421132"><ele>332.4</ele><time>2026-05-02T16:13:09.299Z</time></trkpt><trkpt lat="46.0797327" lon="12.1422804"><ele>332.6</ele><time>2026-05-02T16:13:11.301Z</time></trkpt><trkpt lat="46.0797815" lon="12.1424452"><ele>332.79999999999995</ele><time>2026-05-02T16:13:13.305Z</time></trkpt><trkpt lat="46.0798038" lon="12.1425306"><ele>333.0</ele><time>2026-05-02T16:13:14.299Z</time></trkpt><trkpt lat="46.0798494" lon="12.1426937"><ele>333.0</ele><time>2026-05-02T16:13:16.295Z</time></trkpt><trkpt lat="46.0798954" lon="12.1428581"><ele>333.0</ele><time>2026-05-02T16:13:18.302Z</time></trkpt><trkpt lat="46.0799429" lon="12.1430213"><ele>333.0</ele><time>2026-05-02T16:13:20.299Z</time></trkpt><trkpt lat="46.0799913" lon="12.1431838"><ele>333.0</ele><time>2026-05-02T16:13:22.307Z</time></trkpt><trkpt lat="46.0800159" lon="12.1432676"><ele>333.0</ele><time>2026-05-02T16:13:23.299Z</time></trkpt><trkpt lat="46.0800587" lon="12.1434283"><ele>333.0</ele><time>2026-05-02T16:13:25.303Z</time></trkpt><trkpt lat="46.0800971" lon="12.1435859"><ele>333.0</ele><time>2026-05-02T16:13:27.296Z</time></trkpt><trkpt lat="46.0801408" lon="12.1437448"><ele>333.0</ele><time>2026-05-02T16:13:29.291Z</time></trkpt><trkpt lat="46.0801848" lon="12.1439075"><ele>333.0</ele><time>2026-05-02T16:13:31.297Z</time></trkpt><trkpt lat="46.0802289" lon="12.1440728"><ele>333.25</ele><time>2026-05-02T16:13:33.3Z</time></trkpt><trkpt lat="46.0802754" lon="12.1442392"><ele>333.5</ele><time>2026-05-02T16:13:35.299Z</time></trkpt><trkpt lat="46.0803221" lon="12.1444031"><ele>333.75</ele><time>2026-05-02T16:13:37.301Z</time></trkpt><trkpt lat="46.0803726" lon="12.1445684"><ele>334.0</ele><time>2026-05-02T16:13:39.297Z</time></trkpt><trkpt lat="46.0804198" lon="12.144733"><ele>334.0</ele><time>2026-05-02T16:13:41.305Z</time></trkpt><trkpt lat="46.0804606" lon="12.1448674"><ele>334.0</ele><time>2026-05-02T16:13:43.289Z</time></trkpt><trkpt lat="46.0805023" lon="12.1449843"><ele>334.0</ele><time>2026-05-02T16:13:45.301Z</time></trkpt><trkpt lat="46.0805302" lon="12.1451439"><ele>334.0</ele><time>2026-05-02T16:13:47.295Z</time></trkpt><trkpt lat="46.0805744" lon="12.1453116"><ele>334.0</ele><time>2026-05-02T16:13:49.293Z</time></trkpt><trkpt lat="46.0805977" lon="12.1453973"><ele>334.5</ele><time>2026-05-02T16:13:50.303Z</time></trkpt><trkpt lat="46.0806387" lon="12.1455615"><ele>335.0</ele><time>2026-05-02T16:13:52.302Z</time></trkpt><trkpt lat="46.080684" lon="12.1457303"><ele>335.5</ele><time>2026-05-02T16:13:54.303Z</time></trkpt><trkpt lat="46.0807251" lon="12.145899"><ele>336.0</ele><time>2026-05-02T16:13:56.301Z</time></trkpt><trkpt lat="46.0807727" lon="12.1460627"><ele>336.0</ele><time>2026-05-02T16:13:58.302Z</time></trkpt><trkpt lat="46.0808185" lon="12.1462283"><ele>336.0</ele><time>2026-05-02T16:14:00.301Z</time></trkpt><trkpt lat="46.0808667" lon="12.1463902"><ele>336.0</ele><time>2026-05-02T16:14:02.302Z</time></trkpt><trkpt lat="46.0809111" lon="12.1465551"><ele>336.0</ele><time>2026-05-02T16:14:04.302Z</time></trkpt><trkpt lat="46.0809566" lon="12.1467198"><ele>336.25</ele><time>2026-05-02T16:14:06.302Z</time></trkpt><trkpt lat="46.081004" lon="12.1468833"><ele>336.5</ele><time>2026-05-02T16:14:08.296Z</time></trkpt><trkpt lat="46.0810538" lon="12.1470465"><ele>336.75</ele><time>2026-05-02T16:14:10.3Z</time></trkpt><trkpt lat="46.0811038" lon="12.1472048"><ele>337.0</ele><time>2026-05-02T16:14:12.295Z</time></trkpt><trkpt lat="46.0811544" lon="12.1473634"><ele>337.5</ele><time>2026-05-02T16:14:14.302Z</time></trkpt><trkpt lat="46.0811985" lon="12.1475304"><ele>338.0</ele><time>2026-05-02T16:14:16.302Z</time></trkpt><trkpt lat="46.0812264" lon="12.1476979"><ele>338.5</ele><time>2026-05-02T16:14:18.299Z</time></trkpt><trkpt lat="46.0812745" lon="12.1477676"><ele>339.0</ele><time>2026-05-02T16:14:19.293Z</time></trkpt><trkpt lat="46.0813178" lon="12.147834"><ele>339.5</ele><time>2026-05-02T16:14:20.292Z</time></trkpt><trkpt lat="46.0813573" lon="12.147905"><ele>340.0</ele><time>2026-05-02T16:14:21.293Z</time></trkpt><trkpt lat="46.0814201" lon="12.1480573"><ele>340.0</ele><time>2026-05-02T16:14:23.295Z</time></trkpt><trkpt lat="46.081451" lon="12.148138"><ele>340.0</ele><time>2026-05-02T16:14:24.298Z</time></trkpt><trkpt lat="46.0814816" lon="12.1482174"><ele>340.0</ele><time>2026-05-02T16:14:25.307Z</time></trkpt><trkpt lat="46.0815124" lon="12.1482978"><ele>340.0</ele><time>2026-05-02T16:14:26.298Z</time></trkpt><trkpt lat="46.0815756" lon="12.1484584"><ele>340.0</ele><time>2026-05-02T16:14:28.291Z</time></trkpt><trkpt lat="46.0816436" lon="12.1486123"><ele>340.0</ele><time>2026-05-02T16:14:30.294Z</time></trkpt><trkpt lat="46.0816741" lon="12.1486956"><ele>340.0</ele><time>2026-05-02T16:14:31.291Z</time></trkpt><trkpt lat="46.0817378" lon="12.1488529"><ele>340.0</ele><time>2026-05-02T16:14:33.303Z</time></trkpt><trkpt lat="46.081771" lon="12.1489312"><ele>340.0</ele><time>2026-05-02T16:14:34.294Z</time></trkpt><trkpt lat="46.0818046" lon="12.1490086"><ele>340.0</ele><time>2026-05-02T16:14:35.295Z</time></trkpt><trkpt lat="46.0818374" lon="12.1490926"><ele>340.0</ele><time>2026-05-02T16:14:36.301Z</time></trkpt><trkpt lat="46.0818702" lon="12.1491765"><ele>340.0</ele><time>2026-05-02T16:14:37.301Z</time></trkpt><trkpt lat="46.0819042" lon="12.1492619"><ele>340.14285714285717</ele><time>2026-05-02T16:14:38.293Z</time></trkpt><trkpt lat="46.0819396" lon="12.1493475"><ele>340.2857142857143</ele><time>2026-05-02T16:14:39.302Z</time></trkpt><trkpt lat="46.0819722" lon="12.1494365"><ele>340.42857142857144</ele><time>2026-05-02T16:14:40.301Z</time></trkpt><trkpt lat="46.0820082" lon="12.1495209"><ele>340.57142857142856</ele><time>2026-05-02T16:14:41.294Z</time></trkpt><trkpt lat="46.0820462" lon="12.1496047"><ele>340.7142857142857</ele><time>2026-05-02T16:14:42.296Z</time></trkpt><trkpt lat="46.082085" lon="12.1496959"><ele>340.85714285714283</ele><time>2026-05-02T16:14:43.3Z</time></trkpt><trkpt lat="46.0821212" lon="12.1497817"><ele>341.0</ele><time>2026-05-02T16:14:44.296Z</time></trkpt><trkpt lat="46.082157" lon="12.1498709"><ele>341.0</ele><time>2026-05-02T16:14:45.302Z</time></trkpt><trkpt lat="46.0821927" lon="12.1499639"><ele>341.0</ele><time>2026-05-02T16:14:46.301Z</time></trkpt><trkpt lat="46.0822269" lon="12.150059"><ele>341.0</ele><time>2026-05-02T16:14:47.301Z</time></trkpt><trkpt lat="46.082264" lon="12.1501467"><ele>341.0</ele><time>2026-05-02T16:14:48.301Z</time></trkpt><trkpt lat="46.0823023" lon="12.1502346"><ele>341.0</ele><time>2026-05-02T16:14:49.294Z</time></trkpt><trkpt lat="46.0823372" lon="12.1503234"><ele>341.0</ele><time>2026-05-02T16:14:50.292Z</time></trkpt><trkpt lat="46.0823764" lon="12.1504095"><ele>341.0</ele><time>2026-05-02T16:14:51.42Z</time></trkpt><trkpt lat="46.0824497" lon="12.1505816"><ele>340.42857142857144</ele><time>2026-05-02T16:14:53.296Z</time></trkpt><trkpt lat="46.0824901" lon="12.1506658"><ele>339.8571428571429</ele><time>2026-05-02T16:14:54.291Z</time></trkpt><trkpt lat="46.0825332" lon="12.150748"><ele>339.28571428571433</ele><time>2026-05-02T16:14:55.293Z</time></trkpt><trkpt lat="46.0825772" lon="12.1508232"><ele>338.7142857142857</ele><time>2026-05-02T16:14:56.299Z</time></trkpt><trkpt lat="46.0826257" lon="12.1508988"><ele>338.14285714285717</ele><time>2026-05-02T16:14:57.3Z</time></trkpt><trkpt lat="46.0826748" lon="12.150969"><ele>337.5714285714286</ele><time>2026-05-02T16:14:58.294Z</time></trkpt><trkpt lat="46.0827262" lon="12.1510351"><ele>337.0</ele><time>2026-05-02T16:14:59.301Z</time></trkpt><trkpt lat="46.0827801" lon="12.1510977"><ele>337.00000000000006</ele><time>2026-05-02T16:15:00.302Z</time></trkpt><trkpt lat="46.0828338" lon="12.1511578"><ele>337.0</ele><time>2026-05-02T16:15:01.3Z</time></trkpt><trkpt lat="46.082885" lon="12.1512193"><ele>337.0</ele><time>2026-05-02T16:15:02.294Z</time></trkpt><trkpt lat="46.0829348" lon="12.1512786"><ele>337.0</ele><time>2026-05-02T16:15:03.3Z</time></trkpt><trkpt lat="46.0829866" lon="12.1513377"><ele>337.0</ele><time>2026-05-02T16:15:04.293Z</time></trkpt><trkpt lat="46.083038" lon="12.1513959"><ele>337.00000000000006</ele><time>2026-05-02T16:15:05.3Z</time></trkpt><trkpt lat="46.0830859" lon="12.1514597"><ele>337.0</ele><time>2026-05-02T16:15:06.303Z</time></trkpt><trkpt lat="46.0831337" lon="12.1515205"><ele>336.8571428571429</ele><time>2026-05-02T16:15:07.304Z</time></trkpt><trkpt lat="46.0831811" lon="12.1515839"><ele>336.7142857142857</ele><time>2026-05-02T16:15:08.302Z</time></trkpt><trkpt lat="46.08323" lon="12.1516415"><ele>336.57142857142856</ele><time>2026-05-02T16:15:09.299Z</time></trkpt><trkpt lat="46.0832814" lon="12.1516965"><ele>336.42857142857144</ele><time>2026-05-02T16:15:10.296Z</time></trkpt><trkpt lat="46.0833323" lon="12.1517535"><ele>336.2857142857143</ele><time>2026-05-02T16:15:11.302Z</time></trkpt><trkpt lat="46.0834252" lon="12.1518764"><ele>336.14285714285717</ele><time>2026-05-02T16:15:13.3Z</time></trkpt><trkpt lat="46.0834736" lon="12.1519357"><ele>336.0</ele><time>2026-05-02T16:15:14.3Z</time></trkpt><trkpt lat="46.083522" lon="12.1519977"><ele>334.8</ele><time>2026-05-02T16:15:15.3Z</time></trkpt><trkpt lat="46.0835716" lon="12.1520545"><ele>333.6</ele><time>2026-05-02T16:15:16.293Z</time></trkpt><trkpt lat="46.0836677" lon="12.1521653"><ele>332.4</ele><time>2026-05-02T16:15:18.295Z</time></trkpt><trkpt lat="46.083717" lon="12.1522231"><ele>331.2</ele><time>2026-05-02T16:15:19.303Z</time></trkpt><trkpt lat="46.0838086" lon="12.1523377"><ele>330.0</ele><time>2026-05-02T16:15:21.293Z</time></trkpt><trkpt lat="46.0839072" lon="12.1524579"><ele>330.0</ele><time>2026-05-02T16:15:23.301Z</time></trkpt><trkpt lat="46.0840022" lon="12.1525804"><ele>330.0</ele><time>2026-05-02T16:15:25.298Z</time></trkpt><trkpt lat="46.0840529" lon="12.1526363"><ele>330.0</ele><time>2026-05-02T16:15:26.295Z</time></trkpt><trkpt lat="46.0840999" lon="12.1527"><ele>330.0</ele><time>2026-05-02T16:15:27.294Z</time></trkpt><trkpt lat="46.0841962" lon="12.15282"><ele>330.0</ele><time>2026-05-02T16:15:29.294Z</time></trkpt><trkpt lat="46.0842455" lon="12.1528814"><ele>330.0</ele><time>2026-05-02T16:15:30.302Z</time></trkpt><trkpt lat="46.0842967" lon="12.1529417"><ele>330.14285714285717</ele><time>2026-05-02T16:15:31.3Z</time></trkpt><trkpt lat="46.0843448" lon="12.1530045"><ele>330.2857142857143</ele><time>2026-05-02T16:15:32.301Z</time></trkpt><trkpt lat="46.0843917" lon="12.1530682"><ele>330.42857142857144</ele><time>2026-05-02T16:15:33.293Z</time></trkpt><trkpt lat="46.0844361" lon="12.1531378"><ele>330.57142857142856</ele><time>2026-05-02T16:15:34.301Z</time></trkpt><trkpt lat="46.0844791" lon="12.1532058"><ele>330.7142857142857</ele><time>2026-05-02T16:15:35.292Z</time></trkpt><trkpt lat="46.0845551" lon="12.1533461"><ele>330.8571428571429</ele><time>2026-05-02T16:15:37.294Z</time></trkpt><trkpt lat="46.0845927" lon="12.1534194"><ele>331.0</ele><time>2026-05-02T16:15:38.294Z</time></trkpt><trkpt lat="46.0846643" lon="12.1535675"><ele>331.75</ele><time>2026-05-02T16:15:40.3Z</time></trkpt><trkpt lat="46.0847298" lon="12.153719"><ele>332.5</ele><time>2026-05-02T16:15:42.294Z</time></trkpt><trkpt lat="46.0847986" lon="12.1538669"><ele>333.25</ele><time>2026-05-02T16:15:44.301Z</time></trkpt><trkpt lat="46.0848646" lon="12.1540137"><ele>334.0</ele><time>2026-05-02T16:15:46.301Z</time></trkpt><trkpt lat="46.0849294" lon="12.1541636"><ele>335.2</ele><time>2026-05-02T16:15:48.302Z</time></trkpt><trkpt lat="46.0849962" lon="12.154312"><ele>336.4</ele><time>2026-05-02T16:15:50.3Z</time></trkpt><trkpt lat="46.0850662" lon="12.1544593"><ele>337.6</ele><time>2026-05-02T16:15:52.301Z</time></trkpt><trkpt lat="46.0851325" lon="12.1546118"><ele>338.8</ele><time>2026-05-02T16:15:54.299Z</time></trkpt><trkpt lat="46.0851688" lon="12.1546892"><ele>340.0</ele><time>2026-05-02T16:15:55.293Z</time></trkpt><trkpt lat="46.0852387" lon="12.1548389"><ele>340.5</ele><time>2026-05-02T16:15:57.301Z</time></trkpt><trkpt lat="46.0852741" lon="12.1549145"><ele>341.0</ele><time>2026-05-02T16:15:58.294Z</time></trkpt><trkpt lat="46.0853104" lon="12.1549928"><ele>341.5</ele><time>2026-05-02T16:15:59.3Z</time></trkpt><trkpt lat="46.0853423" lon="12.155072"><ele>342.0</ele><time>2026-05-02T16:16:00.301Z</time></trkpt><trkpt lat="46.0854097" lon="12.1552203"><ele>342.5</ele><time>2026-05-02T16:16:02.29Z</time></trkpt><trkpt lat="46.0854785" lon="12.1553657"><ele>343.0</ele><time>2026-05-02T16:16:04.294Z</time></trkpt><trkpt lat="46.0855128" lon="12.1554429"><ele>343.0</ele><time>2026-05-02T16:16:05.288Z</time></trkpt><trkpt lat="46.0855476" lon="12.1555191"><ele>343.0</ele><time>2026-05-02T16:16:06.294Z</time></trkpt><trkpt lat="46.0855849" lon="12.1555975"><ele>343.0</ele><time>2026-05-02T16:16:07.294Z</time></trkpt><trkpt lat="46.0856219" lon="12.1556799"><ele>343.0</ele><time>2026-05-02T16:16:08.3Z</time></trkpt><trkpt lat="46.0856608" lon="12.1557617"><ele>343.0</ele><time>2026-05-02T16:16:09.299Z</time></trkpt><trkpt lat="46.0856985" lon="12.1558453"><ele>343.0</ele><time>2026-05-02T16:16:10.295Z</time></trkpt><trkpt lat="46.0857377" lon="12.1559295"><ele>343.0</ele><time>2026-05-02T16:16:11.301Z</time></trkpt><trkpt lat="46.0857768" lon="12.1560171"><ele>342.85714285714283</ele><time>2026-05-02T16:16:12.3Z</time></trkpt><trkpt lat="46.0858158" lon="12.1561019"><ele>342.7142857142857</ele><time>2026-05-02T16:16:13.3Z</time></trkpt><trkpt lat="46.0858553" lon="12.1561872"><ele>342.57142857142856</ele><time>2026-05-02T16:16:14.293Z</time></trkpt><trkpt lat="46.0858934" lon="12.15627"><ele>342.42857142857144</ele><time>2026-05-02T16:16:15.3Z</time></trkpt><trkpt lat="46.0859323" lon="12.1563518"><ele>342.2857142857143</ele><time>2026-05-02T16:16:16.299Z</time></trkpt><trkpt lat="46.0859683" lon="12.1564321"><ele>342.1428571428571</ele><time>2026-05-02T16:16:17.303Z</time></trkpt><trkpt lat="46.0860045" lon="12.1565101"><ele>342.0</ele><time>2026-05-02T16:16:18.3Z</time></trkpt><trkpt lat="46.0860434" lon="12.1565853"><ele>341.85714285714283</ele><time>2026-05-02T16:16:19.304Z</time></trkpt><trkpt lat="46.0860811" lon="12.156664"><ele>341.7142857142857</ele><time>2026-05-02T16:16:20.301Z</time></trkpt><trkpt lat="46.0861154" lon="12.1567456"><ele>341.57142857142856</ele><time>2026-05-02T16:16:21.3Z</time></trkpt><trkpt lat="46.0861508" lon="12.1568283"><ele>341.42857142857144</ele><time>2026-05-02T16:16:22.296Z</time></trkpt><trkpt lat="46.0861877" lon="12.1569063"><ele>341.2857142857143</ele><time>2026-05-02T16:16:23.301Z</time></trkpt><trkpt lat="46.0862225" lon="12.1569862"><ele>341.1428571428571</ele><time>2026-05-02T16:16:24.298Z</time></trkpt><trkpt lat="46.0862564" lon="12.1570674"><ele>341.0</ele><time>2026-05-02T16:16:25.299Z</time></trkpt><trkpt lat="46.086292" lon="12.1571475"><ele>341.0</ele><time>2026-05-02T16:16:26.301Z</time></trkpt><trkpt lat="46.086329" lon="12.1572222"><ele>341.0</ele><time>2026-05-02T16:16:27.293Z</time></trkpt><trkpt lat="46.0863651" lon="12.1572992"><ele>341.0</ele><time>2026-05-02T16:16:28.293Z</time></trkpt><trkpt lat="46.0864344" lon="12.1574458"><ele>341.0</ele><time>2026-05-02T16:16:30.303Z</time></trkpt><trkpt lat="46.0864711" lon="12.1575225"><ele>341.0</ele><time>2026-05-02T16:16:31.302Z</time></trkpt><trkpt lat="46.0865074" lon="12.1575983"><ele>341.0</ele><time>2026-05-02T16:16:32.304Z</time></trkpt><trkpt lat="46.086543" lon="12.1576775"><ele>341.0</ele><time>2026-05-02T16:16:33.302Z</time></trkpt><trkpt lat="46.0865842" lon="12.1577514"><ele>340.5</ele><time>2026-05-02T16:16:34.298Z</time></trkpt><trkpt lat="46.0866164" lon="12.15783"><ele>340.0</ele><time>2026-05-02T16:16:35.297Z</time></trkpt><trkpt lat="46.0866524" lon="12.1579062"><ele>339.5</ele><time>2026-05-02T16:16:36.304Z</time></trkpt><trkpt lat="46.0867171" lon="12.1580578"><ele>339.0</ele><time>2026-05-02T16:16:38.3Z</time></trkpt><trkpt lat="46.0867459" lon="12.1581399"><ele>338.5</ele><time>2026-05-02T16:16:39.3Z</time></trkpt><trkpt lat="46.0867951" lon="12.158303"><ele>338.0</ele><time>2026-05-02T16:16:41.295Z</time></trkpt><trkpt lat="46.0868143" lon="12.1583912"><ele>338.0</ele><time>2026-05-02T16:16:42.301Z</time></trkpt><trkpt lat="46.0868559" lon="12.1585582"><ele>338.0</ele><time>2026-05-02T16:16:44.293Z</time></trkpt><trkpt lat="46.0868799" lon="12.1586475"><ele>338.0</ele><time>2026-05-02T16:16:45.294Z</time></trkpt><trkpt lat="46.0869032" lon="12.1587336"><ele>338.0</ele><time>2026-05-02T16:16:46.304Z</time></trkpt><trkpt lat="46.0869269" lon="12.1588224"><ele>338.0</ele><time>2026-05-02T16:16:47.303Z</time></trkpt><trkpt lat="46.0869486" lon="12.1589122"><ele>338.0</ele><time>2026-05-02T16:16:48.3Z</time></trkpt><trkpt lat="46.0869732" lon="12.1590007"><ele>337.8571428571429</ele><time>2026-05-02T16:16:49.296Z</time></trkpt><trkpt lat="46.0869958" lon="12.159087"><ele>337.7142857142857</ele><time>2026-05-02T16:16:50.309Z</time></trkpt><trkpt lat="46.0870212" lon="12.1591766"><ele>337.57142857142856</ele><time>2026-05-02T16:16:51.301Z</time></trkpt><trkpt lat="46.0870527" lon="12.1592664"><ele>337.42857142857144</ele><time>2026-05-02T16:16:52.295Z</time></trkpt><trkpt lat="46.0870836" lon="12.1593573"><ele>337.2857142857143</ele><time>2026-05-02T16:16:53.302Z</time></trkpt><trkpt lat="46.0871165" lon="12.1594496"><ele>337.14285714285717</ele><time>2026-05-02T16:16:54.325Z</time></trkpt><trkpt lat="46.0871523" lon="12.1595346"><ele>337.0</ele><time>2026-05-02T16:16:55.3Z</time></trkpt><trkpt lat="46.0871924" lon="12.1596169"><ele>337.00000000000006</ele><time>2026-05-02T16:16:56.299Z</time></trkpt><trkpt lat="46.0872347" lon="12.1596949"><ele>337.0</ele><time>2026-05-02T16:16:57.297Z</time></trkpt><trkpt lat="46.0872832" lon="12.1597654"><ele>337.0</ele><time>2026-05-02T16:16:58.302Z</time></trkpt><trkpt lat="46.0873285" lon="12.1598375"><ele>337.0</ele><time>2026-05-02T16:16:59.3Z</time></trkpt><trkpt lat="46.0873779" lon="12.1599018"><ele>337.0</ele><time>2026-05-02T16:17:00.293Z</time></trkpt><trkpt lat="46.0874308" lon="12.1599646"><ele>337.00000000000006</ele><time>2026-05-02T16:17:01.301Z</time></trkpt><trkpt lat="46.0874831" lon="12.1600198"><ele>337.0</ele><time>2026-05-02T16:17:02.309Z</time></trkpt><trkpt lat="46.0875371" lon="12.1600734"><ele>336.16666666666663</ele><time>2026-05-02T16:17:03.305Z</time></trkpt><trkpt lat="46.0875948" lon="12.160121"><ele>335.3333333333333</ele><time>2026-05-02T16:17:04.293Z</time></trkpt><trkpt lat="46.0877074" lon="12.1601997"><ele>334.5</ele><time>2026-05-02T16:17:06.291Z</time></trkpt><trkpt lat="46.0877663" lon="12.1602341"><ele>333.6666666666667</ele><time>2026-05-02T16:17:07.3Z</time></trkpt><trkpt lat="46.0878252" lon="12.1602668"><ele>332.83333333333337</ele><time>2026-05-02T16:17:08.3Z</time></trkpt><trkpt lat="46.0879477" lon="12.1603153"><ele>332.0</ele><time>2026-05-02T16:17:10.301Z</time></trkpt><trkpt lat="46.0880092" lon="12.1603369"><ele>332.0</ele><time>2026-05-02T16:17:11.302Z</time></trkpt><trkpt lat="46.0881326" lon="12.160371"><ele>332.0</ele><time>2026-05-02T16:17:13.298Z</time></trkpt><trkpt lat="46.088256" lon="12.1604038"><ele>332.0</ele><time>2026-05-02T16:17:15.301Z</time></trkpt><trkpt lat="46.0883775" lon="12.1604394"><ele>332.0</ele><time>2026-05-02T16:17:17.311Z</time></trkpt><trkpt lat="46.0884969" lon="12.1604772"><ele>332.20000000000005</ele><time>2026-05-02T16:17:19.302Z</time></trkpt><trkpt lat="46.0886193" lon="12.1605128"><ele>332.4</ele><time>2026-05-02T16:17:21.302Z</time></trkpt><trkpt lat="46.0886818" lon="12.1605307"><ele>332.6</ele><time>2026-05-02T16:17:22.3Z</time></trkpt><trkpt lat="46.0888011" lon="12.1605768"><ele>332.79999999999995</ele><time>2026-05-02T16:17:24.299Z</time></trkpt><trkpt lat="46.088908" lon="12.160652"><ele>333.0</ele><time>2026-05-02T16:17:26.301Z</time></trkpt><trkpt lat="46.0890094" lon="12.160746"><ele>334.5</ele><time>2026-05-02T16:17:28.299Z</time></trkpt><trkpt lat="46.0890992" lon="12.160862"><ele>336.0</ele><time>2026-05-02T16:17:30.293Z</time></trkpt><trkpt lat="46.0891767" lon="12.1609986"><ele>337.5</ele><time>2026-05-02T16:17:32.3Z</time></trkpt><trkpt lat="46.0892365" lon="12.1611439"><ele>339.0</ele><time>2026-05-02T16:17:34.291Z</time></trkpt><trkpt lat="46.0892868" lon="12.1613095"><ele>339.0</ele><time>2026-05-02T16:17:36.303Z</time></trkpt><trkpt lat="46.0893099" lon="12.1614776"><ele>339.0</ele><time>2026-05-02T16:17:38.293Z</time></trkpt><trkpt lat="46.0893319" lon="12.1616527"><ele>339.0</ele><time>2026-05-02T16:17:40.292Z</time></trkpt><trkpt lat="46.0893513" lon="12.1618282"><ele>339.0</ele><time>2026-05-02T16:17:42.296Z</time></trkpt><trkpt lat="46.0893675" lon="12.1620013"><ele>338.6666666666667</ele><time>2026-05-02T16:17:44.303Z</time></trkpt><trkpt lat="46.0893882" lon="12.1621766"><ele>338.3333333333333</ele><time>2026-05-02T16:17:46.299Z</time></trkpt><trkpt lat="46.0893955" lon="12.1622709"><ele>338.0</ele><time>2026-05-02T16:17:47.294Z</time></trkpt><trkpt lat="46.0894049" lon="12.1623685"><ele>337.66666666666663</ele><time>2026-05-02T16:17:48.302Z</time></trkpt><trkpt lat="46.0894065" lon="12.1624636"><ele>337.3333333333333</ele><time>2026-05-02T16:17:49.291Z</time></trkpt><trkpt lat="46.0894018" lon="12.1625609"><ele>337.0</ele><time>2026-05-02T16:17:50.303Z</time></trkpt><trkpt lat="46.0893855" lon="12.1626498"><ele>336.75</ele><time>2026-05-02T16:17:51.302Z</time></trkpt><trkpt lat="46.0893424" lon="12.1628113"><ele>336.5</ele><time>2026-05-02T16:17:53.303Z</time></trkpt><trkpt lat="46.0893227" lon="12.1629828"><ele>336.25</ele><time>2026-05-02T16:17:55.296Z</time></trkpt><trkpt lat="46.0893447" lon="12.1631555"><ele>336.0</ele><time>2026-05-02T16:17:57.302Z</time></trkpt><trkpt lat="46.0894029" lon="12.1633094"><ele>335.75</ele><time>2026-05-02T16:17:59.294Z</time></trkpt><trkpt lat="46.0894861" lon="12.163434"><ele>335.5</ele><time>2026-05-02T16:18:01.304Z</time></trkpt><trkpt lat="46.089594" lon="12.1635064"><ele>335.25</ele><time>2026-05-02T16:18:03.297Z</time></trkpt><trkpt lat="46.0897099" lon="12.1635491"><ele>335.0</ele><time>2026-05-02T16:18:05.295Z</time></trkpt><trkpt lat="46.089827" lon="12.1635305"><ele>336.25</ele><time>2026-05-02T16:18:07.302Z</time></trkpt><trkpt lat="46.089939" lon="12.1634755"><ele>337.5</ele><time>2026-05-02T16:18:09.304Z</time></trkpt><trkpt lat="46.0900563" lon="12.163432"><ele>338.75</ele><time>2026-05-02T16:18:11.294Z</time></trkpt><trkpt lat="46.0901727" lon="12.1634399"><ele>340.0</ele><time>2026-05-02T16:18:13.303Z</time></trkpt><trkpt lat="46.0902808" lon="12.1634993"><ele>340.0</ele><time>2026-05-02T16:18:15.294Z</time></trkpt><trkpt lat="46.0903719" lon="12.1636099"><ele>340.0</ele><time>2026-05-02T16:18:17.295Z</time></trkpt><trkpt lat="46.0904357" lon="12.1637614"><ele>340.0</ele><time>2026-05-02T16:18:19.288Z</time></trkpt><trkpt lat="46.0904955" lon="12.1639122"><ele>340.0</ele><time>2026-05-02T16:18:21.296Z</time></trkpt><trkpt lat="46.0905551" lon="12.1640636"><ele>339.8</ele><time>2026-05-02T16:18:23.3Z</time></trkpt><trkpt lat="46.0905878" lon="12.1641412"><ele>339.6</ele><time>2026-05-02T16:18:24.293Z</time></trkpt><trkpt lat="46.0906554" lon="12.1642938"><ele>339.4</ele><time>2026-05-02T16:18:26.299Z</time></trkpt><trkpt lat="46.090726" lon="12.1644385"><ele>339.2</ele><time>2026-05-02T16:18:28.292Z</time></trkpt><trkpt lat="46.0907909" lon="12.1645819"><ele>339.0</ele><time>2026-05-02T16:18:30.291Z</time></trkpt><trkpt lat="46.0908338" lon="12.1646521"><ele>340.2</ele><time>2026-05-02T16:18:31.3Z</time></trkpt><trkpt lat="46.0909118" lon="12.1647868"><ele>341.4</ele><time>2026-05-02T16:18:33.3Z</time></trkpt><trkpt lat="46.0909865" lon="12.1649318"><ele>342.6</ele><time>2026-05-02T16:18:35.293Z</time></trkpt><trkpt lat="46.0910239" lon="12.1650058"><ele>343.8</ele><time>2026-05-02T16:18:36.301Z</time></trkpt><trkpt lat="46.0911006" lon="12.1651458"><ele>345.0</ele><time>2026-05-02T16:18:38.303Z</time></trkpt><trkpt lat="46.0911762" lon="12.1652884"><ele>345.0</ele><time>2026-05-02T16:18:40.299Z</time></trkpt><trkpt lat="46.0912555" lon="12.165428"><ele>345.0</ele><time>2026-05-02T16:18:42.294Z</time></trkpt><trkpt lat="46.091296" lon="12.1654995"><ele>345.0</ele><time>2026-05-02T16:18:43.294Z</time></trkpt><trkpt lat="46.0913363" lon="12.1655697"><ele>345.0</ele><time>2026-05-02T16:18:44.293Z</time></trkpt><trkpt lat="46.0914162" lon="12.1657034"><ele>345.0</ele><time>2026-05-02T16:18:46.293Z</time></trkpt><trkpt lat="46.0914944" lon="12.1658412"><ele>344.6</ele><time>2026-05-02T16:18:48.303Z</time></trkpt><trkpt lat="46.0915838" lon="12.1659725"><ele>344.2</ele><time>2026-05-02T16:18:50.302Z</time></trkpt><trkpt lat="46.0916275" lon="12.1660401"><ele>343.79999999999995</ele><time>2026-05-02T16:18:51.296Z</time></trkpt><trkpt lat="46.0917117" lon="12.1661642"><ele>343.4</ele><time>2026-05-02T16:18:53.295Z</time></trkpt><trkpt lat="46.0917555" lon="12.1662327"><ele>343.0</ele><time>2026-05-02T16:18:54.306Z</time></trkpt><trkpt lat="46.0918385" lon="12.1663715"><ele>343.79999999999995</ele><time>2026-05-02T16:18:56.293Z</time></trkpt><trkpt lat="46.0919183" lon="12.1665021"><ele>344.6</ele><time>2026-05-02T16:18:58.295Z</time></trkpt><trkpt lat="46.0920039" lon="12.166633"><ele>345.4</ele><time>2026-05-02T16:19:00.304Z</time></trkpt><trkpt lat="46.0920878" lon="12.1667653"><ele>346.20000000000005</ele><time>2026-05-02T16:19:02.304Z</time></trkpt><trkpt lat="46.0921307" lon="12.1668341"><ele>347.0</ele><time>2026-05-02T16:19:03.296Z</time></trkpt><trkpt lat="46.0921712" lon="12.1669042"><ele>347.0</ele><time>2026-05-02T16:19:04.305Z</time></trkpt><trkpt lat="46.0922133" lon="12.1669749"><ele>347.0</ele><time>2026-05-02T16:19:05.306Z</time></trkpt><trkpt lat="46.0922926" lon="12.1671114"><ele>347.0</ele><time>2026-05-02T16:19:07.3Z</time></trkpt><trkpt lat="46.0923735" lon="12.167247"><ele>347.0</ele><time>2026-05-02T16:19:09.3Z</time></trkpt><trkpt lat="46.0924137" lon="12.1673172"><ele>347.0</ele><time>2026-05-02T16:19:10.301Z</time></trkpt><trkpt lat="46.0924905" lon="12.1674533"><ele>347.20000000000005</ele><time>2026-05-02T16:19:12.3Z</time></trkpt><trkpt lat="46.092569" lon="12.1675909"><ele>347.4</ele><time>2026-05-02T16:19:14.292Z</time></trkpt><trkpt lat="46.0926103" lon="12.1676601"><ele>347.6</ele><time>2026-05-02T16:19:15.298Z</time></trkpt><trkpt lat="46.0926911" lon="12.1677868"><ele>347.79999999999995</ele><time>2026-05-02T16:19:17.303Z</time></trkpt><trkpt lat="46.0927709" lon="12.1679162"><ele>348.0</ele><time>2026-05-02T16:19:19.295Z</time></trkpt><trkpt lat="46.0928524" lon="12.1680483"><ele>348.0</ele><time>2026-05-02T16:19:21.301Z</time></trkpt><trkpt lat="46.092937" lon="12.1681815"><ele>348.0</ele><time>2026-05-02T16:19:23.3Z</time></trkpt><trkpt lat="46.0930199" lon="12.1683163"><ele>348.0</ele><time>2026-05-02T16:19:25.301Z</time></trkpt><trkpt lat="46.0931039" lon="12.1684441"><ele>348.0</ele><time>2026-05-02T16:19:27.302Z</time></trkpt><trkpt lat="46.0931847" lon="12.1685798"><ele>349.0</ele><time>2026-05-02T16:19:29.31Z</time></trkpt><trkpt lat="46.0932708" lon="12.1687151"><ele>350.0</ele><time>2026-05-02T16:19:31.302Z</time></trkpt><trkpt lat="46.0933514" lon="12.1688495"><ele>351.0</ele><time>2026-05-02T16:19:33.293Z</time></trkpt><trkpt lat="46.0934351" lon="12.1689849"><ele>352.0</ele><time>2026-05-02T16:19:35.304Z</time></trkpt><trkpt lat="46.0935179" lon="12.1691192"><ele>352.0</ele><time>2026-05-02T16:19:37.294Z</time></trkpt><trkpt lat="46.0935588" lon="12.1691892"><ele>352.0</ele><time>2026-05-02T16:19:38.293Z</time></trkpt><trkpt lat="46.0936438" lon="12.1693183"><ele>352.0</ele><time>2026-05-02T16:19:40.301Z</time></trkpt><trkpt lat="46.0937268" lon="12.1694496"><ele>352.0</ele><time>2026-05-02T16:19:42.3Z</time></trkpt><trkpt lat="46.0938029" lon="12.1695879"><ele>352.0</ele><time>2026-05-02T16:19:44.299Z</time></trkpt><trkpt lat="46.0938474" lon="12.1696583"><ele>352.0</ele><time>2026-05-02T16:19:45.296Z</time></trkpt><trkpt lat="46.0939259" lon="12.1697942"><ele>352.0</ele><time>2026-05-02T16:19:47.301Z</time></trkpt><trkpt lat="46.0939696" lon="12.1698636"><ele>352.0</ele><time>2026-05-02T16:19:48.295Z</time></trkpt><trkpt lat="46.0940579" lon="12.1699956"><ele>352.0</ele><time>2026-05-02T16:19:50.293Z</time></trkpt><trkpt lat="46.0941408" lon="12.1701302"><ele>352.0</ele><time>2026-05-02T16:19:52.294Z</time></trkpt><trkpt lat="46.0941835" lon="12.1701993"><ele>352.0</ele><time>2026-05-02T16:19:53.298Z</time></trkpt><trkpt lat="46.0942286" lon="12.1702681"><ele>352.0</ele><time>2026-05-02T16:19:54.3Z</time></trkpt><trkpt lat="46.0942689" lon="12.1703412"><ele>352.0</ele><time>2026-05-02T16:19:55.302Z</time></trkpt><trkpt lat="46.0943118" lon="12.170408"><ele>352.0</ele><time>2026-05-02T16:19:56.291Z</time></trkpt><trkpt lat="46.0943571" lon="12.1704802"><ele>352.0</ele><time>2026-05-02T16:19:57.301Z</time></trkpt><trkpt lat="46.0944449" lon="12.1706139"><ele>352.0</ele><time>2026-05-02T16:19:59.293Z</time></trkpt><trkpt lat="46.0944881" lon="12.1706873"><ele>351.2857142857143</ele><time>2026-05-02T16:20:00.301Z</time></trkpt><trkpt lat="46.0945297" lon="12.170763"><ele>350.57142857142856</ele><time>2026-05-02T16:20:01.296Z</time></trkpt><trkpt lat="46.0945735" lon="12.1708358"><ele>349.8571428571429</ele><time>2026-05-02T16:20:02.296Z</time></trkpt><trkpt lat="46.09462" lon="12.1709076"><ele>349.1428571428571</ele><time>2026-05-02T16:20:03.301Z</time></trkpt><trkpt lat="46.094664" lon="12.1709776"><ele>348.4285714285714</ele><time>2026-05-02T16:20:04.299Z</time></trkpt><trkpt lat="46.0947077" lon="12.1710485"><ele>347.7142857142857</ele><time>2026-05-02T16:20:05.3Z</time></trkpt><trkpt lat="46.094753" lon="12.1711149"><ele>347.0</ele><time>2026-05-02T16:20:06.293Z</time></trkpt><trkpt lat="46.0948011" lon="12.1711821"><ele>347.0</ele><time>2026-05-02T16:20:07.3Z</time></trkpt><trkpt lat="46.094848" lon="12.1712462"><ele>347.0</ele><time>2026-05-02T16:20:08.3Z</time></trkpt><trkpt lat="46.094895" lon="12.1713089"><ele>347.0</ele><time>2026-05-02T16:20:09.3Z</time></trkpt><trkpt lat="46.0949459" lon="12.1713759"><ele>347.0</ele><time>2026-05-02T16:20:10.294Z</time></trkpt><trkpt lat="46.0949951" lon="12.1714405"><ele>347.0</ele><time>2026-05-02T16:20:11.294Z</time></trkpt><trkpt lat="46.0950421" lon="12.1715076"><ele>347.0</ele><time>2026-05-02T16:20:12.299Z</time></trkpt><trkpt lat="46.095093" lon="12.1715682"><ele>347.0</ele><time>2026-05-02T16:20:13.302Z</time></trkpt><trkpt lat="46.0951432" lon="12.1716276"><ele>346.6666666666667</ele><time>2026-05-02T16:20:14.299Z</time></trkpt><trkpt lat="46.0952402" lon="12.1717386"><ele>346.33333333333337</ele><time>2026-05-02T16:20:16.296Z</time></trkpt><trkpt lat="46.0952912" lon="12.1717929"><ele>346.0</ele><time>2026-05-02T16:20:17.29Z</time></trkpt><trkpt lat="46.0953436" lon="12.1718515"><ele>345.6666666666667</ele><time>2026-05-02T16:20:18.301Z</time></trkpt><trkpt lat="46.0954001" lon="12.171904"><ele>345.3333333333333</ele><time>2026-05-02T16:20:19.295Z</time></trkpt><trkpt lat="46.0954563" lon="12.1719592"><ele>345.0</ele><time>2026-05-02T16:20:20.3Z</time></trkpt><trkpt lat="46.0955148" lon="12.1720178"><ele>345.0</ele><time>2026-05-02T16:20:21.297Z</time></trkpt><trkpt lat="46.0955751" lon="12.1720731"><ele>345.0</ele><time>2026-05-02T16:20:22.291Z</time></trkpt><trkpt lat="46.0956361" lon="12.1721269"><ele>345.0</ele><time>2026-05-02T16:20:23.302Z</time></trkpt><trkpt lat="46.0956981" lon="12.172177"><ele>345.0</ele><time>2026-05-02T16:20:24.294Z</time></trkpt><trkpt lat="46.0957597" lon="12.1722278"><ele>345.0</ele><time>2026-05-02T16:20:25.299Z</time></trkpt><trkpt lat="46.0958199" lon="12.1722776"><ele>345.0</ele><time>2026-05-02T16:20:26.301Z</time></trkpt><trkpt lat="46.0958813" lon="12.1723234"><ele>345.0</ele><time>2026-05-02T16:20:27.293Z</time></trkpt><trkpt lat="46.0959391" lon="12.1723697"><ele>345.0</ele><time>2026-05-02T16:20:28.291Z</time></trkpt><trkpt lat="46.0959993" lon="12.1724069"><ele>345.0</ele><time>2026-05-02T16:20:29.295Z</time></trkpt><trkpt lat="46.0960626" lon="12.1724382"><ele>345.0</ele><time>2026-05-02T16:20:30.306Z</time></trkpt><trkpt lat="46.0961255" lon="12.1724697"><ele>345.0</ele><time>2026-05-02T16:20:31.296Z</time></trkpt><trkpt lat="46.0961874" lon="12.1725032"><ele>345.0</ele><time>2026-05-02T16:20:32.302Z</time></trkpt><trkpt lat="46.0962528" lon="12.1725449"><ele>345.0</ele><time>2026-05-02T16:20:33.295Z</time></trkpt><trkpt lat="46.096318" lon="12.1725916"><ele>345.0</ele><time>2026-05-02T16:20:34.3Z</time></trkpt><trkpt lat="46.0963883" lon="12.1726231"><ele>345.0</ele><time>2026-05-02T16:20:35.292Z</time></trkpt><trkpt lat="46.0964578" lon="12.172649"><ele>345.0</ele><time>2026-05-02T16:20:36.303Z</time></trkpt><trkpt lat="46.0965271" lon="12.1726912"><ele>345.0</ele><time>2026-05-02T16:20:37.299Z</time></trkpt><trkpt lat="46.0965924" lon="12.1727449"><ele>345.0</ele><time>2026-05-02T16:20:38.299Z</time></trkpt><trkpt lat="46.0966533" lon="12.1728073"><ele>345.0</ele><time>2026-05-02T16:20:39.301Z</time></trkpt><trkpt lat="46.0967065" lon="12.1728796"><ele>345.0</ele><time>2026-05-02T16:20:40.3Z</time></trkpt><trkpt lat="46.096768" lon="12.1729331"><ele>345.0</ele><time>2026-05-02T16:20:41.3Z</time></trkpt><trkpt lat="46.0968368" lon="12.1729616"><ele>345.7142857142857</ele><time>2026-05-02T16:20:42.294Z</time></trkpt><trkpt lat="46.0969059" lon="12.1729783"><ele>346.42857142857144</ele><time>2026-05-02T16:20:43.294Z</time></trkpt><trkpt lat="46.096976" lon="12.1729996"><ele>347.1428571428571</ele><time>2026-05-02T16:20:44.302Z</time></trkpt><trkpt lat="46.0970469" lon="12.1730219"><ele>347.8571428571429</ele><time>2026-05-02T16:20:45.299Z</time></trkpt><trkpt lat="46.0971172" lon="12.1730422"><ele>348.57142857142856</ele><time>2026-05-02T16:20:46.3Z</time></trkpt><trkpt lat="46.0971896" lon="12.173066"><ele>349.2857142857143</ele><time>2026-05-02T16:20:47.302Z</time></trkpt><trkpt lat="46.0972597" lon="12.1730946"><ele>350.0</ele><time>2026-05-02T16:20:48.301Z</time></trkpt><trkpt lat="46.0973291" lon="12.1731213"><ele>350.0</ele><time>2026-05-02T16:20:49.301Z</time></trkpt><trkpt lat="46.0973985" lon="12.173148"><ele>350.0</ele><time>2026-05-02T16:20:50.294Z</time></trkpt><trkpt lat="46.0974674" lon="12.1731774"><ele>350.0</ele><time>2026-05-02T16:20:51.3Z</time></trkpt><trkpt lat="46.0975347" lon="12.1732098"><ele>350.0</ele><time>2026-05-02T16:20:52.304Z</time></trkpt><trkpt lat="46.0976032" lon="12.1732376"><ele>350.0</ele><time>2026-05-02T16:20:53.302Z</time></trkpt><trkpt lat="46.0976707" lon="12.173268"><ele>350.0</ele><time>2026-05-02T16:20:54.296Z</time></trkpt><trkpt lat="46.0977397" lon="12.173297"><ele>350.0</ele><time>2026-05-02T16:20:55.305Z</time></trkpt><trkpt lat="46.0978086" lon="12.173329"><ele>350.14285714285717</ele><time>2026-05-02T16:20:56.295Z</time></trkpt><trkpt lat="46.097877" lon="12.1733623"><ele>350.2857142857143</ele><time>2026-05-02T16:20:57.296Z</time></trkpt><trkpt lat="46.0979476" lon="12.1733945"><ele>350.42857142857144</ele><time>2026-05-02T16:20:58.303Z</time></trkpt><trkpt lat="46.09802" lon="12.1734249"><ele>350.57142857142856</ele><time>2026-05-02T16:20:59.301Z</time></trkpt><trkpt lat="46.0980919" lon="12.1734606"><ele>350.7142857142857</ele><time>2026-05-02T16:21:00.301Z</time></trkpt><trkpt lat="46.098162" lon="12.1734929"><ele>350.8571428571429</ele><time>2026-05-02T16:21:01.294Z</time></trkpt><trkpt lat="46.0982362" lon="12.1735248"><ele>351.0</ele><time>2026-05-02T16:21:02.292Z</time></trkpt><trkpt lat="46.0983091" lon="12.1735657"><ele>350.7142857142857</ele><time>2026-05-02T16:21:03.292Z</time></trkpt><trkpt lat="46.0983789" lon="12.1736016"><ele>350.42857142857144</ele><time>2026-05-02T16:21:04.302Z</time></trkpt><trkpt lat="46.0984516" lon="12.1736395"><ele>350.1428571428571</ele><time>2026-05-02T16:21:05.302Z</time></trkpt><trkpt lat="46.0985214" lon="12.1736747"><ele>349.8571428571429</ele><time>2026-05-02T16:21:06.301Z</time></trkpt><trkpt lat="46.098593" lon="12.1737048"><ele>349.57142857142856</ele><time>2026-05-02T16:21:07.301Z</time></trkpt><trkpt lat="46.0986618" lon="12.1737371"><ele>349.2857142857143</ele><time>2026-05-02T16:21:08.301Z</time></trkpt><trkpt lat="46.0987316" lon="12.17377"><ele>349.0</ele><time>2026-05-02T16:21:09.292Z</time></trkpt><trkpt lat="46.0988" lon="12.1738057"><ele>348.99999999999994</ele><time>2026-05-02T16:21:10.303Z</time></trkpt><trkpt lat="46.0988672" lon="12.1738421"><ele>349.0</ele><time>2026-05-02T16:21:11.303Z</time></trkpt><trkpt lat="46.0989369" lon="12.1738726"><ele>349.0</ele><time>2026-05-02T16:21:12.303Z</time></trkpt><trkpt lat="46.0990051" lon="12.1739004"><ele>349.0</ele><time>2026-05-02T16:21:13.295Z</time></trkpt><trkpt lat="46.0990747" lon="12.1739331"><ele>349.0</ele><time>2026-05-02T16:21:14.302Z</time></trkpt><trkpt lat="46.0991447" lon="12.1739658"><ele>348.99999999999994</ele><time>2026-05-02T16:21:15.301Z</time></trkpt><trkpt lat="46.099214" lon="12.1740011"><ele>349.0</ele><time>2026-05-02T16:21:16.302Z</time></trkpt><trkpt lat="46.0992878" lon="12.1740387"><ele>348.66666666666663</ele><time>2026-05-02T16:21:17.301Z</time></trkpt><trkpt lat="46.0993586" lon="12.1740759"><ele>348.3333333333333</ele><time>2026-05-02T16:21:18.299Z</time></trkpt><trkpt lat="46.0994322" lon="12.174117"><ele>348.0</ele><time>2026-05-02T16:21:19.297Z</time></trkpt><trkpt lat="46.0995034" lon="12.1741604"><ele>347.6666666666667</ele><time>2026-05-02T16:21:20.3Z</time></trkpt><trkpt lat="46.0995773" lon="12.1742096"><ele>347.33333333333337</ele><time>2026-05-02T16:21:21.301Z</time></trkpt><trkpt lat="46.0996458" lon="12.1742613"><ele>347.0</ele><time>2026-05-02T16:21:22.298Z</time></trkpt><trkpt lat="46.0997156" lon="12.1743106"><ele>347.0</ele><time>2026-05-02T16:21:23.294Z</time></trkpt><trkpt lat="46.0997825" lon="12.1743667"><ele>347.0</ele><time>2026-05-02T16:21:24.295Z</time></trkpt><trkpt lat="46.0998498" lon="12.1744233"><ele>347.0</ele><time>2026-05-02T16:21:25.295Z</time></trkpt><trkpt lat="46.0999165" lon="12.1744819"><ele>347.0</ele><time>2026-05-02T16:21:26.303Z</time></trkpt><trkpt lat="46.099981" lon="12.1745474"><ele>347.0</ele><time>2026-05-02T16:21:27.299Z</time></trkpt><trkpt lat="46.1000432" lon="12.1746158"><ele>347.0</ele><time>2026-05-02T16:21:28.303Z</time></trkpt><trkpt lat="46.1001059" lon="12.1746857"><ele>347.0</ele><time>2026-05-02T16:21:29.297Z</time></trkpt><trkpt lat="46.1001707" lon="12.1747529"><ele>347.0</ele><time>2026-05-02T16:21:30.292Z</time></trkpt><trkpt lat="46.1002302" lon="12.1748245"><ele>347.0</ele><time>2026-05-02T16:21:31.293Z</time></trkpt><trkpt lat="46.10029" lon="12.1748981"><ele>347.0</ele><time>2026-05-02T16:21:32.301Z</time></trkpt><trkpt lat="46.1003462" lon="12.174976"><ele>347.0</ele><time>2026-05-02T16:21:33.293Z</time></trkpt><trkpt lat="46.1004031" lon="12.1750509"><ele>347.0</ele><time>2026-05-02T16:21:34.303Z</time></trkpt><trkpt lat="46.1004579" lon="12.1751289"><ele>347.0</ele><time>2026-05-02T16:21:35.301Z</time></trkpt><trkpt lat="46.1005125" lon="12.1752106"><ele>347.0</ele><time>2026-05-02T16:21:36.302Z</time></trkpt><trkpt lat="46.1005641" lon="12.1752925"><ele>347.0</ele><time>2026-05-02T16:21:37.302Z</time></trkpt><trkpt lat="46.1006136" lon="12.1753801"><ele>347.0</ele><time>2026-05-02T16:21:38.294Z</time></trkpt><trkpt lat="46.1006599" lon="12.1754659"><ele>347.0</ele><time>2026-05-02T16:21:39.291Z</time></trkpt><trkpt lat="46.1007073" lon="12.1755544"><ele>347.0</ele><time>2026-05-02T16:21:40.305Z</time></trkpt><trkpt lat="46.1007511" lon="12.1756434"><ele>346.1666666666667</ele><time>2026-05-02T16:21:41.295Z</time></trkpt><trkpt lat="46.1007923" lon="12.1757349"><ele>345.33333333333337</ele><time>2026-05-02T16:21:42.289Z</time></trkpt><trkpt lat="46.1008342" lon="12.1758274"><ele>344.5</ele><time>2026-05-02T16:21:43.296Z</time></trkpt><trkpt lat="46.1008736" lon="12.1759199"><ele>343.6666666666667</ele><time>2026-05-02T16:21:44.293Z</time></trkpt><trkpt lat="46.1009129" lon="12.1760129"><ele>342.8333333333333</ele><time>2026-05-02T16:21:45.294Z</time></trkpt><trkpt lat="46.1009513" lon="12.176105"><ele>342.0</ele><time>2026-05-02T16:21:46.291Z</time></trkpt><trkpt lat="46.1009895" lon="12.1762003"><ele>342.0</ele><time>2026-05-02T16:21:47.296Z</time></trkpt><trkpt lat="46.1010282" lon="12.1762959"><ele>342.0</ele><time>2026-05-02T16:21:48.297Z</time></trkpt><trkpt lat="46.1010681" lon="12.1763915"><ele>342.0</ele><time>2026-05-02T16:21:49.295Z</time></trkpt><trkpt lat="46.1011059" lon="12.1764877"><ele>342.0</ele><time>2026-05-02T16:21:50.302Z</time></trkpt><trkpt lat="46.1011426" lon="12.176578"><ele>342.0</ele><time>2026-05-02T16:21:51.303Z</time></trkpt><trkpt lat="46.1011801" lon="12.1766726"><ele>342.0</ele><time>2026-05-02T16:21:52.3Z</time></trkpt><trkpt lat="46.1012176" lon="12.1767693"><ele>342.1666666666667</ele><time>2026-05-02T16:21:53.3Z</time></trkpt><trkpt lat="46.1012566" lon="12.1768641"><ele>342.3333333333333</ele><time>2026-05-02T16:21:54.3Z</time></trkpt><trkpt lat="46.1012958" lon="12.1769583"><ele>342.5</ele><time>2026-05-02T16:21:55.295Z</time></trkpt><trkpt lat="46.1013358" lon="12.1770512"><ele>342.66666666666663</ele><time>2026-05-02T16:21:56.294Z</time></trkpt><trkpt lat="46.1013732" lon="12.1771443"><ele>342.8333333333333</ele><time>2026-05-02T16:21:57.297Z</time></trkpt><trkpt lat="46.1014117" lon="12.1772391"><ele>343.0</ele><time>2026-05-02T16:21:58.3Z</time></trkpt><trkpt lat="46.1014488" lon="12.1773332"><ele>343.0</ele><time>2026-05-02T16:21:59.293Z</time></trkpt><trkpt lat="46.1014853" lon="12.1774248"><ele>343.0</ele><time>2026-05-02T16:22:00.297Z</time></trkpt><trkpt lat="46.1015217" lon="12.1775139"><ele>343.0</ele><time>2026-05-02T16:22:01.293Z</time></trkpt><trkpt lat="46.1015563" lon="12.1776022"><ele>343.0</ele><time>2026-05-02T16:22:02.291Z</time></trkpt><trkpt lat="46.1015917" lon="12.1776922"><ele>343.0</ele><time>2026-05-02T16:22:03.292Z</time></trkpt><trkpt lat="46.1016283" lon="12.1777862"><ele>343.0</ele><time>2026-05-02T16:22:04.301Z</time></trkpt><trkpt lat="46.1016623" lon="12.1778787"><ele>343.0</ele><time>2026-05-02T16:22:05.3Z</time></trkpt><trkpt lat="46.1016965" lon="12.1779684"><ele>343.0</ele><time>2026-05-02T16:22:06.29Z</time></trkpt><trkpt lat="46.1017321" lon="12.1780568"><ele>343.0</ele><time>2026-05-02T16:22:07.293Z</time></trkpt><trkpt lat="46.1017998" lon="12.1782281"><ele>343.0</ele><time>2026-05-02T16:22:09.299Z</time></trkpt><trkpt lat="46.1018298" lon="12.1783101"><ele>343.0</ele><time>2026-05-02T16:22:10.293Z</time></trkpt><trkpt lat="46.1018634" lon="12.1783953"><ele>343.0</ele><time>2026-05-02T16:22:11.292Z</time></trkpt><trkpt lat="46.1018951" lon="12.1784814"><ele>343.0</ele><time>2026-05-02T16:22:12.3Z</time></trkpt><trkpt lat="46.1019335" lon="12.1785679"><ele>343.0</ele><time>2026-05-02T16:22:13.29Z</time></trkpt><trkpt lat="46.1019662" lon="12.1786548"><ele>343.0</ele><time>2026-05-02T16:22:14.295Z</time></trkpt><trkpt lat="46.102001" lon="12.1787395"><ele>343.0</ele><time>2026-05-02T16:22:15.3Z</time></trkpt><trkpt lat="46.1020355" lon="12.1788248"><ele>343.0</ele><time>2026-05-02T16:22:16.301Z</time></trkpt><trkpt lat="46.1020704" lon="12.1789085"><ele>343.0</ele><time>2026-05-02T16:22:17.3Z</time></trkpt><trkpt lat="46.102105" lon="12.1789922"><ele>343.0</ele><time>2026-05-02T16:22:18.3Z</time></trkpt><trkpt lat="46.1021385" lon="12.1790738"><ele>343.0</ele><time>2026-05-02T16:22:19.3Z</time></trkpt><trkpt lat="46.1021719" lon="12.1791553"><ele>343.0</ele><time>2026-05-02T16:22:20.294Z</time></trkpt><trkpt lat="46.1022059" lon="12.179235"><ele>343.0</ele><time>2026-05-02T16:22:21.297Z</time></trkpt><trkpt lat="46.1022391" lon="12.179317"><ele>343.0</ele><time>2026-05-02T16:22:22.301Z</time></trkpt><trkpt lat="46.1022696" lon="12.1793992"><ele>343.0</ele><time>2026-05-02T16:22:23.3Z</time></trkpt><trkpt lat="46.1023332" lon="12.1795574"><ele>343.0</ele><time>2026-05-02T16:22:25.301Z</time></trkpt><trkpt lat="46.1023673" lon="12.1796391"><ele>343.0</ele><time>2026-05-02T16:22:26.303Z</time></trkpt><trkpt lat="46.1023989" lon="12.1797177"><ele>343.0</ele><time>2026-05-02T16:22:27.297Z</time></trkpt><trkpt lat="46.102462" lon="12.1798746"><ele>343.0</ele><time>2026-05-02T16:22:29.301Z</time></trkpt><trkpt lat="46.1025159" lon="12.1800313"><ele>343.0</ele><time>2026-05-02T16:22:31.291Z</time></trkpt><trkpt lat="46.1025455" lon="12.1801126"><ele>343.0</ele><time>2026-05-02T16:22:32.301Z</time></trkpt><trkpt lat="46.1025791" lon="12.1801915"><ele>343.0</ele><time>2026-05-02T16:22:33.301Z</time></trkpt><trkpt lat="46.1026364" lon="12.1803501"><ele>343.0</ele><time>2026-05-02T16:22:35.301Z</time></trkpt><trkpt lat="46.1027015" lon="12.180501"><ele>343.0</ele><time>2026-05-02T16:22:37.299Z</time></trkpt><trkpt lat="46.1027658" lon="12.1806543"><ele>343.0</ele><time>2026-05-02T16:22:39.291Z</time></trkpt><trkpt lat="46.1027958" lon="12.1807366"><ele>343.0</ele><time>2026-05-02T16:22:40.302Z</time></trkpt><trkpt lat="46.1028551" lon="12.1808929"><ele>343.0</ele><time>2026-05-02T16:22:42.305Z</time></trkpt><trkpt lat="46.1029168" lon="12.1810462"><ele>343.0</ele><time>2026-05-02T16:22:44.303Z</time></trkpt><trkpt lat="46.1029518" lon="12.1811222"><ele>343.0</ele><time>2026-05-02T16:22:45.294Z</time></trkpt><trkpt lat="46.1030077" lon="12.1812738"><ele>343.0</ele><time>2026-05-02T16:22:47.291Z</time></trkpt><trkpt lat="46.1030743" lon="12.1814262"><ele>343.0</ele><time>2026-05-02T16:22:49.292Z</time></trkpt><trkpt lat="46.1031049" lon="12.1815059"><ele>343.0</ele><time>2026-05-02T16:22:50.302Z</time></trkpt><trkpt lat="46.1031662" lon="12.1816577"><ele>343.2</ele><time>2026-05-02T16:22:52.299Z</time></trkpt><trkpt lat="46.1032275" lon="12.1818158"><ele>343.4</ele><time>2026-05-02T16:22:54.3Z</time></trkpt><trkpt lat="46.1032572" lon="12.181896"><ele>343.59999999999997</ele><time>2026-05-02T16:22:55.3Z</time></trkpt><trkpt lat="46.1033177" lon="12.1820517"><ele>343.79999999999995</ele><time>2026-05-02T16:22:57.292Z</time></trkpt><trkpt lat="46.1033793" lon="12.1822013"><ele>344.0</ele><time>2026-05-02T16:22:59.299Z</time></trkpt><trkpt lat="46.1034098" lon="12.182281"><ele>344.4</ele><time>2026-05-02T16:23:00.29Z</time></trkpt><trkpt lat="46.1034741" lon="12.1824368"><ele>344.79999999999995</ele><time>2026-05-02T16:23:02.301Z</time></trkpt><trkpt lat="46.1035335" lon="12.1825907"><ele>345.20000000000005</ele><time>2026-05-02T16:23:04.3Z</time></trkpt><trkpt lat="46.103565" lon="12.1826707"><ele>345.6</ele><time>2026-05-02T16:23:05.302Z</time></trkpt><trkpt lat="46.1036269" lon="12.1828259"><ele>346.0</ele><time>2026-05-02T16:23:07.293Z</time></trkpt><trkpt lat="46.1036849" lon="12.1829767"><ele>346.0</ele><time>2026-05-02T16:23:09.294Z</time></trkpt><trkpt lat="46.1037413" lon="12.183123"><ele>346.0</ele><time>2026-05-02T16:23:11.291Z</time></trkpt><trkpt lat="46.1037743" lon="12.1832022"><ele>346.0</ele><time>2026-05-02T16:23:12.301Z</time></trkpt><trkpt lat="46.1038343" lon="12.1833579"><ele>346.0</ele><time>2026-05-02T16:23:14.302Z</time></trkpt><trkpt lat="46.1038691" lon="12.1834338"><ele>346.0</ele><time>2026-05-02T16:23:15.3Z</time></trkpt><trkpt lat="46.1039039" lon="12.1835111"><ele>346.0</ele><time>2026-05-02T16:23:16.292Z</time></trkpt><trkpt lat="46.1039622" lon="12.1836661"><ele>346.5</ele><time>2026-05-02T16:23:18.294Z</time></trkpt><trkpt lat="46.1039929" lon="12.1837465"><ele>347.0</ele><time>2026-05-02T16:23:19.292Z</time></trkpt><trkpt lat="46.1040261" lon="12.183824"><ele>347.5</ele><time>2026-05-02T16:23:20.293Z</time></trkpt><trkpt lat="46.1040848" lon="12.1839798"><ele>348.0</ele><time>2026-05-02T16:23:22.297Z</time></trkpt><trkpt lat="46.104147" lon="12.184133"><ele>348.5</ele><time>2026-05-02T16:23:24.295Z</time></trkpt><trkpt lat="46.104179" lon="12.1842134"><ele>349.0</ele><time>2026-05-02T16:23:25.298Z</time></trkpt><trkpt lat="46.1042413" lon="12.1843646"><ele>349.2</ele><time>2026-05-02T16:23:27.301Z</time></trkpt><trkpt lat="46.1042942" lon="12.1845102"><ele>349.4</ele><time>2026-05-02T16:23:29.295Z</time></trkpt><trkpt lat="46.1043577" lon="12.1846597"><ele>349.6</ele><time>2026-05-02T16:23:31.301Z</time></trkpt><trkpt lat="46.1044189" lon="12.1848158"><ele>349.8</ele><time>2026-05-02T16:23:33.291Z</time></trkpt><trkpt lat="46.1044497" lon="12.1848957"><ele>350.0</ele><time>2026-05-02T16:23:34.293Z</time></trkpt><trkpt lat="46.1044829" lon="12.1849761"><ele>350.42857142857144</ele><time>2026-05-02T16:23:35.3Z</time></trkpt><trkpt lat="46.1045165" lon="12.1850552"><ele>350.8571428571429</ele><time>2026-05-02T16:23:36.301Z</time></trkpt><trkpt lat="46.1045483" lon="12.1851377"><ele>351.2857142857143</ele><time>2026-05-02T16:23:37.301Z</time></trkpt><trkpt lat="46.1046111" lon="12.1852936"><ele>351.7142857142857</ele><time>2026-05-02T16:23:39.296Z</time></trkpt><trkpt lat="46.1046433" lon="12.1853747"><ele>352.14285714285717</ele><time>2026-05-02T16:23:40.293Z</time></trkpt><trkpt lat="46.1046741" lon="12.1854558"><ele>352.57142857142856</ele><time>2026-05-02T16:23:41.3Z</time></trkpt><trkpt lat="46.1047087" lon="12.1855322"><ele>353.0</ele><time>2026-05-02T16:23:42.3Z</time></trkpt><trkpt lat="46.1047425" lon="12.1856164"><ele>352.79999999999995</ele><time>2026-05-02T16:23:43.301Z</time></trkpt><trkpt lat="46.1047732" lon="12.1857014"><ele>352.6</ele><time>2026-05-02T16:23:44.301Z</time></trkpt><trkpt lat="46.1048049" lon="12.1857815"><ele>352.4</ele><time>2026-05-02T16:23:45.299Z</time></trkpt><trkpt lat="46.1048689" lon="12.1859359"><ele>352.20000000000005</ele><time>2026-05-02T16:23:47.297Z</time></trkpt><trkpt lat="46.104928" lon="12.1860943"><ele>352.0</ele><time>2026-05-02T16:23:49.291Z</time></trkpt><trkpt lat="46.104992" lon="12.18625"><ele>352.0</ele><time>2026-05-02T16:23:51.296Z</time></trkpt><trkpt lat="46.1050524" lon="12.1864019"><ele>352.0</ele><time>2026-05-02T16:23:53.293Z</time></trkpt><trkpt lat="46.1051205" lon="12.1865546"><ele>352.0</ele><time>2026-05-02T16:23:55.302Z</time></trkpt><trkpt lat="46.1051782" lon="12.1867058"><ele>352.0</ele><time>2026-05-02T16:23:57.295Z</time></trkpt><trkpt lat="46.1052101" lon="12.1867855"><ele>352.0</ele><time>2026-05-02T16:23:58.303Z</time></trkpt><trkpt lat="46.1052746" lon="12.1869441"><ele>352.5</ele><time>2026-05-02T16:24:00.303Z</time></trkpt><trkpt lat="46.1053314" lon="12.1870984"><ele>353.0</ele><time>2026-05-02T16:24:02.298Z</time></trkpt><trkpt lat="46.1053886" lon="12.1872507"><ele>353.5</ele><time>2026-05-02T16:24:04.293Z</time></trkpt><trkpt lat="46.1054518" lon="12.1874114"><ele>354.0</ele><time>2026-05-02T16:24:06.294Z</time></trkpt><trkpt lat="46.105509" lon="12.1875694"><ele>354.2</ele><time>2026-05-02T16:24:08.296Z</time></trkpt><trkpt lat="46.1055703" lon="12.1877259"><ele>354.4</ele><time>2026-05-02T16:24:10.294Z</time></trkpt><trkpt lat="46.1056319" lon="12.187884"><ele>354.6</ele><time>2026-05-02T16:24:12.302Z</time></trkpt><trkpt lat="46.1056651" lon="12.1879617"><ele>354.8</ele><time>2026-05-02T16:24:13.29Z</time></trkpt><trkpt lat="46.1057218" lon="12.1881109"><ele>355.0</ele><time>2026-05-02T16:24:15.301Z</time></trkpt><trkpt lat="46.1057878" lon="12.1882607"><ele>355.0</ele><time>2026-05-02T16:24:17.295Z</time></trkpt><trkpt lat="46.1058251" lon="12.1883367"><ele>355.0</ele><time>2026-05-02T16:24:18.301Z</time></trkpt><trkpt lat="46.105893" lon="12.1884893"><ele>355.0</ele><time>2026-05-02T16:24:20.291Z</time></trkpt><trkpt lat="46.1059506" lon="12.1886502"><ele>355.0</ele><time>2026-05-02T16:24:22.299Z</time></trkpt><trkpt lat="46.1060094" lon="12.188804"><ele>355.0</ele><time>2026-05-02T16:24:24.294Z</time></trkpt><trkpt lat="46.1060687" lon="12.1889578"><ele>354.8</ele><time>2026-05-02T16:24:26.296Z</time></trkpt><trkpt lat="46.1061284" lon="12.1891131"><ele>354.6</ele><time>2026-05-02T16:24:28.303Z</time></trkpt><trkpt lat="46.1061864" lon="12.1892686"><ele>354.4</ele><time>2026-05-02T16:24:30.288Z</time></trkpt><trkpt lat="46.1062426" lon="12.189425"><ele>354.2</ele><time>2026-05-02T16:24:32.302Z</time></trkpt><trkpt lat="46.1062704" lon="12.1895112"><ele>354.0</ele><time>2026-05-02T16:24:33.302Z</time></trkpt><trkpt lat="46.1063214" lon="12.1896651"><ele>354.0</ele><time>2026-05-02T16:24:35.301Z</time></trkpt><trkpt lat="46.1063526" lon="12.1897455"><ele>354.0</ele><time>2026-05-02T16:24:36.292Z</time></trkpt><trkpt lat="46.1064041" lon="12.1899074"><ele>354.0</ele><time>2026-05-02T16:24:38.291Z</time></trkpt><trkpt lat="46.1064557" lon="12.1900694"><ele>354.0</ele><time>2026-05-02T16:24:40.301Z</time></trkpt><trkpt lat="46.1064858" lon="12.1901516"><ele>354.0</ele><time>2026-05-02T16:24:41.3Z</time></trkpt><trkpt lat="46.1065118" lon="12.1902348"><ele>354.0</ele><time>2026-05-02T16:24:42.299Z</time></trkpt><trkpt lat="46.1065388" lon="12.1903178"><ele>354.79999999999995</ele><time>2026-05-02T16:24:43.301Z</time></trkpt><trkpt lat="46.1065878" lon="12.1904827"><ele>355.59999999999997</ele><time>2026-05-02T16:24:45.302Z</time></trkpt><trkpt lat="46.1066128" lon="12.1905701"><ele>356.4</ele><time>2026-05-02T16:24:46.303Z</time></trkpt><trkpt lat="46.1066377" lon="12.1906563"><ele>357.2</ele><time>2026-05-02T16:24:47.303Z</time></trkpt><trkpt lat="46.1066837" lon="12.1908238"><ele>358.0</ele><time>2026-05-02T16:24:49.297Z</time></trkpt><trkpt lat="46.1067318" lon="12.1909914"><ele>358.16666666666663</ele><time>2026-05-02T16:24:51.294Z</time></trkpt><trkpt lat="46.1067582" lon="12.1910768"><ele>358.3333333333333</ele><time>2026-05-02T16:24:52.298Z</time></trkpt><trkpt lat="46.1067989" lon="12.1912394"><ele>358.5</ele><time>2026-05-02T16:24:54.304Z</time></trkpt><trkpt lat="46.1068411" lon="12.1914097"><ele>358.6666666666667</ele><time>2026-05-02T16:24:56.302Z</time></trkpt><trkpt lat="46.1068599" lon="12.191498"><ele>358.83333333333337</ele><time>2026-05-02T16:24:57.294Z</time></trkpt><trkpt lat="46.1068775" lon="12.1915864"><ele>359.0</ele><time>2026-05-02T16:24:58.303Z</time></trkpt><trkpt lat="46.1068941" lon="12.1916744"><ele>359.0</ele><time>2026-05-02T16:24:59.294Z</time></trkpt><trkpt lat="46.1069294" lon="12.1918499"><ele>359.0</ele><time>2026-05-02T16:25:01.298Z</time></trkpt><trkpt lat="46.1069489" lon="12.191939"><ele>359.0</ele><time>2026-05-02T16:25:02.292Z</time></trkpt><trkpt lat="46.1069695" lon="12.1920257"><ele>359.0</ele><time>2026-05-02T16:25:03.299Z</time></trkpt><trkpt lat="46.1069894" lon="12.1921121"><ele>359.0</ele><time>2026-05-02T16:25:04.302Z</time></trkpt><trkpt lat="46.1070097" lon="12.1922019"><ele>359.0</ele><time>2026-05-02T16:25:05.299Z</time></trkpt><trkpt lat="46.1070231" lon="12.1922912"><ele>359.0</ele><time>2026-05-02T16:25:06.292Z</time></trkpt><trkpt lat="46.1070227" lon="12.1924674"><ele>359.14285714285717</ele><time>2026-05-02T16:25:08.293Z</time></trkpt><trkpt lat="46.1070072" lon="12.1925555"><ele>359.28571428571433</ele><time>2026-05-02T16:25:09.301Z</time></trkpt><trkpt lat="46.1069979" lon="12.1926463"><ele>359.42857142857144</ele><time>2026-05-02T16:25:10.301Z</time></trkpt><trkpt lat="46.1070035" lon="12.1927369"><ele>359.57142857142856</ele><time>2026-05-02T16:25:11.292Z</time></trkpt><trkpt lat="46.1070356" lon="12.1928233"><ele>359.7142857142857</ele><time>2026-05-02T16:25:12.296Z</time></trkpt><trkpt lat="46.1070855" lon="12.1928896"><ele>359.85714285714283</ele><time>2026-05-02T16:25:13.293Z</time></trkpt><trkpt lat="46.1071464" lon="12.1929174"><ele>360.0</ele><time>2026-05-02T16:25:14.295Z</time></trkpt><trkpt lat="46.1072103" lon="12.1929042"><ele>360.0</ele><time>2026-05-02T16:25:15.301Z</time></trkpt><trkpt lat="46.1072908" lon="12.1927692"><ele>360.0</ele><time>2026-05-02T16:25:17.293Z</time></trkpt><trkpt lat="46.1073094" lon="12.1926817"><ele>360.0</ele><time>2026-05-02T16:25:18.295Z</time></trkpt><trkpt lat="46.1073335" lon="12.1925973"><ele>360.0</ele><time>2026-05-02T16:25:19.301Z</time></trkpt><trkpt lat="46.107388" lon="12.1924333"><ele>360.0</ele><time>2026-05-02T16:25:21.295Z</time></trkpt><trkpt lat="46.1074027" lon="12.1923418"><ele>360.0</ele><time>2026-05-02T16:25:22.294Z</time></trkpt><trkpt lat="46.107404" lon="12.1921611"><ele>359.8</ele><time>2026-05-02T16:25:24.296Z</time></trkpt><trkpt lat="46.1073753" lon="12.1919911"><ele>359.6</ele><time>2026-05-02T16:25:26.295Z</time></trkpt><trkpt lat="46.1073619" lon="12.1917922"><ele>359.4</ele><time>2026-05-02T16:25:28.303Z</time></trkpt><trkpt lat="46.1073669" lon="12.191696"><ele>359.2</ele><time>2026-05-02T16:25:29.291Z</time></trkpt><trkpt lat="46.1073733" lon="12.1916019"><ele>359.0</ele><time>2026-05-02T16:25:30.294Z</time></trkpt><trkpt lat="46.1073871" lon="12.1914297"><ele>358.33333333333337</ele><time>2026-05-02T16:25:32.294Z</time></trkpt><trkpt lat="46.1074574" lon="12.1913019"><ele>357.6666666666667</ele><time>2026-05-02T16:25:34.293Z</time></trkpt><trkpt lat="46.1075631" lon="12.191247"><ele>357.0</ele><time>2026-05-02T16:25:36.296Z</time></trkpt><trkpt lat="46.1076278" lon="12.1912488"><ele>356.3333333333333</ele><time>2026-05-02T16:25:37.292Z</time></trkpt><trkpt lat="46.1076925" lon="12.1912543"><ele>355.66666666666663</ele><time>2026-05-02T16:25:38.293Z</time></trkpt><trkpt lat="46.1077581" lon="12.1912544"><ele>355.0</ele><time>2026-05-02T16:25:39.294Z</time></trkpt><trkpt lat="46.1078226" lon="12.1912484"><ele>355.0</ele><time>2026-05-02T16:25:40.293Z</time></trkpt><trkpt lat="46.1078876" lon="12.1912362"><ele>355.0</ele><time>2026-05-02T16:25:41.291Z</time></trkpt><trkpt lat="46.1079551" lon="12.1912228"><ele>355.0</ele><time>2026-05-02T16:25:42.293Z</time></trkpt><trkpt lat="46.108021" lon="12.1912079"><ele>355.0</ele><time>2026-05-02T16:25:43.29Z</time></trkpt><trkpt lat="46.1080846" lon="12.1911874"><ele>355.0</ele><time>2026-05-02T16:25:44.294Z</time></trkpt><trkpt lat="46.1081447" lon="12.191147"><ele>355.0</ele><time>2026-05-02T16:25:45.29Z</time></trkpt><trkpt lat="46.1081999" lon="12.1911028"><ele>355.0</ele><time>2026-05-02T16:25:46.293Z</time></trkpt><trkpt lat="46.1082547" lon="12.1910529"><ele>354.85714285714283</ele><time>2026-05-02T16:25:47.292Z</time></trkpt><trkpt lat="46.1083078" lon="12.1909993"><ele>354.7142857142857</ele><time>2026-05-02T16:25:48.294Z</time></trkpt><trkpt lat="46.1083617" lon="12.1909432"><ele>354.57142857142856</ele><time>2026-05-02T16:25:49.29Z</time></trkpt><trkpt lat="46.1084171" lon="12.190887"><ele>354.42857142857144</ele><time>2026-05-02T16:25:50.293Z</time></trkpt><trkpt lat="46.1084761" lon="12.1908317"><ele>354.2857142857143</ele><time>2026-05-02T16:25:51.292Z</time></trkpt><trkpt lat="46.1085348" lon="12.1907753"><ele>354.14285714285717</ele><time>2026-05-02T16:25:52.293Z</time></trkpt><trkpt lat="46.1085947" lon="12.1907171"><ele>354.0</ele><time>2026-05-02T16:25:53.292Z</time></trkpt><trkpt lat="46.1086571" lon="12.1906636"><ele>353.7142857142857</ele><time>2026-05-02T16:25:54.293Z</time></trkpt><trkpt lat="46.1087168" lon="12.1906107"><ele>353.4285714285714</ele><time>2026-05-02T16:25:55.293Z</time></trkpt><trkpt lat="46.1087762" lon="12.1905573"><ele>353.1428571428571</ele><time>2026-05-02T16:25:56.293Z</time></trkpt><trkpt lat="46.1088395" lon="12.1905068"><ele>352.8571428571429</ele><time>2026-05-02T16:25:57.293Z</time></trkpt><trkpt lat="46.1089014" lon="12.1904558"><ele>352.57142857142856</ele><time>2026-05-02T16:25:58.293Z</time></trkpt><trkpt lat="46.1089609" lon="12.1904038"><ele>352.2857142857143</ele><time>2026-05-02T16:25:59.293Z</time></trkpt><trkpt lat="46.10902" lon="12.1903481"><ele>352.0</ele><time>2026-05-02T16:26:00.293Z</time></trkpt><trkpt lat="46.1090807" lon="12.1903016"><ele>352.0</ele><time>2026-05-02T16:26:01.293Z</time></trkpt><trkpt lat="46.1091412" lon="12.1902507"><ele>352.0</ele><time>2026-05-02T16:26:02.29Z</time></trkpt><trkpt lat="46.1092021" lon="12.190198"><ele>352.0</ele><time>2026-05-02T16:26:03.295Z</time></trkpt><trkpt lat="46.1092657" lon="12.1901504"><ele>352.0</ele><time>2026-05-02T16:26:04.291Z</time></trkpt><trkpt lat="46.1093237" lon="12.1900969"><ele>352.0</ele><time>2026-05-02T16:26:05.293Z</time></trkpt><trkpt lat="46.1093792" lon="12.190045"><ele>352.0</ele><time>2026-05-02T16:26:06.291Z</time></trkpt><trkpt lat="46.1094346" lon="12.1899877"><ele>352.0</ele><time>2026-05-02T16:26:07.293Z</time></trkpt><trkpt lat="46.1094896" lon="12.1899299"><ele>352.0</ele><time>2026-05-02T16:26:08.291Z</time></trkpt><trkpt lat="46.109546" lon="12.1898729"><ele>352.0</ele><time>2026-05-02T16:26:09.293Z</time></trkpt><trkpt lat="46.1096037" lon="12.1898172"><ele>352.0</ele><time>2026-05-02T16:26:10.291Z</time></trkpt><trkpt lat="46.1096605" lon="12.189761"><ele>352.0</ele><time>2026-05-02T16:26:11.292Z</time></trkpt><trkpt lat="46.109713" lon="12.1897053"><ele>352.0</ele><time>2026-05-02T16:26:12.291Z</time></trkpt><trkpt lat="46.1097677" lon="12.1896527"><ele>352.0</ele><time>2026-05-02T16:26:13.292Z</time></trkpt><trkpt lat="46.1098255" lon="12.1895962"><ele>352.0</ele><time>2026-05-02T16:26:14.295Z</time></trkpt><trkpt lat="46.1098833" lon="12.1895374"><ele>351.42857142857144</ele><time>2026-05-02T16:26:15.294Z</time></trkpt><trkpt lat="46.1099391" lon="12.1894821"><ele>350.85714285714283</ele><time>2026-05-02T16:26:16.293Z</time></trkpt><trkpt lat="46.109995" lon="12.1894268"><ele>350.2857142857143</ele><time>2026-05-02T16:26:17.291Z</time></trkpt><trkpt lat="46.1100501" lon="12.1893691"><ele>349.7142857142857</ele><time>2026-05-02T16:26:18.292Z</time></trkpt><trkpt lat="46.110102" lon="12.1893077"><ele>349.14285714285717</ele><time>2026-05-02T16:26:19.29Z</time></trkpt><trkpt lat="46.110156" lon="12.1892502"><ele>348.57142857142856</ele><time>2026-05-02T16:26:20.293Z</time></trkpt><trkpt lat="46.1102114" lon="12.1891986"><ele>348.0</ele><time>2026-05-02T16:26:21.294Z</time></trkpt><trkpt lat="46.1102701" lon="12.1891461"><ele>348.0</ele><time>2026-05-02T16:26:22.291Z</time></trkpt><trkpt lat="46.110332" lon="12.1891079"><ele>348.0</ele><time>2026-05-02T16:26:23.293Z</time></trkpt><trkpt lat="46.110398" lon="12.1890798"><ele>348.0</ele><time>2026-05-02T16:26:24.292Z</time></trkpt><trkpt lat="46.1104659" lon="12.1890551"><ele>348.0</ele><time>2026-05-02T16:26:25.293Z</time></trkpt><trkpt lat="46.1105325" lon="12.1890431"><ele>348.0</ele><time>2026-05-02T16:26:26.293Z</time></trkpt><trkpt lat="46.1105972" lon="12.1890338"><ele>348.0</ele><time>2026-05-02T16:26:27.293Z</time></trkpt><trkpt lat="46.1106653" lon="12.189028"><ele>348.0</ele><time>2026-05-02T16:26:28.295Z</time></trkpt><trkpt lat="46.1107882" lon="12.189006"><ele>347.57142857142856</ele><time>2026-05-02T16:26:30.296Z</time></trkpt><trkpt lat="46.1108552" lon="12.1889891"><ele>347.14285714285717</ele><time>2026-05-02T16:26:31.3Z</time></trkpt><trkpt lat="46.110926" lon="12.1889725"><ele>346.7142857142857</ele><time>2026-05-02T16:26:32.3Z</time></trkpt><trkpt lat="46.1109926" lon="12.1889507"><ele>346.2857142857143</ele><time>2026-05-02T16:26:33.3Z</time></trkpt><trkpt lat="46.1110594" lon="12.1889251"><ele>345.85714285714283</ele><time>2026-05-02T16:26:34.295Z</time></trkpt><trkpt lat="46.111125" lon="12.1889002"><ele>345.42857142857144</ele><time>2026-05-02T16:26:35.302Z</time></trkpt><trkpt lat="46.1111901" lon="12.1888773"><ele>345.0</ele><time>2026-05-02T16:26:36.298Z</time></trkpt><trkpt lat="46.1112603" lon="12.1888587"><ele>345.0</ele><time>2026-05-02T16:26:37.295Z</time></trkpt><trkpt lat="46.1113291" lon="12.1888373"><ele>345.0</ele><time>2026-05-02T16:26:38.296Z</time></trkpt><trkpt lat="46.1113946" lon="12.1888148"><ele>345.0</ele><time>2026-05-02T16:26:39.302Z</time></trkpt><trkpt lat="46.1114616" lon="12.1887951"><ele>345.0</ele><time>2026-05-02T16:26:40.301Z</time></trkpt><trkpt lat="46.1115325" lon="12.188777"><ele>345.0</ele><time>2026-05-02T16:26:41.291Z</time></trkpt><trkpt lat="46.1116003" lon="12.1887578"><ele>345.0</ele><time>2026-05-02T16:26:42.296Z</time></trkpt><trkpt lat="46.1116715" lon="12.1887422"><ele>345.0</ele><time>2026-05-02T16:26:43.294Z</time></trkpt><trkpt lat="46.1117439" lon="12.1887386"><ele>345.42857142857144</ele><time>2026-05-02T16:26:44.296Z</time></trkpt><trkpt lat="46.1118167" lon="12.1887343"><ele>345.85714285714283</ele><time>2026-05-02T16:26:45.302Z</time></trkpt><trkpt lat="46.1118803" lon="12.1887249"><ele>346.2857142857143</ele><time>2026-05-02T16:26:46.293Z</time></trkpt><trkpt lat="46.1119491" lon="12.1887125"><ele>346.7142857142857</ele><time>2026-05-02T16:26:47.298Z</time></trkpt><trkpt lat="46.1120173" lon="12.1887016"><ele>347.14285714285717</ele><time>2026-05-02T16:26:48.296Z</time></trkpt><trkpt lat="46.1120906" lon="12.1886796"><ele>347.57142857142856</ele><time>2026-05-02T16:26:49.296Z</time></trkpt><trkpt lat="46.1121472" lon="12.1886225"><ele>348.0</ele><time>2026-05-02T16:26:50.298Z</time></trkpt><trkpt lat="46.1121885" lon="12.1885451"><ele>348.0</ele><time>2026-05-02T16:26:51.293Z</time></trkpt><trkpt lat="46.1122389" lon="12.1884299"><ele>348.0</ele><time>2026-05-02T16:26:53.292Z</time></trkpt><trkpt lat="46.1122977" lon="12.1883908"><ele>348.0</ele><time>2026-05-02T16:26:55.289Z</time></trkpt><trkpt lat="46.1123535" lon="12.1883367"><ele>348.0</ele><time>2026-05-02T16:27:07.295Z</time></trkpt><trkpt lat="46.1124103" lon="12.1883889"><ele>345.0</ele><time>2026-05-02T16:27:27.304Z</time></trkpt><trkpt lat="46.1124634" lon="12.188459"><ele>345.0</ele><time>2026-05-02T16:27:31.301Z</time></trkpt><trkpt lat="46.1124301" lon="12.1883531"><ele>345.0</ele><time>2026-05-02T16:27:34.305Z</time></trkpt></trkseg></trk></gpx>